<?xml version="1.0" encoding="UTF-8" standalone="no" ?>
<gpx xmlns="http://www.topografix.com/GPX/1/1" xmlns:xsi="http://www.w3.org/2001/XMLSchema-instance" xsi:schemaLocation="http://www.topografix.com/GPX/1/1 http://www.topografix.com/GPX/1/1/gpx.xsd" version="1.1" creator="VisuGPX - https://www.visugpx.com">
  <metadata>
    <name>St Feriol-le pech-col de Labau</name>
    <desc><![CDATA[Circuit roulant et monotrace, 2 cols (Pech de St Fériol, col de Labau).]]></desc>
  </metadata>
  <trk>
    <name><![CDATA[St Feriol-le pech-col de Labau_1]]></name>
    <trkseg>
      <trkpt lat="42.87024" lon="2.18405">
        <ele>288.31</ele>
        <time>2026-06-03T12:47:55.440855980Z</time>
      </trkpt>
      <trkpt lat="42.87019" lon="2.18408">
        <ele>288.38</ele>
        <time>2026-06-03T12:48:13.469967008Z</time>
      </trkpt>
      <trkpt lat="42.87014" lon="2.18377">
        <ele>289.66998</ele>
        <time>2026-06-03T12:48:14.460526943Z</time>
      </trkpt>
      <trkpt lat="42.8701" lon="2.18342">
        <ele>289.82</ele>
        <time>2026-06-03T12:48:15.510774970Z</time>
      </trkpt>
      <trkpt lat="42.87013" lon="2.18339">
        <ele>289.93</ele>
        <time>2026-06-03T12:48:16.500205994Z</time>
      </trkpt>
      <trkpt lat="42.87016" lon="2.18339">
        <ele>290.06</ele>
        <time>2026-06-03T12:48:17.490229964Z</time>
      </trkpt>
      <trkpt lat="42.87019" lon="2.18339">
        <ele>290.21002</ele>
        <time>2026-06-03T12:48:18.509945035Z</time>
      </trkpt>
      <trkpt lat="42.87023" lon="2.18338">
        <ele>290.36</ele>
        <time>2026-06-03T12:48:19.402430058Z</time>
      </trkpt>
      <trkpt lat="42.87027" lon="2.18338">
        <ele>290.51</ele>
        <time>2026-06-03T12:48:20.446156979Z</time>
      </trkpt>
      <trkpt lat="42.87032" lon="2.18338">
        <ele>290.63</ele>
        <time>2026-06-03T12:48:21.511024952Z</time>
      </trkpt>
      <trkpt lat="42.87037" lon="2.18337">
        <ele>290.75</ele>
        <time>2026-06-03T12:48:22.500967026Z</time>
      </trkpt>
      <trkpt lat="42.87041" lon="2.18336">
        <ele>290.84</ele>
        <time>2026-06-03T12:48:23.490664959Z</time>
      </trkpt>
      <trkpt lat="42.87046" lon="2.18336">
        <ele>290.91998</ele>
        <time>2026-06-03T12:48:24.451442957Z</time>
      </trkpt>
      <trkpt lat="42.87051" lon="2.18335">
        <ele>290.99</ele>
        <time>2026-06-03T12:48:25.709975004Z</time>
      </trkpt>
      <trkpt lat="42.87056" lon="2.18334">
        <ele>291.05</ele>
        <time>2026-06-03T12:48:26.699970961Z</time>
      </trkpt>
      <trkpt lat="42.8706" lon="2.18333">
        <ele>291.1</ele>
        <time>2026-06-03T12:48:27.689417005Z</time>
      </trkpt>
      <trkpt lat="42.87067" lon="2.18332">
        <ele>291.15</ele>
        <time>2026-06-03T12:48:28.529459953Z</time>
      </trkpt>
      <trkpt lat="42.87071" lon="2.18332">
        <ele>291.2</ele>
        <time>2026-06-03T12:48:29.701171041Z</time>
      </trkpt>
      <trkpt lat="42.87076" lon="2.18331">
        <ele>291.24</ele>
        <time>2026-06-03T12:48:30.690245986Z</time>
      </trkpt>
      <trkpt lat="42.87081" lon="2.1833">
        <ele>291.28998</ele>
        <time>2026-06-03T12:48:31.710186005Z</time>
      </trkpt>
      <trkpt lat="42.87086" lon="2.18329">
        <ele>291.33002</ele>
        <time>2026-06-03T12:48:32.640079975Z</time>
      </trkpt>
      <trkpt lat="42.87091" lon="2.18328">
        <ele>291.37</ele>
        <time>2026-06-03T12:48:33.480139971Z</time>
      </trkpt>
      <trkpt lat="42.87096" lon="2.18327">
        <ele>291.4</ele>
        <time>2026-06-03T12:48:34.709550977Z</time>
      </trkpt>
      <trkpt lat="42.87101" lon="2.18326">
        <ele>291.43</ele>
        <time>2026-06-03T12:48:35.699188948Z</time>
      </trkpt>
      <trkpt lat="42.87106" lon="2.18324">
        <ele>291.45</ele>
        <time>2026-06-03T12:48:36.499022007Z</time>
      </trkpt>
      <trkpt lat="42.87111" lon="2.18324">
        <ele>291.47</ele>
        <time>2026-06-03T12:48:37.562116981Z</time>
      </trkpt>
      <trkpt lat="42.87116" lon="2.18323">
        <ele>291.49</ele>
        <time>2026-06-03T12:48:38.636289954Z</time>
      </trkpt>
      <trkpt lat="42.87122" lon="2.18322">
        <ele>291.52002</ele>
        <time>2026-06-03T12:48:39.699862003Z</time>
      </trkpt>
      <trkpt lat="42.87127" lon="2.18321">
        <ele>291.53998</ele>
        <time>2026-06-03T12:48:40.710194945Z</time>
      </trkpt>
      <trkpt lat="42.87133" lon="2.18319">
        <ele>291.56</ele>
        <time>2026-06-03T12:48:41.670325041Z</time>
      </trkpt>
      <trkpt lat="42.87139" lon="2.18318">
        <ele>291.58002</ele>
        <time>2026-06-03T12:48:42.480276942Z</time>
      </trkpt>
      <trkpt lat="42.87144" lon="2.18318">
        <ele>291.6</ele>
        <time>2026-06-03T12:48:43.500254989Z</time>
      </trkpt>
      <trkpt lat="42.87149" lon="2.18316">
        <ele>291.63</ele>
        <time>2026-06-03T12:48:44.490262985Z</time>
      </trkpt>
      <trkpt lat="42.87154" lon="2.18317">
        <ele>291.65</ele>
        <time>2026-06-03T12:48:45.540333986Z</time>
      </trkpt>
      <trkpt lat="42.87161" lon="2.18315">
        <ele>291.68</ele>
        <time>2026-06-03T12:48:46.589426994Z</time>
      </trkpt>
      <trkpt lat="42.87165" lon="2.18314">
        <ele>291.7</ele>
        <time>2026-06-03T12:48:47.699494958Z</time>
      </trkpt>
      <trkpt lat="42.8717" lon="2.18313">
        <ele>291.72998</ele>
        <time>2026-06-03T12:48:48.690281987Z</time>
      </trkpt>
      <trkpt lat="42.87177" lon="2.18312">
        <ele>291.75</ele>
        <time>2026-06-03T12:48:49.709686041Z</time>
      </trkpt>
      <trkpt lat="42.87182" lon="2.18311">
        <ele>291.77002</ele>
        <time>2026-06-03T12:48:50.699283957Z</time>
      </trkpt>
      <trkpt lat="42.87186" lon="2.1831">
        <ele>291.78</ele>
        <time>2026-06-03T12:48:51.469480991Z</time>
      </trkpt>
      <trkpt lat="42.87193" lon="2.18308">
        <ele>291.8</ele>
        <time>2026-06-03T12:48:52.542876959Z</time>
      </trkpt>
      <trkpt lat="42.87198" lon="2.18307">
        <ele>291.81</ele>
        <time>2026-06-03T12:48:53.606582046Z</time>
      </trkpt>
      <trkpt lat="42.87203" lon="2.18306">
        <ele>291.83002</ele>
        <time>2026-06-03T12:48:54.680305958Z</time>
      </trkpt>
      <trkpt lat="42.87209" lon="2.18305">
        <ele>291.84</ele>
        <time>2026-06-03T12:48:55.589794993Z</time>
      </trkpt>
      <trkpt lat="42.87215" lon="2.18303">
        <ele>291.84</ele>
        <time>2026-06-03T12:48:56.699020982Z</time>
      </trkpt>
      <trkpt lat="42.87221" lon="2.18302">
        <ele>291.83002</ele>
        <time>2026-06-03T12:48:57.720224023Z</time>
      </trkpt>
      <trkpt lat="42.87226" lon="2.18302">
        <ele>291.8</ele>
        <time>2026-06-03T12:48:58.709738016Z</time>
      </trkpt>
      <trkpt lat="42.87232" lon="2.18301">
        <ele>291.78</ele>
        <time>2026-06-03T12:48:59.699987054Z</time>
      </trkpt>
      <trkpt lat="42.87239" lon="2.183">
        <ele>291.75</ele>
        <time>2026-06-03T12:49:00.509794950Z</time>
      </trkpt>
      <trkpt lat="42.87244" lon="2.18299">
        <ele>291.72998</ele>
        <time>2026-06-03T12:49:01.499739051Z</time>
      </trkpt>
      <trkpt lat="42.87249" lon="2.18298">
        <ele>291.72</ele>
        <time>2026-06-03T12:49:02.548918962Z</time>
      </trkpt>
      <trkpt lat="42.87255" lon="2.18297">
        <ele>291.71002</ele>
        <time>2026-06-03T12:49:03.538759947Z</time>
      </trkpt>
      <trkpt lat="42.8726" lon="2.18296">
        <ele>291.71002</ele>
        <time>2026-06-03T12:49:04.618965983Z</time>
      </trkpt>
      <trkpt lat="42.87266" lon="2.18294">
        <ele>291.6</ele>
        <time>2026-06-03T12:49:05.699810028Z</time>
      </trkpt>
      <trkpt lat="42.87271" lon="2.18293">
        <ele>291.49</ele>
        <time>2026-06-03T12:49:06.688940048Z</time>
      </trkpt>
      <trkpt lat="42.87278" lon="2.18292">
        <ele>291.4</ele>
        <time>2026-06-03T12:49:07.513882995Z</time>
      </trkpt>
      <trkpt lat="42.87282" lon="2.18291">
        <ele>291.31</ele>
        <time>2026-06-03T12:49:08.587391019Z</time>
      </trkpt>
      <trkpt lat="42.87287" lon="2.18289">
        <ele>291.24</ele>
        <time>2026-06-03T12:49:09.651059031Z</time>
      </trkpt>
      <trkpt lat="42.87292" lon="2.18288">
        <ele>291.16998</ele>
        <time>2026-06-03T12:49:10.709699988Z</time>
      </trkpt>
      <trkpt lat="42.87296" lon="2.18288">
        <ele>291.11</ele>
        <time>2026-06-03T12:49:11.668709993Z</time>
      </trkpt>
      <trkpt lat="42.87299" lon="2.18291">
        <ele>291.07</ele>
        <time>2026-06-03T12:49:12.661352992Z</time>
      </trkpt>
      <trkpt lat="42.87299" lon="2.18292">
        <ele>291.05</ele>
        <time>2026-06-03T12:49:13.708958030Z</time>
      </trkpt>
      <trkpt lat="42.87302" lon="2.18307">
        <ele>291.02002</ele>
        <time>2026-06-03T12:49:14.582103014Z</time>
      </trkpt>
      <trkpt lat="42.87305" lon="2.18315">
        <ele>290.96002</ele>
        <time>2026-06-03T12:49:15.599830985Z</time>
      </trkpt>
      <trkpt lat="42.87309" lon="2.18323">
        <ele>290.91</ele>
        <time>2026-06-03T12:49:16.589892983Z</time>
      </trkpt>
      <trkpt lat="42.87314" lon="2.18329">
        <ele>290.82</ele>
        <time>2026-06-03T12:49:17.608412981Z</time>
      </trkpt>
      <trkpt lat="42.87319" lon="2.18335">
        <ele>290.66</ele>
        <time>2026-06-03T12:49:18.719624043Z</time>
      </trkpt>
      <trkpt lat="42.87323" lon="2.18341">
        <ele>290.45</ele>
        <time>2026-06-03T12:49:19.709524989Z</time>
      </trkpt>
      <trkpt lat="42.87329" lon="2.18346">
        <ele>290.2</ele>
        <time>2026-06-03T12:49:20.639438033Z</time>
      </trkpt>
      <trkpt lat="42.87334" lon="2.18348">
        <ele>289.96002</ele>
        <time>2026-06-03T12:49:21.421164036Z</time>
      </trkpt>
      <trkpt lat="42.87339" lon="2.18348">
        <ele>289.74</ele>
        <time>2026-06-03T12:49:22.494712949Z</time>
      </trkpt>
      <trkpt lat="42.87344" lon="2.18347">
        <ele>289.55</ele>
        <time>2026-06-03T12:49:23.729554057Z</time>
      </trkpt>
      <trkpt lat="42.87348" lon="2.18344">
        <ele>289.4</ele>
        <time>2026-06-03T12:49:24.599496007Z</time>
      </trkpt>
      <trkpt lat="42.87352" lon="2.18343">
        <ele>289.28</ele>
        <time>2026-06-03T12:49:25.529592037Z</time>
      </trkpt>
      <trkpt lat="42.87355" lon="2.18345">
        <ele>289.19</ele>
        <time>2026-06-03T12:49:26.469640017Z</time>
      </trkpt>
      <trkpt lat="42.87358" lon="2.18349">
        <ele>289.13</ele>
        <time>2026-06-03T12:49:27.629410982Z</time>
      </trkpt>
      <trkpt lat="42.87359" lon="2.18355">
        <ele>289.1</ele>
        <time>2026-06-03T12:49:28.618653059Z</time>
      </trkpt>
      <trkpt lat="42.87361" lon="2.18361">
        <ele>289.08002</ele>
        <time>2026-06-03T12:49:29.549882054Z</time>
      </trkpt>
      <trkpt lat="42.87362" lon="2.18368">
        <ele>289.07</ele>
        <time>2026-06-03T12:49:30.473219037Z</time>
      </trkpt>
      <trkpt lat="42.87363" lon="2.18376">
        <ele>289.07</ele>
        <time>2026-06-03T12:49:31.619431973Z</time>
      </trkpt>
      <trkpt lat="42.87364" lon="2.18383">
        <ele>289.07</ele>
        <time>2026-06-03T12:49:32.638669968Z</time>
      </trkpt>
      <trkpt lat="42.87365" lon="2.1839">
        <ele>289.06</ele>
        <time>2026-06-03T12:49:33.629830003Z</time>
      </trkpt>
      <trkpt lat="42.87366" lon="2.18397">
        <ele>289.05</ele>
        <time>2026-06-03T12:49:34.709478974Z</time>
      </trkpt>
      <trkpt lat="42.87365" lon="2.18405">
        <ele>289.01</ele>
        <time>2026-06-03T12:49:35.699524999Z</time>
      </trkpt>
      <trkpt lat="42.87361" lon="2.18407">
        <ele>288.96002</ele>
        <time>2026-06-03T12:49:36.629407048Z</time>
      </trkpt>
      <trkpt lat="42.87357" lon="2.18413">
        <ele>288.91</ele>
        <time>2026-06-03T12:49:37.709406018Z</time>
      </trkpt>
      <trkpt lat="42.87352" lon="2.18417">
        <ele>288.84</ele>
        <time>2026-06-03T12:49:38.480622053Z</time>
      </trkpt>
      <trkpt lat="42.87347" lon="2.18422">
        <ele>288.76</ele>
        <time>2026-06-03T12:49:39.419499040Z</time>
      </trkpt>
      <trkpt lat="42.87342" lon="2.18428">
        <ele>288.66</ele>
        <time>2026-06-03T12:49:40.529476047Z</time>
      </trkpt>
      <trkpt lat="42.87337" lon="2.18433">
        <ele>288.57</ele>
        <time>2026-06-03T12:49:41.551478982Z</time>
      </trkpt>
      <trkpt lat="42.87333" lon="2.18437">
        <ele>288.47</ele>
        <time>2026-06-03T12:49:42.484292030Z</time>
      </trkpt>
      <trkpt lat="42.87328" lon="2.18442">
        <ele>288.38</ele>
        <time>2026-06-03T12:49:43.528666973Z</time>
      </trkpt>
      <trkpt lat="42.87323" lon="2.18447">
        <ele>288.28998</ele>
        <time>2026-06-03T12:49:44.549401045Z</time>
      </trkpt>
      <trkpt lat="42.87318" lon="2.18451">
        <ele>288.21002</ele>
        <time>2026-06-03T12:49:45.539760947Z</time>
      </trkpt>
      <trkpt lat="42.87313" lon="2.18456">
        <ele>288.12</ele>
        <time>2026-06-03T12:49:46.471299052Z</time>
      </trkpt>
      <trkpt lat="42.87309" lon="2.18461">
        <ele>288.03998</ele>
        <time>2026-06-03T12:49:47.549348950Z</time>
      </trkpt>
      <trkpt lat="42.87304" lon="2.18466">
        <ele>287.95</ele>
        <time>2026-06-03T12:49:48.449329972Z</time>
      </trkpt>
      <trkpt lat="42.87299" lon="2.1847">
        <ele>287.88</ele>
        <time>2026-06-03T12:49:49.559607029Z</time>
      </trkpt>
      <trkpt lat="42.87293" lon="2.18474">
        <ele>287.81</ele>
        <time>2026-06-03T12:49:50.491655946Z</time>
      </trkpt>
      <trkpt lat="42.87289" lon="2.18478">
        <ele>287.74</ele>
        <time>2026-06-03T12:49:51.718783975Z</time>
      </trkpt>
      <trkpt lat="42.87284" lon="2.18482">
        <ele>287.68</ele>
        <time>2026-06-03T12:49:52.708943963Z</time>
      </trkpt>
      <trkpt lat="42.87279" lon="2.18485">
        <ele>287.63</ele>
        <time>2026-06-03T12:49:53.698356032Z</time>
      </trkpt>
      <trkpt lat="42.87275" lon="2.1849">
        <ele>287.58002</ele>
        <time>2026-06-03T12:49:54.495316029Z</time>
      </trkpt>
      <trkpt lat="42.87272" lon="2.18496">
        <ele>287.53</ele>
        <time>2026-06-03T12:49:55.648686051Z</time>
      </trkpt>
      <trkpt lat="42.8727" lon="2.18503">
        <ele>287.47998</ele>
        <time>2026-06-03T12:49:56.699399948Z</time>
      </trkpt>
      <trkpt lat="42.87269" lon="2.18511">
        <ele>287.43</ele>
        <time>2026-06-03T12:49:57.719035983Z</time>
      </trkpt>
      <trkpt lat="42.87269" lon="2.18518">
        <ele>287.38</ele>
        <time>2026-06-03T12:49:58.498926044Z</time>
      </trkpt>
      <trkpt lat="42.87268" lon="2.18526">
        <ele>287.32</ele>
        <time>2026-06-03T12:49:59.728623986Z</time>
      </trkpt>
      <trkpt lat="42.87268" lon="2.18533">
        <ele>287.24</ele>
        <time>2026-06-03T12:50:00.718551040Z</time>
      </trkpt>
      <trkpt lat="42.87268" lon="2.1854">
        <ele>287.18</ele>
        <time>2026-06-03T12:50:01.711269021Z</time>
      </trkpt>
      <trkpt lat="42.87269" lon="2.18546">
        <ele>287.1</ele>
        <time>2026-06-03T12:50:02.502751946Z</time>
      </trkpt>
      <trkpt lat="42.8727" lon="2.18553">
        <ele>287.02002</ele>
        <time>2026-06-03T12:50:03.718582988Z</time>
      </trkpt>
      <trkpt lat="42.8727" lon="2.18554">
        <ele>286.91998</ele>
        <time>2026-06-03T12:50:04.440183997Z</time>
      </trkpt>
      <trkpt lat="42.87271" lon="2.18555">
        <ele>286.81</ele>
        <time>2026-06-03T12:50:05.729370952Z</time>
      </trkpt>
      <trkpt lat="42.8728" lon="2.18567">
        <ele>286.68</ele>
        <time>2026-06-03T12:50:06.506494999Z</time>
      </trkpt>
      <trkpt lat="42.87284" lon="2.18571">
        <ele>286.55</ele>
        <time>2026-06-03T12:50:07.499632001Z</time>
      </trkpt>
      <trkpt lat="42.87291" lon="2.1857">
        <ele>286.41</ele>
        <time>2026-06-03T12:50:08.728512049Z</time>
      </trkpt>
      <trkpt lat="42.87296" lon="2.18574">
        <ele>286.28</ele>
        <time>2026-06-03T12:50:09.719391942Z</time>
      </trkpt>
      <trkpt lat="42.87301" lon="2.18576">
        <ele>286.16</ele>
        <time>2026-06-03T12:50:10.510267019Z</time>
      </trkpt>
      <trkpt lat="42.87306" lon="2.1858">
        <ele>286.05</ele>
        <time>2026-06-03T12:50:11.579298973Z</time>
      </trkpt>
      <trkpt lat="42.87312" lon="2.18583">
        <ele>285.95</ele>
        <time>2026-06-03T12:50:12.749425054Z</time>
      </trkpt>
      <trkpt lat="42.87317" lon="2.18586">
        <ele>285.86</ele>
        <time>2026-06-03T12:50:13.738387942Z</time>
      </trkpt>
      <trkpt lat="42.87322" lon="2.18588">
        <ele>285.78998</ele>
        <time>2026-06-03T12:50:14.488463998Z</time>
      </trkpt>
      <trkpt lat="42.87327" lon="2.18591">
        <ele>285.72</ele>
        <time>2026-06-03T12:50:15.568521976Z</time>
      </trkpt>
      <trkpt lat="42.87335" lon="2.18595">
        <ele>285.66998</ele>
        <time>2026-06-03T12:50:16.528697014Z</time>
      </trkpt>
      <trkpt lat="42.87341" lon="2.18596">
        <ele>285.62</ele>
        <time>2026-06-03T12:50:17.398744941Z</time>
      </trkpt>
      <trkpt lat="42.87344" lon="2.18599">
        <ele>285.58002</ele>
        <time>2026-06-03T12:50:18.527626991Z</time>
      </trkpt>
      <trkpt lat="42.87349" lon="2.18603">
        <ele>285.53998</ele>
        <time>2026-06-03T12:50:19.739271998Z</time>
      </trkpt>
      <trkpt lat="42.87354" lon="2.18607">
        <ele>285.5</ele>
        <time>2026-06-03T12:50:20.608742952Z</time>
      </trkpt>
      <trkpt lat="42.87358" lon="2.1861">
        <ele>285.47</ele>
        <time>2026-06-03T12:50:21.451220036Z</time>
      </trkpt>
      <trkpt lat="42.87363" lon="2.18612">
        <ele>285.44</ele>
        <time>2026-06-03T12:50:22.499201059Z</time>
      </trkpt>
      <trkpt lat="42.8737" lon="2.18615">
        <ele>285.41</ele>
        <time>2026-06-03T12:50:23.609233975Z</time>
      </trkpt>
      <trkpt lat="42.87375" lon="2.18619">
        <ele>285.39</ele>
        <time>2026-06-03T12:50:24.629237056Z</time>
      </trkpt>
      <trkpt lat="42.87381" lon="2.18621">
        <ele>285.37</ele>
        <time>2026-06-03T12:50:25.561272979Z</time>
      </trkpt>
      <trkpt lat="42.87386" lon="2.18623">
        <ele>285.36</ele>
        <time>2026-06-03T12:50:26.534909964Z</time>
      </trkpt>
      <trkpt lat="42.87389" lon="2.18626">
        <ele>285.35</ele>
        <time>2026-06-03T12:50:27.719401002Z</time>
      </trkpt>
      <trkpt lat="42.874" lon="2.18634">
        <ele>285.34</ele>
        <time>2026-06-03T12:50:28.709346056Z</time>
      </trkpt>
      <trkpt lat="42.87405" lon="2.18634">
        <ele>285.33002</ele>
        <time>2026-06-03T12:50:29.671121955Z</time>
      </trkpt>
      <trkpt lat="42.87409" lon="2.18636">
        <ele>285.33002</ele>
        <time>2026-06-03T12:50:30.449784040Z</time>
      </trkpt>
      <trkpt lat="42.87415" lon="2.18636">
        <ele>285.33002</ele>
        <time>2026-06-03T12:50:31.738492966Z</time>
      </trkpt>
      <trkpt lat="42.8742" lon="2.18635">
        <ele>285.33002</ele>
        <time>2026-06-03T12:50:32.578390956Z</time>
      </trkpt>
      <trkpt lat="42.87425" lon="2.18635">
        <ele>285.33002</ele>
        <time>2026-06-03T12:50:33.749385953Z</time>
      </trkpt>
      <trkpt lat="42.8743" lon="2.18636">
        <ele>285.34</ele>
        <time>2026-06-03T12:50:34.542497039Z</time>
      </trkpt>
      <trkpt lat="42.87436" lon="2.18636">
        <ele>285.36</ele>
        <time>2026-06-03T12:50:35.579210997Z</time>
      </trkpt>
      <trkpt lat="42.8744" lon="2.18634">
        <ele>285.4</ele>
        <time>2026-06-03T12:50:36.718440056Z</time>
      </trkpt>
      <trkpt lat="42.87446" lon="2.1863">
        <ele>285.43</ele>
        <time>2026-06-03T12:50:37.739351034Z</time>
      </trkpt>
      <trkpt lat="42.87451" lon="2.18629">
        <ele>285.5</ele>
        <time>2026-06-03T12:50:38.546452045Z</time>
      </trkpt>
      <trkpt lat="42.87455" lon="2.18625">
        <ele>285.6</ele>
        <time>2026-06-03T12:50:39.508525968Z</time>
      </trkpt>
      <trkpt lat="42.87459" lon="2.18622">
        <ele>285.72998</ele>
        <time>2026-06-03T12:50:40.678792953Z</time>
      </trkpt>
      <trkpt lat="42.87463" lon="2.18622">
        <ele>285.86</ele>
        <time>2026-06-03T12:50:41.669504046Z</time>
      </trkpt>
      <trkpt lat="42.87468" lon="2.18619">
        <ele>286.02002</ele>
        <time>2026-06-03T12:50:42.550150037Z</time>
      </trkpt>
      <trkpt lat="42.87473" lon="2.18617">
        <ele>286.21002</ele>
        <time>2026-06-03T12:50:43.619217038Z</time>
      </trkpt>
      <trkpt lat="42.8748" lon="2.18616">
        <ele>286.41</ele>
        <time>2026-06-03T12:50:44.398339033Z</time>
      </trkpt>
      <trkpt lat="42.87484" lon="2.18618">
        <ele>286.59</ele>
        <time>2026-06-03T12:50:45.689661980Z</time>
      </trkpt>
      <trkpt lat="42.87489" lon="2.18622">
        <ele>286.78</ele>
        <time>2026-06-03T12:50:46.553892016Z</time>
      </trkpt>
      <trkpt lat="42.87493" lon="2.18624">
        <ele>286.95</ele>
        <time>2026-06-03T12:50:47.669278979Z</time>
      </trkpt>
      <trkpt lat="42.87496" lon="2.18626">
        <ele>287.09</ele>
        <time>2026-06-03T12:50:48.479326010Z</time>
      </trkpt>
      <trkpt lat="42.875" lon="2.18631">
        <ele>287.22</ele>
        <time>2026-06-03T12:50:49.649428964Z</time>
      </trkpt>
      <trkpt lat="42.87505" lon="2.18634">
        <ele>287.34</ele>
        <time>2026-06-03T12:50:50.557518005Z</time>
      </trkpt>
      <trkpt lat="42.8751" lon="2.18638">
        <ele>287.45</ele>
        <time>2026-06-03T12:50:51.688526988Z</time>
      </trkpt>
      <trkpt lat="42.87514" lon="2.18641">
        <ele>287.58002</ele>
        <time>2026-06-03T12:50:52.589427948Z</time>
      </trkpt>
      <trkpt lat="42.87519" lon="2.18644">
        <ele>287.69</ele>
        <time>2026-06-03T12:50:53.730319977Z</time>
      </trkpt>
      <trkpt lat="42.87524" lon="2.18647">
        <ele>287.81</ele>
        <time>2026-06-03T12:50:54.561406016Z</time>
      </trkpt>
      <trkpt lat="42.87528" lon="2.18651">
        <ele>287.95</ele>
        <time>2026-06-03T12:50:55.738338947Z</time>
      </trkpt>
      <trkpt lat="42.87533" lon="2.18654">
        <ele>288.1</ele>
        <time>2026-06-03T12:50:56.398035049Z</time>
      </trkpt>
      <trkpt lat="42.87538" lon="2.18658">
        <ele>288.22998</ele>
        <time>2026-06-03T12:50:57.538593054Z</time>
      </trkpt>
      <trkpt lat="42.87543" lon="2.18661">
        <ele>288.36</ele>
        <time>2026-06-03T12:50:58.439105034Z</time>
      </trkpt>
      <trkpt lat="42.87548" lon="2.18665">
        <ele>288.49</ele>
        <time>2026-06-03T12:50:59.698554039Z</time>
      </trkpt>
      <trkpt lat="42.87553" lon="2.18668">
        <ele>288.6</ele>
        <time>2026-06-03T12:51:00.459586024Z</time>
      </trkpt>
      <trkpt lat="42.87558" lon="2.18672">
        <ele>288.7</ele>
        <time>2026-06-03T12:51:01.498474002Z</time>
      </trkpt>
      <trkpt lat="42.87564" lon="2.18676">
        <ele>288.8</ele>
        <time>2026-06-03T12:51:02.398532987Z</time>
      </trkpt>
      <trkpt lat="42.87569" lon="2.18679">
        <ele>288.88</ele>
        <time>2026-06-03T12:51:03.419736028Z</time>
      </trkpt>
      <trkpt lat="42.87575" lon="2.18683">
        <ele>288.95</ele>
        <time>2026-06-03T12:51:04.408352017Z</time>
      </trkpt>
      <trkpt lat="42.8758" lon="2.18687">
        <ele>289.13</ele>
        <time>2026-06-03T12:51:05.728706002Z</time>
      </trkpt>
      <trkpt lat="42.87587" lon="2.18691">
        <ele>289.28998</ele>
        <time>2026-06-03T12:51:06.478575945Z</time>
      </trkpt>
      <trkpt lat="42.87593" lon="2.18694">
        <ele>289.41</ele>
        <time>2026-06-03T12:51:07.738572955Z</time>
      </trkpt>
      <trkpt lat="42.87599" lon="2.18698">
        <ele>289.51</ele>
        <time>2026-06-03T12:51:08.518558025Z</time>
      </trkpt>
      <trkpt lat="42.87605" lon="2.18702">
        <ele>289.59</ele>
        <time>2026-06-03T12:51:09.394534945Z</time>
      </trkpt>
      <trkpt lat="42.87611" lon="2.18707">
        <ele>289.65</ele>
        <time>2026-06-03T12:51:10.559834003Z</time>
      </trkpt>
      <trkpt lat="42.87617" lon="2.1871">
        <ele>289.68</ele>
        <time>2026-06-03T12:51:11.578467011Z</time>
      </trkpt>
      <trkpt lat="42.87624" lon="2.18713">
        <ele>289.69</ele>
        <time>2026-06-03T12:51:12.539157033Z</time>
      </trkpt>
      <trkpt lat="42.87629" lon="2.18717">
        <ele>289.7</ele>
        <time>2026-06-03T12:51:13.619503975Z</time>
      </trkpt>
      <trkpt lat="42.87635" lon="2.18721">
        <ele>289.69</ele>
        <time>2026-06-03T12:51:14.579609036Z</time>
      </trkpt>
      <trkpt lat="42.87641" lon="2.18725">
        <ele>289.66</ele>
        <time>2026-06-03T12:51:15.569414973Z</time>
      </trkpt>
      <trkpt lat="42.87646" lon="2.18728">
        <ele>289.62</ele>
        <time>2026-06-03T12:51:16.589303970Z</time>
      </trkpt>
      <trkpt lat="42.87652" lon="2.18731">
        <ele>289.57</ele>
        <time>2026-06-03T12:51:17.609243035Z</time>
      </trkpt>
      <trkpt lat="42.87658" lon="2.18735">
        <ele>289.52002</ele>
        <time>2026-06-03T12:51:18.568925977Z</time>
      </trkpt>
      <trkpt lat="42.87664" lon="2.18738">
        <ele>289.46002</ele>
        <time>2026-06-03T12:51:19.618669033Z</time>
      </trkpt>
      <trkpt lat="42.87669" lon="2.18742">
        <ele>289.4</ele>
        <time>2026-06-03T12:51:20.518628955Z</time>
      </trkpt>
      <trkpt lat="42.87675" lon="2.18745">
        <ele>289.35</ele>
        <time>2026-06-03T12:51:21.599228024Z</time>
      </trkpt>
      <trkpt lat="42.8768" lon="2.18748">
        <ele>289.3</ele>
        <time>2026-06-03T12:51:22.440436006Z</time>
      </trkpt>
      <trkpt lat="42.87685" lon="2.18752">
        <ele>289.26</ele>
        <time>2026-06-03T12:51:23.609125018Z</time>
      </trkpt>
      <trkpt lat="42.87691" lon="2.18755">
        <ele>289.22998</ele>
        <time>2026-06-03T12:51:24.598505020Z</time>
      </trkpt>
      <trkpt lat="42.87696" lon="2.18759">
        <ele>289.2</ele>
        <time>2026-06-03T12:51:25.739657998Z</time>
      </trkpt>
      <trkpt lat="42.87701" lon="2.18762">
        <ele>289.18</ele>
        <time>2026-06-03T12:51:26.591529965Z</time>
      </trkpt>
      <trkpt lat="42.87707" lon="2.18765">
        <ele>289.16</ele>
        <time>2026-06-03T12:51:27.749202967Z</time>
      </trkpt>
      <trkpt lat="42.87712" lon="2.18768">
        <ele>289.14</ele>
        <time>2026-06-03T12:51:28.709372997Z</time>
      </trkpt>
      <trkpt lat="42.87717" lon="2.18771">
        <ele>289.12</ele>
        <time>2026-06-03T12:51:29.399140954Z</time>
      </trkpt>
      <trkpt lat="42.87723" lon="2.18774">
        <ele>289.1</ele>
        <time>2026-06-03T12:51:30.594941020Z</time>
      </trkpt>
      <trkpt lat="42.87729" lon="2.18778">
        <ele>289.08002</ele>
        <time>2026-06-03T12:51:31.618394017Z</time>
      </trkpt>
      <trkpt lat="42.87735" lon="2.18781">
        <ele>289.06</ele>
        <time>2026-06-03T12:51:32.488512039Z</time>
      </trkpt>
      <trkpt lat="42.8774" lon="2.18785">
        <ele>289.03998</ele>
        <time>2026-06-03T12:51:33.478412032Z</time>
      </trkpt>
      <trkpt lat="42.87746" lon="2.18788">
        <ele>289.03</ele>
        <time>2026-06-03T12:51:34.499006987Z</time>
      </trkpt>
      <trkpt lat="42.87751" lon="2.18792">
        <ele>289.01</ele>
        <time>2026-06-03T12:51:35.489032984Z</time>
      </trkpt>
      <trkpt lat="42.87757" lon="2.18795">
        <ele>289</ele>
        <time>2026-06-03T12:51:36.479213953Z</time>
      </trkpt>
      <trkpt lat="42.87762" lon="2.18798">
        <ele>288.97998</ele>
        <time>2026-06-03T12:51:37.468399048Z</time>
      </trkpt>
      <trkpt lat="42.87767" lon="2.18802">
        <ele>288.97</ele>
        <time>2026-06-03T12:51:38.489207029Z</time>
      </trkpt>
      <trkpt lat="42.87774" lon="2.18806">
        <ele>288.94</ele>
        <time>2026-06-03T12:51:39.479961991Z</time>
      </trkpt>
      <trkpt lat="42.87778" lon="2.18809">
        <ele>288.89</ele>
        <time>2026-06-03T12:51:40.440668941Z</time>
      </trkpt>
      <trkpt lat="42.87783" lon="2.18813">
        <ele>288.85</ele>
        <time>2026-06-03T12:51:41.489174008Z</time>
      </trkpt>
      <trkpt lat="42.87788" lon="2.18816">
        <ele>288.78</ele>
        <time>2026-06-03T12:51:42.479182005Z</time>
      </trkpt>
      <trkpt lat="42.87793" lon="2.18819">
        <ele>288.69</ele>
        <time>2026-06-03T12:51:43.468489051Z</time>
      </trkpt>
      <trkpt lat="42.87798" lon="2.18822">
        <ele>288.58002</ele>
        <time>2026-06-03T12:51:44.489186049Z</time>
      </trkpt>
      <trkpt lat="42.87803" lon="2.18827">
        <ele>288.47998</ele>
        <time>2026-06-03T12:51:45.509274006Z</time>
      </trkpt>
      <trkpt lat="42.87808" lon="2.1883">
        <ele>288.36</ele>
        <time>2026-06-03T12:51:46.409472942Z</time>
      </trkpt>
      <trkpt lat="42.87813" lon="2.18834">
        <ele>288.22998</ele>
        <time>2026-06-03T12:51:47.399785995Z</time>
      </trkpt>
      <trkpt lat="42.87819" lon="2.18837">
        <ele>288.09</ele>
        <time>2026-06-03T12:51:48.390156031Z</time>
      </trkpt>
      <trkpt lat="42.87825" lon="2.18841">
        <ele>287.97</ele>
        <time>2026-06-03T12:51:49.468649030Z</time>
      </trkpt>
      <trkpt lat="42.87831" lon="2.18845">
        <ele>287.86</ele>
        <time>2026-06-03T12:51:50.430222034Z</time>
      </trkpt>
      <trkpt lat="42.87836" lon="2.18848">
        <ele>287.76</ele>
        <time>2026-06-03T12:51:51.509178042Z</time>
      </trkpt>
      <trkpt lat="42.87841" lon="2.18851">
        <ele>287.66</ele>
        <time>2026-06-03T12:51:52.409476995Z</time>
      </trkpt>
      <trkpt lat="42.87848" lon="2.18856">
        <ele>287.57</ele>
        <time>2026-06-03T12:51:53.489143014Z</time>
      </trkpt>
      <trkpt lat="42.87854" lon="2.1886">
        <ele>287.47998</ele>
        <time>2026-06-03T12:51:54.477898002Z</time>
      </trkpt>
      <trkpt lat="42.8786" lon="2.18863">
        <ele>287.37</ele>
        <time>2026-06-03T12:51:55.498381972Z</time>
      </trkpt>
      <trkpt lat="42.87867" lon="2.18868">
        <ele>287.24</ele>
        <time>2026-06-03T12:51:56.488410950Z</time>
      </trkpt>
      <trkpt lat="42.87873" lon="2.18872">
        <ele>287.13</ele>
        <time>2026-06-03T12:51:57.508263946Z</time>
      </trkpt>
      <trkpt lat="42.8788" lon="2.18876">
        <ele>286.99</ele>
        <time>2026-06-03T12:51:58.620291948Z</time>
      </trkpt>
      <trkpt lat="42.87887" lon="2.1888">
        <ele>286.85</ele>
        <time>2026-06-03T12:51:59.609120965Z</time>
      </trkpt>
      <trkpt lat="42.87893" lon="2.18884">
        <ele>286.66998</ele>
        <time>2026-06-03T12:52:00.508908987Z</time>
      </trkpt>
      <trkpt lat="42.879" lon="2.18888">
        <ele>286.52002</ele>
        <time>2026-06-03T12:52:01.409477949Z</time>
      </trkpt>
      <trkpt lat="42.87906" lon="2.18892">
        <ele>286.34</ele>
        <time>2026-06-03T12:52:02.399474978Z</time>
      </trkpt>
      <trkpt lat="42.87912" lon="2.18895">
        <ele>286.14</ele>
        <time>2026-06-03T12:52:03.778560996Z</time>
      </trkpt>
      <trkpt lat="42.87918" lon="2.189">
        <ele>285.91998</ele>
        <time>2026-06-03T12:52:04.469249964Z</time>
      </trkpt>
      <trkpt lat="42.87925" lon="2.18904">
        <ele>285.86</ele>
        <time>2026-06-03T12:52:05.432613969Z</time>
      </trkpt>
      <trkpt lat="42.87931" lon="2.18907">
        <ele>285.75</ele>
        <time>2026-06-03T12:52:06.479030013Z</time>
      </trkpt>
      <trkpt lat="42.87937" lon="2.18911">
        <ele>285.62</ele>
        <time>2026-06-03T12:52:07.649039030Z</time>
      </trkpt>
      <trkpt lat="42.87943" lon="2.18913">
        <ele>285.46002</ele>
        <time>2026-06-03T12:52:08.399525046Z</time>
      </trkpt>
      <trkpt lat="42.87948" lon="2.18918">
        <ele>285.33002</ele>
        <time>2026-06-03T12:52:09.628324032Z</time>
      </trkpt>
      <trkpt lat="42.87955" lon="2.18921">
        <ele>285.19</ele>
        <time>2026-06-03T12:52:10.499387980Z</time>
      </trkpt>
      <trkpt lat="42.8796" lon="2.18925">
        <ele>285.05</ele>
        <time>2026-06-03T12:52:11.435435057Z</time>
      </trkpt>
      <trkpt lat="42.87966" lon="2.18929">
        <ele>284.91</ele>
        <time>2026-06-03T12:52:12.538553953Z</time>
      </trkpt>
      <trkpt lat="42.87972" lon="2.18932">
        <ele>284.78998</ele>
        <time>2026-06-03T12:52:13.469066978Z</time>
      </trkpt>
      <trkpt lat="42.87978" lon="2.18936">
        <ele>284.66998</ele>
        <time>2026-06-03T12:52:14.550984979Z</time>
      </trkpt>
      <trkpt lat="42.87983" lon="2.18939">
        <ele>284.55</ele>
        <time>2026-06-03T12:52:15.448197007Z</time>
      </trkpt>
      <trkpt lat="42.87989" lon="2.18943">
        <ele>284.43</ele>
        <time>2026-06-03T12:52:16.445539951Z</time>
      </trkpt>
      <trkpt lat="42.87995" lon="2.18946">
        <ele>284.33002</ele>
        <time>2026-06-03T12:52:17.429209948Z</time>
      </trkpt>
      <trkpt lat="42.88" lon="2.1895">
        <ele>284.22998</ele>
        <time>2026-06-03T12:52:18.424746037Z</time>
      </trkpt>
      <trkpt lat="42.88006" lon="2.18953">
        <ele>284.12</ele>
        <time>2026-06-03T12:52:19.438560009Z</time>
      </trkpt>
      <trkpt lat="42.88012" lon="2.18956">
        <ele>284.02002</ele>
        <time>2026-06-03T12:52:20.429517031Z</time>
      </trkpt>
      <trkpt lat="42.88018" lon="2.1896">
        <ele>283.93</ele>
        <time>2026-06-03T12:52:21.478235960Z</time>
      </trkpt>
      <trkpt lat="42.88023" lon="2.18963">
        <ele>283.85</ele>
        <time>2026-06-03T12:52:22.439470053Z</time>
      </trkpt>
      <trkpt lat="42.88028" lon="2.18966">
        <ele>283.78998</ele>
        <time>2026-06-03T12:52:23.435415983Z</time>
      </trkpt>
      <trkpt lat="42.88034" lon="2.1897">
        <ele>283.72998</ele>
        <time>2026-06-03T12:52:24.419021964Z</time>
      </trkpt>
      <trkpt lat="42.8804" lon="2.18974">
        <ele>283.68</ele>
        <time>2026-06-03T12:52:25.619032979Z</time>
      </trkpt>
      <trkpt lat="42.88045" lon="2.18976">
        <ele>283.64</ele>
        <time>2026-06-03T12:52:26.658319950Z</time>
      </trkpt>
      <trkpt lat="42.88051" lon="2.1898">
        <ele>283.6</ele>
        <time>2026-06-03T12:52:27.748188019Z</time>
      </trkpt>
      <trkpt lat="42.88057" lon="2.18984">
        <ele>283.55</ele>
        <time>2026-06-03T12:52:28.710636973Z</time>
      </trkpt>
      <trkpt lat="42.88063" lon="2.18988">
        <ele>283.5</ele>
        <time>2026-06-03T12:52:29.399024963Z</time>
      </trkpt>
      <trkpt lat="42.88068" lon="2.18991">
        <ele>283.45</ele>
        <time>2026-06-03T12:52:30.662204981Z</time>
      </trkpt>
      <trkpt lat="42.88074" lon="2.18994">
        <ele>283.4</ele>
        <time>2026-06-03T12:52:31.439407945Z</time>
      </trkpt>
      <trkpt lat="42.8808" lon="2.18997">
        <ele>283.32</ele>
        <time>2026-06-03T12:52:32.458989024Z</time>
      </trkpt>
      <trkpt lat="42.88086" lon="2.19001">
        <ele>283.26</ele>
        <time>2026-06-03T12:52:33.455036998Z</time>
      </trkpt>
      <trkpt lat="42.88091" lon="2.19004">
        <ele>283.18</ele>
        <time>2026-06-03T12:52:34.439411998Z</time>
      </trkpt>
      <trkpt lat="42.88096" lon="2.19008">
        <ele>283.11</ele>
        <time>2026-06-03T12:52:35.429571986Z</time>
      </trkpt>
      <trkpt lat="42.88102" lon="2.19011">
        <ele>283.05</ele>
        <time>2026-06-03T12:52:36.418575048Z</time>
      </trkpt>
      <trkpt lat="42.88107" lon="2.19014">
        <ele>282.99</ele>
        <time>2026-06-03T12:52:37.468585968Z</time>
      </trkpt>
      <trkpt lat="42.88113" lon="2.19018">
        <ele>282.93</ele>
        <time>2026-06-03T12:52:38.459812045Z</time>
      </trkpt>
      <trkpt lat="42.88118" lon="2.19022">
        <ele>282.88</ele>
        <time>2026-06-03T12:52:39.396412969Z</time>
      </trkpt>
      <trkpt lat="42.88123" lon="2.19026">
        <ele>282.85</ele>
        <time>2026-06-03T12:52:40.438433051Z</time>
      </trkpt>
      <trkpt lat="42.88128" lon="2.1903">
        <ele>282.82</ele>
        <time>2026-06-03T12:52:41.429795980Z</time>
      </trkpt>
      <trkpt lat="42.88132" lon="2.19033">
        <ele>282.8</ele>
        <time>2026-06-03T12:52:42.449076056Z</time>
      </trkpt>
      <trkpt lat="42.88137" lon="2.19036">
        <ele>282.78</ele>
        <time>2026-06-03T12:52:43.469192028Z</time>
      </trkpt>
      <trkpt lat="42.88142" lon="2.1904">
        <ele>282.77002</ele>
        <time>2026-06-03T12:52:44.459820986Z</time>
      </trkpt>
      <trkpt lat="42.88147" lon="2.19043">
        <ele>282.76</ele>
        <time>2026-06-03T12:52:45.449779987Z</time>
      </trkpt>
      <trkpt lat="42.88153" lon="2.19046">
        <ele>282.76</ele>
        <time>2026-06-03T12:52:46.468850970Z</time>
      </trkpt>
      <trkpt lat="42.88159" lon="2.19049">
        <ele>282.78</ele>
        <time>2026-06-03T12:52:47.459727049Z</time>
      </trkpt>
      <trkpt lat="42.88165" lon="2.1905">
        <ele>282.8</ele>
        <time>2026-06-03T12:52:48.449475050Z</time>
      </trkpt>
      <trkpt lat="42.8817" lon="2.19052">
        <ele>282.82</ele>
        <time>2026-06-03T12:52:49.438969970Z</time>
      </trkpt>
      <trkpt lat="42.88175" lon="2.19054">
        <ele>282.87</ele>
        <time>2026-06-03T12:52:50.429420948Z</time>
      </trkpt>
      <trkpt lat="42.88181" lon="2.19055">
        <ele>282.94</ele>
        <time>2026-06-03T12:52:51.479282975Z</time>
      </trkpt>
      <trkpt lat="42.88187" lon="2.19056">
        <ele>283.03998</ele>
        <time>2026-06-03T12:52:52.469508052Z</time>
      </trkpt>
      <trkpt lat="42.88194" lon="2.19056">
        <ele>283.13</ele>
        <time>2026-06-03T12:52:53.428928018Z</time>
      </trkpt>
      <trkpt lat="42.88199" lon="2.19056">
        <ele>283.24</ele>
        <time>2026-06-03T12:52:54.388421059Z</time>
      </trkpt>
      <trkpt lat="42.88205" lon="2.19056">
        <ele>283.34</ele>
        <time>2026-06-03T12:52:55.439429045Z</time>
      </trkpt>
      <trkpt lat="42.88211" lon="2.19055">
        <ele>283.41998</ele>
        <time>2026-06-03T12:52:56.398386002Z</time>
      </trkpt>
      <trkpt lat="42.88217" lon="2.19055">
        <ele>283.52002</ele>
        <time>2026-06-03T12:52:57.449578047Z</time>
      </trkpt>
      <trkpt lat="42.88224" lon="2.19055">
        <ele>283.61</ele>
        <time>2026-06-03T12:52:58.441113949Z</time>
      </trkpt>
      <trkpt lat="42.8823" lon="2.19053">
        <ele>283.69</ele>
        <time>2026-06-03T12:52:59.461730003Z</time>
      </trkpt>
      <trkpt lat="42.88236" lon="2.19051">
        <ele>283.77002</ele>
        <time>2026-06-03T12:53:00.448479056Z</time>
      </trkpt>
      <trkpt lat="42.88242" lon="2.1905">
        <ele>283.83002</ele>
        <time>2026-06-03T12:53:01.408848047Z</time>
      </trkpt>
      <trkpt lat="42.88248" lon="2.1905">
        <ele>283.89</ele>
        <time>2026-06-03T12:53:02.458461046Z</time>
      </trkpt>
      <trkpt lat="42.88255" lon="2.19049">
        <ele>283.95</ele>
        <time>2026-06-03T12:53:03.479331970Z</time>
      </trkpt>
      <trkpt lat="42.88261" lon="2.19049">
        <ele>283.99</ele>
        <time>2026-06-03T12:53:04.469076991Z</time>
      </trkpt>
      <trkpt lat="42.88268" lon="2.19047">
        <ele>284.14</ele>
        <time>2026-06-03T12:53:05.459606051Z</time>
      </trkpt>
      <trkpt lat="42.88274" lon="2.19046">
        <ele>284.25</ele>
        <time>2026-06-03T12:53:06.465764046Z</time>
      </trkpt>
      <trkpt lat="42.8828" lon="2.19045">
        <ele>284.32</ele>
        <time>2026-06-03T12:53:07.448153973Z</time>
      </trkpt>
      <trkpt lat="42.88287" lon="2.19044">
        <ele>284.37</ele>
        <time>2026-06-03T12:53:08.458415031Z</time>
      </trkpt>
      <trkpt lat="42.88292" lon="2.19043">
        <ele>284.38</ele>
        <time>2026-06-03T12:53:09.478924036Z</time>
      </trkpt>
      <trkpt lat="42.88299" lon="2.19043">
        <ele>284.37</ele>
        <time>2026-06-03T12:53:10.469046950Z</time>
      </trkpt>
      <trkpt lat="42.88305" lon="2.19042">
        <ele>284.33002</ele>
        <time>2026-06-03T12:53:11.460301995Z</time>
      </trkpt>
      <trkpt lat="42.88312" lon="2.19042">
        <ele>284.28998</ele>
        <time>2026-06-03T12:53:12.479472995Z</time>
      </trkpt>
      <trkpt lat="42.88319" lon="2.19042">
        <ele>284.25</ele>
        <time>2026-06-03T12:53:13.618576050Z</time>
      </trkpt>
      <trkpt lat="42.88325" lon="2.19043">
        <ele>284.2</ele>
        <time>2026-06-03T12:53:14.461117029Z</time>
      </trkpt>
      <trkpt lat="42.8833" lon="2.19043">
        <ele>284.15</ele>
        <time>2026-06-03T12:53:15.448670983Z</time>
      </trkpt>
      <trkpt lat="42.88336" lon="2.19044">
        <ele>284.1</ele>
        <time>2026-06-03T12:53:16.498273969Z</time>
      </trkpt>
      <trkpt lat="42.88342" lon="2.19043">
        <ele>284.03998</ele>
        <time>2026-06-03T12:53:17.488258004Z</time>
      </trkpt>
      <trkpt lat="42.88348" lon="2.19043">
        <ele>284</ele>
        <time>2026-06-03T12:53:18.477959991Z</time>
      </trkpt>
      <trkpt lat="42.88354" lon="2.19043">
        <ele>283.94</ele>
        <time>2026-06-03T12:53:19.470765948Z</time>
      </trkpt>
      <trkpt lat="42.8836" lon="2.19044">
        <ele>283.9</ele>
        <time>2026-06-03T12:53:20.458989978Z</time>
      </trkpt>
      <trkpt lat="42.88366" lon="2.19044">
        <ele>283.85</ele>
        <time>2026-06-03T12:53:21.418370008Z</time>
      </trkpt>
      <trkpt lat="42.88372" lon="2.19045">
        <ele>283.78998</ele>
        <time>2026-06-03T12:53:22.443832994Z</time>
      </trkpt>
      <trkpt lat="42.88378" lon="2.19045">
        <ele>283.72</ele>
        <time>2026-06-03T12:53:23.488567948Z</time>
      </trkpt>
      <trkpt lat="42.88383" lon="2.19045">
        <ele>283.66</ele>
        <time>2026-06-03T12:53:24.478464961Z</time>
      </trkpt>
      <trkpt lat="42.8839" lon="2.19046">
        <ele>283.58002</ele>
        <time>2026-06-03T12:53:25.469565034Z</time>
      </trkpt>
      <trkpt lat="42.88396" lon="2.19047">
        <ele>283.5</ele>
        <time>2026-06-03T12:53:26.429239035Z</time>
      </trkpt>
      <trkpt lat="42.88401" lon="2.19048">
        <ele>283.41</ele>
        <time>2026-06-03T12:53:27.478217006Z</time>
      </trkpt>
      <trkpt lat="42.88406" lon="2.19049">
        <ele>283.33002</ele>
        <time>2026-06-03T12:53:28.559090972Z</time>
      </trkpt>
      <trkpt lat="42.88412" lon="2.19051">
        <ele>283.25</ele>
        <time>2026-06-03T12:53:29.404816031Z</time>
      </trkpt>
      <trkpt lat="42.88417" lon="2.19053">
        <ele>283.16998</ele>
        <time>2026-06-03T12:53:30.448727965Z</time>
      </trkpt>
      <trkpt lat="42.88423" lon="2.19056">
        <ele>283.1</ele>
        <time>2026-06-03T12:53:31.499240994Z</time>
      </trkpt>
      <trkpt lat="42.88428" lon="2.1906">
        <ele>283.05</ele>
        <time>2026-06-03T12:53:32.489225030Z</time>
      </trkpt>
      <trkpt lat="42.88433" lon="2.19064">
        <ele>282.99</ele>
        <time>2026-06-03T12:53:33.479642987Z</time>
      </trkpt>
      <trkpt lat="42.88438" lon="2.19068">
        <ele>282.94</ele>
        <time>2026-06-03T12:53:34.471199989Z</time>
      </trkpt>
      <trkpt lat="42.88444" lon="2.19072">
        <ele>282.88</ele>
        <time>2026-06-03T12:53:35.489675045Z</time>
      </trkpt>
      <trkpt lat="42.88449" lon="2.19076">
        <ele>282.82</ele>
        <time>2026-06-03T12:53:36.509475946Z</time>
      </trkpt>
      <trkpt lat="42.88454" lon="2.19082">
        <ele>282.77002</ele>
        <time>2026-06-03T12:53:37.412395Z</time>
      </trkpt>
      <trkpt lat="42.88457" lon="2.19089">
        <ele>282.7</ele>
        <time>2026-06-03T12:53:38.489783049Z</time>
      </trkpt>
      <trkpt lat="42.88458" lon="2.19096">
        <ele>282.62</ele>
        <time>2026-06-03T12:53:39.418231964Z</time>
      </trkpt>
      <trkpt lat="42.88458" lon="2.19105">
        <ele>282.55</ele>
        <time>2026-06-03T12:53:40.469284058Z</time>
      </trkpt>
      <trkpt lat="42.88458" lon="2.19113">
        <ele>282.47</ele>
        <time>2026-06-03T12:53:41.399068952Z</time>
      </trkpt>
      <trkpt lat="42.88459" lon="2.19122">
        <ele>282.4</ele>
        <time>2026-06-03T12:53:42.509822965Z</time>
      </trkpt>
      <trkpt lat="42.88461" lon="2.1913">
        <ele>282.33002</ele>
        <time>2026-06-03T12:53:43.499645948Z</time>
      </trkpt>
      <trkpt lat="42.88462" lon="2.19138">
        <ele>282.27002</ele>
        <time>2026-06-03T12:53:44.489784002Z</time>
      </trkpt>
      <trkpt lat="42.88463" lon="2.19146">
        <ele>282.22</ele>
        <time>2026-06-03T12:53:45.461526036Z</time>
      </trkpt>
      <trkpt lat="42.88465" lon="2.19155">
        <ele>282.16998</ele>
        <time>2026-06-03T12:53:46.499498010Z</time>
      </trkpt>
      <trkpt lat="42.88467" lon="2.19162">
        <ele>282.14</ele>
        <time>2026-06-03T12:53:47.489578962Z</time>
      </trkpt>
      <trkpt lat="42.88469" lon="2.19171">
        <ele>282.1</ele>
        <time>2026-06-03T12:53:48.509546041Z</time>
      </trkpt>
      <trkpt lat="42.8847" lon="2.19179">
        <ele>282.07</ele>
        <time>2026-06-03T12:53:49.423863053Z</time>
      </trkpt>
      <trkpt lat="42.88472" lon="2.19186">
        <ele>282.05</ele>
        <time>2026-06-03T12:53:50.489514947Z</time>
      </trkpt>
      <trkpt lat="42.88474" lon="2.19195">
        <ele>282.03</ele>
        <time>2026-06-03T12:53:51.509662986Z</time>
      </trkpt>
      <trkpt lat="42.88475" lon="2.19202">
        <ele>282.02002</ele>
        <time>2026-06-03T12:53:52.499575973Z</time>
      </trkpt>
      <trkpt lat="42.88477" lon="2.1921">
        <ele>282</ele>
        <time>2026-06-03T12:53:53.427582026Z</time>
      </trkpt>
      <trkpt lat="42.88479" lon="2.19218">
        <ele>281.99</ele>
        <time>2026-06-03T12:53:54.479815006Z</time>
      </trkpt>
      <trkpt lat="42.88481" lon="2.19225">
        <ele>281.99</ele>
        <time>2026-06-03T12:53:55.499773979Z</time>
      </trkpt>
      <trkpt lat="42.88483" lon="2.19233">
        <ele>281.99</ele>
        <time>2026-06-03T12:53:56.488790989Z</time>
      </trkpt>
      <trkpt lat="42.88485" lon="2.1924">
        <ele>281.99</ele>
        <time>2026-06-03T12:53:57.418899059Z</time>
      </trkpt>
      <trkpt lat="42.88487" lon="2.19247">
        <ele>281.97998</ele>
        <time>2026-06-03T12:53:58.498751044Z</time>
      </trkpt>
      <trkpt lat="42.8849" lon="2.19255">
        <ele>281.97998</ele>
        <time>2026-06-03T12:53:59.402822018Z</time>
      </trkpt>
      <trkpt lat="42.88493" lon="2.19261">
        <ele>281.97998</ele>
        <time>2026-06-03T12:54:00.509835005Z</time>
      </trkpt>
      <trkpt lat="42.88494" lon="2.19268">
        <ele>281.97998</ele>
        <time>2026-06-03T12:54:01.435260057Z</time>
      </trkpt>
      <trkpt lat="42.88496" lon="2.19276">
        <ele>281.99</ele>
        <time>2026-06-03T12:54:02.519677997Z</time>
      </trkpt>
      <trkpt lat="42.88498" lon="2.19283">
        <ele>282.01</ele>
        <time>2026-06-03T12:54:03.451149940Z</time>
      </trkpt>
      <trkpt lat="42.88499" lon="2.1929">
        <ele>282.03</ele>
        <time>2026-06-03T12:54:04.498963952Z</time>
      </trkpt>
      <trkpt lat="42.88501" lon="2.19297">
        <ele>282.19</ele>
        <time>2026-06-03T12:54:05.448972940Z</time>
      </trkpt>
      <trkpt lat="42.88502" lon="2.19305">
        <ele>282.36</ele>
        <time>2026-06-03T12:54:06.479768991Z</time>
      </trkpt>
      <trkpt lat="42.88504" lon="2.19312">
        <ele>282.53998</ele>
        <time>2026-06-03T12:54:07.499663949Z</time>
      </trkpt>
      <trkpt lat="42.88506" lon="2.19319">
        <ele>282.71002</ele>
        <time>2026-06-03T12:54:08.520066023Z</time>
      </trkpt>
      <trkpt lat="42.88507" lon="2.19326">
        <ele>282.86</ele>
        <time>2026-06-03T12:54:09.452859044Z</time>
      </trkpt>
      <trkpt lat="42.88509" lon="2.19333">
        <ele>283.01</ele>
        <time>2026-06-03T12:54:10.499114990Z</time>
      </trkpt>
      <trkpt lat="42.88511" lon="2.1934">
        <ele>283.14</ele>
        <time>2026-06-03T12:54:11.520436049Z</time>
      </trkpt>
      <trkpt lat="42.88512" lon="2.19347">
        <ele>283.25</ele>
        <time>2026-06-03T12:54:12.449506044Z</time>
      </trkpt>
      <trkpt lat="42.88514" lon="2.19353">
        <ele>283.37</ele>
        <time>2026-06-03T12:54:13.416260958Z</time>
      </trkpt>
      <trkpt lat="42.88516" lon="2.1936">
        <ele>283.49</ele>
        <time>2026-06-03T12:54:14.489868045Z</time>
      </trkpt>
      <trkpt lat="42.88517" lon="2.19367">
        <ele>283.62</ele>
        <time>2026-06-03T12:54:15.510072947Z</time>
      </trkpt>
      <trkpt lat="42.88519" lon="2.19373">
        <ele>283.74</ele>
        <time>2026-06-03T12:54:16.499078035Z</time>
      </trkpt>
      <trkpt lat="42.8852" lon="2.19379">
        <ele>283.87</ele>
        <time>2026-06-03T12:54:17.459818959Z</time>
      </trkpt>
      <trkpt lat="42.88522" lon="2.19386">
        <ele>284.01</ele>
        <time>2026-06-03T12:54:18.510043025Z</time>
      </trkpt>
      <trkpt lat="42.88524" lon="2.19391">
        <ele>284.16</ele>
        <time>2026-06-03T12:54:19.469794035Z</time>
      </trkpt>
      <trkpt lat="42.88525" lon="2.19398">
        <ele>284.3</ele>
        <time>2026-06-03T12:54:20.519955039Z</time>
      </trkpt>
      <trkpt lat="42.88528" lon="2.19404">
        <ele>284.43</ele>
        <time>2026-06-03T12:54:21.464131951Z</time>
      </trkpt>
      <trkpt lat="42.88529" lon="2.1941">
        <ele>284.58002</ele>
        <time>2026-06-03T12:54:22.499621034Z</time>
      </trkpt>
      <trkpt lat="42.88531" lon="2.19416">
        <ele>284.72998</ele>
        <time>2026-06-03T12:54:23.520346999Z</time>
      </trkpt>
      <trkpt lat="42.88532" lon="2.19422">
        <ele>284.87</ele>
        <time>2026-06-03T12:54:24.510144949Z</time>
      </trkpt>
      <trkpt lat="42.88534" lon="2.19428">
        <ele>285.02002</ele>
        <time>2026-06-03T12:54:25.468147039Z</time>
      </trkpt>
      <trkpt lat="42.88536" lon="2.19434">
        <ele>285.19</ele>
        <time>2026-06-03T12:54:26.520169020Z</time>
      </trkpt>
      <trkpt lat="42.88538" lon="2.1944">
        <ele>285.37</ele>
        <time>2026-06-03T12:54:27.510463953Z</time>
      </trkpt>
      <trkpt lat="42.88539" lon="2.19445">
        <ele>285.52002</ele>
        <time>2026-06-03T12:54:28.469493032Z</time>
      </trkpt>
      <trkpt lat="42.88541" lon="2.19452">
        <ele>285.69</ele>
        <time>2026-06-03T12:54:29.471742034Z</time>
      </trkpt>
      <trkpt lat="42.88543" lon="2.19457">
        <ele>285.89</ele>
        <time>2026-06-03T12:54:30.480111957Z</time>
      </trkpt>
      <trkpt lat="42.88544" lon="2.19462">
        <ele>286.12</ele>
        <time>2026-06-03T12:54:31.530253053Z</time>
      </trkpt>
      <trkpt lat="42.88547" lon="2.19467">
        <ele>286.31</ele>
        <time>2026-06-03T12:54:32.520306945Z</time>
      </trkpt>
      <trkpt lat="42.8855" lon="2.19472">
        <ele>286.52002</ele>
        <time>2026-06-03T12:54:33.475710988Z</time>
      </trkpt>
      <trkpt lat="42.88554" lon="2.19477">
        <ele>286.76</ele>
        <time>2026-06-03T12:54:34.500193954Z</time>
      </trkpt>
      <trkpt lat="42.88558" lon="2.1948">
        <ele>287.01</ele>
        <time>2026-06-03T12:54:35.520341039Z</time>
      </trkpt>
      <trkpt lat="42.88562" lon="2.19483">
        <ele>287.24</ele>
        <time>2026-06-03T12:54:36.510272980Z</time>
      </trkpt>
      <trkpt lat="42.88567" lon="2.19486">
        <ele>287.47</ele>
        <time>2026-06-03T12:54:37.479554057Z</time>
      </trkpt>
      <trkpt lat="42.8857" lon="2.19487">
        <ele>287.68</ele>
        <time>2026-06-03T12:54:38.459898949Z</time>
      </trkpt>
      <trkpt lat="42.88574" lon="2.19487">
        <ele>287.9</ele>
        <time>2026-06-03T12:54:39.449581981Z</time>
      </trkpt>
      <trkpt lat="42.88579" lon="2.19487">
        <ele>288.09</ele>
        <time>2026-06-03T12:54:40.469131947Z</time>
      </trkpt>
      <trkpt lat="42.88584" lon="2.19487">
        <ele>288.28</ele>
        <time>2026-06-03T12:54:41.458618045Z</time>
      </trkpt>
      <trkpt lat="42.88589" lon="2.19488">
        <ele>288.47998</ele>
        <time>2026-06-03T12:54:42.449730992Z</time>
      </trkpt>
      <trkpt lat="42.88594" lon="2.19488">
        <ele>288.66998</ele>
        <time>2026-06-03T12:54:43.470126033Z</time>
      </trkpt>
      <trkpt lat="42.88598" lon="2.1949">
        <ele>288.84</ele>
        <time>2026-06-03T12:54:44.458883047Z</time>
      </trkpt>
      <trkpt lat="42.88602" lon="2.19491">
        <ele>289.03998</ele>
        <time>2026-06-03T12:54:45.449378014Z</time>
      </trkpt>
      <trkpt lat="42.88607" lon="2.19492">
        <ele>289.26</ele>
        <time>2026-06-03T12:54:46.469205976Z</time>
      </trkpt>
      <trkpt lat="42.88613" lon="2.19494">
        <ele>289.53</ele>
        <time>2026-06-03T12:54:47.460028052Z</time>
      </trkpt>
      <trkpt lat="42.88617" lon="2.19496">
        <ele>289.76</ele>
        <time>2026-06-03T12:54:48.480177045Z</time>
      </trkpt>
      <trkpt lat="42.88622" lon="2.19498">
        <ele>290.02002</ele>
        <time>2026-06-03T12:54:49.396726012Z</time>
      </trkpt>
      <trkpt lat="42.88627" lon="2.19499">
        <ele>290.33002</ele>
        <time>2026-06-03T12:54:50.447641969Z</time>
      </trkpt>
      <trkpt lat="42.88632" lon="2.195">
        <ele>290.66</ele>
        <time>2026-06-03T12:54:51.448869944Z</time>
      </trkpt>
      <trkpt lat="42.88637" lon="2.19501">
        <ele>290.95</ele>
        <time>2026-06-03T12:54:52.458222985Z</time>
      </trkpt>
      <trkpt lat="42.88641" lon="2.19501">
        <ele>291.27002</ele>
        <time>2026-06-03T12:54:53.504806995Z</time>
      </trkpt>
      <trkpt lat="42.88646" lon="2.19501">
        <ele>291.61</ele>
        <time>2026-06-03T12:54:54.480366945Z</time>
      </trkpt>
      <trkpt lat="42.88651" lon="2.195">
        <ele>291.97998</ele>
        <time>2026-06-03T12:54:55.530689001Z</time>
      </trkpt>
      <trkpt lat="42.88656" lon="2.19499">
        <ele>292.3</ele>
        <time>2026-06-03T12:54:56.520671964Z</time>
      </trkpt>
      <trkpt lat="42.88661" lon="2.19499">
        <ele>292.64</ele>
        <time>2026-06-03T12:54:57.508478045Z</time>
      </trkpt>
      <trkpt lat="42.88666" lon="2.19499">
        <ele>293.03</ele>
        <time>2026-06-03T12:54:58.530405045Z</time>
      </trkpt>
      <trkpt lat="42.88671" lon="2.19499">
        <ele>293.45</ele>
        <time>2026-06-03T12:54:59.551923990Z</time>
      </trkpt>
      <trkpt lat="42.88675" lon="2.19499">
        <ele>293.81</ele>
        <time>2026-06-03T12:55:00.542598009Z</time>
      </trkpt>
      <trkpt lat="42.8868" lon="2.19497">
        <ele>294.21002</ele>
        <time>2026-06-03T12:55:01.512415051Z</time>
      </trkpt>
      <trkpt lat="42.88685" lon="2.19496">
        <ele>294.63</ele>
        <time>2026-06-03T12:55:02.520756960Z</time>
      </trkpt>
      <trkpt lat="42.88689" lon="2.19493">
        <ele>295.09</ele>
        <time>2026-06-03T12:55:03.542806983Z</time>
      </trkpt>
      <trkpt lat="42.88694" lon="2.1949">
        <ele>295.47</ele>
        <time>2026-06-03T12:55:04.531059027Z</time>
      </trkpt>
      <trkpt lat="42.88698" lon="2.19488">
        <ele>295.75</ele>
        <time>2026-06-03T12:55:05.516188979Z</time>
      </trkpt>
      <trkpt lat="42.88704" lon="2.19485">
        <ele>296.05</ele>
        <time>2026-06-03T12:55:06.542458057Z</time>
      </trkpt>
      <trkpt lat="42.88709" lon="2.19485">
        <ele>296.39</ele>
        <time>2026-06-03T12:55:07.530827045Z</time>
      </trkpt>
      <trkpt lat="42.88713" lon="2.19484">
        <ele>296.68</ele>
        <time>2026-06-03T12:55:08.520766020Z</time>
      </trkpt>
      <trkpt lat="42.88718" lon="2.19484">
        <ele>297.01</ele>
        <time>2026-06-03T12:55:09.520146966Z</time>
      </trkpt>
      <trkpt lat="42.88722" lon="2.19484">
        <ele>297.36</ele>
        <time>2026-06-03T12:55:10.384592056Z</time>
      </trkpt>
      <trkpt lat="42.88726" lon="2.19484">
        <ele>297.77002</ele>
        <time>2026-06-03T12:55:11.494493961Z</time>
      </trkpt>
      <trkpt lat="42.88729" lon="2.19484">
        <ele>298.12</ele>
        <time>2026-06-03T12:55:12.542788982Z</time>
      </trkpt>
      <trkpt lat="42.88733" lon="2.19484">
        <ele>298.52002</ele>
        <time>2026-06-03T12:55:13.523882985Z</time>
      </trkpt>
      <trkpt lat="42.88737" lon="2.19484">
        <ele>298.97</ele>
        <time>2026-06-03T12:55:14.521049976Z</time>
      </trkpt>
      <trkpt lat="42.88742" lon="2.19486">
        <ele>299.47998</ele>
        <time>2026-06-03T12:55:15.509767056Z</time>
      </trkpt>
      <trkpt lat="42.88745" lon="2.19488">
        <ele>300.06</ele>
        <time>2026-06-03T12:55:16.530565977Z</time>
      </trkpt>
      <trkpt lat="42.88747" lon="2.19491">
        <ele>300.55</ele>
        <time>2026-06-03T12:55:17.609712005Z</time>
      </trkpt>
      <trkpt lat="42.8875" lon="2.19495">
        <ele>301.11</ele>
        <time>2026-06-03T12:55:18.388681054Z</time>
      </trkpt>
      <trkpt lat="42.88751" lon="2.19498">
        <ele>301.72998</ele>
        <time>2026-06-03T12:55:19.453071952Z</time>
      </trkpt>
      <trkpt lat="42.88753" lon="2.19502">
        <ele>302.38</ele>
        <time>2026-06-03T12:55:20.477910995Z</time>
      </trkpt>
      <trkpt lat="42.88755" lon="2.19505">
        <ele>303.03</ele>
        <time>2026-06-03T12:55:21.570909023Z</time>
      </trkpt>
      <trkpt lat="42.88757" lon="2.19509">
        <ele>303.65</ele>
        <time>2026-06-03T12:55:22.590692043Z</time>
      </trkpt>
      <trkpt lat="42.88758" lon="2.19513">
        <ele>304.19</ele>
        <time>2026-06-03T12:55:23.478222013Z</time>
      </trkpt>
      <trkpt lat="42.88761" lon="2.19518">
        <ele>304.65</ele>
        <time>2026-06-03T12:55:24.510781050Z</time>
      </trkpt>
      <trkpt lat="42.88763" lon="2.19524">
        <ele>305.02002</ele>
        <time>2026-06-03T12:55:25.530761003Z</time>
      </trkpt>
      <trkpt lat="42.88766" lon="2.1953">
        <ele>305.3</ele>
        <time>2026-06-03T12:55:26.490735054Z</time>
      </trkpt>
      <trkpt lat="42.88766" lon="2.19533">
        <ele>305.5</ele>
        <time>2026-06-03T12:55:27.510877967Z</time>
      </trkpt>
      <trkpt lat="42.88771" lon="2.19545">
        <ele>305.62</ele>
        <time>2026-06-03T12:55:28.530814052Z</time>
      </trkpt>
      <trkpt lat="42.88773" lon="2.19552">
        <ele>305.66998</ele>
        <time>2026-06-03T12:55:29.490821958Z</time>
      </trkpt>
      <trkpt lat="42.88776" lon="2.1956">
        <ele>305.66</ele>
        <time>2026-06-03T12:55:30.510002017Z</time>
      </trkpt>
      <trkpt lat="42.88778" lon="2.1957">
        <ele>305.6</ele>
        <time>2026-06-03T12:55:31.530982971Z</time>
      </trkpt>
      <trkpt lat="42.8878" lon="2.1958">
        <ele>305.53998</ele>
        <time>2026-06-03T12:55:32.490744948Z</time>
      </trkpt>
      <trkpt lat="42.88781" lon="2.19585">
        <ele>305.44</ele>
        <time>2026-06-03T12:55:33.511098981Z</time>
      </trkpt>
      <trkpt lat="42.88782" lon="2.19598">
        <ele>305.31</ele>
        <time>2026-06-03T12:55:34.531347036Z</time>
      </trkpt>
      <trkpt lat="42.88783" lon="2.19606">
        <ele>305.14</ele>
        <time>2026-06-03T12:55:35.490643024Z</time>
      </trkpt>
      <trkpt lat="42.88783" lon="2.19607">
        <ele>304.94</ele>
        <time>2026-06-03T12:55:36.571113944Z</time>
      </trkpt>
      <trkpt lat="42.88785" lon="2.19626">
        <ele>304.94</ele>
        <time>2026-06-03T12:55:37.531769037Z</time>
      </trkpt>
      <trkpt lat="42.88786" lon="2.19634">
        <ele>304.52002</ele>
        <time>2026-06-03T12:55:38.520418048Z</time>
      </trkpt>
      <trkpt lat="42.88786" lon="2.19635">
        <ele>304.32</ele>
        <time>2026-06-03T12:55:39.510434985Z</time>
      </trkpt>
      <trkpt lat="42.88789" lon="2.19652">
        <ele>304.13</ele>
        <time>2026-06-03T12:55:40.530578971Z</time>
      </trkpt>
      <trkpt lat="42.8879" lon="2.1966">
        <ele>303.95</ele>
        <time>2026-06-03T12:55:41.490600944Z</time>
      </trkpt>
      <trkpt lat="42.88791" lon="2.19665">
        <ele>303.76</ele>
        <time>2026-06-03T12:55:42.571004033Z</time>
      </trkpt>
      <trkpt lat="42.88792" lon="2.19676">
        <ele>303.59</ele>
        <time>2026-06-03T12:55:43.531281948Z</time>
      </trkpt>
      <trkpt lat="42.88793" lon="2.19682">
        <ele>303.45</ele>
        <time>2026-06-03T12:55:44.490888Z</time>
      </trkpt>
      <trkpt lat="42.88794" lon="2.19689">
        <ele>303.33002</ele>
        <time>2026-06-03T12:55:45.511373997Z</time>
      </trkpt>
      <trkpt lat="42.88795" lon="2.19695">
        <ele>303.22998</ele>
        <time>2026-06-03T12:55:46.531149983Z</time>
      </trkpt>
      <trkpt lat="42.88796" lon="2.19701">
        <ele>303.15</ele>
        <time>2026-06-03T12:55:47.521783948Z</time>
      </trkpt>
      <trkpt lat="42.88797" lon="2.19707">
        <ele>303.08002</ele>
        <time>2026-06-03T12:55:48.451060057Z</time>
      </trkpt>
      <trkpt lat="42.88799" lon="2.19714">
        <ele>303.05</ele>
        <time>2026-06-03T12:55:49.531375051Z</time>
      </trkpt>
      <trkpt lat="42.888" lon="2.1972">
        <ele>303.02002</ele>
        <time>2026-06-03T12:55:50.520835042Z</time>
      </trkpt>
      <trkpt lat="42.88802" lon="2.19728">
        <ele>303</ele>
        <time>2026-06-03T12:55:51.511556029Z</time>
      </trkpt>
      <trkpt lat="42.88803" lon="2.19735">
        <ele>302.97998</ele>
        <time>2026-06-03T12:55:52.443215966Z</time>
      </trkpt>
      <trkpt lat="42.88804" lon="2.19741">
        <ele>302.96002</ele>
        <time>2026-06-03T12:55:53.520990968Z</time>
      </trkpt>
      <trkpt lat="42.88806" lon="2.1975">
        <ele>302.94</ele>
        <time>2026-06-03T12:55:54.571490049Z</time>
      </trkpt>
      <trkpt lat="42.88807" lon="2.19757">
        <ele>302.91</ele>
        <time>2026-06-03T12:55:55.531782985Z</time>
      </trkpt>
      <trkpt lat="42.88808" lon="2.19764">
        <ele>302.88</ele>
        <time>2026-06-03T12:55:56.521582961Z</time>
      </trkpt>
      <trkpt lat="42.88809" lon="2.19772">
        <ele>302.83002</ele>
        <time>2026-06-03T12:55:57.511551023Z</time>
      </trkpt>
      <trkpt lat="42.8881" lon="2.19779">
        <ele>302.78</ele>
        <time>2026-06-03T12:55:58.531540036Z</time>
      </trkpt>
      <trkpt lat="42.88811" lon="2.19784">
        <ele>302.72998</ele>
        <time>2026-06-03T12:55:59.553542972Z</time>
      </trkpt>
      <trkpt lat="42.88812" lon="2.19792">
        <ele>302.68</ele>
        <time>2026-06-03T12:56:00.511227965Z</time>
      </trkpt>
      <trkpt lat="42.88813" lon="2.19801">
        <ele>302.62</ele>
        <time>2026-06-03T12:56:01.532621980Z</time>
      </trkpt>
      <trkpt lat="42.88813" lon="2.19808">
        <ele>302.56</ele>
        <time>2026-06-03T12:56:02.521618009Z</time>
      </trkpt>
      <trkpt lat="42.88814" lon="2.19813">
        <ele>302.5</ele>
        <time>2026-06-03T12:56:03.571534038Z</time>
      </trkpt>
      <trkpt lat="42.88815" lon="2.19822">
        <ele>302.44</ele>
        <time>2026-06-03T12:56:04.531556964Z</time>
      </trkpt>
      <trkpt lat="42.88815" lon="2.19829">
        <ele>302.25</ele>
        <time>2026-06-03T12:56:05.431205034Z</time>
      </trkpt>
      <trkpt lat="42.88816" lon="2.19836">
        <ele>302.07</ele>
        <time>2026-06-03T12:56:06.571764946Z</time>
      </trkpt>
      <trkpt lat="42.88816" lon="2.19843">
        <ele>301.91</ele>
        <time>2026-06-03T12:56:07.410956025Z</time>
      </trkpt>
      <trkpt lat="42.88817" lon="2.1985">
        <ele>301.75</ele>
        <time>2026-06-03T12:56:08.522019982Z</time>
      </trkpt>
      <trkpt lat="42.88817" lon="2.19854">
        <ele>301.6</ele>
        <time>2026-06-03T12:56:09.450456977Z</time>
      </trkpt>
      <trkpt lat="42.88818" lon="2.19865">
        <ele>301.46002</ele>
        <time>2026-06-03T12:56:10.454372048Z</time>
      </trkpt>
      <trkpt lat="42.88818" lon="2.19868">
        <ele>301.34</ele>
        <time>2026-06-03T12:56:11.551681995Z</time>
      </trkpt>
      <trkpt lat="42.88818" lon="2.19877">
        <ele>301.24</ele>
        <time>2026-06-03T12:56:12.574077010Z</time>
      </trkpt>
      <trkpt lat="42.88818" lon="2.19885">
        <ele>301.14</ele>
        <time>2026-06-03T12:56:13.561475992Z</time>
      </trkpt>
      <trkpt lat="42.88818" lon="2.19891">
        <ele>301.07</ele>
        <time>2026-06-03T12:56:14.491179943Z</time>
      </trkpt>
      <trkpt lat="42.88818" lon="2.19899">
        <ele>301</ele>
        <time>2026-06-03T12:56:15.572134972Z</time>
      </trkpt>
      <trkpt lat="42.88818" lon="2.19907">
        <ele>300.94</ele>
        <time>2026-06-03T12:56:16.563760996Z</time>
      </trkpt>
      <trkpt lat="42.88818" lon="2.19911">
        <ele>300.88</ele>
        <time>2026-06-03T12:56:17.553549051Z</time>
      </trkpt>
      <trkpt lat="42.88818" lon="2.19921">
        <ele>300.82</ele>
        <time>2026-06-03T12:56:18.393470049Z</time>
      </trkpt>
      <trkpt lat="42.88819" lon="2.19928">
        <ele>300.77002</ele>
        <time>2026-06-03T12:56:19.531520009Z</time>
      </trkpt>
      <trkpt lat="42.8882" lon="2.19935">
        <ele>300.71002</ele>
        <time>2026-06-03T12:56:20.552140951Z</time>
      </trkpt>
      <trkpt lat="42.88821" lon="2.19942">
        <ele>300.63</ele>
        <time>2026-06-03T12:56:21.391226053Z</time>
      </trkpt>
      <trkpt lat="42.88823" lon="2.1995">
        <ele>300.53998</ele>
        <time>2026-06-03T12:56:22.563694Z</time>
      </trkpt>
      <trkpt lat="42.88823" lon="2.19955">
        <ele>300.45</ele>
        <time>2026-06-03T12:56:23.552006960Z</time>
      </trkpt>
      <trkpt lat="42.88826" lon="2.19965">
        <ele>300.36</ele>
        <time>2026-06-03T12:56:24.571604013Z</time>
      </trkpt>
      <trkpt lat="42.88828" lon="2.19972">
        <ele>300.26</ele>
        <time>2026-06-03T12:56:25.531389952Z</time>
      </trkpt>
      <trkpt lat="42.88828" lon="2.19977">
        <ele>300.13</ele>
        <time>2026-06-03T12:56:26.521366Z</time>
      </trkpt>
      <trkpt lat="42.8883" lon="2.19986">
        <ele>300.02002</ele>
        <time>2026-06-03T12:56:27.571640015Z</time>
      </trkpt>
      <trkpt lat="42.88832" lon="2.19992">
        <ele>299.91</ele>
        <time>2026-06-03T12:56:28.563639045Z</time>
      </trkpt>
      <trkpt lat="42.88834" lon="2.19998">
        <ele>299.77002</ele>
        <time>2026-06-03T12:56:29.521464944Z</time>
      </trkpt>
      <trkpt lat="42.88834" lon="2.20002">
        <ele>299.64</ele>
        <time>2026-06-03T12:56:30.511770964Z</time>
      </trkpt>
      <trkpt lat="42.88835" lon="2.20006">
        <ele>299.51</ele>
        <time>2026-06-03T12:56:31.531275034Z</time>
      </trkpt>
      <trkpt lat="42.88835" lon="2.2001">
        <ele>299.37</ele>
        <time>2026-06-03T12:56:32.520324945Z</time>
      </trkpt>
      <trkpt lat="42.88835" lon="2.20015">
        <ele>299.24</ele>
        <time>2026-06-03T12:56:33.752202034Z</time>
      </trkpt>
      <trkpt lat="42.88833" lon="2.2002">
        <ele>299.09</ele>
        <time>2026-06-03T12:56:34.772184968Z</time>
      </trkpt>
      <trkpt lat="42.88831" lon="2.20025">
        <ele>298.95</ele>
        <time>2026-06-03T12:56:35.491613030Z</time>
      </trkpt>
      <trkpt lat="42.88829" lon="2.20031">
        <ele>298.81</ele>
        <time>2026-06-03T12:56:36.631346941Z</time>
      </trkpt>
      <trkpt lat="42.88826" lon="2.20037">
        <ele>298.66998</ele>
        <time>2026-06-03T12:56:37.531525016Z</time>
      </trkpt>
      <trkpt lat="42.88824" lon="2.20043">
        <ele>298.53998</ele>
        <time>2026-06-03T12:56:38.732460022Z</time>
      </trkpt>
      <trkpt lat="42.88822" lon="2.2005">
        <ele>298.41998</ele>
        <time>2026-06-03T12:56:39.511590004Z</time>
      </trkpt>
      <trkpt lat="42.8882" lon="2.20057">
        <ele>298.31</ele>
        <time>2026-06-03T12:56:40.706272960Z</time>
      </trkpt>
      <trkpt lat="42.88818" lon="2.20063">
        <ele>298.21002</ele>
        <time>2026-06-03T12:56:41.553766966Z</time>
      </trkpt>
      <trkpt lat="42.88815" lon="2.20072">
        <ele>298.12</ele>
        <time>2026-06-03T12:56:42.751831055Z</time>
      </trkpt>
      <trkpt lat="42.88813" lon="2.20079">
        <ele>298.03998</ele>
        <time>2026-06-03T12:56:43.563891053Z</time>
      </trkpt>
      <trkpt lat="42.88811" lon="2.20086">
        <ele>297.96002</ele>
        <time>2026-06-03T12:56:44.710221052Z</time>
      </trkpt>
      <trkpt lat="42.8881" lon="2.20095">
        <ele>297.87</ele>
        <time>2026-06-03T12:56:45.572005987Z</time>
      </trkpt>
      <trkpt lat="42.88808" lon="2.20104">
        <ele>297.78998</ele>
        <time>2026-06-03T12:56:46.531857967Z</time>
      </trkpt>
      <trkpt lat="42.88807" lon="2.20112">
        <ele>297.7</ele>
        <time>2026-06-03T12:56:47.405621052Z</time>
      </trkpt>
      <trkpt lat="42.88805" lon="2.20122">
        <ele>297.6</ele>
        <time>2026-06-03T12:56:48.713974953Z</time>
      </trkpt>
      <trkpt lat="42.88804" lon="2.20132">
        <ele>297.47</ele>
        <time>2026-06-03T12:56:49.772508025Z</time>
      </trkpt>
      <trkpt lat="42.88803" lon="2.20141">
        <ele>297.35</ele>
        <time>2026-06-03T12:56:50.381358027Z</time>
      </trkpt>
      <trkpt lat="42.88801" lon="2.20151">
        <ele>297.2</ele>
        <time>2026-06-03T12:56:51.752153993Z</time>
      </trkpt>
      <trkpt lat="42.88799" lon="2.2016">
        <ele>297.01</ele>
        <time>2026-06-03T12:56:52.442198992Z</time>
      </trkpt>
      <trkpt lat="42.88797" lon="2.2017">
        <ele>296.78998</ele>
        <time>2026-06-03T12:56:53.491485Z</time>
      </trkpt>
      <trkpt lat="42.88795" lon="2.2018">
        <ele>296.6</ele>
        <time>2026-06-03T12:56:54.511692047Z</time>
      </trkpt>
      <trkpt lat="42.88792" lon="2.2019">
        <ele>296.38</ele>
        <time>2026-06-03T12:56:55.531896949Z</time>
      </trkpt>
      <trkpt lat="42.88789" lon="2.20199">
        <ele>296.12</ele>
        <time>2026-06-03T12:56:56.521736979Z</time>
      </trkpt>
      <trkpt lat="42.88786" lon="2.20209">
        <ele>295.85</ele>
        <time>2026-06-03T12:56:57.511823058Z</time>
      </trkpt>
      <trkpt lat="42.88783" lon="2.20217">
        <ele>295.61</ele>
        <time>2026-06-03T12:56:58.531849027Z</time>
      </trkpt>
      <trkpt lat="42.88778" lon="2.20224">
        <ele>295.34</ele>
        <time>2026-06-03T12:56:59.731791019Z</time>
      </trkpt>
      <trkpt lat="42.88773" lon="2.20231">
        <ele>295.03998</ele>
        <time>2026-06-03T12:57:00.721897006Z</time>
      </trkpt>
      <trkpt lat="42.88769" lon="2.20237">
        <ele>294.7</ele>
        <time>2026-06-03T12:57:01.412055016Z</time>
      </trkpt>
      <trkpt lat="42.88765" lon="2.20244">
        <ele>294.41</ele>
        <time>2026-06-03T12:57:02.552324057Z</time>
      </trkpt>
      <trkpt lat="42.8876" lon="2.20249">
        <ele>294.09</ele>
        <time>2026-06-03T12:57:03.395267963Z</time>
      </trkpt>
      <trkpt lat="42.88756" lon="2.20254">
        <ele>293.75</ele>
        <time>2026-06-03T12:57:04.729614019Z</time>
      </trkpt>
      <trkpt lat="42.88752" lon="2.20261">
        <ele>293.34</ele>
        <time>2026-06-03T12:57:05.764050961Z</time>
      </trkpt>
      <trkpt lat="42.88752" lon="2.20262">
        <ele>292.99</ele>
        <time>2026-06-03T12:57:06.751788974Z</time>
      </trkpt>
      <trkpt lat="42.88752" lon="2.20263">
        <ele>292.66</ele>
        <time>2026-06-03T12:57:07.772253036Z</time>
      </trkpt>
      <trkpt lat="42.88752" lon="2.20285">
        <ele>292.37</ele>
        <time>2026-06-03T12:57:08.743566990Z</time>
      </trkpt>
      <trkpt lat="42.88754" lon="2.20293">
        <ele>292.1</ele>
        <time>2026-06-03T12:57:09.391690016Z</time>
      </trkpt>
      <trkpt lat="42.88758" lon="2.203">
        <ele>291.87</ele>
        <time>2026-06-03T12:57:10.772148967Z</time>
      </trkpt>
      <trkpt lat="42.88761" lon="2.20307">
        <ele>291.66998</ele>
        <time>2026-06-03T12:57:11.412884951Z</time>
      </trkpt>
      <trkpt lat="42.88765" lon="2.20314">
        <ele>291.47998</ele>
        <time>2026-06-03T12:57:12.747413993Z</time>
      </trkpt>
      <trkpt lat="42.88769" lon="2.20322">
        <ele>291.27002</ele>
        <time>2026-06-03T12:57:13.772158980Z</time>
      </trkpt>
      <trkpt lat="42.88773" lon="2.20329">
        <ele>291.1</ele>
        <time>2026-06-03T12:57:14.641527057Z</time>
      </trkpt>
      <trkpt lat="42.88777" lon="2.20336">
        <ele>290.93</ele>
        <time>2026-06-03T12:57:15.572036028Z</time>
      </trkpt>
      <trkpt lat="42.88781" lon="2.20344">
        <ele>290.75</ele>
        <time>2026-06-03T12:57:16.751317024Z</time>
      </trkpt>
      <trkpt lat="42.88785" lon="2.20351">
        <ele>290.56</ele>
        <time>2026-06-03T12:57:17.431813955Z</time>
      </trkpt>
      <trkpt lat="42.88789" lon="2.20357">
        <ele>290.39</ele>
        <time>2026-06-03T12:57:18.751410961Z</time>
      </trkpt>
      <trkpt lat="42.88791" lon="2.20365">
        <ele>290.22998</ele>
        <time>2026-06-03T12:57:19.476127982Z</time>
      </trkpt>
      <trkpt lat="42.88792" lon="2.20373">
        <ele>290.08002</ele>
        <time>2026-06-03T12:57:20.755262017Z</time>
      </trkpt>
      <trkpt lat="42.88792" lon="2.20381">
        <ele>289.94</ele>
        <time>2026-06-03T12:57:21.392024994Z</time>
      </trkpt>
      <trkpt lat="42.88791" lon="2.20388">
        <ele>289.82</ele>
        <time>2026-06-03T12:57:22.411895990Z</time>
      </trkpt>
      <trkpt lat="42.88789" lon="2.20395">
        <ele>289.71002</ele>
        <time>2026-06-03T12:57:23.762228012Z</time>
      </trkpt>
      <trkpt lat="42.88787" lon="2.20402">
        <ele>289.6</ele>
        <time>2026-06-03T12:57:24.632015944Z</time>
      </trkpt>
      <trkpt lat="42.88785" lon="2.20408">
        <ele>289.51</ele>
        <time>2026-06-03T12:57:25.442044020Z</time>
      </trkpt>
      <trkpt lat="42.88783" lon="2.20414">
        <ele>289.43</ele>
        <time>2026-06-03T12:57:26.611771941Z</time>
      </trkpt>
      <trkpt lat="42.88782" lon="2.2042">
        <ele>289.36</ele>
        <time>2026-06-03T12:57:27.428298950Z</time>
      </trkpt>
      <trkpt lat="42.88779" lon="2.20428">
        <ele>289.31</ele>
        <time>2026-06-03T12:57:28.652153015Z</time>
      </trkpt>
      <trkpt lat="42.88776" lon="2.20434">
        <ele>289.28998</ele>
        <time>2026-06-03T12:57:29.492107034Z</time>
      </trkpt>
      <trkpt lat="42.88772" lon="2.20441">
        <ele>289.27002</ele>
        <time>2026-06-03T12:57:30.633649945Z</time>
      </trkpt>
      <trkpt lat="42.88768" lon="2.20446">
        <ele>289.28</ele>
        <time>2026-06-03T12:57:31.412083983Z</time>
      </trkpt>
      <trkpt lat="42.88763" lon="2.20451">
        <ele>289.34</ele>
        <time>2026-06-03T12:57:32.492359996Z</time>
      </trkpt>
      <trkpt lat="42.88759" lon="2.20456">
        <ele>289.43</ele>
        <time>2026-06-03T12:57:33.571750045Z</time>
      </trkpt>
      <trkpt lat="42.88755" lon="2.2046">
        <ele>289.52002</ele>
        <time>2026-06-03T12:57:34.771759987Z</time>
      </trkpt>
      <trkpt lat="42.8875" lon="2.20465">
        <ele>289.65</ele>
        <time>2026-06-03T12:57:35.419424057Z</time>
      </trkpt>
      <trkpt lat="42.88746" lon="2.2047">
        <ele>289.83002</ele>
        <time>2026-06-03T12:57:36.432162046Z</time>
      </trkpt>
      <trkpt lat="42.88742" lon="2.20475">
        <ele>290.06</ele>
        <time>2026-06-03T12:57:37.412250042Z</time>
      </trkpt>
      <trkpt lat="42.88738" lon="2.20481">
        <ele>290.28</ele>
        <time>2026-06-03T12:57:38.612208009Z</time>
      </trkpt>
      <trkpt lat="42.88734" lon="2.20487">
        <ele>290.53</ele>
        <time>2026-06-03T12:57:39.449903011Z</time>
      </trkpt>
      <trkpt lat="42.88733" lon="2.20495">
        <ele>290.81</ele>
        <time>2026-06-03T12:57:40.682037950Z</time>
      </trkpt>
      <trkpt lat="42.88731" lon="2.20503">
        <ele>291.14</ele>
        <time>2026-06-03T12:57:41.612337947Z</time>
      </trkpt>
      <trkpt lat="42.88731" lon="2.2051">
        <ele>291.43</ele>
        <time>2026-06-03T12:57:42.452708006Z</time>
      </trkpt>
      <trkpt lat="42.8873" lon="2.20518">
        <ele>291.74</ele>
        <time>2026-06-03T12:57:43.411458015Z</time>
      </trkpt>
      <trkpt lat="42.88731" lon="2.20527">
        <ele>292.08002</ele>
        <time>2026-06-03T12:57:44.404389977Z</time>
      </trkpt>
      <trkpt lat="42.88731" lon="2.20534">
        <ele>292.45</ele>
        <time>2026-06-03T12:57:45.419206023Z</time>
      </trkpt>
      <trkpt lat="42.88733" lon="2.20541">
        <ele>292.77002</ele>
        <time>2026-06-03T12:57:46.431954980Z</time>
      </trkpt>
      <trkpt lat="42.88735" lon="2.20548">
        <ele>293.12</ele>
        <time>2026-06-03T12:57:47.432131052Z</time>
      </trkpt>
      <trkpt lat="42.88737" lon="2.20556">
        <ele>293.5</ele>
        <time>2026-06-03T12:57:48.395625949Z</time>
      </trkpt>
      <trkpt lat="42.8874" lon="2.20562">
        <ele>293.9</ele>
        <time>2026-06-03T12:57:49.531577945Z</time>
      </trkpt>
      <trkpt lat="42.88742" lon="2.20569">
        <ele>294.25</ele>
        <time>2026-06-03T12:57:50.521548986Z</time>
      </trkpt>
      <trkpt lat="42.88745" lon="2.20576">
        <ele>294.61</ele>
        <time>2026-06-03T12:57:51.461778998Z</time>
      </trkpt>
      <trkpt lat="42.88749" lon="2.20582">
        <ele>294.99</ele>
        <time>2026-06-03T12:57:52.472203016Z</time>
      </trkpt>
      <trkpt lat="42.88751" lon="2.20589">
        <ele>295.38</ele>
        <time>2026-06-03T12:57:53.731731057Z</time>
      </trkpt>
      <trkpt lat="42.88754" lon="2.20596">
        <ele>295.7</ele>
        <time>2026-06-03T12:57:54.392753005Z</time>
      </trkpt>
      <trkpt lat="42.88756" lon="2.20603">
        <ele>296.03998</ele>
        <time>2026-06-03T12:57:55.465584040Z</time>
      </trkpt>
      <trkpt lat="42.88759" lon="2.2061">
        <ele>296.4</ele>
        <time>2026-06-03T12:57:56.432621956Z</time>
      </trkpt>
      <trkpt lat="42.88761" lon="2.20617">
        <ele>296.76</ele>
        <time>2026-06-03T12:57:57.812777996Z</time>
      </trkpt>
      <trkpt lat="42.88762" lon="2.20625">
        <ele>297.07</ele>
        <time>2026-06-03T12:57:58.562630057Z</time>
      </trkpt>
      <trkpt lat="42.88764" lon="2.20633">
        <ele>297.39</ele>
        <time>2026-06-03T12:57:59.479460001Z</time>
      </trkpt>
      <trkpt lat="42.88765" lon="2.20639">
        <ele>297.72998</ele>
        <time>2026-06-03T12:58:00.482470036Z</time>
      </trkpt>
      <trkpt lat="42.88765" lon="2.20649">
        <ele>298.08002</ele>
        <time>2026-06-03T12:58:01.412467957Z</time>
      </trkpt>
      <trkpt lat="42.88766" lon="2.20656">
        <ele>298.37</ele>
        <time>2026-06-03T12:58:02.492792964Z</time>
      </trkpt>
      <trkpt lat="42.88767" lon="2.20664">
        <ele>298.69</ele>
        <time>2026-06-03T12:58:03.391149044Z</time>
      </trkpt>
      <trkpt lat="42.88768" lon="2.20671">
        <ele>299.02002</ele>
        <time>2026-06-03T12:58:04.457085013Z</time>
      </trkpt>
      <trkpt lat="42.88769" lon="2.20679">
        <ele>299.47998</ele>
        <time>2026-06-03T12:58:05.492529988Z</time>
      </trkpt>
      <trkpt lat="42.8877" lon="2.20687">
        <ele>299.86</ele>
        <time>2026-06-03T12:58:06.572568059Z</time>
      </trkpt>
      <trkpt lat="42.88771" lon="2.20694">
        <ele>300.26</ele>
        <time>2026-06-03T12:58:07.487393975Z</time>
      </trkpt>
      <trkpt lat="42.88771" lon="2.20699">
        <ele>300.65</ele>
        <time>2026-06-03T12:58:08.612501025Z</time>
      </trkpt>
      <trkpt lat="42.88773" lon="2.2071">
        <ele>301.05</ele>
        <time>2026-06-03T12:58:09.394811988Z</time>
      </trkpt>
      <trkpt lat="42.88774" lon="2.20717">
        <ele>301.39</ele>
        <time>2026-06-03T12:58:10.682559967Z</time>
      </trkpt>
      <trkpt lat="42.88776" lon="2.20723">
        <ele>301.72</ele>
        <time>2026-06-03T12:58:11.491363049Z</time>
      </trkpt>
      <trkpt lat="42.88778" lon="2.2073">
        <ele>302.07</ele>
        <time>2026-06-03T12:58:12.496068001Z</time>
      </trkpt>
      <trkpt lat="42.8878" lon="2.20735">
        <ele>302.44</ele>
        <time>2026-06-03T12:58:13.472673059Z</time>
      </trkpt>
      <trkpt lat="42.88781" lon="2.20742">
        <ele>302.74</ele>
        <time>2026-06-03T12:58:14.492439985Z</time>
      </trkpt>
      <trkpt lat="42.88783" lon="2.20748">
        <ele>303.07</ele>
        <time>2026-06-03T12:58:15.452150941Z</time>
      </trkpt>
      <trkpt lat="42.88785" lon="2.20754">
        <ele>303.43</ele>
        <time>2026-06-03T12:58:16.472640991Z</time>
      </trkpt>
      <trkpt lat="42.88788" lon="2.20761">
        <ele>303.8</ele>
        <time>2026-06-03T12:58:17.492748022Z</time>
      </trkpt>
      <trkpt lat="42.88789" lon="2.20767">
        <ele>304.11</ele>
        <time>2026-06-03T12:58:18.482705951Z</time>
      </trkpt>
      <trkpt lat="42.88791" lon="2.20774">
        <ele>304.45</ele>
        <time>2026-06-03T12:58:19.472682953Z</time>
      </trkpt>
      <trkpt lat="42.88792" lon="2.2078">
        <ele>304.8</ele>
        <time>2026-06-03T12:58:20.491979957Z</time>
      </trkpt>
      <trkpt lat="42.88794" lon="2.20786">
        <ele>305.18</ele>
        <time>2026-06-03T12:58:21.392132998Z</time>
      </trkpt>
      <trkpt lat="42.88796" lon="2.20792">
        <ele>305.59</ele>
        <time>2026-06-03T12:58:22.403820038Z</time>
      </trkpt>
      <trkpt lat="42.88797" lon="2.20799">
        <ele>306.03</ele>
        <time>2026-06-03T12:58:23.406211972Z</time>
      </trkpt>
      <trkpt lat="42.88799" lon="2.20804">
        <ele>306.5</ele>
        <time>2026-06-03T12:58:24.392055035Z</time>
      </trkpt>
      <trkpt lat="42.888" lon="2.2081">
        <ele>306.99</ele>
        <time>2026-06-03T12:58:25.439025044Z</time>
      </trkpt>
      <trkpt lat="42.88801" lon="2.20817">
        <ele>307.49</ele>
        <time>2026-06-03T12:58:26.493688941Z</time>
      </trkpt>
      <trkpt lat="42.88802" lon="2.20824">
        <ele>307.91</ele>
        <time>2026-06-03T12:58:27.392902017Z</time>
      </trkpt>
      <trkpt lat="42.88803" lon="2.2083">
        <ele>308.33002</ele>
        <time>2026-06-03T12:58:28.413336992Z</time>
      </trkpt>
      <trkpt lat="42.88803" lon="2.20836">
        <ele>308.75</ele>
        <time>2026-06-03T12:58:29.493039966Z</time>
      </trkpt>
      <trkpt lat="42.88804" lon="2.20843">
        <ele>309.16998</ele>
        <time>2026-06-03T12:58:30.482458949Z</time>
      </trkpt>
      <trkpt lat="42.88805" lon="2.2085">
        <ele>309.6</ele>
        <time>2026-06-03T12:58:31.472911954Z</time>
      </trkpt>
      <trkpt lat="42.88805" lon="2.20856">
        <ele>310.02002</ele>
        <time>2026-06-03T12:58:32.493005037Z</time>
      </trkpt>
      <trkpt lat="42.88805" lon="2.20862">
        <ele>310.44</ele>
        <time>2026-06-03T12:58:33.447170019Z</time>
      </trkpt>
      <trkpt lat="42.88805" lon="2.20868">
        <ele>310.85</ele>
        <time>2026-06-03T12:58:34.520889044Z</time>
      </trkpt>
      <trkpt lat="42.88805" lon="2.20875">
        <ele>311.27002</ele>
        <time>2026-06-03T12:58:35.584563017Z</time>
      </trkpt>
      <trkpt lat="42.88805" lon="2.20881">
        <ele>311.69</ele>
        <time>2026-06-03T12:58:36.392935991Z</time>
      </trkpt>
      <trkpt lat="42.88804" lon="2.20887">
        <ele>312.12</ele>
        <time>2026-06-03T12:58:37.652891994Z</time>
      </trkpt>
      <trkpt lat="42.88804" lon="2.20894">
        <ele>312.55</ele>
        <time>2026-06-03T12:58:38.493257999Z</time>
      </trkpt>
      <trkpt lat="42.88803" lon="2.209">
        <ele>312.97998</ele>
        <time>2026-06-03T12:58:39.392861009Z</time>
      </trkpt>
      <trkpt lat="42.88803" lon="2.20906">
        <ele>313.41</ele>
        <time>2026-06-03T12:58:40.532871962Z</time>
      </trkpt>
      <trkpt lat="42.88802" lon="2.20912">
        <ele>313.85</ele>
        <time>2026-06-03T12:58:41.493018031Z</time>
      </trkpt>
      <trkpt lat="42.88801" lon="2.20919">
        <ele>314.28998</ele>
        <time>2026-06-03T12:58:42.393298030Z</time>
      </trkpt>
      <trkpt lat="42.888" lon="2.20925">
        <ele>314.65</ele>
        <time>2026-06-03T12:58:43.462772965Z</time>
      </trkpt>
      <trkpt lat="42.888" lon="2.20931">
        <ele>315.02002</ele>
        <time>2026-06-03T12:58:44.465090036Z</time>
      </trkpt>
      <trkpt lat="42.88799" lon="2.20937">
        <ele>315.4</ele>
        <time>2026-06-03T12:58:45.482349038Z</time>
      </trkpt>
      <trkpt lat="42.88799" lon="2.20942">
        <ele>315.78</ele>
        <time>2026-06-03T12:58:46.530928016Z</time>
      </trkpt>
      <trkpt lat="42.88798" lon="2.20948">
        <ele>316.16</ele>
        <time>2026-06-03T12:58:47.492604971Z</time>
      </trkpt>
      <trkpt lat="42.88797" lon="2.20953">
        <ele>316.55</ele>
        <time>2026-06-03T12:58:48.393262982Z</time>
      </trkpt>
      <trkpt lat="42.88796" lon="2.20958">
        <ele>316.94</ele>
        <time>2026-06-03T12:58:49.412421942Z</time>
      </trkpt>
      <trkpt lat="42.88795" lon="2.20964">
        <ele>317.35</ele>
        <time>2026-06-03T12:58:50.492470026Z</time>
      </trkpt>
      <trkpt lat="42.88795" lon="2.20969">
        <ele>317.76</ele>
        <time>2026-06-03T12:58:51.393175006Z</time>
      </trkpt>
      <trkpt lat="42.88794" lon="2.20975">
        <ele>318.16998</ele>
        <time>2026-06-03T12:58:52.413298011Z</time>
      </trkpt>
      <trkpt lat="42.88793" lon="2.20981">
        <ele>318.59</ele>
        <time>2026-06-03T12:58:53.778010964Z</time>
      </trkpt>
      <trkpt lat="42.88792" lon="2.20986">
        <ele>319</ele>
        <time>2026-06-03T12:58:54.392557979Z</time>
      </trkpt>
      <trkpt lat="42.88792" lon="2.20992">
        <ele>319.43</ele>
        <time>2026-06-03T12:58:55.473283052Z</time>
      </trkpt>
      <trkpt lat="42.88791" lon="2.20998">
        <ele>319.86</ele>
        <time>2026-06-03T12:58:56.673235059Z</time>
      </trkpt>
      <trkpt lat="42.88791" lon="2.21004">
        <ele>320.28998</ele>
        <time>2026-06-03T12:58:57.393532038Z</time>
      </trkpt>
      <trkpt lat="42.8879" lon="2.2101">
        <ele>320.65</ele>
        <time>2026-06-03T12:58:58.713430047Z</time>
      </trkpt>
      <trkpt lat="42.88789" lon="2.21015">
        <ele>321.03</ele>
        <time>2026-06-03T12:58:59.552669048Z</time>
      </trkpt>
      <trkpt lat="42.88789" lon="2.2102">
        <ele>321.41998</ele>
        <time>2026-06-03T12:59:00.452501059Z</time>
      </trkpt>
      <trkpt lat="42.88788" lon="2.21026">
        <ele>321.81</ele>
        <time>2026-06-03T12:59:01.413684011Z</time>
      </trkpt>
      <trkpt lat="42.88787" lon="2.2103">
        <ele>322.2</ele>
        <time>2026-06-03T12:59:02.373553038Z</time>
      </trkpt>
      <trkpt lat="42.88787" lon="2.21035">
        <ele>322.58002</ele>
        <time>2026-06-03T12:59:03.633581996Z</time>
      </trkpt>
      <trkpt lat="42.88787" lon="2.21039">
        <ele>322.95</ele>
        <time>2026-06-03T12:59:04.413701057Z</time>
      </trkpt>
      <trkpt lat="42.88786" lon="2.21045">
        <ele>323.16</ele>
        <time>2026-06-03T12:59:05.548995018Z</time>
      </trkpt>
      <trkpt lat="42.88786" lon="2.2105">
        <ele>323.38</ele>
        <time>2026-06-03T12:59:06.453125954Z</time>
      </trkpt>
      <trkpt lat="42.88785" lon="2.21054">
        <ele>323.61</ele>
        <time>2026-06-03T12:59:07.653457046Z</time>
      </trkpt>
      <trkpt lat="42.88785" lon="2.21059">
        <ele>323.86</ele>
        <time>2026-06-03T12:59:08.494055986Z</time>
      </trkpt>
      <trkpt lat="42.88784" lon="2.21064">
        <ele>324.11</ele>
        <time>2026-06-03T12:59:09.393054962Z</time>
      </trkpt>
      <trkpt lat="42.88784" lon="2.21069">
        <ele>324.37</ele>
        <time>2026-06-03T12:59:10.473981977Z</time>
      </trkpt>
      <trkpt lat="42.88784" lon="2.21073">
        <ele>324.64</ele>
        <time>2026-06-03T12:59:11.403028965Z</time>
      </trkpt>
      <trkpt lat="42.88783" lon="2.21077">
        <ele>324.91998</ele>
        <time>2026-06-03T12:59:12.573953032Z</time>
      </trkpt>
      <trkpt lat="42.88782" lon="2.2108">
        <ele>325.16</ele>
        <time>2026-06-03T12:59:13.474663973Z</time>
      </trkpt>
      <trkpt lat="42.88781" lon="2.21084">
        <ele>325.41</ele>
        <time>2026-06-03T12:59:14.494021058Z</time>
      </trkpt>
      <trkpt lat="42.8878" lon="2.21087">
        <ele>325.66</ele>
        <time>2026-06-03T12:59:15.453945041Z</time>
      </trkpt>
      <trkpt lat="42.8878" lon="2.21089">
        <ele>325.91</ele>
        <time>2026-06-03T12:59:16.473508Z</time>
      </trkpt>
      <trkpt lat="42.8878" lon="2.21092">
        <ele>326.16</ele>
        <time>2026-06-03T12:59:17.493587971Z</time>
      </trkpt>
      <trkpt lat="42.8878" lon="2.21095">
        <ele>326.39</ele>
        <time>2026-06-03T12:59:18.393851042Z</time>
      </trkpt>
      <trkpt lat="42.88779" lon="2.21098">
        <ele>326.61</ele>
        <time>2026-06-03T12:59:19.467442989Z</time>
      </trkpt>
      <trkpt lat="42.88779" lon="2.21101">
        <ele>326.8</ele>
        <time>2026-06-03T12:59:20.380684972Z</time>
      </trkpt>
      <trkpt lat="42.88779" lon="2.21105">
        <ele>326.96002</ele>
        <time>2026-06-03T12:59:21.454924941Z</time>
      </trkpt>
      <trkpt lat="42.88779" lon="2.2111">
        <ele>327.47</ele>
        <time>2026-06-03T12:59:45.453150988Z</time>
      </trkpt>
      <trkpt lat="42.88779" lon="2.21112">
        <ele>327.47</ele>
        <time>2026-06-03T12:59:46.473281026Z</time>
      </trkpt>
      <trkpt lat="42.88779" lon="2.21115">
        <ele>327.6</ele>
        <time>2026-06-03T12:59:47.493489981Z</time>
      </trkpt>
      <trkpt lat="42.88779" lon="2.21118">
        <ele>327.64</ele>
        <time>2026-06-03T12:59:48.393565059Z</time>
      </trkpt>
      <trkpt lat="42.88779" lon="2.21122">
        <ele>327.66998</ele>
        <time>2026-06-03T12:59:49.653381944Z</time>
      </trkpt>
      <trkpt lat="42.88779" lon="2.21125">
        <ele>327.69</ele>
        <time>2026-06-03T12:59:50.575726032Z</time>
      </trkpt>
      <trkpt lat="42.88778" lon="2.2113">
        <ele>327.71002</ele>
        <time>2026-06-03T12:59:51.639392018Z</time>
      </trkpt>
      <trkpt lat="42.88777" lon="2.21135">
        <ele>327.72</ele>
        <time>2026-06-03T12:59:52.713052034Z</time>
      </trkpt>
      <trkpt lat="42.88776" lon="2.21141">
        <ele>327.72</ele>
        <time>2026-06-03T12:59:53.434492946Z</time>
      </trkpt>
      <trkpt lat="42.88775" lon="2.2115">
        <ele>327.7</ele>
        <time>2026-06-03T12:59:54.754187942Z</time>
      </trkpt>
      <trkpt lat="42.88775" lon="2.21157">
        <ele>327.66</ele>
        <time>2026-06-03T12:59:55.774837971Z</time>
      </trkpt>
      <trkpt lat="42.88775" lon="2.21165">
        <ele>327.6</ele>
        <time>2026-06-03T12:59:56.404391050Z</time>
      </trkpt>
      <trkpt lat="42.88776" lon="2.21175">
        <ele>327.49</ele>
        <time>2026-06-03T12:59:57.453933954Z</time>
      </trkpt>
      <trkpt lat="42.88776" lon="2.21185">
        <ele>327.4</ele>
        <time>2026-06-03T12:59:58.414240003Z</time>
      </trkpt>
      <trkpt lat="42.88776" lon="2.21196">
        <ele>327.25</ele>
        <time>2026-06-03T12:59:59.613695025Z</time>
      </trkpt>
      <trkpt lat="42.88775" lon="2.21205">
        <ele>327.03</ele>
        <time>2026-06-03T13:00:00.455713034Z</time>
      </trkpt>
      <trkpt lat="42.88774" lon="2.21214">
        <ele>326.76</ele>
        <time>2026-06-03T13:00:01.421913981Z</time>
      </trkpt>
      <trkpt lat="42.88773" lon="2.21225">
        <ele>326.46002</ele>
        <time>2026-06-03T13:00:02.494354010Z</time>
      </trkpt>
      <trkpt lat="42.88773" lon="2.21235">
        <ele>326.1</ele>
        <time>2026-06-03T13:00:03.420562983Z</time>
      </trkpt>
      <trkpt lat="42.88772" lon="2.21237">
        <ele>325.74</ele>
        <time>2026-06-03T13:00:04.484266996Z</time>
      </trkpt>
      <trkpt lat="42.88771" lon="2.21243">
        <ele>325.41</ele>
        <time>2026-06-03T13:00:05.557947993Z</time>
      </trkpt>
      <trkpt lat="42.88765" lon="2.21264">
        <ele>325.08002</ele>
        <time>2026-06-03T13:00:06.393708944Z</time>
      </trkpt>
      <trkpt lat="42.88761" lon="2.21274">
        <ele>324.76</ele>
        <time>2026-06-03T13:00:07.437541962Z</time>
      </trkpt>
      <trkpt lat="42.88757" lon="2.21283">
        <ele>324.46002</ele>
        <time>2026-06-03T13:00:08.766608953Z</time>
      </trkpt>
      <trkpt lat="42.88757" lon="2.21285">
        <ele>324.2</ele>
        <time>2026-06-03T13:00:09.454825044Z</time>
      </trkpt>
      <trkpt lat="42.8875" lon="2.213">
        <ele>323.93</ele>
        <time>2026-06-03T13:00:10.435750008Z</time>
      </trkpt>
      <trkpt lat="42.88747" lon="2.2131">
        <ele>323.64</ele>
        <time>2026-06-03T13:00:11.734750032Z</time>
      </trkpt>
      <trkpt lat="42.88744" lon="2.21317">
        <ele>323.35</ele>
        <time>2026-06-03T13:00:12.754958987Z</time>
      </trkpt>
      <trkpt lat="42.88742" lon="2.21331">
        <ele>323.11</ele>
        <time>2026-06-03T13:00:13.444947004Z</time>
      </trkpt>
      <trkpt lat="42.88741" lon="2.21343">
        <ele>322.84</ele>
        <time>2026-06-03T13:00:14.435207009Z</time>
      </trkpt>
      <trkpt lat="42.8874" lon="2.21355">
        <ele>322.55</ele>
        <time>2026-06-03T13:00:15.463850021Z</time>
      </trkpt>
      <trkpt lat="42.88738" lon="2.21368">
        <ele>322.24</ele>
        <time>2026-06-03T13:00:16.776173949Z</time>
      </trkpt>
      <trkpt lat="42.88737" lon="2.21381">
        <ele>321.99</ele>
        <time>2026-06-03T13:00:17.735033989Z</time>
      </trkpt>
      <trkpt lat="42.88736" lon="2.21394">
        <ele>321.66</ele>
        <time>2026-06-03T13:00:18.454445004Z</time>
      </trkpt>
      <trkpt lat="42.88735" lon="2.21409">
        <ele>321.22998</ele>
        <time>2026-06-03T13:00:19.774570942Z</time>
      </trkpt>
      <trkpt lat="42.88734" lon="2.21423">
        <ele>320.71002</ele>
        <time>2026-06-03T13:00:20.434967041Z</time>
      </trkpt>
      <trkpt lat="42.88733" lon="2.21438">
        <ele>320.27002</ele>
        <time>2026-06-03T13:00:21.456217051Z</time>
      </trkpt>
      <trkpt lat="42.88732" lon="2.21453">
        <ele>319.74</ele>
        <time>2026-06-03T13:00:22.415205956Z</time>
      </trkpt>
      <trkpt lat="42.88731" lon="2.21461">
        <ele>319.12</ele>
        <time>2026-06-03T13:00:23.407608032Z</time>
      </trkpt>
      <trkpt lat="42.88729" lon="2.21476">
        <ele>318.31</ele>
        <time>2026-06-03T13:00:24.456241965Z</time>
      </trkpt>
      <trkpt lat="42.88728" lon="2.21494">
        <ele>317.63</ele>
        <time>2026-06-03T13:00:25.804641962Z</time>
      </trkpt>
      <trkpt lat="42.88726" lon="2.21506">
        <ele>316.93</ele>
        <time>2026-06-03T13:00:26.435081959Z</time>
      </trkpt>
      <trkpt lat="42.88725" lon="2.21518">
        <ele>316.31</ele>
        <time>2026-06-03T13:00:27.456308961Z</time>
      </trkpt>
      <trkpt lat="42.88723" lon="2.21529">
        <ele>315.66998</ele>
        <time>2026-06-03T13:00:28.414896965Z</time>
      </trkpt>
      <trkpt lat="42.88722" lon="2.21541">
        <ele>315.15</ele>
        <time>2026-06-03T13:00:29.434254050Z</time>
      </trkpt>
      <trkpt lat="42.88721" lon="2.21552">
        <ele>314.69</ele>
        <time>2026-06-03T13:00:30.465805054Z</time>
      </trkpt>
      <trkpt lat="42.88721" lon="2.21562">
        <ele>314.3</ele>
        <time>2026-06-03T13:00:31.417047977Z</time>
      </trkpt>
      <trkpt lat="42.8872" lon="2.21572">
        <ele>313.97998</ele>
        <time>2026-06-03T13:00:32.794726014Z</time>
      </trkpt>
      <trkpt lat="42.88719" lon="2.2158">
        <ele>313.72</ele>
        <time>2026-06-03T13:00:33.456413984Z</time>
      </trkpt>
      <trkpt lat="42.88718" lon="2.21589">
        <ele>313.52002</ele>
        <time>2026-06-03T13:00:34.449921012Z</time>
      </trkpt>
      <trkpt lat="42.88717" lon="2.21598">
        <ele>313.41</ele>
        <time>2026-06-03T13:00:35.435248017Z</time>
      </trkpt>
      <trkpt lat="42.88717" lon="2.21605">
        <ele>313.36</ele>
        <time>2026-06-03T13:00:36.456050038Z</time>
      </trkpt>
      <trkpt lat="42.88716" lon="2.21612">
        <ele>313.31</ele>
        <time>2026-06-03T13:00:37.415050030Z</time>
      </trkpt>
      <trkpt lat="42.88715" lon="2.21618">
        <ele>313.31</ele>
        <time>2026-06-03T13:00:38.435248017Z</time>
      </trkpt>
      <trkpt lat="42.88714" lon="2.21624">
        <ele>313.33002</ele>
        <time>2026-06-03T13:00:39.456411958Z</time>
      </trkpt>
      <trkpt lat="42.88713" lon="2.2163">
        <ele>313.37</ele>
        <time>2026-06-03T13:00:40.446076035Z</time>
      </trkpt>
      <trkpt lat="42.88713" lon="2.21636">
        <ele>313.4</ele>
        <time>2026-06-03T13:00:41.435248017Z</time>
      </trkpt>
      <trkpt lat="42.88713" lon="2.21641">
        <ele>313.44</ele>
        <time>2026-06-03T13:00:42.456354022Z</time>
      </trkpt>
      <trkpt lat="42.88712" lon="2.21647">
        <ele>313.5</ele>
        <time>2026-06-03T13:00:43.566943049Z</time>
      </trkpt>
      <trkpt lat="42.88712" lon="2.21653">
        <ele>313.56</ele>
        <time>2026-06-03T13:00:44.435374022Z</time>
      </trkpt>
      <trkpt lat="42.88711" lon="2.21658">
        <ele>313.62</ele>
        <time>2026-06-03T13:00:45.694836020Z</time>
      </trkpt>
      <trkpt lat="42.8871" lon="2.21664">
        <ele>313.7</ele>
        <time>2026-06-03T13:00:46.444841027Z</time>
      </trkpt>
      <trkpt lat="42.8871" lon="2.2167">
        <ele>313.78998</ele>
        <time>2026-06-03T13:00:47.735280037Z</time>
      </trkpt>
      <trkpt lat="42.8871" lon="2.21676">
        <ele>313.88</ele>
        <time>2026-06-03T13:00:48.455139041Z</time>
      </trkpt>
      <trkpt lat="42.8871" lon="2.21682">
        <ele>313.97</ele>
        <time>2026-06-03T13:00:49.413903952Z</time>
      </trkpt>
      <trkpt lat="42.8871" lon="2.21688">
        <ele>314.06</ele>
        <time>2026-06-03T13:00:50.495684981Z</time>
      </trkpt>
      <trkpt lat="42.88709" lon="2.21693">
        <ele>314.13</ele>
        <time>2026-06-03T13:00:51.454784989Z</time>
      </trkpt>
      <trkpt lat="42.88709" lon="2.21698">
        <ele>314.19</ele>
        <time>2026-06-03T13:00:52.655042052Z</time>
      </trkpt>
      <trkpt lat="42.88709" lon="2.21703">
        <ele>314.24</ele>
        <time>2026-06-03T13:00:53.413346052Z</time>
      </trkpt>
      <trkpt lat="42.88709" lon="2.21708">
        <ele>314.28</ele>
        <time>2026-06-03T13:00:54.509709954Z</time>
      </trkpt>
      <trkpt lat="42.88709" lon="2.21713">
        <ele>314.31</ele>
        <time>2026-06-03T13:00:55.444777966Z</time>
      </trkpt>
      <trkpt lat="42.88708" lon="2.21718">
        <ele>314.35</ele>
        <time>2026-06-03T13:00:56.557561040Z</time>
      </trkpt>
      <trkpt lat="42.88708" lon="2.21723">
        <ele>314.38</ele>
        <time>2026-06-03T13:00:57.455291986Z</time>
      </trkpt>
      <trkpt lat="42.88709" lon="2.21727">
        <ele>314.44</ele>
        <time>2026-06-03T13:00:58.444419026Z</time>
      </trkpt>
      <trkpt lat="42.88709" lon="2.21732">
        <ele>314.53998</ele>
        <time>2026-06-03T13:00:59.435711026Z</time>
      </trkpt>
      <trkpt lat="42.8871" lon="2.21737">
        <ele>314.68</ele>
        <time>2026-06-03T13:01:00.456622005Z</time>
      </trkpt>
      <trkpt lat="42.8871" lon="2.21742">
        <ele>314.82</ele>
        <time>2026-06-03T13:01:01.415380001Z</time>
      </trkpt>
      <trkpt lat="42.8871" lon="2.21747">
        <ele>315.02002</ele>
        <time>2026-06-03T13:01:02.405809999Z</time>
      </trkpt>
      <trkpt lat="42.88711" lon="2.21752">
        <ele>315.31</ele>
        <time>2026-06-03T13:01:03.454079032Z</time>
      </trkpt>
      <trkpt lat="42.88711" lon="2.21757">
        <ele>315.71002</ele>
        <time>2026-06-03T13:01:04.384631038Z</time>
      </trkpt>
      <trkpt lat="42.88712" lon="2.21761">
        <ele>316.06</ele>
        <time>2026-06-03T13:01:05.418110967Z</time>
      </trkpt>
      <trkpt lat="42.88712" lon="2.21766">
        <ele>316.53998</ele>
        <time>2026-06-03T13:01:06.442911983Z</time>
      </trkpt>
      <trkpt lat="42.88713" lon="2.21771">
        <ele>317.11</ele>
        <time>2026-06-03T13:01:07.443048954Z</time>
      </trkpt>
      <trkpt lat="42.88714" lon="2.21775">
        <ele>317.76</ele>
        <time>2026-06-03T13:01:08.460783958Z</time>
      </trkpt>
      <trkpt lat="42.88715" lon="2.2178">
        <ele>318.46002</ele>
        <time>2026-06-03T13:01:09.508471012Z</time>
      </trkpt>
      <trkpt lat="42.88715" lon="2.21785">
        <ele>319.15</ele>
        <time>2026-06-03T13:01:10.445368052Z</time>
      </trkpt>
      <trkpt lat="42.88715" lon="2.2179">
        <ele>319.8</ele>
        <time>2026-06-03T13:01:11.435881972Z</time>
      </trkpt>
      <trkpt lat="42.88716" lon="2.21794">
        <ele>320.41</ele>
        <time>2026-06-03T13:01:12.457020998Z</time>
      </trkpt>
      <trkpt lat="42.88717" lon="2.21799">
        <ele>320.96002</ele>
        <time>2026-06-03T13:01:13.445399046Z</time>
      </trkpt>
      <trkpt lat="42.88717" lon="2.21804">
        <ele>321.44</ele>
        <time>2026-06-03T13:01:14.496039033Z</time>
      </trkpt>
      <trkpt lat="42.88718" lon="2.21809">
        <ele>321.86</ele>
        <time>2026-06-03T13:01:15.456966043Z</time>
      </trkpt>
      <trkpt lat="42.88718" lon="2.21813">
        <ele>322.25</ele>
        <time>2026-06-03T13:01:16.445780039Z</time>
      </trkpt>
      <trkpt lat="42.88719" lon="2.21818">
        <ele>322.6</ele>
        <time>2026-06-03T13:01:17.556012988Z</time>
      </trkpt>
      <trkpt lat="42.8872" lon="2.21824">
        <ele>322.93</ele>
        <time>2026-06-03T13:01:18.457038999Z</time>
      </trkpt>
      <trkpt lat="42.8872" lon="2.21829">
        <ele>323.2</ele>
        <time>2026-06-03T13:01:19.415572047Z</time>
      </trkpt>
      <trkpt lat="42.88721" lon="2.21834">
        <ele>323.46002</ele>
        <time>2026-06-03T13:01:20.495715022Z</time>
      </trkpt>
      <trkpt lat="42.88721" lon="2.21838">
        <ele>323.71002</ele>
        <time>2026-06-03T13:01:21.395195961Z</time>
      </trkpt>
      <trkpt lat="42.88722" lon="2.21844">
        <ele>323.96002</ele>
        <time>2026-06-03T13:01:22.483602047Z</time>
      </trkpt>
      <trkpt lat="42.88723" lon="2.21849">
        <ele>324.19</ele>
        <time>2026-06-03T13:01:23.435999036Z</time>
      </trkpt>
      <trkpt lat="42.88723" lon="2.21853">
        <ele>324.5</ele>
        <time>2026-06-03T13:01:24.412266970Z</time>
      </trkpt>
      <trkpt lat="42.88723" lon="2.21858">
        <ele>324.8</ele>
        <time>2026-06-03T13:01:25.446522951Z</time>
      </trkpt>
      <trkpt lat="42.88723" lon="2.21862">
        <ele>325.09</ele>
        <time>2026-06-03T13:01:26.495463014Z</time>
      </trkpt>
      <trkpt lat="42.88722" lon="2.21867">
        <ele>325.36</ele>
        <time>2026-06-03T13:01:27.455788016Z</time>
      </trkpt>
      <trkpt lat="42.88721" lon="2.2187">
        <ele>325.63</ele>
        <time>2026-06-03T13:01:28.414952040Z</time>
      </trkpt>
      <trkpt lat="42.8872" lon="2.21875">
        <ele>325.89</ele>
        <time>2026-06-03T13:01:29.404834986Z</time>
      </trkpt>
      <trkpt lat="42.8872" lon="2.2188">
        <ele>326.13</ele>
        <time>2026-06-03T13:01:30.456002951Z</time>
      </trkpt>
      <trkpt lat="42.88719" lon="2.21884">
        <ele>326.37</ele>
        <time>2026-06-03T13:01:31.445302963Z</time>
      </trkpt>
      <trkpt lat="42.88718" lon="2.21889">
        <ele>326.59</ele>
        <time>2026-06-03T13:01:32.381942987Z</time>
      </trkpt>
      <trkpt lat="42.88718" lon="2.21893">
        <ele>326.78998</ele>
        <time>2026-06-03T13:01:33.456959963Z</time>
      </trkpt>
      <trkpt lat="42.88717" lon="2.21898">
        <ele>326.99</ele>
        <time>2026-06-03T13:01:34.445582986Z</time>
      </trkpt>
      <trkpt lat="42.88717" lon="2.21903">
        <ele>327.15</ele>
        <time>2026-06-03T13:01:35.435403943Z</time>
      </trkpt>
      <trkpt lat="42.88716" lon="2.21908">
        <ele>327.3</ele>
        <time>2026-06-03T13:01:36.456254005Z</time>
      </trkpt>
      <trkpt lat="42.88716" lon="2.21913">
        <ele>327.44</ele>
        <time>2026-06-03T13:01:37.444898963Z</time>
      </trkpt>
      <trkpt lat="42.88715" lon="2.21917">
        <ele>327.58002</ele>
        <time>2026-06-03T13:01:38.496448040Z</time>
      </trkpt>
      <trkpt lat="42.88715" lon="2.21922">
        <ele>327.7</ele>
        <time>2026-06-03T13:01:39.455975056Z</time>
      </trkpt>
      <trkpt lat="42.88714" lon="2.21926">
        <ele>327.82</ele>
        <time>2026-06-03T13:01:40.423601985Z</time>
      </trkpt>
      <trkpt lat="42.88713" lon="2.21932">
        <ele>327.93</ele>
        <time>2026-06-03T13:01:41.404711962Z</time>
      </trkpt>
      <trkpt lat="42.88713" lon="2.21937">
        <ele>328.05</ele>
        <time>2026-06-03T13:01:42.455620050Z</time>
      </trkpt>
      <trkpt lat="42.88712" lon="2.21942">
        <ele>328.16</ele>
        <time>2026-06-03T13:01:43.450688958Z</time>
      </trkpt>
      <trkpt lat="42.88712" lon="2.21947">
        <ele>328.28</ele>
        <time>2026-06-03T13:01:44.495054960Z</time>
      </trkpt>
      <trkpt lat="42.88711" lon="2.21952">
        <ele>328.39</ele>
        <time>2026-06-03T13:01:45.455098033Z</time>
      </trkpt>
      <trkpt lat="42.8871" lon="2.21957">
        <ele>328.49</ele>
        <time>2026-06-03T13:01:46.421370029Z</time>
      </trkpt>
      <trkpt lat="42.8871" lon="2.21962">
        <ele>328.59</ele>
        <time>2026-06-03T13:01:47.496369958Z</time>
      </trkpt>
      <trkpt lat="42.88709" lon="2.21967">
        <ele>328.69</ele>
        <time>2026-06-03T13:01:48.457726955Z</time>
      </trkpt>
      <trkpt lat="42.88708" lon="2.21972">
        <ele>328.77002</ele>
        <time>2026-06-03T13:01:49.456820965Z</time>
      </trkpt>
      <trkpt lat="42.88707" lon="2.21977">
        <ele>328.85</ele>
        <time>2026-06-03T13:01:50.435742974Z</time>
      </trkpt>
      <trkpt lat="42.88707" lon="2.21983">
        <ele>328.91998</ele>
        <time>2026-06-03T13:01:51.456230998Z</time>
      </trkpt>
      <trkpt lat="42.88706" lon="2.21988">
        <ele>328.99</ele>
        <time>2026-06-03T13:01:52.595209002Z</time>
      </trkpt>
      <trkpt lat="42.88706" lon="2.21992">
        <ele>329.06</ele>
        <time>2026-06-03T13:01:53.556642056Z</time>
      </trkpt>
      <trkpt lat="42.88705" lon="2.21997">
        <ele>329.14</ele>
        <time>2026-06-03T13:01:54.456171989Z</time>
      </trkpt>
      <trkpt lat="42.88704" lon="2.22003">
        <ele>329.22</ele>
        <time>2026-06-03T13:01:55.424000025Z</time>
      </trkpt>
      <trkpt lat="42.88704" lon="2.22007">
        <ele>329.31</ele>
        <time>2026-06-03T13:01:56.435711026Z</time>
      </trkpt>
      <trkpt lat="42.88704" lon="2.22012">
        <ele>329.41</ele>
        <time>2026-06-03T13:01:57.456586003Z</time>
      </trkpt>
      <trkpt lat="42.88703" lon="2.22017">
        <ele>329.5</ele>
        <time>2026-06-03T13:01:58.476204038Z</time>
      </trkpt>
      <trkpt lat="42.88703" lon="2.22021">
        <ele>329.6</ele>
        <time>2026-06-03T13:01:59.496490955Z</time>
      </trkpt>
      <trkpt lat="42.88702" lon="2.22026">
        <ele>329.71002</ele>
        <time>2026-06-03T13:02:00.457399011Z</time>
      </trkpt>
      <trkpt lat="42.88701" lon="2.2203">
        <ele>329.82</ele>
        <time>2026-06-03T13:02:01.536579967Z</time>
      </trkpt>
      <trkpt lat="42.88701" lon="2.22035">
        <ele>329.93</ele>
        <time>2026-06-03T13:02:02.436696053Z</time>
      </trkpt>
      <trkpt lat="42.887" lon="2.22039">
        <ele>330.05</ele>
        <time>2026-06-03T13:02:03.457502007Z</time>
      </trkpt>
      <trkpt lat="42.887" lon="2.22044">
        <ele>330.16</ele>
        <time>2026-06-03T13:02:04.475419044Z</time>
      </trkpt>
      <trkpt lat="42.88699" lon="2.22048">
        <ele>330.25</ele>
        <time>2026-06-03T13:02:05.496062040Z</time>
      </trkpt>
      <trkpt lat="42.88698" lon="2.22052">
        <ele>330.34</ele>
        <time>2026-06-03T13:02:06.455212951Z</time>
      </trkpt>
      <trkpt lat="42.88697" lon="2.22058">
        <ele>330.41</ele>
        <time>2026-06-03T13:02:07.536046982Z</time>
      </trkpt>
      <trkpt lat="42.88697" lon="2.22063">
        <ele>330.46002</ele>
        <time>2026-06-03T13:02:08.495901942Z</time>
      </trkpt>
      <trkpt lat="42.88696" lon="2.22069">
        <ele>330.5</ele>
        <time>2026-06-03T13:02:09.456055999Z</time>
      </trkpt>
      <trkpt lat="42.88695" lon="2.22074">
        <ele>330.51</ele>
        <time>2026-06-03T13:02:10.443829060Z</time>
      </trkpt>
      <trkpt lat="42.88694" lon="2.22078">
        <ele>330.49</ele>
        <time>2026-06-03T13:02:11.496624947Z</time>
      </trkpt>
      <trkpt lat="42.88693" lon="2.22082">
        <ele>330.43</ele>
        <time>2026-06-03T13:02:12.458081007Z</time>
      </trkpt>
      <trkpt lat="42.88691" lon="2.22086">
        <ele>330.34</ele>
        <time>2026-06-03T13:02:13.447024941Z</time>
      </trkpt>
      <trkpt lat="42.8869" lon="2.22092">
        <ele>330.21002</ele>
        <time>2026-06-03T13:02:14.526407957Z</time>
      </trkpt>
      <trkpt lat="42.88689" lon="2.22094">
        <ele>330</ele>
        <time>2026-06-03T13:02:15.458070040Z</time>
      </trkpt>
      <trkpt lat="42.88686" lon="2.22105">
        <ele>329.76</ele>
        <time>2026-06-03T13:02:16.446897984Z</time>
      </trkpt>
      <trkpt lat="42.88683" lon="2.22112">
        <ele>329.47</ele>
        <time>2026-06-03T13:02:17.496405005Z</time>
      </trkpt>
      <trkpt lat="42.88681" lon="2.22119">
        <ele>329.12</ele>
        <time>2026-06-03T13:02:18.456982017Z</time>
      </trkpt>
      <trkpt lat="42.88679" lon="2.22127">
        <ele>328.74</ele>
        <time>2026-06-03T13:02:19.476436019Z</time>
      </trkpt>
      <trkpt lat="42.88677" lon="2.22137">
        <ele>328.41</ele>
        <time>2026-06-03T13:02:20.496991038Z</time>
      </trkpt>
      <trkpt lat="42.88677" lon="2.22146">
        <ele>328.06</ele>
        <time>2026-06-03T13:02:21.458032966Z</time>
      </trkpt>
      <trkpt lat="42.88677" lon="2.22154">
        <ele>327.65</ele>
        <time>2026-06-03T13:02:22.450886965Z</time>
      </trkpt>
      <trkpt lat="42.88676" lon="2.22155">
        <ele>327.26</ele>
        <time>2026-06-03T13:02:23.437018991Z</time>
      </trkpt>
      <trkpt lat="42.88676" lon="2.22156">
        <ele>327.26</ele>
        <time>2026-06-03T13:02:24.486088037Z</time>
      </trkpt>
      <trkpt lat="42.88676" lon="2.22166">
        <ele>327.26</ele>
        <time>2026-06-03T13:02:25.475901008Z</time>
      </trkpt>
      <trkpt lat="42.88675" lon="2.22173">
        <ele>325.77002</ele>
        <time>2026-06-03T13:02:26.496435046Z</time>
      </trkpt>
      <trkpt lat="42.88675" lon="2.2218">
        <ele>325.41998</ele>
        <time>2026-06-03T13:02:27.456683993Z</time>
      </trkpt>
      <trkpt lat="42.88673" lon="2.22192">
        <ele>325.13</ele>
        <time>2026-06-03T13:02:28.449867010Z</time>
      </trkpt>
      <trkpt lat="42.88672" lon="2.22197">
        <ele>324.91</ele>
        <time>2026-06-03T13:02:29.496610999Z</time>
      </trkpt>
      <trkpt lat="42.88671" lon="2.22201">
        <ele>324.74</ele>
        <time>2026-06-03T13:02:30.486652970Z</time>
      </trkpt>
      <trkpt lat="42.88671" lon="2.22202">
        <ele>324.61</ele>
        <time>2026-06-03T13:02:31.448418021Z</time>
      </trkpt>
      <trkpt lat="42.8867" lon="2.22208">
        <ele>324.5</ele>
        <time>2026-06-03T13:02:32.386258960Z</time>
      </trkpt>
      <trkpt lat="42.88669" lon="2.22213">
        <ele>324.45</ele>
        <time>2026-06-03T13:02:33.397613049Z</time>
      </trkpt>
      <trkpt lat="42.88667" lon="2.22219">
        <ele>324.44</ele>
        <time>2026-06-03T13:02:34.476886034Z</time>
      </trkpt>
      <trkpt lat="42.88665" lon="2.22223">
        <ele>324.44</ele>
        <time>2026-06-03T13:02:35.497045040Z</time>
      </trkpt>
      <trkpt lat="42.88663" lon="2.22228">
        <ele>324.46002</ele>
        <time>2026-06-03T13:02:36.458667994Z</time>
      </trkpt>
      <trkpt lat="42.88662" lon="2.22232">
        <ele>324.52002</ele>
        <time>2026-06-03T13:02:37.418872952Z</time>
      </trkpt>
      <trkpt lat="42.88662" lon="2.22237">
        <ele>324.6</ele>
        <time>2026-06-03T13:02:38.407206059Z</time>
      </trkpt>
      <trkpt lat="42.8866" lon="2.22242">
        <ele>324.69</ele>
        <time>2026-06-03T13:02:39.457211018Z</time>
      </trkpt>
      <trkpt lat="42.88659" lon="2.22247">
        <ele>324.78</ele>
        <time>2026-06-03T13:02:40.477177978Z</time>
      </trkpt>
      <trkpt lat="42.88658" lon="2.22252">
        <ele>324.88</ele>
        <time>2026-06-03T13:02:41.482628942Z</time>
      </trkpt>
      <trkpt lat="42.88657" lon="2.22256">
        <ele>324.97</ele>
        <time>2026-06-03T13:02:42.457247972Z</time>
      </trkpt>
      <trkpt lat="42.88655" lon="2.22261">
        <ele>325.06</ele>
        <time>2026-06-03T13:02:43.450883985Z</time>
      </trkpt>
      <trkpt lat="42.88655" lon="2.22266">
        <ele>325.13</ele>
        <time>2026-06-03T13:02:44.497282028Z</time>
      </trkpt>
      <trkpt lat="42.88654" lon="2.2227">
        <ele>325.19</ele>
        <time>2026-06-03T13:02:45.486883044Z</time>
      </trkpt>
      <trkpt lat="42.88654" lon="2.22276">
        <ele>325.24</ele>
        <time>2026-06-03T13:02:46.477241993Z</time>
      </trkpt>
      <trkpt lat="42.88654" lon="2.22281">
        <ele>325.28998</ele>
        <time>2026-06-03T13:02:47.497022033Z</time>
      </trkpt>
      <trkpt lat="42.88654" lon="2.22286">
        <ele>325.31</ele>
        <time>2026-06-03T13:02:48.486951947Z</time>
      </trkpt>
      <trkpt lat="42.88654" lon="2.22291">
        <ele>325.3</ele>
        <time>2026-06-03T13:02:49.476286054Z</time>
      </trkpt>
      <trkpt lat="42.88654" lon="2.22294">
        <ele>325.28998</ele>
        <time>2026-06-03T13:02:50.497315049Z</time>
      </trkpt>
      <trkpt lat="42.88654" lon="2.22299">
        <ele>325.24</ele>
        <time>2026-06-03T13:02:51.457154036Z</time>
      </trkpt>
      <trkpt lat="42.88654" lon="2.22306">
        <ele>325.14</ele>
        <time>2026-06-03T13:02:52.569154024Z</time>
      </trkpt>
      <trkpt lat="42.88652" lon="2.22312">
        <ele>324.97998</ele>
        <time>2026-06-03T13:02:53.497001052Z</time>
      </trkpt>
      <trkpt lat="42.8865" lon="2.22316">
        <ele>324.77002</ele>
        <time>2026-06-03T13:02:54.397084951Z</time>
      </trkpt>
      <trkpt lat="42.88647" lon="2.2232">
        <ele>324.53</ele>
        <time>2026-06-03T13:02:55.477295041Z</time>
      </trkpt>
      <trkpt lat="42.88646" lon="2.22323">
        <ele>324.27002</ele>
        <time>2026-06-03T13:02:56.475386977Z</time>
      </trkpt>
      <trkpt lat="42.88646" lon="2.22324">
        <ele>324.03</ele>
        <time>2026-06-03T13:02:57.458737969Z</time>
      </trkpt>
      <trkpt lat="42.88644" lon="2.22328">
        <ele>323.83002</ele>
        <time>2026-06-03T13:02:58.477193952Z</time>
      </trkpt>
      <trkpt lat="42.88643" lon="2.22331">
        <ele>323.65</ele>
        <time>2026-06-03T13:02:59.497035027Z</time>
      </trkpt>
      <trkpt lat="42.88643" lon="2.22334">
        <ele>323.53</ele>
        <time>2026-06-03T13:03:00.457357049Z</time>
      </trkpt>
      <trkpt lat="42.88644" lon="2.22337">
        <ele>323.45</ele>
        <time>2026-06-03T13:03:01.417382002Z</time>
      </trkpt>
      <trkpt lat="42.88644" lon="2.2234">
        <ele>323.43</ele>
        <time>2026-06-03T13:03:02.497169018Z</time>
      </trkpt>
      <trkpt lat="42.88644" lon="2.22343">
        <ele>323.45</ele>
        <time>2026-06-03T13:03:03.458726048Z</time>
      </trkpt>
      <trkpt lat="42.88645" lon="2.22345">
        <ele>323.5</ele>
        <time>2026-06-03T13:03:04.476305962Z</time>
      </trkpt>
      <trkpt lat="42.88646" lon="2.22347">
        <ele>323.53998</ele>
        <time>2026-06-03T13:03:05.446943045Z</time>
      </trkpt>
      <trkpt lat="42.88647" lon="2.22351">
        <ele>323.62</ele>
        <time>2026-06-03T13:03:06.458809972Z</time>
      </trkpt>
      <trkpt lat="42.88648" lon="2.22354">
        <ele>323.72998</ele>
        <time>2026-06-03T13:03:07.477558017Z</time>
      </trkpt>
      <trkpt lat="42.88649" lon="2.22357">
        <ele>323.88</ele>
        <time>2026-06-03T13:03:08.497388959Z</time>
      </trkpt>
      <trkpt lat="42.88649" lon="2.2236">
        <ele>324.06</ele>
        <time>2026-06-03T13:03:09.458773971Z</time>
      </trkpt>
      <trkpt lat="42.8865" lon="2.22364">
        <ele>324.28998</ele>
        <time>2026-06-03T13:03:10.423117995Z</time>
      </trkpt>
      <trkpt lat="42.8865" lon="2.22367">
        <ele>324.53998</ele>
        <time>2026-06-03T13:03:11.458050013Z</time>
      </trkpt>
      <trkpt lat="42.8865" lon="2.2237">
        <ele>324.82</ele>
        <time>2026-06-03T13:03:12.487488985Z</time>
      </trkpt>
      <trkpt lat="42.8865" lon="2.22373">
        <ele>325.12</ele>
        <time>2026-06-03T13:03:13.477123022Z</time>
      </trkpt>
      <trkpt lat="42.8865" lon="2.22375">
        <ele>325.43</ele>
        <time>2026-06-03T13:03:14.497735977Z</time>
      </trkpt>
      <trkpt lat="42.8865" lon="2.22378">
        <ele>325.72998</ele>
        <time>2026-06-03T13:03:15.458634019Z</time>
      </trkpt>
      <trkpt lat="42.88649" lon="2.22382">
        <ele>326.05</ele>
        <time>2026-06-03T13:03:16.448894024Z</time>
      </trkpt>
      <trkpt lat="42.88649" lon="2.22385">
        <ele>326.35</ele>
        <time>2026-06-03T13:03:17.497496963Z</time>
      </trkpt>
      <trkpt lat="42.88648" lon="2.22387">
        <ele>326.63</ele>
        <time>2026-06-03T13:03:18.487249017Z</time>
      </trkpt>
      <trkpt lat="42.88648" lon="2.22391">
        <ele>326.91</ele>
        <time>2026-06-03T13:03:19.477519035Z</time>
      </trkpt>
      <trkpt lat="42.88647" lon="2.22393">
        <ele>327.15</ele>
        <time>2026-06-03T13:03:20.470455050Z</time>
      </trkpt>
      <trkpt lat="42.88647" lon="2.22396">
        <ele>327.37</ele>
        <time>2026-06-03T13:03:21.487246990Z</time>
      </trkpt>
      <trkpt lat="42.88646" lon="2.224">
        <ele>327.58002</ele>
        <time>2026-06-03T13:03:22.448959947Z</time>
      </trkpt>
      <trkpt lat="42.88646" lon="2.22403">
        <ele>327.77002</ele>
        <time>2026-06-03T13:03:23.497789979Z</time>
      </trkpt>
      <trkpt lat="42.88645" lon="2.22406">
        <ele>328.1</ele>
        <time>2026-06-03T13:03:24.487728Z</time>
      </trkpt>
      <trkpt lat="42.88645" lon="2.22409">
        <ele>328.39</ele>
        <time>2026-06-03T13:03:25.477839947Z</time>
      </trkpt>
      <trkpt lat="42.88644" lon="2.22412">
        <ele>328.66</ele>
        <time>2026-06-03T13:03:26.407330036Z</time>
      </trkpt>
      <trkpt lat="42.88643" lon="2.22416">
        <ele>328.9</ele>
        <time>2026-06-03T13:03:27.458799005Z</time>
      </trkpt>
      <trkpt lat="42.88643" lon="2.22421">
        <ele>329.13</ele>
        <time>2026-06-03T13:03:28.477782011Z</time>
      </trkpt>
      <trkpt lat="42.88642" lon="2.22424">
        <ele>329.34</ele>
        <time>2026-06-03T13:03:29.497428060Z</time>
      </trkpt>
      <trkpt lat="42.88641" lon="2.22428">
        <ele>329.53998</ele>
        <time>2026-06-03T13:03:30.459171057Z</time>
      </trkpt>
      <trkpt lat="42.88639" lon="2.22432">
        <ele>329.75</ele>
        <time>2026-06-03T13:03:31.416743040Z</time>
      </trkpt>
      <trkpt lat="42.88639" lon="2.22435">
        <ele>329.93</ele>
        <time>2026-06-03T13:03:32.497385025Z</time>
      </trkpt>
      <trkpt lat="42.88638" lon="2.22438">
        <ele>330.11</ele>
        <time>2026-06-03T13:03:33.486685038Z</time>
      </trkpt>
      <trkpt lat="42.88638" lon="2.22442">
        <ele>330.28998</ele>
        <time>2026-06-03T13:03:34.476719022Z</time>
      </trkpt>
      <trkpt lat="42.88637" lon="2.22445">
        <ele>330.46002</ele>
        <time>2026-06-03T13:03:35.498206973Z</time>
      </trkpt>
      <trkpt lat="42.88636" lon="2.22448">
        <ele>330.6</ele>
        <time>2026-06-03T13:03:36.487383008Z</time>
      </trkpt>
      <trkpt lat="42.88636" lon="2.22452">
        <ele>330.72998</ele>
        <time>2026-06-03T13:03:37.477607965Z</time>
      </trkpt>
      <trkpt lat="42.88635" lon="2.22455">
        <ele>330.86</ele>
        <time>2026-06-03T13:03:38.437571049Z</time>
      </trkpt>
      <trkpt lat="42.88634" lon="2.22458">
        <ele>330.99</ele>
        <time>2026-06-03T13:03:39.487694979Z</time>
      </trkpt>
      <trkpt lat="42.88633" lon="2.22461">
        <ele>331.13</ele>
        <time>2026-06-03T13:03:40.428081036Z</time>
      </trkpt>
      <trkpt lat="42.88633" lon="2.22464">
        <ele>331.28</ele>
        <time>2026-06-03T13:03:41.433596015Z</time>
      </trkpt>
      <trkpt lat="42.88633" lon="2.22468">
        <ele>331.41998</ele>
        <time>2026-06-03T13:03:42.459089994Z</time>
      </trkpt>
      <trkpt lat="42.88632" lon="2.22472">
        <ele>331.56</ele>
        <time>2026-06-03T13:03:43.449370027Z</time>
      </trkpt>
      <trkpt lat="42.88631" lon="2.22477">
        <ele>331.71002</ele>
        <time>2026-06-03T13:03:44.497280955Z</time>
      </trkpt>
      <trkpt lat="42.88629" lon="2.22481">
        <ele>331.83002</ele>
        <time>2026-06-03T13:03:45.456944942Z</time>
      </trkpt>
      <trkpt lat="42.88627" lon="2.22484">
        <ele>331.93</ele>
        <time>2026-06-03T13:03:46.417734981Z</time>
      </trkpt>
      <trkpt lat="42.88626" lon="2.22488">
        <ele>332.01</ele>
        <time>2026-06-03T13:03:47.407749057Z</time>
      </trkpt>
      <trkpt lat="42.88624" lon="2.2249">
        <ele>332.07</ele>
        <time>2026-06-03T13:03:48.399670005Z</time>
      </trkpt>
      <trkpt lat="42.88623" lon="2.22494">
        <ele>332.12</ele>
        <time>2026-06-03T13:03:49.477892995Z</time>
      </trkpt>
      <trkpt lat="42.88622" lon="2.22497">
        <ele>332.16998</ele>
        <time>2026-06-03T13:03:50.437962055Z</time>
      </trkpt>
      <trkpt lat="42.8862" lon="2.22501">
        <ele>332.21002</ele>
        <time>2026-06-03T13:03:51.486997962Z</time>
      </trkpt>
      <trkpt lat="42.88619" lon="2.22505">
        <ele>332.27002</ele>
        <time>2026-06-03T13:03:52.449193001Z</time>
      </trkpt>
      <trkpt lat="42.88618" lon="2.2251">
        <ele>332.35</ele>
        <time>2026-06-03T13:03:53.407783031Z</time>
      </trkpt>
      <trkpt lat="42.88616" lon="2.22513">
        <ele>332.44</ele>
        <time>2026-06-03T13:03:54.487823009Z</time>
      </trkpt>
      <trkpt lat="42.88615" lon="2.22517">
        <ele>332.52002</ele>
        <time>2026-06-03T13:03:55.478134036Z</time>
      </trkpt>
      <trkpt lat="42.88614" lon="2.22521">
        <ele>332.6</ele>
        <time>2026-06-03T13:03:56.426509023Z</time>
      </trkpt>
      <trkpt lat="42.88612" lon="2.22524">
        <ele>332.65</ele>
        <time>2026-06-03T13:03:57.457949042Z</time>
      </trkpt>
      <trkpt lat="42.8861" lon="2.22527">
        <ele>332.69</ele>
        <time>2026-06-03T13:03:58.420505047Z</time>
      </trkpt>
      <trkpt lat="42.88609" lon="2.22531">
        <ele>332.71002</ele>
        <time>2026-06-03T13:03:59.497575998Z</time>
      </trkpt>
      <trkpt lat="42.88608" lon="2.22534">
        <ele>332.72998</ele>
        <time>2026-06-03T13:04:00.517379999Z</time>
      </trkpt>
      <trkpt lat="42.88606" lon="2.22538">
        <ele>332.75</ele>
        <time>2026-06-03T13:04:01.537492990Z</time>
      </trkpt>
      <trkpt lat="42.88605" lon="2.22542">
        <ele>332.78</ele>
        <time>2026-06-03T13:04:02.498373985Z</time>
      </trkpt>
      <trkpt lat="42.88604" lon="2.22546">
        <ele>332.83002</ele>
        <time>2026-06-03T13:04:03.518509030Z</time>
      </trkpt>
      <trkpt lat="42.88602" lon="2.2255">
        <ele>332.89</ele>
        <time>2026-06-03T13:04:04.478116989Z</time>
      </trkpt>
      <trkpt lat="42.88601" lon="2.22554">
        <ele>332.96002</ele>
        <time>2026-06-03T13:04:05.498150945Z</time>
      </trkpt>
      <trkpt lat="42.886" lon="2.22558">
        <ele>333.02002</ele>
        <time>2026-06-03T13:04:06.518174052Z</time>
      </trkpt>
      <trkpt lat="42.88599" lon="2.22562">
        <ele>333.1</ele>
        <time>2026-06-03T13:04:07.597305059Z</time>
      </trkpt>
      <trkpt lat="42.88598" lon="2.22567">
        <ele>333.18</ele>
        <time>2026-06-03T13:04:08.498303056Z</time>
      </trkpt>
      <trkpt lat="42.88597" lon="2.2257">
        <ele>333.26</ele>
        <time>2026-06-03T13:04:09.519970059Z</time>
      </trkpt>
      <trkpt lat="42.88596" lon="2.22575">
        <ele>333.34</ele>
        <time>2026-06-03T13:04:10.538938046Z</time>
      </trkpt>
      <trkpt lat="42.88595" lon="2.22579">
        <ele>333.43</ele>
        <time>2026-06-03T13:04:11.441030025Z</time>
      </trkpt>
      <trkpt lat="42.88594" lon="2.22583">
        <ele>333.51</ele>
        <time>2026-06-03T13:04:12.458315015Z</time>
      </trkpt>
      <trkpt lat="42.88593" lon="2.22586">
        <ele>333.59</ele>
        <time>2026-06-03T13:04:13.538408041Z</time>
      </trkpt>
      <trkpt lat="42.88592" lon="2.2259">
        <ele>333.66998</ele>
        <time>2026-06-03T13:04:14.498345017Z</time>
      </trkpt>
      <trkpt lat="42.88592" lon="2.22594">
        <ele>333.76</ele>
        <time>2026-06-03T13:04:15.458004951Z</time>
      </trkpt>
      <trkpt lat="42.88591" lon="2.22598">
        <ele>333.84</ele>
        <time>2026-06-03T13:04:16.478829026Z</time>
      </trkpt>
      <trkpt lat="42.88589" lon="2.22602">
        <ele>333.94</ele>
        <time>2026-06-03T13:04:17.498375058Z</time>
      </trkpt>
      <trkpt lat="42.88589" lon="2.22607">
        <ele>334.03998</ele>
        <time>2026-06-03T13:04:18.518455982Z</time>
      </trkpt>
      <trkpt lat="42.88589" lon="2.2261">
        <ele>334.14</ele>
        <time>2026-06-03T13:04:19.478589058Z</time>
      </trkpt>
      <trkpt lat="42.88587" lon="2.22614">
        <ele>334.22</ele>
        <time>2026-06-03T13:04:20.383713007Z</time>
      </trkpt>
      <trkpt lat="42.88586" lon="2.22618">
        <ele>334.3</ele>
        <time>2026-06-03T13:04:21.493101001Z</time>
      </trkpt>
      <trkpt lat="42.88585" lon="2.22622">
        <ele>334.38</ele>
        <time>2026-06-03T13:04:22.478572965Z</time>
      </trkpt>
      <trkpt lat="42.88584" lon="2.22625">
        <ele>334.45</ele>
        <time>2026-06-03T13:04:23.560354948Z</time>
      </trkpt>
      <trkpt lat="42.88582" lon="2.22629">
        <ele>334.65</ele>
        <time>2026-06-03T13:04:24.517717957Z</time>
      </trkpt>
      <trkpt lat="42.88581" lon="2.22634">
        <ele>334.84</ele>
        <time>2026-06-03T13:04:25.537817955Z</time>
      </trkpt>
      <trkpt lat="42.8858" lon="2.22639">
        <ele>335.03</ele>
        <time>2026-06-03T13:04:26.440891027Z</time>
      </trkpt>
      <trkpt lat="42.88578" lon="2.22644">
        <ele>335.2</ele>
        <time>2026-06-03T13:04:27.458539963Z</time>
      </trkpt>
      <trkpt lat="42.88577" lon="2.22649">
        <ele>335.34</ele>
        <time>2026-06-03T13:04:28.538838983Z</time>
      </trkpt>
      <trkpt lat="42.88576" lon="2.22653">
        <ele>335.47</ele>
        <time>2026-06-03T13:04:29.446889997Z</time>
      </trkpt>
      <trkpt lat="42.88575" lon="2.22657">
        <ele>335.57</ele>
        <time>2026-06-03T13:04:30.518677950Z</time>
      </trkpt>
      <trkpt lat="42.88574" lon="2.2266">
        <ele>335.65</ele>
        <time>2026-06-03T13:04:31.478822947Z</time>
      </trkpt>
      <trkpt lat="42.88573" lon="2.22664">
        <ele>335.72</ele>
        <time>2026-06-03T13:04:32.498741031Z</time>
      </trkpt>
      <trkpt lat="42.88572" lon="2.22667">
        <ele>335.78998</ele>
        <time>2026-06-03T13:04:33.518666029Z</time>
      </trkpt>
      <trkpt lat="42.88571" lon="2.22671">
        <ele>335.87</ele>
        <time>2026-06-03T13:04:34.539247990Z</time>
      </trkpt>
      <trkpt lat="42.8857" lon="2.22675">
        <ele>335.95</ele>
        <time>2026-06-03T13:04:35.560346961Z</time>
      </trkpt>
      <trkpt lat="42.8857" lon="2.22679">
        <ele>336.06</ele>
        <time>2026-06-03T13:04:36.518761039Z</time>
      </trkpt>
      <trkpt lat="42.88569" lon="2.22683">
        <ele>336.16</ele>
        <time>2026-06-03T13:04:37.479038Z</time>
      </trkpt>
      <trkpt lat="42.88568" lon="2.22687">
        <ele>336.28</ele>
        <time>2026-06-03T13:04:38.498029947Z</time>
      </trkpt>
      <trkpt lat="42.88567" lon="2.2269">
        <ele>336.4</ele>
        <time>2026-06-03T13:04:39.518728971Z</time>
      </trkpt>
      <trkpt lat="42.88567" lon="2.22694">
        <ele>336.51</ele>
        <time>2026-06-03T13:04:40.539363027Z</time>
      </trkpt>
      <trkpt lat="42.88566" lon="2.22697">
        <ele>336.63</ele>
        <time>2026-06-03T13:04:41.560767055Z</time>
      </trkpt>
      <trkpt lat="42.88565" lon="2.227">
        <ele>336.74</ele>
        <time>2026-06-03T13:04:42.469082952Z</time>
      </trkpt>
      <trkpt lat="42.88564" lon="2.22703">
        <ele>336.84</ele>
        <time>2026-06-03T13:04:43.532780051Z</time>
      </trkpt>
      <trkpt lat="42.88564" lon="2.22706">
        <ele>336.93</ele>
        <time>2026-06-03T13:04:44.498270988Z</time>
      </trkpt>
      <trkpt lat="42.88563" lon="2.2271">
        <ele>337.03</ele>
        <time>2026-06-03T13:04:45.518089056Z</time>
      </trkpt>
      <trkpt lat="42.88562" lon="2.22713">
        <ele>337.14</ele>
        <time>2026-06-03T13:04:46.478652Z</time>
      </trkpt>
      <trkpt lat="42.88561" lon="2.22716">
        <ele>337.25</ele>
        <time>2026-06-03T13:04:47.560531974Z</time>
      </trkpt>
      <trkpt lat="42.88559" lon="2.2272">
        <ele>337.36</ele>
        <time>2026-06-03T13:04:48.462813973Z</time>
      </trkpt>
      <trkpt lat="42.88559" lon="2.22723">
        <ele>337.5</ele>
        <time>2026-06-03T13:04:49.539026022Z</time>
      </trkpt>
      <trkpt lat="42.88558" lon="2.22726">
        <ele>337.65</ele>
        <time>2026-06-03T13:04:50.499376059Z</time>
      </trkpt>
      <trkpt lat="42.88557" lon="2.2273">
        <ele>337.81</ele>
        <time>2026-06-03T13:04:51.518996954Z</time>
      </trkpt>
      <trkpt lat="42.88557" lon="2.22733">
        <ele>337.96</ele>
        <time>2026-06-03T13:04:52.478260994Z</time>
      </trkpt>
      <trkpt lat="42.88557" lon="2.22736">
        <ele>338.15</ele>
        <time>2026-06-03T13:04:53.499205947Z</time>
      </trkpt>
      <trkpt lat="42.88557" lon="2.22739">
        <ele>338.37</ele>
        <time>2026-06-03T13:04:54.518931031Z</time>
      </trkpt>
      <trkpt lat="42.88556" lon="2.22742">
        <ele>338.62</ele>
        <time>2026-06-03T13:04:55.539096951Z</time>
      </trkpt>
      <trkpt lat="42.88556" lon="2.22746">
        <ele>338.89</ele>
        <time>2026-06-03T13:04:56.434257030Z</time>
      </trkpt>
      <trkpt lat="42.88556" lon="2.2275">
        <ele>339.18</ele>
        <time>2026-06-03T13:04:57.399086952Z</time>
      </trkpt>
      <trkpt lat="42.88555" lon="2.22753">
        <ele>339.46</ele>
        <time>2026-06-03T13:04:58.478682041Z</time>
      </trkpt>
      <trkpt lat="42.88554" lon="2.22756">
        <ele>339.75</ele>
        <time>2026-06-03T13:04:59.499364018Z</time>
      </trkpt>
      <trkpt lat="42.88554" lon="2.22759">
        <ele>340.02</ele>
        <time>2026-06-03T13:05:00.460888028Z</time>
      </trkpt>
      <trkpt lat="42.88553" lon="2.22763">
        <ele>340.29</ele>
        <time>2026-06-03T13:05:01.539857030Z</time>
      </trkpt>
      <trkpt lat="42.88552" lon="2.22766">
        <ele>340.56</ele>
        <time>2026-06-03T13:05:02.499256015Z</time>
      </trkpt>
      <trkpt lat="42.88552" lon="2.22769">
        <ele>340.84</ele>
        <time>2026-06-03T13:05:03.519054055Z</time>
      </trkpt>
      <trkpt lat="42.88552" lon="2.22772">
        <ele>341.12</ele>
        <time>2026-06-03T13:05:04.478572965Z</time>
      </trkpt>
      <trkpt lat="42.88551" lon="2.22774">
        <ele>341.41</ele>
        <time>2026-06-03T13:05:05.498536944Z</time>
      </trkpt>
      <trkpt lat="42.88551" lon="2.22777">
        <ele>341.71</ele>
        <time>2026-06-03T13:05:06.460875988Z</time>
      </trkpt>
      <trkpt lat="42.88551" lon="2.2278">
        <ele>341.97</ele>
        <time>2026-06-03T13:05:07.539684057Z</time>
      </trkpt>
      <trkpt lat="42.8855" lon="2.22783">
        <ele>342.24</ele>
        <time>2026-06-03T13:05:08.439260006Z</time>
      </trkpt>
      <trkpt lat="42.88549" lon="2.22786">
        <ele>342.52</ele>
        <time>2026-06-03T13:05:09.459246039Z</time>
      </trkpt>
      <trkpt lat="42.88548" lon="2.22788">
        <ele>342.81</ele>
        <time>2026-06-03T13:05:10.539301991Z</time>
      </trkpt>
      <trkpt lat="42.88547" lon="2.2279">
        <ele>343.09</ele>
        <time>2026-06-03T13:05:11.499168992Z</time>
      </trkpt>
      <trkpt lat="42.88546" lon="2.22793">
        <ele>343.35</ele>
        <time>2026-06-03T13:05:12.519201040Z</time>
      </trkpt>
      <trkpt lat="42.88545" lon="2.22796">
        <ele>343.61</ele>
        <time>2026-06-03T13:05:13.518965006Z</time>
      </trkpt>
      <trkpt lat="42.88544" lon="2.22799">
        <ele>343.83</ele>
        <time>2026-06-03T13:05:14.498929024Z</time>
      </trkpt>
      <trkpt lat="42.88543" lon="2.22802">
        <ele>344.04</ele>
        <time>2026-06-03T13:05:15.461192966Z</time>
      </trkpt>
      <trkpt lat="42.88542" lon="2.22806">
        <ele>344.21</ele>
        <time>2026-06-03T13:05:16.479475975Z</time>
      </trkpt>
      <trkpt lat="42.88541" lon="2.2281">
        <ele>344.35</ele>
        <time>2026-06-03T13:05:17.499223948Z</time>
      </trkpt>
      <trkpt lat="42.88541" lon="2.22813">
        <ele>344.47</ele>
        <time>2026-06-03T13:05:18.461158037Z</time>
      </trkpt>
      <trkpt lat="42.8854" lon="2.22816">
        <ele>344.58</ele>
        <time>2026-06-03T13:05:19.479400039Z</time>
      </trkpt>
      <trkpt lat="42.88539" lon="2.22819">
        <ele>344.67</ele>
        <time>2026-06-03T13:05:20.439954042Z</time>
      </trkpt>
      <trkpt lat="42.88538" lon="2.22822">
        <ele>344.76</ele>
        <time>2026-06-03T13:05:21.519284964Z</time>
      </trkpt>
      <trkpt lat="42.88537" lon="2.22824">
        <ele>344.84</ele>
        <time>2026-06-03T13:05:22.509616017Z</time>
      </trkpt>
      <trkpt lat="42.88535" lon="2.22827">
        <ele>344.91</ele>
        <time>2026-06-03T13:05:23.499822021Z</time>
      </trkpt>
      <trkpt lat="42.88533" lon="2.22828">
        <ele>345.09</ele>
        <time>2026-06-03T13:05:24.519340992Z</time>
      </trkpt>
      <trkpt lat="42.88531" lon="2.22829">
        <ele>345.25</ele>
        <time>2026-06-03T13:05:25.479583979Z</time>
      </trkpt>
      <trkpt lat="42.88529" lon="2.2283">
        <ele>345.39</ele>
        <time>2026-06-03T13:05:26.561252952Z</time>
      </trkpt>
      <trkpt lat="42.88528" lon="2.22831">
        <ele>345.39</ele>
        <time>2026-06-03T13:05:27.438318014Z</time>
      </trkpt>
      <trkpt lat="42.88526" lon="2.22832">
        <ele>345.61</ele>
        <time>2026-06-03T13:05:28.512138009Z</time>
      </trkpt>
      <trkpt lat="42.88524" lon="2.22834">
        <ele>345.71</ele>
        <time>2026-06-03T13:05:29.560621977Z</time>
      </trkpt>
      <trkpt lat="42.88522" lon="2.22835">
        <ele>345.81</ele>
        <time>2026-06-03T13:05:30.519407034Z</time>
      </trkpt>
      <trkpt lat="42.8852" lon="2.22836">
        <ele>345.93</ele>
        <time>2026-06-03T13:05:31.540335059Z</time>
      </trkpt>
      <trkpt lat="42.88519" lon="2.22837">
        <ele>346.05</ele>
        <time>2026-06-03T13:05:32.500170946Z</time>
      </trkpt>
      <trkpt lat="42.88517" lon="2.22838">
        <ele>346.18</ele>
        <time>2026-06-03T13:05:33.519667983Z</time>
      </trkpt>
      <trkpt lat="42.88515" lon="2.2284">
        <ele>346.33</ele>
        <time>2026-06-03T13:05:34.540230036Z</time>
      </trkpt>
      <trkpt lat="42.88513" lon="2.22842">
        <ele>346.48</ele>
        <time>2026-06-03T13:05:35.439530015Z</time>
      </trkpt>
      <trkpt lat="42.88511" lon="2.22843">
        <ele>346.65</ele>
        <time>2026-06-03T13:05:36.399624944Z</time>
      </trkpt>
      <trkpt lat="42.8851" lon="2.22846">
        <ele>346.8</ele>
        <time>2026-06-03T13:05:37.539996028Z</time>
      </trkpt>
      <trkpt lat="42.88509" lon="2.22848">
        <ele>346.95</ele>
        <time>2026-06-03T13:05:38.384930015Z</time>
      </trkpt>
      <trkpt lat="42.88508" lon="2.22852">
        <ele>347.12</ele>
        <time>2026-06-03T13:05:39.442873955Z</time>
      </trkpt>
      <trkpt lat="42.88508" lon="2.22855">
        <ele>347.31</ele>
        <time>2026-06-03T13:05:40.506252050Z</time>
      </trkpt>
      <trkpt lat="42.88508" lon="2.22858">
        <ele>347.53</ele>
        <time>2026-06-03T13:05:41.559772015Z</time>
      </trkpt>
      <trkpt lat="42.88508" lon="2.22861">
        <ele>347.79</ele>
        <time>2026-06-03T13:05:42.519999981Z</time>
      </trkpt>
      <trkpt lat="42.88508" lon="2.22864">
        <ele>348.07</ele>
        <time>2026-06-03T13:05:43.480012059Z</time>
      </trkpt>
      <trkpt lat="42.88508" lon="2.22868">
        <ele>348.41</ele>
        <time>2026-06-03T13:05:44.559028029Z</time>
      </trkpt>
      <trkpt lat="42.88508" lon="2.2287">
        <ele>348.77</ele>
        <time>2026-06-03T13:05:45.459017992Z</time>
      </trkpt>
      <trkpt lat="42.88508" lon="2.22873">
        <ele>349.16</ele>
        <time>2026-06-03T13:05:46.539747Z</time>
      </trkpt>
      <trkpt lat="42.88508" lon="2.22876">
        <ele>349.58</ele>
        <time>2026-06-03T13:05:47.561501026Z</time>
      </trkpt>
      <trkpt lat="42.88507" lon="2.22879">
        <ele>350.03</ele>
        <time>2026-06-03T13:05:48.519687057Z</time>
      </trkpt>
      <trkpt lat="42.88507" lon="2.22882">
        <ele>350.51</ele>
        <time>2026-06-03T13:05:49.480072975Z</time>
      </trkpt>
      <trkpt lat="42.88506" lon="2.22885">
        <ele>351.01</ele>
        <time>2026-06-03T13:05:50.559931993Z</time>
      </trkpt>
      <trkpt lat="42.88505" lon="2.22888">
        <ele>351.52</ele>
        <time>2026-06-03T13:05:51.519866943Z</time>
      </trkpt>
      <trkpt lat="42.88504" lon="2.22891">
        <ele>351.95</ele>
        <time>2026-06-03T13:05:52.479725957Z</time>
      </trkpt>
      <trkpt lat="42.88503" lon="2.22893">
        <ele>352.39</ele>
        <time>2026-06-03T13:05:53.500288010Z</time>
      </trkpt>
      <trkpt lat="42.88501" lon="2.22895">
        <ele>352.85</ele>
        <time>2026-06-03T13:05:54.519569039Z</time>
      </trkpt>
      <trkpt lat="42.885" lon="2.22898">
        <ele>353.31</ele>
        <time>2026-06-03T13:05:55.411973Z</time>
      </trkpt>
      <trkpt lat="42.88499" lon="2.229">
        <ele>353.78</ele>
        <time>2026-06-03T13:05:56.455057979Z</time>
      </trkpt>
      <trkpt lat="42.88497" lon="2.22901">
        <ele>354.23</ele>
        <time>2026-06-03T13:05:57.519865990Z</time>
      </trkpt>
      <trkpt lat="42.88496" lon="2.22904">
        <ele>354.68</ele>
        <time>2026-06-03T13:05:58.488294005Z</time>
      </trkpt>
      <trkpt lat="42.88494" lon="2.22905">
        <ele>355.09</ele>
        <time>2026-06-03T13:05:59.440122008Z</time>
      </trkpt>
      <trkpt lat="42.88492" lon="2.22907">
        <ele>355.48</ele>
        <time>2026-06-03T13:06:00.519530058Z</time>
      </trkpt>
      <trkpt lat="42.8849" lon="2.22909">
        <ele>355.85</ele>
        <time>2026-06-03T13:06:01.539945006Z</time>
      </trkpt>
      <trkpt lat="42.88488" lon="2.22911">
        <ele>356.18</ele>
        <time>2026-06-03T13:06:02.561980009Z</time>
      </trkpt>
      <trkpt lat="42.88487" lon="2.22912">
        <ele>356.51</ele>
        <time>2026-06-03T13:06:03.580021977Z</time>
      </trkpt>
      <trkpt lat="42.88485" lon="2.22914">
        <ele>356.84</ele>
        <time>2026-06-03T13:06:04.480087996Z</time>
      </trkpt>
      <trkpt lat="42.88483" lon="2.22916">
        <ele>357.16</ele>
        <time>2026-06-03T13:06:05.411885977Z</time>
      </trkpt>
      <trkpt lat="42.88482" lon="2.22919">
        <ele>357.51</ele>
        <time>2026-06-03T13:06:06.399858952Z</time>
      </trkpt>
      <trkpt lat="42.8848" lon="2.2292">
        <ele>357.8</ele>
        <time>2026-06-03T13:06:07.538835049Z</time>
      </trkpt>
      <trkpt lat="42.88478" lon="2.22922">
        <ele>358.13</ele>
        <time>2026-06-03T13:06:08.560114980Z</time>
      </trkpt>
      <trkpt lat="42.88477" lon="2.22923">
        <ele>358.51</ele>
        <time>2026-06-03T13:06:09.459840059Z</time>
      </trkpt>
      <trkpt lat="42.88475" lon="2.22924">
        <ele>358.95</ele>
        <time>2026-06-03T13:06:10.601973057Z</time>
      </trkpt>
      <trkpt lat="42.88471" lon="2.22927">
        <ele>360.04</ele>
        <time>2026-06-03T13:06:12.407649994Z</time>
      </trkpt>
      <trkpt lat="42.8847" lon="2.22928">
        <ele>360.04</ele>
        <time>2026-06-03T13:06:13.481459022Z</time>
      </trkpt>
      <trkpt lat="42.88471" lon="2.22933">
        <ele>360.65</ele>
        <time>2026-06-03T13:06:15.519927025Z</time>
      </trkpt>
      <trkpt lat="42.88472" lon="2.22934">
        <ele>360.65</ele>
        <time>2026-06-03T13:06:16.419865966Z</time>
      </trkpt>
      <trkpt lat="42.88475" lon="2.22933">
        <ele>360.65</ele>
        <time>2026-06-03T13:06:18.519186020Z</time>
      </trkpt>
      <trkpt lat="42.88477" lon="2.22932">
        <ele>360.65</ele>
        <time>2026-06-03T13:06:19.419394016Z</time>
      </trkpt>
      <trkpt lat="42.88478" lon="2.22932">
        <ele>360.65</ele>
        <time>2026-06-03T13:06:20.371160030Z</time>
      </trkpt>
      <trkpt lat="42.8848" lon="2.22932">
        <ele>360.65</ele>
        <time>2026-06-03T13:06:21.519201040Z</time>
      </trkpt>
      <trkpt lat="42.88481" lon="2.22932">
        <ele>360.65</ele>
        <time>2026-06-03T13:06:22.420997977Z</time>
      </trkpt>
      <trkpt lat="42.88483" lon="2.22932">
        <ele>360.65</ele>
        <time>2026-06-03T13:06:23.561936975Z</time>
      </trkpt>
      <trkpt lat="42.88485" lon="2.22932">
        <ele>360.65</ele>
        <time>2026-06-03T13:06:24.459480047Z</time>
      </trkpt>
      <trkpt lat="42.88486" lon="2.22932">
        <ele>366.13</ele>
        <time>2026-06-03T13:06:25.539819956Z</time>
      </trkpt>
      <trkpt lat="42.8849" lon="2.22931">
        <ele>369.15</ele>
        <time>2026-06-03T13:06:46.542158008Z</time>
      </trkpt>
      <trkpt lat="42.88491" lon="2.22931">
        <ele>369.15</ele>
        <time>2026-06-03T13:06:47.560919046Z</time>
      </trkpt>
      <trkpt lat="42.88494" lon="2.22931">
        <ele>369.42</ele>
        <time>2026-06-03T13:06:49.540629983Z</time>
      </trkpt>
      <trkpt lat="42.88495" lon="2.22931">
        <ele>369.42</ele>
        <time>2026-06-03T13:06:50.500517964Z</time>
      </trkpt>
      <trkpt lat="42.88496" lon="2.22931">
        <ele>369.56</ele>
        <time>2026-06-03T13:06:51.581465006Z</time>
      </trkpt>
      <trkpt lat="42.88498" lon="2.22931">
        <ele>369.62</ele>
        <time>2026-06-03T13:06:52.500362992Z</time>
      </trkpt>
      <trkpt lat="42.885" lon="2.22931">
        <ele>369.68</ele>
        <time>2026-06-03T13:06:53.562299967Z</time>
      </trkpt>
      <trkpt lat="42.88502" lon="2.22931">
        <ele>369.75</ele>
        <time>2026-06-03T13:06:54.580904961Z</time>
      </trkpt>
      <trkpt lat="42.88504" lon="2.22931">
        <ele>369.84</ele>
        <time>2026-06-03T13:06:55.480654955Z</time>
      </trkpt>
      <trkpt lat="42.88506" lon="2.22931">
        <ele>369.95</ele>
        <time>2026-06-03T13:06:56.560534954Z</time>
      </trkpt>
      <trkpt lat="42.88508" lon="2.22931">
        <ele>370.08</ele>
        <time>2026-06-03T13:06:57.580626011Z</time>
      </trkpt>
      <trkpt lat="42.8851" lon="2.22931">
        <ele>370.22</ele>
        <time>2026-06-03T13:06:58.540773988Z</time>
      </trkpt>
      <trkpt lat="42.88511" lon="2.22931">
        <ele>370.39</ele>
        <time>2026-06-03T13:06:59.560971975Z</time>
      </trkpt>
      <trkpt lat="42.88514" lon="2.22932">
        <ele>370.58</ele>
        <time>2026-06-03T13:07:00.520760059Z</time>
      </trkpt>
      <trkpt lat="42.88515" lon="2.22932">
        <ele>370.74</ele>
        <time>2026-06-03T13:07:01.600317001Z</time>
      </trkpt>
      <trkpt lat="42.88517" lon="2.22932">
        <ele>370.92</ele>
        <time>2026-06-03T13:07:02.562500954Z</time>
      </trkpt>
      <trkpt lat="42.8852" lon="2.22933">
        <ele>371.11</ele>
        <time>2026-06-03T13:07:03.581279039Z</time>
      </trkpt>
      <trkpt lat="42.88521" lon="2.22933">
        <ele>371.31</ele>
        <time>2026-06-03T13:07:04.540392041Z</time>
      </trkpt>
      <trkpt lat="42.88523" lon="2.22934">
        <ele>371.51</ele>
        <time>2026-06-03T13:07:05.561270952Z</time>
      </trkpt>
      <trkpt lat="42.88526" lon="2.22934">
        <ele>371.74</ele>
        <time>2026-06-03T13:07:06.463825941Z</time>
      </trkpt>
      <trkpt lat="42.88528" lon="2.22934">
        <ele>371.97</ele>
        <time>2026-06-03T13:07:07.420943975Z</time>
      </trkpt>
      <trkpt lat="42.8853" lon="2.22934">
        <ele>372.21</ele>
        <time>2026-06-03T13:07:08.562834024Z</time>
      </trkpt>
      <trkpt lat="42.88532" lon="2.22935">
        <ele>372.46</ele>
        <time>2026-06-03T13:07:09.520918965Z</time>
      </trkpt>
      <trkpt lat="42.88534" lon="2.22935">
        <ele>372.73</ele>
        <time>2026-06-03T13:07:10.540711045Z</time>
      </trkpt>
      <trkpt lat="42.88536" lon="2.22935">
        <ele>373.01</ele>
        <time>2026-06-03T13:07:11.501055002Z</time>
      </trkpt>
      <trkpt lat="42.88538" lon="2.22935">
        <ele>373.32</ele>
        <time>2026-06-03T13:07:12.463382959Z</time>
      </trkpt>
      <trkpt lat="42.8854" lon="2.22935">
        <ele>373.65</ele>
        <time>2026-06-03T13:07:13.541265011Z</time>
      </trkpt>
      <trkpt lat="42.88542" lon="2.22934">
        <ele>373.98</ele>
        <time>2026-06-03T13:07:14.501448035Z</time>
      </trkpt>
      <trkpt lat="42.88544" lon="2.22934">
        <ele>374.31</ele>
        <time>2026-06-03T13:07:15.462890029Z</time>
      </trkpt>
      <trkpt lat="42.88546" lon="2.22933">
        <ele>374.59</ele>
        <time>2026-06-03T13:07:16.600988984Z</time>
      </trkpt>
      <trkpt lat="42.88548" lon="2.22933">
        <ele>374.87</ele>
        <time>2026-06-03T13:07:17.501413941Z</time>
      </trkpt>
      <trkpt lat="42.88551" lon="2.22932">
        <ele>375.14</ele>
        <time>2026-06-03T13:07:18.406962037Z</time>
      </trkpt>
      <trkpt lat="42.88553" lon="2.22931">
        <ele>375.41</ele>
        <time>2026-06-03T13:07:19.481021047Z</time>
      </trkpt>
      <trkpt lat="42.88555" lon="2.2293">
        <ele>375.68</ele>
        <time>2026-06-03T13:07:20.440971017Z</time>
      </trkpt>
      <trkpt lat="42.88557" lon="2.22929">
        <ele>375.96</ele>
        <time>2026-06-03T13:07:21.521571040Z</time>
      </trkpt>
      <trkpt lat="42.88559" lon="2.22929">
        <ele>376.22</ele>
        <time>2026-06-03T13:07:22.487015009Z</time>
      </trkpt>
      <trkpt lat="42.88561" lon="2.22927">
        <ele>376.48</ele>
        <time>2026-06-03T13:07:23.560794950Z</time>
      </trkpt>
      <trkpt lat="42.88563" lon="2.22925">
        <ele>376.72</ele>
        <time>2026-06-03T13:07:24.580353022Z</time>
      </trkpt>
      <trkpt lat="42.88565" lon="2.22924">
        <ele>376.95</ele>
        <time>2026-06-03T13:07:25.468886971Z</time>
      </trkpt>
      <trkpt lat="42.88567" lon="2.22922">
        <ele>377.18</ele>
        <time>2026-06-03T13:07:26.561164975Z</time>
      </trkpt>
      <trkpt lat="42.88569" lon="2.2292">
        <ele>377.41</ele>
        <time>2026-06-03T13:07:27.521355987Z</time>
      </trkpt>
      <trkpt lat="42.88571" lon="2.22918">
        <ele>377.63</ele>
        <time>2026-06-03T13:07:28.601569057Z</time>
      </trkpt>
      <trkpt lat="42.88573" lon="2.22916">
        <ele>377.85</ele>
        <time>2026-06-03T13:07:29.501255035Z</time>
      </trkpt>
      <trkpt lat="42.88575" lon="2.22914">
        <ele>378.06</ele>
        <time>2026-06-03T13:07:30.581213951Z</time>
      </trkpt>
      <trkpt lat="42.88576" lon="2.22913">
        <ele>378.24</ele>
        <time>2026-06-03T13:07:31.601204991Z</time>
      </trkpt>
      <trkpt lat="42.88578" lon="2.22912">
        <ele>378.41</ele>
        <time>2026-06-03T13:07:32.561579943Z</time>
      </trkpt>
      <trkpt lat="42.88581" lon="2.22909">
        <ele>378.56</ele>
        <time>2026-06-03T13:07:33.407026052Z</time>
      </trkpt>
      <trkpt lat="42.88583" lon="2.22907">
        <ele>378.71</ele>
        <time>2026-06-03T13:07:34.600787044Z</time>
      </trkpt>
      <trkpt lat="42.88585" lon="2.22906">
        <ele>378.85</ele>
        <time>2026-06-03T13:07:35.501667976Z</time>
      </trkpt>
      <trkpt lat="42.88587" lon="2.22903">
        <ele>378.99</ele>
        <time>2026-06-03T13:07:36.581421018Z</time>
      </trkpt>
      <trkpt lat="42.88589" lon="2.22901">
        <ele>379.13</ele>
        <time>2026-06-03T13:07:37.489218950Z</time>
      </trkpt>
      <trkpt lat="42.88591" lon="2.22899">
        <ele>379.25</ele>
        <time>2026-06-03T13:07:38.554133058Z</time>
      </trkpt>
      <trkpt lat="42.88593" lon="2.22896">
        <ele>379.37</ele>
        <time>2026-06-03T13:07:39.581681967Z</time>
      </trkpt>
      <trkpt lat="42.88594" lon="2.22895">
        <ele>379.4</ele>
        <time>2026-06-03T13:07:40.421501040Z</time>
      </trkpt>
      <trkpt lat="42.88597" lon="2.22894">
        <ele>379.43</ele>
        <time>2026-06-03T13:07:41.501518965Z</time>
      </trkpt>
      <trkpt lat="42.886" lon="2.22892">
        <ele>379.46</ele>
        <time>2026-06-03T13:07:42.581940055Z</time>
      </trkpt>
      <trkpt lat="42.88602" lon="2.22891">
        <ele>379.49</ele>
        <time>2026-06-03T13:07:43.541520Z</time>
      </trkpt>
      <trkpt lat="42.88605" lon="2.2289">
        <ele>379.51</ele>
        <time>2026-06-03T13:07:44.560742974Z</time>
      </trkpt>
      <trkpt lat="42.88608" lon="2.22889">
        <ele>379.53</ele>
        <time>2026-06-03T13:07:45.462250948Z</time>
      </trkpt>
      <trkpt lat="42.88612" lon="2.22889">
        <ele>379.55</ele>
        <time>2026-06-03T13:07:46.541849971Z</time>
      </trkpt>
      <trkpt lat="42.88615" lon="2.22889">
        <ele>379.55</ele>
        <time>2026-06-03T13:07:47.620738029Z</time>
      </trkpt>
      <trkpt lat="42.88618" lon="2.2289">
        <ele>379.55</ele>
        <time>2026-06-03T13:07:48.463302016Z</time>
      </trkpt>
      <trkpt lat="42.88622" lon="2.22891">
        <ele>379.53</ele>
        <time>2026-06-03T13:07:49.601501942Z</time>
      </trkpt>
      <trkpt lat="42.88625" lon="2.22889">
        <ele>379.49</ele>
        <time>2026-06-03T13:07:50.561561942Z</time>
      </trkpt>
      <trkpt lat="42.88628" lon="2.22886">
        <ele>379.44</ele>
        <time>2026-06-03T13:07:51.521690011Z</time>
      </trkpt>
      <trkpt lat="42.8863" lon="2.22881">
        <ele>379.38</ele>
        <time>2026-06-03T13:07:52.473850012Z</time>
      </trkpt>
      <trkpt lat="42.88629" lon="2.22878">
        <ele>379.3</ele>
        <time>2026-06-03T13:07:53.547695041Z</time>
      </trkpt>
      <trkpt lat="42.88629" lon="2.22874">
        <ele>379.23</ele>
        <time>2026-06-03T13:07:54.582417011Z</time>
      </trkpt>
      <trkpt lat="42.88628" lon="2.2287">
        <ele>379.15</ele>
        <time>2026-06-03T13:07:55.421679020Z</time>
      </trkpt>
      <trkpt lat="42.88627" lon="2.22867">
        <ele>379.07</ele>
        <time>2026-06-03T13:07:56.562227011Z</time>
      </trkpt>
      <trkpt lat="42.88626" lon="2.22863">
        <ele>379.01</ele>
        <time>2026-06-03T13:07:57.401857972Z</time>
      </trkpt>
      <trkpt lat="42.88626" lon="2.2286">
        <ele>378.96</ele>
        <time>2026-06-03T13:07:58.602293015Z</time>
      </trkpt>
      <trkpt lat="42.88626" lon="2.22855">
        <ele>378.94</ele>
        <time>2026-06-03T13:07:59.442077994Z</time>
      </trkpt>
      <trkpt lat="42.88626" lon="2.22852">
        <ele>378.96</ele>
        <time>2026-06-03T13:08:00.463456035Z</time>
      </trkpt>
      <trkpt lat="42.88627" lon="2.22849">
        <ele>378.98</ele>
        <time>2026-06-03T13:08:01.481845975Z</time>
      </trkpt>
      <trkpt lat="42.88627" lon="2.22845">
        <ele>379.02</ele>
        <time>2026-06-03T13:08:02.561563969Z</time>
      </trkpt>
      <trkpt lat="42.88628" lon="2.22842">
        <ele>379.1</ele>
        <time>2026-06-03T13:08:03.461897969Z</time>
      </trkpt>
      <trkpt lat="42.88629" lon="2.22838">
        <ele>379.2</ele>
        <time>2026-06-03T13:08:04.602020025Z</time>
      </trkpt>
      <trkpt lat="42.8863" lon="2.22836">
        <ele>379.34</ele>
        <time>2026-06-03T13:08:05.410361052Z</time>
      </trkpt>
      <trkpt lat="42.8863" lon="2.22832">
        <ele>379.5</ele>
        <time>2026-06-03T13:08:06.444128990Z</time>
      </trkpt>
      <trkpt lat="42.88631" lon="2.22828">
        <ele>379.68</ele>
        <time>2026-06-03T13:08:07.467393994Z</time>
      </trkpt>
      <trkpt lat="42.88633" lon="2.22826">
        <ele>379.91</ele>
        <time>2026-06-03T13:08:08.501171947Z</time>
      </trkpt>
      <trkpt lat="42.88634" lon="2.22822">
        <ele>380.15</ele>
        <time>2026-06-03T13:08:09.460811973Z</time>
      </trkpt>
      <trkpt lat="42.88635" lon="2.22818">
        <ele>380.42</ele>
        <time>2026-06-03T13:08:10.541093946Z</time>
      </trkpt>
      <trkpt lat="42.88636" lon="2.22816">
        <ele>380.7</ele>
        <time>2026-06-03T13:08:11.441889048Z</time>
      </trkpt>
      <trkpt lat="42.88638" lon="2.22813">
        <ele>381.02</ele>
        <time>2026-06-03T13:08:12.581917048Z</time>
      </trkpt>
      <trkpt lat="42.88639" lon="2.2281">
        <ele>381.35</ele>
        <time>2026-06-03T13:08:13.421741009Z</time>
      </trkpt>
      <trkpt lat="42.8864" lon="2.22807">
        <ele>381.71</ele>
        <time>2026-06-03T13:08:14.621006012Z</time>
      </trkpt>
      <trkpt lat="42.88641" lon="2.22804">
        <ele>382.07</ele>
        <time>2026-06-03T13:08:15.440471053Z</time>
      </trkpt>
      <trkpt lat="42.88642" lon="2.22801">
        <ele>382.44</ele>
        <time>2026-06-03T13:08:16.542021990Z</time>
      </trkpt>
      <trkpt lat="42.88643" lon="2.22798">
        <ele>382.76</ele>
        <time>2026-06-03T13:08:17.441944003Z</time>
      </trkpt>
      <trkpt lat="42.88644" lon="2.22795">
        <ele>383.08</ele>
        <time>2026-06-03T13:08:18.521793962Z</time>
      </trkpt>
      <trkpt lat="42.88645" lon="2.22792">
        <ele>383.4</ele>
        <time>2026-06-03T13:08:19.451190948Z</time>
      </trkpt>
      <trkpt lat="42.88646" lon="2.2279">
        <ele>383.71</ele>
        <time>2026-06-03T13:08:20.504148960Z</time>
      </trkpt>
      <trkpt lat="42.88647" lon="2.22787">
        <ele>384.03</ele>
        <time>2026-06-03T13:08:21.521970987Z</time>
      </trkpt>
      <trkpt lat="42.88649" lon="2.22784">
        <ele>384.36</ele>
        <time>2026-06-03T13:08:22.460837007Z</time>
      </trkpt>
      <trkpt lat="42.88651" lon="2.22781">
        <ele>384.72</ele>
        <time>2026-06-03T13:08:23.441802025Z</time>
      </trkpt>
      <trkpt lat="42.88652" lon="2.22779">
        <ele>385.12</ele>
        <time>2026-06-03T13:08:24.461454034Z</time>
      </trkpt>
      <trkpt lat="42.88654" lon="2.22777">
        <ele>385.54</ele>
        <time>2026-06-03T13:08:25.481112003Z</time>
      </trkpt>
      <trkpt lat="42.88656" lon="2.22774">
        <ele>386</ele>
        <time>2026-06-03T13:08:26.621386051Z</time>
      </trkpt>
      <trkpt lat="42.88658" lon="2.22772">
        <ele>386.47</ele>
        <time>2026-06-03T13:08:27.581365943Z</time>
      </trkpt>
      <trkpt lat="42.8866" lon="2.2277">
        <ele>386.92</ele>
        <time>2026-06-03T13:08:28.482157946Z</time>
      </trkpt>
      <trkpt lat="42.88662" lon="2.22768">
        <ele>387.33</ele>
        <time>2026-06-03T13:08:29.562229037Z</time>
      </trkpt>
      <trkpt lat="42.88663" lon="2.22765">
        <ele>387.72</ele>
        <time>2026-06-03T13:08:30.522390008Z</time>
      </trkpt>
      <trkpt lat="42.88663" lon="2.22762">
        <ele>388.06</ele>
        <time>2026-06-03T13:08:31.421296954Z</time>
      </trkpt>
      <trkpt lat="42.88666" lon="2.22759">
        <ele>388.34</ele>
        <time>2026-06-03T13:08:32.621253967Z</time>
      </trkpt>
      <trkpt lat="42.88668" lon="2.22757">
        <ele>388.6</ele>
        <time>2026-06-03T13:08:33.581599951Z</time>
      </trkpt>
      <trkpt lat="42.8867" lon="2.22756">
        <ele>388.82</ele>
        <time>2026-06-03T13:08:34.602146029Z</time>
      </trkpt>
      <trkpt lat="42.88671" lon="2.22755">
        <ele>389.05</ele>
        <time>2026-06-03T13:08:35.561596990Z</time>
      </trkpt>
      <trkpt lat="42.88673" lon="2.22754">
        <ele>389.26</ele>
        <time>2026-06-03T13:08:36.521936059Z</time>
      </trkpt>
      <trkpt lat="42.88676" lon="2.22753">
        <ele>389.47</ele>
        <time>2026-06-03T13:08:37.421689034Z</time>
      </trkpt>
      <trkpt lat="42.88678" lon="2.22752">
        <ele>389.69</ele>
        <time>2026-06-03T13:08:38.442428946Z</time>
      </trkpt>
      <trkpt lat="42.8868" lon="2.22751">
        <ele>389.93</ele>
        <time>2026-06-03T13:08:39.582481980Z</time>
      </trkpt>
      <trkpt lat="42.88682" lon="2.2275">
        <ele>390.32</ele>
        <time>2026-06-03T13:08:40.422917962Z</time>
      </trkpt>
      <trkpt lat="42.88684" lon="2.22748">
        <ele>390.7</ele>
        <time>2026-06-03T13:08:41.414620996Z</time>
      </trkpt>
      <trkpt lat="42.88687" lon="2.22747">
        <ele>391.07</ele>
        <time>2026-06-03T13:08:42.443212986Z</time>
      </trkpt>
      <trkpt lat="42.88689" lon="2.22745">
        <ele>391.44</ele>
        <time>2026-06-03T13:08:43.482311964Z</time>
      </trkpt>
      <trkpt lat="42.88691" lon="2.22745">
        <ele>391.8</ele>
        <time>2026-06-03T13:08:44.385588050Z</time>
      </trkpt>
      <trkpt lat="42.88693" lon="2.22743">
        <ele>392.16</ele>
        <time>2026-06-03T13:08:45.582399964Z</time>
      </trkpt>
      <trkpt lat="42.88695" lon="2.22742">
        <ele>392.53</ele>
        <time>2026-06-03T13:08:46.484251022Z</time>
      </trkpt>
      <trkpt lat="42.88697" lon="2.22741">
        <ele>392.83</ele>
        <time>2026-06-03T13:08:47.442445040Z</time>
      </trkpt>
      <trkpt lat="42.887" lon="2.2274">
        <ele>393.14</ele>
        <time>2026-06-03T13:08:48.522228956Z</time>
      </trkpt>
      <trkpt lat="42.88702" lon="2.22738">
        <ele>393.45</ele>
        <time>2026-06-03T13:08:49.482270956Z</time>
      </trkpt>
      <trkpt lat="42.88704" lon="2.22737">
        <ele>393.74</ele>
        <time>2026-06-03T13:08:50.562387943Z</time>
      </trkpt>
      <trkpt lat="42.88707" lon="2.22735">
        <ele>394.04</ele>
        <time>2026-06-03T13:08:51.582437992Z</time>
      </trkpt>
      <trkpt lat="42.88709" lon="2.22734">
        <ele>394.33</ele>
        <time>2026-06-03T13:08:52.447939992Z</time>
      </trkpt>
      <trkpt lat="42.88711" lon="2.22733">
        <ele>394.61</ele>
        <time>2026-06-03T13:08:53.521579027Z</time>
      </trkpt>
      <trkpt lat="42.88713" lon="2.22731">
        <ele>394.88</ele>
        <time>2026-06-03T13:08:54.462267041Z</time>
      </trkpt>
      <trkpt lat="42.88715" lon="2.2273">
        <ele>395.13</ele>
        <time>2026-06-03T13:08:55.602586985Z</time>
      </trkpt>
      <trkpt lat="42.88718" lon="2.22729">
        <ele>395.36</ele>
        <time>2026-06-03T13:08:56.622390985Z</time>
      </trkpt>
      <trkpt lat="42.8872" lon="2.22728">
        <ele>395.57</ele>
        <time>2026-06-03T13:08:57.463943005Z</time>
      </trkpt>
      <trkpt lat="42.88721" lon="2.22728">
        <ele>395.78</ele>
        <time>2026-06-03T13:08:58.482244968Z</time>
      </trkpt>
      <trkpt lat="42.88723" lon="2.22727">
        <ele>395.98</ele>
        <time>2026-06-03T13:08:59.622248054Z</time>
      </trkpt>
      <trkpt lat="42.88726" lon="2.22727">
        <ele>396.19</ele>
        <time>2026-06-03T13:09:00.582559943Z</time>
      </trkpt>
      <trkpt lat="42.88728" lon="2.22726">
        <ele>396.41</ele>
        <time>2026-06-03T13:09:01.604001999Z</time>
      </trkpt>
      <trkpt lat="42.8873" lon="2.22726">
        <ele>396.6</ele>
        <time>2026-06-03T13:09:02.562613964Z</time>
      </trkpt>
      <trkpt lat="42.88732" lon="2.22725">
        <ele>396.8</ele>
        <time>2026-06-03T13:09:03.464014053Z</time>
      </trkpt>
      <trkpt lat="42.88734" lon="2.22725">
        <ele>396.99</ele>
        <time>2026-06-03T13:09:04.422381997Z</time>
      </trkpt>
      <trkpt lat="42.88736" lon="2.22724">
        <ele>397.19</ele>
        <time>2026-06-03T13:09:05.622575045Z</time>
      </trkpt>
      <trkpt lat="42.88739" lon="2.22724">
        <ele>397.39</ele>
        <time>2026-06-03T13:09:06.582962990Z</time>
      </trkpt>
      <trkpt lat="42.88742" lon="2.22723">
        <ele>397.59</ele>
        <time>2026-06-03T13:09:07.441586971Z</time>
      </trkpt>
      <trkpt lat="42.88744" lon="2.22723">
        <ele>397.79</ele>
        <time>2026-06-03T13:09:08.515346050Z</time>
      </trkpt>
      <trkpt lat="42.88747" lon="2.22723">
        <ele>398.01</ele>
        <time>2026-06-03T13:09:09.589305043Z</time>
      </trkpt>
      <trkpt lat="42.88749" lon="2.22722">
        <ele>398.21</ele>
        <time>2026-06-03T13:09:10.483144999Z</time>
      </trkpt>
      <trkpt lat="42.88751" lon="2.22722">
        <ele>398.41</ele>
        <time>2026-06-03T13:09:11.622810960Z</time>
      </trkpt>
      <trkpt lat="42.88754" lon="2.22721">
        <ele>398.61</ele>
        <time>2026-06-03T13:09:12.522683978Z</time>
      </trkpt>
      <trkpt lat="42.88757" lon="2.22721">
        <ele>398.8</ele>
        <time>2026-06-03T13:09:13.542114973Z</time>
      </trkpt>
      <trkpt lat="42.88759" lon="2.22721">
        <ele>398.98</ele>
        <time>2026-06-03T13:09:14.502110958Z</time>
      </trkpt>
      <trkpt lat="42.88762" lon="2.22721">
        <ele>399.15</ele>
        <time>2026-06-03T13:09:15.583104014Z</time>
      </trkpt>
      <trkpt lat="42.88763" lon="2.2272">
        <ele>399.31</ele>
        <time>2026-06-03T13:09:16.602831006Z</time>
      </trkpt>
      <trkpt lat="42.88766" lon="2.2272">
        <ele>399.44</ele>
        <time>2026-06-03T13:09:17.562407970Z</time>
      </trkpt>
      <trkpt lat="42.88769" lon="2.2272">
        <ele>399.56</ele>
        <time>2026-06-03T13:09:18.462448001Z</time>
      </trkpt>
      <trkpt lat="42.88771" lon="2.2272">
        <ele>399.68</ele>
        <time>2026-06-03T13:09:19.602677941Z</time>
      </trkpt>
      <trkpt lat="42.88773" lon="2.22721">
        <ele>399.79</ele>
        <time>2026-06-03T13:09:20.622256994Z</time>
      </trkpt>
      <trkpt lat="42.88776" lon="2.22721">
        <ele>399.92</ele>
        <time>2026-06-03T13:09:21.466930985Z</time>
      </trkpt>
      <trkpt lat="42.88778" lon="2.22722">
        <ele>400.06</ele>
        <time>2026-06-03T13:09:22.603101969Z</time>
      </trkpt>
      <trkpt lat="42.88781" lon="2.22722">
        <ele>400.22</ele>
        <time>2026-06-03T13:09:23.502486944Z</time>
      </trkpt>
      <trkpt lat="42.88783" lon="2.22722">
        <ele>400.4</ele>
        <time>2026-06-03T13:09:24.402686954Z</time>
      </trkpt>
      <trkpt lat="42.88785" lon="2.22721">
        <ele>400.59</ele>
        <time>2026-06-03T13:09:25.542250991Z</time>
      </trkpt>
      <trkpt lat="42.88787" lon="2.2272">
        <ele>400.79</ele>
        <time>2026-06-03T13:09:26.622684002Z</time>
      </trkpt>
      <trkpt lat="42.88789" lon="2.22718">
        <ele>400.99</ele>
        <time>2026-06-03T13:09:27.513656020Z</time>
      </trkpt>
      <trkpt lat="42.88789" lon="2.22716">
        <ele>401.19</ele>
        <time>2026-06-03T13:09:28.602802992Z</time>
      </trkpt>
      <trkpt lat="42.88791" lon="2.22713">
        <ele>401.38</ele>
        <time>2026-06-03T13:09:29.501675963Z</time>
      </trkpt>
      <trkpt lat="42.88792" lon="2.2271">
        <ele>401.57</ele>
        <time>2026-06-03T13:09:30.642454982Z</time>
      </trkpt>
      <trkpt lat="42.88792" lon="2.22707">
        <ele>401.77</ele>
        <time>2026-06-03T13:09:31.542863011Z</time>
      </trkpt>
      <trkpt lat="42.88793" lon="2.22704">
        <ele>401.93</ele>
        <time>2026-06-03T13:09:32.562654018Z</time>
      </trkpt>
      <trkpt lat="42.88794" lon="2.22701">
        <ele>402.1</ele>
        <time>2026-06-03T13:09:33.582595944Z</time>
      </trkpt>
      <trkpt lat="42.88794" lon="2.22698">
        <ele>402.27</ele>
        <time>2026-06-03T13:09:34.482928991Z</time>
      </trkpt>
      <trkpt lat="42.88795" lon="2.22695">
        <ele>402.45</ele>
        <time>2026-06-03T13:09:35.622588992Z</time>
      </trkpt>
      <trkpt lat="42.88795" lon="2.22692">
        <ele>402.64</ele>
        <time>2026-06-03T13:09:36.582743049Z</time>
      </trkpt>
      <trkpt lat="42.88796" lon="2.22688">
        <ele>402.85</ele>
        <time>2026-06-03T13:09:37.439105988Z</time>
      </trkpt>
      <trkpt lat="42.88797" lon="2.22685">
        <ele>403.06</ele>
        <time>2026-06-03T13:09:38.502925038Z</time>
      </trkpt>
      <trkpt lat="42.88799" lon="2.22682">
        <ele>403.3</ele>
        <time>2026-06-03T13:09:39.462692022Z</time>
      </trkpt>
      <trkpt lat="42.888" lon="2.22679">
        <ele>403.72</ele>
        <time>2026-06-03T13:09:40.422880054Z</time>
      </trkpt>
      <trkpt lat="42.88801" lon="2.22676">
        <ele>404.13</ele>
        <time>2026-06-03T13:09:41.502779961Z</time>
      </trkpt>
      <trkpt lat="42.88802" lon="2.22673">
        <ele>404.53</ele>
        <time>2026-06-03T13:09:42.642742038Z</time>
      </trkpt>
      <trkpt lat="42.88803" lon="2.2267">
        <ele>404.94</ele>
        <time>2026-06-03T13:09:43.602758050Z</time>
      </trkpt>
      <trkpt lat="42.88804" lon="2.22668">
        <ele>405.32</ele>
        <time>2026-06-03T13:09:44.502647042Z</time>
      </trkpt>
      <trkpt lat="42.88806" lon="2.22665">
        <ele>405.69</ele>
        <time>2026-06-03T13:09:45.522745013Z</time>
      </trkpt>
      <trkpt lat="42.88807" lon="2.22662">
        <ele>406.05</ele>
        <time>2026-06-03T13:09:46.482941985Z</time>
      </trkpt>
      <trkpt lat="42.88808" lon="2.22659">
        <ele>406.35</ele>
        <time>2026-06-03T13:09:47.503062010Z</time>
      </trkpt>
      <trkpt lat="42.8881" lon="2.22657">
        <ele>406.64</ele>
        <time>2026-06-03T13:09:48.642873049Z</time>
      </trkpt>
      <trkpt lat="42.88811" lon="2.22654">
        <ele>406.94</ele>
        <time>2026-06-03T13:09:49.603201985Z</time>
      </trkpt>
      <trkpt lat="42.88813" lon="2.22651">
        <ele>407.23</ele>
        <time>2026-06-03T13:09:50.503198981Z</time>
      </trkpt>
      <trkpt lat="42.88815" lon="2.22649">
        <ele>407.52</ele>
        <time>2026-06-03T13:09:51.582821965Z</time>
      </trkpt>
      <trkpt lat="42.88816" lon="2.22646">
        <ele>407.8</ele>
        <time>2026-06-03T13:09:52.432811022Z</time>
      </trkpt>
      <trkpt lat="42.88818" lon="2.22644">
        <ele>408.08</ele>
        <time>2026-06-03T13:09:53.496554971Z</time>
      </trkpt>
      <trkpt lat="42.88821" lon="2.22642">
        <ele>408.36</ele>
        <time>2026-06-03T13:09:54.464735985Z</time>
      </trkpt>
      <trkpt lat="42.88822" lon="2.2264">
        <ele>408.63</ele>
        <time>2026-06-03T13:09:55.478451014Z</time>
      </trkpt>
      <trkpt lat="42.88824" lon="2.22638">
        <ele>408.91</ele>
        <time>2026-06-03T13:09:56.623492002Z</time>
      </trkpt>
      <trkpt lat="42.88826" lon="2.22637">
        <ele>409.18</ele>
        <time>2026-06-03T13:09:57.465018034Z</time>
      </trkpt>
      <trkpt lat="42.88828" lon="2.22635">
        <ele>409.45</ele>
        <time>2026-06-03T13:09:58.370424986Z</time>
      </trkpt>
      <trkpt lat="42.88831" lon="2.22633">
        <ele>409.72</ele>
        <time>2026-06-03T13:09:59.563182950Z</time>
      </trkpt>
      <trkpt lat="42.88832" lon="2.22632">
        <ele>410.01</ele>
        <time>2026-06-03T13:10:00.463731050Z</time>
      </trkpt>
      <trkpt lat="42.88835" lon="2.2263">
        <ele>410.3</ele>
        <time>2026-06-03T13:10:01.603274941Z</time>
      </trkpt>
      <trkpt lat="42.88837" lon="2.2263">
        <ele>410.55</ele>
        <time>2026-06-03T13:10:02.623749971Z</time>
      </trkpt>
      <trkpt lat="42.88839" lon="2.22629">
        <ele>410.8</ele>
        <time>2026-06-03T13:10:03.643247008Z</time>
      </trkpt>
      <trkpt lat="42.88842" lon="2.22627">
        <ele>411.06</ele>
        <time>2026-06-03T13:10:04.663185954Z</time>
      </trkpt>
      <trkpt lat="42.88844" lon="2.22626">
        <ele>411.32</ele>
        <time>2026-06-03T13:10:05.444869995Z</time>
      </trkpt>
      <trkpt lat="42.88846" lon="2.22624">
        <ele>411.56</ele>
        <time>2026-06-03T13:10:06.448701024Z</time>
      </trkpt>
      <trkpt lat="42.88848" lon="2.22623">
        <ele>411.8</ele>
        <time>2026-06-03T13:10:07.426432967Z</time>
      </trkpt>
      <trkpt lat="42.8885" lon="2.22622">
        <ele>412.02</ele>
        <time>2026-06-03T13:10:08.390856981Z</time>
      </trkpt>
      <trkpt lat="42.88853" lon="2.22621">
        <ele>412.23</ele>
        <time>2026-06-03T13:10:09.523195028Z</time>
      </trkpt>
      <trkpt lat="42.88855" lon="2.2262">
        <ele>412.45</ele>
        <time>2026-06-03T13:10:10.543442011Z</time>
      </trkpt>
      <trkpt lat="42.88857" lon="2.22619">
        <ele>412.67</ele>
        <time>2026-06-03T13:10:11.623142004Z</time>
      </trkpt>
      <trkpt lat="42.88859" lon="2.22619">
        <ele>412.9</ele>
        <time>2026-06-03T13:10:12.643635988Z</time>
      </trkpt>
      <trkpt lat="42.88862" lon="2.22617">
        <ele>413.13</ele>
        <time>2026-06-03T13:10:13.423622012Z</time>
      </trkpt>
      <trkpt lat="42.88865" lon="2.22616">
        <ele>413.37</ele>
        <time>2026-06-03T13:10:14.443829060Z</time>
      </trkpt>
      <trkpt lat="42.88867" lon="2.22615">
        <ele>413.62</ele>
        <time>2026-06-03T13:10:15.523362041Z</time>
      </trkpt>
      <trkpt lat="42.88869" lon="2.22614">
        <ele>413.87</ele>
        <time>2026-06-03T13:10:16.543264985Z</time>
      </trkpt>
      <trkpt lat="42.88871" lon="2.22613">
        <ele>414.08</ele>
        <time>2026-06-03T13:10:17.443567991Z</time>
      </trkpt>
      <trkpt lat="42.88873" lon="2.22611">
        <ele>414.3</ele>
        <time>2026-06-03T13:10:18.583220005Z</time>
      </trkpt>
      <trkpt lat="42.88875" lon="2.2261">
        <ele>414.51</ele>
        <time>2026-06-03T13:10:19.423269033Z</time>
      </trkpt>
      <trkpt lat="42.88878" lon="2.22609">
        <ele>414.74</ele>
        <time>2026-06-03T13:10:20.623237967Z</time>
      </trkpt>
      <trkpt lat="42.8888" lon="2.22609">
        <ele>414.96</ele>
        <time>2026-06-03T13:10:21.403779030Z</time>
      </trkpt>
      <trkpt lat="42.88882" lon="2.22608">
        <ele>415.19</ele>
        <time>2026-06-03T13:10:22.423463941Z</time>
      </trkpt>
      <trkpt lat="42.88884" lon="2.22609">
        <ele>415.43</ele>
        <time>2026-06-03T13:10:23.494060040Z</time>
      </trkpt>
      <trkpt lat="42.88887" lon="2.22609">
        <ele>415.68</ele>
        <time>2026-06-03T13:10:24.465288043Z</time>
      </trkpt>
      <trkpt lat="42.88889" lon="2.22609">
        <ele>415.93</ele>
        <time>2026-06-03T13:10:25.423406005Z</time>
      </trkpt>
      <trkpt lat="42.88892" lon="2.22609">
        <ele>416.21</ele>
        <time>2026-06-03T13:10:26.623769045Z</time>
      </trkpt>
      <trkpt lat="42.88894" lon="2.22609">
        <ele>416.49</ele>
        <time>2026-06-03T13:10:27.412431955Z</time>
      </trkpt>
      <trkpt lat="42.88896" lon="2.2261">
        <ele>416.75</ele>
        <time>2026-06-03T13:10:28.603412032Z</time>
      </trkpt>
      <trkpt lat="42.88899" lon="2.22611">
        <ele>417.02</ele>
        <time>2026-06-03T13:10:29.563982010Z</time>
      </trkpt>
      <trkpt lat="42.88901" lon="2.22611">
        <ele>417.27</ele>
        <time>2026-06-03T13:10:30.583755970Z</time>
      </trkpt>
      <trkpt lat="42.88903" lon="2.22613">
        <ele>417.51</ele>
        <time>2026-06-03T13:10:31.422708988Z</time>
      </trkpt>
      <trkpt lat="42.88906" lon="2.22614">
        <ele>417.71</ele>
        <time>2026-06-03T13:10:32.563699007Z</time>
      </trkpt>
      <trkpt lat="42.88908" lon="2.22614">
        <ele>417.92</ele>
        <time>2026-06-03T13:10:33.585260987Z</time>
      </trkpt>
      <trkpt lat="42.8891" lon="2.22615">
        <ele>418.12</ele>
        <time>2026-06-03T13:10:34.664088011Z</time>
      </trkpt>
      <trkpt lat="42.88913" lon="2.22616">
        <ele>418.33</ele>
        <time>2026-06-03T13:10:35.506083012Z</time>
      </trkpt>
      <trkpt lat="42.88915" lon="2.22617">
        <ele>418.55</ele>
        <time>2026-06-03T13:10:36.463255048Z</time>
      </trkpt>
      <trkpt lat="42.88917" lon="2.22618">
        <ele>418.76</ele>
        <time>2026-06-03T13:10:37.423650026Z</time>
      </trkpt>
      <trkpt lat="42.88919" lon="2.22619">
        <ele>418.97</ele>
        <time>2026-06-03T13:10:38.487908959Z</time>
      </trkpt>
      <trkpt lat="42.88922" lon="2.2262">
        <ele>419.17</ele>
        <time>2026-06-03T13:10:39.561602950Z</time>
      </trkpt>
      <trkpt lat="42.88924" lon="2.22621">
        <ele>419.23</ele>
        <time>2026-06-03T13:10:40.603628039Z</time>
      </trkpt>
      <trkpt lat="42.88926" lon="2.22623">
        <ele>419.29</ele>
        <time>2026-06-03T13:10:41.503919005Z</time>
      </trkpt>
      <trkpt lat="42.88928" lon="2.22626">
        <ele>419.34</ele>
        <time>2026-06-03T13:10:42.643942952Z</time>
      </trkpt>
      <trkpt lat="42.8893" lon="2.22628">
        <ele>419.38</ele>
        <time>2026-06-03T13:10:43.664098978Z</time>
      </trkpt>
      <trkpt lat="42.88932" lon="2.2263">
        <ele>419.4</ele>
        <time>2026-06-03T13:10:44.623639941Z</time>
      </trkpt>
      <trkpt lat="42.88933" lon="2.22632">
        <ele>419.42</ele>
        <time>2026-06-03T13:10:45.463384986Z</time>
      </trkpt>
      <trkpt lat="42.88934" lon="2.22633">
        <ele>419.43</ele>
        <time>2026-06-03T13:10:46.664121032Z</time>
      </trkpt>
      <trkpt lat="42.88935" lon="2.22636">
        <ele>419.44</ele>
        <time>2026-06-03T13:10:47.454087973Z</time>
      </trkpt>
      <trkpt lat="42.88937" lon="2.22638">
        <ele>419.45</ele>
        <time>2026-06-03T13:10:48.583593011Z</time>
      </trkpt>
      <trkpt lat="42.88938" lon="2.22641">
        <ele>419.46</ele>
        <time>2026-06-03T13:10:49.433339Z</time>
      </trkpt>
      <trkpt lat="42.8894" lon="2.22642">
        <ele>419.48</ele>
        <time>2026-06-03T13:10:50.623692989Z</time>
      </trkpt>
      <trkpt lat="42.88942" lon="2.22643">
        <ele>419.52</ele>
        <time>2026-06-03T13:10:51.643882990Z</time>
      </trkpt>
      <trkpt lat="42.88944" lon="2.22644">
        <ele>419.58</ele>
        <time>2026-06-03T13:10:52.664070964Z</time>
      </trkpt>
      <trkpt lat="42.88947" lon="2.22644">
        <ele>419.66</ele>
        <time>2026-06-03T13:10:53.491451979Z</time>
      </trkpt>
      <trkpt lat="42.8895" lon="2.22643">
        <ele>419.75</ele>
        <time>2026-06-03T13:10:54.463953972Z</time>
      </trkpt>
      <trkpt lat="42.88952" lon="2.22642">
        <ele>419.85</ele>
        <time>2026-06-03T13:10:55.544059038Z</time>
      </trkpt>
      <trkpt lat="42.88955" lon="2.22642">
        <ele>419.96</ele>
        <time>2026-06-03T13:10:56.623787045Z</time>
      </trkpt>
      <trkpt lat="42.88957" lon="2.22641">
        <ele>420.07</ele>
        <time>2026-06-03T13:10:57.644166946Z</time>
      </trkpt>
      <trkpt lat="42.8896" lon="2.2264">
        <ele>420.18</ele>
        <time>2026-06-03T13:10:58.544026971Z</time>
      </trkpt>
      <trkpt lat="42.88962" lon="2.22639">
        <ele>420.28</ele>
        <time>2026-06-03T13:10:59.504073024Z</time>
      </trkpt>
      <trkpt lat="42.88965" lon="2.22638">
        <ele>420.39</ele>
        <time>2026-06-03T13:11:00.463608027Z</time>
      </trkpt>
      <trkpt lat="42.88966" lon="2.22637">
        <ele>420.51</ele>
        <time>2026-06-03T13:11:01.663159966Z</time>
      </trkpt>
      <trkpt lat="42.88969" lon="2.22637">
        <ele>420.6</ele>
        <time>2026-06-03T13:11:02.451817989Z</time>
      </trkpt>
      <trkpt lat="42.88971" lon="2.22637">
        <ele>420.71</ele>
        <time>2026-06-03T13:11:03.464051962Z</time>
      </trkpt>
      <trkpt lat="42.88974" lon="2.22636">
        <ele>420.82</ele>
        <time>2026-06-03T13:11:04.484022021Z</time>
      </trkpt>
      <trkpt lat="42.88976" lon="2.22636">
        <ele>420.93</ele>
        <time>2026-06-03T13:11:05.684198976Z</time>
      </trkpt>
      <trkpt lat="42.88979" lon="2.22636">
        <ele>421.05</ele>
        <time>2026-06-03T13:11:06.524391055Z</time>
      </trkpt>
      <trkpt lat="42.88981" lon="2.22636">
        <ele>421.18</ele>
        <time>2026-06-03T13:11:07.664531946Z</time>
      </trkpt>
      <trkpt lat="42.88983" lon="2.22636">
        <ele>421.3</ele>
        <time>2026-06-03T13:11:08.485365033Z</time>
      </trkpt>
      <trkpt lat="42.88986" lon="2.22636">
        <ele>421.41</ele>
        <time>2026-06-03T13:11:09.559391022Z</time>
      </trkpt>
      <trkpt lat="42.88989" lon="2.22636">
        <ele>421.51</ele>
        <time>2026-06-03T13:11:10.544245958Z</time>
      </trkpt>
      <trkpt lat="42.88991" lon="2.22636">
        <ele>421.59</ele>
        <time>2026-06-03T13:11:11.504639030Z</time>
      </trkpt>
      <trkpt lat="42.88993" lon="2.22636">
        <ele>421.69</ele>
        <time>2026-06-03T13:11:12.584359050Z</time>
      </trkpt>
      <trkpt lat="42.88996" lon="2.22636">
        <ele>421.8</ele>
        <time>2026-06-03T13:11:13.543928981Z</time>
      </trkpt>
      <trkpt lat="42.88998" lon="2.22636">
        <ele>421.95</ele>
        <time>2026-06-03T13:11:14.504322052Z</time>
      </trkpt>
      <trkpt lat="42.89001" lon="2.22636">
        <ele>422.13</ele>
        <time>2026-06-03T13:11:15.644137025Z</time>
      </trkpt>
      <trkpt lat="42.89003" lon="2.22636">
        <ele>422.33</ele>
        <time>2026-06-03T13:11:16.604730964Z</time>
      </trkpt>
      <trkpt lat="42.89006" lon="2.22636">
        <ele>422.51</ele>
        <time>2026-06-03T13:11:17.623522997Z</time>
      </trkpt>
      <trkpt lat="42.89008" lon="2.22636">
        <ele>422.7</ele>
        <time>2026-06-03T13:11:18.464194059Z</time>
      </trkpt>
      <trkpt lat="42.89011" lon="2.22636">
        <ele>422.88</ele>
        <time>2026-06-03T13:11:19.484339952Z</time>
      </trkpt>
      <trkpt lat="42.89013" lon="2.22635">
        <ele>423.06</ele>
        <time>2026-06-03T13:11:20.624366999Z</time>
      </trkpt>
      <trkpt lat="42.89015" lon="2.22635">
        <ele>423.25</ele>
        <time>2026-06-03T13:11:21.524302006Z</time>
      </trkpt>
      <trkpt lat="42.89018" lon="2.22635">
        <ele>423.46</ele>
        <time>2026-06-03T13:11:22.484626055Z</time>
      </trkpt>
      <trkpt lat="42.8902" lon="2.22634">
        <ele>423.67</ele>
        <time>2026-06-03T13:11:23.479168057Z</time>
      </trkpt>
      <trkpt lat="42.89022" lon="2.22633">
        <ele>423.91</ele>
        <time>2026-06-03T13:11:24.553359985Z</time>
      </trkpt>
      <trkpt lat="42.89025" lon="2.22633">
        <ele>424.17</ele>
        <time>2026-06-03T13:11:25.544657946Z</time>
      </trkpt>
      <trkpt lat="42.89028" lon="2.22632">
        <ele>424.46</ele>
        <time>2026-06-03T13:11:26.624421954Z</time>
      </trkpt>
      <trkpt lat="42.8903" lon="2.22631">
        <ele>424.77</ele>
        <time>2026-06-03T13:11:27.584588051Z</time>
      </trkpt>
      <trkpt lat="42.89032" lon="2.2263">
        <ele>425.13</ele>
        <time>2026-06-03T13:11:28.664523959Z</time>
      </trkpt>
      <trkpt lat="42.89035" lon="2.2263">
        <ele>425.5</ele>
        <time>2026-06-03T13:11:29.443555951Z</time>
      </trkpt>
      <trkpt lat="42.89038" lon="2.22629">
        <ele>425.9</ele>
        <time>2026-06-03T13:11:30.474079013Z</time>
      </trkpt>
      <trkpt lat="42.8904" lon="2.22629">
        <ele>426.31</ele>
        <time>2026-06-03T13:11:31.664553046Z</time>
      </trkpt>
      <trkpt lat="42.89042" lon="2.22628">
        <ele>426.65</ele>
        <time>2026-06-03T13:11:32.564298034Z</time>
      </trkpt>
      <trkpt lat="42.89045" lon="2.22628">
        <ele>427.01</ele>
        <time>2026-06-03T13:11:33.464732051Z</time>
      </trkpt>
      <trkpt lat="42.89048" lon="2.22628">
        <ele>427.37</ele>
        <time>2026-06-03T13:11:34.604848027Z</time>
      </trkpt>
      <trkpt lat="42.8905" lon="2.22628">
        <ele>427.74</ele>
        <time>2026-06-03T13:11:35.624876976Z</time>
      </trkpt>
      <trkpt lat="42.89053" lon="2.22628">
        <ele>428.1</ele>
        <time>2026-06-03T13:11:36.644706011Z</time>
      </trkpt>
      <trkpt lat="42.89056" lon="2.22628">
        <ele>428.46</ele>
        <time>2026-06-03T13:11:37.409523964Z</time>
      </trkpt>
      <trkpt lat="42.89058" lon="2.22628">
        <ele>428.83</ele>
        <time>2026-06-03T13:11:38.473822951Z</time>
      </trkpt>
      <trkpt lat="42.89059" lon="2.22629">
        <ele>429.2</ele>
        <time>2026-06-03T13:11:39.547346950Z</time>
      </trkpt>
      <trkpt lat="42.89061" lon="2.22629">
        <ele>429.74</ele>
        <time>2026-06-03T13:11:40.620898008Z</time>
      </trkpt>
      <trkpt lat="42.89064" lon="2.22631">
        <ele>430.27</ele>
        <time>2026-06-03T13:11:41.624709964Z</time>
      </trkpt>
      <trkpt lat="42.89067" lon="2.22632">
        <ele>430.78</ele>
        <time>2026-06-03T13:11:42.645179033Z</time>
      </trkpt>
      <trkpt lat="42.89069" lon="2.22633">
        <ele>431.28</ele>
        <time>2026-06-03T13:11:43.664710999Z</time>
      </trkpt>
      <trkpt lat="42.89071" lon="2.22634">
        <ele>431.76</ele>
        <time>2026-06-03T13:11:44.453353047Z</time>
      </trkpt>
      <trkpt lat="42.89074" lon="2.22635">
        <ele>432.22</ele>
        <time>2026-06-03T13:11:45.435282946Z</time>
      </trkpt>
      <trkpt lat="42.89076" lon="2.22636">
        <ele>432.67</ele>
        <time>2026-06-03T13:11:46.545670986Z</time>
      </trkpt>
      <trkpt lat="42.89078" lon="2.22636">
        <ele>433.04</ele>
        <time>2026-06-03T13:11:47.625144005Z</time>
      </trkpt>
      <trkpt lat="42.89081" lon="2.22637">
        <ele>433.41</ele>
        <time>2026-06-03T13:11:48.645176053Z</time>
      </trkpt>
      <trkpt lat="42.89084" lon="2.22637">
        <ele>433.77</ele>
        <time>2026-06-03T13:11:49.665191054Z</time>
      </trkpt>
      <trkpt lat="42.89087" lon="2.22637">
        <ele>434.13</ele>
        <time>2026-06-03T13:11:50.685477018Z</time>
      </trkpt>
      <trkpt lat="42.89089" lon="2.22636">
        <ele>434.49</ele>
        <time>2026-06-03T13:11:51.420281053Z</time>
      </trkpt>
      <trkpt lat="42.89092" lon="2.22637">
        <ele>434.86</ele>
        <time>2026-06-03T13:11:52.605476975Z</time>
      </trkpt>
      <trkpt lat="42.89095" lon="2.22636">
        <ele>435.23</ele>
        <time>2026-06-03T13:11:53.384912968Z</time>
      </trkpt>
      <trkpt lat="42.89097" lon="2.22635">
        <ele>435.59</ele>
        <time>2026-06-03T13:11:54.541206002Z</time>
      </trkpt>
      <trkpt lat="42.89099" lon="2.22635">
        <ele>435.94</ele>
        <time>2026-06-03T13:11:55.614920974Z</time>
      </trkpt>
      <trkpt lat="42.89101" lon="2.22634">
        <ele>436.29</ele>
        <time>2026-06-03T13:11:56.416053057Z</time>
      </trkpt>
      <trkpt lat="42.89103" lon="2.22632">
        <ele>436.62</ele>
        <time>2026-06-03T13:11:57.418444991Z</time>
      </trkpt>
      <trkpt lat="42.89106" lon="2.22632">
        <ele>436.97</ele>
        <time>2026-06-03T13:11:58.425147057Z</time>
      </trkpt>
      <trkpt lat="42.89107" lon="2.2263">
        <ele>437.32</ele>
        <time>2026-06-03T13:11:59.625005960Z</time>
      </trkpt>
      <trkpt lat="42.89109" lon="2.22629">
        <ele>437.66</ele>
        <time>2026-06-03T13:12:00.644585013Z</time>
      </trkpt>
      <trkpt lat="42.89111" lon="2.22627">
        <ele>437.99</ele>
        <time>2026-06-03T13:12:01.544319987Z</time>
      </trkpt>
      <trkpt lat="42.89113" lon="2.22625">
        <ele>438.27</ele>
        <time>2026-06-03T13:12:02.445011973Z</time>
      </trkpt>
      <trkpt lat="42.89115" lon="2.22622">
        <ele>438.53</ele>
        <time>2026-06-03T13:12:03.644927025Z</time>
      </trkpt>
      <trkpt lat="42.89116" lon="2.2262">
        <ele>438.77</ele>
        <time>2026-06-03T13:12:04.425019026Z</time>
      </trkpt>
      <trkpt lat="42.89118" lon="2.22618">
        <ele>438.99</ele>
        <time>2026-06-03T13:12:05.445109963Z</time>
      </trkpt>
      <trkpt lat="42.8912" lon="2.22616">
        <ele>439.18</ele>
        <time>2026-06-03T13:12:06.585237026Z</time>
      </trkpt>
      <trkpt lat="42.89122" lon="2.22613">
        <ele>439.35</ele>
        <time>2026-06-03T13:12:07.411200047Z</time>
      </trkpt>
      <trkpt lat="42.89124" lon="2.2261">
        <ele>439.5</ele>
        <time>2026-06-03T13:12:08.471503973Z</time>
      </trkpt>
      <trkpt lat="42.89126" lon="2.22606">
        <ele>439.64</ele>
        <time>2026-06-03T13:12:09.526595950Z</time>
      </trkpt>
      <trkpt lat="42.89128" lon="2.22603">
        <ele>439.76</ele>
        <time>2026-06-03T13:12:10.545392036Z</time>
      </trkpt>
      <trkpt lat="42.89131" lon="2.22599">
        <ele>439.88</ele>
        <time>2026-06-03T13:12:11.625440001Z</time>
      </trkpt>
      <trkpt lat="42.89133" lon="2.22595">
        <ele>440</ele>
        <time>2026-06-03T13:12:12.645627022Z</time>
      </trkpt>
      <trkpt lat="42.89135" lon="2.22592">
        <ele>440.11</ele>
        <time>2026-06-03T13:12:13.545456052Z</time>
      </trkpt>
      <trkpt lat="42.89138" lon="2.22588">
        <ele>440.22</ele>
        <time>2026-06-03T13:12:14.565428972Z</time>
      </trkpt>
      <trkpt lat="42.89139" lon="2.22585">
        <ele>440.33</ele>
        <time>2026-06-03T13:12:15.645617962Z</time>
      </trkpt>
      <trkpt lat="42.89142" lon="2.22581">
        <ele>440.43</ele>
        <time>2026-06-03T13:12:16.485291958Z</time>
      </trkpt>
      <trkpt lat="42.89144" lon="2.22577">
        <ele>440.52</ele>
        <time>2026-06-03T13:12:17.624585986Z</time>
      </trkpt>
      <trkpt lat="42.89147" lon="2.22573">
        <ele>440.6</ele>
        <time>2026-06-03T13:12:18.404654026Z</time>
      </trkpt>
      <trkpt lat="42.89148" lon="2.2257">
        <ele>440.68</ele>
        <time>2026-06-03T13:12:19.665050983Z</time>
      </trkpt>
      <trkpt lat="42.8915" lon="2.22566">
        <ele>440.75</ele>
        <time>2026-06-03T13:12:20.505023003Z</time>
      </trkpt>
      <trkpt lat="42.89153" lon="2.22562">
        <ele>440.82</ele>
        <time>2026-06-03T13:12:21.465356946Z</time>
      </trkpt>
      <trkpt lat="42.89154" lon="2.22558">
        <ele>440.89</ele>
        <time>2026-06-03T13:12:22.664616942Z</time>
      </trkpt>
      <trkpt lat="42.89156" lon="2.22554">
        <ele>440.96</ele>
        <time>2026-06-03T13:12:23.465335965Z</time>
      </trkpt>
      <trkpt lat="42.89158" lon="2.2255">
        <ele>441.03</ele>
        <time>2026-06-03T13:12:24.408750057Z</time>
      </trkpt>
      <trkpt lat="42.8916" lon="2.22546">
        <ele>441.1</ele>
        <time>2026-06-03T13:12:25.613397956Z</time>
      </trkpt>
      <trkpt lat="42.89162" lon="2.22542">
        <ele>441.17</ele>
        <time>2026-06-03T13:12:26.447968960Z</time>
      </trkpt>
      <trkpt lat="42.89164" lon="2.22538">
        <ele>441.24</ele>
        <time>2026-06-03T13:12:27.466501951Z</time>
      </trkpt>
      <trkpt lat="42.89166" lon="2.22535">
        <ele>441.31</ele>
        <time>2026-06-03T13:12:28.485409975Z</time>
      </trkpt>
      <trkpt lat="42.89168" lon="2.22534">
        <ele>441.38</ele>
        <time>2026-06-03T13:12:29.567168951Z</time>
      </trkpt>
      <trkpt lat="42.89171" lon="2.22534">
        <ele>441.47</ele>
        <time>2026-06-03T13:12:30.585440993Z</time>
      </trkpt>
      <trkpt lat="42.89174" lon="2.22534">
        <ele>441.56</ele>
        <time>2026-06-03T13:12:31.665580988Z</time>
      </trkpt>
      <trkpt lat="42.89177" lon="2.22532">
        <ele>441.68</ele>
        <time>2026-06-03T13:12:32.625637054Z</time>
      </trkpt>
      <trkpt lat="42.8918" lon="2.22532">
        <ele>441.79</ele>
        <time>2026-06-03T13:12:33.645787954Z</time>
      </trkpt>
      <trkpt lat="42.89183" lon="2.2253">
        <ele>441.91</ele>
        <time>2026-06-03T13:12:34.665508032Z</time>
      </trkpt>
      <trkpt lat="42.89185" lon="2.22528">
        <ele>442.05</ele>
        <time>2026-06-03T13:12:35.569640994Z</time>
      </trkpt>
      <trkpt lat="42.89187" lon="2.22524">
        <ele>442.19</ele>
        <time>2026-06-03T13:12:36.392081022Z</time>
      </trkpt>
      <trkpt lat="42.89189" lon="2.22521">
        <ele>442.32</ele>
        <time>2026-06-03T13:12:37.605597019Z</time>
      </trkpt>
      <trkpt lat="42.89191" lon="2.22517">
        <ele>442.44</ele>
        <time>2026-06-03T13:12:38.505373001Z</time>
      </trkpt>
      <trkpt lat="42.89193" lon="2.22514">
        <ele>442.55</ele>
        <time>2026-06-03T13:12:39.533563972Z</time>
      </trkpt>
      <trkpt lat="42.89194" lon="2.2251">
        <ele>442.78</ele>
        <time>2026-06-03T13:12:40.424471974Z</time>
      </trkpt>
      <trkpt lat="42.89196" lon="2.22507">
        <ele>443.01</ele>
        <time>2026-06-03T13:12:41.625385046Z</time>
      </trkpt>
      <trkpt lat="42.89197" lon="2.22504">
        <ele>443.22</ele>
        <time>2026-06-03T13:12:42.525851011Z</time>
      </trkpt>
      <trkpt lat="42.89199" lon="2.22501">
        <ele>443.43</ele>
        <time>2026-06-03T13:12:43.665405035Z</time>
      </trkpt>
      <trkpt lat="42.89201" lon="2.22497">
        <ele>443.63</ele>
        <time>2026-06-03T13:12:44.444406986Z</time>
      </trkpt>
      <trkpt lat="42.89202" lon="2.22493">
        <ele>443.84</ele>
        <time>2026-06-03T13:12:45.705384970Z</time>
      </trkpt>
      <trkpt lat="42.89202" lon="2.2249">
        <ele>444.07</ele>
        <time>2026-06-03T13:12:46.544823050Z</time>
      </trkpt>
      <trkpt lat="42.89203" lon="2.22486">
        <ele>444.29</ele>
        <time>2026-06-03T13:12:47.624701977Z</time>
      </trkpt>
      <trkpt lat="42.89204" lon="2.22483">
        <ele>444.49</ele>
        <time>2026-06-03T13:12:48.406044960Z</time>
      </trkpt>
      <trkpt lat="42.89206" lon="2.22479">
        <ele>444.7</ele>
        <time>2026-06-03T13:12:49.485162020Z</time>
      </trkpt>
      <trkpt lat="42.89207" lon="2.22475">
        <ele>444.93</ele>
        <time>2026-06-03T13:12:50.505591989Z</time>
      </trkpt>
      <trkpt lat="42.89207" lon="2.22471">
        <ele>445.17</ele>
        <time>2026-06-03T13:12:51.585487962Z</time>
      </trkpt>
      <trkpt lat="42.89207" lon="2.22467">
        <ele>445.42</ele>
        <time>2026-06-03T13:12:52.664499998Z</time>
      </trkpt>
      <trkpt lat="42.89207" lon="2.22463">
        <ele>445.68</ele>
        <time>2026-06-03T13:12:53.463858962Z</time>
      </trkpt>
      <trkpt lat="42.89207" lon="2.2246">
        <ele>445.92</ele>
        <time>2026-06-03T13:12:54.537881970Z</time>
      </trkpt>
      <trkpt lat="42.89207" lon="2.22457">
        <ele>446.14</ele>
        <time>2026-06-03T13:12:55.425138950Z</time>
      </trkpt>
      <trkpt lat="42.89206" lon="2.22453">
        <ele>446.32</ele>
        <time>2026-06-03T13:12:56.505471945Z</time>
      </trkpt>
      <trkpt lat="42.89206" lon="2.2245">
        <ele>446.46</ele>
        <time>2026-06-03T13:12:57.465891004Z</time>
      </trkpt>
      <trkpt lat="42.89205" lon="2.22446">
        <ele>446.58</ele>
        <time>2026-06-03T13:12:58.664558053Z</time>
      </trkpt>
      <trkpt lat="42.89204" lon="2.22442">
        <ele>446.66</ele>
        <time>2026-06-03T13:12:59.505439997Z</time>
      </trkpt>
      <trkpt lat="42.89204" lon="2.22438">
        <ele>446.73</ele>
        <time>2026-06-03T13:13:00.585330009Z</time>
      </trkpt>
      <trkpt lat="42.89204" lon="2.22435">
        <ele>446.79</ele>
        <time>2026-06-03T13:13:01.485458016Z</time>
      </trkpt>
      <trkpt lat="42.89203" lon="2.22433">
        <ele>446.84</ele>
        <time>2026-06-03T13:13:02.685454011Z</time>
      </trkpt>
      <trkpt lat="42.89203" lon="2.2243">
        <ele>446.88</ele>
        <time>2026-06-03T13:13:03.525931001Z</time>
      </trkpt>
      <trkpt lat="42.89203" lon="2.22428">
        <ele>446.88</ele>
        <time>2026-06-03T13:13:04.424777985Z</time>
      </trkpt>
      <trkpt lat="42.89203" lon="2.22425">
        <ele>446.98</ele>
        <time>2026-06-03T13:13:05.565662980Z</time>
      </trkpt>
      <trkpt lat="42.89203" lon="2.22423">
        <ele>447.05</ele>
        <time>2026-06-03T13:13:06.705652952Z</time>
      </trkpt>
      <trkpt lat="42.89204" lon="2.22421">
        <ele>447.12</ele>
        <time>2026-06-03T13:13:07.725168943Z</time>
      </trkpt>
      <trkpt lat="42.89205" lon="2.22418">
        <ele>447.19</ele>
        <time>2026-06-03T13:13:08.468354940Z</time>
      </trkpt>
      <trkpt lat="42.89206" lon="2.22415">
        <ele>447.25</ele>
        <time>2026-06-03T13:13:09.532224059Z</time>
      </trkpt>
      <trkpt lat="42.89206" lon="2.22412">
        <ele>447.28</ele>
        <time>2026-06-03T13:13:10.605391026Z</time>
      </trkpt>
      <trkpt lat="42.89208" lon="2.2241">
        <ele>447.27</ele>
        <time>2026-06-03T13:13:11.505684972Z</time>
      </trkpt>
      <trkpt lat="42.89209" lon="2.22408">
        <ele>447.23</ele>
        <time>2026-06-03T13:13:12.524289966Z</time>
      </trkpt>
      <trkpt lat="42.89211" lon="2.22407">
        <ele>447.15</ele>
        <time>2026-06-03T13:13:13.665058017Z</time>
      </trkpt>
      <trkpt lat="42.89212" lon="2.22404">
        <ele>447.04</ele>
        <time>2026-06-03T13:13:14.625694990Z</time>
      </trkpt>
      <trkpt lat="42.89214" lon="2.22401">
        <ele>446.9</ele>
        <time>2026-06-03T13:13:15.645614982Z</time>
      </trkpt>
      <trkpt lat="42.89216" lon="2.22399">
        <ele>446.74</ele>
        <time>2026-06-03T13:13:16.665258050Z</time>
      </trkpt>
      <trkpt lat="42.89218" lon="2.22396">
        <ele>446.59</ele>
        <time>2026-06-03T13:13:17.445631981Z</time>
      </trkpt>
      <trkpt lat="42.89221" lon="2.22394">
        <ele>446.4</ele>
        <time>2026-06-03T13:13:18.644624949Z</time>
      </trkpt>
      <trkpt lat="42.89224" lon="2.22392">
        <ele>446.17</ele>
        <time>2026-06-03T13:13:19.425369978Z</time>
      </trkpt>
      <trkpt lat="42.89227" lon="2.22391">
        <ele>445.88</ele>
        <time>2026-06-03T13:13:20.446249008Z</time>
      </trkpt>
      <trkpt lat="42.89231" lon="2.22391">
        <ele>445.53</ele>
        <time>2026-06-03T13:13:21.466518044Z</time>
      </trkpt>
      <trkpt lat="42.89234" lon="2.22389">
        <ele>445.13</ele>
        <time>2026-06-03T13:13:22.545371056Z</time>
      </trkpt>
      <trkpt lat="42.89238" lon="2.22389">
        <ele>444.69</ele>
        <time>2026-06-03T13:13:23.462695003Z</time>
      </trkpt>
      <trkpt lat="42.8924" lon="2.22388">
        <ele>444.22</ele>
        <time>2026-06-03T13:13:24.525316Z</time>
      </trkpt>
      <trkpt lat="42.89243" lon="2.22387">
        <ele>443.72</ele>
        <time>2026-06-03T13:13:25.600330949Z</time>
      </trkpt>
      <trkpt lat="42.89246" lon="2.22387">
        <ele>443.2</ele>
        <time>2026-06-03T13:13:26.624585032Z</time>
      </trkpt>
      <trkpt lat="42.89249" lon="2.22386">
        <ele>442.64</ele>
        <time>2026-06-03T13:13:27.585540056Z</time>
      </trkpt>
      <trkpt lat="42.89252" lon="2.22385">
        <ele>442.04</ele>
        <time>2026-06-03T13:13:28.725353003Z</time>
      </trkpt>
      <trkpt lat="42.89255" lon="2.22385">
        <ele>441.38</ele>
        <time>2026-06-03T13:13:29.566856980Z</time>
      </trkpt>
      <trkpt lat="42.8926" lon="2.22385">
        <ele>440.68</ele>
        <time>2026-06-03T13:13:30.585590005Z</time>
      </trkpt>
      <trkpt lat="42.89265" lon="2.22386">
        <ele>439.97</ele>
        <time>2026-06-03T13:13:31.605573058Z</time>
      </trkpt>
      <trkpt lat="42.8927" lon="2.22388">
        <ele>439.23</ele>
        <time>2026-06-03T13:13:32.565775037Z</time>
      </trkpt>
      <trkpt lat="42.89275" lon="2.2239">
        <ele>438.63</ele>
        <time>2026-06-03T13:13:33.585791945Z</time>
      </trkpt>
      <trkpt lat="42.89281" lon="2.22391">
        <ele>438.02</ele>
        <time>2026-06-03T13:13:34.605782986Z</time>
      </trkpt>
      <trkpt lat="42.89286" lon="2.2239">
        <ele>437.41</ele>
        <time>2026-06-03T13:13:35.565356016Z</time>
      </trkpt>
      <trkpt lat="42.8929" lon="2.22388">
        <ele>436.8</ele>
        <time>2026-06-03T13:13:36.585644007Z</time>
      </trkpt>
      <trkpt lat="42.89294" lon="2.22386">
        <ele>436.21</ele>
        <time>2026-06-03T13:13:37.564733982Z</time>
      </trkpt>
      <trkpt lat="42.89297" lon="2.22384">
        <ele>435.64</ele>
        <time>2026-06-03T13:13:38.625218987Z</time>
      </trkpt>
      <trkpt lat="42.89301" lon="2.22382">
        <ele>435.11</ele>
        <time>2026-06-03T13:13:39.585579038Z</time>
      </trkpt>
      <trkpt lat="42.89305" lon="2.22379">
        <ele>434.49</ele>
        <time>2026-06-03T13:13:40.425343037Z</time>
      </trkpt>
      <trkpt lat="42.89308" lon="2.22376">
        <ele>433.93</ele>
        <time>2026-06-03T13:13:41.445562959Z</time>
      </trkpt>
      <trkpt lat="42.89312" lon="2.22373">
        <ele>433.44</ele>
        <time>2026-06-03T13:13:42.422003984Z</time>
      </trkpt>
      <trkpt lat="42.89314" lon="2.2237">
        <ele>433.02</ele>
        <time>2026-06-03T13:13:43.605726957Z</time>
      </trkpt>
      <trkpt lat="42.89317" lon="2.22367">
        <ele>432.68</ele>
        <time>2026-06-03T13:13:44.685629964Z</time>
      </trkpt>
      <trkpt lat="42.8932" lon="2.22365">
        <ele>432.39</ele>
        <time>2026-06-03T13:13:45.584027052Z</time>
      </trkpt>
      <trkpt lat="42.89322" lon="2.22362">
        <ele>432.15</ele>
        <time>2026-06-03T13:13:46.665485978Z</time>
      </trkpt>
      <trkpt lat="42.89325" lon="2.2236">
        <ele>431.94</ele>
        <time>2026-06-03T13:13:47.445181012Z</time>
      </trkpt>
      <trkpt lat="42.89328" lon="2.22358">
        <ele>431.77</ele>
        <time>2026-06-03T13:13:48.704692006Z</time>
      </trkpt>
      <trkpt lat="42.8933" lon="2.22356">
        <ele>431.63</ele>
        <time>2026-06-03T13:13:49.484737992Z</time>
      </trkpt>
      <trkpt lat="42.89332" lon="2.22352">
        <ele>431.52</ele>
        <time>2026-06-03T13:13:50.684546947Z</time>
      </trkpt>
      <trkpt lat="42.89334" lon="2.2235">
        <ele>431.42</ele>
        <time>2026-06-03T13:13:51.465754032Z</time>
      </trkpt>
      <trkpt lat="42.89336" lon="2.22346">
        <ele>431.35</ele>
        <time>2026-06-03T13:13:52.485672951Z</time>
      </trkpt>
      <trkpt lat="42.89339" lon="2.22343">
        <ele>431.28</ele>
        <time>2026-06-03T13:13:53.566895008Z</time>
      </trkpt>
      <trkpt lat="42.89341" lon="2.22339">
        <ele>431.22</ele>
        <time>2026-06-03T13:13:54.525611997Z</time>
      </trkpt>
      <trkpt lat="42.89343" lon="2.22336">
        <ele>431.17</ele>
        <time>2026-06-03T13:13:55.605272055Z</time>
      </trkpt>
      <trkpt lat="42.89345" lon="2.22333">
        <ele>431.13</ele>
        <time>2026-06-03T13:13:56.625416994Z</time>
      </trkpt>
      <trkpt lat="42.89348" lon="2.2233">
        <ele>431.09</ele>
        <time>2026-06-03T13:13:57.524906993Z</time>
      </trkpt>
      <trkpt lat="42.89351" lon="2.22327">
        <ele>431.06</ele>
        <time>2026-06-03T13:13:58.545395970Z</time>
      </trkpt>
      <trkpt lat="42.89353" lon="2.22325">
        <ele>431.03</ele>
        <time>2026-06-03T13:13:59.685412049Z</time>
      </trkpt>
      <trkpt lat="42.89355" lon="2.22322">
        <ele>431</ele>
        <time>2026-06-03T13:14:00.466256022Z</time>
      </trkpt>
      <trkpt lat="42.89358" lon="2.22319">
        <ele>430.99</ele>
        <time>2026-06-03T13:14:01.485394955Z</time>
      </trkpt>
      <trkpt lat="42.89359" lon="2.2232">
        <ele>431</ele>
        <time>2026-06-03T13:14:02.445754051Z</time>
      </trkpt>
      <trkpt lat="42.89361" lon="2.22316">
        <ele>431.02</ele>
        <time>2026-06-03T13:14:03.585489035Z</time>
      </trkpt>
      <trkpt lat="42.89367" lon="2.22309">
        <ele>431.04</ele>
        <time>2026-06-03T13:14:04.725404978Z</time>
      </trkpt>
      <trkpt lat="42.89368" lon="2.22307">
        <ele>431.08</ele>
        <time>2026-06-03T13:14:05.446797013Z</time>
      </trkpt>
      <trkpt lat="42.89371" lon="2.22304">
        <ele>431.13</ele>
        <time>2026-06-03T13:14:06.586416960Z</time>
      </trkpt>
      <trkpt lat="42.89373" lon="2.22301">
        <ele>431.2</ele>
        <time>2026-06-03T13:14:07.724763036Z</time>
      </trkpt>
      <trkpt lat="42.89376" lon="2.22298">
        <ele>431.26</ele>
        <time>2026-06-03T13:14:08.446424961Z</time>
      </trkpt>
      <trkpt lat="42.89378" lon="2.22296">
        <ele>431.34</ele>
        <time>2026-06-03T13:14:09.525768042Z</time>
      </trkpt>
      <trkpt lat="42.8938" lon="2.22294">
        <ele>431.43</ele>
        <time>2026-06-03T13:14:10.605355978Z</time>
      </trkpt>
      <trkpt lat="42.89382" lon="2.22293">
        <ele>431.53</ele>
        <time>2026-06-03T13:14:11.745777965Z</time>
      </trkpt>
      <trkpt lat="42.89384" lon="2.22289">
        <ele>431.61</ele>
        <time>2026-06-03T13:14:12.524636984Z</time>
      </trkpt>
      <trkpt lat="42.89389" lon="2.22288">
        <ele>431.72</ele>
        <time>2026-06-03T13:14:13.665961981Z</time>
      </trkpt>
      <trkpt lat="42.89392" lon="2.22286">
        <ele>431.84</ele>
        <time>2026-06-03T13:14:14.450129032Z</time>
      </trkpt>
      <trkpt lat="42.89396" lon="2.22285">
        <ele>431.97</ele>
        <time>2026-06-03T13:14:15.645648956Z</time>
      </trkpt>
      <trkpt lat="42.89399" lon="2.22283">
        <ele>432.1</ele>
        <time>2026-06-03T13:14:16.725888968Z</time>
      </trkpt>
      <trkpt lat="42.89404" lon="2.22281">
        <ele>432.4</ele>
        <time>2026-06-03T13:14:18.585742950Z</time>
      </trkpt>
      <trkpt lat="42.89407" lon="2.2228">
        <ele>432.58</ele>
        <time>2026-06-03T13:14:19.424540043Z</time>
      </trkpt>
      <trkpt lat="42.8941" lon="2.22279">
        <ele>432.73</ele>
        <time>2026-06-03T13:14:20.685479045Z</time>
      </trkpt>
      <trkpt lat="42.89413" lon="2.22278">
        <ele>432.91</ele>
        <time>2026-06-03T13:14:21.404310942Z</time>
      </trkpt>
      <trkpt lat="42.89417" lon="2.22277">
        <ele>433.1</ele>
        <time>2026-06-03T13:14:22.664620042Z</time>
      </trkpt>
      <trkpt lat="42.8942" lon="2.22276">
        <ele>433.3</ele>
        <time>2026-06-03T13:14:23.398193955Z</time>
      </trkpt>
      <trkpt lat="42.89421" lon="2.22277">
        <ele>433.48</ele>
        <time>2026-06-03T13:14:24.524597049Z</time>
      </trkpt>
      <trkpt lat="42.89425" lon="2.22276">
        <ele>433.67</ele>
        <time>2026-06-03T13:14:25.424626946Z</time>
      </trkpt>
      <trkpt lat="42.89428" lon="2.22276">
        <ele>433.87</ele>
        <time>2026-06-03T13:14:26.564800978Z</time>
      </trkpt>
      <trkpt lat="42.89431" lon="2.22276">
        <ele>434.08</ele>
        <time>2026-06-03T13:14:27.405362964Z</time>
      </trkpt>
      <trkpt lat="42.89433" lon="2.22276">
        <ele>434.26</ele>
        <time>2026-06-03T13:14:28.425318003Z</time>
      </trkpt>
      <trkpt lat="42.89436" lon="2.22276">
        <ele>434.45</ele>
        <time>2026-06-03T13:14:29.565567017Z</time>
      </trkpt>
      <trkpt lat="42.89439" lon="2.22277">
        <ele>434.63</ele>
        <time>2026-06-03T13:14:30.644606948Z</time>
      </trkpt>
      <trkpt lat="42.89443" lon="2.22277">
        <ele>434.79</ele>
        <time>2026-06-03T13:14:31.664587975Z</time>
      </trkpt>
      <trkpt lat="42.89447" lon="2.22278">
        <ele>434.93</ele>
        <time>2026-06-03T13:14:32.625529051Z</time>
      </trkpt>
      <trkpt lat="42.89452" lon="2.22278">
        <ele>435.05</ele>
        <time>2026-06-03T13:14:33.645403028Z</time>
      </trkpt>
      <trkpt lat="42.89458" lon="2.22279">
        <ele>435.13</ele>
        <time>2026-06-03T13:14:34.605458975Z</time>
      </trkpt>
      <trkpt lat="42.89463" lon="2.22279">
        <ele>435.2</ele>
        <time>2026-06-03T13:14:35.625805020Z</time>
      </trkpt>
      <trkpt lat="42.8947" lon="2.22279">
        <ele>435.23</ele>
        <time>2026-06-03T13:14:36.646062970Z</time>
      </trkpt>
      <trkpt lat="42.89476" lon="2.22279">
        <ele>435.22</ele>
        <time>2026-06-03T13:14:37.605362058Z</time>
      </trkpt>
      <trkpt lat="42.89481" lon="2.22278">
        <ele>435.16</ele>
        <time>2026-06-03T13:14:38.625313044Z</time>
      </trkpt>
      <trkpt lat="42.89486" lon="2.22277">
        <ele>435.11</ele>
        <time>2026-06-03T13:14:39.645516992Z</time>
      </trkpt>
      <trkpt lat="42.89492" lon="2.22276">
        <ele>434.93</ele>
        <time>2026-06-03T13:14:40.425266027Z</time>
      </trkpt>
      <trkpt lat="42.89498" lon="2.22275">
        <ele>434.72</ele>
        <time>2026-06-03T13:14:41.625167966Z</time>
      </trkpt>
      <trkpt lat="42.89503" lon="2.22273">
        <ele>434.49</ele>
        <time>2026-06-03T13:14:42.644708991Z</time>
      </trkpt>
      <trkpt lat="42.89508" lon="2.22272">
        <ele>434.28</ele>
        <time>2026-06-03T13:14:43.605555058Z</time>
      </trkpt>
      <trkpt lat="42.89512" lon="2.22271">
        <ele>434.07</ele>
        <time>2026-06-03T13:14:44.625290036Z</time>
      </trkpt>
      <trkpt lat="42.89516" lon="2.2227">
        <ele>433.86</ele>
        <time>2026-06-03T13:14:45.416851044Z</time>
      </trkpt>
      <trkpt lat="42.8952" lon="2.22269">
        <ele>433.68</ele>
        <time>2026-06-03T13:14:46.665292025Z</time>
      </trkpt>
      <trkpt lat="42.89523" lon="2.22268">
        <ele>433.52</ele>
        <time>2026-06-03T13:14:47.445888042Z</time>
      </trkpt>
      <trkpt lat="42.89528" lon="2.22267">
        <ele>433.38</ele>
        <time>2026-06-03T13:14:48.449462056Z</time>
      </trkpt>
      <trkpt lat="42.89531" lon="2.22266">
        <ele>433.28</ele>
        <time>2026-06-03T13:14:49.433356047Z</time>
      </trkpt>
      <trkpt lat="42.89534" lon="2.22265">
        <ele>433.21</ele>
        <time>2026-06-03T13:14:50.685284019Z</time>
      </trkpt>
      <trkpt lat="42.89539" lon="2.22263">
        <ele>433.14</ele>
        <time>2026-06-03T13:14:51.705389977Z</time>
      </trkpt>
      <trkpt lat="42.89542" lon="2.22262">
        <ele>433.12</ele>
        <time>2026-06-03T13:14:52.438696027Z</time>
      </trkpt>
      <trkpt lat="42.89545" lon="2.22261">
        <ele>433.12</ele>
        <time>2026-06-03T13:14:53.446833968Z</time>
      </trkpt>
      <trkpt lat="42.8955" lon="2.2226">
        <ele>433.13</ele>
        <time>2026-06-03T13:14:54.405333996Z</time>
      </trkpt>
      <trkpt lat="42.89555" lon="2.22258">
        <ele>433.14</ele>
        <time>2026-06-03T13:14:55.425302029Z</time>
      </trkpt>
      <trkpt lat="42.89559" lon="2.22257">
        <ele>433.14</ele>
        <time>2026-06-03T13:14:56.445806980Z</time>
      </trkpt>
      <trkpt lat="42.89563" lon="2.22256">
        <ele>433.15</ele>
        <time>2026-06-03T13:14:57.405423045Z</time>
      </trkpt>
      <trkpt lat="42.89567" lon="2.22256">
        <ele>433.14</ele>
        <time>2026-06-03T13:14:58.425333977Z</time>
      </trkpt>
      <trkpt lat="42.89571" lon="2.22255">
        <ele>433.14</ele>
        <time>2026-06-03T13:14:59.565704942Z</time>
      </trkpt>
      <trkpt lat="42.89575" lon="2.22256">
        <ele>433.13</ele>
        <time>2026-06-03T13:15:00.455973029Z</time>
      </trkpt>
      <trkpt lat="42.8958" lon="2.22256">
        <ele>433.11</ele>
        <time>2026-06-03T13:15:01.373878956Z</time>
      </trkpt>
      <trkpt lat="42.89584" lon="2.22256">
        <ele>433.1</ele>
        <time>2026-06-03T13:15:02.505341053Z</time>
      </trkpt>
      <trkpt lat="42.89588" lon="2.22256">
        <ele>433.09</ele>
        <time>2026-06-03T13:15:03.585240006Z</time>
      </trkpt>
      <trkpt lat="42.89592" lon="2.22256">
        <ele>433.09</ele>
        <time>2026-06-03T13:15:04.460510015Z</time>
      </trkpt>
      <trkpt lat="42.89595" lon="2.22255">
        <ele>433.1</ele>
        <time>2026-06-03T13:15:05.505133986Z</time>
      </trkpt>
      <trkpt lat="42.89599" lon="2.22254">
        <ele>433.13</ele>
        <time>2026-06-03T13:15:06.465463996Z</time>
      </trkpt>
      <trkpt lat="42.89603" lon="2.22253">
        <ele>433.16</ele>
        <time>2026-06-03T13:15:07.725363016Z</time>
      </trkpt>
      <trkpt lat="42.89607" lon="2.22252">
        <ele>433.2</ele>
        <time>2026-06-03T13:15:08.475121975Z</time>
      </trkpt>
      <trkpt lat="42.89611" lon="2.2225">
        <ele>433.26</ele>
        <time>2026-06-03T13:15:09.705224991Z</time>
      </trkpt>
      <trkpt lat="42.89614" lon="2.22247">
        <ele>433.32</ele>
        <time>2026-06-03T13:15:10.724665046Z</time>
      </trkpt>
      <trkpt lat="42.89618" lon="2.22245">
        <ele>433.37</ele>
        <time>2026-06-03T13:15:11.684329033Z</time>
      </trkpt>
      <trkpt lat="42.89622" lon="2.22242">
        <ele>433.43</ele>
        <time>2026-06-03T13:15:12.479943991Z</time>
      </trkpt>
      <trkpt lat="42.89626" lon="2.22239">
        <ele>433.5</ele>
        <time>2026-06-03T13:15:13.725340009Z</time>
      </trkpt>
      <trkpt lat="42.89629" lon="2.22237">
        <ele>433.57</ele>
        <time>2026-06-03T13:15:14.566305995Z</time>
      </trkpt>
      <trkpt lat="42.89632" lon="2.22234">
        <ele>433.64</ele>
        <time>2026-06-03T13:15:15.416617036Z</time>
      </trkpt>
      <trkpt lat="42.89636" lon="2.22231">
        <ele>433.71</ele>
        <time>2026-06-03T13:15:16.494452953Z</time>
      </trkpt>
      <trkpt lat="42.8964" lon="2.22229">
        <ele>433.8</ele>
        <time>2026-06-03T13:15:17.566836953Z</time>
      </trkpt>
      <trkpt lat="42.89643" lon="2.22227">
        <ele>433.9</ele>
        <time>2026-06-03T13:15:18.705217957Z</time>
      </trkpt>
      <trkpt lat="42.89647" lon="2.22225">
        <ele>433.99</ele>
        <time>2026-06-03T13:15:19.724601984Z</time>
      </trkpt>
      <trkpt lat="42.8965" lon="2.22223">
        <ele>434.1</ele>
        <time>2026-06-03T13:15:20.446943998Z</time>
      </trkpt>
      <trkpt lat="42.89654" lon="2.22221">
        <ele>434.22</ele>
        <time>2026-06-03T13:15:21.464869022Z</time>
      </trkpt>
      <trkpt lat="42.89658" lon="2.2222">
        <ele>434.35</ele>
        <time>2026-06-03T13:15:22.485234022Z</time>
      </trkpt>
      <trkpt lat="42.89662" lon="2.22218">
        <ele>434.48</ele>
        <time>2026-06-03T13:15:23.566666007Z</time>
      </trkpt>
      <trkpt lat="42.89666" lon="2.22216">
        <ele>434.61</ele>
        <time>2026-06-03T13:15:24.417932987Z</time>
      </trkpt>
      <trkpt lat="42.89669" lon="2.22215">
        <ele>434.75</ele>
        <time>2026-06-03T13:15:25.665346026Z</time>
      </trkpt>
      <trkpt lat="42.89673" lon="2.22213">
        <ele>434.91</ele>
        <time>2026-06-03T13:15:26.685286045Z</time>
      </trkpt>
      <trkpt lat="42.89676" lon="2.22212">
        <ele>435.04</ele>
        <time>2026-06-03T13:15:27.465299010Z</time>
      </trkpt>
      <trkpt lat="42.8968" lon="2.2221">
        <ele>435.19</ele>
        <time>2026-06-03T13:15:28.528231025Z</time>
      </trkpt>
      <trkpt lat="42.89684" lon="2.22209">
        <ele>435.33</ele>
        <time>2026-06-03T13:15:29.747185946Z</time>
      </trkpt>
      <trkpt lat="42.89687" lon="2.22208">
        <ele>435.49</ele>
        <time>2026-06-03T13:15:30.525362968Z</time>
      </trkpt>
      <trkpt lat="42.89691" lon="2.22207">
        <ele>435.62</ele>
        <time>2026-06-03T13:15:31.545359015Z</time>
      </trkpt>
      <trkpt lat="42.89694" lon="2.22206">
        <ele>435.77</ele>
        <time>2026-06-03T13:15:32.385805011Z</time>
      </trkpt>
      <trkpt lat="42.89698" lon="2.22205">
        <ele>435.93</ele>
        <time>2026-06-03T13:15:33.464825988Z</time>
      </trkpt>
      <trkpt lat="42.89701" lon="2.22204">
        <ele>436.09</ele>
        <time>2026-06-03T13:15:34.605229020Z</time>
      </trkpt>
      <trkpt lat="42.89705" lon="2.22204">
        <ele>436.23</ele>
        <time>2026-06-03T13:15:35.565703988Z</time>
      </trkpt>
      <trkpt lat="42.89708" lon="2.22204">
        <ele>436.37</ele>
        <time>2026-06-03T13:15:36.547513008Z</time>
      </trkpt>
      <trkpt lat="42.89712" lon="2.22204">
        <ele>436.51</ele>
        <time>2026-06-03T13:15:37.546905994Z</time>
      </trkpt>
      <trkpt lat="42.89716" lon="2.22204">
        <ele>436.65</ele>
        <time>2026-06-03T13:15:38.625852942Z</time>
      </trkpt>
      <trkpt lat="42.8972" lon="2.22205">
        <ele>436.77</ele>
        <time>2026-06-03T13:15:39.405526042Z</time>
      </trkpt>
      <trkpt lat="42.89724" lon="2.22206">
        <ele>436.75</ele>
        <time>2026-06-03T13:15:40.546836019Z</time>
      </trkpt>
      <trkpt lat="42.89729" lon="2.22206">
        <ele>436.73</ele>
        <time>2026-06-03T13:15:41.446967959Z</time>
      </trkpt>
      <trkpt lat="42.89732" lon="2.22207">
        <ele>436.71</ele>
        <time>2026-06-03T13:15:42.405511975Z</time>
      </trkpt>
      <trkpt lat="42.89736" lon="2.22208">
        <ele>436.69</ele>
        <time>2026-06-03T13:15:43.425145984Z</time>
      </trkpt>
      <trkpt lat="42.8974" lon="2.22209">
        <ele>436.67</ele>
        <time>2026-06-03T13:15:44.447162032Z</time>
      </trkpt>
      <trkpt lat="42.89744" lon="2.2221">
        <ele>436.66</ele>
        <time>2026-06-03T13:15:45.466655970Z</time>
      </trkpt>
      <trkpt lat="42.89748" lon="2.22211">
        <ele>436.65</ele>
        <time>2026-06-03T13:15:46.605715036Z</time>
      </trkpt>
      <trkpt lat="42.89752" lon="2.22212">
        <ele>436.65</ele>
        <time>2026-06-03T13:15:47.385298967Z</time>
      </trkpt>
      <trkpt lat="42.89756" lon="2.22212">
        <ele>436.67</ele>
        <time>2026-06-03T13:15:48.465612054Z</time>
      </trkpt>
      <trkpt lat="42.89761" lon="2.22212">
        <ele>436.7</ele>
        <time>2026-06-03T13:15:49.605384946Z</time>
      </trkpt>
      <trkpt lat="42.89766" lon="2.22213">
        <ele>436.76</ele>
        <time>2026-06-03T13:15:50.445657969Z</time>
      </trkpt>
      <trkpt lat="42.89771" lon="2.22213">
        <ele>436.81</ele>
        <time>2026-06-03T13:15:51.644554019Z</time>
      </trkpt>
      <trkpt lat="42.89776" lon="2.22213">
        <ele>436.86</ele>
        <time>2026-06-03T13:15:52.595837951Z</time>
      </trkpt>
      <trkpt lat="42.89781" lon="2.22212">
        <ele>436.91</ele>
        <time>2026-06-03T13:15:53.625350952Z</time>
      </trkpt>
      <trkpt lat="42.89786" lon="2.22213">
        <ele>436.94</ele>
        <time>2026-06-03T13:15:54.645463943Z</time>
      </trkpt>
      <trkpt lat="42.89791" lon="2.22213">
        <ele>436.97</ele>
        <time>2026-06-03T13:15:55.665438056Z</time>
      </trkpt>
      <trkpt lat="42.89796" lon="2.22214">
        <ele>436.98</ele>
        <time>2026-06-03T13:15:56.600427032Z</time>
      </trkpt>
      <trkpt lat="42.89802" lon="2.22215">
        <ele>436.97</ele>
        <time>2026-06-03T13:15:57.644464016Z</time>
      </trkpt>
      <trkpt lat="42.89807" lon="2.22216">
        <ele>436.94</ele>
        <time>2026-06-03T13:15:58.604392052Z</time>
      </trkpt>
      <trkpt lat="42.89812" lon="2.22216">
        <ele>436.91</ele>
        <time>2026-06-03T13:15:59.624544024Z</time>
      </trkpt>
      <trkpt lat="42.89818" lon="2.22216">
        <ele>436.86</ele>
        <time>2026-06-03T13:16:00.615113974Z</time>
      </trkpt>
      <trkpt lat="42.89824" lon="2.22216">
        <ele>436.79</ele>
        <time>2026-06-03T13:16:01.424456Z</time>
      </trkpt>
      <trkpt lat="42.89829" lon="2.22216">
        <ele>436.69</ele>
        <time>2026-06-03T13:16:02.451964974Z</time>
      </trkpt>
      <trkpt lat="42.89835" lon="2.22215">
        <ele>436.6</ele>
        <time>2026-06-03T13:16:03.466974974Z</time>
      </trkpt>
      <trkpt lat="42.89841" lon="2.22215">
        <ele>436.51</ele>
        <time>2026-06-03T13:16:04.546792030Z</time>
      </trkpt>
      <trkpt lat="42.89846" lon="2.22213">
        <ele>436.4</ele>
        <time>2026-06-03T13:16:05.566838026Z</time>
      </trkpt>
      <trkpt lat="42.89851" lon="2.22212">
        <ele>436.28</ele>
        <time>2026-06-03T13:16:06.585332036Z</time>
      </trkpt>
      <trkpt lat="42.89856" lon="2.22211">
        <ele>436.18</ele>
        <time>2026-06-03T13:16:07.545364976Z</time>
      </trkpt>
      <trkpt lat="42.89861" lon="2.2221">
        <ele>436.08</ele>
        <time>2026-06-03T13:16:08.566964984Z</time>
      </trkpt>
      <trkpt lat="42.89865" lon="2.22209">
        <ele>435.99</ele>
        <time>2026-06-03T13:16:09.585623026Z</time>
      </trkpt>
      <trkpt lat="42.89868" lon="2.22208">
        <ele>435.9</ele>
        <time>2026-06-03T13:16:10.484732985Z</time>
      </trkpt>
      <trkpt lat="42.89872" lon="2.22208">
        <ele>435.82</ele>
        <time>2026-06-03T13:16:11.564659953Z</time>
      </trkpt>
      <trkpt lat="42.89876" lon="2.22207">
        <ele>435.74</ele>
        <time>2026-06-03T13:16:12.464591980Z</time>
      </trkpt>
      <trkpt lat="42.8988" lon="2.22207">
        <ele>435.66</ele>
        <time>2026-06-03T13:16:13.664525032Z</time>
      </trkpt>
      <trkpt lat="42.89885" lon="2.22206">
        <ele>435.58</ele>
        <time>2026-06-03T13:16:14.504539013Z</time>
      </trkpt>
      <trkpt lat="42.89888" lon="2.22206">
        <ele>435.51</ele>
        <time>2026-06-03T13:16:15.644544005Z</time>
      </trkpt>
      <trkpt lat="42.89893" lon="2.22206">
        <ele>435.45</ele>
        <time>2026-06-03T13:16:16.605569005Z</time>
      </trkpt>
      <trkpt lat="42.89897" lon="2.22205">
        <ele>435.4</ele>
        <time>2026-06-03T13:16:17.445343971Z</time>
      </trkpt>
      <trkpt lat="42.89901" lon="2.22204">
        <ele>435.38</ele>
        <time>2026-06-03T13:16:18.645447969Z</time>
      </trkpt>
      <trkpt lat="42.89904" lon="2.22203">
        <ele>435.35</ele>
        <time>2026-06-03T13:16:19.425426006Z</time>
      </trkpt>
      <trkpt lat="42.89908" lon="2.22202">
        <ele>435.34</ele>
        <time>2026-06-03T13:16:20.667920947Z</time>
      </trkpt>
      <trkpt lat="42.89912" lon="2.222">
        <ele>435.33</ele>
        <time>2026-06-03T13:16:21.644587040Z</time>
      </trkpt>
      <trkpt lat="42.89917" lon="2.22199">
        <ele>435.32</ele>
        <time>2026-06-03T13:16:22.664515972Z</time>
      </trkpt>
      <trkpt lat="42.89921" lon="2.22197">
        <ele>435.32</ele>
        <time>2026-06-03T13:16:23.625545979Z</time>
      </trkpt>
      <trkpt lat="42.89926" lon="2.22195">
        <ele>435.3</ele>
        <time>2026-06-03T13:16:24.405583024Z</time>
      </trkpt>
      <trkpt lat="42.89931" lon="2.22192">
        <ele>435.26</ele>
        <time>2026-06-03T13:16:25.424734950Z</time>
      </trkpt>
      <trkpt lat="42.89936" lon="2.22189">
        <ele>435.2</ele>
        <time>2026-06-03T13:16:26.625764012Z</time>
      </trkpt>
      <trkpt lat="42.89942" lon="2.22186">
        <ele>435.14</ele>
        <time>2026-06-03T13:16:27.405329943Z</time>
      </trkpt>
      <trkpt lat="42.89948" lon="2.22181">
        <ele>435.04</ele>
        <time>2026-06-03T13:16:28.665367007Z</time>
      </trkpt>
      <trkpt lat="42.89954" lon="2.22176">
        <ele>434.9</ele>
        <time>2026-06-03T13:16:29.400032997Z</time>
      </trkpt>
      <trkpt lat="42.8996" lon="2.2217">
        <ele>434.7</ele>
        <time>2026-06-03T13:16:30.416303992Z</time>
      </trkpt>
      <trkpt lat="42.89966" lon="2.22164">
        <ele>434.52</ele>
        <time>2026-06-03T13:16:31.664898038Z</time>
      </trkpt>
      <trkpt lat="42.89971" lon="2.22158">
        <ele>434.27</ele>
        <time>2026-06-03T13:16:32.625445008Z</time>
      </trkpt>
      <trkpt lat="42.89977" lon="2.22151">
        <ele>433.98</ele>
        <time>2026-06-03T13:16:33.465042949Z</time>
      </trkpt>
      <trkpt lat="42.89982" lon="2.22145">
        <ele>433.67</ele>
        <time>2026-06-03T13:16:34.425210953Z</time>
      </trkpt>
      <trkpt lat="42.89986" lon="2.22138">
        <ele>433.4</ele>
        <time>2026-06-03T13:16:35.446849942Z</time>
      </trkpt>
      <trkpt lat="42.8999" lon="2.22132">
        <ele>433.1</ele>
        <time>2026-06-03T13:16:36.464866996Z</time>
      </trkpt>
      <trkpt lat="42.89994" lon="2.22127">
        <ele>432.8</ele>
        <time>2026-06-03T13:16:37.485525966Z</time>
      </trkpt>
      <trkpt lat="42.89998" lon="2.22122">
        <ele>432.55</ele>
        <time>2026-06-03T13:16:38.625478029Z</time>
      </trkpt>
      <trkpt lat="42.90001" lon="2.22117">
        <ele>432.33</ele>
        <time>2026-06-03T13:16:39.465294957Z</time>
      </trkpt>
      <trkpt lat="42.90004" lon="2.22112">
        <ele>431.97</ele>
        <time>2026-06-03T13:16:40.484853029Z</time>
      </trkpt>
      <trkpt lat="42.90007" lon="2.22109">
        <ele>431.66</ele>
        <time>2026-06-03T13:16:41.450641036Z</time>
      </trkpt>
      <trkpt lat="42.9001" lon="2.22105">
        <ele>431.4</ele>
        <time>2026-06-03T13:16:42.466683030Z</time>
      </trkpt>
      <trkpt lat="42.90012" lon="2.22101">
        <ele>431.17</ele>
        <time>2026-06-03T13:16:43.546995044Z</time>
      </trkpt>
      <trkpt lat="42.90015" lon="2.22097">
        <ele>430.98</ele>
        <time>2026-06-03T13:16:44.565544963Z</time>
      </trkpt>
      <trkpt lat="42.90018" lon="2.22093">
        <ele>430.83</ele>
        <time>2026-06-03T13:16:45.585271001Z</time>
      </trkpt>
      <trkpt lat="42.90021" lon="2.22088">
        <ele>430.7</ele>
        <time>2026-06-03T13:16:46.485437989Z</time>
      </trkpt>
      <trkpt lat="42.90025" lon="2.22085">
        <ele>430.6</ele>
        <time>2026-06-03T13:16:47.505592942Z</time>
      </trkpt>
      <trkpt lat="42.90028" lon="2.22081">
        <ele>430.52</ele>
        <time>2026-06-03T13:16:48.525249958Z</time>
      </trkpt>
      <trkpt lat="42.90031" lon="2.22078">
        <ele>430.48</ele>
        <time>2026-06-03T13:16:49.397807002Z</time>
      </trkpt>
      <trkpt lat="42.90034" lon="2.22076">
        <ele>430.45</ele>
        <time>2026-06-03T13:16:50.505301952Z</time>
      </trkpt>
      <trkpt lat="42.90038" lon="2.22073">
        <ele>430.45</ele>
        <time>2026-06-03T13:16:51.420109987Z</time>
      </trkpt>
      <trkpt lat="42.90043" lon="2.2207">
        <ele>430.47</ele>
        <time>2026-06-03T13:16:52.545796037Z</time>
      </trkpt>
      <trkpt lat="42.90047" lon="2.22068">
        <ele>430.51</ele>
        <time>2026-06-03T13:16:53.565626025Z</time>
      </trkpt>
      <trkpt lat="42.90051" lon="2.22067">
        <ele>430.54</ele>
        <time>2026-06-03T13:16:54.525377989Z</time>
      </trkpt>
      <trkpt lat="42.90056" lon="2.22067">
        <ele>430.58</ele>
        <time>2026-06-03T13:16:55.424636006Z</time>
      </trkpt>
      <trkpt lat="42.90061" lon="2.22068">
        <ele>430.63</ele>
        <time>2026-06-03T13:16:56.624994993Z</time>
      </trkpt>
      <trkpt lat="42.90065" lon="2.22071">
        <ele>430.66</ele>
        <time>2026-06-03T13:16:57.584786057Z</time>
      </trkpt>
      <trkpt lat="42.90069" lon="2.22075">
        <ele>430.69</ele>
        <time>2026-06-03T13:16:58.545742035Z</time>
      </trkpt>
      <trkpt lat="42.90073" lon="2.22079">
        <ele>430.72</ele>
        <time>2026-06-03T13:16:59.439391017Z</time>
      </trkpt>
      <trkpt lat="42.90076" lon="2.22083">
        <ele>430.74</ele>
        <time>2026-06-03T13:17:00.585384011Z</time>
      </trkpt>
      <trkpt lat="42.90079" lon="2.22086">
        <ele>430.76</ele>
        <time>2026-06-03T13:17:01.485625982Z</time>
      </trkpt>
      <trkpt lat="42.90083" lon="2.22089">
        <ele>430.78</ele>
        <time>2026-06-03T13:17:02.505285025Z</time>
      </trkpt>
      <trkpt lat="42.90087" lon="2.22092">
        <ele>430.8</ele>
        <time>2026-06-03T13:17:03.452873945Z</time>
      </trkpt>
      <trkpt lat="42.90092" lon="2.22094">
        <ele>430.83</ele>
        <time>2026-06-03T13:17:04.545425057Z</time>
      </trkpt>
      <trkpt lat="42.90096" lon="2.22096">
        <ele>430.87</ele>
        <time>2026-06-03T13:17:05.685472965Z</time>
      </trkpt>
      <trkpt lat="42.901" lon="2.22097">
        <ele>430.91</ele>
        <time>2026-06-03T13:17:06.645586014Z</time>
      </trkpt>
      <trkpt lat="42.90104" lon="2.22099">
        <ele>430.95</ele>
        <time>2026-06-03T13:17:07.470090985Z</time>
      </trkpt>
      <trkpt lat="42.90108" lon="2.22101">
        <ele>431.01</ele>
        <time>2026-06-03T13:17:08.685317993Z</time>
      </trkpt>
      <trkpt lat="42.90113" lon="2.22103">
        <ele>431.07</ele>
        <time>2026-06-03T13:17:09.645519972Z</time>
      </trkpt>
      <trkpt lat="42.90117" lon="2.22106">
        <ele>431.13</ele>
        <time>2026-06-03T13:17:10.546800017Z</time>
      </trkpt>
      <trkpt lat="42.90121" lon="2.22108">
        <ele>431.21</ele>
        <time>2026-06-03T13:17:11.473166943Z</time>
      </trkpt>
      <trkpt lat="42.90125" lon="2.22111">
        <ele>431.28</ele>
        <time>2026-06-03T13:17:12.645293951Z</time>
      </trkpt>
      <trkpt lat="42.90129" lon="2.22113">
        <ele>431.38</ele>
        <time>2026-06-03T13:17:13.665372014Z</time>
      </trkpt>
      <trkpt lat="42.90133" lon="2.22115">
        <ele>431.46</ele>
        <time>2026-06-03T13:17:14.566740036Z</time>
      </trkpt>
      <trkpt lat="42.90137" lon="2.22116">
        <ele>431.56</ele>
        <time>2026-06-03T13:17:15.477666020Z</time>
      </trkpt>
      <trkpt lat="42.90142" lon="2.22118">
        <ele>431.69</ele>
        <time>2026-06-03T13:17:16.604820967Z</time>
      </trkpt>
      <trkpt lat="42.90147" lon="2.22119">
        <ele>431.84</ele>
        <time>2026-06-03T13:17:17.505424023Z</time>
      </trkpt>
      <trkpt lat="42.9015" lon="2.22121">
        <ele>431.97</ele>
        <time>2026-06-03T13:17:18.585420966Z</time>
      </trkpt>
      <trkpt lat="42.90155" lon="2.22122">
        <ele>432.11</ele>
        <time>2026-06-03T13:17:19.492234945Z</time>
      </trkpt>
      <trkpt lat="42.90159" lon="2.22124">
        <ele>432.28</ele>
        <time>2026-06-03T13:17:20.505396962Z</time>
      </trkpt>
      <trkpt lat="42.90163" lon="2.22125">
        <ele>432.47</ele>
        <time>2026-06-03T13:17:21.406177998Z</time>
      </trkpt>
      <trkpt lat="42.90167" lon="2.22125">
        <ele>432.63</ele>
        <time>2026-06-03T13:17:22.546890974Z</time>
      </trkpt>
      <trkpt lat="42.90171" lon="2.22126">
        <ele>432.81</ele>
        <time>2026-06-03T13:17:23.497051001Z</time>
      </trkpt>
      <trkpt lat="42.90176" lon="2.22126">
        <ele>433</ele>
        <time>2026-06-03T13:17:24.524693966Z</time>
      </trkpt>
      <trkpt lat="42.90181" lon="2.22125">
        <ele>433.23</ele>
        <time>2026-06-03T13:17:25.485419035Z</time>
      </trkpt>
      <trkpt lat="42.90184" lon="2.22125">
        <ele>433.42</ele>
        <time>2026-06-03T13:17:26.565366983Z</time>
      </trkpt>
      <trkpt lat="42.9019" lon="2.22125">
        <ele>433.64</ele>
        <time>2026-06-03T13:17:27.511492014Z</time>
      </trkpt>
      <trkpt lat="42.90194" lon="2.22124">
        <ele>433.86</ele>
        <time>2026-06-03T13:17:28.545524001Z</time>
      </trkpt>
      <trkpt lat="42.90199" lon="2.22123">
        <ele>434.09</ele>
        <time>2026-06-03T13:17:29.567077994Z</time>
      </trkpt>
      <trkpt lat="42.90203" lon="2.22122">
        <ele>434.29</ele>
        <time>2026-06-03T13:17:30.418725967Z</time>
      </trkpt>
      <trkpt lat="42.90208" lon="2.22122">
        <ele>434.49</ele>
        <time>2026-06-03T13:17:31.526311994Z</time>
      </trkpt>
      <trkpt lat="42.90213" lon="2.22121">
        <ele>434.69</ele>
        <time>2026-06-03T13:17:32.565474033Z</time>
      </trkpt>
      <trkpt lat="42.90218" lon="2.2212">
        <ele>434.92</ele>
        <time>2026-06-03T13:17:33.585544944Z</time>
      </trkpt>
      <trkpt lat="42.90223" lon="2.22119">
        <ele>435.11</ele>
        <time>2026-06-03T13:17:34.424286962Z</time>
      </trkpt>
      <trkpt lat="42.90226" lon="2.22117">
        <ele>435.32</ele>
        <time>2026-06-03T13:17:35.530879021Z</time>
      </trkpt>
      <trkpt lat="42.90231" lon="2.22115">
        <ele>435.55</ele>
        <time>2026-06-03T13:17:36.407938004Z</time>
      </trkpt>
      <trkpt lat="42.90235" lon="2.22113">
        <ele>435.8</ele>
        <time>2026-06-03T13:17:37.545438051Z</time>
      </trkpt>
      <trkpt lat="42.90238" lon="2.22111">
        <ele>436.02</ele>
        <time>2026-06-03T13:17:38.565886974Z</time>
      </trkpt>
      <trkpt lat="42.90242" lon="2.22108">
        <ele>436.25</ele>
        <time>2026-06-03T13:17:39.527065992Z</time>
      </trkpt>
      <trkpt lat="42.90245" lon="2.22107">
        <ele>436.4</ele>
        <time>2026-06-03T13:17:40.425680041Z</time>
      </trkpt>
      <trkpt lat="42.90248" lon="2.22106">
        <ele>436.59</ele>
        <time>2026-06-03T13:17:41.566135049Z</time>
      </trkpt>
      <trkpt lat="42.90251" lon="2.22106">
        <ele>436.74</ele>
        <time>2026-06-03T13:17:42.464918017Z</time>
      </trkpt>
      <trkpt lat="42.90252" lon="2.22106">
        <ele>436.93</ele>
        <time>2026-06-03T13:17:43.545364022Z</time>
      </trkpt>
      <trkpt lat="42.90254" lon="2.22107">
        <ele>437.14</ele>
        <time>2026-06-03T13:17:45.465813041Z</time>
      </trkpt>
      <trkpt lat="42.90255" lon="2.22107">
        <ele>437.55</ele>
        <time>2026-06-03T13:17:46.665016055Z</time>
      </trkpt>
      <trkpt lat="42.90257" lon="2.22108">
        <ele>437.74</ele>
        <time>2026-06-03T13:17:47.505236030Z</time>
      </trkpt>
      <trkpt lat="42.90258" lon="2.22109">
        <ele>437.91</ele>
        <time>2026-06-03T13:17:48.405248046Z</time>
      </trkpt>
      <trkpt lat="42.9026" lon="2.2211">
        <ele>438.07</ele>
        <time>2026-06-03T13:17:49.605447054Z</time>
      </trkpt>
      <trkpt lat="42.90273" lon="2.22117">
        <ele>438.2</ele>
        <time>2026-06-03T13:17:50.805436015Z</time>
      </trkpt>
      <trkpt lat="42.90276" lon="2.22118">
        <ele>438.32</ele>
        <time>2026-06-03T13:17:51.405397058Z</time>
      </trkpt>
      <trkpt lat="42.9028" lon="2.22119">
        <ele>438.42</ele>
        <time>2026-06-03T13:17:52.485456944Z</time>
      </trkpt>
      <trkpt lat="42.90284" lon="2.22119">
        <ele>438.5</ele>
        <time>2026-06-03T13:17:53.565415978Z</time>
      </trkpt>
      <trkpt lat="42.90287" lon="2.22119">
        <ele>438.56</ele>
        <time>2026-06-03T13:17:54.585741043Z</time>
      </trkpt>
      <trkpt lat="42.9029" lon="2.22119">
        <ele>438.61</ele>
        <time>2026-06-03T13:17:55.545325041Z</time>
      </trkpt>
      <trkpt lat="42.90294" lon="2.2212">
        <ele>438.62</ele>
        <time>2026-06-03T13:17:56.391585946Z</time>
      </trkpt>
      <trkpt lat="42.90296" lon="2.22123">
        <ele>438.59</ele>
        <time>2026-06-03T13:17:57.465957999Z</time>
      </trkpt>
      <trkpt lat="42.903" lon="2.22126">
        <ele>438.57</ele>
        <time>2026-06-03T13:17:58.484536052Z</time>
      </trkpt>
      <trkpt lat="42.90304" lon="2.22129">
        <ele>438.51</ele>
        <time>2026-06-03T13:17:59.504333973Z</time>
      </trkpt>
      <trkpt lat="42.90308" lon="2.22131">
        <ele>438.43</ele>
        <time>2026-06-03T13:18:00.466940045Z</time>
      </trkpt>
      <trkpt lat="42.90313" lon="2.22132">
        <ele>438.31</ele>
        <time>2026-06-03T13:18:01.485365033Z</time>
      </trkpt>
      <trkpt lat="42.90319" lon="2.22132">
        <ele>438.21</ele>
        <time>2026-06-03T13:18:02.505527020Z</time>
      </trkpt>
      <trkpt lat="42.90324" lon="2.22131">
        <ele>438.1</ele>
        <time>2026-06-03T13:18:03.465296030Z</time>
      </trkpt>
      <trkpt lat="42.9033" lon="2.2213">
        <ele>437.96</ele>
        <time>2026-06-03T13:18:04.485384941Z</time>
      </trkpt>
      <trkpt lat="42.90335" lon="2.22128">
        <ele>437.8</ele>
        <time>2026-06-03T13:18:05.505282044Z</time>
      </trkpt>
      <trkpt lat="42.90341" lon="2.22126">
        <ele>437.66</ele>
        <time>2026-06-03T13:18:06.405236006Z</time>
      </trkpt>
      <trkpt lat="42.90346" lon="2.22124">
        <ele>437.49</ele>
        <time>2026-06-03T13:18:07.485770941Z</time>
      </trkpt>
      <trkpt lat="42.90351" lon="2.22122">
        <ele>437.33</ele>
        <time>2026-06-03T13:18:08.505251050Z</time>
      </trkpt>
      <trkpt lat="42.90356" lon="2.2212">
        <ele>437.15</ele>
        <time>2026-06-03T13:18:09.525549054Z</time>
      </trkpt>
      <trkpt lat="42.90361" lon="2.22118">
        <ele>436.99</ele>
        <time>2026-06-03T13:18:10.427127957Z</time>
      </trkpt>
      <trkpt lat="42.90366" lon="2.22117">
        <ele>436.83</ele>
        <time>2026-06-03T13:18:11.395223975Z</time>
      </trkpt>
      <trkpt lat="42.90371" lon="2.22115">
        <ele>436.67</ele>
        <time>2026-06-03T13:18:12.464964986Z</time>
      </trkpt>
      <trkpt lat="42.90375" lon="2.22113">
        <ele>436.51</ele>
        <time>2026-06-03T13:18:13.485478997Z</time>
      </trkpt>
      <trkpt lat="42.9038" lon="2.22112">
        <ele>436.37</ele>
        <time>2026-06-03T13:18:14.447263002Z</time>
      </trkpt>
      <trkpt lat="42.90384" lon="2.22111">
        <ele>436.23</ele>
        <time>2026-06-03T13:18:15.415869951Z</time>
      </trkpt>
      <trkpt lat="42.90388" lon="2.2211">
        <ele>436.07</ele>
        <time>2026-06-03T13:18:16.425318003Z</time>
      </trkpt>
      <trkpt lat="42.90392" lon="2.22109">
        <ele>435.92</ele>
        <time>2026-06-03T13:18:17.505373001Z</time>
      </trkpt>
      <trkpt lat="42.90395" lon="2.22108">
        <ele>435.78</ele>
        <time>2026-06-03T13:18:18.405689955Z</time>
      </trkpt>
      <trkpt lat="42.90399" lon="2.22107">
        <ele>435.64</ele>
        <time>2026-06-03T13:18:19.485831022Z</time>
      </trkpt>
      <trkpt lat="42.90402" lon="2.22107">
        <ele>435.51</ele>
        <time>2026-06-03T13:18:20.445459008Z</time>
      </trkpt>
      <trkpt lat="42.90406" lon="2.22106">
        <ele>435.36</ele>
        <time>2026-06-03T13:18:21.466601014Z</time>
      </trkpt>
      <trkpt lat="42.90409" lon="2.22105">
        <ele>435.24</ele>
        <time>2026-06-03T13:18:22.484707952Z</time>
      </trkpt>
      <trkpt lat="42.90413" lon="2.22104">
        <ele>435.13</ele>
        <time>2026-06-03T13:18:23.446352959Z</time>
      </trkpt>
      <trkpt lat="42.90416" lon="2.22104">
        <ele>435.03</ele>
        <time>2026-06-03T13:18:24.465437055Z</time>
      </trkpt>
      <trkpt lat="42.9042" lon="2.22103">
        <ele>434.94</ele>
        <time>2026-06-03T13:18:25.425866961Z</time>
      </trkpt>
      <trkpt lat="42.90424" lon="2.22102">
        <ele>434.86</ele>
        <time>2026-06-03T13:18:26.460965037Z</time>
      </trkpt>
      <trkpt lat="42.90429" lon="2.22101">
        <ele>434.79</ele>
        <time>2026-06-03T13:18:27.465808034Z</time>
      </trkpt>
      <trkpt lat="42.90432" lon="2.22101">
        <ele>434.72</ele>
        <time>2026-06-03T13:18:28.485208988Z</time>
      </trkpt>
      <trkpt lat="42.90435" lon="2.22101">
        <ele>434.62</ele>
        <time>2026-06-03T13:18:29.505363941Z</time>
      </trkpt>
      <trkpt lat="42.90437" lon="2.22099">
        <ele>434.54</ele>
        <time>2026-06-03T13:18:30.585433960Z</time>
      </trkpt>
      <trkpt lat="42.90442" lon="2.22099">
        <ele>434.41</ele>
        <time>2026-06-03T13:18:31.665529013Z</time>
      </trkpt>
      <trkpt lat="42.90446" lon="2.22098">
        <ele>434.24</ele>
        <time>2026-06-03T13:18:32.624678969Z</time>
      </trkpt>
      <trkpt lat="42.9045" lon="2.22098">
        <ele>434</ele>
        <time>2026-06-03T13:18:33.644968987Z</time>
      </trkpt>
      <trkpt lat="42.90455" lon="2.22097">
        <ele>433.79</ele>
        <time>2026-06-03T13:18:34.664983988Z</time>
      </trkpt>
      <trkpt lat="42.90459" lon="2.22096">
        <ele>433.47</ele>
        <time>2026-06-03T13:18:35.685624957Z</time>
      </trkpt>
      <trkpt lat="42.90465" lon="2.22095">
        <ele>433.11</ele>
        <time>2026-06-03T13:18:36.645614028Z</time>
      </trkpt>
      <trkpt lat="42.90471" lon="2.22094">
        <ele>432.71</ele>
        <time>2026-06-03T13:18:37.665670991Z</time>
      </trkpt>
      <trkpt lat="42.90477" lon="2.22093">
        <ele>432.36</ele>
        <time>2026-06-03T13:18:38.378823042Z</time>
      </trkpt>
      <trkpt lat="42.90481" lon="2.22092">
        <ele>431.95</ele>
        <time>2026-06-03T13:18:39.646128058Z</time>
      </trkpt>
      <trkpt lat="42.90487" lon="2.22091">
        <ele>431.33</ele>
        <time>2026-06-03T13:18:40.665740967Z</time>
      </trkpt>
      <trkpt lat="42.9049" lon="2.22089">
        <ele>430.79</ele>
        <time>2026-06-03T13:18:41.625802994Z</time>
      </trkpt>
      <trkpt lat="42.90496" lon="2.22087">
        <ele>430.26</ele>
        <time>2026-06-03T13:18:42.526165962Z</time>
      </trkpt>
      <trkpt lat="42.90501" lon="2.22085">
        <ele>429.7</ele>
        <time>2026-06-03T13:18:43.664994955Z</time>
      </trkpt>
      <trkpt lat="42.90508" lon="2.22083">
        <ele>429.21</ele>
        <time>2026-06-03T13:18:44.625769019Z</time>
      </trkpt>
      <trkpt lat="42.90514" lon="2.22081">
        <ele>428.8</ele>
        <time>2026-06-03T13:18:45.645835996Z</time>
      </trkpt>
      <trkpt lat="42.90522" lon="2.22079">
        <ele>428.35</ele>
        <time>2026-06-03T13:18:46.665866971Z</time>
      </trkpt>
      <trkpt lat="42.90528" lon="2.22077">
        <ele>427.84</ele>
        <time>2026-06-03T13:18:47.685889959Z</time>
      </trkpt>
      <trkpt lat="42.90534" lon="2.22075">
        <ele>427.37</ele>
        <time>2026-06-03T13:18:48.525730968Z</time>
      </trkpt>
      <trkpt lat="42.90539" lon="2.22073">
        <ele>426.98</ele>
        <time>2026-06-03T13:18:49.545678973Z</time>
      </trkpt>
      <trkpt lat="42.90543" lon="2.2207">
        <ele>426.51</ele>
        <time>2026-06-03T13:18:50.404173970Z</time>
      </trkpt>
      <trkpt lat="42.90547" lon="2.22065">
        <ele>425.95</ele>
        <time>2026-06-03T13:18:51.645938039Z</time>
      </trkpt>
      <trkpt lat="42.90549" lon="2.22059">
        <ele>425.4</ele>
        <time>2026-06-03T13:18:52.665333986Z</time>
      </trkpt>
      <trkpt lat="42.90551" lon="2.22053">
        <ele>424.95</ele>
        <time>2026-06-03T13:18:53.625170946Z</time>
      </trkpt>
      <trkpt lat="42.90553" lon="2.22049">
        <ele>424.46</ele>
        <time>2026-06-03T13:18:54.645941019Z</time>
      </trkpt>
      <trkpt lat="42.90554" lon="2.22046">
        <ele>423.94</ele>
        <time>2026-06-03T13:18:55.753725052Z</time>
      </trkpt>
      <trkpt lat="42.90557" lon="2.22042">
        <ele>423.41</ele>
        <time>2026-06-03T13:18:56.806223989Z</time>
      </trkpt>
      <trkpt lat="42.90561" lon="2.2204">
        <ele>422.97</ele>
        <time>2026-06-03T13:18:57.525707006Z</time>
      </trkpt>
      <trkpt lat="42.90564" lon="2.2204">
        <ele>422.52</ele>
        <time>2026-06-03T13:18:58.546543002Z</time>
      </trkpt>
      <trkpt lat="42.90569" lon="2.2204">
        <ele>422.07</ele>
        <time>2026-06-03T13:18:59.506183028Z</time>
      </trkpt>
      <trkpt lat="42.90573" lon="2.22039">
        <ele>421.57</ele>
        <time>2026-06-03T13:19:00.408092976Z</time>
      </trkpt>
      <trkpt lat="42.90578" lon="2.22038">
        <ele>421.15</ele>
        <time>2026-06-03T13:19:01.547945976Z</time>
      </trkpt>
      <trkpt lat="42.90582" lon="2.22037">
        <ele>420.74</ele>
        <time>2026-06-03T13:19:02.437942982Z</time>
      </trkpt>
      <trkpt lat="42.90587" lon="2.22036">
        <ele>420.35</ele>
        <time>2026-06-03T13:19:03.526168942Z</time>
      </trkpt>
      <trkpt lat="42.90591" lon="2.22035">
        <ele>419.96</ele>
        <time>2026-06-03T13:19:04.545719981Z</time>
      </trkpt>
      <trkpt lat="42.90596" lon="2.22033">
        <ele>419.64</ele>
        <time>2026-06-03T13:19:05.568068981Z</time>
      </trkpt>
      <trkpt lat="42.90601" lon="2.22031">
        <ele>419.33</ele>
        <time>2026-06-03T13:19:06.452885032Z</time>
      </trkpt>
      <trkpt lat="42.90605" lon="2.2203">
        <ele>419.07</ele>
        <time>2026-06-03T13:19:07.548058033Z</time>
      </trkpt>
      <trkpt lat="42.9061" lon="2.22028">
        <ele>418.82</ele>
        <time>2026-06-03T13:19:08.506525040Z</time>
      </trkpt>
      <trkpt lat="42.90614" lon="2.22026">
        <ele>418.61</ele>
        <time>2026-06-03T13:19:09.526211023Z</time>
      </trkpt>
      <trkpt lat="42.90618" lon="2.22026">
        <ele>418.42</ele>
        <time>2026-06-03T13:19:10.457301021Z</time>
      </trkpt>
      <trkpt lat="42.90622" lon="2.22025">
        <ele>418.26</ele>
        <time>2026-06-03T13:19:11.568050027Z</time>
      </trkpt>
      <trkpt lat="42.90626" lon="2.22026">
        <ele>418.12</ele>
        <time>2026-06-03T13:19:12.646373987Z</time>
      </trkpt>
      <trkpt lat="42.90629" lon="2.22027">
        <ele>418</ele>
        <time>2026-06-03T13:19:13.726330996Z</time>
      </trkpt>
      <trkpt lat="42.90631" lon="2.22028">
        <ele>417.88</ele>
        <time>2026-06-03T13:19:14.472133040Z</time>
      </trkpt>
      <trkpt lat="42.90633" lon="2.2203">
        <ele>417.79</ele>
        <time>2026-06-03T13:19:15.527032971Z</time>
      </trkpt>
      <trkpt lat="42.90635" lon="2.22031">
        <ele>417.71</ele>
        <time>2026-06-03T13:19:16.485589027Z</time>
      </trkpt>
      <trkpt lat="42.90638" lon="2.22033">
        <ele>417.64</ele>
        <time>2026-06-03T13:19:17.400418043Z</time>
      </trkpt>
      <trkpt lat="42.90642" lon="2.22036">
        <ele>417.6</ele>
        <time>2026-06-03T13:19:18.406658053Z</time>
      </trkpt>
      <trkpt lat="42.90645" lon="2.22038">
        <ele>417.57</ele>
        <time>2026-06-03T13:19:19.427109957Z</time>
      </trkpt>
      <trkpt lat="42.90648" lon="2.2204">
        <ele>417.58</ele>
        <time>2026-06-03T13:19:20.506641984Z</time>
      </trkpt>
      <trkpt lat="42.90652" lon="2.22043">
        <ele>417.6</ele>
        <time>2026-06-03T13:19:21.527153969Z</time>
      </trkpt>
      <trkpt lat="42.90656" lon="2.22045">
        <ele>417.62</ele>
        <time>2026-06-03T13:19:22.426740050Z</time>
      </trkpt>
      <trkpt lat="42.90659" lon="2.22045">
        <ele>417.7</ele>
        <time>2026-06-03T13:19:23.386770010Z</time>
      </trkpt>
      <trkpt lat="42.90663" lon="2.2205">
        <ele>417.82</ele>
        <time>2026-06-03T13:19:24.393061996Z</time>
      </trkpt>
      <trkpt lat="42.90667" lon="2.22052">
        <ele>417.94</ele>
        <time>2026-06-03T13:19:25.380102992Z</time>
      </trkpt>
      <trkpt lat="42.9067" lon="2.22054">
        <ele>418.11</ele>
        <time>2026-06-03T13:19:26.399101019Z</time>
      </trkpt>
      <trkpt lat="42.90674" lon="2.22057">
        <ele>418.31</ele>
        <time>2026-06-03T13:19:27.406332970Z</time>
      </trkpt>
      <trkpt lat="42.90677" lon="2.22059">
        <ele>418.55</ele>
        <time>2026-06-03T13:19:28.596158981Z</time>
      </trkpt>
      <trkpt lat="42.9068" lon="2.22061">
        <ele>418.82</ele>
        <time>2026-06-03T13:19:29.569041014Z</time>
      </trkpt>
      <trkpt lat="42.90683" lon="2.22063">
        <ele>419.09</ele>
        <time>2026-06-03T13:19:30.424394965Z</time>
      </trkpt>
      <trkpt lat="42.90687" lon="2.22067">
        <ele>419.36</ele>
        <time>2026-06-03T13:19:31.402735949Z</time>
      </trkpt>
      <trkpt lat="42.9069" lon="2.2207">
        <ele>419.64</ele>
        <time>2026-06-03T13:19:32.507369041Z</time>
      </trkpt>
      <trkpt lat="42.90693" lon="2.22071">
        <ele>419.93</ele>
        <time>2026-06-03T13:19:33.467401028Z</time>
      </trkpt>
      <trkpt lat="42.90695" lon="2.22073">
        <ele>420.22</ele>
        <time>2026-06-03T13:19:34.426753044Z</time>
      </trkpt>
      <trkpt lat="42.90697" lon="2.22075">
        <ele>420.49</ele>
        <time>2026-06-03T13:19:35.446406960Z</time>
      </trkpt>
      <trkpt lat="42.907" lon="2.22077">
        <ele>420.72</ele>
        <time>2026-06-03T13:19:36.526757002Z</time>
      </trkpt>
      <trkpt lat="42.90702" lon="2.22079">
        <ele>420.94</ele>
        <time>2026-06-03T13:19:37.427472949Z</time>
      </trkpt>
      <trkpt lat="42.90704" lon="2.2208">
        <ele>421.15</ele>
        <time>2026-06-03T13:19:38.627586961Z</time>
      </trkpt>
      <trkpt lat="42.90707" lon="2.22081">
        <ele>421.35</ele>
        <time>2026-06-03T13:19:39.408890009Z</time>
      </trkpt>
      <trkpt lat="42.9071" lon="2.22083">
        <ele>421.39</ele>
        <time>2026-06-03T13:19:40.606894016Z</time>
      </trkpt>
      <trkpt lat="42.90714" lon="2.22085">
        <ele>421.42</ele>
        <time>2026-06-03T13:19:41.453014016Z</time>
      </trkpt>
      <trkpt lat="42.90717" lon="2.22086">
        <ele>421.44</ele>
        <time>2026-06-03T13:19:42.527045965Z</time>
      </trkpt>
      <trkpt lat="42.90721" lon="2.22087">
        <ele>421.43</ele>
        <time>2026-06-03T13:19:43.600885034Z</time>
      </trkpt>
      <trkpt lat="42.90725" lon="2.22088">
        <ele>421.4</ele>
        <time>2026-06-03T13:19:44.448845983Z</time>
      </trkpt>
      <trkpt lat="42.9073" lon="2.22089">
        <ele>421.35</ele>
        <time>2026-06-03T13:19:45.467200041Z</time>
      </trkpt>
      <trkpt lat="42.90734" lon="2.22091">
        <ele>421.27</ele>
        <time>2026-06-03T13:19:46.787451029Z</time>
      </trkpt>
      <trkpt lat="42.90738" lon="2.22093">
        <ele>421.17</ele>
        <time>2026-06-03T13:19:47.447204947Z</time>
      </trkpt>
      <trkpt lat="42.90742" lon="2.22095">
        <ele>421.06</ele>
        <time>2026-06-03T13:19:48.767212033Z</time>
      </trkpt>
      <trkpt lat="42.90747" lon="2.22098">
        <ele>420.89</ele>
        <time>2026-06-03T13:19:49.427088022Z</time>
      </trkpt>
      <trkpt lat="42.90751" lon="2.22101">
        <ele>420.71</ele>
        <time>2026-06-03T13:19:50.506837964Z</time>
      </trkpt>
      <trkpt lat="42.90754" lon="2.22105">
        <ele>420.54</ele>
        <time>2026-06-03T13:19:51.406667948Z</time>
      </trkpt>
      <trkpt lat="42.90757" lon="2.22108">
        <ele>420.38</ele>
        <time>2026-06-03T13:19:52.487877965Z</time>
      </trkpt>
      <trkpt lat="42.90759" lon="2.22111">
        <ele>420.2</ele>
        <time>2026-06-03T13:19:53.566557050Z</time>
      </trkpt>
      <trkpt lat="42.90761" lon="2.22112">
        <ele>420.05</ele>
        <time>2026-06-03T13:19:54.407721043Z</time>
      </trkpt>
      <trkpt lat="42.90763" lon="2.22113">
        <ele>419.91</ele>
        <time>2026-06-03T13:19:55.549129009Z</time>
      </trkpt>
      <trkpt lat="42.90766" lon="2.22114">
        <ele>419.81</ele>
        <time>2026-06-03T13:19:56.457995057Z</time>
      </trkpt>
      <trkpt lat="42.90768" lon="2.22114">
        <ele>419.74</ele>
        <time>2026-06-03T13:19:57.412744999Z</time>
      </trkpt>
      <trkpt lat="42.90771" lon="2.22114">
        <ele>419.7</ele>
        <time>2026-06-03T13:19:58.595728993Z</time>
      </trkpt>
      <trkpt lat="42.90775" lon="2.22115">
        <ele>419.7</ele>
        <time>2026-06-03T13:19:59.507256031Z</time>
      </trkpt>
      <trkpt lat="42.90779" lon="2.22115">
        <ele>419.7</ele>
        <time>2026-06-03T13:20:00.414224982Z</time>
      </trkpt>
      <trkpt lat="42.90782" lon="2.22115">
        <ele>419.71</ele>
        <time>2026-06-03T13:20:01.487753987Z</time>
      </trkpt>
      <trkpt lat="42.90786" lon="2.22115">
        <ele>419.72</ele>
        <time>2026-06-03T13:20:02.448946953Z</time>
      </trkpt>
      <trkpt lat="42.9079" lon="2.22115">
        <ele>419.72</ele>
        <time>2026-06-03T13:20:03.467344046Z</time>
      </trkpt>
      <trkpt lat="42.90794" lon="2.22115">
        <ele>419.71</ele>
        <time>2026-06-03T13:20:04.487462997Z</time>
      </trkpt>
      <trkpt lat="42.90798" lon="2.22114">
        <ele>419.7</ele>
        <time>2026-06-03T13:20:05.448874950Z</time>
      </trkpt>
      <trkpt lat="42.90802" lon="2.22114">
        <ele>419.69</ele>
        <time>2026-06-03T13:20:06.407943010Z</time>
      </trkpt>
      <trkpt lat="42.90806" lon="2.22113">
        <ele>419.68</ele>
        <time>2026-06-03T13:20:07.547286987Z</time>
      </trkpt>
      <trkpt lat="42.90808" lon="2.22112">
        <ele>419.67</ele>
        <time>2026-06-03T13:20:08.452782989Z</time>
      </trkpt>
      <trkpt lat="42.90812" lon="2.22112">
        <ele>419.66</ele>
        <time>2026-06-03T13:20:09.587566018Z</time>
      </trkpt>
      <trkpt lat="42.90815" lon="2.22112">
        <ele>419.66</ele>
        <time>2026-06-03T13:20:10.421913981Z</time>
      </trkpt>
      <trkpt lat="42.90819" lon="2.22112">
        <ele>419.67</ele>
        <time>2026-06-03T13:20:11.452751040Z</time>
      </trkpt>
      <trkpt lat="42.90822" lon="2.22112">
        <ele>419.7</ele>
        <time>2026-06-03T13:20:12.467264056Z</time>
      </trkpt>
      <trkpt lat="42.90825" lon="2.22113">
        <ele>419.75</ele>
        <time>2026-06-03T13:20:13.600468040Z</time>
      </trkpt>
      <trkpt lat="42.90827" lon="2.22114">
        <ele>419.81</ele>
        <time>2026-06-03T13:20:14.452594042Z</time>
      </trkpt>
      <trkpt lat="42.90831" lon="2.22115">
        <ele>419.9</ele>
        <time>2026-06-03T13:20:15.707733989Z</time>
      </trkpt>
      <trkpt lat="42.90834" lon="2.22117">
        <ele>420</ele>
        <time>2026-06-03T13:20:16.548233986Z</time>
      </trkpt>
      <trkpt lat="42.90838" lon="2.22118">
        <ele>420.11</ele>
        <time>2026-06-03T13:20:17.444668055Z</time>
      </trkpt>
      <trkpt lat="42.90841" lon="2.2212">
        <ele>420.22</ele>
        <time>2026-06-03T13:20:18.587219954Z</time>
      </trkpt>
      <trkpt lat="42.90844" lon="2.22121">
        <ele>420.33</ele>
        <time>2026-06-03T13:20:19.414919019Z</time>
      </trkpt>
      <trkpt lat="42.90848" lon="2.22123">
        <ele>420.45</ele>
        <time>2026-06-03T13:20:20.447836041Z</time>
      </trkpt>
      <trkpt lat="42.90852" lon="2.22124">
        <ele>420.56</ele>
        <time>2026-06-03T13:20:21.440641999Z</time>
      </trkpt>
      <trkpt lat="42.90856" lon="2.22126">
        <ele>420.68</ele>
        <time>2026-06-03T13:20:22.547726989Z</time>
      </trkpt>
      <trkpt lat="42.90859" lon="2.22127">
        <ele>420.81</ele>
        <time>2026-06-03T13:20:23.452447057Z</time>
      </trkpt>
      <trkpt lat="42.90862" lon="2.22128">
        <ele>420.95</ele>
        <time>2026-06-03T13:20:24.527966022Z</time>
      </trkpt>
      <trkpt lat="42.90866" lon="2.22131">
        <ele>421.1</ele>
        <time>2026-06-03T13:20:25.607735038Z</time>
      </trkpt>
      <trkpt lat="42.90869" lon="2.22133">
        <ele>421.27</ele>
        <time>2026-06-03T13:20:26.424523950Z</time>
      </trkpt>
      <trkpt lat="42.90872" lon="2.22135">
        <ele>421.46</ele>
        <time>2026-06-03T13:20:27.527379990Z</time>
      </trkpt>
      <trkpt lat="42.90875" lon="2.22137">
        <ele>421.67</ele>
        <time>2026-06-03T13:20:28.395779967Z</time>
      </trkpt>
      <trkpt lat="42.90878" lon="2.2214">
        <ele>421.88</ele>
        <time>2026-06-03T13:20:29.409912944Z</time>
      </trkpt>
      <trkpt lat="42.90881" lon="2.22142">
        <ele>422.12</ele>
        <time>2026-06-03T13:20:30.527745962Z</time>
      </trkpt>
      <trkpt lat="42.90885" lon="2.22145">
        <ele>422.35</ele>
        <time>2026-06-03T13:20:31.788424015Z</time>
      </trkpt>
      <trkpt lat="42.90888" lon="2.22146">
        <ele>422.59</ele>
        <time>2026-06-03T13:20:32.428717017Z</time>
      </trkpt>
      <trkpt lat="42.90892" lon="2.22148">
        <ele>422.83</ele>
        <time>2026-06-03T13:20:33.408566952Z</time>
      </trkpt>
      <trkpt lat="42.90895" lon="2.22148">
        <ele>423.09</ele>
        <time>2026-06-03T13:20:34.487841010Z</time>
      </trkpt>
      <trkpt lat="42.90899" lon="2.22148">
        <ele>423.32</ele>
        <time>2026-06-03T13:20:35.447381020Z</time>
      </trkpt>
      <trkpt lat="42.90902" lon="2.22148">
        <ele>423.56</ele>
        <time>2026-06-03T13:20:36.429733038Z</time>
      </trkpt>
      <trkpt lat="42.90906" lon="2.22149">
        <ele>423.82</ele>
        <time>2026-06-03T13:20:37.487902045Z</time>
      </trkpt>
      <trkpt lat="42.90909" lon="2.2215">
        <ele>424.05</ele>
        <time>2026-06-03T13:20:38.448483944Z</time>
      </trkpt>
      <trkpt lat="42.90912" lon="2.22152">
        <ele>424.3</ele>
        <time>2026-06-03T13:20:39.410541058Z</time>
      </trkpt>
      <trkpt lat="42.90916" lon="2.22154">
        <ele>424.71</ele>
        <time>2026-06-03T13:20:40.429517031Z</time>
      </trkpt>
      <trkpt lat="42.90919" lon="2.22156">
        <ele>425.12</ele>
        <time>2026-06-03T13:20:41.453950047Z</time>
      </trkpt>
      <trkpt lat="42.90923" lon="2.22159">
        <ele>425.52</ele>
        <time>2026-06-03T13:20:42.407958031Z</time>
      </trkpt>
      <trkpt lat="42.90926" lon="2.2216">
        <ele>425.91</ele>
        <time>2026-06-03T13:20:43.549383044Z</time>
      </trkpt>
      <trkpt lat="42.90929" lon="2.22162">
        <ele>426.29</ele>
        <time>2026-06-03T13:20:44.413125992Z</time>
      </trkpt>
      <trkpt lat="42.90932" lon="2.22165">
        <ele>426.65</ele>
        <time>2026-06-03T13:20:45.526754975Z</time>
      </trkpt>
      <trkpt lat="42.90936" lon="2.22167">
        <ele>426.97</ele>
        <time>2026-06-03T13:20:46.666880012Z</time>
      </trkpt>
      <trkpt lat="42.90938" lon="2.22169">
        <ele>427.28</ele>
        <time>2026-06-03T13:20:47.566984057Z</time>
      </trkpt>
      <trkpt lat="42.90941" lon="2.22171">
        <ele>427.56</ele>
        <time>2026-06-03T13:20:48.407966018Z</time>
      </trkpt>
      <trkpt lat="42.90944" lon="2.22174">
        <ele>427.81</ele>
        <time>2026-06-03T13:20:49.549386024Z</time>
      </trkpt>
      <trkpt lat="42.90947" lon="2.22176">
        <ele>428.03</ele>
        <time>2026-06-03T13:20:50.567451954Z</time>
      </trkpt>
      <trkpt lat="42.9095" lon="2.22178">
        <ele>428.24</ele>
        <time>2026-06-03T13:20:51.437005997Z</time>
      </trkpt>
      <trkpt lat="42.90953" lon="2.22181">
        <ele>428.43</ele>
        <time>2026-06-03T13:20:52.667569995Z</time>
      </trkpt>
      <trkpt lat="42.90956" lon="2.22183">
        <ele>428.62</ele>
        <time>2026-06-03T13:20:53.627460957Z</time>
      </trkpt>
      <trkpt lat="42.90959" lon="2.22184">
        <ele>428.81</ele>
        <time>2026-06-03T13:20:54.527681947Z</time>
      </trkpt>
      <trkpt lat="42.90962" lon="2.22186">
        <ele>429.01</ele>
        <time>2026-06-03T13:20:55.607643008Z</time>
      </trkpt>
      <trkpt lat="42.90964" lon="2.22187">
        <ele>429.19</ele>
        <time>2026-06-03T13:20:56.389217019Z</time>
      </trkpt>
      <trkpt lat="42.90967" lon="2.22187">
        <ele>429.39</ele>
        <time>2026-06-03T13:20:57.407763958Z</time>
      </trkpt>
      <trkpt lat="42.90969" lon="2.22187">
        <ele>429.59</ele>
        <time>2026-06-03T13:20:58.604887009Z</time>
      </trkpt>
      <trkpt lat="42.90972" lon="2.22188">
        <ele>429.77</ele>
        <time>2026-06-03T13:20:59.567389011Z</time>
      </trkpt>
      <trkpt lat="42.90974" lon="2.22188">
        <ele>429.96</ele>
        <time>2026-06-03T13:21:00.527510047Z</time>
      </trkpt>
      <trkpt lat="42.90976" lon="2.22188">
        <ele>430.14</ele>
        <time>2026-06-03T13:21:01.607452989Z</time>
      </trkpt>
      <trkpt lat="42.90977" lon="2.22187">
        <ele>430.14</ele>
        <time>2026-06-03T13:21:02.388324022Z</time>
      </trkpt>
      <trkpt lat="42.90979" lon="2.22186">
        <ele>430.48</ele>
        <time>2026-06-03T13:21:03.767439961Z</time>
      </trkpt>
      <trkpt lat="42.90981" lon="2.22184">
        <ele>430.64</ele>
        <time>2026-06-03T13:21:04.427847981Z</time>
      </trkpt>
      <trkpt lat="42.90982" lon="2.22181">
        <ele>430.8</ele>
        <time>2026-06-03T13:21:05.447790027Z</time>
      </trkpt>
      <trkpt lat="42.90984" lon="2.22179">
        <ele>430.93</ele>
        <time>2026-06-03T13:21:06.767858028Z</time>
      </trkpt>
      <trkpt lat="42.90986" lon="2.22176">
        <ele>431.06</ele>
        <time>2026-06-03T13:21:07.549510002Z</time>
      </trkpt>
      <trkpt lat="42.90987" lon="2.22173">
        <ele>431.21</ele>
        <time>2026-06-03T13:21:08.395148039Z</time>
      </trkpt>
      <trkpt lat="42.90988" lon="2.2217">
        <ele>431.38</ele>
        <time>2026-06-03T13:21:09.467651963Z</time>
      </trkpt>
      <trkpt lat="42.90989" lon="2.22167">
        <ele>431.54</ele>
        <time>2026-06-03T13:21:10.422405005Z</time>
      </trkpt>
      <trkpt lat="42.9099" lon="2.22165">
        <ele>431.7</ele>
        <time>2026-06-03T13:21:11.396381021Z</time>
      </trkpt>
      <trkpt lat="42.90991" lon="2.22161">
        <ele>431.84</ele>
        <time>2026-06-03T13:21:12.525653005Z</time>
      </trkpt>
      <trkpt lat="42.90992" lon="2.22157">
        <ele>431.96</ele>
        <time>2026-06-03T13:21:13.428361058Z</time>
      </trkpt>
      <trkpt lat="42.90992" lon="2.22153">
        <ele>432.06</ele>
        <time>2026-06-03T13:21:14.507781982Z</time>
      </trkpt>
      <trkpt lat="42.90993" lon="2.22149">
        <ele>432.15</ele>
        <time>2026-06-03T13:21:15.469506025Z</time>
      </trkpt>
      <trkpt lat="42.90993" lon="2.22146">
        <ele>432.23</ele>
        <time>2026-06-03T13:21:16.548270941Z</time>
      </trkpt>
      <trkpt lat="42.90994" lon="2.22143">
        <ele>432.29</ele>
        <time>2026-06-03T13:21:17.627828002Z</time>
      </trkpt>
      <trkpt lat="42.90994" lon="2.22139">
        <ele>432.35</ele>
        <time>2026-06-03T13:21:18.414016008Z</time>
      </trkpt>
      <trkpt lat="42.90995" lon="2.22135">
        <ele>432.4</ele>
        <time>2026-06-03T13:21:19.549566984Z</time>
      </trkpt>
      <trkpt lat="42.90996" lon="2.22132">
        <ele>432.45</ele>
        <time>2026-06-03T13:21:20.567906976Z</time>
      </trkpt>
      <trkpt lat="42.90997" lon="2.22128">
        <ele>432.49</ele>
        <time>2026-06-03T13:21:21.768201947Z</time>
      </trkpt>
      <trkpt lat="42.90998" lon="2.22124">
        <ele>432.53</ele>
        <time>2026-06-03T13:21:22.549739003Z</time>
      </trkpt>
      <trkpt lat="42.90998" lon="2.22121">
        <ele>432.58</ele>
        <time>2026-06-03T13:21:23.449975967Z</time>
      </trkpt>
      <trkpt lat="42.90999" lon="2.22117">
        <ele>432.64</ele>
        <time>2026-06-03T13:21:24.647940040Z</time>
      </trkpt>
      <trkpt lat="42.91" lon="2.22113">
        <ele>432.72</ele>
        <time>2026-06-03T13:21:25.406949043Z</time>
      </trkpt>
      <trkpt lat="42.91" lon="2.22108">
        <ele>432.82</ele>
        <time>2026-06-03T13:21:26.442170978Z</time>
      </trkpt>
      <trkpt lat="42.91001" lon="2.22105">
        <ele>432.95</ele>
        <time>2026-06-03T13:21:27.467303991Z</time>
      </trkpt>
      <trkpt lat="42.91001" lon="2.22101">
        <ele>433.1</ele>
        <time>2026-06-03T13:21:28.400846004Z</time>
      </trkpt>
      <trkpt lat="42.91002" lon="2.22098">
        <ele>433.29</ele>
        <time>2026-06-03T13:21:29.417588949Z</time>
      </trkpt>
      <trkpt lat="42.91002" lon="2.22096">
        <ele>433.5</ele>
        <time>2026-06-03T13:21:30.436267972Z</time>
      </trkpt>
      <trkpt lat="42.91002" lon="2.22092">
        <ele>433.74</ele>
        <time>2026-06-03T13:21:31.429831028Z</time>
      </trkpt>
      <trkpt lat="42.91003" lon="2.22088">
        <ele>433.99</ele>
        <time>2026-06-03T13:21:32.388811946Z</time>
      </trkpt>
      <trkpt lat="42.91004" lon="2.22084">
        <ele>434.23</ele>
        <time>2026-06-03T13:21:33.408020020Z</time>
      </trkpt>
      <trkpt lat="42.91005" lon="2.22081">
        <ele>434.49</ele>
        <time>2026-06-03T13:21:34.487946033Z</time>
      </trkpt>
      <trkpt lat="42.91006" lon="2.22077">
        <ele>434.74</ele>
        <time>2026-06-03T13:21:35.434952974Z</time>
      </trkpt>
      <trkpt lat="42.91007" lon="2.22074">
        <ele>434.95</ele>
        <time>2026-06-03T13:21:36.588521004Z</time>
      </trkpt>
      <trkpt lat="42.91008" lon="2.2207">
        <ele>435.18</ele>
        <time>2026-06-03T13:21:37.431947947Z</time>
      </trkpt>
      <trkpt lat="42.91008" lon="2.22066">
        <ele>435.42</ele>
        <time>2026-06-03T13:21:38.472663999Z</time>
      </trkpt>
      <trkpt lat="42.91009" lon="2.22063">
        <ele>435.69</ele>
        <time>2026-06-03T13:21:39.468827009Z</time>
      </trkpt>
      <trkpt lat="42.91009" lon="2.22059">
        <ele>435.94</ele>
        <time>2026-06-03T13:21:40.549782991Z</time>
      </trkpt>
      <trkpt lat="42.9101" lon="2.22055">
        <ele>436.2</ele>
        <time>2026-06-03T13:21:41.461444974Z</time>
      </trkpt>
      <trkpt lat="42.9101" lon="2.22051">
        <ele>436.46</ele>
        <time>2026-06-03T13:21:42.409942985Z</time>
      </trkpt>
      <trkpt lat="42.9101" lon="2.22048">
        <ele>436.71</ele>
        <time>2026-06-03T13:21:43.599171042Z</time>
      </trkpt>
      <trkpt lat="42.91011" lon="2.22045">
        <ele>436.94</ele>
        <time>2026-06-03T13:21:44.673349977Z</time>
      </trkpt>
      <trkpt lat="42.91011" lon="2.22041">
        <ele>437.19</ele>
        <time>2026-06-03T13:21:45.528298974Z</time>
      </trkpt>
      <trkpt lat="42.91012" lon="2.22037">
        <ele>437.45</ele>
        <time>2026-06-03T13:21:46.548648953Z</time>
      </trkpt>
      <trkpt lat="42.91013" lon="2.22034">
        <ele>437.73</ele>
        <time>2026-06-03T13:21:47.507850051Z</time>
      </trkpt>
      <trkpt lat="42.91014" lon="2.2203">
        <ele>438.02</ele>
        <time>2026-06-03T13:21:48.589036942Z</time>
      </trkpt>
      <trkpt lat="42.91014" lon="2.22027">
        <ele>438.32</ele>
        <time>2026-06-03T13:21:49.429365993Z</time>
      </trkpt>
      <trkpt lat="42.91015" lon="2.22024">
        <ele>438.6</ele>
        <time>2026-06-03T13:21:50.568490028Z</time>
      </trkpt>
      <trkpt lat="42.91016" lon="2.22021">
        <ele>438.84</ele>
        <time>2026-06-03T13:21:51.471508026Z</time>
      </trkpt>
      <trkpt lat="42.91017" lon="2.22017">
        <ele>439.07</ele>
        <time>2026-06-03T13:21:52.788918018Z</time>
      </trkpt>
      <trkpt lat="42.91017" lon="2.22014">
        <ele>439.29</ele>
        <time>2026-06-03T13:21:53.449468970Z</time>
      </trkpt>
      <trkpt lat="42.91018" lon="2.2201">
        <ele>439.52</ele>
        <time>2026-06-03T13:21:54.435928941Z</time>
      </trkpt>
      <trkpt lat="42.91019" lon="2.22007">
        <ele>439.73</ele>
        <time>2026-06-03T13:21:55.550737977Z</time>
      </trkpt>
      <trkpt lat="42.9102" lon="2.22003">
        <ele>439.96</ele>
        <time>2026-06-03T13:21:56.460857987Z</time>
      </trkpt>
      <trkpt lat="42.91021" lon="2.21999">
        <ele>440.2</ele>
        <time>2026-06-03T13:21:57.530153036Z</time>
      </trkpt>
      <trkpt lat="42.91022" lon="2.21996">
        <ele>440.45</ele>
        <time>2026-06-03T13:21:58.604143977Z</time>
      </trkpt>
      <trkpt lat="42.91023" lon="2.21992">
        <ele>440.7</ele>
        <time>2026-06-03T13:21:59.678151011Z</time>
      </trkpt>
      <trkpt lat="42.91025" lon="2.21989">
        <ele>440.96</ele>
        <time>2026-06-03T13:22:00.445490956Z</time>
      </trkpt>
      <trkpt lat="42.91026" lon="2.21986">
        <ele>441.21</ele>
        <time>2026-06-03T13:22:01.608636975Z</time>
      </trkpt>
      <trkpt lat="42.91028" lon="2.21983">
        <ele>441.46</ele>
        <time>2026-06-03T13:22:02.449468970Z</time>
      </trkpt>
      <trkpt lat="42.9103" lon="2.2198">
        <ele>441.7</ele>
        <time>2026-06-03T13:22:03.409677982Z</time>
      </trkpt>
      <trkpt lat="42.91031" lon="2.21978">
        <ele>441.95</ele>
        <time>2026-06-03T13:22:04.370102048Z</time>
      </trkpt>
      <trkpt lat="42.91033" lon="2.21975">
        <ele>442.19</ele>
        <time>2026-06-03T13:22:05.568768978Z</time>
      </trkpt>
      <trkpt lat="42.91035" lon="2.21972">
        <ele>442.4</ele>
        <time>2026-06-03T13:22:06.708222032Z</time>
      </trkpt>
      <trkpt lat="42.91036" lon="2.21969">
        <ele>442.62</ele>
        <time>2026-06-03T13:22:07.431995988Z</time>
      </trkpt>
      <trkpt lat="42.91038" lon="2.21966">
        <ele>442.85</ele>
        <time>2026-06-03T13:22:08.749111056Z</time>
      </trkpt>
      <trkpt lat="42.9104" lon="2.21963">
        <ele>443.07</ele>
        <time>2026-06-03T13:22:09.409114003Z</time>
      </trkpt>
      <trkpt lat="42.91041" lon="2.2196">
        <ele>443.28</ele>
        <time>2026-06-03T13:22:10.430690050Z</time>
      </trkpt>
      <trkpt lat="42.91043" lon="2.21956">
        <ele>443.48</ele>
        <time>2026-06-03T13:22:11.389415026Z</time>
      </trkpt>
      <trkpt lat="42.91044" lon="2.21953">
        <ele>443.68</ele>
        <time>2026-06-03T13:22:12.409765005Z</time>
      </trkpt>
      <trkpt lat="42.91046" lon="2.2195">
        <ele>443.87</ele>
        <time>2026-06-03T13:22:13.375270963Z</time>
      </trkpt>
      <trkpt lat="42.91048" lon="2.21947">
        <ele>444.05</ele>
        <time>2026-06-03T13:22:14.389762044Z</time>
      </trkpt>
      <trkpt lat="42.9105" lon="2.21944">
        <ele>444.22</ele>
        <time>2026-06-03T13:22:15.442510009Z</time>
      </trkpt>
      <trkpt lat="42.91051" lon="2.2194">
        <ele>444.38</ele>
        <time>2026-06-03T13:22:16.377756953Z</time>
      </trkpt>
      <trkpt lat="42.91053" lon="2.21938">
        <ele>444.52</ele>
        <time>2026-06-03T13:22:17.389480948Z</time>
      </trkpt>
      <trkpt lat="42.91054" lon="2.21935">
        <ele>444.66</ele>
        <time>2026-06-03T13:22:18.409255981Z</time>
      </trkpt>
      <trkpt lat="42.91056" lon="2.21931">
        <ele>444.78</ele>
        <time>2026-06-03T13:22:19.373357058Z</time>
      </trkpt>
      <trkpt lat="42.91058" lon="2.21929">
        <ele>444.88</ele>
        <time>2026-06-03T13:22:20.449321985Z</time>
      </trkpt>
      <trkpt lat="42.91059" lon="2.21925">
        <ele>444.98</ele>
        <time>2026-06-03T13:22:21.425313950Z</time>
      </trkpt>
      <trkpt lat="42.91061" lon="2.21922">
        <ele>445.1</ele>
        <time>2026-06-03T13:22:22.368376970Z</time>
      </trkpt>
      <trkpt lat="42.91063" lon="2.21919">
        <ele>445.22</ele>
        <time>2026-06-03T13:22:23.388617039Z</time>
      </trkpt>
      <trkpt lat="42.91065" lon="2.21915">
        <ele>445.35</ele>
        <time>2026-06-03T13:22:24.409595013Z</time>
      </trkpt>
      <trkpt lat="42.91067" lon="2.21912">
        <ele>445.48</ele>
        <time>2026-06-03T13:22:25.488356948Z</time>
      </trkpt>
      <trkpt lat="42.9107" lon="2.21908">
        <ele>445.6</ele>
        <time>2026-06-03T13:22:26.448760033Z</time>
      </trkpt>
      <trkpt lat="42.91072" lon="2.21904">
        <ele>445.69</ele>
        <time>2026-06-03T13:22:27.539895058Z</time>
      </trkpt>
      <trkpt lat="42.91074" lon="2.21901">
        <ele>445.78</ele>
        <time>2026-06-03T13:22:28.369261026Z</time>
      </trkpt>
      <trkpt lat="42.91076" lon="2.21897">
        <ele>445.86</ele>
        <time>2026-06-03T13:22:29.389762044Z</time>
      </trkpt>
      <trkpt lat="42.91079" lon="2.21892">
        <ele>445.93</ele>
        <time>2026-06-03T13:22:30.413190961Z</time>
      </trkpt>
      <trkpt lat="42.91081" lon="2.21889">
        <ele>446</ele>
        <time>2026-06-03T13:22:31.380421042Z</time>
      </trkpt>
      <trkpt lat="42.91084" lon="2.21885">
        <ele>446.06</ele>
        <time>2026-06-03T13:22:32.389631987Z</time>
      </trkpt>
      <trkpt lat="42.91087" lon="2.2188">
        <ele>446.11</ele>
        <time>2026-06-03T13:22:33.589537978Z</time>
      </trkpt>
      <trkpt lat="42.9109" lon="2.21876">
        <ele>446.16</ele>
        <time>2026-06-03T13:22:34.375033975Z</time>
      </trkpt>
      <trkpt lat="42.91093" lon="2.21872">
        <ele>446.19</ele>
        <time>2026-06-03T13:22:35.629317999Z</time>
      </trkpt>
      <trkpt lat="42.91096" lon="2.21868">
        <ele>446.22</ele>
        <time>2026-06-03T13:22:36.589295983Z</time>
      </trkpt>
      <trkpt lat="42.91099" lon="2.21864">
        <ele>446.24</ele>
        <time>2026-06-03T13:22:37.378991008Z</time>
      </trkpt>
      <trkpt lat="42.91101" lon="2.21861">
        <ele>446.26</ele>
        <time>2026-06-03T13:22:38.389644980Z</time>
      </trkpt>
      <trkpt lat="42.91103" lon="2.21859">
        <ele>446.26</ele>
        <time>2026-06-03T13:22:39.769678950Z</time>
      </trkpt>
      <trkpt lat="42.91106" lon="2.21856">
        <ele>446.16</ele>
        <time>2026-06-03T13:22:40.432839990Z</time>
      </trkpt>
      <trkpt lat="42.91108" lon="2.21854">
        <ele>446.07</ele>
        <time>2026-06-03T13:22:41.389428020Z</time>
      </trkpt>
      <trkpt lat="42.91111" lon="2.21851">
        <ele>445.99</ele>
        <time>2026-06-03T13:22:42.409816980Z</time>
      </trkpt>
      <trkpt lat="42.91114" lon="2.21849">
        <ele>445.95</ele>
        <time>2026-06-03T13:22:43.608698964Z</time>
      </trkpt>
      <trkpt lat="42.91117" lon="2.21847">
        <ele>445.92</ele>
        <time>2026-06-03T13:22:44.391695023Z</time>
      </trkpt>
      <trkpt lat="42.91121" lon="2.21844">
        <ele>445.9</ele>
        <time>2026-06-03T13:22:45.469588995Z</time>
      </trkpt>
      <trkpt lat="42.91124" lon="2.21842">
        <ele>445.9</ele>
        <time>2026-06-03T13:22:46.429988980Z</time>
      </trkpt>
      <trkpt lat="42.91127" lon="2.2184">
        <ele>445.91</ele>
        <time>2026-06-03T13:22:47.541393042Z</time>
      </trkpt>
      <trkpt lat="42.91129" lon="2.21838">
        <ele>445.91</ele>
        <time>2026-06-03T13:22:48.410068035Z</time>
      </trkpt>
      <trkpt lat="42.91132" lon="2.21836">
        <ele>445.89</ele>
        <time>2026-06-03T13:22:49.609755993Z</time>
      </trkpt>
      <trkpt lat="42.91135" lon="2.21833">
        <ele>445.88</ele>
        <time>2026-06-03T13:22:50.451184034Z</time>
      </trkpt>
      <trkpt lat="42.91138" lon="2.2183">
        <ele>445.86</ele>
        <time>2026-06-03T13:22:51.409721971Z</time>
      </trkpt>
      <trkpt lat="42.91142" lon="2.21827">
        <ele>445.83</ele>
        <time>2026-06-03T13:22:52.430503011Z</time>
      </trkpt>
      <trkpt lat="42.91144" lon="2.21824">
        <ele>445.79</ele>
        <time>2026-06-03T13:22:53.392109036Z</time>
      </trkpt>
      <trkpt lat="42.91146" lon="2.21822">
        <ele>445.74</ele>
        <time>2026-06-03T13:22:54.589735031Z</time>
      </trkpt>
      <trkpt lat="42.91148" lon="2.21819">
        <ele>445.68</ele>
        <time>2026-06-03T13:22:55.490424037Z</time>
      </trkpt>
      <trkpt lat="42.9115" lon="2.21817">
        <ele>445.64</ele>
        <time>2026-06-03T13:22:56.394850969Z</time>
      </trkpt>
      <trkpt lat="42.91153" lon="2.21815">
        <ele>445.6</ele>
        <time>2026-06-03T13:22:57.469882965Z</time>
      </trkpt>
      <trkpt lat="42.91156" lon="2.21811">
        <ele>445.59</ele>
        <time>2026-06-03T13:22:58.456130981Z</time>
      </trkpt>
      <trkpt lat="42.91159" lon="2.21808">
        <ele>445.59</ele>
        <time>2026-06-03T13:22:59.398609996Z</time>
      </trkpt>
      <trkpt lat="42.91163" lon="2.21806">
        <ele>445.63</ele>
        <time>2026-06-03T13:23:00.414276958Z</time>
      </trkpt>
      <trkpt lat="42.91166" lon="2.21803">
        <ele>445.67</ele>
        <time>2026-06-03T13:23:01.549780965Z</time>
      </trkpt>
      <trkpt lat="42.91169" lon="2.218">
        <ele>445.71</ele>
        <time>2026-06-03T13:23:02.401270986Z</time>
      </trkpt>
      <trkpt lat="42.91172" lon="2.21797">
        <ele>445.77</ele>
        <time>2026-06-03T13:23:03.445044041Z</time>
      </trkpt>
      <trkpt lat="42.91175" lon="2.21793">
        <ele>445.82</ele>
        <time>2026-06-03T13:23:04.431674957Z</time>
      </trkpt>
      <trkpt lat="42.91178" lon="2.2179">
        <ele>445.86</ele>
        <time>2026-06-03T13:23:05.509811044Z</time>
      </trkpt>
      <trkpt lat="42.91181" lon="2.21788">
        <ele>445.91</ele>
        <time>2026-06-03T13:23:06.410652995Z</time>
      </trkpt>
      <trkpt lat="42.91184" lon="2.21786">
        <ele>445.96</ele>
        <time>2026-06-03T13:23:07.490074992Z</time>
      </trkpt>
      <trkpt lat="42.91187" lon="2.21785">
        <ele>446.03</ele>
        <time>2026-06-03T13:23:08.403154016Z</time>
      </trkpt>
      <trkpt lat="42.91191" lon="2.21784">
        <ele>446.1</ele>
        <time>2026-06-03T13:23:09.440233946Z</time>
      </trkpt>
      <trkpt lat="42.91194" lon="2.21783">
        <ele>446.17</ele>
        <time>2026-06-03T13:23:10.430778980Z</time>
      </trkpt>
      <trkpt lat="42.91197" lon="2.21781">
        <ele>446.26</ele>
        <time>2026-06-03T13:23:11.486165047Z</time>
      </trkpt>
      <trkpt lat="42.91201" lon="2.2178">
        <ele>446.34</ele>
        <time>2026-06-03T13:23:12.409746051Z</time>
      </trkpt>
      <trkpt lat="42.91203" lon="2.2178">
        <ele>446.43</ele>
        <time>2026-06-03T13:23:13.432625055Z</time>
      </trkpt>
      <trkpt lat="42.91206" lon="2.21781">
        <ele>446.52</ele>
        <time>2026-06-03T13:23:14.451650023Z</time>
      </trkpt>
      <trkpt lat="42.9121" lon="2.21781">
        <ele>446.6</ele>
        <time>2026-06-03T13:23:15.413946986Z</time>
      </trkpt>
      <trkpt lat="42.91214" lon="2.21782">
        <ele>446.68</ele>
        <time>2026-06-03T13:23:16.431079984Z</time>
      </trkpt>
      <trkpt lat="42.91217" lon="2.21782">
        <ele>446.74</ele>
        <time>2026-06-03T13:23:17.510568023Z</time>
      </trkpt>
      <trkpt lat="42.91222" lon="2.21782">
        <ele>446.8</ele>
        <time>2026-06-03T13:23:18.590281010Z</time>
      </trkpt>
      <trkpt lat="42.91225" lon="2.21782">
        <ele>446.85</ele>
        <time>2026-06-03T13:23:19.430639029Z</time>
      </trkpt>
      <trkpt lat="42.91228" lon="2.21781">
        <ele>446.89</ele>
        <time>2026-06-03T13:23:20.570327997Z</time>
      </trkpt>
      <trkpt lat="42.91231" lon="2.2178">
        <ele>446.94</ele>
        <time>2026-06-03T13:23:21.410709023Z</time>
      </trkpt>
      <trkpt lat="42.91233" lon="2.21777">
        <ele>446.97</ele>
        <time>2026-06-03T13:23:22.611191034Z</time>
      </trkpt>
      <trkpt lat="42.91235" lon="2.21775">
        <ele>447</ele>
        <time>2026-06-03T13:23:23.452175021Z</time>
      </trkpt>
      <trkpt lat="42.91237" lon="2.21772">
        <ele>447.03</ele>
        <time>2026-06-03T13:23:24.410014033Z</time>
      </trkpt>
      <trkpt lat="42.91238" lon="2.2177">
        <ele>447.06</ele>
        <time>2026-06-03T13:23:25.401666045Z</time>
      </trkpt>
      <trkpt lat="42.91239" lon="2.21768">
        <ele>447.08</ele>
        <time>2026-06-03T13:23:33.409587026Z</time>
      </trkpt>
      <trkpt lat="42.91242" lon="2.21767">
        <ele>447.08</ele>
        <time>2026-06-03T13:25:59.454234004Z</time>
      </trkpt>
      <trkpt lat="42.91242" lon="2.2177">
        <ele>448.57</ele>
        <time>2026-06-03T13:26:11.392493010Z</time>
      </trkpt>
      <trkpt lat="42.91236" lon="2.21768">
        <ele>448.57</ele>
        <time>2026-06-03T13:26:12.413105965Z</time>
      </trkpt>
      <trkpt lat="42.91235" lon="2.21769">
        <ele>448.53</ele>
        <time>2026-06-03T13:26:13.378188968Z</time>
      </trkpt>
      <trkpt lat="42.91232" lon="2.21769">
        <ele>448.57</ele>
        <time>2026-06-03T13:26:14.393689036Z</time>
      </trkpt>
      <trkpt lat="42.9123" lon="2.2177">
        <ele>448.49</ele>
        <time>2026-06-03T13:26:15.473309994Z</time>
      </trkpt>
      <trkpt lat="42.91227" lon="2.21771">
        <ele>448.39</ele>
        <time>2026-06-03T13:26:16.433233976Z</time>
      </trkpt>
      <trkpt lat="42.91225" lon="2.21772">
        <ele>448.3</ele>
        <time>2026-06-03T13:26:17.452491999Z</time>
      </trkpt>
      <trkpt lat="42.91222" lon="2.21773">
        <ele>448.22</ele>
        <time>2026-06-03T13:26:18.473317027Z</time>
      </trkpt>
      <trkpt lat="42.9122" lon="2.21774">
        <ele>448.13</ele>
        <time>2026-06-03T13:26:19.383033991Z</time>
      </trkpt>
      <trkpt lat="42.91218" lon="2.21776">
        <ele>448.05</ele>
        <time>2026-06-03T13:26:20.453585982Z</time>
      </trkpt>
      <trkpt lat="42.91215" lon="2.21777">
        <ele>447.98</ele>
        <time>2026-06-03T13:26:21.413293004Z</time>
      </trkpt>
      <trkpt lat="42.91212" lon="2.21777">
        <ele>447.92</ele>
        <time>2026-06-03T13:26:22.394075990Z</time>
      </trkpt>
      <trkpt lat="42.9121" lon="2.21778">
        <ele>447.88</ele>
        <time>2026-06-03T13:26:23.455026984Z</time>
      </trkpt>
      <trkpt lat="42.91208" lon="2.21778">
        <ele>447.85</ele>
        <time>2026-06-03T13:26:24.474977016Z</time>
      </trkpt>
      <trkpt lat="42.91204" lon="2.21777">
        <ele>447.82</ele>
        <time>2026-06-03T13:26:25.433524966Z</time>
      </trkpt>
      <trkpt lat="42.91202" lon="2.21776">
        <ele>447.79</ele>
        <time>2026-06-03T13:26:26.453744054Z</time>
      </trkpt>
      <trkpt lat="42.91199" lon="2.21774">
        <ele>447.76</ele>
        <time>2026-06-03T13:26:27.473615050Z</time>
      </trkpt>
      <trkpt lat="42.91196" lon="2.21772">
        <ele>447.72</ele>
        <time>2026-06-03T13:26:28.432448030Z</time>
      </trkpt>
      <trkpt lat="42.91193" lon="2.21771">
        <ele>447.68</ele>
        <time>2026-06-03T13:26:29.453624964Z</time>
      </trkpt>
      <trkpt lat="42.9119" lon="2.2177">
        <ele>447.64</ele>
        <time>2026-06-03T13:26:30.412281990Z</time>
      </trkpt>
      <trkpt lat="42.91188" lon="2.21769">
        <ele>447.6</ele>
        <time>2026-06-03T13:26:31.432347059Z</time>
      </trkpt>
      <trkpt lat="42.91184" lon="2.21769">
        <ele>447.58</ele>
        <time>2026-06-03T13:26:32.453809977Z</time>
      </trkpt>
      <trkpt lat="42.91181" lon="2.21768">
        <ele>447.57</ele>
        <time>2026-06-03T13:26:33.473816037Z</time>
      </trkpt>
      <trkpt lat="42.91178" lon="2.21768">
        <ele>447.58</ele>
        <time>2026-06-03T13:26:34.432446003Z</time>
      </trkpt>
      <trkpt lat="42.91174" lon="2.21768">
        <ele>447.62</ele>
        <time>2026-06-03T13:26:35.454151034Z</time>
      </trkpt>
      <trkpt lat="42.91171" lon="2.21767">
        <ele>447.66</ele>
        <time>2026-06-03T13:26:36.445544958Z</time>
      </trkpt>
      <trkpt lat="42.91167" lon="2.21766">
        <ele>447.69</ele>
        <time>2026-06-03T13:26:37.493270040Z</time>
      </trkpt>
      <trkpt lat="42.91163" lon="2.21765">
        <ele>447.7</ele>
        <time>2026-06-03T13:26:38.453222990Z</time>
      </trkpt>
      <trkpt lat="42.91159" lon="2.21763">
        <ele>447.68</ele>
        <time>2026-06-03T13:26:39.412600994Z</time>
      </trkpt>
      <trkpt lat="42.91156" lon="2.21761">
        <ele>447.63</ele>
        <time>2026-06-03T13:26:40.433256984Z</time>
      </trkpt>
      <trkpt lat="42.91152" lon="2.21758">
        <ele>447.59</ele>
        <time>2026-06-03T13:26:41.455078006Z</time>
      </trkpt>
      <trkpt lat="42.91149" lon="2.21755">
        <ele>447.54</ele>
        <time>2026-06-03T13:26:42.413133979Z</time>
      </trkpt>
      <trkpt lat="42.91145" lon="2.21752">
        <ele>447.5</ele>
        <time>2026-06-03T13:26:43.433230042Z</time>
      </trkpt>
      <trkpt lat="42.91142" lon="2.21749">
        <ele>447.46</ele>
        <time>2026-06-03T13:26:44.454310060Z</time>
      </trkpt>
      <trkpt lat="42.91138" lon="2.21747">
        <ele>447.42</ele>
        <time>2026-06-03T13:26:45.417883039Z</time>
      </trkpt>
      <trkpt lat="42.91135" lon="2.21743">
        <ele>447.39</ele>
        <time>2026-06-03T13:26:46.433683038Z</time>
      </trkpt>
      <trkpt lat="42.91131" lon="2.21741">
        <ele>447.36</ele>
        <time>2026-06-03T13:26:47.453894019Z</time>
      </trkpt>
      <trkpt lat="42.91127" lon="2.21737">
        <ele>447.36</ele>
        <time>2026-06-03T13:26:48.473796010Z</time>
      </trkpt>
      <trkpt lat="42.91124" lon="2.21734">
        <ele>447.37</ele>
        <time>2026-06-03T13:26:49.433385968Z</time>
      </trkpt>
      <trkpt lat="42.91121" lon="2.21731">
        <ele>447.37</ele>
        <time>2026-06-03T13:26:50.455096006Z</time>
      </trkpt>
      <trkpt lat="42.91118" lon="2.21729">
        <ele>447.37</ele>
        <time>2026-06-03T13:26:51.450495958Z</time>
      </trkpt>
      <trkpt lat="42.91114" lon="2.21726">
        <ele>447.38</ele>
        <time>2026-06-03T13:26:52.493571043Z</time>
      </trkpt>
      <trkpt lat="42.91112" lon="2.21724">
        <ele>447.33</ele>
        <time>2026-06-03T13:26:53.455865979Z</time>
      </trkpt>
      <trkpt lat="42.91109" lon="2.21722">
        <ele>447.26</ele>
        <time>2026-06-03T13:26:54.475131989Z</time>
      </trkpt>
      <trkpt lat="42.91107" lon="2.2172">
        <ele>447.17</ele>
        <time>2026-06-03T13:26:55.433377028Z</time>
      </trkpt>
      <trkpt lat="42.91105" lon="2.21718">
        <ele>447.06</ele>
        <time>2026-06-03T13:26:56.455091953Z</time>
      </trkpt>
      <trkpt lat="42.91101" lon="2.21717">
        <ele>446.95</ele>
        <time>2026-06-03T13:26:57.422984004Z</time>
      </trkpt>
      <trkpt lat="42.91098" lon="2.21716">
        <ele>446.84</ele>
        <time>2026-06-03T13:26:58.433385968Z</time>
      </trkpt>
      <trkpt lat="42.91093" lon="2.21715">
        <ele>446.73</ele>
        <time>2026-06-03T13:26:59.455554962Z</time>
      </trkpt>
      <trkpt lat="42.9109" lon="2.21715">
        <ele>446.63</ele>
        <time>2026-06-03T13:27:00.474308968Z</time>
      </trkpt>
      <trkpt lat="42.91087" lon="2.21714">
        <ele>446.54</ele>
        <time>2026-06-03T13:27:01.493774056Z</time>
      </trkpt>
      <trkpt lat="42.91083" lon="2.21712">
        <ele>446.45</ele>
        <time>2026-06-03T13:27:02.517863035Z</time>
      </trkpt>
      <trkpt lat="42.91079" lon="2.21711">
        <ele>446.37</ele>
        <time>2026-06-03T13:27:03.473461032Z</time>
      </trkpt>
      <trkpt lat="42.91076" lon="2.21708">
        <ele>446.29</ele>
        <time>2026-06-03T13:27:04.433797956Z</time>
      </trkpt>
      <trkpt lat="42.91072" lon="2.21706">
        <ele>446.23</ele>
        <time>2026-06-03T13:27:05.454872966Z</time>
      </trkpt>
      <trkpt lat="42.91068" lon="2.21704">
        <ele>446.19</ele>
        <time>2026-06-03T13:27:06.455961943Z</time>
      </trkpt>
      <trkpt lat="42.91065" lon="2.21702">
        <ele>446.17</ele>
        <time>2026-06-03T13:27:07.434038043Z</time>
      </trkpt>
      <trkpt lat="42.91062" lon="2.217">
        <ele>446.19</ele>
        <time>2026-06-03T13:27:08.453806996Z</time>
      </trkpt>
      <trkpt lat="42.91059" lon="2.21698">
        <ele>446.24</ele>
        <time>2026-06-03T13:27:09.474320054Z</time>
      </trkpt>
      <trkpt lat="42.91055" lon="2.21696">
        <ele>446.28</ele>
        <time>2026-06-03T13:27:10.460543036Z</time>
      </trkpt>
      <trkpt lat="42.91053" lon="2.21694">
        <ele>446.31</ele>
        <time>2026-06-03T13:27:11.453420043Z</time>
      </trkpt>
      <trkpt lat="42.91049" lon="2.21693">
        <ele>446.34</ele>
        <time>2026-06-03T13:27:12.472921014Z</time>
      </trkpt>
      <trkpt lat="42.91047" lon="2.21691">
        <ele>446.35</ele>
        <time>2026-06-03T13:27:13.448994040Z</time>
      </trkpt>
      <trkpt lat="42.91044" lon="2.2169">
        <ele>446.35</ele>
        <time>2026-06-03T13:27:14.453734994Z</time>
      </trkpt>
      <trkpt lat="42.9104" lon="2.21688">
        <ele>446.25</ele>
        <time>2026-06-03T13:27:15.473665953Z</time>
      </trkpt>
      <trkpt lat="42.91038" lon="2.21687">
        <ele>446.17</ele>
        <time>2026-06-03T13:27:16.443251014Z</time>
      </trkpt>
      <trkpt lat="42.91035" lon="2.21686">
        <ele>446.11</ele>
        <time>2026-06-03T13:27:17.453871012Z</time>
      </trkpt>
      <trkpt lat="42.91031" lon="2.21684">
        <ele>446.08</ele>
        <time>2026-06-03T13:27:18.474288940Z</time>
      </trkpt>
      <trkpt lat="42.91028" lon="2.21683">
        <ele>446.05</ele>
        <time>2026-06-03T13:27:19.493908048Z</time>
      </trkpt>
      <trkpt lat="42.91024" lon="2.21681">
        <ele>446.02</ele>
        <time>2026-06-03T13:27:20.456673026Z</time>
      </trkpt>
      <trkpt lat="42.91021" lon="2.2168">
        <ele>445.99</ele>
        <time>2026-06-03T13:27:21.460324049Z</time>
      </trkpt>
      <trkpt lat="42.91018" lon="2.21679">
        <ele>445.92</ele>
        <time>2026-06-03T13:27:22.494060993Z</time>
      </trkpt>
      <trkpt lat="42.91015" lon="2.21677">
        <ele>445.83</ele>
        <time>2026-06-03T13:27:23.453909039Z</time>
      </trkpt>
      <trkpt lat="42.91011" lon="2.21675">
        <ele>445.72</ele>
        <time>2026-06-03T13:27:24.474071026Z</time>
      </trkpt>
      <trkpt lat="42.91007" lon="2.21674">
        <ele>445.61</ele>
        <time>2026-06-03T13:27:25.494132042Z</time>
      </trkpt>
      <trkpt lat="42.91003" lon="2.21672">
        <ele>445.48</ele>
        <time>2026-06-03T13:27:26.453824043Z</time>
      </trkpt>
      <trkpt lat="42.91" lon="2.2167">
        <ele>445.35</ele>
        <time>2026-06-03T13:27:27.473906994Z</time>
      </trkpt>
      <trkpt lat="42.90997" lon="2.21668">
        <ele>445.22</ele>
        <time>2026-06-03T13:27:28.493185043Z</time>
      </trkpt>
      <trkpt lat="42.90995" lon="2.21666">
        <ele>445.1</ele>
        <time>2026-06-03T13:27:29.457900047Z</time>
      </trkpt>
      <trkpt lat="42.90992" lon="2.21665">
        <ele>444.99</ele>
        <time>2026-06-03T13:27:30.474293947Z</time>
      </trkpt>
      <trkpt lat="42.90989" lon="2.21664">
        <ele>444.9</ele>
        <time>2026-06-03T13:27:31.556892037Z</time>
      </trkpt>
      <trkpt lat="42.90986" lon="2.21663">
        <ele>444.82</ele>
        <time>2026-06-03T13:27:32.460579038Z</time>
      </trkpt>
      <trkpt lat="42.90983" lon="2.21661">
        <ele>444.74</ele>
        <time>2026-06-03T13:27:33.475785017Z</time>
      </trkpt>
      <trkpt lat="42.9098" lon="2.2166">
        <ele>444.68</ele>
        <time>2026-06-03T13:27:34.494608045Z</time>
      </trkpt>
      <trkpt lat="42.90977" lon="2.21659">
        <ele>444.63</ele>
        <time>2026-06-03T13:27:35.464773059Z</time>
      </trkpt>
      <trkpt lat="42.90973" lon="2.21658">
        <ele>444.59</ele>
        <time>2026-06-03T13:27:36.474946022Z</time>
      </trkpt>
      <trkpt lat="42.9097" lon="2.21656">
        <ele>444.54</ele>
        <time>2026-06-03T13:27:37.529000998Z</time>
      </trkpt>
      <trkpt lat="42.90966" lon="2.21654">
        <ele>444.5</ele>
        <time>2026-06-03T13:27:38.514052033Z</time>
      </trkpt>
      <trkpt lat="42.90962" lon="2.21653">
        <ele>444.45</ele>
        <time>2026-06-03T13:27:39.474696994Z</time>
      </trkpt>
      <trkpt lat="42.90958" lon="2.21651">
        <ele>444.4</ele>
        <time>2026-06-03T13:27:40.494650960Z</time>
      </trkpt>
      <trkpt lat="42.90953" lon="2.21649">
        <ele>444.32</ele>
        <time>2026-06-03T13:27:41.465422988Z</time>
      </trkpt>
      <trkpt lat="42.90948" lon="2.21647">
        <ele>444.21</ele>
        <time>2026-06-03T13:27:42.475013018Z</time>
      </trkpt>
      <trkpt lat="42.90942" lon="2.21643">
        <ele>444.06</ele>
        <time>2026-06-03T13:27:43.494979024Z</time>
      </trkpt>
      <trkpt lat="42.90937" lon="2.2164">
        <ele>443.86</ele>
        <time>2026-06-03T13:27:44.457867026Z</time>
      </trkpt>
      <trkpt lat="42.90932" lon="2.21637">
        <ele>443.61</ele>
        <time>2026-06-03T13:27:45.476734996Z</time>
      </trkpt>
      <trkpt lat="42.90928" lon="2.21634">
        <ele>443.38</ele>
        <time>2026-06-03T13:27:46.495028019Z</time>
      </trkpt>
      <trkpt lat="42.90923" lon="2.2163">
        <ele>443.11</ele>
        <time>2026-06-03T13:27:47.456431985Z</time>
      </trkpt>
      <trkpt lat="42.9092" lon="2.21627">
        <ele>442.83</ele>
        <time>2026-06-03T13:27:48.474745035Z</time>
      </trkpt>
      <trkpt lat="42.90917" lon="2.21625">
        <ele>442.53</ele>
        <time>2026-06-03T13:27:49.374503970Z</time>
      </trkpt>
      <trkpt lat="42.90915" lon="2.21623">
        <ele>442.24</ele>
        <time>2026-06-03T13:27:50.456714988Z</time>
      </trkpt>
      <trkpt lat="42.90911" lon="2.21621">
        <ele>442</ele>
        <time>2026-06-03T13:27:51.470221043Z</time>
      </trkpt>
      <trkpt lat="42.90908" lon="2.2162">
        <ele>441.8</ele>
        <time>2026-06-03T13:27:52.495496988Z</time>
      </trkpt>
      <trkpt lat="42.90906" lon="2.21618">
        <ele>441.64</ele>
        <time>2026-06-03T13:27:53.514816046Z</time>
      </trkpt>
      <trkpt lat="42.90903" lon="2.21616">
        <ele>441.54</ele>
        <time>2026-06-03T13:27:54.475178957Z</time>
      </trkpt>
      <trkpt lat="42.909" lon="2.21614">
        <ele>441.49</ele>
        <time>2026-06-03T13:27:55.434996009Z</time>
      </trkpt>
      <trkpt lat="42.90897" lon="2.21612">
        <ele>441.47</ele>
        <time>2026-06-03T13:27:56.454810977Z</time>
      </trkpt>
      <trkpt lat="42.90894" lon="2.21609">
        <ele>441.48</ele>
        <time>2026-06-03T13:27:57.474678993Z</time>
      </trkpt>
      <trkpt lat="42.90891" lon="2.21606">
        <ele>441.52</ele>
        <time>2026-06-03T13:27:58.495893955Z</time>
      </trkpt>
      <trkpt lat="42.9089" lon="2.21602">
        <ele>441.6</ele>
        <time>2026-06-03T13:27:59.456665039Z</time>
      </trkpt>
      <trkpt lat="42.90888" lon="2.21599">
        <ele>441.68</ele>
        <time>2026-06-03T13:28:00.478430033Z</time>
      </trkpt>
      <trkpt lat="42.90886" lon="2.21596">
        <ele>441.75</ele>
        <time>2026-06-03T13:28:01.495252013Z</time>
      </trkpt>
      <trkpt lat="42.90884" lon="2.21592">
        <ele>441.85</ele>
        <time>2026-06-03T13:28:02.456758976Z</time>
      </trkpt>
      <trkpt lat="42.90883" lon="2.21588">
        <ele>441.95</ele>
        <time>2026-06-03T13:28:03.474989057Z</time>
      </trkpt>
      <trkpt lat="42.90881" lon="2.21585">
        <ele>442.07</ele>
        <time>2026-06-03T13:28:04.375166059Z</time>
      </trkpt>
      <trkpt lat="42.9088" lon="2.21581">
        <ele>442.18</ele>
        <time>2026-06-03T13:28:05.401388049Z</time>
      </trkpt>
      <trkpt lat="42.90878" lon="2.21577">
        <ele>442.3</ele>
        <time>2026-06-03T13:28:06.465165973Z</time>
      </trkpt>
      <trkpt lat="42.90875" lon="2.21573">
        <ele>442.41</ele>
        <time>2026-06-03T13:28:07.495373011Z</time>
      </trkpt>
      <trkpt lat="42.90871" lon="2.2157">
        <ele>442.48</ele>
        <time>2026-06-03T13:28:08.456354022Z</time>
      </trkpt>
      <trkpt lat="42.90868" lon="2.21567">
        <ele>442.52</ele>
        <time>2026-06-03T13:28:09.477818966Z</time>
      </trkpt>
      <trkpt lat="42.90864" lon="2.21565">
        <ele>442.53</ele>
        <time>2026-06-03T13:28:10.495208979Z</time>
      </trkpt>
      <trkpt lat="42.90861" lon="2.21563">
        <ele>442.49</ele>
        <time>2026-06-03T13:28:11.515359044Z</time>
      </trkpt>
      <trkpt lat="42.90858" lon="2.21561">
        <ele>442.4</ele>
        <time>2026-06-03T13:28:12.474488974Z</time>
      </trkpt>
      <trkpt lat="42.90855" lon="2.2156">
        <ele>442.29</ele>
        <time>2026-06-03T13:28:13.495283008Z</time>
      </trkpt>
      <trkpt lat="42.90851" lon="2.21559">
        <ele>442.13</ele>
        <time>2026-06-03T13:28:14.455523014Z</time>
      </trkpt>
      <trkpt lat="42.90849" lon="2.21559">
        <ele>441.78</ele>
        <time>2026-06-03T13:28:15.477043986Z</time>
      </trkpt>
      <trkpt lat="42.90846" lon="2.2156">
        <ele>441.47</ele>
        <time>2026-06-03T13:28:16.444779038Z</time>
      </trkpt>
      <trkpt lat="42.90842" lon="2.21561">
        <ele>441.13</ele>
        <time>2026-06-03T13:28:17.515141010Z</time>
      </trkpt>
      <trkpt lat="42.90839" lon="2.21564">
        <ele>440.78</ele>
        <time>2026-06-03T13:28:18.475237012Z</time>
      </trkpt>
      <trkpt lat="42.90835" lon="2.21567">
        <ele>440.41</ele>
        <time>2026-06-03T13:28:19.495120049Z</time>
      </trkpt>
      <trkpt lat="42.90831" lon="2.2157">
        <ele>440.05</ele>
        <time>2026-06-03T13:28:20.406347036Z</time>
      </trkpt>
      <trkpt lat="42.90827" lon="2.21572">
        <ele>439.68</ele>
        <time>2026-06-03T13:28:21.470131040Z</time>
      </trkpt>
      <trkpt lat="42.90823" lon="2.21575">
        <ele>439.32</ele>
        <time>2026-06-03T13:28:22.495326042Z</time>
      </trkpt>
      <trkpt lat="42.9082" lon="2.21577">
        <ele>439.01</ele>
        <time>2026-06-03T13:28:23.459360957Z</time>
      </trkpt>
      <trkpt lat="42.90816" lon="2.21578">
        <ele>438.73</ele>
        <time>2026-06-03T13:28:24.476708055Z</time>
      </trkpt>
      <trkpt lat="42.90812" lon="2.2158">
        <ele>438.5</ele>
        <time>2026-06-03T13:28:25.495568037Z</time>
      </trkpt>
      <trkpt lat="42.90809" lon="2.21582">
        <ele>438.31</ele>
        <time>2026-06-03T13:28:26.457139015Z</time>
      </trkpt>
      <trkpt lat="42.90806" lon="2.21582">
        <ele>438.17</ele>
        <time>2026-06-03T13:28:27.475360036Z</time>
      </trkpt>
      <trkpt lat="42.90802" lon="2.21584">
        <ele>438.07</ele>
        <time>2026-06-03T13:28:28.435618997Z</time>
      </trkpt>
      <trkpt lat="42.90798" lon="2.21585">
        <ele>437.98</ele>
        <time>2026-06-03T13:28:29.515499949Z</time>
      </trkpt>
      <trkpt lat="42.90795" lon="2.21586">
        <ele>437.91</ele>
        <time>2026-06-03T13:28:30.477282047Z</time>
      </trkpt>
      <trkpt lat="42.90792" lon="2.21589">
        <ele>437.84</ele>
        <time>2026-06-03T13:28:31.495645046Z</time>
      </trkpt>
      <trkpt lat="42.90788" lon="2.2159">
        <ele>437.78</ele>
        <time>2026-06-03T13:28:32.457165956Z</time>
      </trkpt>
      <trkpt lat="42.90784" lon="2.21592">
        <ele>437.73</ele>
        <time>2026-06-03T13:28:33.414747Z</time>
      </trkpt>
      <trkpt lat="42.90781" lon="2.21593">
        <ele>437.69</ele>
        <time>2026-06-03T13:28:34.495625019Z</time>
      </trkpt>
      <trkpt lat="42.90778" lon="2.21594">
        <ele>437.65</ele>
        <time>2026-06-03T13:28:35.416718960Z</time>
      </trkpt>
      <trkpt lat="42.90774" lon="2.21595">
        <ele>437.61</ele>
        <time>2026-06-03T13:28:36.475162029Z</time>
      </trkpt>
      <trkpt lat="42.90769" lon="2.21596">
        <ele>437.58</ele>
        <time>2026-06-03T13:28:37.495558023Z</time>
      </trkpt>
      <trkpt lat="42.90765" lon="2.21598">
        <ele>437.54</ele>
        <time>2026-06-03T13:28:38.455358982Z</time>
      </trkpt>
      <trkpt lat="42.90761" lon="2.21599">
        <ele>437.49</ele>
        <time>2026-06-03T13:28:39.475747943Z</time>
      </trkpt>
      <trkpt lat="42.90757" lon="2.216">
        <ele>437.45</ele>
        <time>2026-06-03T13:28:40.495766997Z</time>
      </trkpt>
      <trkpt lat="42.90752" lon="2.21601">
        <ele>437.4</ele>
        <time>2026-06-03T13:28:41.457291007Z</time>
      </trkpt>
      <trkpt lat="42.90749" lon="2.21601">
        <ele>437.34</ele>
        <time>2026-06-03T13:28:42.477033019Z</time>
      </trkpt>
      <trkpt lat="42.90745" lon="2.21602">
        <ele>437.27</ele>
        <time>2026-06-03T13:28:43.495766997Z</time>
      </trkpt>
      <trkpt lat="42.90741" lon="2.21604">
        <ele>437.17</ele>
        <time>2026-06-03T13:28:44.485875010Z</time>
      </trkpt>
      <trkpt lat="42.90737" lon="2.21605">
        <ele>437.08</ele>
        <time>2026-06-03T13:28:45.475114942Z</time>
      </trkpt>
      <trkpt lat="42.90732" lon="2.21606">
        <ele>436.95</ele>
        <time>2026-06-03T13:28:46.496762991Z</time>
      </trkpt>
      <trkpt lat="42.90728" lon="2.21607">
        <ele>436.76</ele>
        <time>2026-06-03T13:28:47.484681010Z</time>
      </trkpt>
      <trkpt lat="42.90723" lon="2.21607">
        <ele>436.55</ele>
        <time>2026-06-03T13:28:48.475025058Z</time>
      </trkpt>
      <trkpt lat="42.90718" lon="2.21606">
        <ele>436.31</ele>
        <time>2026-06-03T13:28:49.467839956Z</time>
      </trkpt>
      <trkpt lat="42.90713" lon="2.21605">
        <ele>436.07</ele>
        <time>2026-06-03T13:28:50.406229019Z</time>
      </trkpt>
      <trkpt lat="42.90709" lon="2.21605">
        <ele>435.83</ele>
        <time>2026-06-03T13:28:51.415611029Z</time>
      </trkpt>
      <trkpt lat="42.90705" lon="2.21604">
        <ele>435.62</ele>
        <time>2026-06-03T13:28:52.467527986Z</time>
      </trkpt>
      <trkpt lat="42.90701" lon="2.21603">
        <ele>435.42</ele>
        <time>2026-06-03T13:28:53.457617044Z</time>
      </trkpt>
      <trkpt lat="42.90697" lon="2.21603">
        <ele>435.26</ele>
        <time>2026-06-03T13:28:54.445397973Z</time>
      </trkpt>
      <trkpt lat="42.90693" lon="2.21602">
        <ele>435.11</ele>
        <time>2026-06-03T13:28:55.435367942Z</time>
      </trkpt>
      <trkpt lat="42.90689" lon="2.21602">
        <ele>434.99</ele>
        <time>2026-06-03T13:28:56.425519943Z</time>
      </trkpt>
      <trkpt lat="42.90686" lon="2.21601">
        <ele>434.9</ele>
        <time>2026-06-03T13:28:57.415820003Z</time>
      </trkpt>
      <trkpt lat="42.90683" lon="2.21601">
        <ele>434.84</ele>
        <time>2026-06-03T13:28:58.467988014Z</time>
      </trkpt>
      <trkpt lat="42.90679" lon="2.21601">
        <ele>434.79</ele>
        <time>2026-06-03T13:28:59.485836983Z</time>
      </trkpt>
      <trkpt lat="42.90676" lon="2.216">
        <ele>434.75</ele>
        <time>2026-06-03T13:29:00.476631999Z</time>
      </trkpt>
      <trkpt lat="42.90673" lon="2.216">
        <ele>434.73</ele>
        <time>2026-06-03T13:29:01.468054056Z</time>
      </trkpt>
      <trkpt lat="42.90669" lon="2.21599">
        <ele>434.72</ele>
        <time>2026-06-03T13:29:02.483978033Z</time>
      </trkpt>
      <trkpt lat="42.90666" lon="2.21598">
        <ele>434.72</ele>
        <time>2026-06-03T13:29:03.445554972Z</time>
      </trkpt>
      <trkpt lat="42.90663" lon="2.21597">
        <ele>434.71</ele>
        <time>2026-06-03T13:29:04.494613051Z</time>
      </trkpt>
      <trkpt lat="42.9066" lon="2.21595">
        <ele>434.72</ele>
        <time>2026-06-03T13:29:05.436454058Z</time>
      </trkpt>
      <trkpt lat="42.90657" lon="2.21594">
        <ele>434.74</ele>
        <time>2026-06-03T13:29:06.477187037Z</time>
      </trkpt>
      <trkpt lat="42.90655" lon="2.21593">
        <ele>434.76</ele>
        <time>2026-06-03T13:29:07.465978026Z</time>
      </trkpt>
      <trkpt lat="42.90652" lon="2.21591">
        <ele>434.79</ele>
        <time>2026-06-03T13:29:08.484680057Z</time>
      </trkpt>
      <trkpt lat="42.90649" lon="2.21589">
        <ele>434.81</ele>
        <time>2026-06-03T13:29:09.504963040Z</time>
      </trkpt>
      <trkpt lat="42.90646" lon="2.21587">
        <ele>434.84</ele>
        <time>2026-06-03T13:29:10.410544038Z</time>
      </trkpt>
      <trkpt lat="42.90643" lon="2.21586">
        <ele>434.85</ele>
        <time>2026-06-03T13:29:11.485988975Z</time>
      </trkpt>
      <trkpt lat="42.90639" lon="2.21585">
        <ele>434.84</ele>
        <time>2026-06-03T13:29:12.477020979Z</time>
      </trkpt>
      <trkpt lat="42.90635" lon="2.21584">
        <ele>434.82</ele>
        <time>2026-06-03T13:29:13.497406006Z</time>
      </trkpt>
      <trkpt lat="42.9063" lon="2.21586">
        <ele>434.74</ele>
        <time>2026-06-03T13:29:14.487298012Z</time>
      </trkpt>
      <trkpt lat="42.90624" lon="2.21588">
        <ele>434.76</ele>
        <time>2026-06-03T13:29:15.475556016Z</time>
      </trkpt>
      <trkpt lat="42.90618" lon="2.21591">
        <ele>434.72</ele>
        <time>2026-06-03T13:29:16.468410015Z</time>
      </trkpt>
      <trkpt lat="42.90612" lon="2.21594">
        <ele>434.64</ele>
        <time>2026-06-03T13:29:17.515668035Z</time>
      </trkpt>
      <trkpt lat="42.90606" lon="2.21598">
        <ele>434.51</ele>
        <time>2026-06-03T13:29:18.505625010Z</time>
      </trkpt>
      <trkpt lat="42.90599" lon="2.21601">
        <ele>434.33</ele>
        <time>2026-06-03T13:29:19.406191945Z</time>
      </trkpt>
      <trkpt lat="42.90592" lon="2.21603">
        <ele>434.1</ele>
        <time>2026-06-03T13:29:20.416357994Z</time>
      </trkpt>
      <trkpt lat="42.90586" lon="2.21607">
        <ele>433.87</ele>
        <time>2026-06-03T13:29:21.416178942Z</time>
      </trkpt>
      <trkpt lat="42.9058" lon="2.21608">
        <ele>433.59</ele>
        <time>2026-06-03T13:29:22.495247960Z</time>
      </trkpt>
      <trkpt lat="42.90579" lon="2.2161">
        <ele>433.3</ele>
        <time>2026-06-03T13:29:23.484935045Z</time>
      </trkpt>
      <trkpt lat="42.90574" lon="2.21613">
        <ele>433.03</ele>
        <time>2026-06-03T13:29:24.400540948Z</time>
      </trkpt>
      <trkpt lat="42.90569" lon="2.21617">
        <ele>432.76</ele>
        <time>2026-06-03T13:29:25.495687962Z</time>
      </trkpt>
      <trkpt lat="42.90564" lon="2.21622">
        <ele>432.5</ele>
        <time>2026-06-03T13:29:26.426362991Z</time>
      </trkpt>
      <trkpt lat="42.9056" lon="2.21629">
        <ele>432.24</ele>
        <time>2026-06-03T13:29:27.415902972Z</time>
      </trkpt>
      <trkpt lat="42.90556" lon="2.21634">
        <ele>432.01</ele>
        <time>2026-06-03T13:29:28.405660987Z</time>
      </trkpt>
      <trkpt lat="42.90553" lon="2.2164">
        <ele>431.82</ele>
        <time>2026-06-03T13:29:29.484720945Z</time>
      </trkpt>
      <trkpt lat="42.90549" lon="2.21646">
        <ele>431.66</ele>
        <time>2026-06-03T13:29:30.476699948Z</time>
      </trkpt>
      <trkpt lat="42.90547" lon="2.21651">
        <ele>431.52</ele>
        <time>2026-06-03T13:29:31.468590975Z</time>
      </trkpt>
      <trkpt lat="42.90543" lon="2.21655">
        <ele>431.4</ele>
        <time>2026-06-03T13:29:32.518167019Z</time>
      </trkpt>
      <trkpt lat="42.9054" lon="2.2166">
        <ele>431.27</ele>
        <time>2026-06-03T13:29:33.508026958Z</time>
      </trkpt>
      <trkpt lat="42.90537" lon="2.21666">
        <ele>431.12</ele>
        <time>2026-06-03T13:29:34.496538997Z</time>
      </trkpt>
      <trkpt lat="42.90535" lon="2.21671">
        <ele>430.97</ele>
        <time>2026-06-03T13:29:35.486227036Z</time>
      </trkpt>
      <trkpt lat="42.90532" lon="2.21675">
        <ele>430.82</ele>
        <time>2026-06-03T13:29:36.495205998Z</time>
      </trkpt>
      <trkpt lat="42.90529" lon="2.2168">
        <ele>430.67</ele>
        <time>2026-06-03T13:29:37.496160984Z</time>
      </trkpt>
      <trkpt lat="42.90527" lon="2.21684">
        <ele>430.54</ele>
        <time>2026-06-03T13:29:38.487619996Z</time>
      </trkpt>
      <trkpt lat="42.90527" lon="2.21682">
        <ele>430.43</ele>
        <time>2026-06-03T13:29:39.476495028Z</time>
      </trkpt>
      <trkpt lat="42.90527" lon="2.21683">
        <ele>430.33</ele>
        <time>2026-06-03T13:29:40.496793032Z</time>
      </trkpt>
      <trkpt lat="42.90524" lon="2.21687">
        <ele>430.24</ele>
        <time>2026-06-03T13:29:41.514893055Z</time>
      </trkpt>
      <trkpt lat="42.9052" lon="2.21689">
        <ele>430.17</ele>
        <time>2026-06-03T13:29:42.476331949Z</time>
      </trkpt>
      <trkpt lat="42.90513" lon="2.21693">
        <ele>430.12</ele>
        <time>2026-06-03T13:29:43.398280025Z</time>
      </trkpt>
      <trkpt lat="42.90511" lon="2.21692">
        <ele>430.09</ele>
        <time>2026-06-03T13:29:44.486577988Z</time>
      </trkpt>
      <trkpt lat="42.90509" lon="2.2169">
        <ele>430.07</ele>
        <time>2026-06-03T13:29:45.476645947Z</time>
      </trkpt>
      <trkpt lat="42.90509" lon="2.21687">
        <ele>430.07</ele>
        <time>2026-06-03T13:29:46.526440978Z</time>
      </trkpt>
      <trkpt lat="42.90509" lon="2.21683">
        <ele>430.09</ele>
        <time>2026-06-03T13:29:47.456318974Z</time>
      </trkpt>
      <trkpt lat="42.9051" lon="2.2168">
        <ele>430.13</ele>
        <time>2026-06-03T13:29:48.476472020Z</time>
      </trkpt>
      <trkpt lat="42.9051" lon="2.21677">
        <ele>430.19</ele>
        <time>2026-06-03T13:29:49.466259956Z</time>
      </trkpt>
      <trkpt lat="42.90511" lon="2.21673">
        <ele>430.25</ele>
        <time>2026-06-03T13:29:50.486876011Z</time>
      </trkpt>
      <trkpt lat="42.90511" lon="2.21668">
        <ele>430.34</ele>
        <time>2026-06-03T13:29:51.476564050Z</time>
      </trkpt>
      <trkpt lat="42.9051" lon="2.21664">
        <ele>430.43</ele>
        <time>2026-06-03T13:29:52.466379046Z</time>
      </trkpt>
      <trkpt lat="42.90511" lon="2.21659">
        <ele>430.53</ele>
        <time>2026-06-03T13:29:53.515318036Z</time>
      </trkpt>
      <trkpt lat="42.9051" lon="2.21653">
        <ele>430.64</ele>
        <time>2026-06-03T13:29:54.497234941Z</time>
      </trkpt>
      <trkpt lat="42.9051" lon="2.21649">
        <ele>430.76</ele>
        <time>2026-06-03T13:29:55.497308016Z</time>
      </trkpt>
      <trkpt lat="42.9051" lon="2.21645">
        <ele>430.89</ele>
        <time>2026-06-03T13:29:56.516731977Z</time>
      </trkpt>
      <trkpt lat="42.90509" lon="2.2164">
        <ele>431.04</ele>
        <time>2026-06-03T13:29:57.476928949Z</time>
      </trkpt>
      <trkpt lat="42.90509" lon="2.21634">
        <ele>431.2</ele>
        <time>2026-06-03T13:29:58.495882034Z</time>
      </trkpt>
      <trkpt lat="42.90509" lon="2.21629">
        <ele>431.38</ele>
        <time>2026-06-03T13:29:59.460386038Z</time>
      </trkpt>
      <trkpt lat="42.90509" lon="2.21624">
        <ele>431.54</ele>
        <time>2026-06-03T13:30:00.507493973Z</time>
      </trkpt>
      <trkpt lat="42.90509" lon="2.21619">
        <ele>431.72</ele>
        <time>2026-06-03T13:30:01.526147008Z</time>
      </trkpt>
      <trkpt lat="42.90509" lon="2.21614">
        <ele>431.9</ele>
        <time>2026-06-03T13:30:02.426956058Z</time>
      </trkpt>
      <trkpt lat="42.90509" lon="2.21608">
        <ele>432.09</ele>
        <time>2026-06-03T13:30:03.506708980Z</time>
      </trkpt>
      <trkpt lat="42.90509" lon="2.21603">
        <ele>432.29</ele>
        <time>2026-06-03T13:30:04.498185992Z</time>
      </trkpt>
      <trkpt lat="42.90509" lon="2.21598">
        <ele>432.49</ele>
        <time>2026-06-03T13:30:05.431514978Z</time>
      </trkpt>
      <trkpt lat="42.90509" lon="2.21594">
        <ele>432.68</ele>
        <time>2026-06-03T13:30:06.477089047Z</time>
      </trkpt>
      <trkpt lat="42.90509" lon="2.21589">
        <ele>432.88</ele>
        <time>2026-06-03T13:30:07.477692962Z</time>
      </trkpt>
      <trkpt lat="42.90508" lon="2.21585">
        <ele>433.08</ele>
        <time>2026-06-03T13:30:08.486770988Z</time>
      </trkpt>
      <trkpt lat="42.90508" lon="2.21579">
        <ele>433.28</ele>
        <time>2026-06-03T13:30:09.506191969Z</time>
      </trkpt>
      <trkpt lat="42.90508" lon="2.21575">
        <ele>433.47</ele>
        <time>2026-06-03T13:30:10.468559027Z</time>
      </trkpt>
      <trkpt lat="42.90508" lon="2.21569">
        <ele>433.68</ele>
        <time>2026-06-03T13:30:11.458235979Z</time>
      </trkpt>
      <trkpt lat="42.90507" lon="2.21564">
        <ele>433.88</ele>
        <time>2026-06-03T13:30:12.506629944Z</time>
      </trkpt>
      <trkpt lat="42.90507" lon="2.2156">
        <ele>434.1</ele>
        <time>2026-06-03T13:30:13.467401981Z</time>
      </trkpt>
      <trkpt lat="42.90506" lon="2.21555">
        <ele>434.32</ele>
        <time>2026-06-03T13:30:14.516986012Z</time>
      </trkpt>
      <trkpt lat="42.90505" lon="2.2155">
        <ele>434.67</ele>
        <time>2026-06-03T13:30:15.417281032Z</time>
      </trkpt>
      <trkpt lat="42.90504" lon="2.21545">
        <ele>435</ele>
        <time>2026-06-03T13:30:16.409149051Z</time>
      </trkpt>
      <trkpt lat="42.90503" lon="2.2154">
        <ele>435.33</ele>
        <time>2026-06-03T13:30:17.517011046Z</time>
      </trkpt>
      <trkpt lat="42.90503" lon="2.21536">
        <ele>435.65</ele>
        <time>2026-06-03T13:30:18.477954984Z</time>
      </trkpt>
      <trkpt lat="42.90503" lon="2.21532">
        <ele>435.97</ele>
        <time>2026-06-03T13:30:19.527189016Z</time>
      </trkpt>
      <trkpt lat="42.90502" lon="2.21528">
        <ele>436.3</ele>
        <time>2026-06-03T13:30:20.436725974Z</time>
      </trkpt>
      <trkpt lat="42.90501" lon="2.21524">
        <ele>436.63</ele>
        <time>2026-06-03T13:30:21.505723Z</time>
      </trkpt>
      <trkpt lat="42.90501" lon="2.21519">
        <ele>436.98</ele>
        <time>2026-06-03T13:30:22.407287002Z</time>
      </trkpt>
      <trkpt lat="42.90501" lon="2.21515">
        <ele>437.32</ele>
        <time>2026-06-03T13:30:23.457908034Z</time>
      </trkpt>
      <trkpt lat="42.90501" lon="2.2151">
        <ele>437.66</ele>
        <time>2026-06-03T13:30:24.506353974Z</time>
      </trkpt>
      <trkpt lat="42.905" lon="2.21506">
        <ele>437.97</ele>
        <time>2026-06-03T13:30:25.528880Z</time>
      </trkpt>
      <trkpt lat="42.905" lon="2.21501">
        <ele>438.27</ele>
        <time>2026-06-03T13:30:26.517169952Z</time>
      </trkpt>
      <trkpt lat="42.90501" lon="2.21496">
        <ele>438.56</ele>
        <time>2026-06-03T13:30:27.477694035Z</time>
      </trkpt>
      <trkpt lat="42.90501" lon="2.21493">
        <ele>438.83</ele>
        <time>2026-06-03T13:30:28.415498972Z</time>
      </trkpt>
      <trkpt lat="42.90501" lon="2.21488">
        <ele>439.1</ele>
        <time>2026-06-03T13:30:29.459833026Z</time>
      </trkpt>
      <trkpt lat="42.90501" lon="2.21484">
        <ele>439.33</ele>
        <time>2026-06-03T13:30:30.417111993Z</time>
      </trkpt>
      <trkpt lat="42.90502" lon="2.2148">
        <ele>439.56</ele>
        <time>2026-06-03T13:30:31.497221947Z</time>
      </trkpt>
      <trkpt lat="42.90503" lon="2.21475">
        <ele>439.81</ele>
        <time>2026-06-03T13:30:32.456293941Z</time>
      </trkpt>
      <trkpt lat="42.90504" lon="2.21471">
        <ele>440.05</ele>
        <time>2026-06-03T13:30:33.507434011Z</time>
      </trkpt>
      <trkpt lat="42.90504" lon="2.21466">
        <ele>440.31</ele>
        <time>2026-06-03T13:30:34.367867947Z</time>
      </trkpt>
      <trkpt lat="42.90506" lon="2.21462">
        <ele>440.58</ele>
        <time>2026-06-03T13:30:35.441733003Z</time>
      </trkpt>
      <trkpt lat="42.90506" lon="2.21458">
        <ele>440.86</ele>
        <time>2026-06-03T13:30:36.476876974Z</time>
      </trkpt>
      <trkpt lat="42.90507" lon="2.21453">
        <ele>441.14</ele>
        <time>2026-06-03T13:30:37.484686971Z</time>
      </trkpt>
      <trkpt lat="42.90509" lon="2.21449">
        <ele>441.44</ele>
        <time>2026-06-03T13:30:38.427355051Z</time>
      </trkpt>
      <trkpt lat="42.90509" lon="2.21445">
        <ele>441.73</ele>
        <time>2026-06-03T13:30:39.401666045Z</time>
      </trkpt>
      <trkpt lat="42.90511" lon="2.2144">
        <ele>442.03</ele>
        <time>2026-06-03T13:30:40.501515031Z</time>
      </trkpt>
      <trkpt lat="42.90512" lon="2.21435">
        <ele>442.35</ele>
        <time>2026-06-03T13:30:41.517405033Z</time>
      </trkpt>
      <trkpt lat="42.90512" lon="2.21431">
        <ele>442.68</ele>
        <time>2026-06-03T13:30:42.509881973Z</time>
      </trkpt>
      <trkpt lat="42.90514" lon="2.21427">
        <ele>443.02</ele>
        <time>2026-06-03T13:30:43.529335022Z</time>
      </trkpt>
      <trkpt lat="42.90515" lon="2.21423">
        <ele>443.3</ele>
        <time>2026-06-03T13:30:44.515187025Z</time>
      </trkpt>
      <trkpt lat="42.90516" lon="2.21418">
        <ele>443.6</ele>
        <time>2026-06-03T13:30:45.507086992Z</time>
      </trkpt>
      <trkpt lat="42.90517" lon="2.21414">
        <ele>443.91</ele>
        <time>2026-06-03T13:30:46.527603030Z</time>
      </trkpt>
      <trkpt lat="42.90518" lon="2.2141">
        <ele>444.22</ele>
        <time>2026-06-03T13:30:47.517655015Z</time>
      </trkpt>
      <trkpt lat="42.90519" lon="2.21406">
        <ele>444.53</ele>
        <time>2026-06-03T13:30:48.507858992Z</time>
      </trkpt>
      <trkpt lat="42.9052" lon="2.21401">
        <ele>444.86</ele>
        <time>2026-06-03T13:30:49.527081013Z</time>
      </trkpt>
      <trkpt lat="42.90521" lon="2.21397">
        <ele>445.21</ele>
        <time>2026-06-03T13:30:50.447010040Z</time>
      </trkpt>
      <trkpt lat="42.90522" lon="2.21393">
        <ele>445.58</ele>
        <time>2026-06-03T13:30:51.506979942Z</time>
      </trkpt>
      <trkpt lat="42.90524" lon="2.21389">
        <ele>445.97</ele>
        <time>2026-06-03T13:30:52.408139944Z</time>
      </trkpt>
      <trkpt lat="42.90525" lon="2.21385">
        <ele>446.38</ele>
        <time>2026-06-03T13:30:53.520234942Z</time>
      </trkpt>
      <trkpt lat="42.90526" lon="2.21381">
        <ele>446.81</ele>
        <time>2026-06-03T13:30:54.460402966Z</time>
      </trkpt>
      <trkpt lat="42.90528" lon="2.21377">
        <ele>447.26</ele>
        <time>2026-06-03T13:30:55.470082045Z</time>
      </trkpt>
      <trkpt lat="42.9053" lon="2.21373">
        <ele>447.72</ele>
        <time>2026-06-03T13:30:56.463299990Z</time>
      </trkpt>
      <trkpt lat="42.90532" lon="2.2137">
        <ele>448.19</ele>
        <time>2026-06-03T13:30:57.507827044Z</time>
      </trkpt>
      <trkpt lat="42.90534" lon="2.21366">
        <ele>448.66</ele>
        <time>2026-06-03T13:30:58.470657945Z</time>
      </trkpt>
      <trkpt lat="42.90536" lon="2.21363">
        <ele>449.11</ele>
        <time>2026-06-03T13:30:59.550202012Z</time>
      </trkpt>
      <trkpt lat="42.90538" lon="2.21359">
        <ele>449.5</ele>
        <time>2026-06-03T13:31:00.537757039Z</time>
      </trkpt>
      <trkpt lat="42.9054" lon="2.21356">
        <ele>449.88</ele>
        <time>2026-06-03T13:31:01.447448015Z</time>
      </trkpt>
      <trkpt lat="42.90541" lon="2.21352">
        <ele>450.25</ele>
        <time>2026-06-03T13:31:02.434885025Z</time>
      </trkpt>
      <trkpt lat="42.90543" lon="2.21349">
        <ele>450.61</ele>
        <time>2026-06-03T13:31:03.506927013Z</time>
      </trkpt>
      <trkpt lat="42.90545" lon="2.21345">
        <ele>450.95</ele>
        <time>2026-06-03T13:31:04.467093945Z</time>
      </trkpt>
      <trkpt lat="42.90547" lon="2.21342">
        <ele>451.26</ele>
        <time>2026-06-03T13:31:05.452100992Z</time>
      </trkpt>
      <trkpt lat="42.90548" lon="2.21338">
        <ele>451.54</ele>
        <time>2026-06-03T13:31:06.526167035Z</time>
      </trkpt>
      <trkpt lat="42.9055" lon="2.21334">
        <ele>451.79</ele>
        <time>2026-06-03T13:31:07.498141050Z</time>
      </trkpt>
      <trkpt lat="42.90551" lon="2.21331">
        <ele>452.01</ele>
        <time>2026-06-03T13:31:08.539963961Z</time>
      </trkpt>
      <trkpt lat="42.90553" lon="2.21327">
        <ele>452.22</ele>
        <time>2026-06-03T13:31:09.537428975Z</time>
      </trkpt>
      <trkpt lat="42.90555" lon="2.21323">
        <ele>452.41</ele>
        <time>2026-06-03T13:31:10.469900012Z</time>
      </trkpt>
      <trkpt lat="42.90556" lon="2.21319">
        <ele>452.59</ele>
        <time>2026-06-03T13:31:11.488113046Z</time>
      </trkpt>
      <trkpt lat="42.90557" lon="2.21315">
        <ele>452.76</ele>
        <time>2026-06-03T13:31:12.508178949Z</time>
      </trkpt>
      <trkpt lat="42.90559" lon="2.21311">
        <ele>452.91</ele>
        <time>2026-06-03T13:31:13.499086022Z</time>
      </trkpt>
      <trkpt lat="42.9056" lon="2.21307">
        <ele>453.05</ele>
        <time>2026-06-03T13:31:14.517853022Z</time>
      </trkpt>
      <trkpt lat="42.90561" lon="2.21302">
        <ele>453.3</ele>
        <time>2026-06-03T13:31:15.509060979Z</time>
      </trkpt>
      <trkpt lat="42.90562" lon="2.21298">
        <ele>453.54</ele>
        <time>2026-06-03T13:31:16.499848962Z</time>
      </trkpt>
      <trkpt lat="42.90563" lon="2.21294">
        <ele>453.75</ele>
        <time>2026-06-03T13:31:17.518483996Z</time>
      </trkpt>
      <trkpt lat="42.90564" lon="2.21289">
        <ele>453.94</ele>
        <time>2026-06-03T13:31:18.448199987Z</time>
      </trkpt>
      <trkpt lat="42.90565" lon="2.21284">
        <ele>454.11</ele>
        <time>2026-06-03T13:31:19.527945042Z</time>
      </trkpt>
      <trkpt lat="42.90565" lon="2.2128">
        <ele>454.24</ele>
        <time>2026-06-03T13:31:20.457214952Z</time>
      </trkpt>
      <trkpt lat="42.90566" lon="2.21275">
        <ele>454.34</ele>
        <time>2026-06-03T13:31:21.478217006Z</time>
      </trkpt>
      <trkpt lat="42.90567" lon="2.2127">
        <ele>454.41</ele>
        <time>2026-06-03T13:31:22.530287027Z</time>
      </trkpt>
      <trkpt lat="42.90568" lon="2.21266">
        <ele>454.47</ele>
        <time>2026-06-03T13:31:23.518318057Z</time>
      </trkpt>
      <trkpt lat="42.90568" lon="2.21262">
        <ele>454.53</ele>
        <time>2026-06-03T13:31:24.449017048Z</time>
      </trkpt>
      <trkpt lat="42.90569" lon="2.21257">
        <ele>454.57</ele>
        <time>2026-06-03T13:31:25.528555989Z</time>
      </trkpt>
      <trkpt lat="42.90569" lon="2.21252">
        <ele>454.62</ele>
        <time>2026-06-03T13:31:26.548339963Z</time>
      </trkpt>
      <trkpt lat="42.90569" lon="2.21248">
        <ele>454.67</ele>
        <time>2026-06-03T13:31:27.478049040Z</time>
      </trkpt>
      <trkpt lat="42.9057" lon="2.21243">
        <ele>454.72</ele>
        <time>2026-06-03T13:31:28.498162031Z</time>
      </trkpt>
      <trkpt lat="42.9057" lon="2.21239">
        <ele>454.77</ele>
        <time>2026-06-03T13:31:29.458294034Z</time>
      </trkpt>
      <trkpt lat="42.9057" lon="2.21234">
        <ele>454.81</ele>
        <time>2026-06-03T13:31:30.478953004Z</time>
      </trkpt>
      <trkpt lat="42.90571" lon="2.21229">
        <ele>454.86</ele>
        <time>2026-06-03T13:31:31.497907043Z</time>
      </trkpt>
      <trkpt lat="42.90571" lon="2.21225">
        <ele>454.92</ele>
        <time>2026-06-03T13:31:32.488544941Z</time>
      </trkpt>
      <trkpt lat="42.90572" lon="2.21221">
        <ele>454.97</ele>
        <time>2026-06-03T13:31:33.538436055Z</time>
      </trkpt>
      <trkpt lat="42.90572" lon="2.21216">
        <ele>455.03</ele>
        <time>2026-06-03T13:31:34.528506994Z</time>
      </trkpt>
      <trkpt lat="42.90572" lon="2.21212">
        <ele>455.07</ele>
        <time>2026-06-03T13:31:35.460209966Z</time>
      </trkpt>
      <trkpt lat="42.90572" lon="2.21207">
        <ele>455.12</ele>
        <time>2026-06-03T13:31:36.536494970Z</time>
      </trkpt>
      <trkpt lat="42.90572" lon="2.21202">
        <ele>455.16</ele>
        <time>2026-06-03T13:31:37.499559045Z</time>
      </trkpt>
      <trkpt lat="42.90571" lon="2.21198">
        <ele>455.2</ele>
        <time>2026-06-03T13:31:38.549271941Z</time>
      </trkpt>
      <trkpt lat="42.9057" lon="2.21194">
        <ele>455.23</ele>
        <time>2026-06-03T13:31:39.450461984Z</time>
      </trkpt>
      <trkpt lat="42.90569" lon="2.2119">
        <ele>455.27</ele>
        <time>2026-06-03T13:31:40.438796997Z</time>
      </trkpt>
      <trkpt lat="42.90568" lon="2.21185">
        <ele>455.31</ele>
        <time>2026-06-03T13:31:41.518581033Z</time>
      </trkpt>
      <trkpt lat="42.90567" lon="2.21182">
        <ele>455.33</ele>
        <time>2026-06-03T13:31:42.418650031Z</time>
      </trkpt>
      <trkpt lat="42.90565" lon="2.21178">
        <ele>455.36</ele>
        <time>2026-06-03T13:31:43.408521056Z</time>
      </trkpt>
      <trkpt lat="42.90564" lon="2.21174">
        <ele>455.38</ele>
        <time>2026-06-03T13:31:44.548650980Z</time>
      </trkpt>
      <trkpt lat="42.90562" lon="2.2117">
        <ele>455.39</ele>
        <time>2026-06-03T13:31:45.537763Z</time>
      </trkpt>
      <trkpt lat="42.90561" lon="2.21167">
        <ele>455.4</ele>
        <time>2026-06-03T13:31:46.528509974Z</time>
      </trkpt>
      <trkpt lat="42.90559" lon="2.21164">
        <ele>455.42</ele>
        <time>2026-06-03T13:31:47.518568993Z</time>
      </trkpt>
      <trkpt lat="42.90558" lon="2.21161">
        <ele>455.44</ele>
        <time>2026-06-03T13:31:48.508813024Z</time>
      </trkpt>
      <trkpt lat="42.90557" lon="2.21158">
        <ele>455.45</ele>
        <time>2026-06-03T13:31:49.404059052Z</time>
      </trkpt>
      <trkpt lat="42.90556" lon="2.21155">
        <ele>455.48</ele>
        <time>2026-06-03T13:31:50.428876042Z</time>
      </trkpt>
      <trkpt lat="42.90554" lon="2.21153">
        <ele>455.52</ele>
        <time>2026-06-03T13:31:51.418925047Z</time>
      </trkpt>
      <trkpt lat="42.90553" lon="2.21152">
        <ele>455.55</ele>
        <time>2026-06-03T13:31:52.528782964Z</time>
      </trkpt>
      <trkpt lat="42.90551" lon="2.21151">
        <ele>455.59</ele>
        <time>2026-06-03T13:31:53.492344975Z</time>
      </trkpt>
      <trkpt lat="42.90549" lon="2.21151">
        <ele>455.63</ele>
        <time>2026-06-03T13:31:54.478845Z</time>
      </trkpt>
      <trkpt lat="42.90547" lon="2.21151">
        <ele>455.66</ele>
        <time>2026-06-03T13:31:55.530781984Z</time>
      </trkpt>
      <trkpt lat="42.90545" lon="2.21151">
        <ele>455.7</ele>
        <time>2026-06-03T13:31:56.489781976Z</time>
      </trkpt>
      <trkpt lat="42.90543" lon="2.21152">
        <ele>455.75</ele>
        <time>2026-06-03T13:31:57.508901Z</time>
      </trkpt>
      <trkpt lat="42.9054" lon="2.21152">
        <ele>455.81</ele>
        <time>2026-06-03T13:31:58.499495983Z</time>
      </trkpt>
      <trkpt lat="42.90539" lon="2.21152">
        <ele>455.87</ele>
        <time>2026-06-03T13:31:59.489115Z</time>
      </trkpt>
      <trkpt lat="42.90536" lon="2.21152">
        <ele>455.95</ele>
        <time>2026-06-03T13:32:00.509343982Z</time>
      </trkpt>
      <trkpt lat="42.90534" lon="2.21152">
        <ele>456.05</ele>
        <time>2026-06-03T13:32:01.499078989Z</time>
      </trkpt>
      <trkpt lat="42.90532" lon="2.21152">
        <ele>456.16</ele>
        <time>2026-06-03T13:32:02.429031968Z</time>
      </trkpt>
      <trkpt lat="42.9053" lon="2.21153">
        <ele>456.28</ele>
        <time>2026-06-03T13:32:03.448987961Z</time>
      </trkpt>
      <trkpt lat="42.90528" lon="2.21153">
        <ele>456.42</ele>
        <time>2026-06-03T13:32:04.529929042Z</time>
      </trkpt>
      <trkpt lat="42.90526" lon="2.21153">
        <ele>456.59</ele>
        <time>2026-06-03T13:32:05.483042002Z</time>
      </trkpt>
      <trkpt lat="42.90524" lon="2.21154">
        <ele>456.78</ele>
        <time>2026-06-03T13:32:06.479369044Z</time>
      </trkpt>
      <trkpt lat="42.90522" lon="2.21154">
        <ele>457</ele>
        <time>2026-06-03T13:32:07.422281981Z</time>
      </trkpt>
      <trkpt lat="42.9052" lon="2.21154">
        <ele>457.23</ele>
        <time>2026-06-03T13:32:08.398380995Z</time>
      </trkpt>
      <trkpt lat="42.90517" lon="2.21154">
        <ele>457.47</ele>
        <time>2026-06-03T13:32:09.509412050Z</time>
      </trkpt>
      <trkpt lat="42.90516" lon="2.21154">
        <ele>457.72</ele>
        <time>2026-06-03T13:32:10.528844953Z</time>
      </trkpt>
      <trkpt lat="42.90513" lon="2.21155">
        <ele>457.96</ele>
        <time>2026-06-03T13:32:11.549142957Z</time>
      </trkpt>
      <trkpt lat="42.90511" lon="2.21155">
        <ele>458.2</ele>
        <time>2026-06-03T13:32:12.538391948Z</time>
      </trkpt>
      <trkpt lat="42.90509" lon="2.21155">
        <ele>458.45</ele>
        <time>2026-06-03T13:32:13.499984026Z</time>
      </trkpt>
      <trkpt lat="42.90507" lon="2.21156">
        <ele>458.65</ele>
        <time>2026-06-03T13:32:14.519034028Z</time>
      </trkpt>
      <trkpt lat="42.90505" lon="2.21156">
        <ele>459.01</ele>
        <time>2026-06-03T13:32:15.451282978Z</time>
      </trkpt>
      <trkpt lat="42.90503" lon="2.21155">
        <ele>459.35</ele>
        <time>2026-06-03T13:32:16.349908948Z</time>
      </trkpt>
      <trkpt lat="42.90501" lon="2.21155">
        <ele>459.68</ele>
        <time>2026-06-03T13:32:17.518710971Z</time>
      </trkpt>
      <trkpt lat="42.90499" lon="2.21155">
        <ele>459.99</ele>
        <time>2026-06-03T13:32:18.419337988Z</time>
      </trkpt>
      <trkpt lat="42.90497" lon="2.21155">
        <ele>460.28</ele>
        <time>2026-06-03T13:32:19.530027986Z</time>
      </trkpt>
      <trkpt lat="42.90495" lon="2.21154">
        <ele>460.56</ele>
        <time>2026-06-03T13:32:20.409291029Z</time>
      </trkpt>
      <trkpt lat="42.90493" lon="2.21154">
        <ele>460.83</ele>
        <time>2026-06-03T13:32:21.537510037Z</time>
      </trkpt>
      <trkpt lat="42.90491" lon="2.21153">
        <ele>461.09</ele>
        <time>2026-06-03T13:32:22.410238028Z</time>
      </trkpt>
      <trkpt lat="42.90489" lon="2.21153">
        <ele>461.34</ele>
        <time>2026-06-03T13:32:23.519525051Z</time>
      </trkpt>
      <trkpt lat="42.90487" lon="2.21152">
        <ele>461.58</ele>
        <time>2026-06-03T13:32:24.528264999Z</time>
      </trkpt>
      <trkpt lat="42.90485" lon="2.21151">
        <ele>461.81</ele>
        <time>2026-06-03T13:32:25.499338031Z</time>
      </trkpt>
      <trkpt lat="42.90483" lon="2.21151">
        <ele>462.04</ele>
        <time>2026-06-03T13:32:26.459264994Z</time>
      </trkpt>
      <trkpt lat="42.90481" lon="2.2115">
        <ele>462.26</ele>
        <time>2026-06-03T13:32:27.539564967Z</time>
      </trkpt>
      <trkpt lat="42.90479" lon="2.2115">
        <ele>462.46</ele>
        <time>2026-06-03T13:32:28.469697952Z</time>
      </trkpt>
      <trkpt lat="42.90476" lon="2.2115">
        <ele>462.63</ele>
        <time>2026-06-03T13:32:29.493927956Z</time>
      </trkpt>
      <trkpt lat="42.90474" lon="2.21149">
        <ele>462.8</ele>
        <time>2026-06-03T13:32:30.509814024Z</time>
      </trkpt>
      <trkpt lat="42.90472" lon="2.21149">
        <ele>462.97</ele>
        <time>2026-06-03T13:32:31.531638980Z</time>
      </trkpt>
      <trkpt lat="42.9047" lon="2.21149">
        <ele>463.15</ele>
        <time>2026-06-03T13:32:32.399541974Z</time>
      </trkpt>
      <trkpt lat="42.90468" lon="2.21149">
        <ele>463.32</ele>
        <time>2026-06-03T13:32:33.539702058Z</time>
      </trkpt>
      <trkpt lat="42.90466" lon="2.21148">
        <ele>463.5</ele>
        <time>2026-06-03T13:32:34.425624013Z</time>
      </trkpt>
      <trkpt lat="42.90463" lon="2.21148">
        <ele>463.69</ele>
        <time>2026-06-03T13:32:35.493435025Z</time>
      </trkpt>
      <trkpt lat="42.90461" lon="2.21148">
        <ele>463.89</ele>
        <time>2026-06-03T13:32:36.480389953Z</time>
      </trkpt>
      <trkpt lat="42.90459" lon="2.21147">
        <ele>464.08</ele>
        <time>2026-06-03T13:32:37.531072974Z</time>
      </trkpt>
      <trkpt lat="42.90457" lon="2.21147">
        <ele>464.28</ele>
        <time>2026-06-03T13:32:38.461429954Z</time>
      </trkpt>
      <trkpt lat="42.90454" lon="2.21146">
        <ele>464.48</ele>
        <time>2026-06-03T13:32:39.539201021Z</time>
      </trkpt>
      <trkpt lat="42.90453" lon="2.21146">
        <ele>464.68</ele>
        <time>2026-06-03T13:32:40.439661026Z</time>
      </trkpt>
      <trkpt lat="42.9045" lon="2.21146">
        <ele>464.88</ele>
        <time>2026-06-03T13:32:41.459426045Z</time>
      </trkpt>
      <trkpt lat="42.90448" lon="2.21145">
        <ele>465.09</ele>
        <time>2026-06-03T13:32:42.450551987Z</time>
      </trkpt>
      <trkpt lat="42.90446" lon="2.21145">
        <ele>465.3</ele>
        <time>2026-06-03T13:32:43.392750025Z</time>
      </trkpt>
      <trkpt lat="42.90444" lon="2.21145">
        <ele>465.48</ele>
        <time>2026-06-03T13:32:44.522071958Z</time>
      </trkpt>
      <trkpt lat="42.90442" lon="2.21144">
        <ele>465.67</ele>
        <time>2026-06-03T13:32:45.513985038Z</time>
      </trkpt>
      <trkpt lat="42.9044" lon="2.21144">
        <ele>465.87</ele>
        <time>2026-06-03T13:32:46.530465961Z</time>
      </trkpt>
      <trkpt lat="42.90438" lon="2.21144">
        <ele>466.08</ele>
        <time>2026-06-03T13:32:47.520781994Z</time>
      </trkpt>
      <trkpt lat="42.90435" lon="2.21144">
        <ele>466.29</ele>
        <time>2026-06-03T13:32:48.510058999Z</time>
      </trkpt>
      <trkpt lat="42.90432" lon="2.21143">
        <ele>466.51</ele>
        <time>2026-06-03T13:32:49.424823046Z</time>
      </trkpt>
      <trkpt lat="42.9043" lon="2.21143">
        <ele>466.73</ele>
        <time>2026-06-03T13:32:50.498736024Z</time>
      </trkpt>
      <trkpt lat="42.90428" lon="2.21143">
        <ele>466.95</ele>
        <time>2026-06-03T13:32:51.454002023Z</time>
      </trkpt>
      <trkpt lat="42.90426" lon="2.21142">
        <ele>467.18</ele>
        <time>2026-06-03T13:32:52.440266013Z</time>
      </trkpt>
      <trkpt lat="42.90424" lon="2.21142">
        <ele>467.42</ele>
        <time>2026-06-03T13:32:53.549090028Z</time>
      </trkpt>
      <trkpt lat="42.90422" lon="2.21143">
        <ele>467.67</ele>
        <time>2026-06-03T13:32:54.540034056Z</time>
      </trkpt>
      <trkpt lat="42.90419" lon="2.21143">
        <ele>467.93</ele>
        <time>2026-06-03T13:32:55.439972997Z</time>
      </trkpt>
      <trkpt lat="42.90417" lon="2.21143">
        <ele>468.2</ele>
        <time>2026-06-03T13:32:56.520660043Z</time>
      </trkpt>
      <trkpt lat="42.90415" lon="2.21143">
        <ele>468.49</ele>
        <time>2026-06-03T13:32:57.511021972Z</time>
      </trkpt>
      <trkpt lat="42.90413" lon="2.21143">
        <ele>468.78</ele>
        <time>2026-06-03T13:32:58.472453952Z</time>
      </trkpt>
      <trkpt lat="42.9041" lon="2.21144">
        <ele>469.03</ele>
        <time>2026-06-03T13:32:59.372781038Z</time>
      </trkpt>
      <trkpt lat="42.90408" lon="2.21144">
        <ele>469.28</ele>
        <time>2026-06-03T13:33:00.438454986Z</time>
      </trkpt>
      <trkpt lat="42.90406" lon="2.21145">
        <ele>469.55</ele>
        <time>2026-06-03T13:33:01.530853987Z</time>
      </trkpt>
      <trkpt lat="42.90404" lon="2.21146">
        <ele>469.84</ele>
        <time>2026-06-03T13:33:02.370911002Z</time>
      </trkpt>
      <trkpt lat="42.90402" lon="2.21147">
        <ele>470.14</ele>
        <time>2026-06-03T13:33:03.511288047Z</time>
      </trkpt>
      <trkpt lat="42.904" lon="2.21148">
        <ele>470.44</ele>
        <time>2026-06-03T13:33:04.531604052Z</time>
      </trkpt>
      <trkpt lat="42.90399" lon="2.21148">
        <ele>470.76</ele>
        <time>2026-06-03T13:33:05.504034996Z</time>
      </trkpt>
      <trkpt lat="42.90397" lon="2.21149">
        <ele>471.07</ele>
        <time>2026-06-03T13:33:06.511338949Z</time>
      </trkpt>
      <trkpt lat="42.90395" lon="2.2115">
        <ele>471.39</ele>
        <time>2026-06-03T13:33:07.531118035Z</time>
      </trkpt>
      <trkpt lat="42.90392" lon="2.21151">
        <ele>471.69</ele>
        <time>2026-06-03T13:33:08.462514043Z</time>
      </trkpt>
      <trkpt lat="42.90391" lon="2.2115">
        <ele>471.97</ele>
        <time>2026-06-03T13:33:09.390542030Z</time>
      </trkpt>
      <trkpt lat="42.9039" lon="2.21151">
        <ele>472.23</ele>
        <time>2026-06-03T13:33:10.530725956Z</time>
      </trkpt>
      <trkpt lat="42.90388" lon="2.21149">
        <ele>472.49</ele>
        <time>2026-06-03T13:33:11.535676003Z</time>
      </trkpt>
      <trkpt lat="42.90387" lon="2.21152">
        <ele>472.72</ele>
        <time>2026-06-03T13:33:12.510975003Z</time>
      </trkpt>
      <trkpt lat="42.90384" lon="2.21154">
        <ele>472.95</ele>
        <time>2026-06-03T13:33:13.531605005Z</time>
      </trkpt>
      <trkpt lat="42.90382" lon="2.21154">
        <ele>473.14</ele>
        <time>2026-06-03T13:33:14.521206975Z</time>
      </trkpt>
      <trkpt lat="42.9038" lon="2.21154">
        <ele>473.48</ele>
        <time>2026-06-03T13:33:15.420688987Z</time>
      </trkpt>
      <trkpt lat="42.90377" lon="2.21154">
        <ele>473.8</ele>
        <time>2026-06-03T13:33:16.532086015Z</time>
      </trkpt>
      <trkpt lat="42.90375" lon="2.21154">
        <ele>474.11</ele>
        <time>2026-06-03T13:33:17.462177992Z</time>
      </trkpt>
      <trkpt lat="42.90373" lon="2.21154">
        <ele>474.39</ele>
        <time>2026-06-03T13:33:18.420585036Z</time>
      </trkpt>
      <trkpt lat="42.90371" lon="2.21153">
        <ele>474.66</ele>
        <time>2026-06-03T13:33:19.435556054Z</time>
      </trkpt>
      <trkpt lat="42.90369" lon="2.21153">
        <ele>474.9</ele>
        <time>2026-06-03T13:33:20.409674048Z</time>
      </trkpt>
      <trkpt lat="42.90367" lon="2.21153">
        <ele>475.12</ele>
        <time>2026-06-03T13:33:21.542178035Z</time>
      </trkpt>
      <trkpt lat="42.90364" lon="2.21152">
        <ele>475.32</ele>
        <time>2026-06-03T13:33:22.532251Z</time>
      </trkpt>
      <trkpt lat="42.90362" lon="2.21152">
        <ele>475.5</ele>
        <time>2026-06-03T13:33:23.462774038Z</time>
      </trkpt>
      <trkpt lat="42.9036" lon="2.21151">
        <ele>475.67</ele>
        <time>2026-06-03T13:33:24.450175047Z</time>
      </trkpt>
      <trkpt lat="42.90358" lon="2.21151">
        <ele>475.83</ele>
        <time>2026-06-03T13:33:25.473006010Z</time>
      </trkpt>
      <trkpt lat="42.90355" lon="2.21151">
        <ele>475.98</ele>
        <time>2026-06-03T13:33:26.491312981Z</time>
      </trkpt>
      <trkpt lat="42.90353" lon="2.21151">
        <ele>476.12</ele>
        <time>2026-06-03T13:33:27.540500998Z</time>
      </trkpt>
      <trkpt lat="42.90351" lon="2.2115">
        <ele>476.26</ele>
        <time>2026-06-03T13:33:28.440515041Z</time>
      </trkpt>
      <trkpt lat="42.90348" lon="2.2115">
        <ele>476.38</ele>
        <time>2026-06-03T13:33:29.462396026Z</time>
      </trkpt>
      <trkpt lat="42.90346" lon="2.2115">
        <ele>476.5</ele>
        <time>2026-06-03T13:33:30.511517048Z</time>
      </trkpt>
      <trkpt lat="42.90343" lon="2.21149">
        <ele>476.61</ele>
        <time>2026-06-03T13:33:31.470564961Z</time>
      </trkpt>
      <trkpt lat="42.90341" lon="2.21148">
        <ele>476.73</ele>
        <time>2026-06-03T13:33:32.551588058Z</time>
      </trkpt>
      <trkpt lat="42.90339" lon="2.21148">
        <ele>476.84</ele>
        <time>2026-06-03T13:33:33.376824975Z</time>
      </trkpt>
      <trkpt lat="42.90336" lon="2.21147">
        <ele>476.96</ele>
        <time>2026-06-03T13:33:34.440768957Z</time>
      </trkpt>
      <trkpt lat="42.90334" lon="2.21146">
        <ele>477.08</ele>
        <time>2026-06-03T13:33:35.462795973Z</time>
      </trkpt>
      <trkpt lat="42.90332" lon="2.21144">
        <ele>477.2</ele>
        <time>2026-06-03T13:33:36.512091041Z</time>
      </trkpt>
      <trkpt lat="42.90331" lon="2.21142">
        <ele>477.33</ele>
        <time>2026-06-03T13:33:37.410838962Z</time>
      </trkpt>
      <trkpt lat="42.90331" lon="2.21139">
        <ele>477.48</ele>
        <time>2026-06-03T13:33:38.491207004Z</time>
      </trkpt>
      <trkpt lat="42.90331" lon="2.21136">
        <ele>477.64</ele>
        <time>2026-06-03T13:33:39.511983991Z</time>
      </trkpt>
      <trkpt lat="42.90332" lon="2.21133">
        <ele>477.81</ele>
        <time>2026-06-03T13:33:40.531533003Z</time>
      </trkpt>
      <trkpt lat="42.90334" lon="2.21131">
        <ele>477.99</ele>
        <time>2026-06-03T13:33:41.521268010Z</time>
      </trkpt>
      <trkpt lat="42.90337" lon="2.2113">
        <ele>478.17</ele>
        <time>2026-06-03T13:33:42.511157036Z</time>
      </trkpt>
      <trkpt lat="42.90339" lon="2.2113">
        <ele>478.35</ele>
        <time>2026-06-03T13:33:43.410837054Z</time>
      </trkpt>
      <trkpt lat="42.90341" lon="2.2113">
        <ele>478.51</ele>
        <time>2026-06-03T13:33:44.522385955Z</time>
      </trkpt>
      <trkpt lat="42.90343" lon="2.21131">
        <ele>478.68</ele>
        <time>2026-06-03T13:33:45.511383057Z</time>
      </trkpt>
      <trkpt lat="42.90345" lon="2.21132">
        <ele>478.84</ele>
        <time>2026-06-03T13:33:46.470563054Z</time>
      </trkpt>
      <trkpt lat="42.90347" lon="2.21131">
        <ele>479</ele>
        <time>2026-06-03T13:33:47.521227002Z</time>
      </trkpt>
      <trkpt lat="42.9035" lon="2.21131">
        <ele>479.16</ele>
        <time>2026-06-03T13:33:48.541502953Z</time>
      </trkpt>
      <trkpt lat="42.90352" lon="2.2113">
        <ele>479.32</ele>
        <time>2026-06-03T13:33:49.446038008Z</time>
      </trkpt>
      <trkpt lat="42.90354" lon="2.21129">
        <ele>479.48</ele>
        <time>2026-06-03T13:33:50.409281969Z</time>
      </trkpt>
      <trkpt lat="42.90356" lon="2.21127">
        <ele>479.63</ele>
        <time>2026-06-03T13:33:51.511734962Z</time>
      </trkpt>
      <trkpt lat="42.90358" lon="2.21126">
        <ele>479.77</ele>
        <time>2026-06-03T13:33:52.502274036Z</time>
      </trkpt>
      <trkpt lat="42.90359" lon="2.21124">
        <ele>479.9</ele>
        <time>2026-06-03T13:33:53.553655028Z</time>
      </trkpt>
      <trkpt lat="42.90361" lon="2.21122">
        <ele>480.01</ele>
        <time>2026-06-03T13:33:54.391178012Z</time>
      </trkpt>
      <trkpt lat="42.90362" lon="2.21119">
        <ele>480.12</ele>
        <time>2026-06-03T13:33:55.531769991Z</time>
      </trkpt>
      <trkpt lat="42.90363" lon="2.21116">
        <ele>480.22</ele>
        <time>2026-06-03T13:33:56.460926056Z</time>
      </trkpt>
      <trkpt lat="42.90364" lon="2.21114">
        <ele>480.32</ele>
        <time>2026-06-03T13:33:57.511459947Z</time>
      </trkpt>
      <trkpt lat="42.90364" lon="2.21112">
        <ele>480.42</ele>
        <time>2026-06-03T13:33:58.446146965Z</time>
      </trkpt>
      <trkpt lat="42.90363" lon="2.21109">
        <ele>480.51</ele>
        <time>2026-06-03T13:33:59.410524964Z</time>
      </trkpt>
      <trkpt lat="42.90363" lon="2.21106">
        <ele>480.59</ele>
        <time>2026-06-03T13:34:00.481353998Z</time>
      </trkpt>
      <trkpt lat="42.90363" lon="2.21102">
        <ele>480.68</ele>
        <time>2026-06-03T13:34:01.441570044Z</time>
      </trkpt>
      <trkpt lat="42.90363" lon="2.21099">
        <ele>480.78</ele>
        <time>2026-06-03T13:34:02.446023941Z</time>
      </trkpt>
      <trkpt lat="42.90363" lon="2.21096">
        <ele>480.88</ele>
        <time>2026-06-03T13:34:03.459897995Z</time>
      </trkpt>
      <trkpt lat="42.90362" lon="2.21094">
        <ele>480.98</ele>
        <time>2026-06-03T13:34:04.441666961Z</time>
      </trkpt>
      <trkpt lat="42.90361" lon="2.2109">
        <ele>481.08</ele>
        <time>2026-06-03T13:34:05.463302970Z</time>
      </trkpt>
      <trkpt lat="42.90359" lon="2.21087">
        <ele>481.19</ele>
        <time>2026-06-03T13:34:06.542616010Z</time>
      </trkpt>
      <trkpt lat="42.90358" lon="2.21085">
        <ele>481.29</ele>
        <time>2026-06-03T13:34:07.501296043Z</time>
      </trkpt>
      <trkpt lat="42.90357" lon="2.21082">
        <ele>481.4</ele>
        <time>2026-06-03T13:34:08.460633993Z</time>
      </trkpt>
      <trkpt lat="42.90356" lon="2.2108">
        <ele>481.54</ele>
        <time>2026-06-03T13:34:09.421545029Z</time>
      </trkpt>
      <trkpt lat="42.90355" lon="2.21078">
        <ele>481.68</ele>
        <time>2026-06-03T13:34:10.501925945Z</time>
      </trkpt>
      <trkpt lat="42.90353" lon="2.21075">
        <ele>481.86</ele>
        <time>2026-06-03T13:34:11.522518039Z</time>
      </trkpt>
      <trkpt lat="42.90352" lon="2.21074">
        <ele>482.04</ele>
        <time>2026-06-03T13:34:12.531308055Z</time>
      </trkpt>
      <trkpt lat="42.9035" lon="2.21072">
        <ele>482.2</ele>
        <time>2026-06-03T13:34:13.533370972Z</time>
      </trkpt>
      <trkpt lat="42.90349" lon="2.2107">
        <ele>482.38</ele>
        <time>2026-06-03T13:34:14.432155013Z</time>
      </trkpt>
      <trkpt lat="42.90347" lon="2.21069">
        <ele>482.72</ele>
        <time>2026-06-03T13:34:15.512097001Z</time>
      </trkpt>
      <trkpt lat="42.90345" lon="2.21067">
        <ele>483.09</ele>
        <time>2026-06-03T13:34:16.502158046Z</time>
      </trkpt>
      <trkpt lat="42.90343" lon="2.21066">
        <ele>483.46</ele>
        <time>2026-06-03T13:34:17.522276044Z</time>
      </trkpt>
      <trkpt lat="42.90342" lon="2.21065">
        <ele>483.84</ele>
        <time>2026-06-03T13:34:18.392879009Z</time>
      </trkpt>
      <trkpt lat="42.9034" lon="2.21064">
        <ele>484.23</ele>
        <time>2026-06-03T13:34:19.473876953Z</time>
      </trkpt>
      <trkpt lat="42.90337" lon="2.21063">
        <ele>484.6</ele>
        <time>2026-06-03T13:34:20.522529960Z</time>
      </trkpt>
      <trkpt lat="42.90336" lon="2.21062">
        <ele>484.96</ele>
        <time>2026-06-03T13:34:21.512073040Z</time>
      </trkpt>
      <trkpt lat="42.90334" lon="2.21061">
        <ele>485.3</ele>
        <time>2026-06-03T13:34:22.471860051Z</time>
      </trkpt>
      <trkpt lat="42.90332" lon="2.2106">
        <ele>485.61</ele>
        <time>2026-06-03T13:34:23.522233963Z</time>
      </trkpt>
      <trkpt lat="42.9033" lon="2.21059">
        <ele>485.9</ele>
        <time>2026-06-03T13:34:24.512052059Z</time>
      </trkpt>
      <trkpt lat="42.90328" lon="2.21058">
        <ele>486.17</ele>
        <time>2026-06-03T13:34:25.411983013Z</time>
      </trkpt>
      <trkpt lat="42.90326" lon="2.21057">
        <ele>486.42</ele>
        <time>2026-06-03T13:34:26.461475968Z</time>
      </trkpt>
      <trkpt lat="42.90324" lon="2.21055">
        <ele>486.65</ele>
        <time>2026-06-03T13:34:27.511958957Z</time>
      </trkpt>
      <trkpt lat="42.90322" lon="2.21054">
        <ele>486.88</ele>
        <time>2026-06-03T13:34:28.532838941Z</time>
      </trkpt>
      <trkpt lat="42.90321" lon="2.21052">
        <ele>487.07</ele>
        <time>2026-06-03T13:34:29.491863966Z</time>
      </trkpt>
      <trkpt lat="42.90319" lon="2.21051">
        <ele>487.26</ele>
        <time>2026-06-03T13:34:30.422104955Z</time>
      </trkpt>
      <trkpt lat="42.90318" lon="2.21049">
        <ele>487.44</ele>
        <time>2026-06-03T13:34:31.474148035Z</time>
      </trkpt>
      <trkpt lat="42.90316" lon="2.21047">
        <ele>487.63</ele>
        <time>2026-06-03T13:34:32.432129979Z</time>
      </trkpt>
      <trkpt lat="42.90314" lon="2.21045">
        <ele>487.81</ele>
        <time>2026-06-03T13:34:33.427261949Z</time>
      </trkpt>
      <trkpt lat="42.90313" lon="2.21043">
        <ele>487.99</ele>
        <time>2026-06-03T13:34:34.472046971Z</time>
      </trkpt>
      <trkpt lat="42.90312" lon="2.21041">
        <ele>488.17</ele>
        <time>2026-06-03T13:34:35.521839023Z</time>
      </trkpt>
      <trkpt lat="42.90311" lon="2.21038">
        <ele>488.37</ele>
        <time>2026-06-03T13:34:36.511867046Z</time>
      </trkpt>
      <trkpt lat="42.9031" lon="2.21035">
        <ele>488.57</ele>
        <time>2026-06-03T13:34:37.501610994Z</time>
      </trkpt>
      <trkpt lat="42.9031" lon="2.21032">
        <ele>488.8</ele>
        <time>2026-06-03T13:34:38.522117019Z</time>
      </trkpt>
      <trkpt lat="42.90311" lon="2.21029">
        <ele>489.03</ele>
        <time>2026-06-03T13:34:39.511849046Z</time>
      </trkpt>
      <trkpt lat="42.90311" lon="2.21027">
        <ele>489.28</ele>
        <time>2026-06-03T13:34:40.532188058Z</time>
      </trkpt>
      <trkpt lat="42.90312" lon="2.21023">
        <ele>489.54</ele>
        <time>2026-06-03T13:34:41.491402984Z</time>
      </trkpt>
      <trkpt lat="42.90313" lon="2.2102">
        <ele>489.81</ele>
        <time>2026-06-03T13:34:42.453009009Z</time>
      </trkpt>
      <trkpt lat="42.90314" lon="2.21018">
        <ele>490.09</ele>
        <time>2026-06-03T13:34:43.502650023Z</time>
      </trkpt>
      <trkpt lat="42.90315" lon="2.21016">
        <ele>490.33</ele>
        <time>2026-06-03T13:34:44.462154031Z</time>
      </trkpt>
      <trkpt lat="42.90317" lon="2.21013">
        <ele>490.58</ele>
        <time>2026-06-03T13:34:45.542384028Z</time>
      </trkpt>
      <trkpt lat="42.90318" lon="2.21011">
        <ele>490.84</ele>
        <time>2026-06-03T13:34:46.533172965Z</time>
      </trkpt>
      <trkpt lat="42.90319" lon="2.21011">
        <ele>491.09</ele>
        <time>2026-06-03T13:34:47.462824941Z</time>
      </trkpt>
      <trkpt lat="42.90321" lon="2.21009">
        <ele>491.33</ele>
        <time>2026-06-03T13:34:48.512225986Z</time>
      </trkpt>
      <trkpt lat="42.90323" lon="2.21008">
        <ele>491.57</ele>
        <time>2026-06-03T13:34:49.441709995Z</time>
      </trkpt>
      <trkpt lat="42.90326" lon="2.21007">
        <ele>491.83</ele>
        <time>2026-06-03T13:34:50.492166042Z</time>
      </trkpt>
      <trkpt lat="42.90328" lon="2.21007">
        <ele>492.07</ele>
        <time>2026-06-03T13:34:51.543148041Z</time>
      </trkpt>
      <trkpt lat="42.90331" lon="2.21007">
        <ele>492.32</ele>
        <time>2026-06-03T13:34:52.533519983Z</time>
      </trkpt>
      <trkpt lat="42.90332" lon="2.21006">
        <ele>492.56</ele>
        <time>2026-06-03T13:34:53.523048043Z</time>
      </trkpt>
      <trkpt lat="42.90335" lon="2.21006">
        <ele>492.8</ele>
        <time>2026-06-03T13:34:54.512745976Z</time>
      </trkpt>
      <trkpt lat="42.90337" lon="2.21006">
        <ele>493.03</ele>
        <time>2026-06-03T13:34:55.502715945Z</time>
      </trkpt>
      <trkpt lat="42.90339" lon="2.21005">
        <ele>493.24</ele>
        <time>2026-06-03T13:34:56.462309957Z</time>
      </trkpt>
      <trkpt lat="42.9034" lon="2.21003">
        <ele>493.45</ele>
        <time>2026-06-03T13:34:57.513239026Z</time>
      </trkpt>
      <trkpt lat="42.90342" lon="2.21001">
        <ele>493.62</ele>
        <time>2026-06-03T13:34:58.472581029Z</time>
      </trkpt>
      <trkpt lat="42.90343" lon="2.20999">
        <ele>493.79</ele>
        <time>2026-06-03T13:34:59.523105979Z</time>
      </trkpt>
      <trkpt lat="42.90344" lon="2.20996">
        <ele>493.96</ele>
        <time>2026-06-03T13:35:00.422855973Z</time>
      </trkpt>
      <trkpt lat="42.90345" lon="2.20994">
        <ele>493.96</ele>
        <time>2026-06-03T13:35:01.382846951Z</time>
      </trkpt>
      <trkpt lat="42.90344" lon="2.20991">
        <ele>494.25</ele>
        <time>2026-06-03T13:35:02.523058057Z</time>
      </trkpt>
      <trkpt lat="42.90343" lon="2.20988">
        <ele>494.4</ele>
        <time>2026-06-03T13:35:03.512410998Z</time>
      </trkpt>
      <trkpt lat="42.90343" lon="2.20986">
        <ele>494.52</ele>
        <time>2026-06-03T13:35:04.445811033Z</time>
      </trkpt>
      <trkpt lat="42.90342" lon="2.20984">
        <ele>494.63</ele>
        <time>2026-06-03T13:35:05.432693005Z</time>
      </trkpt>
      <trkpt lat="42.9034" lon="2.20982">
        <ele>494.73</ele>
        <time>2026-06-03T13:35:06.513183951Z</time>
      </trkpt>
      <trkpt lat="42.90339" lon="2.20979">
        <ele>494.82</ele>
        <time>2026-06-03T13:35:07.533246994Z</time>
      </trkpt>
      <trkpt lat="42.90337" lon="2.20977">
        <ele>494.9</ele>
        <time>2026-06-03T13:35:08.410779953Z</time>
      </trkpt>
      <trkpt lat="42.90336" lon="2.20975">
        <ele>494.97</ele>
        <time>2026-06-03T13:35:09.512675047Z</time>
      </trkpt>
      <trkpt lat="42.90335" lon="2.20973">
        <ele>495.04</ele>
        <time>2026-06-03T13:35:10.414193988Z</time>
      </trkpt>
      <trkpt lat="42.90334" lon="2.2097">
        <ele>495.11</ele>
        <time>2026-06-03T13:35:11.523136020Z</time>
      </trkpt>
      <trkpt lat="42.90333" lon="2.20968">
        <ele>495.18</ele>
        <time>2026-06-03T13:35:12.362697005Z</time>
      </trkpt>
      <trkpt lat="42.90332" lon="2.20965">
        <ele>495.24</ele>
        <time>2026-06-03T13:35:13.502336979Z</time>
      </trkpt>
      <trkpt lat="42.90331" lon="2.20962">
        <ele>495.29</ele>
        <time>2026-06-03T13:35:14.454715014Z</time>
      </trkpt>
      <trkpt lat="42.9033" lon="2.20959">
        <ele>495.42</ele>
        <time>2026-06-03T13:35:15.543509007Z</time>
      </trkpt>
      <trkpt lat="42.90329" lon="2.20956">
        <ele>495.54</ele>
        <time>2026-06-03T13:35:16.413069010Z</time>
      </trkpt>
      <trkpt lat="42.90328" lon="2.20953">
        <ele>495.65</ele>
        <time>2026-06-03T13:35:17.523098946Z</time>
      </trkpt>
      <trkpt lat="42.90328" lon="2.2095">
        <ele>495.77</ele>
        <time>2026-06-03T13:35:18.436725020Z</time>
      </trkpt>
      <trkpt lat="42.90327" lon="2.20947">
        <ele>495.88</ele>
        <time>2026-06-03T13:35:19.498412967Z</time>
      </trkpt>
      <trkpt lat="42.90327" lon="2.20945">
        <ele>496</ele>
        <time>2026-06-03T13:35:20.409559011Z</time>
      </trkpt>
      <trkpt lat="42.90326" lon="2.20942">
        <ele>496.12</ele>
        <time>2026-06-03T13:35:21.513201952Z</time>
      </trkpt>
      <trkpt lat="42.90326" lon="2.20939">
        <ele>496.24</ele>
        <time>2026-06-03T13:35:22.503473997Z</time>
      </trkpt>
      <trkpt lat="42.90325" lon="2.20936">
        <ele>496.35</ele>
        <time>2026-06-03T13:35:23.523511052Z</time>
      </trkpt>
      <trkpt lat="42.90324" lon="2.20933">
        <ele>496.46</ele>
        <time>2026-06-03T13:35:24.455165029Z</time>
      </trkpt>
      <trkpt lat="42.90324" lon="2.2093">
        <ele>496.55</ele>
        <time>2026-06-03T13:35:25.533583045Z</time>
      </trkpt>
      <trkpt lat="42.90322" lon="2.20927">
        <ele>496.65</ele>
        <time>2026-06-03T13:35:26.434160948Z</time>
      </trkpt>
      <trkpt lat="42.90321" lon="2.20924">
        <ele>496.74</ele>
        <time>2026-06-03T13:35:27.512686014Z</time>
      </trkpt>
      <trkpt lat="42.9032" lon="2.20922">
        <ele>496.81</ele>
        <time>2026-06-03T13:35:28.472385049Z</time>
      </trkpt>
      <trkpt lat="42.90318" lon="2.2092">
        <ele>496.89</ele>
        <time>2026-06-03T13:35:29.493404984Z</time>
      </trkpt>
      <trkpt lat="42.90316" lon="2.20919">
        <ele>496.98</ele>
        <time>2026-06-03T13:35:30.420004010Z</time>
      </trkpt>
      <trkpt lat="42.90314" lon="2.20919">
        <ele>497.07</ele>
        <time>2026-06-03T13:35:31.504217029Z</time>
      </trkpt>
      <trkpt lat="42.90313" lon="2.20918">
        <ele>497.18</ele>
        <time>2026-06-03T13:35:32.494184017Z</time>
      </trkpt>
      <trkpt lat="42.90311" lon="2.20918">
        <ele>497.3</ele>
        <time>2026-06-03T13:35:33.429718971Z</time>
      </trkpt>
      <trkpt lat="42.90308" lon="2.20918">
        <ele>497.43</ele>
        <time>2026-06-03T13:35:34.503738046Z</time>
      </trkpt>
      <trkpt lat="42.90306" lon="2.20919">
        <ele>497.57</ele>
        <time>2026-06-03T13:35:35.462355971Z</time>
      </trkpt>
      <trkpt lat="42.90304" lon="2.20919">
        <ele>497.57</ele>
        <time>2026-06-03T13:35:36.422935963Z</time>
      </trkpt>
      <trkpt lat="42.90302" lon="2.2092">
        <ele>497.86</ele>
        <time>2026-06-03T13:35:37.473793983Z</time>
      </trkpt>
      <trkpt lat="42.903" lon="2.20921">
        <ele>497.99</ele>
        <time>2026-06-03T13:35:38.463490963Z</time>
      </trkpt>
      <trkpt lat="42.90298" lon="2.20923">
        <ele>498.11</ele>
        <time>2026-06-03T13:35:39.542420983Z</time>
      </trkpt>
      <trkpt lat="42.90296" lon="2.20924">
        <ele>498.22</ele>
        <time>2026-06-03T13:35:40.533800006Z</time>
      </trkpt>
      <trkpt lat="42.90294" lon="2.20926">
        <ele>498.32</ele>
        <time>2026-06-03T13:35:41.525845051Z</time>
      </trkpt>
      <trkpt lat="42.90292" lon="2.20928">
        <ele>498.41</ele>
        <time>2026-06-03T13:35:42.514078975Z</time>
      </trkpt>
      <trkpt lat="42.90291" lon="2.20929">
        <ele>498.5</ele>
        <time>2026-06-03T13:35:43.504107952Z</time>
      </trkpt>
      <trkpt lat="42.90289" lon="2.20931">
        <ele>498.57</ele>
        <time>2026-06-03T13:35:44.524214983Z</time>
      </trkpt>
      <trkpt lat="42.90287" lon="2.20932">
        <ele>498.65</ele>
        <time>2026-06-03T13:35:45.455479026Z</time>
      </trkpt>
      <trkpt lat="42.90285" lon="2.20934">
        <ele>498.74</ele>
        <time>2026-06-03T13:35:46.473346949Z</time>
      </trkpt>
      <trkpt lat="42.90284" lon="2.20935">
        <ele>498.83</ele>
        <time>2026-06-03T13:35:47.433694005Z</time>
      </trkpt>
      <trkpt lat="42.90282" lon="2.20937">
        <ele>498.92</ele>
        <time>2026-06-03T13:35:48.543990970Z</time>
      </trkpt>
      <trkpt lat="42.9028" lon="2.20938">
        <ele>499.01</ele>
        <time>2026-06-03T13:35:49.509372950Z</time>
      </trkpt>
      <trkpt lat="42.90278" lon="2.20938">
        <ele>499.1</ele>
        <time>2026-06-03T13:35:50.524090052Z</time>
      </trkpt>
      <trkpt lat="42.90276" lon="2.20938">
        <ele>499.19</ele>
        <time>2026-06-03T13:35:51.514332056Z</time>
      </trkpt>
      <trkpt lat="42.90274" lon="2.20938">
        <ele>499.28</ele>
        <time>2026-06-03T13:35:52.503906012Z</time>
      </trkpt>
      <trkpt lat="42.90272" lon="2.20938">
        <ele>499.36</ele>
        <time>2026-06-03T13:35:53.384946942Z</time>
      </trkpt>
      <trkpt lat="42.90269" lon="2.20936">
        <ele>499.46</ele>
        <time>2026-06-03T13:35:54.514217973Z</time>
      </trkpt>
      <trkpt lat="42.90267" lon="2.20935">
        <ele>499.56</ele>
        <time>2026-06-03T13:35:55.503957033Z</time>
      </trkpt>
      <trkpt lat="42.90265" lon="2.20934">
        <ele>499.67</ele>
        <time>2026-06-03T13:35:56.524392009Z</time>
      </trkpt>
      <trkpt lat="42.90263" lon="2.20932">
        <ele>499.78</ele>
        <time>2026-06-03T13:35:57.514104962Z</time>
      </trkpt>
      <trkpt lat="42.90261" lon="2.2093">
        <ele>499.88</ele>
        <time>2026-06-03T13:35:58.474078059Z</time>
      </trkpt>
      <trkpt lat="42.9026" lon="2.20929">
        <ele>499.99</ele>
        <time>2026-06-03T13:35:59.524283051Z</time>
      </trkpt>
      <trkpt lat="42.90259" lon="2.20928">
        <ele>500.11</ele>
        <time>2026-06-03T13:36:00.411015034Z</time>
      </trkpt>
      <trkpt lat="42.90257" lon="2.20926">
        <ele>500.24</ele>
        <time>2026-06-03T13:36:01.363976002Z</time>
      </trkpt>
      <trkpt lat="42.90255" lon="2.20924">
        <ele>500.37</ele>
        <time>2026-06-03T13:36:02.420199990Z</time>
      </trkpt>
      <trkpt lat="42.90253" lon="2.20922">
        <ele>500.52</ele>
        <time>2026-06-03T13:36:03.450929046Z</time>
      </trkpt>
      <trkpt lat="42.90252" lon="2.20919">
        <ele>500.68</ele>
        <time>2026-06-03T13:36:04.443503022Z</time>
      </trkpt>
      <trkpt lat="42.9025" lon="2.20917">
        <ele>500.84</ele>
        <time>2026-06-03T13:36:05.493831992Z</time>
      </trkpt>
      <trkpt lat="42.90249" lon="2.20915">
        <ele>501</ele>
        <time>2026-06-03T13:36:06.453446984Z</time>
      </trkpt>
      <trkpt lat="42.90248" lon="2.20913">
        <ele>501.16</ele>
        <time>2026-06-03T13:36:07.473114967Z</time>
      </trkpt>
      <trkpt lat="42.90246" lon="2.20911">
        <ele>501.31</ele>
        <time>2026-06-03T13:36:08.465284944Z</time>
      </trkpt>
      <trkpt lat="42.90244" lon="2.20908">
        <ele>501.47</ele>
        <time>2026-06-03T13:36:09.513825059Z</time>
      </trkpt>
      <trkpt lat="42.90243" lon="2.20906">
        <ele>501.62</ele>
        <time>2026-06-03T13:36:10.445273995Z</time>
      </trkpt>
      <trkpt lat="42.90242" lon="2.20904">
        <ele>501.78</ele>
        <time>2026-06-03T13:36:11.465167999Z</time>
      </trkpt>
      <trkpt lat="42.9024" lon="2.20902">
        <ele>501.92</ele>
        <time>2026-06-03T13:36:12.424375057Z</time>
      </trkpt>
      <trkpt lat="42.90239" lon="2.209">
        <ele>502.05</ele>
        <time>2026-06-03T13:36:13.425272942Z</time>
      </trkpt>
      <trkpt lat="42.90237" lon="2.20897">
        <ele>502.18</ele>
        <time>2026-06-03T13:36:14.434587002Z</time>
      </trkpt>
      <trkpt lat="42.90236" lon="2.20895">
        <ele>502.28</ele>
        <time>2026-06-03T13:36:15.408995986Z</time>
      </trkpt>
      <trkpt lat="42.90235" lon="2.20893">
        <ele>502.39</ele>
        <time>2026-06-03T13:36:16.464187026Z</time>
      </trkpt>
      <trkpt lat="42.90234" lon="2.20891">
        <ele>502.48</ele>
        <time>2026-06-03T13:36:17.414569974Z</time>
      </trkpt>
      <trkpt lat="42.90232" lon="2.20889">
        <ele>502.57</ele>
        <time>2026-06-03T13:36:18.456472039Z</time>
      </trkpt>
      <trkpt lat="42.90231" lon="2.20888">
        <ele>502.67</ele>
        <time>2026-06-03T13:36:19.505040050Z</time>
      </trkpt>
      <trkpt lat="42.90231" lon="2.20887">
        <ele>502.76</ele>
        <time>2026-06-03T13:36:20.494591951Z</time>
      </trkpt>
      <trkpt lat="42.90229" lon="2.20884">
        <ele>502.84</ele>
        <time>2026-06-03T13:36:21.514348030Z</time>
      </trkpt>
      <trkpt lat="42.90228" lon="2.2088">
        <ele>503.02</ele>
        <time>2026-06-03T13:36:23.524592996Z</time>
      </trkpt>
      <trkpt lat="42.90226" lon="2.20877">
        <ele>503.1</ele>
        <time>2026-06-03T13:36:24.514778972Z</time>
      </trkpt>
      <trkpt lat="42.90225" lon="2.20873">
        <ele>503.19</ele>
        <time>2026-06-03T13:36:25.504577994Z</time>
      </trkpt>
      <trkpt lat="42.90223" lon="2.20872">
        <ele>503.27</ele>
        <time>2026-06-03T13:36:26.464823961Z</time>
      </trkpt>
      <trkpt lat="42.9022" lon="2.20871">
        <ele>503.35</ele>
        <time>2026-06-03T13:36:27.514724970Z</time>
      </trkpt>
      <trkpt lat="42.90218" lon="2.2087">
        <ele>503.42</ele>
        <time>2026-06-03T13:36:28.444532037Z</time>
      </trkpt>
      <trkpt lat="42.90214" lon="2.2087">
        <ele>503.49</ele>
        <time>2026-06-03T13:36:29.466452956Z</time>
      </trkpt>
      <trkpt lat="42.90209" lon="2.20869">
        <ele>503.57</ele>
        <time>2026-06-03T13:36:30.456431031Z</time>
      </trkpt>
      <trkpt lat="42.90208" lon="2.20868">
        <ele>503.64</ele>
        <time>2026-06-03T13:36:31.534631968Z</time>
      </trkpt>
      <trkpt lat="42.90205" lon="2.20866">
        <ele>503.72</ele>
        <time>2026-06-03T13:36:32.524603009Z</time>
      </trkpt>
      <trkpt lat="42.90204" lon="2.20865">
        <ele>503.8</ele>
        <time>2026-06-03T13:36:33.461989999Z</time>
      </trkpt>
      <trkpt lat="42.90204" lon="2.20863">
        <ele>503.87</ele>
        <time>2026-06-03T13:36:34.504286051Z</time>
      </trkpt>
      <trkpt lat="42.90203" lon="2.2086">
        <ele>503.94</ele>
        <time>2026-06-03T13:36:35.494518995Z</time>
      </trkpt>
      <trkpt lat="42.90202" lon="2.20857">
        <ele>504.01</ele>
        <time>2026-06-03T13:36:36.514672995Z</time>
      </trkpt>
      <trkpt lat="42.90201" lon="2.20854">
        <ele>504.08</ele>
        <time>2026-06-03T13:36:37.445253968Z</time>
      </trkpt>
      <trkpt lat="42.90201" lon="2.20851">
        <ele>504.15</ele>
        <time>2026-06-03T13:36:38.524785995Z</time>
      </trkpt>
      <trkpt lat="42.902" lon="2.20848">
        <ele>504.21</ele>
        <time>2026-06-03T13:36:39.400596976Z</time>
      </trkpt>
      <trkpt lat="42.90201" lon="2.20844">
        <ele>504.28</ele>
        <time>2026-06-03T13:36:40.414518952Z</time>
      </trkpt>
      <trkpt lat="42.90201" lon="2.20841">
        <ele>504.36</ele>
        <time>2026-06-03T13:36:41.385393023Z</time>
      </trkpt>
      <trkpt lat="42.90201" lon="2.20838">
        <ele>504.43</ele>
        <time>2026-06-03T13:36:42.484670997Z</time>
      </trkpt>
      <trkpt lat="42.90201" lon="2.20835">
        <ele>504.5</ele>
        <time>2026-06-03T13:36:43.474233985Z</time>
      </trkpt>
      <trkpt lat="42.90202" lon="2.20833">
        <ele>504.58</ele>
        <time>2026-06-03T13:36:44.525127053Z</time>
      </trkpt>
      <trkpt lat="42.90202" lon="2.20829">
        <ele>504.67</ele>
        <time>2026-06-03T13:36:45.408460021Z</time>
      </trkpt>
      <trkpt lat="42.90201" lon="2.20826">
        <ele>504.76</ele>
        <time>2026-06-03T13:36:46.445296049Z</time>
      </trkpt>
      <trkpt lat="42.90201" lon="2.20824">
        <ele>504.86</ele>
        <time>2026-06-03T13:36:47.524330974Z</time>
      </trkpt>
      <trkpt lat="42.902" lon="2.20822">
        <ele>504.96</ele>
        <time>2026-06-03T13:36:48.477524042Z</time>
      </trkpt>
      <trkpt lat="42.90199" lon="2.2082">
        <ele>505.06</ele>
        <time>2026-06-03T13:36:49.504966974Z</time>
      </trkpt>
      <trkpt lat="42.90197" lon="2.20817">
        <ele>505.17</ele>
        <time>2026-06-03T13:36:50.408427Z</time>
      </trkpt>
      <trkpt lat="42.90195" lon="2.20815">
        <ele>505.28</ele>
        <time>2026-06-03T13:36:51.395002007Z</time>
      </trkpt>
      <trkpt lat="42.90194" lon="2.20812">
        <ele>505.39</ele>
        <time>2026-06-03T13:36:52.535099983Z</time>
      </trkpt>
      <trkpt lat="42.90191" lon="2.20811">
        <ele>505.49</ele>
        <time>2026-06-03T13:36:53.525218964Z</time>
      </trkpt>
      <trkpt lat="42.9019" lon="2.20809">
        <ele>505.59</ele>
        <time>2026-06-03T13:36:54.514996052Z</time>
      </trkpt>
      <trkpt lat="42.90187" lon="2.20808">
        <ele>505.67</ele>
        <time>2026-06-03T13:36:55.474866033Z</time>
      </trkpt>
      <trkpt lat="42.90185" lon="2.20806">
        <ele>505.76</ele>
        <time>2026-06-03T13:36:56.495057940Z</time>
      </trkpt>
      <trkpt lat="42.90183" lon="2.20805">
        <ele>505.83</ele>
        <time>2026-06-03T13:36:57.485332012Z</time>
      </trkpt>
      <trkpt lat="42.90181" lon="2.20804">
        <ele>505.9</ele>
        <time>2026-06-03T13:36:58.535236001Z</time>
      </trkpt>
      <trkpt lat="42.90179" lon="2.20803">
        <ele>505.97</ele>
        <time>2026-06-03T13:36:59.434741020Z</time>
      </trkpt>
      <trkpt lat="42.90177" lon="2.20802">
        <ele>506.05</ele>
        <time>2026-06-03T13:37:00.515349030Z</time>
      </trkpt>
      <trkpt lat="42.90175" lon="2.20801">
        <ele>506.14</ele>
        <time>2026-06-03T13:37:01.384825945Z</time>
      </trkpt>
      <trkpt lat="42.90173" lon="2.208">
        <ele>506.24</ele>
        <time>2026-06-03T13:37:02.495167017Z</time>
      </trkpt>
      <trkpt lat="42.90171" lon="2.20798">
        <ele>506.35</ele>
        <time>2026-06-03T13:37:03.454249978Z</time>
      </trkpt>
      <trkpt lat="42.90168" lon="2.20797">
        <ele>506.47</ele>
        <time>2026-06-03T13:37:04.535349965Z</time>
      </trkpt>
      <trkpt lat="42.90167" lon="2.20795">
        <ele>506.59</ele>
        <time>2026-06-03T13:37:05.495012045Z</time>
      </trkpt>
      <trkpt lat="42.90165" lon="2.20793">
        <ele>506.72</ele>
        <time>2026-06-03T13:37:06.515341997Z</time>
      </trkpt>
      <trkpt lat="42.90163" lon="2.20791">
        <ele>506.85</ele>
        <time>2026-06-03T13:37:07.505126953Z</time>
      </trkpt>
      <trkpt lat="42.90161" lon="2.20789">
        <ele>506.96</ele>
        <time>2026-06-03T13:37:08.495314956Z</time>
      </trkpt>
      <trkpt lat="42.90159" lon="2.20786">
        <ele>507.08</ele>
        <time>2026-06-03T13:37:09.395344973Z</time>
      </trkpt>
      <trkpt lat="42.90157" lon="2.20785">
        <ele>507.18</ele>
        <time>2026-06-03T13:37:10.535225987Z</time>
      </trkpt>
      <trkpt lat="42.90155" lon="2.20783">
        <ele>507.28</ele>
        <time>2026-06-03T13:37:11.525259972Z</time>
      </trkpt>
      <trkpt lat="42.90154" lon="2.20782">
        <ele>507.36</ele>
        <time>2026-06-03T13:37:12.515169024Z</time>
      </trkpt>
      <trkpt lat="42.90151" lon="2.20782">
        <ele>507.45</ele>
        <time>2026-06-03T13:37:13.505599022Z</time>
      </trkpt>
      <trkpt lat="42.90149" lon="2.20781">
        <ele>507.53</ele>
        <time>2026-06-03T13:37:14.495339990Z</time>
      </trkpt>
      <trkpt lat="42.90147" lon="2.20782">
        <ele>507.71</ele>
        <time>2026-06-03T13:37:15.515303016Z</time>
      </trkpt>
      <trkpt lat="42.90145" lon="2.20782">
        <ele>507.88</ele>
        <time>2026-06-03T13:37:16.390409946Z</time>
      </trkpt>
      <trkpt lat="42.90144" lon="2.20782">
        <ele>508.03</ele>
        <time>2026-06-03T13:37:17.546581984Z</time>
      </trkpt>
      <trkpt lat="42.90141" lon="2.20782">
        <ele>508.17</ele>
        <time>2026-06-03T13:37:18.489022017Z</time>
      </trkpt>
      <trkpt lat="42.90139" lon="2.20782">
        <ele>508.29</ele>
        <time>2026-06-03T13:37:19.505275965Z</time>
      </trkpt>
      <trkpt lat="42.90136" lon="2.20782">
        <ele>508.41</ele>
        <time>2026-06-03T13:37:20.525416017Z</time>
      </trkpt>
      <trkpt lat="42.90134" lon="2.20781">
        <ele>508.53</ele>
        <time>2026-06-03T13:37:21.485450029Z</time>
      </trkpt>
      <trkpt lat="42.90132" lon="2.20781">
        <ele>508.65</ele>
        <time>2026-06-03T13:37:22.505637050Z</time>
      </trkpt>
      <trkpt lat="42.9013" lon="2.20779">
        <ele>508.76</ele>
        <time>2026-06-03T13:37:23.495689034Z</time>
      </trkpt>
      <trkpt lat="42.90128" lon="2.20778">
        <ele>508.87</ele>
        <time>2026-06-03T13:37:24.455029964Z</time>
      </trkpt>
      <trkpt lat="42.90126" lon="2.20775">
        <ele>508.97</ele>
        <time>2026-06-03T13:37:25.446975946Z</time>
      </trkpt>
      <trkpt lat="42.90124" lon="2.20774">
        <ele>509.08</ele>
        <time>2026-06-03T13:37:26.405343056Z</time>
      </trkpt>
      <trkpt lat="42.90122" lon="2.20773">
        <ele>509.18</ele>
        <time>2026-06-03T13:37:27.514809012Z</time>
      </trkpt>
      <trkpt lat="42.9012" lon="2.20771">
        <ele>509.27</ele>
        <time>2026-06-03T13:37:28.474616051Z</time>
      </trkpt>
      <trkpt lat="42.90118" lon="2.20769">
        <ele>509.35</ele>
        <time>2026-06-03T13:37:29.496021032Z</time>
      </trkpt>
      <trkpt lat="42.90117" lon="2.20768">
        <ele>509.44</ele>
        <time>2026-06-03T13:37:30.485641956Z</time>
      </trkpt>
      <trkpt lat="42.90115" lon="2.20767">
        <ele>509.52</ele>
        <time>2026-06-03T13:37:31.394731045Z</time>
      </trkpt>
      <trkpt lat="42.90113" lon="2.20765">
        <ele>509.6</ele>
        <time>2026-06-03T13:37:32.526528955Z</time>
      </trkpt>
      <trkpt lat="42.9011" lon="2.20762">
        <ele>509.68</ele>
        <time>2026-06-03T13:37:33.425616980Z</time>
      </trkpt>
      <trkpt lat="42.90108" lon="2.20761">
        <ele>509.76</ele>
        <time>2026-06-03T13:37:34.505802989Z</time>
      </trkpt>
      <trkpt lat="42.90106" lon="2.20759">
        <ele>509.85</ele>
        <time>2026-06-03T13:37:35.410251975Z</time>
      </trkpt>
      <trkpt lat="42.90105" lon="2.20757">
        <ele>509.94</ele>
        <time>2026-06-03T13:37:36.485674977Z</time>
      </trkpt>
      <trkpt lat="42.90103" lon="2.20755">
        <ele>510.04</ele>
        <time>2026-06-03T13:37:37.506356001Z</time>
      </trkpt>
      <trkpt lat="42.90101" lon="2.20753">
        <ele>510.15</ele>
        <time>2026-06-03T13:37:38.465407014Z</time>
      </trkpt>
      <trkpt lat="42.901" lon="2.20751">
        <ele>510.27</ele>
        <time>2026-06-03T13:37:39.516062021Z</time>
      </trkpt>
      <trkpt lat="42.90099" lon="2.20749">
        <ele>510.39</ele>
        <time>2026-06-03T13:37:40.416107059Z</time>
      </trkpt>
      <trkpt lat="42.90097" lon="2.20746">
        <ele>510.53</ele>
        <time>2026-06-03T13:37:41.435693026Z</time>
      </trkpt>
      <trkpt lat="42.90097" lon="2.20745">
        <ele>510.65</ele>
        <time>2026-06-03T13:37:42.425894976Z</time>
      </trkpt>
      <trkpt lat="42.90092" lon="2.20741">
        <ele>510.88</ele>
        <time>2026-06-03T13:37:44.495903969Z</time>
      </trkpt>
      <trkpt lat="42.90092" lon="2.2074">
        <ele>510.99</ele>
        <time>2026-06-03T13:37:45.516121030Z</time>
      </trkpt>
      <trkpt lat="42.90091" lon="2.20738">
        <ele>511.09</ele>
        <time>2026-06-03T13:37:46.362638950Z</time>
      </trkpt>
      <trkpt lat="42.90089" lon="2.20736">
        <ele>511.19</ele>
        <time>2026-06-03T13:37:47.526343942Z</time>
      </trkpt>
      <trkpt lat="42.90088" lon="2.20733">
        <ele>511.28</ele>
        <time>2026-06-03T13:37:48.510640979Z</time>
      </trkpt>
      <trkpt lat="42.90086" lon="2.20732">
        <ele>511.37</ele>
        <time>2026-06-03T13:37:49.505339980Z</time>
      </trkpt>
      <trkpt lat="42.90084" lon="2.2073">
        <ele>511.47</ele>
        <time>2026-06-03T13:37:50.496070027Z</time>
      </trkpt>
      <trkpt lat="42.90083" lon="2.20728">
        <ele>511.57</ele>
        <time>2026-06-03T13:37:51.485875964Z</time>
      </trkpt>
      <trkpt lat="42.90081" lon="2.20726">
        <ele>511.69</ele>
        <time>2026-06-03T13:37:52.506345034Z</time>
      </trkpt>
      <trkpt lat="42.9008" lon="2.20726">
        <ele>511.82</ele>
        <time>2026-06-03T13:37:53.496346951Z</time>
      </trkpt>
      <trkpt lat="42.90079" lon="2.20724">
        <ele>511.96</ele>
        <time>2026-06-03T13:37:54.516392946Z</time>
      </trkpt>
      <trkpt lat="42.90077" lon="2.20723">
        <ele>512.1</ele>
        <time>2026-06-03T13:37:55.447772026Z</time>
      </trkpt>
      <trkpt lat="42.90075" lon="2.20722">
        <ele>512.25</ele>
        <time>2026-06-03T13:37:56.495579004Z</time>
      </trkpt>
      <trkpt lat="42.90074" lon="2.20721">
        <ele>512.37</ele>
        <time>2026-06-03T13:37:57.366021991Z</time>
      </trkpt>
      <trkpt lat="42.90071" lon="2.20719">
        <ele>512.49</ele>
        <time>2026-06-03T13:37:58.506209970Z</time>
      </trkpt>
      <trkpt lat="42.9007" lon="2.20718">
        <ele>512.6</ele>
        <time>2026-06-03T13:37:59.467846990Z</time>
      </trkpt>
      <trkpt lat="42.90068" lon="2.20717">
        <ele>512.72</ele>
        <time>2026-06-03T13:38:00.516582012Z</time>
      </trkpt>
      <trkpt lat="42.90067" lon="2.20715">
        <ele>512.82996</ele>
        <time>2026-06-03T13:38:01.416139960Z</time>
      </trkpt>
      <trkpt lat="42.90065" lon="2.20714">
        <ele>512.95996</ele>
        <time>2026-06-03T13:38:02.376618028Z</time>
      </trkpt>
      <trkpt lat="42.90063" lon="2.20713">
        <ele>513.07</ele>
        <time>2026-06-03T13:38:03.486063957Z</time>
      </trkpt>
      <trkpt lat="42.90062" lon="2.20711">
        <ele>513.19</ele>
        <time>2026-06-03T13:38:04.506454945Z</time>
      </trkpt>
      <trkpt lat="42.9006" lon="2.20709">
        <ele>513.29004</ele>
        <time>2026-06-03T13:38:05.406867981Z</time>
      </trkpt>
      <trkpt lat="42.90058" lon="2.20706">
        <ele>513.4</ele>
        <time>2026-06-03T13:38:06.516312957Z</time>
      </trkpt>
      <trkpt lat="42.90056" lon="2.20705">
        <ele>513.5</ele>
        <time>2026-06-03T13:38:07.446928024Z</time>
      </trkpt>
      <trkpt lat="42.90055" lon="2.20702">
        <ele>513.6</ele>
        <time>2026-06-03T13:38:08.525684953Z</time>
      </trkpt>
      <trkpt lat="42.90054" lon="2.20701">
        <ele>513.69</ele>
        <time>2026-06-03T13:38:09.365388989Z</time>
      </trkpt>
      <trkpt lat="42.90052" lon="2.20697">
        <ele>513.78</ele>
        <time>2026-06-03T13:38:10.506814957Z</time>
      </trkpt>
      <trkpt lat="42.90051" lon="2.20696">
        <ele>513.86</ele>
        <time>2026-06-03T13:38:11.376685977Z</time>
      </trkpt>
      <trkpt lat="42.9005" lon="2.20693">
        <ele>513.94</ele>
        <time>2026-06-03T13:38:12.486433983Z</time>
      </trkpt>
      <trkpt lat="42.90049" lon="2.20691">
        <ele>514.03</ele>
        <time>2026-06-03T13:38:13.386356950Z</time>
      </trkpt>
      <trkpt lat="42.90047" lon="2.20688">
        <ele>514.11</ele>
        <time>2026-06-03T13:38:14.526648045Z</time>
      </trkpt>
      <trkpt lat="42.90046" lon="2.20687">
        <ele>514.32</ele>
        <time>2026-06-03T13:38:15.426622987Z</time>
      </trkpt>
      <trkpt lat="42.90044" lon="2.20685">
        <ele>514.52</ele>
        <time>2026-06-03T13:38:16.383927941Z</time>
      </trkpt>
      <trkpt lat="42.90042" lon="2.20682">
        <ele>514.7</ele>
        <time>2026-06-03T13:38:17.436431050Z</time>
      </trkpt>
      <trkpt lat="42.9004" lon="2.20681">
        <ele>514.87</ele>
        <time>2026-06-03T13:38:18.461619020Z</time>
      </trkpt>
      <trkpt lat="42.90039" lon="2.20679">
        <ele>515.03</ele>
        <time>2026-06-03T13:38:19.476963997Z</time>
      </trkpt>
      <trkpt lat="42.90037" lon="2.20677">
        <ele>515.19</ele>
        <time>2026-06-03T13:38:20.496351004Z</time>
      </trkpt>
      <trkpt lat="42.90035" lon="2.20674">
        <ele>515.32996</ele>
        <time>2026-06-03T13:38:21.486521959Z</time>
      </trkpt>
      <trkpt lat="42.90033" lon="2.20673">
        <ele>515.45996</ele>
        <time>2026-06-03T13:38:22.506708980Z</time>
      </trkpt>
      <trkpt lat="42.90031" lon="2.20671">
        <ele>515.58997</ele>
        <time>2026-06-03T13:38:23.496783018Z</time>
      </trkpt>
      <trkpt lat="42.9003" lon="2.2067">
        <ele>515.72</ele>
        <time>2026-06-03T13:38:24.486652017Z</time>
      </trkpt>
      <trkpt lat="42.90028" lon="2.20669">
        <ele>515.83997</ele>
        <time>2026-06-03T13:38:25.476662040Z</time>
      </trkpt>
      <trkpt lat="42.90026" lon="2.20667">
        <ele>515.95</ele>
        <time>2026-06-03T13:38:26.526592970Z</time>
      </trkpt>
      <trkpt lat="42.90024" lon="2.20666">
        <ele>516.06</ele>
        <time>2026-06-03T13:38:27.516638994Z</time>
      </trkpt>
      <trkpt lat="42.90022" lon="2.20665">
        <ele>516.17004</ele>
        <time>2026-06-03T13:38:28.506458998Z</time>
      </trkpt>
      <trkpt lat="42.9002" lon="2.20664">
        <ele>516.29004</ele>
        <time>2026-06-03T13:38:29.468237996Z</time>
      </trkpt>
      <trkpt lat="42.90018" lon="2.20663">
        <ele>516.41003</ele>
        <time>2026-06-03T13:38:30.419160962Z</time>
      </trkpt>
      <trkpt lat="42.90015" lon="2.20661">
        <ele>516.54004</ele>
        <time>2026-06-03T13:38:31.438349962Z</time>
      </trkpt>
      <trkpt lat="42.90013" lon="2.2066">
        <ele>516.67004</ele>
        <time>2026-06-03T13:38:32.473662019Z</time>
      </trkpt>
      <trkpt lat="42.90012" lon="2.20659">
        <ele>516.8</ele>
        <time>2026-06-03T13:38:33.458616972Z</time>
      </trkpt>
      <trkpt lat="42.9001" lon="2.20659">
        <ele>516.92004</ele>
        <time>2026-06-03T13:38:34.387547016Z</time>
      </trkpt>
      <trkpt lat="42.90008" lon="2.20658">
        <ele>517.04004</ele>
        <time>2026-06-03T13:38:35.408923030Z</time>
      </trkpt>
      <trkpt lat="42.90006" lon="2.20658">
        <ele>517.15</ele>
        <time>2026-06-03T13:38:36.486837029Z</time>
      </trkpt>
      <trkpt lat="42.90005" lon="2.20657">
        <ele>517.26</ele>
        <time>2026-06-03T13:38:37.506788969Z</time>
      </trkpt>
      <trkpt lat="42.90003" lon="2.20657">
        <ele>517.35</ele>
        <time>2026-06-03T13:38:38.496770024Z</time>
      </trkpt>
      <trkpt lat="42.90001" lon="2.20656">
        <ele>517.45</ele>
        <time>2026-06-03T13:38:39.396654010Z</time>
      </trkpt>
      <trkpt lat="42.89998" lon="2.20655">
        <ele>517.54004</ele>
        <time>2026-06-03T13:38:40.448567986Z</time>
      </trkpt>
      <trkpt lat="42.89996" lon="2.20654">
        <ele>517.62</ele>
        <time>2026-06-03T13:38:41.496999025Z</time>
      </trkpt>
      <trkpt lat="42.89994" lon="2.20653">
        <ele>517.70996</ele>
        <time>2026-06-03T13:38:42.426851034Z</time>
      </trkpt>
      <trkpt lat="42.89991" lon="2.20652">
        <ele>517.81</ele>
        <time>2026-06-03T13:38:43.506921053Z</time>
      </trkpt>
      <trkpt lat="42.89989" lon="2.2065">
        <ele>517.92004</ele>
        <time>2026-06-03T13:38:44.496848941Z</time>
      </trkpt>
      <trkpt lat="42.89986" lon="2.20649">
        <ele>518.04004</ele>
        <time>2026-06-03T13:38:45.487290025Z</time>
      </trkpt>
      <trkpt lat="42.89985" lon="2.20648">
        <ele>518.16003</ele>
        <time>2026-06-03T13:38:46.416715026Z</time>
      </trkpt>
      <trkpt lat="42.89981" lon="2.20647">
        <ele>518.27</ele>
        <time>2026-06-03T13:38:47.479269981Z</time>
      </trkpt>
      <trkpt lat="42.89979" lon="2.20646">
        <ele>518.36</ele>
        <time>2026-06-03T13:38:48.426185966Z</time>
      </trkpt>
      <trkpt lat="42.89977" lon="2.20646">
        <ele>518.45</ele>
        <time>2026-06-03T13:38:49.506322026Z</time>
      </trkpt>
      <trkpt lat="42.89974" lon="2.20645">
        <ele>518.54004</ele>
        <time>2026-06-03T13:38:50.497038960Z</time>
      </trkpt>
      <trkpt lat="42.89973" lon="2.20645">
        <ele>518.63</ele>
        <time>2026-06-03T13:38:51.517290950Z</time>
      </trkpt>
      <trkpt lat="42.8997" lon="2.20644">
        <ele>518.73</ele>
        <time>2026-06-03T13:38:52.507166982Z</time>
      </trkpt>
      <trkpt lat="42.89967" lon="2.20644">
        <ele>518.82996</ele>
        <time>2026-06-03T13:38:53.497302055Z</time>
      </trkpt>
      <trkpt lat="42.89965" lon="2.20644">
        <ele>518.95</ele>
        <time>2026-06-03T13:38:54.427281976Z</time>
      </trkpt>
      <trkpt lat="42.89963" lon="2.20643">
        <ele>519.07</ele>
        <time>2026-06-03T13:38:55.507426977Z</time>
      </trkpt>
      <trkpt lat="42.8996" lon="2.20644">
        <ele>519.18</ele>
        <time>2026-06-03T13:38:56.414412022Z</time>
      </trkpt>
      <trkpt lat="42.89958" lon="2.20644">
        <ele>519.31</ele>
        <time>2026-06-03T13:38:57.517325044Z</time>
      </trkpt>
      <trkpt lat="42.89956" lon="2.20643">
        <ele>519.45</ele>
        <time>2026-06-03T13:38:58.507426023Z</time>
      </trkpt>
      <trkpt lat="42.89954" lon="2.20644">
        <ele>519.61</ele>
        <time>2026-06-03T13:38:59.437111020Z</time>
      </trkpt>
      <trkpt lat="42.89951" lon="2.20643">
        <ele>519.78</ele>
        <time>2026-06-03T13:39:00.487445951Z</time>
      </trkpt>
      <trkpt lat="42.8995" lon="2.20643">
        <ele>519.95</ele>
        <time>2026-06-03T13:39:01.433022022Z</time>
      </trkpt>
      <trkpt lat="42.89947" lon="2.20643">
        <ele>520.12</ele>
        <time>2026-06-03T13:39:02.495093942Z</time>
      </trkpt>
      <trkpt lat="42.89944" lon="2.20643">
        <ele>520.29004</ele>
        <time>2026-06-03T13:39:03.517583966Z</time>
      </trkpt>
      <trkpt lat="42.89942" lon="2.20642">
        <ele>520.45</ele>
        <time>2026-06-03T13:39:04.508069038Z</time>
      </trkpt>
      <trkpt lat="42.8994" lon="2.20642">
        <ele>520.61</ele>
        <time>2026-06-03T13:39:05.423233986Z</time>
      </trkpt>
      <trkpt lat="42.89938" lon="2.20642">
        <ele>520.77</ele>
        <time>2026-06-03T13:39:06.487532973Z</time>
      </trkpt>
      <trkpt lat="42.89935" lon="2.20642">
        <ele>520.93</ele>
        <time>2026-06-03T13:39:07.507521033Z</time>
      </trkpt>
      <trkpt lat="42.89934" lon="2.20644">
        <ele>521.1</ele>
        <time>2026-06-03T13:39:08.497583032Z</time>
      </trkpt>
      <trkpt lat="42.89933" lon="2.20646">
        <ele>521.28</ele>
        <time>2026-06-03T13:39:09.487674952Z</time>
      </trkpt>
      <trkpt lat="42.89933" lon="2.20649">
        <ele>521.48</ele>
        <time>2026-06-03T13:39:10.507621050Z</time>
      </trkpt>
      <trkpt lat="42.89933" lon="2.20651">
        <ele>521.65</ele>
        <time>2026-06-03T13:39:11.499794006Z</time>
      </trkpt>
      <trkpt lat="42.89934" lon="2.20653">
        <ele>521.83997</ele>
        <time>2026-06-03T13:39:12.487637043Z</time>
      </trkpt>
      <trkpt lat="42.89935" lon="2.20655">
        <ele>521.83997</ele>
        <time>2026-06-03T13:39:13.432661057Z</time>
      </trkpt>
      <trkpt lat="42.89937" lon="2.20656">
        <ele>522.25</ele>
        <time>2026-06-03T13:39:14.436704040Z</time>
      </trkpt>
      <trkpt lat="42.89939" lon="2.20657">
        <ele>522.61</ele>
        <time>2026-06-03T13:39:15.457241058Z</time>
      </trkpt>
      <trkpt lat="42.89941" lon="2.20657">
        <ele>522.94</ele>
        <time>2026-06-03T13:39:16.463889003Z</time>
      </trkpt>
      <trkpt lat="42.89943" lon="2.20657">
        <ele>523.26</ele>
        <time>2026-06-03T13:39:17.497815967Z</time>
      </trkpt>
      <trkpt lat="42.89946" lon="2.20657">
        <ele>523.54004</ele>
        <time>2026-06-03T13:39:18.487797022Z</time>
      </trkpt>
      <trkpt lat="42.89948" lon="2.20657">
        <ele>523.78</ele>
        <time>2026-06-03T13:39:19.544958949Z</time>
      </trkpt>
      <trkpt lat="42.89951" lon="2.20657">
        <ele>524.01</ele>
        <time>2026-06-03T13:39:20.497949004Z</time>
      </trkpt>
      <trkpt lat="42.89953" lon="2.20656">
        <ele>524.20996</ele>
        <time>2026-06-03T13:39:21.489370942Z</time>
      </trkpt>
      <trkpt lat="42.89956" lon="2.20656">
        <ele>524.37</ele>
        <time>2026-06-03T13:39:22.508111954Z</time>
      </trkpt>
      <trkpt lat="42.89958" lon="2.20656">
        <ele>524.51</ele>
        <time>2026-06-03T13:39:23.497935057Z</time>
      </trkpt>
      <trkpt lat="42.8996" lon="2.20656">
        <ele>524.62</ele>
        <time>2026-06-03T13:39:24.487488985Z</time>
      </trkpt>
      <trkpt lat="42.89963" lon="2.20656">
        <ele>524.70996</ele>
        <time>2026-06-03T13:39:25.478327036Z</time>
      </trkpt>
      <trkpt lat="42.89965" lon="2.20657">
        <ele>524.78</ele>
        <time>2026-06-03T13:39:26.497796059Z</time>
      </trkpt>
      <trkpt lat="42.89968" lon="2.20657">
        <ele>524.85</ele>
        <time>2026-06-03T13:39:27.517359972Z</time>
      </trkpt>
      <trkpt lat="42.8997" lon="2.20658">
        <ele>524.91003</ele>
        <time>2026-06-03T13:39:28.477663040Z</time>
      </trkpt>
      <trkpt lat="42.89973" lon="2.20659">
        <ele>524.95996</ele>
        <time>2026-06-03T13:39:29.498268962Z</time>
      </trkpt>
      <trkpt lat="42.89975" lon="2.2066">
        <ele>525.03</ele>
        <time>2026-06-03T13:39:30.488136053Z</time>
      </trkpt>
      <trkpt lat="42.89977" lon="2.20662">
        <ele>525.12</ele>
        <time>2026-06-03T13:39:31.444982052Z</time>
      </trkpt>
      <trkpt lat="42.89979" lon="2.20662">
        <ele>525.20996</ele>
        <time>2026-06-03T13:39:32.498486042Z</time>
      </trkpt>
      <trkpt lat="42.89981" lon="2.20664">
        <ele>525.29004</ele>
        <time>2026-06-03T13:39:33.518591046Z</time>
      </trkpt>
      <trkpt lat="42.89984" lon="2.20665">
        <ele>525.37</ele>
        <time>2026-06-03T13:39:34.477882028Z</time>
      </trkpt>
      <trkpt lat="42.89986" lon="2.20667">
        <ele>525.44</ele>
        <time>2026-06-03T13:39:35.438421011Z</time>
      </trkpt>
      <trkpt lat="42.89988" lon="2.20669">
        <ele>525.5</ele>
        <time>2026-06-03T13:39:36.367933989Z</time>
      </trkpt>
      <trkpt lat="42.89989" lon="2.20671">
        <ele>525.55</ele>
        <time>2026-06-03T13:39:37.478021979Z</time>
      </trkpt>
      <trkpt lat="42.89991" lon="2.20673">
        <ele>525.61</ele>
        <time>2026-06-03T13:39:38.498031974Z</time>
      </trkpt>
      <trkpt lat="42.89993" lon="2.20676">
        <ele>525.68</ele>
        <time>2026-06-03T13:39:39.427564979Z</time>
      </trkpt>
      <trkpt lat="42.89993" lon="2.20678">
        <ele>525.74</ele>
        <time>2026-06-03T13:39:40.508108020Z</time>
      </trkpt>
      <trkpt lat="42.89995" lon="2.20681">
        <ele>525.8</ele>
        <time>2026-06-03T13:39:41.438665032Z</time>
      </trkpt>
      <trkpt lat="42.89996" lon="2.20682">
        <ele>525.87</ele>
        <time>2026-06-03T13:39:42.429694057Z</time>
      </trkpt>
      <trkpt lat="42.89998" lon="2.20684">
        <ele>525.93</ele>
        <time>2026-06-03T13:39:43.451503992Z</time>
      </trkpt>
      <trkpt lat="42.9" lon="2.20687">
        <ele>526</ele>
        <time>2026-06-03T13:39:44.408030033Z</time>
      </trkpt>
      <trkpt lat="42.90001" lon="2.20688">
        <ele>526</ele>
        <time>2026-06-03T13:39:45.407089949Z</time>
      </trkpt>
      <trkpt lat="42.90002" lon="2.2069">
        <ele>526.12</ele>
        <time>2026-06-03T13:39:46.419674993Z</time>
      </trkpt>
      <trkpt lat="42.90004" lon="2.20692">
        <ele>526.19</ele>
        <time>2026-06-03T13:39:47.438496947Z</time>
      </trkpt>
      <trkpt lat="42.90005" lon="2.20694">
        <ele>526.27</ele>
        <time>2026-06-03T13:39:48.457864046Z</time>
      </trkpt>
      <trkpt lat="42.90007" lon="2.20696">
        <ele>526.36</ele>
        <time>2026-06-03T13:39:49.448526025Z</time>
      </trkpt>
      <trkpt lat="42.90008" lon="2.20698">
        <ele>526.45996</ele>
        <time>2026-06-03T13:39:50.407554984Z</time>
      </trkpt>
      <trkpt lat="42.90009" lon="2.207">
        <ele>526.57</ele>
        <time>2026-06-03T13:39:51.459100008Z</time>
      </trkpt>
      <trkpt lat="42.9001" lon="2.20702">
        <ele>526.68</ele>
        <time>2026-06-03T13:39:52.418439031Z</time>
      </trkpt>
      <trkpt lat="42.90012" lon="2.20704">
        <ele>526.79004</ele>
        <time>2026-06-03T13:39:53.498409986Z</time>
      </trkpt>
      <trkpt lat="42.90013" lon="2.20706">
        <ele>526.91003</ele>
        <time>2026-06-03T13:39:54.398373008Z</time>
      </trkpt>
      <trkpt lat="42.90014" lon="2.20709">
        <ele>527.04004</ele>
        <time>2026-06-03T13:39:55.478103995Z</time>
      </trkpt>
      <trkpt lat="42.90016" lon="2.20712">
        <ele>527.15</ele>
        <time>2026-06-03T13:39:56.468554974Z</time>
      </trkpt>
      <trkpt lat="42.90017" lon="2.20714">
        <ele>527.26</ele>
        <time>2026-06-03T13:39:57.519052029Z</time>
      </trkpt>
      <trkpt lat="42.90018" lon="2.20716">
        <ele>527.38</ele>
        <time>2026-06-03T13:39:58.508847952Z</time>
      </trkpt>
      <trkpt lat="42.9002" lon="2.20719">
        <ele>527.5</ele>
        <time>2026-06-03T13:39:59.498726010Z</time>
      </trkpt>
      <trkpt lat="42.90021" lon="2.20722">
        <ele>527.62</ele>
        <time>2026-06-03T13:40:00.487784982Z</time>
      </trkpt>
      <trkpt lat="42.90022" lon="2.20724">
        <ele>527.74</ele>
        <time>2026-06-03T13:40:01.464241982Z</time>
      </trkpt>
      <trkpt lat="42.90023" lon="2.20726">
        <ele>527.85</ele>
        <time>2026-06-03T13:40:02.378437042Z</time>
      </trkpt>
      <trkpt lat="42.90024" lon="2.20728">
        <ele>527.95996</ele>
        <time>2026-06-03T13:40:03.487661958Z</time>
      </trkpt>
      <trkpt lat="42.90025" lon="2.20731">
        <ele>528.07</ele>
        <time>2026-06-03T13:40:04.508069038Z</time>
      </trkpt>
      <trkpt lat="42.90026" lon="2.20733">
        <ele>528.16003</ele>
        <time>2026-06-03T13:40:05.396245956Z</time>
      </trkpt>
      <trkpt lat="42.90027" lon="2.20736">
        <ele>528.16003</ele>
        <time>2026-06-03T13:40:06.371826053Z</time>
      </trkpt>
      <trkpt lat="42.90029" lon="2.20738">
        <ele>528.35</ele>
        <time>2026-06-03T13:40:07.477875948Z</time>
      </trkpt>
      <trkpt lat="42.9003" lon="2.2074">
        <ele>528.43</ele>
        <time>2026-06-03T13:40:08.378852010Z</time>
      </trkpt>
      <trkpt lat="42.90031" lon="2.20742">
        <ele>528.51</ele>
        <time>2026-06-03T13:40:09.488471985Z</time>
      </trkpt>
      <trkpt lat="42.90031" lon="2.20745">
        <ele>528.58997</ele>
        <time>2026-06-03T13:40:10.477700949Z</time>
      </trkpt>
      <trkpt lat="42.90032" lon="2.20747">
        <ele>528.66003</ele>
        <time>2026-06-03T13:40:11.498772979Z</time>
      </trkpt>
      <trkpt lat="42.90033" lon="2.2075">
        <ele>528.72</ele>
        <time>2026-06-03T13:40:12.422860026Z</time>
      </trkpt>
      <trkpt lat="42.90033" lon="2.20752">
        <ele>528.79004</ele>
        <time>2026-06-03T13:40:13.478940010Z</time>
      </trkpt>
      <trkpt lat="42.90034" lon="2.20755">
        <ele>528.85</ele>
        <time>2026-06-03T13:40:14.498996973Z</time>
      </trkpt>
      <trkpt lat="42.90035" lon="2.20757">
        <ele>529</ele>
        <time>2026-06-03T13:40:15.410050035Z</time>
      </trkpt>
      <trkpt lat="42.90036" lon="2.20759">
        <ele>529.15</ele>
        <time>2026-06-03T13:40:16.470057964Z</time>
      </trkpt>
      <trkpt lat="42.90037" lon="2.20761">
        <ele>529.31</ele>
        <time>2026-06-03T13:40:17.498921990Z</time>
      </trkpt>
      <trkpt lat="42.90039" lon="2.20764">
        <ele>529.45996</ele>
        <time>2026-06-03T13:40:18.488854051Z</time>
      </trkpt>
      <trkpt lat="42.9004" lon="2.20766">
        <ele>529.62</ele>
        <time>2026-06-03T13:40:19.419172049Z</time>
      </trkpt>
      <trkpt lat="42.90041" lon="2.20768">
        <ele>529.79004</ele>
        <time>2026-06-03T13:40:20.498260975Z</time>
      </trkpt>
      <trkpt lat="42.90042" lon="2.2077">
        <ele>529.95</ele>
        <time>2026-06-03T13:40:21.476220012Z</time>
      </trkpt>
      <trkpt lat="42.90043" lon="2.20772">
        <ele>530.11</ele>
        <time>2026-06-03T13:40:22.508334994Z</time>
      </trkpt>
      <trkpt lat="42.90045" lon="2.20775">
        <ele>530.26</ele>
        <time>2026-06-03T13:40:23.418871999Z</time>
      </trkpt>
      <trkpt lat="42.90046" lon="2.20777">
        <ele>530.41003</ele>
        <time>2026-06-03T13:40:24.458788037Z</time>
      </trkpt>
      <trkpt lat="42.90047" lon="2.20779">
        <ele>530.54004</ele>
        <time>2026-06-03T13:40:25.478793979Z</time>
      </trkpt>
      <trkpt lat="42.90049" lon="2.20781">
        <ele>530.67004</ele>
        <time>2026-06-03T13:40:26.471516013Z</time>
      </trkpt>
      <trkpt lat="42.90051" lon="2.20783">
        <ele>530.81</ele>
        <time>2026-06-03T13:40:27.489173055Z</time>
      </trkpt>
      <trkpt lat="42.90052" lon="2.20786">
        <ele>530.94</ele>
        <time>2026-06-03T13:40:28.509001970Z</time>
      </trkpt>
      <trkpt lat="42.90053" lon="2.20787">
        <ele>531.07</ele>
        <time>2026-06-03T13:40:29.499308944Z</time>
      </trkpt>
      <trkpt lat="42.90055" lon="2.20789">
        <ele>531.19</ele>
        <time>2026-06-03T13:40:30.415267944Z</time>
      </trkpt>
      <trkpt lat="42.90057" lon="2.20791">
        <ele>531.3</ele>
        <time>2026-06-03T13:40:31.479112029Z</time>
      </trkpt>
      <trkpt lat="42.90058" lon="2.20792">
        <ele>531.39</ele>
        <time>2026-06-03T13:40:32.499369979Z</time>
      </trkpt>
      <trkpt lat="42.9006" lon="2.20794">
        <ele>531.47</ele>
        <time>2026-06-03T13:40:33.519633055Z</time>
      </trkpt>
      <trkpt lat="42.90061" lon="2.20796">
        <ele>531.55</ele>
        <time>2026-06-03T13:40:34.448606968Z</time>
      </trkpt>
      <trkpt lat="42.90062" lon="2.20797">
        <ele>531.63</ele>
        <time>2026-06-03T13:40:35.470983028Z</time>
      </trkpt>
      <trkpt lat="42.90063" lon="2.208">
        <ele>531.70996</ele>
        <time>2026-06-03T13:40:36.489307046Z</time>
      </trkpt>
      <trkpt lat="42.90064" lon="2.20802">
        <ele>531.8</ele>
        <time>2026-06-03T13:40:37.420292020Z</time>
      </trkpt>
      <trkpt lat="42.90065" lon="2.20804">
        <ele>531.9</ele>
        <time>2026-06-03T13:40:38.469110966Z</time>
      </trkpt>
      <trkpt lat="42.90066" lon="2.20807">
        <ele>532.01</ele>
        <time>2026-06-03T13:40:39.489388943Z</time>
      </trkpt>
      <trkpt lat="42.90067" lon="2.2081">
        <ele>532.1</ele>
        <time>2026-06-03T13:40:40.479511976Z</time>
      </trkpt>
      <trkpt lat="42.90068" lon="2.20812">
        <ele>532.19</ele>
        <time>2026-06-03T13:40:41.499289036Z</time>
      </trkpt>
      <trkpt lat="42.90068" lon="2.20815">
        <ele>532.28</ele>
        <time>2026-06-03T13:40:42.488813996Z</time>
      </trkpt>
      <trkpt lat="42.90069" lon="2.20818">
        <ele>532.36</ele>
        <time>2026-06-03T13:40:43.508715987Z</time>
      </trkpt>
      <trkpt lat="42.9007" lon="2.2082">
        <ele>532.45</ele>
        <time>2026-06-03T13:40:44.499338031Z</time>
      </trkpt>
      <trkpt lat="42.90071" lon="2.20822">
        <ele>532.53</ele>
        <time>2026-06-03T13:40:45.417794943Z</time>
      </trkpt>
      <trkpt lat="42.90071" lon="2.20825">
        <ele>532.6</ele>
        <time>2026-06-03T13:40:46.389299035Z</time>
      </trkpt>
      <trkpt lat="42.90072" lon="2.20827">
        <ele>532.67004</ele>
        <time>2026-06-03T13:40:47.468773007Z</time>
      </trkpt>
      <trkpt lat="42.90073" lon="2.2083">
        <ele>532.73</ele>
        <time>2026-06-03T13:40:48.488461018Z</time>
      </trkpt>
      <trkpt lat="42.90074" lon="2.20832">
        <ele>532.79004</ele>
        <time>2026-06-03T13:40:49.388654947Z</time>
      </trkpt>
      <trkpt lat="42.90075" lon="2.20834">
        <ele>532.86</ele>
        <time>2026-06-03T13:40:50.499565959Z</time>
      </trkpt>
      <trkpt lat="42.90076" lon="2.20837">
        <ele>532.93</ele>
        <time>2026-06-03T13:40:51.489621997Z</time>
      </trkpt>
      <trkpt lat="42.90078" lon="2.20839">
        <ele>533.02</ele>
        <time>2026-06-03T13:40:52.479462981Z</time>
      </trkpt>
      <trkpt lat="42.90079" lon="2.20841">
        <ele>533.11</ele>
        <time>2026-06-03T13:40:53.471883059Z</time>
      </trkpt>
      <trkpt lat="42.90081" lon="2.20842">
        <ele>533.20996</ele>
        <time>2026-06-03T13:40:54.488916039Z</time>
      </trkpt>
      <trkpt lat="42.90083" lon="2.20844">
        <ele>533.3</ele>
        <time>2026-06-03T13:40:55.510303020Z</time>
      </trkpt>
      <trkpt lat="42.90084" lon="2.20846">
        <ele>533.3</ele>
        <time>2026-06-03T13:40:56.379642010Z</time>
      </trkpt>
      <trkpt lat="42.90086" lon="2.20847">
        <ele>533.51</ele>
        <time>2026-06-03T13:40:57.459499002Z</time>
      </trkpt>
      <trkpt lat="42.90088" lon="2.20849">
        <ele>533.6</ele>
        <time>2026-06-03T13:40:58.479817033Z</time>
      </trkpt>
      <trkpt lat="42.90089" lon="2.20851">
        <ele>533.6</ele>
        <time>2026-06-03T13:40:59.440086007Z</time>
      </trkpt>
      <trkpt lat="42.90091" lon="2.20852">
        <ele>533.76</ele>
        <time>2026-06-03T13:41:00.407750964Z</time>
      </trkpt>
      <trkpt lat="42.90093" lon="2.20853">
        <ele>533.82</ele>
        <time>2026-06-03T13:41:01.389245987Z</time>
      </trkpt>
      <trkpt lat="42.90094" lon="2.20854">
        <ele>533.89</ele>
        <time>2026-06-03T13:41:02.500071049Z</time>
      </trkpt>
      <trkpt lat="42.90096" lon="2.20854">
        <ele>533.89</ele>
        <time>2026-06-03T13:41:03.373520970Z</time>
      </trkpt>
      <trkpt lat="42.90098" lon="2.20855">
        <ele>534.06</ele>
        <time>2026-06-03T13:41:04.451334953Z</time>
      </trkpt>
      <trkpt lat="42.901" lon="2.20855">
        <ele>534.06</ele>
        <time>2026-06-03T13:41:05.409682989Z</time>
      </trkpt>
      <trkpt lat="42.90101" lon="2.20855">
        <ele>534.28</ele>
        <time>2026-06-03T13:41:06.461724043Z</time>
      </trkpt>
      <trkpt lat="42.90103" lon="2.20856">
        <ele>534.4</ele>
        <time>2026-06-03T13:41:07.449787021Z</time>
      </trkpt>
      <trkpt lat="42.90105" lon="2.20856">
        <ele>534.53</ele>
        <time>2026-06-03T13:41:08.471784949Z</time>
      </trkpt>
      <trkpt lat="42.90107" lon="2.20857">
        <ele>534.67004</ele>
        <time>2026-06-03T13:41:09.490160942Z</time>
      </trkpt>
      <trkpt lat="42.90108" lon="2.20859">
        <ele>534.79004</ele>
        <time>2026-06-03T13:41:10.451688051Z</time>
      </trkpt>
      <trkpt lat="42.90111" lon="2.20861">
        <ele>534.92004</ele>
        <time>2026-06-03T13:41:11.469725013Z</time>
      </trkpt>
      <trkpt lat="42.90113" lon="2.20863">
        <ele>535.06</ele>
        <time>2026-06-03T13:41:12.429947019Z</time>
      </trkpt>
      <trkpt lat="42.90115" lon="2.20865">
        <ele>535.19</ele>
        <time>2026-06-03T13:41:13.480036974Z</time>
      </trkpt>
      <trkpt lat="42.90116" lon="2.20867">
        <ele>535.32</ele>
        <time>2026-06-03T13:41:14.470365047Z</time>
      </trkpt>
      <trkpt lat="42.90118" lon="2.20869">
        <ele>535.44</ele>
        <time>2026-06-03T13:41:15.439524055Z</time>
      </trkpt>
      <trkpt lat="42.9012" lon="2.20871">
        <ele>535.55</ele>
        <time>2026-06-03T13:41:16.419952989Z</time>
      </trkpt>
      <trkpt lat="42.90121" lon="2.20873">
        <ele>535.65</ele>
        <time>2026-06-03T13:41:17.439126968Z</time>
      </trkpt>
      <trkpt lat="42.90123" lon="2.20875">
        <ele>535.75</ele>
        <time>2026-06-03T13:41:18.411324978Z</time>
      </trkpt>
      <trkpt lat="42.90124" lon="2.20877">
        <ele>535.83997</ele>
        <time>2026-06-03T13:41:19.449893951Z</time>
      </trkpt>
      <trkpt lat="42.90126" lon="2.20879">
        <ele>535.94</ele>
        <time>2026-06-03T13:41:20.439278960Z</time>
      </trkpt>
      <trkpt lat="42.90128" lon="2.20882">
        <ele>536.05</ele>
        <time>2026-06-03T13:41:21.490300059Z</time>
      </trkpt>
      <trkpt lat="42.90129" lon="2.20884">
        <ele>536.16003</ele>
        <time>2026-06-03T13:41:22.479691982Z</time>
      </trkpt>
      <trkpt lat="42.9013" lon="2.20886">
        <ele>536.29004</ele>
        <time>2026-06-03T13:41:23.500553012Z</time>
      </trkpt>
      <trkpt lat="42.90131" lon="2.20889">
        <ele>536.43</ele>
        <time>2026-06-03T13:41:24.461647987Z</time>
      </trkpt>
      <trkpt lat="42.90131" lon="2.20892">
        <ele>536.54004</ele>
        <time>2026-06-03T13:41:25.451838970Z</time>
      </trkpt>
      <trkpt lat="42.90131" lon="2.20895">
        <ele>536.65</ele>
        <time>2026-06-03T13:41:26.470448971Z</time>
      </trkpt>
      <trkpt lat="42.90132" lon="2.20897">
        <ele>536.74</ele>
        <time>2026-06-03T13:41:27.489326954Z</time>
      </trkpt>
      <trkpt lat="42.90133" lon="2.209">
        <ele>536.83997</ele>
        <time>2026-06-03T13:41:28.479307055Z</time>
      </trkpt>
      <trkpt lat="42.90133" lon="2.20903">
        <ele>536.92004</ele>
        <time>2026-06-03T13:41:29.386837959Z</time>
      </trkpt>
      <trkpt lat="42.90134" lon="2.20905">
        <ele>537.01</ele>
        <time>2026-06-03T13:41:30.455487013Z</time>
      </trkpt>
      <trkpt lat="42.90135" lon="2.20907">
        <ele>537.1</ele>
        <time>2026-06-03T13:41:31.510107040Z</time>
      </trkpt>
      <trkpt lat="42.90136" lon="2.20909">
        <ele>537.19</ele>
        <time>2026-06-03T13:41:32.500313044Z</time>
      </trkpt>
      <trkpt lat="42.90136" lon="2.20912">
        <ele>537.28</ele>
        <time>2026-06-03T13:41:33.490110040Z</time>
      </trkpt>
      <trkpt lat="42.90137" lon="2.20914">
        <ele>537.36</ele>
        <time>2026-06-03T13:41:34.479333043Z</time>
      </trkpt>
      <trkpt lat="42.90139" lon="2.20917">
        <ele>537.44</ele>
        <time>2026-06-03T13:41:35.499871016Z</time>
      </trkpt>
      <trkpt lat="42.90139" lon="2.20919">
        <ele>537.52</ele>
        <time>2026-06-03T13:41:36.490314960Z</time>
      </trkpt>
      <trkpt lat="42.90141" lon="2.20921">
        <ele>537.62</ele>
        <time>2026-06-03T13:41:37.480162024Z</time>
      </trkpt>
      <trkpt lat="42.90142" lon="2.20923">
        <ele>537.74</ele>
        <time>2026-06-03T13:41:38.470185041Z</time>
      </trkpt>
      <trkpt lat="42.90144" lon="2.20925">
        <ele>537.88</ele>
        <time>2026-06-03T13:41:39.490159035Z</time>
      </trkpt>
      <trkpt lat="42.90145" lon="2.20928">
        <ele>538.01</ele>
        <time>2026-06-03T13:41:40.479882956Z</time>
      </trkpt>
      <trkpt lat="42.90146" lon="2.2093">
        <ele>538.16003</ele>
        <time>2026-06-03T13:41:41.500087976Z</time>
      </trkpt>
      <trkpt lat="42.90147" lon="2.20933">
        <ele>538.32996</ele>
        <time>2026-06-03T13:41:42.490066051Z</time>
      </trkpt>
      <trkpt lat="42.90147" lon="2.20936">
        <ele>538.48</ele>
        <time>2026-06-03T13:41:43.479745030Z</time>
      </trkpt>
      <trkpt lat="42.90147" lon="2.20939">
        <ele>538.62</ele>
        <time>2026-06-03T13:41:44.387171984Z</time>
      </trkpt>
      <trkpt lat="42.90147" lon="2.20942">
        <ele>538.74</ele>
        <time>2026-06-03T13:41:45.461071968Z</time>
      </trkpt>
      <trkpt lat="42.90147" lon="2.20945">
        <ele>538.82996</ele>
        <time>2026-06-03T13:41:46.390066981Z</time>
      </trkpt>
      <trkpt lat="42.90147" lon="2.20948">
        <ele>538.88</ele>
        <time>2026-06-03T13:41:47.499981999Z</time>
      </trkpt>
      <trkpt lat="42.90146" lon="2.20951">
        <ele>538.91003</ele>
        <time>2026-06-03T13:41:48.489992976Z</time>
      </trkpt>
      <trkpt lat="42.90146" lon="2.20954">
        <ele>538.91003</ele>
        <time>2026-06-03T13:41:49.480499029Z</time>
      </trkpt>
      <trkpt lat="42.90146" lon="2.20957">
        <ele>538.9</ele>
        <time>2026-06-03T13:41:50.470710039Z</time>
      </trkpt>
      <trkpt lat="42.90145" lon="2.2096">
        <ele>538.88</ele>
        <time>2026-06-03T13:41:51.461997986Z</time>
      </trkpt>
      <trkpt lat="42.90145" lon="2.20963">
        <ele>538.85</ele>
        <time>2026-06-03T13:41:52.510087967Z</time>
      </trkpt>
      <trkpt lat="42.90145" lon="2.20966">
        <ele>538.82</ele>
        <time>2026-06-03T13:41:53.499387980Z</time>
      </trkpt>
      <trkpt lat="42.90146" lon="2.20969">
        <ele>538.8</ele>
        <time>2026-06-03T13:41:54.490136981Z</time>
      </trkpt>
      <trkpt lat="42.90146" lon="2.20971">
        <ele>538.78</ele>
        <time>2026-06-03T13:41:55.480169058Z</time>
      </trkpt>
      <trkpt lat="42.90146" lon="2.20974">
        <ele>538.76</ele>
        <time>2026-06-03T13:41:56.470685959Z</time>
      </trkpt>
      <trkpt lat="42.90146" lon="2.20977">
        <ele>538.74</ele>
        <time>2026-06-03T13:41:57.490702987Z</time>
      </trkpt>
      <trkpt lat="42.90146" lon="2.2098">
        <ele>538.73</ele>
        <time>2026-06-03T13:41:58.480080009Z</time>
      </trkpt>
      <trkpt lat="42.90146" lon="2.20983">
        <ele>538.73</ele>
        <time>2026-06-03T13:41:59.403089046Z</time>
      </trkpt>
      <trkpt lat="42.90147" lon="2.20986">
        <ele>538.73</ele>
        <time>2026-06-03T13:42:00.407171011Z</time>
      </trkpt>
      <trkpt lat="42.90147" lon="2.20989">
        <ele>538.74</ele>
        <time>2026-06-03T13:42:01.420282960Z</time>
      </trkpt>
      <trkpt lat="42.90147" lon="2.20992">
        <ele>538.76</ele>
        <time>2026-06-03T13:42:02.470757961Z</time>
      </trkpt>
      <trkpt lat="42.90148" lon="2.20995">
        <ele>538.8</ele>
        <time>2026-06-03T13:42:03.490658045Z</time>
      </trkpt>
      <trkpt lat="42.90149" lon="2.20998">
        <ele>538.83997</ele>
        <time>2026-06-03T13:42:04.480564952Z</time>
      </trkpt>
      <trkpt lat="42.90149" lon="2.21001">
        <ele>538.89</ele>
        <time>2026-06-03T13:42:05.441058993Z</time>
      </trkpt>
      <trkpt lat="42.9015" lon="2.21003">
        <ele>538.92004</ele>
        <time>2026-06-03T13:42:06.461763978Z</time>
      </trkpt>
      <trkpt lat="42.90151" lon="2.21005">
        <ele>538.95</ele>
        <time>2026-06-03T13:42:07.480566978Z</time>
      </trkpt>
      <trkpt lat="42.90152" lon="2.21007">
        <ele>538.98</ele>
        <time>2026-06-03T13:42:08.440173030Z</time>
      </trkpt>
      <trkpt lat="42.90153" lon="2.21009">
        <ele>539</ele>
        <time>2026-06-03T13:42:09.489843011Z</time>
      </trkpt>
      <trkpt lat="42.90154" lon="2.21011">
        <ele>539.03</ele>
        <time>2026-06-03T13:42:10.480811Z</time>
      </trkpt>
      <trkpt lat="42.90155" lon="2.21013">
        <ele>539.07</ele>
        <time>2026-06-03T13:42:11.470824003Z</time>
      </trkpt>
      <trkpt lat="42.90157" lon="2.21014">
        <ele>539.12</ele>
        <time>2026-06-03T13:42:12.490836024Z</time>
      </trkpt>
      <trkpt lat="42.90158" lon="2.21016">
        <ele>539.19</ele>
        <time>2026-06-03T13:42:13.480435967Z</time>
      </trkpt>
      <trkpt lat="42.90159" lon="2.21018">
        <ele>539.19</ele>
        <time>2026-06-03T13:42:14.408841968Z</time>
      </trkpt>
      <trkpt lat="42.90159" lon="2.21023">
        <ele>539.17004</ele>
        <time>2026-06-03T13:42:16.480618954Z</time>
      </trkpt>
      <trkpt lat="42.90159" lon="2.21025">
        <ele>539.14</ele>
        <time>2026-06-03T13:42:17.470646024Z</time>
      </trkpt>
      <trkpt lat="42.90158" lon="2.21027">
        <ele>539.13</ele>
        <time>2026-06-03T13:42:18.490625024Z</time>
      </trkpt>
      <trkpt lat="42.90158" lon="2.21029">
        <ele>539.13</ele>
        <time>2026-06-03T13:42:19.480574965Z</time>
      </trkpt>
      <trkpt lat="42.90157" lon="2.21032">
        <ele>539.13</ele>
        <time>2026-06-03T13:42:20.421998978Z</time>
      </trkpt>
      <trkpt lat="42.90157" lon="2.21034">
        <ele>539.15</ele>
        <time>2026-06-03T13:42:21.417160988Z</time>
      </trkpt>
      <trkpt lat="42.90156" lon="2.21036">
        <ele>539.15</ele>
        <time>2026-06-03T13:42:22.367689967Z</time>
      </trkpt>
      <trkpt lat="42.90154" lon="2.21039">
        <ele>539.16003</ele>
        <time>2026-06-03T13:42:23.471043944Z</time>
      </trkpt>
      <trkpt lat="42.90153" lon="2.21042">
        <ele>539.16003</ele>
        <time>2026-06-03T13:42:24.460806012Z</time>
      </trkpt>
      <trkpt lat="42.90152" lon="2.21045">
        <ele>539.14</ele>
        <time>2026-06-03T13:42:25.496325016Z</time>
      </trkpt>
      <trkpt lat="42.90151" lon="2.21048">
        <ele>539.11</ele>
        <time>2026-06-03T13:42:26.500967026Z</time>
      </trkpt>
      <trkpt lat="42.90149" lon="2.2105">
        <ele>539.07996</ele>
        <time>2026-06-03T13:42:27.383445978Z</time>
      </trkpt>
      <trkpt lat="42.90149" lon="2.21053">
        <ele>539.05</ele>
        <time>2026-06-03T13:42:28.480967045Z</time>
      </trkpt>
      <trkpt lat="42.90147" lon="2.21055">
        <ele>539.03</ele>
        <time>2026-06-03T13:42:29.424641013Z</time>
      </trkpt>
      <trkpt lat="42.90147" lon="2.21058">
        <ele>539.01</ele>
        <time>2026-06-03T13:42:30.462839961Z</time>
      </trkpt>
      <trkpt lat="42.90145" lon="2.21061">
        <ele>539.01</ele>
        <time>2026-06-03T13:42:31.390918016Z</time>
      </trkpt>
      <trkpt lat="42.90144" lon="2.21063">
        <ele>539.01</ele>
        <time>2026-06-03T13:42:32.393671036Z</time>
      </trkpt>
      <trkpt lat="42.90144" lon="2.21066">
        <ele>539.01</ele>
        <time>2026-06-03T13:42:33.391522050Z</time>
      </trkpt>
      <trkpt lat="42.90143" lon="2.21068">
        <ele>539.01</ele>
        <time>2026-06-03T13:42:34.392940998Z</time>
      </trkpt>
      <trkpt lat="42.90142" lon="2.21071">
        <ele>539</ele>
        <time>2026-06-03T13:42:35.472375989Z</time>
      </trkpt>
      <trkpt lat="42.90142" lon="2.21073">
        <ele>538.98</ele>
        <time>2026-06-03T13:42:36.431296945Z</time>
      </trkpt>
      <trkpt lat="42.90143" lon="2.21076">
        <ele>538.95</ele>
        <time>2026-06-03T13:42:37.484089971Z</time>
      </trkpt>
      <trkpt lat="42.90143" lon="2.21079">
        <ele>538.91003</ele>
        <time>2026-06-03T13:42:38.472020030Z</time>
      </trkpt>
      <trkpt lat="42.90144" lon="2.21083">
        <ele>538.88</ele>
        <time>2026-06-03T13:42:39.431218982Z</time>
      </trkpt>
      <trkpt lat="42.90145" lon="2.21086">
        <ele>538.83997</ele>
        <time>2026-06-03T13:42:40.480344057Z</time>
      </trkpt>
      <trkpt lat="42.90144" lon="2.21089">
        <ele>538.79004</ele>
        <time>2026-06-03T13:42:41.501080990Z</time>
      </trkpt>
      <trkpt lat="42.90145" lon="2.21094">
        <ele>538.74</ele>
        <time>2026-06-03T13:42:42.462262034Z</time>
      </trkpt>
      <trkpt lat="42.90145" lon="2.21098">
        <ele>538.7</ele>
        <time>2026-06-03T13:42:43.480461955Z</time>
      </trkpt>
      <trkpt lat="42.90148" lon="2.211">
        <ele>538.67004</ele>
        <time>2026-06-03T13:42:44.430487990Z</time>
      </trkpt>
      <trkpt lat="42.90148" lon="2.21104">
        <ele>538.64</ele>
        <time>2026-06-03T13:42:45.461145997Z</time>
      </trkpt>
      <trkpt lat="42.90149" lon="2.21107">
        <ele>538.63</ele>
        <time>2026-06-03T13:42:46.424852967Z</time>
      </trkpt>
      <trkpt lat="42.9015" lon="2.2111">
        <ele>538.62</ele>
        <time>2026-06-03T13:42:47.502007961Z</time>
      </trkpt>
      <trkpt lat="42.90151" lon="2.21113">
        <ele>538.63</ele>
        <time>2026-06-03T13:42:48.491045952Z</time>
      </trkpt>
      <trkpt lat="42.90152" lon="2.21116">
        <ele>538.64</ele>
        <time>2026-06-03T13:42:49.480579972Z</time>
      </trkpt>
      <trkpt lat="42.90153" lon="2.21119">
        <ele>538.66003</ele>
        <time>2026-06-03T13:42:50.470607996Z</time>
      </trkpt>
      <trkpt lat="42.90155" lon="2.21122">
        <ele>538.67004</ele>
        <time>2026-06-03T13:42:51.462829947Z</time>
      </trkpt>
      <trkpt lat="42.90156" lon="2.21125">
        <ele>538.69</ele>
        <time>2026-06-03T13:42:52.483770967Z</time>
      </trkpt>
      <trkpt lat="42.90157" lon="2.21128">
        <ele>538.7</ele>
        <time>2026-06-03T13:42:53.471593022Z</time>
      </trkpt>
      <trkpt lat="42.90159" lon="2.2113">
        <ele>538.70996</ele>
        <time>2026-06-03T13:42:54.460999012Z</time>
      </trkpt>
      <trkpt lat="42.90162" lon="2.21131">
        <ele>538.7</ele>
        <time>2026-06-03T13:42:55.481498003Z</time>
      </trkpt>
      <trkpt lat="42.90163" lon="2.21132">
        <ele>538.68</ele>
        <time>2026-06-03T13:42:56.501212955Z</time>
      </trkpt>
      <trkpt lat="42.90165" lon="2.21133">
        <ele>538.66003</ele>
        <time>2026-06-03T13:42:57.491680980Z</time>
      </trkpt>
      <trkpt lat="42.90165" lon="2.21136">
        <ele>538.64</ele>
        <time>2026-06-03T13:42:58.424561977Z</time>
      </trkpt>
      <trkpt lat="42.90165" lon="2.21138">
        <ele>538.62</ele>
        <time>2026-06-03T13:42:59.446321964Z</time>
      </trkpt>
      <trkpt lat="42.90165" lon="2.21142">
        <ele>538.6</ele>
        <time>2026-06-03T13:43:00.464017034Z</time>
      </trkpt>
      <trkpt lat="42.90164" lon="2.21145">
        <ele>538.57996</ele>
        <time>2026-06-03T13:43:01.481803060Z</time>
      </trkpt>
      <trkpt lat="42.90163" lon="2.21148">
        <ele>538.57996</ele>
        <time>2026-06-03T13:43:02.501935005Z</time>
      </trkpt>
      <trkpt lat="42.90163" lon="2.21156">
        <ele>538.58997</ele>
        <time>2026-06-03T13:43:04.481274962Z</time>
      </trkpt>
      <trkpt lat="42.90162" lon="2.21159">
        <ele>538.61</ele>
        <time>2026-06-03T13:43:05.470913053Z</time>
      </trkpt>
      <trkpt lat="42.90162" lon="2.21162">
        <ele>538.61</ele>
        <time>2026-06-03T13:43:06.433210015Z</time>
      </trkpt>
      <trkpt lat="42.90161" lon="2.21165">
        <ele>538.61</ele>
        <time>2026-06-03T13:43:07.424059033Z</time>
      </trkpt>
      <trkpt lat="42.9016" lon="2.2117">
        <ele>538.61</ele>
        <time>2026-06-03T13:43:08.500962019Z</time>
      </trkpt>
      <trkpt lat="42.90159" lon="2.21174">
        <ele>538.6</ele>
        <time>2026-06-03T13:43:09.492014050Z</time>
      </trkpt>
      <trkpt lat="42.90158" lon="2.21178">
        <ele>538.57996</ele>
        <time>2026-06-03T13:43:10.481668949Z</time>
      </trkpt>
      <trkpt lat="42.90157" lon="2.21183">
        <ele>538.53</ele>
        <time>2026-06-03T13:43:11.471464992Z</time>
      </trkpt>
      <trkpt lat="42.90156" lon="2.21186">
        <ele>538.47</ele>
        <time>2026-06-03T13:43:12.462013960Z</time>
      </trkpt>
      <trkpt lat="42.90156" lon="2.21188">
        <ele>538.41003</ele>
        <time>2026-06-03T13:43:13.451750040Z</time>
      </trkpt>
      <trkpt lat="42.90155" lon="2.21192">
        <ele>538.35</ele>
        <time>2026-06-03T13:43:14.452157021Z</time>
      </trkpt>
      <trkpt lat="42.90154" lon="2.21196">
        <ele>538.17004</ele>
        <time>2026-06-03T13:43:15.491651058Z</time>
      </trkpt>
      <trkpt lat="42.90154" lon="2.21198">
        <ele>538.02</ele>
        <time>2026-06-03T13:43:16.452201962Z</time>
      </trkpt>
      <trkpt lat="42.90153" lon="2.21202">
        <ele>537.9</ele>
        <time>2026-06-03T13:43:17.472103953Z</time>
      </trkpt>
      <trkpt lat="42.90152" lon="2.21206">
        <ele>537.8</ele>
        <time>2026-06-03T13:43:18.491994977Z</time>
      </trkpt>
      <trkpt lat="42.90152" lon="2.21209">
        <ele>537.72</ele>
        <time>2026-06-03T13:43:19.482151985Z</time>
      </trkpt>
      <trkpt lat="42.90151" lon="2.21213">
        <ele>537.65</ele>
        <time>2026-06-03T13:43:20.471930027Z</time>
      </trkpt>
      <trkpt lat="42.9015" lon="2.21216">
        <ele>537.58997</ele>
        <time>2026-06-03T13:43:21.462383032Z</time>
      </trkpt>
      <trkpt lat="42.90149" lon="2.21219">
        <ele>537.54004</ele>
        <time>2026-06-03T13:43:22.482138038Z</time>
      </trkpt>
      <trkpt lat="42.90148" lon="2.21222">
        <ele>537.48</ele>
        <time>2026-06-03T13:43:23.471753001Z</time>
      </trkpt>
      <trkpt lat="42.90147" lon="2.21225">
        <ele>537.43</ele>
        <time>2026-06-03T13:43:24.462386966Z</time>
      </trkpt>
      <trkpt lat="42.90146" lon="2.21228">
        <ele>537.39</ele>
        <time>2026-06-03T13:43:25.481289983Z</time>
      </trkpt>
      <trkpt lat="42.90144" lon="2.21231">
        <ele>537.33997</ele>
        <time>2026-06-03T13:43:26.551313043Z</time>
      </trkpt>
      <trkpt lat="42.90141" lon="2.21235">
        <ele>537.3</ele>
        <time>2026-06-03T13:43:27.462066054Z</time>
      </trkpt>
      <trkpt lat="42.90138" lon="2.21238">
        <ele>537.25</ele>
        <time>2026-06-03T13:43:28.481153011Z</time>
      </trkpt>
      <trkpt lat="42.90136" lon="2.21241">
        <ele>537.19</ele>
        <time>2026-06-03T13:43:29.467975974Z</time>
      </trkpt>
      <trkpt lat="42.90134" lon="2.21243">
        <ele>537.12</ele>
        <time>2026-06-03T13:43:30.491956949Z</time>
      </trkpt>
      <trkpt lat="42.90133" lon="2.21245">
        <ele>537.05</ele>
        <time>2026-06-03T13:43:31.482646942Z</time>
      </trkpt>
      <trkpt lat="42.90131" lon="2.21248">
        <ele>536.99</ele>
        <time>2026-06-03T13:43:32.472558975Z</time>
      </trkpt>
      <trkpt lat="42.90129" lon="2.2125">
        <ele>536.94</ele>
        <time>2026-06-03T13:43:33.462545037Z</time>
      </trkpt>
      <trkpt lat="42.90128" lon="2.21253">
        <ele>536.91003</ele>
        <time>2026-06-03T13:43:34.452306986Z</time>
      </trkpt>
      <trkpt lat="42.90127" lon="2.21255">
        <ele>536.9</ele>
        <time>2026-06-03T13:43:35.502534986Z</time>
      </trkpt>
      <trkpt lat="42.90126" lon="2.21258">
        <ele>536.91003</ele>
        <time>2026-06-03T13:43:36.492086053Z</time>
      </trkpt>
      <trkpt lat="42.90125" lon="2.21261">
        <ele>536.93</ele>
        <time>2026-06-03T13:43:37.483067989Z</time>
      </trkpt>
      <trkpt lat="42.90123" lon="2.21264">
        <ele>536.95</ele>
        <time>2026-06-03T13:43:38.472259998Z</time>
      </trkpt>
      <trkpt lat="42.90122" lon="2.21267">
        <ele>536.99</ele>
        <time>2026-06-03T13:43:39.461704016Z</time>
      </trkpt>
      <trkpt lat="42.90121" lon="2.21269">
        <ele>537.03</ele>
        <time>2026-06-03T13:43:40.482509971Z</time>
      </trkpt>
      <trkpt lat="42.9012" lon="2.21273">
        <ele>537.08997</ele>
        <time>2026-06-03T13:43:41.502612948Z</time>
      </trkpt>
      <trkpt lat="42.90119" lon="2.21276">
        <ele>537.15</ele>
        <time>2026-06-03T13:43:42.492684007Z</time>
      </trkpt>
      <trkpt lat="42.90119" lon="2.2128">
        <ele>537.20996</ele>
        <time>2026-06-03T13:43:43.482579947Z</time>
      </trkpt>
      <trkpt lat="42.90118" lon="2.21283">
        <ele>537.27</ele>
        <time>2026-06-03T13:43:44.449218988Z</time>
      </trkpt>
      <trkpt lat="42.90118" lon="2.21286">
        <ele>537.35</ele>
        <time>2026-06-03T13:43:45.467259049Z</time>
      </trkpt>
      <trkpt lat="42.90118" lon="2.21288">
        <ele>537.44</ele>
        <time>2026-06-03T13:43:46.482522011Z</time>
      </trkpt>
      <trkpt lat="42.90117" lon="2.21291">
        <ele>537.54004</ele>
        <time>2026-06-03T13:43:47.472728014Z</time>
      </trkpt>
      <trkpt lat="42.90117" lon="2.21294">
        <ele>537.65</ele>
        <time>2026-06-03T13:43:48.462672949Z</time>
      </trkpt>
      <trkpt lat="42.90116" lon="2.21298">
        <ele>537.78</ele>
        <time>2026-06-03T13:43:49.482628942Z</time>
      </trkpt>
      <trkpt lat="42.90116" lon="2.213">
        <ele>537.95</ele>
        <time>2026-06-03T13:43:50.472705960Z</time>
      </trkpt>
      <trkpt lat="42.90116" lon="2.21303">
        <ele>538.14</ele>
        <time>2026-06-03T13:43:51.493381977Z</time>
      </trkpt>
      <trkpt lat="42.90115" lon="2.21306">
        <ele>538.37</ele>
        <time>2026-06-03T13:43:52.392673969Z</time>
      </trkpt>
      <trkpt lat="42.90115" lon="2.21309">
        <ele>538.57</ele>
        <time>2026-06-03T13:43:53.472655058Z</time>
      </trkpt>
      <trkpt lat="42.90115" lon="2.21312">
        <ele>538.81</ele>
        <time>2026-06-03T13:43:54.462648034Z</time>
      </trkpt>
      <trkpt lat="42.90115" lon="2.21315">
        <ele>539.08997</ele>
        <time>2026-06-03T13:43:55.454664946Z</time>
      </trkpt>
      <trkpt lat="42.90115" lon="2.21318">
        <ele>539.4</ele>
        <time>2026-06-03T13:43:56.502285957Z</time>
      </trkpt>
      <trkpt lat="42.90115" lon="2.21322">
        <ele>539.73</ele>
        <time>2026-06-03T13:43:57.491682053Z</time>
      </trkpt>
      <trkpt lat="42.90114" lon="2.21324">
        <ele>540.07</ele>
        <time>2026-06-03T13:43:58.415887952Z</time>
      </trkpt>
      <trkpt lat="42.90113" lon="2.21327">
        <ele>540.43</ele>
        <time>2026-06-03T13:43:59.473301053Z</time>
      </trkpt>
      <trkpt lat="42.90112" lon="2.2133">
        <ele>540.79004</ele>
        <time>2026-06-03T13:44:00.465209961Z</time>
      </trkpt>
      <trkpt lat="42.90111" lon="2.21331">
        <ele>541.16003</ele>
        <time>2026-06-03T13:44:01.482300043Z</time>
      </trkpt>
      <trkpt lat="42.90109" lon="2.21333">
        <ele>541.51</ele>
        <time>2026-06-03T13:44:02.444815993Z</time>
      </trkpt>
      <trkpt lat="42.90108" lon="2.21335">
        <ele>541.82</ele>
        <time>2026-06-03T13:44:03.402953982Z</time>
      </trkpt>
      <trkpt lat="42.90105" lon="2.21337">
        <ele>542.11</ele>
        <time>2026-06-03T13:44:04.404104948Z</time>
      </trkpt>
      <trkpt lat="42.90104" lon="2.21338">
        <ele>542.39</ele>
        <time>2026-06-03T13:44:05.472051024Z</time>
      </trkpt>
      <trkpt lat="42.90102" lon="2.21339">
        <ele>542.65</ele>
        <time>2026-06-03T13:44:06.462442994Z</time>
      </trkpt>
      <trkpt lat="42.901" lon="2.21341">
        <ele>542.92004</ele>
        <time>2026-06-03T13:44:07.377684951Z</time>
      </trkpt>
      <trkpt lat="42.90098" lon="2.21342">
        <ele>543.15</ele>
        <time>2026-06-03T13:44:08.473294973Z</time>
      </trkpt>
      <trkpt lat="42.90096" lon="2.21343">
        <ele>543.4</ele>
        <time>2026-06-03T13:44:09.493149996Z</time>
      </trkpt>
      <trkpt lat="42.90095" lon="2.21344">
        <ele>543.66003</ele>
        <time>2026-06-03T13:44:10.483201981Z</time>
      </trkpt>
      <trkpt lat="42.90092" lon="2.21345">
        <ele>543.92004</ele>
        <time>2026-06-03T13:44:11.408332944Z</time>
      </trkpt>
      <trkpt lat="42.90091" lon="2.21346">
        <ele>544.18</ele>
        <time>2026-06-03T13:44:12.463214040Z</time>
      </trkpt>
      <trkpt lat="42.90089" lon="2.21347">
        <ele>544.44</ele>
        <time>2026-06-03T13:44:13.455361962Z</time>
      </trkpt>
      <trkpt lat="42.90087" lon="2.21348">
        <ele>544.68</ele>
        <time>2026-06-03T13:44:14.473292947Z</time>
      </trkpt>
      <trkpt lat="42.90086" lon="2.21349">
        <ele>544.77</ele>
        <time>2026-06-03T13:44:15.433313966Z</time>
      </trkpt>
      <trkpt lat="42.90084" lon="2.2135">
        <ele>544.89</ele>
        <time>2026-06-03T13:44:16.395087957Z</time>
      </trkpt>
      <trkpt lat="42.90082" lon="2.21352">
        <ele>545.02</ele>
        <time>2026-06-03T13:44:17.474076033Z</time>
      </trkpt>
      <trkpt lat="42.90081" lon="2.21354">
        <ele>545.17004</ele>
        <time>2026-06-03T13:44:18.464771032Z</time>
      </trkpt>
      <trkpt lat="42.90076" lon="2.21356">
        <ele>545.53</ele>
        <time>2026-06-03T13:44:20.473034024Z</time>
      </trkpt>
      <trkpt lat="42.90075" lon="2.21357">
        <ele>545.72</ele>
        <time>2026-06-03T13:44:21.493487954Z</time>
      </trkpt>
      <trkpt lat="42.90074" lon="2.21358">
        <ele>545.91003</ele>
        <time>2026-06-03T13:44:22.483623028Z</time>
      </trkpt>
      <trkpt lat="42.90073" lon="2.21358">
        <ele>545.91003</ele>
        <time>2026-06-03T13:44:23.443326950Z</time>
      </trkpt>
      <trkpt lat="42.90071" lon="2.21359">
        <ele>546.25</ele>
        <time>2026-06-03T13:44:24.465456963Z</time>
      </trkpt>
      <trkpt lat="42.90069" lon="2.2136">
        <ele>546.44</ele>
        <time>2026-06-03T13:44:25.483464956Z</time>
      </trkpt>
      <trkpt lat="42.90067" lon="2.21362">
        <ele>546.64</ele>
        <time>2026-06-03T13:44:26.473595977Z</time>
      </trkpt>
      <trkpt lat="42.90065" lon="2.21362">
        <ele>546.83997</ele>
        <time>2026-06-03T13:44:27.465778947Z</time>
      </trkpt>
      <trkpt lat="42.90062" lon="2.21363">
        <ele>547.04004</ele>
        <time>2026-06-03T13:44:28.447476983Z</time>
      </trkpt>
      <trkpt lat="42.90061" lon="2.21363">
        <ele>547.23</ele>
        <time>2026-06-03T13:44:29.445394039Z</time>
      </trkpt>
      <trkpt lat="42.90059" lon="2.21364">
        <ele>547.42004</ele>
        <time>2026-06-03T13:44:30.465499997Z</time>
      </trkpt>
      <trkpt lat="42.90057" lon="2.21364">
        <ele>547.58997</ele>
        <time>2026-06-03T13:44:31.423900008Z</time>
      </trkpt>
      <trkpt lat="42.90054" lon="2.21364">
        <ele>547.75</ele>
        <time>2026-06-03T13:44:32.472993016Z</time>
      </trkpt>
      <trkpt lat="42.90052" lon="2.21365">
        <ele>547.9</ele>
        <time>2026-06-03T13:44:33.465881944Z</time>
      </trkpt>
      <trkpt lat="42.90049" lon="2.21365">
        <ele>548.06</ele>
        <time>2026-06-03T13:44:34.455546975Z</time>
      </trkpt>
      <trkpt lat="42.90048" lon="2.21364">
        <ele>548.2</ele>
        <time>2026-06-03T13:44:35.473011971Z</time>
      </trkpt>
      <trkpt lat="42.90046" lon="2.21365">
        <ele>548.35</ele>
        <time>2026-06-03T13:44:36.493764043Z</time>
      </trkpt>
      <trkpt lat="42.90044" lon="2.21364">
        <ele>548.52</ele>
        <time>2026-06-03T13:44:37.377292037Z</time>
      </trkpt>
      <trkpt lat="42.90042" lon="2.21364">
        <ele>548.66003</ele>
        <time>2026-06-03T13:44:38.473857999Z</time>
      </trkpt>
      <trkpt lat="42.90041" lon="2.21363">
        <ele>548.81</ele>
        <time>2026-06-03T13:44:39.464143038Z</time>
      </trkpt>
      <trkpt lat="42.90039" lon="2.21362">
        <ele>548.81</ele>
        <time>2026-06-03T13:44:40.435039043Z</time>
      </trkpt>
      <trkpt lat="42.90037" lon="2.21362">
        <ele>549.14</ele>
        <time>2026-06-03T13:44:41.474032044Z</time>
      </trkpt>
      <trkpt lat="42.90035" lon="2.21362">
        <ele>549.31</ele>
        <time>2026-06-03T13:44:42.463870049Z</time>
      </trkpt>
      <trkpt lat="42.90033" lon="2.21362">
        <ele>549.48</ele>
        <time>2026-06-03T13:44:43.452710032Z</time>
      </trkpt>
      <trkpt lat="42.90032" lon="2.21364">
        <ele>549.65</ele>
        <time>2026-06-03T13:44:44.450521946Z</time>
      </trkpt>
      <trkpt lat="42.9003" lon="2.21365">
        <ele>549.82</ele>
        <time>2026-06-03T13:44:45.464148998Z</time>
      </trkpt>
      <trkpt lat="42.90028" lon="2.21367">
        <ele>550</ele>
        <time>2026-06-03T13:44:46.483921051Z</time>
      </trkpt>
      <trkpt lat="42.90026" lon="2.21368">
        <ele>550.19</ele>
        <time>2026-06-03T13:44:47.473355055Z</time>
      </trkpt>
      <trkpt lat="42.90023" lon="2.21369">
        <ele>550.38</ele>
        <time>2026-06-03T13:44:48.463063955Z</time>
      </trkpt>
      <trkpt lat="42.90021" lon="2.21371">
        <ele>550.58997</ele>
        <time>2026-06-03T13:44:49.482835054Z</time>
      </trkpt>
      <trkpt lat="42.90019" lon="2.21371">
        <ele>550.82996</ele>
        <time>2026-06-03T13:44:50.474511981Z</time>
      </trkpt>
      <trkpt lat="42.90017" lon="2.21372">
        <ele>551.07996</ele>
        <time>2026-06-03T13:44:51.463546038Z</time>
      </trkpt>
      <trkpt lat="42.90015" lon="2.21372">
        <ele>551.38</ele>
        <time>2026-06-03T13:44:52.455736995Z</time>
      </trkpt>
      <trkpt lat="42.90013" lon="2.21372">
        <ele>551.63</ele>
        <time>2026-06-03T13:44:53.474081039Z</time>
      </trkpt>
      <trkpt lat="42.90012" lon="2.21371">
        <ele>551.9</ele>
        <time>2026-06-03T13:44:54.494171023Z</time>
      </trkpt>
      <trkpt lat="42.9001" lon="2.21369">
        <ele>552.2</ele>
        <time>2026-06-03T13:44:55.484032035Z</time>
      </trkpt>
      <trkpt lat="42.90007" lon="2.21366">
        <ele>552.82</ele>
        <time>2026-06-03T13:44:57.463425040Z</time>
      </trkpt>
      <trkpt lat="42.90008" lon="2.21359">
        <ele>552.82</ele>
        <time>2026-06-03T13:45:40.633460999Z</time>
      </trkpt>
      <trkpt lat="42.90005" lon="2.21358">
        <ele>555.63</ele>
        <time>2026-06-03T13:45:42.523244977Z</time>
      </trkpt>
      <trkpt lat="42.90004" lon="2.21358">
        <ele>555.63</ele>
        <time>2026-06-03T13:45:43.543449044Z</time>
      </trkpt>
      <trkpt lat="42.90001" lon="2.21357">
        <ele>555.82</ele>
        <time>2026-06-03T13:45:45.613381982Z</time>
      </trkpt>
      <trkpt lat="42.89999" lon="2.21357">
        <ele>555.82</ele>
        <time>2026-06-03T13:45:46.393432021Z</time>
      </trkpt>
      <trkpt lat="42.89998" lon="2.21356">
        <ele>555.97</ele>
        <time>2026-06-03T13:45:47.533633947Z</time>
      </trkpt>
      <trkpt lat="42.89996" lon="2.21355">
        <ele>556.05</ele>
        <time>2026-06-03T13:45:48.423957944Z</time>
      </trkpt>
      <trkpt lat="42.89995" lon="2.21354">
        <ele>556.14</ele>
        <time>2026-06-03T13:45:49.498056054Z</time>
      </trkpt>
      <trkpt lat="42.89993" lon="2.21353">
        <ele>556.24</ele>
        <time>2026-06-03T13:45:50.572142005Z</time>
      </trkpt>
      <trkpt lat="42.89992" lon="2.21352">
        <ele>556.33997</ele>
        <time>2026-06-03T13:45:51.635987043Z</time>
      </trkpt>
      <trkpt lat="42.89988" lon="2.21348">
        <ele>556.43</ele>
        <time>2026-06-03T13:45:53.624518037Z</time>
      </trkpt>
      <trkpt lat="42.89986" lon="2.21347">
        <ele>556.45</ele>
        <time>2026-06-03T13:45:54.464264035Z</time>
      </trkpt>
      <trkpt lat="42.89985" lon="2.21346">
        <ele>556.47</ele>
        <time>2026-06-03T13:45:55.406939983Z</time>
      </trkpt>
      <trkpt lat="42.89983" lon="2.21345">
        <ele>556.51</ele>
        <time>2026-06-03T13:45:56.655128002Z</time>
      </trkpt>
      <trkpt lat="42.89981" lon="2.21343">
        <ele>556.57</ele>
        <time>2026-06-03T13:45:57.614299059Z</time>
      </trkpt>
      <trkpt lat="42.8998" lon="2.21342">
        <ele>556.63</ele>
        <time>2026-06-03T13:45:58.514353991Z</time>
      </trkpt>
      <trkpt lat="42.89978" lon="2.2134">
        <ele>556.69</ele>
        <time>2026-06-03T13:45:59.594437957Z</time>
      </trkpt>
      <trkpt lat="42.89976" lon="2.21339">
        <ele>556.76</ele>
        <time>2026-06-03T13:46:00.614573956Z</time>
      </trkpt>
      <trkpt lat="42.89974" lon="2.21337">
        <ele>556.83997</ele>
        <time>2026-06-03T13:46:01.424947023Z</time>
      </trkpt>
      <trkpt lat="42.89973" lon="2.21336">
        <ele>556.93</ele>
        <time>2026-06-03T13:46:02.366603971Z</time>
      </trkpt>
      <trkpt lat="42.89972" lon="2.21335">
        <ele>557.01</ele>
        <time>2026-06-03T13:46:03.430546999Z</time>
      </trkpt>
      <trkpt lat="42.8997" lon="2.21334">
        <ele>557.1</ele>
        <time>2026-06-03T13:46:04.425027013Z</time>
      </trkpt>
      <trkpt lat="42.89968" lon="2.21332">
        <ele>557.2</ele>
        <time>2026-06-03T13:46:05.578575969Z</time>
      </trkpt>
      <trkpt lat="42.89966" lon="2.21332">
        <ele>557.3</ele>
        <time>2026-06-03T13:46:06.645097971Z</time>
      </trkpt>
      <trkpt lat="42.89965" lon="2.21331">
        <ele>557.3</ele>
        <time>2026-06-03T13:46:07.372867942Z</time>
      </trkpt>
      <trkpt lat="42.89963" lon="2.2133">
        <ele>557.54004</ele>
        <time>2026-06-03T13:46:08.473611951Z</time>
      </trkpt>
      <trkpt lat="42.89961" lon="2.21331">
        <ele>557.67004</ele>
        <time>2026-06-03T13:46:09.493764997Z</time>
      </trkpt>
      <trkpt lat="42.89959" lon="2.2133">
        <ele>557.8</ele>
        <time>2026-06-03T13:46:10.513816953Z</time>
      </trkpt>
      <trkpt lat="42.89957" lon="2.21332">
        <ele>557.93</ele>
        <time>2026-06-03T13:46:11.536209941Z</time>
      </trkpt>
      <trkpt lat="42.89955" lon="2.21332">
        <ele>558.06</ele>
        <time>2026-06-03T13:46:12.555273056Z</time>
      </trkpt>
      <trkpt lat="42.89953" lon="2.21333">
        <ele>558.17004</ele>
        <time>2026-06-03T13:46:13.455314040Z</time>
      </trkpt>
      <trkpt lat="42.89951" lon="2.21333">
        <ele>558.3</ele>
        <time>2026-06-03T13:46:14.625157952Z</time>
      </trkpt>
      <trkpt lat="42.89949" lon="2.21333">
        <ele>558.43</ele>
        <time>2026-06-03T13:46:15.644793034Z</time>
      </trkpt>
      <trkpt lat="42.89947" lon="2.21334">
        <ele>558.57</ele>
        <time>2026-06-03T13:46:16.604812026Z</time>
      </trkpt>
      <trkpt lat="42.89945" lon="2.21334">
        <ele>558.73</ele>
        <time>2026-06-03T13:46:17.624505043Z</time>
      </trkpt>
      <trkpt lat="42.89943" lon="2.21335">
        <ele>558.9</ele>
        <time>2026-06-03T13:46:18.417474031Z</time>
      </trkpt>
      <trkpt lat="42.89941" lon="2.21336">
        <ele>559.07996</ele>
        <time>2026-06-03T13:46:19.520699978Z</time>
      </trkpt>
      <trkpt lat="42.89939" lon="2.21336">
        <ele>559.26</ele>
        <time>2026-06-03T13:46:20.418084979Z</time>
      </trkpt>
      <trkpt lat="42.89937" lon="2.21336">
        <ele>559.45</ele>
        <time>2026-06-03T13:46:21.554895997Z</time>
      </trkpt>
      <trkpt lat="42.89935" lon="2.21336">
        <ele>559.64</ele>
        <time>2026-06-03T13:46:22.454630971Z</time>
      </trkpt>
      <trkpt lat="42.89933" lon="2.21335">
        <ele>559.83997</ele>
        <time>2026-06-03T13:46:23.564674020Z</time>
      </trkpt>
      <trkpt lat="42.89931" lon="2.21335">
        <ele>560.05</ele>
        <time>2026-06-03T13:46:24.464691043Z</time>
      </trkpt>
      <trkpt lat="42.8993" lon="2.21335">
        <ele>560.26</ele>
        <time>2026-06-03T13:46:25.544724941Z</time>
      </trkpt>
      <trkpt lat="42.89927" lon="2.21334">
        <ele>560.49</ele>
        <time>2026-06-03T13:46:26.476917028Z</time>
      </trkpt>
      <trkpt lat="42.89926" lon="2.21334">
        <ele>560.72</ele>
        <time>2026-06-03T13:46:27.524873972Z</time>
      </trkpt>
      <trkpt lat="42.89924" lon="2.21333">
        <ele>560.92004</ele>
        <time>2026-06-03T13:46:28.368263006Z</time>
      </trkpt>
      <trkpt lat="42.89922" lon="2.21332">
        <ele>561.12</ele>
        <time>2026-06-03T13:46:29.476889968Z</time>
      </trkpt>
      <trkpt lat="42.8992" lon="2.21331">
        <ele>561.33997</ele>
        <time>2026-06-03T13:46:30.466377020Z</time>
      </trkpt>
      <trkpt lat="42.89918" lon="2.21331">
        <ele>561.55</ele>
        <time>2026-06-03T13:46:31.485026002Z</time>
      </trkpt>
      <trkpt lat="42.89916" lon="2.2133">
        <ele>561.77</ele>
        <time>2026-06-03T13:46:32.534490943Z</time>
      </trkpt>
      <trkpt lat="42.89914" lon="2.21329">
        <ele>561.99</ele>
        <time>2026-06-03T13:46:33.455942988Z</time>
      </trkpt>
      <trkpt lat="42.89912" lon="2.21328">
        <ele>562.20996</ele>
        <time>2026-06-03T13:46:34.485216022Z</time>
      </trkpt>
      <trkpt lat="42.89911" lon="2.21327">
        <ele>562.43</ele>
        <time>2026-06-03T13:46:35.445039988Z</time>
      </trkpt>
      <trkpt lat="42.89909" lon="2.21325">
        <ele>562.64</ele>
        <time>2026-06-03T13:46:36.554720044Z</time>
      </trkpt>
      <trkpt lat="42.89907" lon="2.21323">
        <ele>562.85</ele>
        <time>2026-06-03T13:46:37.574993968Z</time>
      </trkpt>
      <trkpt lat="42.89905" lon="2.21322">
        <ele>562.85</ele>
        <time>2026-06-03T13:46:38.387163043Z</time>
      </trkpt>
      <trkpt lat="42.89904" lon="2.2132">
        <ele>563.28</ele>
        <time>2026-06-03T13:46:39.418269038Z</time>
      </trkpt>
      <trkpt lat="42.89903" lon="2.21318">
        <ele>563.5</ele>
        <time>2026-06-03T13:46:40.365862012Z</time>
      </trkpt>
      <trkpt lat="42.89902" lon="2.21316">
        <ele>563.73</ele>
        <time>2026-06-03T13:46:41.625360966Z</time>
      </trkpt>
      <trkpt lat="42.89902" lon="2.21314">
        <ele>563.95996</ele>
        <time>2026-06-03T13:46:42.585180998Z</time>
      </trkpt>
      <trkpt lat="42.89901" lon="2.2131">
        <ele>564.15</ele>
        <time>2026-06-03T13:46:43.635442972Z</time>
      </trkpt>
      <trkpt lat="42.899" lon="2.21307">
        <ele>564.36</ele>
        <time>2026-06-03T13:46:44.655071974Z</time>
      </trkpt>
      <trkpt lat="42.89899" lon="2.21304">
        <ele>564.57</ele>
        <time>2026-06-03T13:46:45.524422050Z</time>
      </trkpt>
      <trkpt lat="42.89899" lon="2.21301">
        <ele>564.79004</ele>
        <time>2026-06-03T13:46:46.515131950Z</time>
      </trkpt>
      <trkpt lat="42.89898" lon="2.21299">
        <ele>565</ele>
        <time>2026-06-03T13:46:47.394837022Z</time>
      </trkpt>
      <trkpt lat="42.89897" lon="2.21297">
        <ele>565.22</ele>
        <time>2026-06-03T13:46:48.468773961Z</time>
      </trkpt>
      <trkpt lat="42.89895" lon="2.21295">
        <ele>565.44</ele>
        <time>2026-06-03T13:46:49.542770028Z</time>
      </trkpt>
      <trkpt lat="42.89894" lon="2.21292">
        <ele>565.66003</ele>
        <time>2026-06-03T13:46:50.606814981Z</time>
      </trkpt>
      <trkpt lat="42.89892" lon="2.21291">
        <ele>565.87</ele>
        <time>2026-06-03T13:46:51.644978046Z</time>
      </trkpt>
      <trkpt lat="42.8989" lon="2.21289">
        <ele>566.08997</ele>
        <time>2026-06-03T13:46:52.514678955Z</time>
      </trkpt>
      <trkpt lat="42.89885" lon="2.21287">
        <ele>566.8</ele>
        <time>2026-06-03T13:46:54.524914026Z</time>
      </trkpt>
      <trkpt lat="42.89884" lon="2.21287">
        <ele>567.13</ele>
        <time>2026-06-03T13:46:55.605077028Z</time>
      </trkpt>
      <trkpt lat="42.89883" lon="2.21286">
        <ele>567.43</ele>
        <time>2026-06-03T13:46:56.626103044Z</time>
      </trkpt>
      <trkpt lat="42.89878" lon="2.21284">
        <ele>567.93</ele>
        <time>2026-06-03T13:46:58.394541025Z</time>
      </trkpt>
      <trkpt lat="42.89877" lon="2.21283">
        <ele>568.16003</ele>
        <time>2026-06-03T13:46:59.358029962Z</time>
      </trkpt>
      <trkpt lat="42.89875" lon="2.21282">
        <ele>568.37</ele>
        <time>2026-06-03T13:47:00.584965944Z</time>
      </trkpt>
      <trkpt lat="42.89874" lon="2.21281">
        <ele>568.56</ele>
        <time>2026-06-03T13:47:01.394469023Z</time>
      </trkpt>
      <trkpt lat="42.89871" lon="2.21279">
        <ele>568.75</ele>
        <time>2026-06-03T13:47:02.400676966Z</time>
      </trkpt>
      <trkpt lat="42.89869" lon="2.21278">
        <ele>568.94</ele>
        <time>2026-06-03T13:47:03.474683046Z</time>
      </trkpt>
      <trkpt lat="42.89867" lon="2.21277">
        <ele>569.13</ele>
        <time>2026-06-03T13:47:04.425451994Z</time>
      </trkpt>
      <trkpt lat="42.89865" lon="2.21276">
        <ele>569.31</ele>
        <time>2026-06-03T13:47:05.425832033Z</time>
      </trkpt>
      <trkpt lat="42.89864" lon="2.21275">
        <ele>569.51</ele>
        <time>2026-06-03T13:47:06.615640998Z</time>
      </trkpt>
      <trkpt lat="42.89862" lon="2.21273">
        <ele>569.70996</ele>
        <time>2026-06-03T13:47:07.395331979Z</time>
      </trkpt>
      <trkpt lat="42.89859" lon="2.21272">
        <ele>569.91003</ele>
        <time>2026-06-03T13:47:08.625349045Z</time>
      </trkpt>
      <trkpt lat="42.89857" lon="2.21271">
        <ele>570.13</ele>
        <time>2026-06-03T13:47:09.435392022Z</time>
      </trkpt>
      <trkpt lat="42.89856" lon="2.2127">
        <ele>570.35</ele>
        <time>2026-06-03T13:47:10.635766983Z</time>
      </trkpt>
      <trkpt lat="42.89853" lon="2.21269">
        <ele>570.57996</ele>
        <time>2026-06-03T13:47:11.415516973Z</time>
      </trkpt>
      <trkpt lat="42.89851" lon="2.21268">
        <ele>570.78</ele>
        <time>2026-06-03T13:47:12.615996003Z</time>
      </trkpt>
      <trkpt lat="42.89849" lon="2.21268">
        <ele>570.99</ele>
        <time>2026-06-03T13:47:13.575634956Z</time>
      </trkpt>
      <trkpt lat="42.89847" lon="2.21268">
        <ele>571.19</ele>
        <time>2026-06-03T13:47:14.535483003Z</time>
      </trkpt>
      <trkpt lat="42.89843" lon="2.21268">
        <ele>571.6</ele>
        <time>2026-06-03T13:47:16.635933042Z</time>
      </trkpt>
      <trkpt lat="42.89841" lon="2.21268">
        <ele>571.81</ele>
        <time>2026-06-03T13:47:17.420604944Z</time>
      </trkpt>
      <trkpt lat="42.8984" lon="2.21268">
        <ele>572</ele>
        <time>2026-06-03T13:47:18.490718961Z</time>
      </trkpt>
      <trkpt lat="42.89838" lon="2.21268">
        <ele>572.2</ele>
        <time>2026-06-03T13:47:19.545776010Z</time>
      </trkpt>
      <trkpt lat="42.89833" lon="2.21269">
        <ele>572.57996</ele>
        <time>2026-06-03T13:47:21.467805982Z</time>
      </trkpt>
      <trkpt lat="42.89832" lon="2.2127">
        <ele>572.78</ele>
        <time>2026-06-03T13:47:22.455523968Z</time>
      </trkpt>
      <trkpt lat="42.89831" lon="2.2127">
        <ele>572.78</ele>
        <time>2026-06-03T13:47:23.535895944Z</time>
      </trkpt>
      <trkpt lat="42.89829" lon="2.21271">
        <ele>573.17004</ele>
        <time>2026-06-03T13:47:24.375795007Z</time>
      </trkpt>
      <trkpt lat="42.89828" lon="2.21271">
        <ele>573.36</ele>
        <time>2026-06-03T13:47:25.606148958Z</time>
      </trkpt>
      <trkpt lat="42.89825" lon="2.21272">
        <ele>573.56</ele>
        <time>2026-06-03T13:47:26.656057954Z</time>
      </trkpt>
      <trkpt lat="42.89824" lon="2.21272">
        <ele>573.73</ele>
        <time>2026-06-03T13:47:27.465662003Z</time>
      </trkpt>
      <trkpt lat="42.89822" lon="2.21273">
        <ele>573.9</ele>
        <time>2026-06-03T13:47:28.636126041Z</time>
      </trkpt>
      <trkpt lat="42.8982" lon="2.21273">
        <ele>574.07996</ele>
        <time>2026-06-03T13:47:29.355432034Z</time>
      </trkpt>
      <trkpt lat="42.89818" lon="2.21274">
        <ele>574.26</ele>
        <time>2026-06-03T13:47:30.435212970Z</time>
      </trkpt>
      <trkpt lat="42.89816" lon="2.21274">
        <ele>574.44</ele>
        <time>2026-06-03T13:47:31.348603010Z</time>
      </trkpt>
      <trkpt lat="42.89814" lon="2.21275">
        <ele>574.63</ele>
        <time>2026-06-03T13:47:32.416265965Z</time>
      </trkpt>
      <trkpt lat="42.89812" lon="2.21275">
        <ele>574.82</ele>
        <time>2026-06-03T13:47:33.496639967Z</time>
      </trkpt>
      <trkpt lat="42.8981" lon="2.21276">
        <ele>575.01</ele>
        <time>2026-06-03T13:47:34.570665956Z</time>
      </trkpt>
      <trkpt lat="42.89809" lon="2.21276">
        <ele>575.2</ele>
        <time>2026-06-03T13:47:35.368808031Z</time>
      </trkpt>
      <trkpt lat="42.89806" lon="2.21277">
        <ele>575.39</ele>
        <time>2026-06-03T13:47:36.441467047Z</time>
      </trkpt>
      <trkpt lat="42.89804" lon="2.21279">
        <ele>575.57996</ele>
        <time>2026-06-03T13:47:37.636759996Z</time>
      </trkpt>
      <trkpt lat="42.89803" lon="2.21279">
        <ele>575.77</ele>
        <time>2026-06-03T13:47:38.478418946Z</time>
      </trkpt>
      <trkpt lat="42.89798" lon="2.21281">
        <ele>576.16003</ele>
        <time>2026-06-03T13:47:40.516358018Z</time>
      </trkpt>
      <trkpt lat="42.89797" lon="2.21281">
        <ele>576.33997</ele>
        <time>2026-06-03T13:47:41.359331012Z</time>
      </trkpt>
      <trkpt lat="42.89796" lon="2.21281">
        <ele>576.5</ele>
        <time>2026-06-03T13:47:42.556823969Z</time>
      </trkpt>
      <trkpt lat="42.89793" lon="2.21282">
        <ele>576.66003</ele>
        <time>2026-06-03T13:47:43.370157957Z</time>
      </trkpt>
      <trkpt lat="42.89792" lon="2.21282">
        <ele>576.82</ele>
        <time>2026-06-03T13:47:44.363437057Z</time>
      </trkpt>
      <trkpt lat="42.8979" lon="2.21283">
        <ele>576.98</ele>
        <time>2026-06-03T13:47:45.435631990Z</time>
      </trkpt>
      <trkpt lat="42.89788" lon="2.21283">
        <ele>577.13</ele>
        <time>2026-06-03T13:47:46.375056982Z</time>
      </trkpt>
      <trkpt lat="42.89787" lon="2.21283">
        <ele>577.13</ele>
        <time>2026-06-03T13:47:47.415508032Z</time>
      </trkpt>
      <trkpt lat="42.89784" lon="2.21283">
        <ele>577.42004</ele>
        <time>2026-06-03T13:47:48.466385007Z</time>
      </trkpt>
      <trkpt lat="42.89782" lon="2.21283">
        <ele>577.56</ele>
        <time>2026-06-03T13:47:49.456819057Z</time>
      </trkpt>
      <trkpt lat="42.8978" lon="2.21283">
        <ele>577.7</ele>
        <time>2026-06-03T13:47:50.415879965Z</time>
      </trkpt>
      <trkpt lat="42.89779" lon="2.21283">
        <ele>577.83997</ele>
        <time>2026-06-03T13:47:51.615988016Z</time>
      </trkpt>
      <trkpt lat="42.89777" lon="2.21283">
        <ele>577.99</ele>
        <time>2026-06-03T13:47:52.447466016Z</time>
      </trkpt>
      <trkpt lat="42.89774" lon="2.21283">
        <ele>578.29004</ele>
        <time>2026-06-03T13:47:53.369258046Z</time>
      </trkpt>
      <trkpt lat="42.89773" lon="2.21283">
        <ele>578.57</ele>
        <time>2026-06-03T13:47:54.586781025Z</time>
      </trkpt>
      <trkpt lat="42.89771" lon="2.21282">
        <ele>578.82996</ele>
        <time>2026-06-03T13:47:55.516628027Z</time>
      </trkpt>
      <trkpt lat="42.89769" lon="2.21281">
        <ele>579.07996</ele>
        <time>2026-06-03T13:47:56.627105951Z</time>
      </trkpt>
      <trkpt lat="42.89767" lon="2.2128">
        <ele>579.3</ele>
        <time>2026-06-03T13:47:57.412353992Z</time>
      </trkpt>
      <trkpt lat="42.89766" lon="2.21278">
        <ele>579.5</ele>
        <time>2026-06-03T13:47:58.388267040Z</time>
      </trkpt>
      <trkpt lat="42.89764" lon="2.21276">
        <ele>579.69</ele>
        <time>2026-06-03T13:47:59.427245975Z</time>
      </trkpt>
      <trkpt lat="42.89763" lon="2.21274">
        <ele>579.87</ele>
        <time>2026-06-03T13:48:00.406751990Z</time>
      </trkpt>
      <trkpt lat="42.89762" lon="2.21271">
        <ele>580.07</ele>
        <time>2026-06-03T13:48:01.375776052Z</time>
      </trkpt>
      <trkpt lat="42.89762" lon="2.21269">
        <ele>580.29004</ele>
        <time>2026-06-03T13:48:02.416695952Z</time>
      </trkpt>
      <trkpt lat="42.89762" lon="2.21267">
        <ele>580.56</ele>
        <time>2026-06-03T13:48:03.442044020Z</time>
      </trkpt>
      <trkpt lat="42.89762" lon="2.21264">
        <ele>580.86</ele>
        <time>2026-06-03T13:48:04.546671987Z</time>
      </trkpt>
      <trkpt lat="42.89763" lon="2.21261">
        <ele>581.2</ele>
        <time>2026-06-03T13:48:05.478670001Z</time>
      </trkpt>
      <trkpt lat="42.89763" lon="2.21259">
        <ele>581.57</ele>
        <time>2026-06-03T13:48:06.557690024Z</time>
      </trkpt>
      <trkpt lat="42.89764" lon="2.21257">
        <ele>581.93</ele>
        <time>2026-06-03T13:48:07.636798978Z</time>
      </trkpt>
      <trkpt lat="42.89766" lon="2.21252">
        <ele>582.58997</ele>
        <time>2026-06-03T13:48:09.376374960Z</time>
      </trkpt>
      <trkpt lat="42.89766" lon="2.21251">
        <ele>582.58997</ele>
        <time>2026-06-03T13:48:10.516515970Z</time>
      </trkpt>
      <trkpt lat="42.89766" lon="2.21249">
        <ele>583.15</ele>
        <time>2026-06-03T13:48:11.416980028Z</time>
      </trkpt>
      <trkpt lat="42.89766" lon="2.21246">
        <ele>583.37</ele>
        <time>2026-06-03T13:48:12.497038960Z</time>
      </trkpt>
      <trkpt lat="42.89767" lon="2.21243">
        <ele>583.57996</ele>
        <time>2026-06-03T13:48:13.368836999Z</time>
      </trkpt>
      <trkpt lat="42.89768" lon="2.21241">
        <ele>583.79004</ele>
        <time>2026-06-03T13:48:14.626719952Z</time>
      </trkpt>
      <trkpt lat="42.89769" lon="2.21237">
        <ele>584.01</ele>
        <time>2026-06-03T13:48:15.647014022Z</time>
      </trkpt>
      <trkpt lat="42.89769" lon="2.21235">
        <ele>584.23</ele>
        <time>2026-06-03T13:48:16.386867046Z</time>
      </trkpt>
      <trkpt lat="42.8977" lon="2.21232">
        <ele>584.47</ele>
        <time>2026-06-03T13:48:17.424231052Z</time>
      </trkpt>
      <trkpt lat="42.89771" lon="2.21229">
        <ele>584.75</ele>
        <time>2026-06-03T13:48:18.524775028Z</time>
      </trkpt>
      <trkpt lat="42.89771" lon="2.21225">
        <ele>585.07</ele>
        <time>2026-06-03T13:48:19.426736951Z</time>
      </trkpt>
      <trkpt lat="42.89771" lon="2.21223">
        <ele>585.42004</ele>
        <time>2026-06-03T13:48:20.416877985Z</time>
      </trkpt>
      <trkpt lat="42.89772" lon="2.2122">
        <ele>585.81</ele>
        <time>2026-06-03T13:48:21.406690001Z</time>
      </trkpt>
      <trkpt lat="42.89772" lon="2.21216">
        <ele>586.23</ele>
        <time>2026-06-03T13:48:22.606711984Z</time>
      </trkpt>
      <trkpt lat="42.89772" lon="2.21213">
        <ele>586.67004</ele>
        <time>2026-06-03T13:48:23.446745038Z</time>
      </trkpt>
      <trkpt lat="42.89772" lon="2.2121">
        <ele>587.11</ele>
        <time>2026-06-03T13:48:24.437029958Z</time>
      </trkpt>
      <trkpt lat="42.89772" lon="2.21208">
        <ele>587.57</ele>
        <time>2026-06-03T13:48:25.486515045Z</time>
      </trkpt>
      <trkpt lat="42.89772" lon="2.21205">
        <ele>587.95</ele>
        <time>2026-06-03T13:48:26.626935959Z</time>
      </trkpt>
      <trkpt lat="42.89772" lon="2.21202">
        <ele>588.35</ele>
        <time>2026-06-03T13:48:27.412695050Z</time>
      </trkpt>
      <trkpt lat="42.89772" lon="2.21199">
        <ele>588.75</ele>
        <time>2026-06-03T13:48:28.486693025Z</time>
      </trkpt>
      <trkpt lat="42.89772" lon="2.21195">
        <ele>589.17004</ele>
        <time>2026-06-03T13:48:29.387262940Z</time>
      </trkpt>
      <trkpt lat="42.89772" lon="2.21191">
        <ele>589.6</ele>
        <time>2026-06-03T13:48:30.616886020Z</time>
      </trkpt>
      <trkpt lat="42.89772" lon="2.21188">
        <ele>590.03</ele>
        <time>2026-06-03T13:48:31.397397995Z</time>
      </trkpt>
      <trkpt lat="42.89772" lon="2.21185">
        <ele>590.45</ele>
        <time>2026-06-03T13:48:32.466644049Z</time>
      </trkpt>
      <trkpt lat="42.89773" lon="2.21182">
        <ele>590.87</ele>
        <time>2026-06-03T13:48:33.376919031Z</time>
      </trkpt>
      <trkpt lat="42.89772" lon="2.21179">
        <ele>591.28</ele>
        <time>2026-06-03T13:48:34.426959038Z</time>
      </trkpt>
      <trkpt lat="42.89772" lon="2.21176">
        <ele>591.68</ele>
        <time>2026-06-03T13:48:35.596711993Z</time>
      </trkpt>
      <trkpt lat="42.89772" lon="2.21173">
        <ele>592.04004</ele>
        <time>2026-06-03T13:48:36.526759028Z</time>
      </trkpt>
      <trkpt lat="42.89771" lon="2.21171">
        <ele>592.38</ele>
        <time>2026-06-03T13:48:37.607293010Z</time>
      </trkpt>
      <trkpt lat="42.89771" lon="2.21167">
        <ele>592.70996</ele>
        <time>2026-06-03T13:48:38.391294956Z</time>
      </trkpt>
      <trkpt lat="42.89771" lon="2.21164">
        <ele>593</ele>
        <time>2026-06-03T13:48:39.556918979Z</time>
      </trkpt>
      <trkpt lat="42.89771" lon="2.21161">
        <ele>593.27</ele>
        <time>2026-06-03T13:48:40.408200026Z</time>
      </trkpt>
      <trkpt lat="42.89771" lon="2.21158">
        <ele>593.49</ele>
        <time>2026-06-03T13:48:41.387073994Z</time>
      </trkpt>
      <trkpt lat="42.89771" lon="2.21155">
        <ele>593.69</ele>
        <time>2026-06-03T13:48:42.466809988Z</time>
      </trkpt>
      <trkpt lat="42.89771" lon="2.21152">
        <ele>593.87</ele>
        <time>2026-06-03T13:48:43.556560993Z</time>
      </trkpt>
      <trkpt lat="42.89771" lon="2.21149">
        <ele>594.01</ele>
        <time>2026-06-03T13:48:44.596958995Z</time>
      </trkpt>
      <trkpt lat="42.89771" lon="2.21146">
        <ele>594.14</ele>
        <time>2026-06-03T13:48:45.556712985Z</time>
      </trkpt>
      <trkpt lat="42.8977" lon="2.21142">
        <ele>594.24</ele>
        <time>2026-06-03T13:48:46.459154010Z</time>
      </trkpt>
      <trkpt lat="42.8977" lon="2.21137">
        <ele>594.33</ele>
        <time>2026-06-03T13:48:47.472434044Z</time>
      </trkpt>
      <trkpt lat="42.8977" lon="2.21133">
        <ele>594.4</ele>
        <time>2026-06-03T13:48:48.526875019Z</time>
      </trkpt>
      <trkpt lat="42.8977" lon="2.21129">
        <ele>594.45</ele>
        <time>2026-06-03T13:48:49.370111942Z</time>
      </trkpt>
      <trkpt lat="42.8977" lon="2.21125">
        <ele>594.48</ele>
        <time>2026-06-03T13:48:50.626880050Z</time>
      </trkpt>
      <trkpt lat="42.8977" lon="2.21121">
        <ele>594.5</ele>
        <time>2026-06-03T13:48:51.616883039Z</time>
      </trkpt>
      <trkpt lat="42.8977" lon="2.21118">
        <ele>594.5</ele>
        <time>2026-06-03T13:48:52.368816018Z</time>
      </trkpt>
      <trkpt lat="42.89769" lon="2.21115">
        <ele>594.59</ele>
        <time>2026-06-03T13:48:53.626616001Z</time>
      </trkpt>
      <trkpt lat="42.89769" lon="2.21112">
        <ele>594.64</ele>
        <time>2026-06-03T13:48:54.616482019Z</time>
      </trkpt>
      <trkpt lat="42.89768" lon="2.21109">
        <ele>594.67</ele>
        <time>2026-06-03T13:48:55.407425046Z</time>
      </trkpt>
      <trkpt lat="42.89767" lon="2.21106">
        <ele>594.69</ele>
        <time>2026-06-03T13:48:56.373890996Z</time>
      </trkpt>
      <trkpt lat="42.89766" lon="2.21103">
        <ele>594.68</ele>
        <time>2026-06-03T13:48:57.376101971Z</time>
      </trkpt>
      <trkpt lat="42.89766" lon="2.211">
        <ele>594.64</ele>
        <time>2026-06-03T13:48:58.546406984Z</time>
      </trkpt>
      <trkpt lat="42.89766" lon="2.21097">
        <ele>594.59</ele>
        <time>2026-06-03T13:48:59.596776962Z</time>
      </trkpt>
      <trkpt lat="42.89766" lon="2.21094">
        <ele>594.5</ele>
        <time>2026-06-03T13:49:00.526648045Z</time>
      </trkpt>
      <trkpt lat="42.89766" lon="2.21091">
        <ele>594.4</ele>
        <time>2026-06-03T13:49:01.414500952Z</time>
      </trkpt>
      <trkpt lat="42.89766" lon="2.21088">
        <ele>594.27</ele>
        <time>2026-06-03T13:49:02.386893988Z</time>
      </trkpt>
      <trkpt lat="42.89766" lon="2.21086">
        <ele>594.09</ele>
        <time>2026-06-03T13:49:03.496379972Z</time>
      </trkpt>
      <trkpt lat="42.89766" lon="2.21084">
        <ele>593.89</ele>
        <time>2026-06-03T13:49:04.438668013Z</time>
      </trkpt>
      <trkpt lat="42.89766" lon="2.21079">
        <ele>593.66</ele>
        <time>2026-06-03T13:49:05.596482992Z</time>
      </trkpt>
      <trkpt lat="42.89766" lon="2.21074">
        <ele>593.39</ele>
        <time>2026-06-03T13:49:06.436506033Z</time>
      </trkpt>
      <trkpt lat="42.89765" lon="2.21071">
        <ele>593.09</ele>
        <time>2026-06-03T13:49:07.606848001Z</time>
      </trkpt>
      <trkpt lat="42.89765" lon="2.21068">
        <ele>593.09</ele>
        <time>2026-06-03T13:49:08.356498003Z</time>
      </trkpt>
      <trkpt lat="42.89766" lon="2.21065">
        <ele>592.39</ele>
        <time>2026-06-03T13:49:09.646707058Z</time>
      </trkpt>
      <trkpt lat="42.89766" lon="2.21062">
        <ele>591.99</ele>
        <time>2026-06-03T13:49:10.368234038Z</time>
      </trkpt>
      <trkpt lat="42.89767" lon="2.2106">
        <ele>591.65</ele>
        <time>2026-06-03T13:49:11.626958013Z</time>
      </trkpt>
      <trkpt lat="42.89769" lon="2.21057">
        <ele>591.27</ele>
        <time>2026-06-03T13:49:12.376809001Z</time>
      </trkpt>
      <trkpt lat="42.89769" lon="2.21053">
        <ele>590.86</ele>
        <time>2026-06-03T13:49:13.396929026Z</time>
      </trkpt>
      <trkpt lat="42.8977" lon="2.21049">
        <ele>590.44</ele>
        <time>2026-06-03T13:49:14.626984954Z</time>
      </trkpt>
      <trkpt lat="42.89771" lon="2.21046">
        <ele>590.03</ele>
        <time>2026-06-03T13:49:15.495898008Z</time>
      </trkpt>
      <trkpt lat="42.89772" lon="2.21042">
        <ele>589.61</ele>
        <time>2026-06-03T13:49:16.368489981Z</time>
      </trkpt>
      <trkpt lat="42.89773" lon="2.21039">
        <ele>589.2</ele>
        <time>2026-06-03T13:49:17.494204998Z</time>
      </trkpt>
      <trkpt lat="42.89774" lon="2.21035">
        <ele>588.82</ele>
        <time>2026-06-03T13:49:18.378010988Z</time>
      </trkpt>
      <trkpt lat="42.89775" lon="2.21031">
        <ele>588.45996</ele>
        <time>2026-06-03T13:49:19.366906047Z</time>
      </trkpt>
      <trkpt lat="42.89775" lon="2.21028">
        <ele>588.12</ele>
        <time>2026-06-03T13:49:20.567340970Z</time>
      </trkpt>
      <trkpt lat="42.89775" lon="2.21025">
        <ele>587.79004</ele>
        <time>2026-06-03T13:49:21.388757944Z</time>
      </trkpt>
      <trkpt lat="42.89776" lon="2.21022">
        <ele>587.45996</ele>
        <time>2026-06-03T13:49:22.397101998Z</time>
      </trkpt>
      <trkpt lat="42.89776" lon="2.21018">
        <ele>587.15</ele>
        <time>2026-06-03T13:49:23.566805959Z</time>
      </trkpt>
      <trkpt lat="42.89775" lon="2.21016">
        <ele>586.81</ele>
        <time>2026-06-03T13:49:24.617074013Z</time>
      </trkpt>
      <trkpt lat="42.89775" lon="2.21014">
        <ele>586.47</ele>
        <time>2026-06-03T13:49:25.607028961Z</time>
      </trkpt>
      <trkpt lat="42.89772" lon="2.21009">
        <ele>585.89</ele>
        <time>2026-06-03T13:49:27.376901984Z</time>
      </trkpt>
      <trkpt lat="42.89771" lon="2.21007">
        <ele>585.6</ele>
        <time>2026-06-03T13:49:28.404194951Z</time>
      </trkpt>
      <trkpt lat="42.89771" lon="2.21005">
        <ele>585.29004</ele>
        <time>2026-06-03T13:49:29.387115955Z</time>
      </trkpt>
      <trkpt lat="42.89769" lon="2.21004">
        <ele>584.94</ele>
        <time>2026-06-03T13:49:30.496917009Z</time>
      </trkpt>
      <trkpt lat="42.89768" lon="2.21003">
        <ele>584.94</ele>
        <time>2026-06-03T13:49:31.397137046Z</time>
      </trkpt>
      <trkpt lat="42.89767" lon="2.21001">
        <ele>584.16003</ele>
        <time>2026-06-03T13:49:32.510185957Z</time>
      </trkpt>
      <trkpt lat="42.89766" lon="2.20999">
        <ele>583.72</ele>
        <time>2026-06-03T13:49:33.377122998Z</time>
      </trkpt>
      <trkpt lat="42.89765" lon="2.20997">
        <ele>583.25</ele>
        <time>2026-06-03T13:49:34.379443049Z</time>
      </trkpt>
      <trkpt lat="42.89765" lon="2.20994">
        <ele>582.77</ele>
        <time>2026-06-03T13:49:35.627185941Z</time>
      </trkpt>
      <trkpt lat="42.89764" lon="2.20991">
        <ele>582.27</ele>
        <time>2026-06-03T13:49:36.407132983Z</time>
      </trkpt>
      <trkpt lat="42.89765" lon="2.20989">
        <ele>581.76</ele>
        <time>2026-06-03T13:49:37.403799057Z</time>
      </trkpt>
      <trkpt lat="42.89765" lon="2.20985">
        <ele>581.23</ele>
        <time>2026-06-03T13:49:38.597167969Z</time>
      </trkpt>
      <trkpt lat="42.89766" lon="2.20982">
        <ele>580.7</ele>
        <time>2026-06-03T13:49:39.587309957Z</time>
      </trkpt>
      <trkpt lat="42.89766" lon="2.2098">
        <ele>580.18</ele>
        <time>2026-06-03T13:49:40.416864038Z</time>
      </trkpt>
      <trkpt lat="42.89766" lon="2.20978">
        <ele>579.75</ele>
        <time>2026-06-03T13:49:41.400949001Z</time>
      </trkpt>
      <trkpt lat="42.89767" lon="2.20974">
        <ele>579.32</ele>
        <time>2026-06-03T13:49:42.497377992Z</time>
      </trkpt>
      <trkpt lat="42.89767" lon="2.20971">
        <ele>578.9</ele>
        <time>2026-06-03T13:49:43.368759990Z</time>
      </trkpt>
      <trkpt lat="42.89768" lon="2.20968">
        <ele>578.5</ele>
        <time>2026-06-03T13:49:44.627524972Z</time>
      </trkpt>
      <trkpt lat="42.89768" lon="2.20965">
        <ele>578.11</ele>
        <time>2026-06-03T13:49:45.527220964Z</time>
      </trkpt>
      <trkpt lat="42.89767" lon="2.20963">
        <ele>577.74</ele>
        <time>2026-06-03T13:49:46.414621949Z</time>
      </trkpt>
      <trkpt lat="42.89767" lon="2.2096">
        <ele>577.39</ele>
        <time>2026-06-03T13:49:47.387931943Z</time>
      </trkpt>
      <trkpt lat="42.89766" lon="2.20956">
        <ele>577.04004</ele>
        <time>2026-06-03T13:49:48.377506018Z</time>
      </trkpt>
      <trkpt lat="42.89766" lon="2.20952">
        <ele>576.68</ele>
        <time>2026-06-03T13:49:49.450595021Z</time>
      </trkpt>
      <trkpt lat="42.89766" lon="2.20949">
        <ele>576.31</ele>
        <time>2026-06-03T13:49:50.447520971Z</time>
      </trkpt>
      <trkpt lat="42.89766" lon="2.20946">
        <ele>575.93</ele>
        <time>2026-06-03T13:49:51.617421985Z</time>
      </trkpt>
      <trkpt lat="42.89765" lon="2.20941">
        <ele>575.51</ele>
        <time>2026-06-03T13:49:52.459437966Z</time>
      </trkpt>
      <trkpt lat="42.89766" lon="2.20936">
        <ele>575.07996</ele>
        <time>2026-06-03T13:49:53.597790956Z</time>
      </trkpt>
      <trkpt lat="42.89766" lon="2.20932">
        <ele>574.57996</ele>
        <time>2026-06-03T13:49:54.431539059Z</time>
      </trkpt>
      <trkpt lat="42.89766" lon="2.20928">
        <ele>574.06</ele>
        <time>2026-06-03T13:49:55.414201975Z</time>
      </trkpt>
      <trkpt lat="42.89766" lon="2.20924">
        <ele>573.62</ele>
        <time>2026-06-03T13:49:56.393579960Z</time>
      </trkpt>
      <trkpt lat="42.89766" lon="2.20921">
        <ele>573.16003</ele>
        <time>2026-06-03T13:49:57.617719054Z</time>
      </trkpt>
      <trkpt lat="42.89756" lon="2.20905">
        <ele>572.69</ele>
        <time>2026-06-03T13:50:44.420982957Z</time>
      </trkpt>
      <trkpt lat="42.89759" lon="2.20906">
        <ele>572.69</ele>
        <time>2026-06-03T13:50:45.407209039Z</time>
      </trkpt>
      <trkpt lat="42.89761" lon="2.20903">
        <ele>569.24</ele>
        <time>2026-06-03T13:50:48.406867027Z</time>
      </trkpt>
      <trkpt lat="42.89762" lon="2.20902">
        <ele>569.14</ele>
        <time>2026-06-03T13:50:49.907816052Z</time>
      </trkpt>
      <trkpt lat="42.89762" lon="2.209">
        <ele>569.05</ele>
        <time>2026-06-03T13:50:50.418172956Z</time>
      </trkpt>
      <trkpt lat="42.89762" lon="2.20897">
        <ele>568.94</ele>
        <time>2026-06-03T13:50:51.452059984Z</time>
      </trkpt>
      <trkpt lat="42.89763" lon="2.20893">
        <ele>568.82996</ele>
        <time>2026-06-03T13:50:52.426975012Z</time>
      </trkpt>
      <trkpt lat="42.89763" lon="2.20891">
        <ele>568.69</ele>
        <time>2026-06-03T13:50:53.447613955Z</time>
      </trkpt>
      <trkpt lat="42.89762" lon="2.20888">
        <ele>568.54004</ele>
        <time>2026-06-03T13:50:54.497746944Z</time>
      </trkpt>
      <trkpt lat="42.89762" lon="2.20886">
        <ele>568.35</ele>
        <time>2026-06-03T13:50:55.428472996Z</time>
      </trkpt>
      <trkpt lat="42.8976" lon="2.20881">
        <ele>567.95</ele>
        <time>2026-06-03T13:50:57.497853041Z</time>
      </trkpt>
      <trkpt lat="42.89759" lon="2.20879">
        <ele>567.77</ele>
        <time>2026-06-03T13:50:58.577715039Z</time>
      </trkpt>
      <trkpt lat="42.89758" lon="2.20876">
        <ele>567.57996</ele>
        <time>2026-06-03T13:50:59.388152003Z</time>
      </trkpt>
      <trkpt lat="42.89756" lon="2.20873">
        <ele>567.36</ele>
        <time>2026-06-03T13:51:00.412664056Z</time>
      </trkpt>
      <trkpt lat="42.89756" lon="2.2087">
        <ele>567.11</ele>
        <time>2026-06-03T13:51:01.397510052Z</time>
      </trkpt>
      <trkpt lat="42.89754" lon="2.20866">
        <ele>566.82996</ele>
        <time>2026-06-03T13:51:02.508147955Z</time>
      </trkpt>
      <trkpt lat="42.89754" lon="2.20863">
        <ele>566.5</ele>
        <time>2026-06-03T13:51:03.708354950Z</time>
      </trkpt>
      <trkpt lat="42.89755" lon="2.20861">
        <ele>566.14</ele>
        <time>2026-06-03T13:51:04.427464008Z</time>
      </trkpt>
      <trkpt lat="42.89755" lon="2.20856">
        <ele>565.75</ele>
        <time>2026-06-03T13:51:05.417698979Z</time>
      </trkpt>
      <trkpt lat="42.89755" lon="2.20852">
        <ele>565.35</ele>
        <time>2026-06-03T13:51:06.455314040Z</time>
      </trkpt>
      <trkpt lat="42.89755" lon="2.20848">
        <ele>564.95996</ele>
        <time>2026-06-03T13:51:07.397199988Z</time>
      </trkpt>
      <trkpt lat="42.89756" lon="2.20844">
        <ele>564.57</ele>
        <time>2026-06-03T13:51:08.477807999Z</time>
      </trkpt>
      <trkpt lat="42.89755" lon="2.2084">
        <ele>564.2</ele>
        <time>2026-06-03T13:51:09.407542944Z</time>
      </trkpt>
      <trkpt lat="42.89755" lon="2.20838">
        <ele>563.82996</ele>
        <time>2026-06-03T13:51:10.427495003Z</time>
      </trkpt>
      <trkpt lat="42.89754" lon="2.20835">
        <ele>563.44</ele>
        <time>2026-06-03T13:51:11.778522968Z</time>
      </trkpt>
      <trkpt lat="42.89753" lon="2.20831">
        <ele>563.05</ele>
        <time>2026-06-03T13:51:12.407688975Z</time>
      </trkpt>
      <trkpt lat="42.89752" lon="2.20828">
        <ele>562.67004</ele>
        <time>2026-06-03T13:51:13.427659988Z</time>
      </trkpt>
      <trkpt lat="42.89753" lon="2.2082">
        <ele>562.33997</ele>
        <time>2026-06-03T13:51:22.368145943Z</time>
      </trkpt>
      <trkpt lat="42.89753" lon="2.20819">
        <ele>560.01</ele>
        <time>2026-06-03T13:51:24.408774972Z</time>
      </trkpt>
      <trkpt lat="42.89753" lon="2.20817">
        <ele>560.01</ele>
        <time>2026-06-03T13:51:26.419087052Z</time>
      </trkpt>
      <trkpt lat="42.89751" lon="2.20815">
        <ele>559.64</ele>
        <time>2026-06-03T13:51:28.399114966Z</time>
      </trkpt>
      <trkpt lat="42.8975" lon="2.20812">
        <ele>559.48</ele>
        <time>2026-06-03T13:51:31.429111958Z</time>
      </trkpt>
      <trkpt lat="42.89748" lon="2.20809">
        <ele>558.95</ele>
        <time>2026-06-03T13:51:34.428333998Z</time>
      </trkpt>
      <trkpt lat="42.89748" lon="2.20808">
        <ele>558.95</ele>
        <time>2026-06-03T13:51:36.408275008Z</time>
      </trkpt>
      <trkpt lat="42.89745" lon="2.20802">
        <ele>558.52</ele>
        <time>2026-06-03T13:52:30.620020032Z</time>
      </trkpt>
      <trkpt lat="42.89738" lon="2.20802">
        <ele>557.01</ele>
        <time>2026-06-03T13:52:40.429080009Z</time>
      </trkpt>
      <trkpt lat="42.89737" lon="2.208">
        <ele>555.32996</ele>
        <time>2026-06-03T13:52:42.469632983Z</time>
      </trkpt>
      <trkpt lat="42.89736" lon="2.20799">
        <ele>555.32996</ele>
        <time>2026-06-03T13:52:44.355085015Z</time>
      </trkpt>
      <trkpt lat="42.89737" lon="2.20799">
        <ele>554.88</ele>
        <time>2026-06-03T13:52:50.393674016Z</time>
      </trkpt>
      <trkpt lat="42.89736" lon="2.20797">
        <ele>554.52</ele>
        <time>2026-06-03T13:52:51.442209959Z</time>
      </trkpt>
      <trkpt lat="42.89735" lon="2.20796">
        <ele>554.52</ele>
        <time>2026-06-03T13:52:52.398555040Z</time>
      </trkpt>
      <trkpt lat="42.89734" lon="2.20793">
        <ele>553.54004</ele>
        <time>2026-06-03T13:52:53.448438048Z</time>
      </trkpt>
      <trkpt lat="42.89732" lon="2.20791">
        <ele>553.35</ele>
        <time>2026-06-03T13:52:54.469388008Z</time>
      </trkpt>
      <trkpt lat="42.8973" lon="2.20788">
        <ele>553.12</ele>
        <time>2026-06-03T13:52:55.459990978Z</time>
      </trkpt>
      <trkpt lat="42.89729" lon="2.20786">
        <ele>552.78</ele>
        <time>2026-06-03T13:52:56.428092003Z</time>
      </trkpt>
      <trkpt lat="42.89727" lon="2.20784">
        <ele>552.49</ele>
        <time>2026-06-03T13:52:57.461508989Z</time>
      </trkpt>
      <trkpt lat="42.89726" lon="2.20782">
        <ele>552.2</ele>
        <time>2026-06-03T13:52:58.459687948Z</time>
      </trkpt>
      <trkpt lat="42.89724" lon="2.2078">
        <ele>551.82996</ele>
        <time>2026-06-03T13:52:59.389668941Z</time>
      </trkpt>
      <trkpt lat="42.89722" lon="2.20778">
        <ele>551.36</ele>
        <time>2026-06-03T13:53:00.471616983Z</time>
      </trkpt>
      <trkpt lat="42.89721" lon="2.20776">
        <ele>550.82996</ele>
        <time>2026-06-03T13:53:01.392493963Z</time>
      </trkpt>
      <trkpt lat="42.89719" lon="2.20774">
        <ele>550.27</ele>
        <time>2026-06-03T13:53:02.419929028Z</time>
      </trkpt>
      <trkpt lat="42.89717" lon="2.20773">
        <ele>549.68</ele>
        <time>2026-06-03T13:53:03.410151005Z</time>
      </trkpt>
      <trkpt lat="42.89716" lon="2.20771">
        <ele>549.68</ele>
        <time>2026-06-03T13:53:04.401119947Z</time>
      </trkpt>
      <trkpt lat="42.89715" lon="2.20769">
        <ele>548.42004</ele>
        <time>2026-06-03T13:53:14.479632974Z</time>
      </trkpt>
      <trkpt lat="42.89712" lon="2.20765">
        <ele>546.43</ele>
        <time>2026-06-03T13:53:17.449759960Z</time>
      </trkpt>
      <trkpt lat="42.89711" lon="2.20763">
        <ele>546.43</ele>
        <time>2026-06-03T13:53:19.459931970Z</time>
      </trkpt>
      <trkpt lat="42.8971" lon="2.20767">
        <ele>546.43</ele>
        <time>2026-06-03T13:53:25.459987998Z</time>
      </trkpt>
      <trkpt lat="42.89711" lon="2.20769">
        <ele>546.43</ele>
        <time>2026-06-03T13:53:31.369961023Z</time>
      </trkpt>
      <trkpt lat="42.8971" lon="2.20773">
        <ele>546.43</ele>
        <time>2026-06-03T13:53:33.471305966Z</time>
      </trkpt>
      <trkpt lat="42.89709" lon="2.20775">
        <ele>546.43</ele>
        <time>2026-06-03T13:53:34.462545037Z</time>
      </trkpt>
      <trkpt lat="42.89709" lon="2.20778">
        <ele>546.43</ele>
        <time>2026-06-03T13:53:35.480749011Z</time>
      </trkpt>
      <trkpt lat="42.89709" lon="2.20781">
        <ele>546.43</ele>
        <time>2026-06-03T13:53:36.471158981Z</time>
      </trkpt>
      <trkpt lat="42.89709" lon="2.20783">
        <ele>546.43</ele>
        <time>2026-06-03T13:53:37.459581017Z</time>
      </trkpt>
      <trkpt lat="42.89709" lon="2.20786">
        <ele>546.43</ele>
        <time>2026-06-03T13:53:38.450494051Z</time>
      </trkpt>
      <trkpt lat="42.89709" lon="2.2079">
        <ele>541.45996</ele>
        <time>2026-06-03T13:53:39.455571055Z</time>
      </trkpt>
      <trkpt lat="42.89709" lon="2.20793">
        <ele>541.43</ele>
        <time>2026-06-03T13:53:40.404844999Z</time>
      </trkpt>
      <trkpt lat="42.89708" lon="2.20796">
        <ele>541.4</ele>
        <time>2026-06-03T13:53:41.481125951Z</time>
      </trkpt>
      <trkpt lat="42.89708" lon="2.208">
        <ele>541.36</ele>
        <time>2026-06-03T13:53:42.451923966Z</time>
      </trkpt>
      <trkpt lat="42.89708" lon="2.20802">
        <ele>541.32996</ele>
        <time>2026-06-03T13:53:43.400985003Z</time>
      </trkpt>
      <trkpt lat="42.89708" lon="2.20806">
        <ele>541.3</ele>
        <time>2026-06-03T13:53:44.451315999Z</time>
      </trkpt>
      <trkpt lat="42.89708" lon="2.20809">
        <ele>541.27</ele>
        <time>2026-06-03T13:53:45.478688955Z</time>
      </trkpt>
      <trkpt lat="42.89708" lon="2.20812">
        <ele>541.23</ele>
        <time>2026-06-03T13:53:46.461009026Z</time>
      </trkpt>
      <trkpt lat="42.89707" lon="2.20816">
        <ele>541.2</ele>
        <time>2026-06-03T13:53:47.450634956Z</time>
      </trkpt>
      <trkpt lat="42.89707" lon="2.2082">
        <ele>541.16003</ele>
        <time>2026-06-03T13:53:48.457085013Z</time>
      </trkpt>
      <trkpt lat="42.89706" lon="2.20823">
        <ele>541.02</ele>
        <time>2026-06-03T13:53:49.462749004Z</time>
      </trkpt>
      <trkpt lat="42.89706" lon="2.20827">
        <ele>540.88</ele>
        <time>2026-06-03T13:53:50.451619983Z</time>
      </trkpt>
      <trkpt lat="42.89705" lon="2.2083">
        <ele>540.75</ele>
        <time>2026-06-03T13:53:51.471678019Z</time>
      </trkpt>
      <trkpt lat="42.89705" lon="2.20832">
        <ele>540.62</ele>
        <time>2026-06-03T13:53:52.460214019Z</time>
      </trkpt>
      <trkpt lat="42.89705" lon="2.20835">
        <ele>540.51</ele>
        <time>2026-06-03T13:53:53.422271967Z</time>
      </trkpt>
      <trkpt lat="42.89705" lon="2.20838">
        <ele>540.4</ele>
        <time>2026-06-03T13:53:54.365120053Z</time>
      </trkpt>
      <trkpt lat="42.89705" lon="2.20842">
        <ele>540.3</ele>
        <time>2026-06-03T13:53:55.400061011Z</time>
      </trkpt>
      <trkpt lat="42.89705" lon="2.20846">
        <ele>540.20996</ele>
        <time>2026-06-03T13:53:56.481070042Z</time>
      </trkpt>
      <trkpt lat="42.89704" lon="2.20851">
        <ele>540.13</ele>
        <time>2026-06-03T13:53:57.461328030Z</time>
      </trkpt>
      <trkpt lat="42.89704" lon="2.20855">
        <ele>540.05</ele>
        <time>2026-06-03T13:53:58.460204959Z</time>
      </trkpt>
      <trkpt lat="42.89703" lon="2.2086">
        <ele>539.97</ele>
        <time>2026-06-03T13:53:59.451701999Z</time>
      </trkpt>
      <trkpt lat="42.89703" lon="2.20866">
        <ele>539.89</ele>
        <time>2026-06-03T13:54:00.473572969Z</time>
      </trkpt>
      <trkpt lat="42.89702" lon="2.2087">
        <ele>539.78</ele>
        <time>2026-06-03T13:54:01.491085052Z</time>
      </trkpt>
      <trkpt lat="42.89701" lon="2.20874">
        <ele>539.66003</ele>
        <time>2026-06-03T13:54:02.480808020Z</time>
      </trkpt>
      <trkpt lat="42.897" lon="2.20878">
        <ele>539.53</ele>
        <time>2026-06-03T13:54:03.473423958Z</time>
      </trkpt>
      <trkpt lat="42.897" lon="2.20881">
        <ele>539.41003</ele>
        <time>2026-06-03T13:54:04.463029981Z</time>
      </trkpt>
      <trkpt lat="42.89699" lon="2.20886">
        <ele>539.29004</ele>
        <time>2026-06-03T13:54:05.481315970Z</time>
      </trkpt>
      <trkpt lat="42.89698" lon="2.20889">
        <ele>539.18</ele>
        <time>2026-06-03T13:54:06.419605017Z</time>
      </trkpt>
      <trkpt lat="42.89698" lon="2.20892">
        <ele>539.08997</ele>
        <time>2026-06-03T13:54:07.432991028Z</time>
      </trkpt>
      <trkpt lat="42.89697" lon="2.20896">
        <ele>539</ele>
        <time>2026-06-03T13:54:08.467828035Z</time>
      </trkpt>
      <trkpt lat="42.89695" lon="2.20898">
        <ele>538.93</ele>
        <time>2026-06-03T13:54:09.471755981Z</time>
      </trkpt>
      <trkpt lat="42.89694" lon="2.20901">
        <ele>538.87</ele>
        <time>2026-06-03T13:54:10.431614995Z</time>
      </trkpt>
      <trkpt lat="42.89693" lon="2.20903">
        <ele>538.82996</ele>
        <time>2026-06-03T13:54:11.400254965Z</time>
      </trkpt>
      <trkpt lat="42.89692" lon="2.20905">
        <ele>538.81</ele>
        <time>2026-06-03T13:54:12.365069032Z</time>
      </trkpt>
      <trkpt lat="42.8969" lon="2.20907">
        <ele>538.8</ele>
        <time>2026-06-03T13:54:13.463652015Z</time>
      </trkpt>
      <trkpt lat="42.89689" lon="2.2091">
        <ele>538.81</ele>
        <time>2026-06-03T13:54:14.482069016Z</time>
      </trkpt>
      <trkpt lat="42.89687" lon="2.20912">
        <ele>538.82</ele>
        <time>2026-06-03T13:54:15.473554969Z</time>
      </trkpt>
      <trkpt lat="42.89685" lon="2.20915">
        <ele>538.82996</ele>
        <time>2026-06-03T13:54:16.431460977Z</time>
      </trkpt>
      <trkpt lat="42.89684" lon="2.20918">
        <ele>538.85</ele>
        <time>2026-06-03T13:54:17.394876003Z</time>
      </trkpt>
      <trkpt lat="42.89682" lon="2.2092">
        <ele>538.88</ele>
        <time>2026-06-03T13:54:18.471850991Z</time>
      </trkpt>
      <trkpt lat="42.8968" lon="2.20921">
        <ele>538.93</ele>
        <time>2026-06-03T13:54:19.403475046Z</time>
      </trkpt>
      <trkpt lat="42.89679" lon="2.20924">
        <ele>538.98</ele>
        <time>2026-06-03T13:54:20.421242952Z</time>
      </trkpt>
      <trkpt lat="42.89676" lon="2.20927">
        <ele>539.03</ele>
        <time>2026-06-03T13:54:21.472532034Z</time>
      </trkpt>
      <trkpt lat="42.89674" lon="2.2093">
        <ele>539.07996</ele>
        <time>2026-06-03T13:54:22.491464019Z</time>
      </trkpt>
      <trkpt lat="42.89671" lon="2.20934">
        <ele>539.13</ele>
        <time>2026-06-03T13:54:23.481668949Z</time>
      </trkpt>
      <trkpt lat="42.89668" lon="2.20937">
        <ele>539.16003</ele>
        <time>2026-06-03T13:54:24.502014041Z</time>
      </trkpt>
      <trkpt lat="42.89664" lon="2.20942">
        <ele>539.16003</ele>
        <time>2026-06-03T13:54:25.491803050Z</time>
      </trkpt>
      <trkpt lat="42.89661" lon="2.20945">
        <ele>539.14</ele>
        <time>2026-06-03T13:54:26.416370034Z</time>
      </trkpt>
      <trkpt lat="42.89658" lon="2.20949">
        <ele>539.08997</ele>
        <time>2026-06-03T13:54:27.472412944Z</time>
      </trkpt>
      <trkpt lat="42.89655" lon="2.20952">
        <ele>539.03</ele>
        <time>2026-06-03T13:54:28.462162971Z</time>
      </trkpt>
      <trkpt lat="42.89651" lon="2.20956">
        <ele>538.94</ele>
        <time>2026-06-03T13:54:29.452170014Z</time>
      </trkpt>
      <trkpt lat="42.89648" lon="2.20961">
        <ele>538.82996</ele>
        <time>2026-06-03T13:54:30.501644015Z</time>
      </trkpt>
      <trkpt lat="42.89645" lon="2.20966">
        <ele>538.70996</ele>
        <time>2026-06-03T13:54:31.491690040Z</time>
      </trkpt>
      <trkpt lat="42.89641" lon="2.20971">
        <ele>538.57996</ele>
        <time>2026-06-03T13:54:32.481776953Z</time>
      </trkpt>
      <trkpt lat="42.89638" lon="2.20976">
        <ele>538.44</ele>
        <time>2026-06-03T13:54:33.596516967Z</time>
      </trkpt>
      <trkpt lat="42.89635" lon="2.20979">
        <ele>538.29004</ele>
        <time>2026-06-03T13:54:34.463785052Z</time>
      </trkpt>
      <trkpt lat="42.89632" lon="2.20981">
        <ele>538.13</ele>
        <time>2026-06-03T13:54:35.481964946Z</time>
      </trkpt>
      <trkpt lat="42.89629" lon="2.20984">
        <ele>537.98</ele>
        <time>2026-06-03T13:54:36.502637982Z</time>
      </trkpt>
      <trkpt lat="42.89626" lon="2.20986">
        <ele>537.85</ele>
        <time>2026-06-03T13:54:37.491894007Z</time>
      </trkpt>
      <trkpt lat="42.89623" lon="2.20988">
        <ele>537.73</ele>
        <time>2026-06-03T13:54:38.453824997Z</time>
      </trkpt>
      <trkpt lat="42.89621" lon="2.2099">
        <ele>537.61</ele>
        <time>2026-06-03T13:54:39.474655986Z</time>
      </trkpt>
      <trkpt lat="42.89619" lon="2.20993">
        <ele>537.51</ele>
        <time>2026-06-03T13:54:40.463804007Z</time>
      </trkpt>
      <trkpt lat="42.89618" lon="2.20995">
        <ele>537.41003</ele>
        <time>2026-06-03T13:54:41.422299027Z</time>
      </trkpt>
      <trkpt lat="42.89617" lon="2.20998">
        <ele>537.31</ele>
        <time>2026-06-03T13:54:42.496345043Z</time>
      </trkpt>
      <trkpt lat="42.89617" lon="2.21001">
        <ele>537.2</ele>
        <time>2026-06-03T13:54:43.463956952Z</time>
      </trkpt>
      <trkpt lat="42.89616" lon="2.21003">
        <ele>537.08997</ele>
        <time>2026-06-03T13:54:44.452167034Z</time>
      </trkpt>
      <trkpt lat="42.89616" lon="2.21007">
        <ele>536.98</ele>
        <time>2026-06-03T13:54:45.474789977Z</time>
      </trkpt>
      <trkpt lat="42.89616" lon="2.2101">
        <ele>536.85</ele>
        <time>2026-06-03T13:54:46.463973045Z</time>
      </trkpt>
      <trkpt lat="42.89616" lon="2.21014">
        <ele>536.70996</ele>
        <time>2026-06-03T13:54:47.452064037Z</time>
      </trkpt>
      <trkpt lat="42.89615" lon="2.21018">
        <ele>536.54004</ele>
        <time>2026-06-03T13:54:48.473034024Z</time>
      </trkpt>
      <trkpt lat="42.89615" lon="2.21021">
        <ele>536.26</ele>
        <time>2026-06-03T13:54:49.464126945Z</time>
      </trkpt>
      <trkpt lat="42.89614" lon="2.21025">
        <ele>535.91003</ele>
        <time>2026-06-03T13:54:50.512097955Z</time>
      </trkpt>
      <trkpt lat="42.89613" lon="2.21027">
        <ele>535.58997</ele>
        <time>2026-06-03T13:54:51.474454999Z</time>
      </trkpt>
      <trkpt lat="42.89612" lon="2.2103">
        <ele>535.19</ele>
        <time>2026-06-03T13:54:52.492383957Z</time>
      </trkpt>
      <trkpt lat="42.89612" lon="2.21034">
        <ele>534.7</ele>
        <time>2026-06-03T13:54:53.482457995Z</time>
      </trkpt>
      <trkpt lat="42.89611" lon="2.21038">
        <ele>534.11</ele>
        <time>2026-06-03T13:54:54.386404037Z</time>
      </trkpt>
      <trkpt lat="42.89611" lon="2.21042">
        <ele>533.45</ele>
        <time>2026-06-03T13:54:55.491562963Z</time>
      </trkpt>
      <trkpt lat="42.8961" lon="2.21046">
        <ele>532.72</ele>
        <time>2026-06-03T13:54:56.457790971Z</time>
      </trkpt>
      <trkpt lat="42.89608" lon="2.2105">
        <ele>531.99</ele>
        <time>2026-06-03T13:54:57.501664042Z</time>
      </trkpt>
      <trkpt lat="42.89607" lon="2.21053">
        <ele>531.23</ele>
        <time>2026-06-03T13:54:58.491706967Z</time>
      </trkpt>
      <trkpt lat="42.89606" lon="2.21056">
        <ele>530.47</ele>
        <time>2026-06-03T13:54:59.481394053Z</time>
      </trkpt>
      <trkpt lat="42.89603" lon="2.2106">
        <ele>529.7</ele>
        <time>2026-06-03T13:55:00.501700997Z</time>
      </trkpt>
      <trkpt lat="42.89602" lon="2.21063">
        <ele>528.92004</ele>
        <time>2026-06-03T13:55:01.491704941Z</time>
      </trkpt>
      <trkpt lat="42.89598" lon="2.21067">
        <ele>527.35</ele>
        <time>2026-06-03T13:55:03.472990036Z</time>
      </trkpt>
      <trkpt lat="42.89597" lon="2.21069">
        <ele>526.58997</ele>
        <time>2026-06-03T13:55:04.491476059Z</time>
      </trkpt>
      <trkpt lat="42.89596" lon="2.2107">
        <ele>526.58997</ele>
        <time>2026-06-03T13:55:05.453338027Z</time>
      </trkpt>
      <trkpt lat="42.89596" lon="2.21072">
        <ele>526.58997</ele>
        <time>2026-06-03T13:55:06.502343059Z</time>
      </trkpt>
      <trkpt lat="42.89594" lon="2.21075">
        <ele>526.58997</ele>
        <time>2026-06-03T13:55:07.491724968Z</time>
      </trkpt>
      <trkpt lat="42.89593" lon="2.21078">
        <ele>524.05</ele>
        <time>2026-06-03T13:55:08.481598020Z</time>
      </trkpt>
      <trkpt lat="42.89592" lon="2.21081">
        <ele>523.47</ele>
        <time>2026-06-03T13:55:09.472507Z</time>
      </trkpt>
      <trkpt lat="42.8959" lon="2.21084">
        <ele>522.92004</ele>
        <time>2026-06-03T13:55:10.492002964Z</time>
      </trkpt>
      <trkpt lat="42.89589" lon="2.21087">
        <ele>522.37</ele>
        <time>2026-06-03T13:55:11.444640040Z</time>
      </trkpt>
      <trkpt lat="42.89588" lon="2.21091">
        <ele>521.81</ele>
        <time>2026-06-03T13:55:12.412464023Z</time>
      </trkpt>
      <trkpt lat="42.89587" lon="2.21096">
        <ele>521.23</ele>
        <time>2026-06-03T13:55:13.402490973Z</time>
      </trkpt>
      <trkpt lat="42.89587" lon="2.211">
        <ele>520.68</ele>
        <time>2026-06-03T13:55:14.362802029Z</time>
      </trkpt>
      <trkpt lat="42.89585" lon="2.21105">
        <ele>520.12</ele>
        <time>2026-06-03T13:55:15.475165009Z</time>
      </trkpt>
      <trkpt lat="42.89585" lon="2.21108">
        <ele>519.56</ele>
        <time>2026-06-03T13:55:16.492707014Z</time>
      </trkpt>
      <trkpt lat="42.89584" lon="2.21113">
        <ele>519.01</ele>
        <time>2026-06-03T13:55:17.454110980Z</time>
      </trkpt>
      <trkpt lat="42.89583" lon="2.21118">
        <ele>518.5</ele>
        <time>2026-06-03T13:55:18.473034024Z</time>
      </trkpt>
      <trkpt lat="42.89582" lon="2.21122">
        <ele>517.99</ele>
        <time>2026-06-03T13:55:19.463137984Z</time>
      </trkpt>
      <trkpt lat="42.89581" lon="2.21125">
        <ele>517.5</ele>
        <time>2026-06-03T13:55:20.454624057Z</time>
      </trkpt>
      <trkpt lat="42.8958" lon="2.21128">
        <ele>517.08997</ele>
        <time>2026-06-03T13:55:21.473173976Z</time>
      </trkpt>
      <trkpt lat="42.89579" lon="2.21131">
        <ele>516.68</ele>
        <time>2026-06-03T13:55:22.492974997Z</time>
      </trkpt>
      <trkpt lat="42.89579" lon="2.21135">
        <ele>516.27</ele>
        <time>2026-06-03T13:55:23.512946010Z</time>
      </trkpt>
      <trkpt lat="42.89578" lon="2.21139">
        <ele>515.83997</ele>
        <time>2026-06-03T13:55:24.473592997Z</time>
      </trkpt>
      <trkpt lat="42.89577" lon="2.21143">
        <ele>515.39</ele>
        <time>2026-06-03T13:55:25.437507033Z</time>
      </trkpt>
      <trkpt lat="42.89577" lon="2.21147">
        <ele>514.95</ele>
        <time>2026-06-03T13:55:26.460898042Z</time>
      </trkpt>
      <trkpt lat="42.89576" lon="2.21149">
        <ele>514.51</ele>
        <time>2026-06-03T13:55:27.502958059Z</time>
      </trkpt>
      <trkpt lat="42.89575" lon="2.21153">
        <ele>514.06</ele>
        <time>2026-06-03T13:55:28.492879033Z</time>
      </trkpt>
      <trkpt lat="42.89574" lon="2.21156">
        <ele>513.58997</ele>
        <time>2026-06-03T13:55:29.454738021Z</time>
      </trkpt>
      <trkpt lat="42.89574" lon="2.21158">
        <ele>513.13</ele>
        <time>2026-06-03T13:55:30.474735975Z</time>
      </trkpt>
      <trkpt lat="42.89573" lon="2.2116">
        <ele>512.66003</ele>
        <time>2026-06-03T13:55:31.492982984Z</time>
      </trkpt>
      <trkpt lat="42.89573" lon="2.21164">
        <ele>512.20996</ele>
        <time>2026-06-03T13:55:32.513239026Z</time>
      </trkpt>
      <trkpt lat="42.89572" lon="2.21167">
        <ele>511.76</ele>
        <time>2026-06-03T13:55:33.474341035Z</time>
      </trkpt>
      <trkpt lat="42.89571" lon="2.21171">
        <ele>511.33</ele>
        <time>2026-06-03T13:55:34.552834034Z</time>
      </trkpt>
      <trkpt lat="42.8957" lon="2.21174">
        <ele>510.91</ele>
        <time>2026-06-03T13:55:35.512649059Z</time>
      </trkpt>
      <trkpt lat="42.89569" lon="2.21179">
        <ele>510.55</ele>
        <time>2026-06-03T13:55:36.503283024Z</time>
      </trkpt>
      <trkpt lat="42.89569" lon="2.21183">
        <ele>510.19</ele>
        <time>2026-06-03T13:55:37.493329048Z</time>
      </trkpt>
      <trkpt lat="42.89568" lon="2.21187">
        <ele>509.83</ele>
        <time>2026-06-03T13:55:38.514029026Z</time>
      </trkpt>
      <trkpt lat="42.89568" lon="2.21191">
        <ele>509.46</ele>
        <time>2026-06-03T13:55:39.473862052Z</time>
      </trkpt>
      <trkpt lat="42.89568" lon="2.21195">
        <ele>509.09</ele>
        <time>2026-06-03T13:55:40.393103957Z</time>
      </trkpt>
      <trkpt lat="42.89567" lon="2.212">
        <ele>508.73</ele>
        <time>2026-06-03T13:55:41.466902971Z</time>
      </trkpt>
      <trkpt lat="42.89566" lon="2.21203">
        <ele>508.38</ele>
        <time>2026-06-03T13:55:42.503237963Z</time>
      </trkpt>
      <trkpt lat="42.89566" lon="2.21208">
        <ele>508.04</ele>
        <time>2026-06-03T13:55:43.465193987Z</time>
      </trkpt>
      <trkpt lat="42.89565" lon="2.21213">
        <ele>507.69</ele>
        <time>2026-06-03T13:55:44.454926014Z</time>
      </trkpt>
      <trkpt lat="42.89564" lon="2.21218">
        <ele>507.34</ele>
        <time>2026-06-03T13:55:45.413524985Z</time>
      </trkpt>
      <trkpt lat="42.89563" lon="2.21222">
        <ele>506.99</ele>
        <time>2026-06-03T13:55:46.493417025Z</time>
      </trkpt>
      <trkpt lat="42.89561" lon="2.21227">
        <ele>506.63</ele>
        <time>2026-06-03T13:55:47.453989983Z</time>
      </trkpt>
      <trkpt lat="42.8956" lon="2.2123">
        <ele>506.27</ele>
        <time>2026-06-03T13:55:48.474169016Z</time>
      </trkpt>
      <trkpt lat="42.89559" lon="2.21235">
        <ele>505.96</ele>
        <time>2026-06-03T13:55:49.463868976Z</time>
      </trkpt>
      <trkpt lat="42.89557" lon="2.2124">
        <ele>505.7</ele>
        <time>2026-06-03T13:55:50.454525948Z</time>
      </trkpt>
      <trkpt lat="42.89555" lon="2.21246">
        <ele>505.43</ele>
        <time>2026-06-03T13:55:51.475811958Z</time>
      </trkpt>
      <trkpt lat="42.89553" lon="2.21251">
        <ele>505.17</ele>
        <time>2026-06-03T13:55:52.434059978Z</time>
      </trkpt>
      <trkpt lat="42.89551" lon="2.21256">
        <ele>504.89</ele>
        <time>2026-06-03T13:55:53.424056053Z</time>
      </trkpt>
      <trkpt lat="42.89548" lon="2.21261">
        <ele>504.59</ele>
        <time>2026-06-03T13:55:54.474511027Z</time>
      </trkpt>
      <trkpt lat="42.89545" lon="2.21265">
        <ele>504.3</ele>
        <time>2026-06-03T13:55:55.413771033Z</time>
      </trkpt>
      <trkpt lat="42.89544" lon="2.21269">
        <ele>503.99</ele>
        <time>2026-06-03T13:55:56.482967973Z</time>
      </trkpt>
      <trkpt lat="42.89541" lon="2.21271">
        <ele>503.69</ele>
        <time>2026-06-03T13:55:57.422255039Z</time>
      </trkpt>
      <trkpt lat="42.89539" lon="2.21274">
        <ele>503.39</ele>
        <time>2026-06-03T13:55:58.433778048Z</time>
      </trkpt>
      <trkpt lat="42.89537" lon="2.21276">
        <ele>503.06</ele>
        <time>2026-06-03T13:55:59.513896942Z</time>
      </trkpt>
      <trkpt lat="42.89536" lon="2.21278">
        <ele>502.72</ele>
        <time>2026-06-03T13:56:00.475841045Z</time>
      </trkpt>
      <trkpt lat="42.89534" lon="2.21282">
        <ele>502.32</ele>
        <time>2026-06-03T13:56:01.465805054Z</time>
      </trkpt>
      <trkpt lat="42.89532" lon="2.21285">
        <ele>501.9</ele>
        <time>2026-06-03T13:56:02.394701004Z</time>
      </trkpt>
      <trkpt lat="42.89531" lon="2.21288">
        <ele>501.49</ele>
        <time>2026-06-03T13:56:03.503774047Z</time>
      </trkpt>
      <trkpt lat="42.89529" lon="2.2129">
        <ele>501.07</ele>
        <time>2026-06-03T13:56:04.493862033Z</time>
      </trkpt>
      <trkpt lat="42.89528" lon="2.21292">
        <ele>500.7</ele>
        <time>2026-06-03T13:56:05.454409003Z</time>
      </trkpt>
      <trkpt lat="42.89527" lon="2.21295">
        <ele>500.37</ele>
        <time>2026-06-03T13:56:06.414222956Z</time>
      </trkpt>
      <trkpt lat="42.89525" lon="2.21298">
        <ele>500.05</ele>
        <time>2026-06-03T13:56:07.493764043Z</time>
      </trkpt>
      <trkpt lat="42.89524" lon="2.21301">
        <ele>499.74</ele>
        <time>2026-06-03T13:56:08.514423013Z</time>
      </trkpt>
      <trkpt lat="42.89524" lon="2.21303">
        <ele>499.44</ele>
        <time>2026-06-03T13:56:09.475872040Z</time>
      </trkpt>
      <trkpt lat="42.89523" lon="2.21306">
        <ele>499.17</ele>
        <time>2026-06-03T13:56:10.425335050Z</time>
      </trkpt>
      <trkpt lat="42.89522" lon="2.2131">
        <ele>498.89</ele>
        <time>2026-06-03T13:56:11.455646038Z</time>
      </trkpt>
      <trkpt lat="42.89521" lon="2.21315">
        <ele>498.63</ele>
        <time>2026-06-03T13:56:12.503865004Z</time>
      </trkpt>
      <trkpt lat="42.8952" lon="2.21317">
        <ele>498.37</ele>
        <time>2026-06-03T13:56:13.494122982Z</time>
      </trkpt>
      <trkpt lat="42.8952" lon="2.21321">
        <ele>498.11</ele>
        <time>2026-06-03T13:56:14.514271975Z</time>
      </trkpt>
      <trkpt lat="42.8952" lon="2.21326">
        <ele>497.85</ele>
        <time>2026-06-03T13:56:15.475865006Z</time>
      </trkpt>
      <trkpt lat="42.89519" lon="2.2133">
        <ele>497.56</ele>
        <time>2026-06-03T13:56:16.464643002Z</time>
      </trkpt>
      <trkpt lat="42.89518" lon="2.21334">
        <ele>497.25</ele>
        <time>2026-06-03T13:56:17.514412045Z</time>
      </trkpt>
      <trkpt lat="42.89518" lon="2.21338">
        <ele>496.91</ele>
        <time>2026-06-03T13:56:18.504026055Z</time>
      </trkpt>
      <trkpt lat="42.89518" lon="2.21342">
        <ele>496.51</ele>
        <time>2026-06-03T13:56:19.434324980Z</time>
      </trkpt>
      <trkpt lat="42.89518" lon="2.21345">
        <ele>496.17</ele>
        <time>2026-06-03T13:56:20.424672961Z</time>
      </trkpt>
      <trkpt lat="42.89517" lon="2.21347">
        <ele>495.81</ele>
        <time>2026-06-03T13:56:21.414214969Z</time>
      </trkpt>
      <trkpt lat="42.89518" lon="2.2135">
        <ele>495.42</ele>
        <time>2026-06-03T13:56:22.494338036Z</time>
      </trkpt>
      <trkpt lat="42.89518" lon="2.21353">
        <ele>495.03</ele>
        <time>2026-06-03T13:56:23.514286995Z</time>
      </trkpt>
      <trkpt lat="42.89518" lon="2.21357">
        <ele>494.64</ele>
        <time>2026-06-03T13:56:24.474969983Z</time>
      </trkpt>
      <trkpt lat="42.89517" lon="2.21361">
        <ele>494.24</ele>
        <time>2026-06-03T13:56:25.431228042Z</time>
      </trkpt>
      <trkpt lat="42.89517" lon="2.21364">
        <ele>493.84</ele>
        <time>2026-06-03T13:56:26.505249977Z</time>
      </trkpt>
      <trkpt lat="42.89517" lon="2.21368">
        <ele>493.43</ele>
        <time>2026-06-03T13:56:27.504094958Z</time>
      </trkpt>
      <trkpt lat="42.89517" lon="2.21373">
        <ele>492.98</ele>
        <time>2026-06-03T13:56:28.493533969Z</time>
      </trkpt>
      <trkpt lat="42.89516" lon="2.21376">
        <ele>492.51</ele>
        <time>2026-06-03T13:56:29.514436007Z</time>
      </trkpt>
      <trkpt lat="42.89516" lon="2.21379">
        <ele>492.06</ele>
        <time>2026-06-03T13:56:30.476225972Z</time>
      </trkpt>
      <trkpt lat="42.89514" lon="2.21384">
        <ele>491.6</ele>
        <time>2026-06-03T13:56:31.433856010Z</time>
      </trkpt>
      <trkpt lat="42.89513" lon="2.21388">
        <ele>491.15</ele>
        <time>2026-06-03T13:56:32.514662027Z</time>
      </trkpt>
      <trkpt lat="42.89511" lon="2.21392">
        <ele>490.7</ele>
        <time>2026-06-03T13:56:33.504784942Z</time>
      </trkpt>
      <trkpt lat="42.8951" lon="2.21396">
        <ele>490.25</ele>
        <time>2026-06-03T13:56:34.494441986Z</time>
      </trkpt>
      <trkpt lat="42.89508" lon="2.214">
        <ele>489.86</ele>
        <time>2026-06-03T13:56:35.514536977Z</time>
      </trkpt>
      <trkpt lat="42.89506" lon="2.21403">
        <ele>489.47</ele>
        <time>2026-06-03T13:56:36.553812027Z</time>
      </trkpt>
      <trkpt lat="42.89504" lon="2.21407">
        <ele>489.08</ele>
        <time>2026-06-03T13:56:37.466528058Z</time>
      </trkpt>
      <trkpt lat="42.89502" lon="2.21411">
        <ele>488.66</ele>
        <time>2026-06-03T13:56:38.424968004Z</time>
      </trkpt>
      <trkpt lat="42.895" lon="2.21414">
        <ele>488.25</ele>
        <time>2026-06-03T13:56:39.373538971Z</time>
      </trkpt>
      <trkpt lat="42.89499" lon="2.21418">
        <ele>487.86</ele>
        <time>2026-06-03T13:56:40.447306037Z</time>
      </trkpt>
      <trkpt lat="42.89497" lon="2.21422">
        <ele>487.46</ele>
        <time>2026-06-03T13:56:41.514711022Z</time>
      </trkpt>
      <trkpt lat="42.89495" lon="2.21425">
        <ele>487.06</ele>
        <time>2026-06-03T13:56:42.504902005Z</time>
      </trkpt>
      <trkpt lat="42.89494" lon="2.21429">
        <ele>486.66</ele>
        <time>2026-06-03T13:56:43.494670987Z</time>
      </trkpt>
      <trkpt lat="42.89492" lon="2.21432">
        <ele>486.25</ele>
        <time>2026-06-03T13:56:44.514765978Z</time>
      </trkpt>
      <trkpt lat="42.89491" lon="2.21435">
        <ele>485.85</ele>
        <time>2026-06-03T13:56:45.477092028Z</time>
      </trkpt>
      <trkpt lat="42.89489" lon="2.21439">
        <ele>485.45</ele>
        <time>2026-06-03T13:56:46.465304017Z</time>
      </trkpt>
      <trkpt lat="42.89488" lon="2.21441">
        <ele>485.07</ele>
        <time>2026-06-03T13:56:47.515030980Z</time>
      </trkpt>
      <trkpt lat="42.89487" lon="2.21444">
        <ele>484.69</ele>
        <time>2026-06-03T13:56:48.476901054Z</time>
      </trkpt>
      <trkpt lat="42.89484" lon="2.21448">
        <ele>484.14</ele>
        <time>2026-06-03T13:56:49.494313002Z</time>
      </trkpt>
      <trkpt lat="42.89483" lon="2.21452">
        <ele>483.67</ele>
        <time>2026-06-03T13:56:50.404780984Z</time>
      </trkpt>
      <trkpt lat="42.89482" lon="2.21456">
        <ele>483.21</ele>
        <time>2026-06-03T13:56:51.474794984Z</time>
      </trkpt>
      <trkpt lat="42.89481" lon="2.21461">
        <ele>482.75</ele>
        <time>2026-06-03T13:56:52.466670990Z</time>
      </trkpt>
      <trkpt lat="42.8948" lon="2.21465">
        <ele>482.3</ele>
        <time>2026-06-03T13:56:53.455011010Z</time>
      </trkpt>
      <trkpt lat="42.89478" lon="2.2147">
        <ele>481.85</ele>
        <time>2026-06-03T13:56:54.384858966Z</time>
      </trkpt>
      <trkpt lat="42.89477" lon="2.21474">
        <ele>481.39</ele>
        <time>2026-06-03T13:56:55.434823990Z</time>
      </trkpt>
      <trkpt lat="42.89476" lon="2.21478">
        <ele>480.92</ele>
        <time>2026-06-03T13:56:56.514930964Z</time>
      </trkpt>
      <trkpt lat="42.89475" lon="2.21483">
        <ele>480.45</ele>
        <time>2026-06-03T13:56:57.415601015Z</time>
      </trkpt>
      <trkpt lat="42.89473" lon="2.21488">
        <ele>479.96</ele>
        <time>2026-06-03T13:56:58.435315967Z</time>
      </trkpt>
      <trkpt lat="42.89472" lon="2.21492">
        <ele>479.47</ele>
        <time>2026-06-03T13:56:59.395107031Z</time>
      </trkpt>
      <trkpt lat="42.8947" lon="2.21496">
        <ele>478.99</ele>
        <time>2026-06-03T13:57:00.418331981Z</time>
      </trkpt>
      <trkpt lat="42.89467" lon="2.21499">
        <ele>478.52</ele>
        <time>2026-06-03T13:57:01.435212016Z</time>
      </trkpt>
      <trkpt lat="42.89466" lon="2.21503">
        <ele>478.05</ele>
        <time>2026-06-03T13:57:02.425984025Z</time>
      </trkpt>
      <trkpt lat="42.89463" lon="2.21506">
        <ele>477.58</ele>
        <time>2026-06-03T13:57:03.415387988Z</time>
      </trkpt>
      <trkpt lat="42.8946" lon="2.21508">
        <ele>477.11</ele>
        <time>2026-06-03T13:57:04.453212023Z</time>
      </trkpt>
      <trkpt lat="42.89456" lon="2.2151">
        <ele>476.72</ele>
        <time>2026-06-03T13:57:05.425609946Z</time>
      </trkpt>
      <trkpt lat="42.89453" lon="2.2151">
        <ele>476.32</ele>
        <time>2026-06-03T13:57:06.475211978Z</time>
      </trkpt>
      <trkpt lat="42.8945" lon="2.21509">
        <ele>475.88</ele>
        <time>2026-06-03T13:57:07.434777975Z</time>
      </trkpt>
      <trkpt lat="42.89448" lon="2.21508">
        <ele>475.44</ele>
        <time>2026-06-03T13:57:08.514472961Z</time>
      </trkpt>
      <trkpt lat="42.89445" lon="2.21507">
        <ele>474.99</ele>
        <time>2026-06-03T13:57:09.505360007Z</time>
      </trkpt>
      <trkpt lat="42.89443" lon="2.21505">
        <ele>474.55</ele>
        <time>2026-06-03T13:57:10.469545960Z</time>
      </trkpt>
      <trkpt lat="42.89441" lon="2.21504">
        <ele>474.13</ele>
        <time>2026-06-03T13:57:11.516073942Z</time>
      </trkpt>
      <trkpt lat="42.89437" lon="2.21503">
        <ele>473.75</ele>
        <time>2026-06-03T13:57:12.475518942Z</time>
      </trkpt>
      <trkpt lat="42.89434" lon="2.21501">
        <ele>473.38</ele>
        <time>2026-06-03T13:57:13.445019007Z</time>
      </trkpt>
      <trkpt lat="42.89431" lon="2.215">
        <ele>473.04</ele>
        <time>2026-06-03T13:57:14.444959044Z</time>
      </trkpt>
      <trkpt lat="42.89429" lon="2.21499">
        <ele>472.72</ele>
        <time>2026-06-03T13:57:15.415547967Z</time>
      </trkpt>
      <trkpt lat="42.89427" lon="2.21498">
        <ele>472.42</ele>
        <time>2026-06-03T13:57:16.435379982Z</time>
      </trkpt>
      <trkpt lat="42.89425" lon="2.21498">
        <ele>472.14</ele>
        <time>2026-06-03T13:57:17.456233025Z</time>
      </trkpt>
      <trkpt lat="42.89423" lon="2.21497">
        <ele>471.87</ele>
        <time>2026-06-03T13:57:18.505555987Z</time>
      </trkpt>
      <trkpt lat="42.8942" lon="2.21496">
        <ele>471.65</ele>
        <time>2026-06-03T13:57:19.344838023Z</time>
      </trkpt>
      <trkpt lat="42.89417" lon="2.21495">
        <ele>471.44</ele>
        <time>2026-06-03T13:57:20.515498042Z</time>
      </trkpt>
      <trkpt lat="42.89415" lon="2.21494">
        <ele>471.21</ele>
        <time>2026-06-03T13:57:21.475499988Z</time>
      </trkpt>
      <trkpt lat="42.89411" lon="2.21492">
        <ele>470.97</ele>
        <time>2026-06-03T13:57:22.465227962Z</time>
      </trkpt>
      <trkpt lat="42.89408" lon="2.21492">
        <ele>470.69</ele>
        <time>2026-06-03T13:57:23.426187038Z</time>
      </trkpt>
      <trkpt lat="42.89405" lon="2.21491">
        <ele>470.38</ele>
        <time>2026-06-03T13:57:24.377601027Z</time>
      </trkpt>
      <trkpt lat="42.89403" lon="2.21491">
        <ele>470.05</ele>
        <time>2026-06-03T13:57:25.485681057Z</time>
      </trkpt>
      <trkpt lat="42.894" lon="2.21491">
        <ele>469.69</ele>
        <time>2026-06-03T13:57:26.515594006Z</time>
      </trkpt>
      <trkpt lat="42.89397" lon="2.21491">
        <ele>469.32</ele>
        <time>2026-06-03T13:57:27.476269007Z</time>
      </trkpt>
      <trkpt lat="42.89396" lon="2.21491">
        <ele>468.97</ele>
        <time>2026-06-03T13:57:28.495571017Z</time>
      </trkpt>
      <trkpt lat="42.89393" lon="2.21492">
        <ele>468.62</ele>
        <time>2026-06-03T13:57:29.515061021Z</time>
      </trkpt>
      <trkpt lat="42.89391" lon="2.21493">
        <ele>468.29</ele>
        <time>2026-06-03T13:57:30.477547050Z</time>
      </trkpt>
      <trkpt lat="42.89389" lon="2.21493">
        <ele>467.95</ele>
        <time>2026-06-03T13:57:31.467973948Z</time>
      </trkpt>
      <trkpt lat="42.89385" lon="2.21496">
        <ele>467.33</ele>
        <time>2026-06-03T13:57:33.475582004Z</time>
      </trkpt>
      <trkpt lat="42.89384" lon="2.21498">
        <ele>467.06</ele>
        <time>2026-06-03T13:57:34.495857954Z</time>
      </trkpt>
      <trkpt lat="42.89382" lon="2.21499">
        <ele>466.82</ele>
        <time>2026-06-03T13:57:35.515751958Z</time>
      </trkpt>
      <trkpt lat="42.8938" lon="2.21501">
        <ele>466.57</ele>
        <time>2026-06-03T13:57:36.477658987Z</time>
      </trkpt>
      <trkpt lat="42.89378" lon="2.21504">
        <ele>466.33</ele>
        <time>2026-06-03T13:57:37.570935011Z</time>
      </trkpt>
      <trkpt lat="42.89376" lon="2.21507">
        <ele>466.1</ele>
        <time>2026-06-03T13:57:38.353911042Z</time>
      </trkpt>
      <trkpt lat="42.89375" lon="2.2151">
        <ele>465.86</ele>
        <time>2026-06-03T13:57:39.427791953Z</time>
      </trkpt>
      <trkpt lat="42.89374" lon="2.21512">
        <ele>465.61</ele>
        <time>2026-06-03T13:57:40.495061994Z</time>
      </trkpt>
      <trkpt lat="42.89371" lon="2.21517">
        <ele>465.33</ele>
        <time>2026-06-03T13:57:41.516154051Z</time>
      </trkpt>
      <trkpt lat="42.8937" lon="2.21522">
        <ele>465.06</ele>
        <time>2026-06-03T13:57:42.477928996Z</time>
      </trkpt>
      <trkpt lat="42.89368" lon="2.21525">
        <ele>464.74</ele>
        <time>2026-06-03T13:57:43.436494946Z</time>
      </trkpt>
      <trkpt lat="42.89367" lon="2.21529">
        <ele>464.4</ele>
        <time>2026-06-03T13:57:44.515992999Z</time>
      </trkpt>
      <trkpt lat="42.89365" lon="2.21534">
        <ele>464.03</ele>
        <time>2026-06-03T13:57:45.478181005Z</time>
      </trkpt>
      <trkpt lat="42.89363" lon="2.21537">
        <ele>463.64</ele>
        <time>2026-06-03T13:57:46.436401010Z</time>
      </trkpt>
      <trkpt lat="42.89361" lon="2.21542">
        <ele>463.23</ele>
        <time>2026-06-03T13:57:47.455507994Z</time>
      </trkpt>
      <trkpt lat="42.89359" lon="2.21547">
        <ele>462.8</ele>
        <time>2026-06-03T13:57:48.476547956Z</time>
      </trkpt>
      <trkpt lat="42.89357" lon="2.21552">
        <ele>462.28</ele>
        <time>2026-06-03T13:57:49.495766997Z</time>
      </trkpt>
      <trkpt lat="42.89356" lon="2.21556">
        <ele>461.75</ele>
        <time>2026-06-03T13:57:50.516123056Z</time>
      </trkpt>
      <trkpt lat="42.89354" lon="2.2156">
        <ele>461.22</ele>
        <time>2026-06-03T13:57:51.478119016Z</time>
      </trkpt>
      <trkpt lat="42.89352" lon="2.21564">
        <ele>460.72</ele>
        <time>2026-06-03T13:57:52.376765966Z</time>
      </trkpt>
      <trkpt lat="42.89351" lon="2.21568">
        <ele>460.2</ele>
        <time>2026-06-03T13:57:53.456107020Z</time>
      </trkpt>
      <trkpt lat="42.89349" lon="2.21572">
        <ele>459.71</ele>
        <time>2026-06-03T13:57:54.433887959Z</time>
      </trkpt>
      <trkpt lat="42.89346" lon="2.21576">
        <ele>459.24</ele>
        <time>2026-06-03T13:57:55.496219039Z</time>
      </trkpt>
      <trkpt lat="42.89344" lon="2.2158">
        <ele>458.77</ele>
        <time>2026-06-03T13:57:56.516206026Z</time>
      </trkpt>
      <trkpt lat="42.89343" lon="2.21583">
        <ele>458.3</ele>
        <time>2026-06-03T13:57:57.377210021Z</time>
      </trkpt>
      <trkpt lat="42.89341" lon="2.21587">
        <ele>457.83</ele>
        <time>2026-06-03T13:57:58.436275959Z</time>
      </trkpt>
      <trkpt lat="42.89339" lon="2.2159">
        <ele>457.36</ele>
        <time>2026-06-03T13:57:59.516299963Z</time>
      </trkpt>
      <trkpt lat="42.89338" lon="2.21593">
        <ele>456.88</ele>
        <time>2026-06-03T13:58:00.478044033Z</time>
      </trkpt>
      <trkpt lat="42.89336" lon="2.21597">
        <ele>456.35</ele>
        <time>2026-06-03T13:58:01.468451023Z</time>
      </trkpt>
      <trkpt lat="42.89335" lon="2.216">
        <ele>455.8</ele>
        <time>2026-06-03T13:58:02.516695023Z</time>
      </trkpt>
      <trkpt lat="42.89333" lon="2.21604">
        <ele>455.23</ele>
        <time>2026-06-03T13:58:03.377048016Z</time>
      </trkpt>
      <trkpt lat="42.89332" lon="2.21607">
        <ele>454.75</ele>
        <time>2026-06-03T13:58:04.436243057Z</time>
      </trkpt>
      <trkpt lat="42.89331" lon="2.2161">
        <ele>454.24</ele>
        <time>2026-06-03T13:58:05.516314030Z</time>
      </trkpt>
      <trkpt lat="42.89329" lon="2.21614">
        <ele>453.69</ele>
        <time>2026-06-03T13:58:06.478191972Z</time>
      </trkpt>
      <trkpt lat="42.89328" lon="2.21618">
        <ele>453.14</ele>
        <time>2026-06-03T13:58:07.468140960Z</time>
      </trkpt>
      <trkpt lat="42.89327" lon="2.21621">
        <ele>452.57</ele>
        <time>2026-06-03T13:58:08.375702977Z</time>
      </trkpt>
      <trkpt lat="42.89325" lon="2.21625">
        <ele>451.97</ele>
        <time>2026-06-03T13:58:09.449756980Z</time>
      </trkpt>
      <trkpt lat="42.89324" lon="2.21629">
        <ele>451.4</ele>
        <time>2026-06-03T13:58:10.496368051Z</time>
      </trkpt>
      <trkpt lat="42.89322" lon="2.21633">
        <ele>450.84</ele>
        <time>2026-06-03T13:58:11.458364964Z</time>
      </trkpt>
      <trkpt lat="42.89321" lon="2.21636">
        <ele>450.27</ele>
        <time>2026-06-03T13:58:12.478221059Z</time>
      </trkpt>
      <trkpt lat="42.8932" lon="2.21639">
        <ele>449.71</ele>
        <time>2026-06-03T13:58:13.466107011Z</time>
      </trkpt>
      <trkpt lat="42.89318" lon="2.21643">
        <ele>449.18</ele>
        <time>2026-06-03T13:58:14.396479011Z</time>
      </trkpt>
      <trkpt lat="42.89317" lon="2.21646">
        <ele>448.66</ele>
        <time>2026-06-03T13:58:15.478309989Z</time>
      </trkpt>
      <trkpt lat="42.89316" lon="2.21649">
        <ele>448.16</ele>
        <time>2026-06-03T13:58:16.496397018Z</time>
      </trkpt>
      <trkpt lat="42.89314" lon="2.21652">
        <ele>447.69</ele>
        <time>2026-06-03T13:58:17.396597981Z</time>
      </trkpt>
      <trkpt lat="42.89313" lon="2.21655">
        <ele>447.24</ele>
        <time>2026-06-03T13:58:18.386530042Z</time>
      </trkpt>
      <trkpt lat="42.89312" lon="2.21659">
        <ele>446.86</ele>
        <time>2026-06-03T13:58:19.436321020Z</time>
      </trkpt>
      <trkpt lat="42.8931" lon="2.21662">
        <ele>446.48</ele>
        <time>2026-06-03T13:58:20.426941991Z</time>
      </trkpt>
      <trkpt lat="42.89309" lon="2.21665">
        <ele>446.08</ele>
        <time>2026-06-03T13:58:21.476659060Z</time>
      </trkpt>
      <trkpt lat="42.89307" lon="2.21669">
        <ele>445.67</ele>
        <time>2026-06-03T13:58:22.437332988Z</time>
      </trkpt>
      <trkpt lat="42.89305" lon="2.21673">
        <ele>445.24</ele>
        <time>2026-06-03T13:58:23.456918001Z</time>
      </trkpt>
      <trkpt lat="42.89303" lon="2.21676">
        <ele>444.79</ele>
        <time>2026-06-03T13:58:24.465641022Z</time>
      </trkpt>
      <trkpt lat="42.89301" lon="2.2168">
        <ele>444.32</ele>
        <time>2026-06-03T13:58:25.436983943Z</time>
      </trkpt>
      <trkpt lat="42.89299" lon="2.21685">
        <ele>443.85</ele>
        <time>2026-06-03T13:58:26.456954002Z</time>
      </trkpt>
      <trkpt lat="42.89297" lon="2.21689">
        <ele>443.36</ele>
        <time>2026-06-03T13:58:27.477980018Z</time>
      </trkpt>
      <trkpt lat="42.89296" lon="2.21692">
        <ele>442.86</ele>
        <time>2026-06-03T13:58:28.453322053Z</time>
      </trkpt>
      <trkpt lat="42.89293" lon="2.21696">
        <ele>442.35</ele>
        <time>2026-06-03T13:58:29.397166967Z</time>
      </trkpt>
      <trkpt lat="42.89291" lon="2.217">
        <ele>441.84</ele>
        <time>2026-06-03T13:58:30.478785038Z</time>
      </trkpt>
      <trkpt lat="42.89288" lon="2.21703">
        <ele>441.3</ele>
        <time>2026-06-03T13:58:31.365731955Z</time>
      </trkpt>
      <trkpt lat="42.89286" lon="2.21707">
        <ele>440.74</ele>
        <time>2026-06-03T13:58:32.516751051Z</time>
      </trkpt>
      <trkpt lat="42.89284" lon="2.21711">
        <ele>440.15</ele>
        <time>2026-06-03T13:58:33.479024053Z</time>
      </trkpt>
      <trkpt lat="42.89282" lon="2.21715">
        <ele>439.65</ele>
        <time>2026-06-03T13:58:34.496974945Z</time>
      </trkpt>
      <trkpt lat="42.8928" lon="2.21719">
        <ele>439.12</ele>
        <time>2026-06-03T13:58:35.516847968Z</time>
      </trkpt>
      <trkpt lat="42.89278" lon="2.21723">
        <ele>438.55</ele>
        <time>2026-06-03T13:58:36.479007006Z</time>
      </trkpt>
      <trkpt lat="42.89276" lon="2.21728">
        <ele>437.95</ele>
        <time>2026-06-03T13:58:37.361943960Z</time>
      </trkpt>
      <trkpt lat="42.89274" lon="2.21732">
        <ele>437.32</ele>
        <time>2026-06-03T13:58:38.397652030Z</time>
      </trkpt>
      <trkpt lat="42.89273" lon="2.21737">
        <ele>436.69</ele>
        <time>2026-06-03T13:58:39.438302040Z</time>
      </trkpt>
      <trkpt lat="42.89271" lon="2.21742">
        <ele>436.05</ele>
        <time>2026-06-03T13:58:40.497203946Z</time>
      </trkpt>
      <trkpt lat="42.8927" lon="2.21744">
        <ele>435.41</ele>
        <time>2026-06-03T13:58:41.517441988Z</time>
      </trkpt>
      <trkpt lat="42.89268" lon="2.21748">
        <ele>434.77</ele>
        <time>2026-06-03T13:58:42.478710055Z</time>
      </trkpt>
      <trkpt lat="42.89268" lon="2.21751">
        <ele>434.12</ele>
        <time>2026-06-03T13:58:43.469249964Z</time>
      </trkpt>
      <trkpt lat="42.89267" lon="2.21754">
        <ele>433.47</ele>
        <time>2026-06-03T13:58:44.459125042Z</time>
      </trkpt>
      <trkpt lat="42.89266" lon="2.21757">
        <ele>432.84</ele>
        <time>2026-06-03T13:58:45.478276014Z</time>
      </trkpt>
      <trkpt lat="42.89265" lon="2.2176">
        <ele>432.22</ele>
        <time>2026-06-03T13:58:46.437327981Z</time>
      </trkpt>
      <trkpt lat="42.89264" lon="2.21763">
        <ele>431.1</ele>
        <time>2026-06-03T13:58:48.476588011Z</time>
      </trkpt>
      <trkpt lat="42.89262" lon="2.21766">
        <ele>430.42</ele>
        <time>2026-06-03T13:58:49.468798041Z</time>
      </trkpt>
      <trkpt lat="42.89261" lon="2.21768">
        <ele>429.78</ele>
        <time>2026-06-03T13:58:50.517140031Z</time>
      </trkpt>
      <trkpt lat="42.8926" lon="2.2177">
        <ele>429.17</ele>
        <time>2026-06-03T13:58:51.479058027Z</time>
      </trkpt>
      <trkpt lat="42.89259" lon="2.21771">
        <ele>428.59</ele>
        <time>2026-06-03T13:58:52.469563961Z</time>
      </trkpt>
      <trkpt lat="42.89257" lon="2.21773">
        <ele>428.05</ele>
        <time>2026-06-03T13:58:53.419427991Z</time>
      </trkpt>
      <trkpt lat="42.89256" lon="2.21774">
        <ele>428.05</ele>
        <time>2026-06-03T13:58:54.479694009Z</time>
      </trkpt>
      <trkpt lat="42.89254" lon="2.21778">
        <ele>426.53</ele>
        <time>2026-06-03T13:58:56.397333026Z</time>
      </trkpt>
      <trkpt lat="42.89252" lon="2.21779">
        <ele>426.53</ele>
        <time>2026-06-03T13:58:57.479195952Z</time>
      </trkpt>
      <trkpt lat="42.89251" lon="2.21781">
        <ele>425.49</ele>
        <time>2026-06-03T13:58:58.467525959Z</time>
      </trkpt>
      <trkpt lat="42.89249" lon="2.21782">
        <ele>424.96</ele>
        <time>2026-06-03T13:58:59.517387986Z</time>
      </trkpt>
      <trkpt lat="42.89248" lon="2.21783">
        <ele>424.44</ele>
        <time>2026-06-03T13:59:00.479344964Z</time>
      </trkpt>
      <trkpt lat="42.89246" lon="2.21785">
        <ele>423.91</ele>
        <time>2026-06-03T13:59:01.469395041Z</time>
      </trkpt>
      <trkpt lat="42.89244" lon="2.21786">
        <ele>423.37</ele>
        <time>2026-06-03T13:59:02.459913015Z</time>
      </trkpt>
      <trkpt lat="42.89242" lon="2.21789">
        <ele>422.92</ele>
        <time>2026-06-03T13:59:03.476613045Z</time>
      </trkpt>
      <trkpt lat="42.8924" lon="2.21791">
        <ele>422.46</ele>
        <time>2026-06-03T13:59:04.496747971Z</time>
      </trkpt>
      <trkpt lat="42.89239" lon="2.21795">
        <ele>421.96</ele>
        <time>2026-06-03T13:59:05.516934037Z</time>
      </trkpt>
      <trkpt lat="42.89238" lon="2.21797">
        <ele>421.96</ele>
        <time>2026-06-03T13:59:06.387120962Z</time>
      </trkpt>
      <trkpt lat="42.89237" lon="2.218">
        <ele>420.9</ele>
        <time>2026-06-03T13:59:07.467892051Z</time>
      </trkpt>
      <trkpt lat="42.89236" lon="2.21803">
        <ele>420.34</ele>
        <time>2026-06-03T13:59:08.429736972Z</time>
      </trkpt>
      <trkpt lat="42.89235" lon="2.21806">
        <ele>419.77</ele>
        <time>2026-06-03T13:59:09.476945996Z</time>
      </trkpt>
      <trkpt lat="42.89235" lon="2.21808">
        <ele>419.17</ele>
        <time>2026-06-03T13:59:10.468916059Z</time>
      </trkpt>
      <trkpt lat="42.89235" lon="2.21812">
        <ele>418.55</ele>
        <time>2026-06-03T13:59:11.459761977Z</time>
      </trkpt>
      <trkpt lat="42.89235" lon="2.21815">
        <ele>417.94</ele>
        <time>2026-06-03T13:59:12.479580045Z</time>
      </trkpt>
      <trkpt lat="42.89235" lon="2.21819">
        <ele>417.33</ele>
        <time>2026-06-03T13:59:13.497689962Z</time>
      </trkpt>
      <trkpt lat="42.89235" lon="2.21822">
        <ele>416.73</ele>
        <time>2026-06-03T13:59:14.517925978Z</time>
      </trkpt>
      <trkpt lat="42.89235" lon="2.21826">
        <ele>416.11</ele>
        <time>2026-06-03T13:59:15.479725957Z</time>
      </trkpt>
      <trkpt lat="42.89235" lon="2.21829">
        <ele>415.49</ele>
        <time>2026-06-03T13:59:16.470093966Z</time>
      </trkpt>
      <trkpt lat="42.89236" lon="2.21833">
        <ele>414.87</ele>
        <time>2026-06-03T13:59:17.460013032Z</time>
      </trkpt>
      <trkpt lat="42.89236" lon="2.21836">
        <ele>414.36</ele>
        <time>2026-06-03T13:59:18.479755044Z</time>
      </trkpt>
      <trkpt lat="42.89237" lon="2.21838">
        <ele>414.36</ele>
        <time>2026-06-03T13:59:19.366227031Z</time>
      </trkpt>
      <trkpt lat="42.89238" lon="2.2184">
        <ele>413.35</ele>
        <time>2026-06-03T13:59:20.459947944Z</time>
      </trkpt>
      <trkpt lat="42.89239" lon="2.21842">
        <ele>412.86</ele>
        <time>2026-06-03T13:59:21.479740977Z</time>
      </trkpt>
      <trkpt lat="42.8924" lon="2.21844">
        <ele>412.4</ele>
        <time>2026-06-03T13:59:22.470021009Z</time>
      </trkpt>
      <trkpt lat="42.89241" lon="2.21846">
        <ele>411.94</ele>
        <time>2026-06-03T13:59:23.438110948Z</time>
      </trkpt>
      <trkpt lat="42.89243" lon="2.21848">
        <ele>411.48</ele>
        <time>2026-06-03T13:59:24.477442980Z</time>
      </trkpt>
      <trkpt lat="42.89244" lon="2.2185">
        <ele>411.04</ele>
        <time>2026-06-03T13:59:25.470204949Z</time>
      </trkpt>
      <trkpt lat="42.89246" lon="2.21852">
        <ele>410.61</ele>
        <time>2026-06-03T13:59:26.459954977Z</time>
      </trkpt>
      <trkpt lat="42.89248" lon="2.21855">
        <ele>410.2</ele>
        <time>2026-06-03T13:59:27.478268981Z</time>
      </trkpt>
      <trkpt lat="42.8925" lon="2.21857">
        <ele>409.81</ele>
        <time>2026-06-03T13:59:28.470208049Z</time>
      </trkpt>
      <trkpt lat="42.89252" lon="2.2186">
        <ele>409.43</ele>
        <time>2026-06-03T13:59:29.518303037Z</time>
      </trkpt>
      <trkpt lat="42.89254" lon="2.21863">
        <ele>409.07</ele>
        <time>2026-06-03T13:59:30.477951050Z</time>
      </trkpt>
      <trkpt lat="42.89256" lon="2.21865">
        <ele>408.74</ele>
        <time>2026-06-03T13:59:31.439072013Z</time>
      </trkpt>
      <trkpt lat="42.89258" lon="2.21867">
        <ele>408.44</ele>
        <time>2026-06-03T13:59:32.417469025Z</time>
      </trkpt>
      <trkpt lat="42.89259" lon="2.21869">
        <ele>408.18</ele>
        <time>2026-06-03T13:59:33.477754951Z</time>
      </trkpt>
      <trkpt lat="42.89261" lon="2.21872">
        <ele>407.95</ele>
        <time>2026-06-03T13:59:34.470443964Z</time>
      </trkpt>
      <trkpt lat="42.89263" lon="2.21874">
        <ele>407.75</ele>
        <time>2026-06-03T13:59:35.518550038Z</time>
      </trkpt>
      <trkpt lat="42.89265" lon="2.2188">
        <ele>407.43</ele>
        <time>2026-06-03T13:59:37.437548041Z</time>
      </trkpt>
      <trkpt lat="42.89265" lon="2.21882">
        <ele>407.31</ele>
        <time>2026-06-03T13:59:38.427548051Z</time>
      </trkpt>
      <trkpt lat="42.89265" lon="2.21884">
        <ele>407.2</ele>
        <time>2026-06-03T13:59:39.425500035Z</time>
      </trkpt>
      <trkpt lat="42.89265" lon="2.21887">
        <ele>407.09</ele>
        <time>2026-06-03T13:59:40.553658962Z</time>
      </trkpt>
      <trkpt lat="42.89265" lon="2.21889">
        <ele>406.99</ele>
        <time>2026-06-03T13:59:41.457573056Z</time>
      </trkpt>
      <trkpt lat="42.89265" lon="2.21892">
        <ele>406.99</ele>
        <time>2026-06-03T13:59:42.478356004Z</time>
      </trkpt>
      <trkpt lat="42.89265" lon="2.21894">
        <ele>406.76</ele>
        <time>2026-06-03T13:59:43.470572948Z</time>
      </trkpt>
      <trkpt lat="42.89266" lon="2.21896">
        <ele>406.65</ele>
        <time>2026-06-03T13:59:44.518527031Z</time>
      </trkpt>
      <trkpt lat="42.89267" lon="2.21899">
        <ele>406.55</ele>
        <time>2026-06-03T13:59:45.478332043Z</time>
      </trkpt>
      <trkpt lat="42.89269" lon="2.219">
        <ele>406.46</ele>
        <time>2026-06-03T13:59:46.470515966Z</time>
      </trkpt>
      <trkpt lat="42.89271" lon="2.21901">
        <ele>406.39</ele>
        <time>2026-06-03T13:59:47.460410953Z</time>
      </trkpt>
      <trkpt lat="42.89273" lon="2.21902">
        <ele>406.33</ele>
        <time>2026-06-03T13:59:48.480378985Z</time>
      </trkpt>
      <trkpt lat="42.89275" lon="2.21903">
        <ele>406.17</ele>
        <time>2026-06-03T13:59:49.470842957Z</time>
      </trkpt>
      <trkpt lat="42.89277" lon="2.21905">
        <ele>406.04</ele>
        <time>2026-06-03T13:59:50.519665956Z</time>
      </trkpt>
      <trkpt lat="42.89279" lon="2.21907">
        <ele>405.94</ele>
        <time>2026-06-03T13:59:51.478471994Z</time>
      </trkpt>
      <trkpt lat="42.89281" lon="2.21909">
        <ele>405.86</ele>
        <time>2026-06-03T13:59:52.470693946Z</time>
      </trkpt>
      <trkpt lat="42.89282" lon="2.21911">
        <ele>405.81</ele>
        <time>2026-06-03T13:59:53.458552957Z</time>
      </trkpt>
      <trkpt lat="42.89283" lon="2.21912">
        <ele>405.81</ele>
        <time>2026-06-03T13:59:54.480988979Z</time>
      </trkpt>
      <trkpt lat="42.89284" lon="2.21914">
        <ele>405.76</ele>
        <time>2026-06-03T13:59:55.468698978Z</time>
      </trkpt>
      <trkpt lat="42.89285" lon="2.21916">
        <ele>405.76</ele>
        <time>2026-06-03T13:59:56.518941998Z</time>
      </trkpt>
      <trkpt lat="42.89288" lon="2.2192">
        <ele>405.78</ele>
        <time>2026-06-03T13:59:58.438727021Z</time>
      </trkpt>
      <trkpt lat="42.89289" lon="2.21922">
        <ele>405.8</ele>
        <time>2026-06-03T13:59:59.458711028Z</time>
      </trkpt>
      <trkpt lat="42.8929" lon="2.21923">
        <ele>405.83</ele>
        <time>2026-06-03T14:00:00.480429053Z</time>
      </trkpt>
      <trkpt lat="42.89291" lon="2.21924">
        <ele>405.86</ele>
        <time>2026-06-03T14:00:01.468628049Z</time>
      </trkpt>
      <trkpt lat="42.89293" lon="2.21926">
        <ele>405.88</ele>
        <time>2026-06-03T14:00:02.449004054Z</time>
      </trkpt>
      <trkpt lat="42.89294" lon="2.21928">
        <ele>405.88</ele>
        <time>2026-06-03T14:00:03.479367971Z</time>
      </trkpt>
      <trkpt lat="42.89296" lon="2.21929">
        <ele>405.95</ele>
        <time>2026-06-03T14:00:04.451864004Z</time>
      </trkpt>
      <trkpt lat="42.89296" lon="2.21931">
        <ele>406</ele>
        <time>2026-06-03T14:00:05.458878040Z</time>
      </trkpt>
      <trkpt lat="42.89297" lon="2.21933">
        <ele>406.06</ele>
        <time>2026-06-03T14:00:06.479189992Z</time>
      </trkpt>
      <trkpt lat="42.89298" lon="2.21936">
        <ele>406.12</ele>
        <time>2026-06-03T14:00:07.468286037Z</time>
      </trkpt>
      <trkpt lat="42.89299" lon="2.21939">
        <ele>406.2</ele>
        <time>2026-06-03T14:00:08.458713055Z</time>
      </trkpt>
      <trkpt lat="42.893" lon="2.21942">
        <ele>406.29</ele>
        <time>2026-06-03T14:00:09.479923964Z</time>
      </trkpt>
      <trkpt lat="42.89301" lon="2.21946">
        <ele>406.39</ele>
        <time>2026-06-03T14:00:10.468894005Z</time>
      </trkpt>
      <trkpt lat="42.89301" lon="2.21949">
        <ele>406.5</ele>
        <time>2026-06-03T14:00:11.458706021Z</time>
      </trkpt>
      <trkpt lat="42.89302" lon="2.21953">
        <ele>406.63</ele>
        <time>2026-06-03T14:00:12.478721023Z</time>
      </trkpt>
      <trkpt lat="42.89302" lon="2.21955">
        <ele>406.77</ele>
        <time>2026-06-03T14:00:13.470950961Z</time>
      </trkpt>
      <trkpt lat="42.89303" lon="2.21959">
        <ele>406.91</ele>
        <time>2026-06-03T14:00:14.461169004Z</time>
      </trkpt>
      <trkpt lat="42.89303" lon="2.21963">
        <ele>407.05</ele>
        <time>2026-06-03T14:00:15.478767991Z</time>
      </trkpt>
      <trkpt lat="42.89302" lon="2.21967">
        <ele>407.2</ele>
        <time>2026-06-03T14:00:16.469403982Z</time>
      </trkpt>
      <trkpt lat="42.89302" lon="2.2197">
        <ele>407.33</ele>
        <time>2026-06-03T14:00:17.458773017Z</time>
      </trkpt>
      <trkpt lat="42.89302" lon="2.21974">
        <ele>407.46</ele>
        <time>2026-06-03T14:00:18.417850018Z</time>
      </trkpt>
      <trkpt lat="42.89302" lon="2.21977">
        <ele>407.59</ele>
        <time>2026-06-03T14:00:19.470160961Z</time>
      </trkpt>
      <trkpt lat="42.89301" lon="2.21981">
        <ele>407.72</ele>
        <time>2026-06-03T14:00:20.405200958Z</time>
      </trkpt>
      <trkpt lat="42.89301" lon="2.21984">
        <ele>407.85</ele>
        <time>2026-06-03T14:00:21.478430033Z</time>
      </trkpt>
      <trkpt lat="42.89299" lon="2.21988">
        <ele>407.97</ele>
        <time>2026-06-03T14:00:22.416502953Z</time>
      </trkpt>
      <trkpt lat="42.89298" lon="2.21992">
        <ele>408.09</ele>
        <time>2026-06-03T14:00:23.460824966Z</time>
      </trkpt>
      <trkpt lat="42.89297" lon="2.21995">
        <ele>408.21</ele>
        <time>2026-06-03T14:00:24.478788972Z</time>
      </trkpt>
      <trkpt lat="42.89296" lon="2.21999">
        <ele>408.33</ele>
        <time>2026-06-03T14:00:25.468477964Z</time>
      </trkpt>
      <trkpt lat="42.89294" lon="2.22003">
        <ele>408.46</ele>
        <time>2026-06-03T14:00:26.460834026Z</time>
      </trkpt>
      <trkpt lat="42.89294" lon="2.22006">
        <ele>408.59</ele>
        <time>2026-06-03T14:00:27.479572058Z</time>
      </trkpt>
      <trkpt lat="42.89293" lon="2.2201">
        <ele>408.72</ele>
        <time>2026-06-03T14:00:28.367478967Z</time>
      </trkpt>
      <trkpt lat="42.89292" lon="2.22014">
        <ele>408.87</ele>
        <time>2026-06-03T14:00:29.429087996Z</time>
      </trkpt>
      <trkpt lat="42.89291" lon="2.22018">
        <ele>409.02</ele>
        <time>2026-06-03T14:00:30.419410944Z</time>
      </trkpt>
      <trkpt lat="42.8929" lon="2.22022">
        <ele>409.19</ele>
        <time>2026-06-03T14:00:31.437955022Z</time>
      </trkpt>
      <trkpt lat="42.89289" lon="2.22026">
        <ele>409.34</ele>
        <time>2026-06-03T14:00:32.459638953Z</time>
      </trkpt>
      <trkpt lat="42.89287" lon="2.22031">
        <ele>409.5</ele>
        <time>2026-06-03T14:00:33.478865981Z</time>
      </trkpt>
      <trkpt lat="42.89286" lon="2.22034">
        <ele>409.68</ele>
        <time>2026-06-03T14:00:34.471773982Z</time>
      </trkpt>
      <trkpt lat="42.89285" lon="2.22038">
        <ele>409.86</ele>
        <time>2026-06-03T14:00:35.519227028Z</time>
      </trkpt>
      <trkpt lat="42.89284" lon="2.22042">
        <ele>410.06</ele>
        <time>2026-06-03T14:00:36.420794010Z</time>
      </trkpt>
      <trkpt lat="42.89283" lon="2.22046">
        <ele>410.26</ele>
        <time>2026-06-03T14:00:37.433820963Z</time>
      </trkpt>
      <trkpt lat="42.89283" lon="2.2205">
        <ele>410.46</ele>
        <time>2026-06-03T14:00:38.459210992Z</time>
      </trkpt>
      <trkpt lat="42.89282" lon="2.22054">
        <ele>410.67</ele>
        <time>2026-06-03T14:00:39.479382992Z</time>
      </trkpt>
      <trkpt lat="42.89281" lon="2.22059">
        <ele>410.86</ele>
        <time>2026-06-03T14:00:40.439021945Z</time>
      </trkpt>
      <trkpt lat="42.8928" lon="2.22064">
        <ele>411.06</ele>
        <time>2026-06-03T14:00:41.461416960Z</time>
      </trkpt>
      <trkpt lat="42.89279" lon="2.22067">
        <ele>411.25</ele>
        <time>2026-06-03T14:00:42.570734024Z</time>
      </trkpt>
      <trkpt lat="42.89278" lon="2.22071">
        <ele>411.45</ele>
        <time>2026-06-03T14:00:43.383749008Z</time>
      </trkpt>
      <trkpt lat="42.89277" lon="2.22076">
        <ele>411.64</ele>
        <time>2026-06-03T14:00:44.461205006Z</time>
      </trkpt>
      <trkpt lat="42.89276" lon="2.22079">
        <ele>411.83</ele>
        <time>2026-06-03T14:00:45.479001999Z</time>
      </trkpt>
      <trkpt lat="42.89275" lon="2.22084">
        <ele>412.01</ele>
        <time>2026-06-03T14:00:46.471639991Z</time>
      </trkpt>
      <trkpt lat="42.89275" lon="2.22088">
        <ele>412.16</ele>
        <time>2026-06-03T14:00:47.339210987Z</time>
      </trkpt>
      <trkpt lat="42.89273" lon="2.22092">
        <ele>412.32</ele>
        <time>2026-06-03T14:00:48.479225993Z</time>
      </trkpt>
      <trkpt lat="42.89273" lon="2.22096">
        <ele>412.34</ele>
        <time>2026-06-03T14:00:49.439736962Z</time>
      </trkpt>
      <trkpt lat="42.89272" lon="2.221">
        <ele>412.38</ele>
        <time>2026-06-03T14:00:50.519258976Z</time>
      </trkpt>
      <trkpt lat="42.89271" lon="2.22104">
        <ele>412.43</ele>
        <time>2026-06-03T14:00:51.408779979Z</time>
      </trkpt>
      <trkpt lat="42.8927" lon="2.22109">
        <ele>412.5</ele>
        <time>2026-06-03T14:00:52.450531006Z</time>
      </trkpt>
      <trkpt lat="42.89269" lon="2.22112">
        <ele>412.59</ele>
        <time>2026-06-03T14:00:53.460029006Z</time>
      </trkpt>
      <trkpt lat="42.89268" lon="2.22116">
        <ele>412.69</ele>
        <time>2026-06-03T14:00:54.479622960Z</time>
      </trkpt>
      <trkpt lat="42.89267" lon="2.22121">
        <ele>412.81</ele>
        <time>2026-06-03T14:00:55.439578056Z</time>
      </trkpt>
      <trkpt lat="42.89267" lon="2.22124">
        <ele>412.94</ele>
        <time>2026-06-03T14:00:56.461449027Z</time>
      </trkpt>
      <trkpt lat="42.89266" lon="2.22129">
        <ele>413.08</ele>
        <time>2026-06-03T14:00:57.418717027Z</time>
      </trkpt>
      <trkpt lat="42.89265" lon="2.22134">
        <ele>413.23</ele>
        <time>2026-06-03T14:00:58.439746976Z</time>
      </trkpt>
      <trkpt lat="42.89265" lon="2.22138">
        <ele>413.4</ele>
        <time>2026-06-03T14:00:59.412683964Z</time>
      </trkpt>
      <trkpt lat="42.89264" lon="2.22143">
        <ele>413.57</ele>
        <time>2026-06-03T14:01:00.419801950Z</time>
      </trkpt>
      <trkpt lat="42.89264" lon="2.22147">
        <ele>413.75</ele>
        <time>2026-06-03T14:01:01.472023964Z</time>
      </trkpt>
      <trkpt lat="42.89264" lon="2.22151">
        <ele>413.91</ele>
        <time>2026-06-03T14:01:02.461707950Z</time>
      </trkpt>
      <trkpt lat="42.89264" lon="2.22155">
        <ele>414.08</ele>
        <time>2026-06-03T14:01:03.479815006Z</time>
      </trkpt>
      <trkpt lat="42.89264" lon="2.2216">
        <ele>414.26</ele>
        <time>2026-06-03T14:01:04.438941002Z</time>
      </trkpt>
      <trkpt lat="42.89265" lon="2.22164">
        <ele>414.46</ele>
        <time>2026-06-03T14:01:05.523787022Z</time>
      </trkpt>
      <trkpt lat="42.89265" lon="2.22169">
        <ele>414.66</ele>
        <time>2026-06-03T14:01:06.391420007Z</time>
      </trkpt>
      <trkpt lat="42.89266" lon="2.22173">
        <ele>414.86</ele>
        <time>2026-06-03T14:01:07.444234967Z</time>
      </trkpt>
      <trkpt lat="42.89267" lon="2.22177">
        <ele>415.07</ele>
        <time>2026-06-03T14:01:08.461627960Z</time>
      </trkpt>
      <trkpt lat="42.89268" lon="2.22181">
        <ele>415.27</ele>
        <time>2026-06-03T14:01:09.479601026Z</time>
      </trkpt>
      <trkpt lat="42.89269" lon="2.22185">
        <ele>415.48</ele>
        <time>2026-06-03T14:01:10.499372005Z</time>
      </trkpt>
      <trkpt lat="42.8927" lon="2.22189">
        <ele>415.7</ele>
        <time>2026-06-03T14:01:11.460924029Z</time>
      </trkpt>
      <trkpt lat="42.89271" lon="2.22193">
        <ele>415.91</ele>
        <time>2026-06-03T14:01:12.419857979Z</time>
      </trkpt>
      <trkpt lat="42.89273" lon="2.22198">
        <ele>416.13</ele>
        <time>2026-06-03T14:01:13.455461025Z</time>
      </trkpt>
      <trkpt lat="42.89273" lon="2.22202">
        <ele>416.35</ele>
        <time>2026-06-03T14:01:14.459704995Z</time>
      </trkpt>
      <trkpt lat="42.89275" lon="2.22206">
        <ele>416.57</ele>
        <time>2026-06-03T14:01:15.479908943Z</time>
      </trkpt>
      <trkpt lat="42.89276" lon="2.2221">
        <ele>416.78</ele>
        <time>2026-06-03T14:01:16.499994040Z</time>
      </trkpt>
      <trkpt lat="42.89277" lon="2.22214">
        <ele>416.97</ele>
        <time>2026-06-03T14:01:17.461300969Z</time>
      </trkpt>
      <trkpt lat="42.89278" lon="2.22219">
        <ele>417.15</ele>
        <time>2026-06-03T14:01:18.480669975Z</time>
      </trkpt>
      <trkpt lat="42.89279" lon="2.22223">
        <ele>417.33</ele>
        <time>2026-06-03T14:01:19.450544953Z</time>
      </trkpt>
      <trkpt lat="42.89281" lon="2.22227">
        <ele>417.51</ele>
        <time>2026-06-03T14:01:20.461644053Z</time>
      </trkpt>
      <trkpt lat="42.89282" lon="2.2223">
        <ele>417.68</ele>
        <time>2026-06-03T14:01:21.479236007Z</time>
      </trkpt>
      <trkpt lat="42.89283" lon="2.22234">
        <ele>417.85</ele>
        <time>2026-06-03T14:01:22.471565008Z</time>
      </trkpt>
      <trkpt lat="42.89284" lon="2.22236">
        <ele>418.03</ele>
        <time>2026-06-03T14:01:23.459905028Z</time>
      </trkpt>
      <trkpt lat="42.89285" lon="2.2224">
        <ele>418.21</ele>
        <time>2026-06-03T14:01:24.480671048Z</time>
      </trkpt>
      <trkpt lat="42.89286" lon="2.22244">
        <ele>418.4</ele>
        <time>2026-06-03T14:01:25.439954996Z</time>
      </trkpt>
      <trkpt lat="42.89288" lon="2.22249">
        <ele>418.6</ele>
        <time>2026-06-03T14:01:26.360581040Z</time>
      </trkpt>
      <trkpt lat="42.89289" lon="2.22252">
        <ele>418.81</ele>
        <time>2026-06-03T14:01:27.479531050Z</time>
      </trkpt>
      <trkpt lat="42.89289" lon="2.22256">
        <ele>419.02</ele>
        <time>2026-06-03T14:01:28.500200987Z</time>
      </trkpt>
      <trkpt lat="42.8929" lon="2.2226">
        <ele>419.23</ele>
        <time>2026-06-03T14:01:29.462422967Z</time>
      </trkpt>
      <trkpt lat="42.89291" lon="2.22264">
        <ele>419.44</ele>
        <time>2026-06-03T14:01:30.480443001Z</time>
      </trkpt>
      <trkpt lat="42.89293" lon="2.22268">
        <ele>419.62</ele>
        <time>2026-06-03T14:01:31.440719962Z</time>
      </trkpt>
      <trkpt lat="42.89294" lon="2.22272">
        <ele>419.8</ele>
        <time>2026-06-03T14:01:32.462015986Z</time>
      </trkpt>
      <trkpt lat="42.89295" lon="2.22276">
        <ele>419.98</ele>
        <time>2026-06-03T14:01:33.480548024Z</time>
      </trkpt>
      <trkpt lat="42.89296" lon="2.2228">
        <ele>420.15</ele>
        <time>2026-06-03T14:01:34.440191984Z</time>
      </trkpt>
      <trkpt lat="42.89297" lon="2.22283">
        <ele>420.34</ele>
        <time>2026-06-03T14:01:35.404294968Z</time>
      </trkpt>
      <trkpt lat="42.89299" lon="2.22287">
        <ele>420.53</ele>
        <time>2026-06-03T14:01:36.413792014Z</time>
      </trkpt>
      <trkpt lat="42.89299" lon="2.22292">
        <ele>420.72</ele>
        <time>2026-06-03T14:01:37.487841010Z</time>
      </trkpt>
      <trkpt lat="42.893" lon="2.22296">
        <ele>420.91</ele>
        <time>2026-06-03T14:01:38.460073948Z</time>
      </trkpt>
      <trkpt lat="42.89301" lon="2.22301">
        <ele>421.11</ele>
        <time>2026-06-03T14:01:39.420140028Z</time>
      </trkpt>
      <trkpt lat="42.89302" lon="2.22304">
        <ele>421.31</ele>
        <time>2026-06-03T14:01:40.440446973Z</time>
      </trkpt>
      <trkpt lat="42.89303" lon="2.22308">
        <ele>421.51</ele>
        <time>2026-06-03T14:01:41.461513042Z</time>
      </trkpt>
      <trkpt lat="42.89304" lon="2.22312">
        <ele>421.72</ele>
        <time>2026-06-03T14:01:42.419553041Z</time>
      </trkpt>
      <trkpt lat="42.89305" lon="2.22316">
        <ele>421.93</ele>
        <time>2026-06-03T14:01:43.561156034Z</time>
      </trkpt>
      <trkpt lat="42.89306" lon="2.22319">
        <ele>422.14</ele>
        <time>2026-06-03T14:01:44.461115003Z</time>
      </trkpt>
      <trkpt lat="42.89307" lon="2.22323">
        <ele>422.36</ele>
        <time>2026-06-03T14:01:45.480674028Z</time>
      </trkpt>
      <trkpt lat="42.89308" lon="2.22327">
        <ele>422.55</ele>
        <time>2026-06-03T14:01:46.500684977Z</time>
      </trkpt>
      <trkpt lat="42.89309" lon="2.22331">
        <ele>422.74</ele>
        <time>2026-06-03T14:01:47.460739970Z</time>
      </trkpt>
      <trkpt lat="42.89309" lon="2.22335">
        <ele>422.94</ele>
        <time>2026-06-03T14:01:48.480731010Z</time>
      </trkpt>
      <trkpt lat="42.89309" lon="2.22339">
        <ele>423.18</ele>
        <time>2026-06-03T14:01:49.500918984Z</time>
      </trkpt>
      <trkpt lat="42.89309" lon="2.22343">
        <ele>423.41</ele>
        <time>2026-06-03T14:01:50.461964965Z</time>
      </trkpt>
      <trkpt lat="42.89307" lon="2.22348">
        <ele>423.65</ele>
        <time>2026-06-03T14:01:51.480466962Z</time>
      </trkpt>
      <trkpt lat="42.89306" lon="2.22351">
        <ele>423.88</ele>
        <time>2026-06-03T14:01:52.441439033Z</time>
      </trkpt>
      <trkpt lat="42.89305" lon="2.22354">
        <ele>424.11</ele>
        <time>2026-06-03T14:01:53.461022973Z</time>
      </trkpt>
      <trkpt lat="42.89304" lon="2.22358">
        <ele>424.33</ele>
        <time>2026-06-03T14:01:54.480605006Z</time>
      </trkpt>
      <trkpt lat="42.89302" lon="2.22362">
        <ele>424.55</ele>
        <time>2026-06-03T14:01:55.502912045Z</time>
      </trkpt>
      <trkpt lat="42.89301" lon="2.22365">
        <ele>424.77</ele>
        <time>2026-06-03T14:01:56.462422967Z</time>
      </trkpt>
      <trkpt lat="42.893" lon="2.22369">
        <ele>424.98</ele>
        <time>2026-06-03T14:01:57.480726004Z</time>
      </trkpt>
      <trkpt lat="42.89299" lon="2.22373">
        <ele>425.18</ele>
        <time>2026-06-03T14:01:58.500813007Z</time>
      </trkpt>
      <trkpt lat="42.89298" lon="2.22377">
        <ele>425.37</ele>
        <time>2026-06-03T14:01:59.399145961Z</time>
      </trkpt>
      <trkpt lat="42.89296" lon="2.2238">
        <ele>425.57</ele>
        <time>2026-06-03T14:02:00.480710030Z</time>
      </trkpt>
      <trkpt lat="42.89294" lon="2.22383">
        <ele>425.74</ele>
        <time>2026-06-03T14:02:01.501176Z</time>
      </trkpt>
      <trkpt lat="42.89292" lon="2.22384">
        <ele>425.91</ele>
        <time>2026-06-03T14:02:02.462641001Z</time>
      </trkpt>
      <trkpt lat="42.8929" lon="2.22386">
        <ele>426.08</ele>
        <time>2026-06-03T14:02:03.424155951Z</time>
      </trkpt>
      <trkpt lat="42.89287" lon="2.22386">
        <ele>426.27</ele>
        <time>2026-06-03T14:02:04.442152023Z</time>
      </trkpt>
      <trkpt lat="42.89285" lon="2.22387">
        <ele>426.45</ele>
        <time>2026-06-03T14:02:05.461151004Z</time>
      </trkpt>
      <trkpt lat="42.89282" lon="2.22387">
        <ele>426.64</ele>
        <time>2026-06-03T14:02:06.421136975Z</time>
      </trkpt>
      <trkpt lat="42.8928" lon="2.22387">
        <ele>426.83</ele>
        <time>2026-06-03T14:02:07.380861998Z</time>
      </trkpt>
      <trkpt lat="42.89277" lon="2.22387">
        <ele>427.01</ele>
        <time>2026-06-03T14:02:08.460494041Z</time>
      </trkpt>
      <trkpt lat="42.8929" lon="2.22387">
        <ele>427.01</ele>
        <time>2026-06-03T14:02:15.425483942Z</time>
      </trkpt>
      <trkpt lat="42.89273" lon="2.22385">
        <ele>428.03</ele>
        <time>2026-06-03T14:02:16.381098032Z</time>
      </trkpt>
      <trkpt lat="42.89266" lon="2.22383">
        <ele>428.22</ele>
        <time>2026-06-03T14:02:17.468376994Z</time>
      </trkpt>
      <trkpt lat="42.89264" lon="2.22382">
        <ele>428.36</ele>
        <time>2026-06-03T14:02:18.425511003Z</time>
      </trkpt>
      <trkpt lat="42.89262" lon="2.22381">
        <ele>428.51</ele>
        <time>2026-06-03T14:02:19.386203051Z</time>
      </trkpt>
      <trkpt lat="42.89259" lon="2.2238">
        <ele>428.65</ele>
        <time>2026-06-03T14:02:20.403166056Z</time>
      </trkpt>
      <trkpt lat="42.89256" lon="2.22378">
        <ele>428.78</ele>
        <time>2026-06-03T14:02:21.480775952Z</time>
      </trkpt>
      <trkpt lat="42.89254" lon="2.22377">
        <ele>428.94</ele>
        <time>2026-06-03T14:02:22.381991029Z</time>
      </trkpt>
      <trkpt lat="42.89252" lon="2.22376">
        <ele>429.12</ele>
        <time>2026-06-03T14:02:23.640660048Z</time>
      </trkpt>
      <trkpt lat="42.8925" lon="2.22374">
        <ele>429.32</ele>
        <time>2026-06-03T14:02:24.540727973Z</time>
      </trkpt>
      <trkpt lat="42.89248" lon="2.22372">
        <ele>429.53</ele>
        <time>2026-06-03T14:02:25.450193048Z</time>
      </trkpt>
      <trkpt lat="42.89245" lon="2.22369">
        <ele>429.76</ele>
        <time>2026-06-03T14:02:26.481210947Z</time>
      </trkpt>
      <trkpt lat="42.89243" lon="2.22368">
        <ele>430.01</ele>
        <time>2026-06-03T14:02:27.545202971Z</time>
      </trkpt>
      <trkpt lat="42.89241" lon="2.22366">
        <ele>430.27</ele>
        <time>2026-06-03T14:02:28.441135049Z</time>
      </trkpt>
      <trkpt lat="42.89239" lon="2.22364">
        <ele>430.54</ele>
        <time>2026-06-03T14:02:29.400653958Z</time>
      </trkpt>
      <trkpt lat="42.89236" lon="2.22363">
        <ele>430.83</ele>
        <time>2026-06-03T14:02:30.421108961Z</time>
      </trkpt>
      <trkpt lat="42.89233" lon="2.22362">
        <ele>431.12</ele>
        <time>2026-06-03T14:02:31.394157052Z</time>
      </trkpt>
      <trkpt lat="42.8923" lon="2.22361">
        <ele>431.42</ele>
        <time>2026-06-03T14:02:32.401018977Z</time>
      </trkpt>
      <trkpt lat="42.89228" lon="2.2236">
        <ele>431.72</ele>
        <time>2026-06-03T14:02:33.541105986Z</time>
      </trkpt>
      <trkpt lat="42.89225" lon="2.22359">
        <ele>432.03</ele>
        <time>2026-06-03T14:02:34.500610948Z</time>
      </trkpt>
      <trkpt lat="42.89222" lon="2.22358">
        <ele>432.29</ele>
        <time>2026-06-03T14:02:35.404418945Z</time>
      </trkpt>
      <trkpt lat="42.89219" lon="2.22357">
        <ele>432.56</ele>
        <time>2026-06-03T14:02:36.426038027Z</time>
      </trkpt>
      <trkpt lat="42.89215" lon="2.22357">
        <ele>432.83</ele>
        <time>2026-06-03T14:02:37.500323057Z</time>
      </trkpt>
      <trkpt lat="42.89213" lon="2.22357">
        <ele>433.11</ele>
        <time>2026-06-03T14:02:38.521643996Z</time>
      </trkpt>
      <trkpt lat="42.8921" lon="2.22357">
        <ele>433.39</ele>
        <time>2026-06-03T14:02:39.660750985Z</time>
      </trkpt>
      <trkpt lat="42.89208" lon="2.22357">
        <ele>433.66</ele>
        <time>2026-06-03T14:02:40.383286953Z</time>
      </trkpt>
      <trkpt lat="42.89205" lon="2.22357">
        <ele>433.93</ele>
        <time>2026-06-03T14:02:41.401275992Z</time>
      </trkpt>
      <trkpt lat="42.89202" lon="2.22357">
        <ele>434.19</ele>
        <time>2026-06-03T14:02:42.425901055Z</time>
      </trkpt>
      <trkpt lat="42.89199" lon="2.22357">
        <ele>434.45</ele>
        <time>2026-06-03T14:02:43.381329060Z</time>
      </trkpt>
      <trkpt lat="42.89196" lon="2.22356">
        <ele>434.7</ele>
        <time>2026-06-03T14:02:44.360767007Z</time>
      </trkpt>
      <trkpt lat="42.89194" lon="2.22356">
        <ele>434.94</ele>
        <time>2026-06-03T14:02:45.580847979Z</time>
      </trkpt>
      <trkpt lat="42.8919" lon="2.22355">
        <ele>435.18</ele>
        <time>2026-06-03T14:02:46.381203055Z</time>
      </trkpt>
      <trkpt lat="42.89187" lon="2.22355">
        <ele>435.4</ele>
        <time>2026-06-03T14:02:47.640751004Z</time>
      </trkpt>
      <trkpt lat="42.89185" lon="2.22356">
        <ele>435.62</ele>
        <time>2026-06-03T14:02:48.601645947Z</time>
      </trkpt>
      <trkpt lat="42.89182" lon="2.22358">
        <ele>435.83</ele>
        <time>2026-06-03T14:02:49.382629037Z</time>
      </trkpt>
      <trkpt lat="42.8918" lon="2.2236">
        <ele>436.02</ele>
        <time>2026-06-03T14:02:50.401303053Z</time>
      </trkpt>
      <trkpt lat="42.89177" lon="2.22363">
        <ele>436.2</ele>
        <time>2026-06-03T14:02:51.364822984Z</time>
      </trkpt>
      <trkpt lat="42.89175" lon="2.22366">
        <ele>436.4</ele>
        <time>2026-06-03T14:02:52.381260991Z</time>
      </trkpt>
      <trkpt lat="42.89174" lon="2.22369">
        <ele>436.74</ele>
        <time>2026-06-03T14:02:53.520917058Z</time>
      </trkpt>
      <trkpt lat="42.89172" lon="2.22372">
        <ele>437.1</ele>
        <time>2026-06-03T14:02:54.355733037Z</time>
      </trkpt>
      <trkpt lat="42.8917" lon="2.22374">
        <ele>437.46</ele>
        <time>2026-06-03T14:02:55.429659009Z</time>
      </trkpt>
      <trkpt lat="42.89168" lon="2.22377">
        <ele>437.83</ele>
        <time>2026-06-03T14:02:56.401327014Z</time>
      </trkpt>
      <trkpt lat="42.89166" lon="2.22378">
        <ele>438.22</ele>
        <time>2026-06-03T14:02:57.430788994Z</time>
      </trkpt>
      <trkpt lat="42.89165" lon="2.22381">
        <ele>438.62</ele>
        <time>2026-06-03T14:02:58.380604029Z</time>
      </trkpt>
      <trkpt lat="42.89164" lon="2.22383">
        <ele>439.01</ele>
        <time>2026-06-03T14:02:59.401327014Z</time>
      </trkpt>
      <trkpt lat="42.89163" lon="2.22387">
        <ele>439.77</ele>
        <time>2026-06-03T14:03:01.501314998Z</time>
      </trkpt>
      <trkpt lat="42.89164" lon="2.2239">
        <ele>440.43</ele>
        <time>2026-06-03T14:03:03.363752007Z</time>
      </trkpt>
      <trkpt lat="42.89164" lon="2.22392">
        <ele>440.43</ele>
        <time>2026-06-03T14:03:05.401388049Z</time>
      </trkpt>
      <trkpt lat="42.89162" lon="2.22395">
        <ele>441.16</ele>
        <time>2026-06-03T14:03:08.341897964Z</time>
      </trkpt>
      <trkpt lat="42.89161" lon="2.22398">
        <ele>441.69</ele>
        <time>2026-06-03T14:03:10.445940971Z</time>
      </trkpt>
      <trkpt lat="42.89161" lon="2.22399">
        <ele>441.69</ele>
        <time>2026-06-03T14:03:11.401803017Z</time>
      </trkpt>
      <trkpt lat="42.8916" lon="2.22402">
        <ele>441.83</ele>
        <time>2026-06-03T14:03:12.436241984Z</time>
      </trkpt>
      <trkpt lat="42.8916" lon="2.22404">
        <ele>441.83</ele>
        <time>2026-06-03T14:03:13.381654978Z</time>
      </trkpt>
      <trkpt lat="42.8916" lon="2.22407">
        <ele>441.92</ele>
        <time>2026-06-03T14:03:14.401136041Z</time>
      </trkpt>
      <trkpt lat="42.89159" lon="2.2241">
        <ele>441.96</ele>
        <time>2026-06-03T14:03:15.422286034Z</time>
      </trkpt>
      <trkpt lat="42.89159" lon="2.22413">
        <ele>442</ele>
        <time>2026-06-03T14:03:16.385256052Z</time>
      </trkpt>
      <trkpt lat="42.89159" lon="2.22416">
        <ele>442.03</ele>
        <time>2026-06-03T14:03:17.421901941Z</time>
      </trkpt>
      <trkpt lat="42.8916" lon="2.22419">
        <ele>442.06</ele>
        <time>2026-06-03T14:03:18.361776948Z</time>
      </trkpt>
      <trkpt lat="42.89159" lon="2.22422">
        <ele>442.09</ele>
        <time>2026-06-03T14:03:19.561934948Z</time>
      </trkpt>
      <trkpt lat="42.8916" lon="2.22426">
        <ele>442.12</ele>
        <time>2026-06-03T14:03:20.404041052Z</time>
      </trkpt>
      <trkpt lat="42.8916" lon="2.2243">
        <ele>442.14</ele>
        <time>2026-06-03T14:03:21.380028963Z</time>
      </trkpt>
      <trkpt lat="42.8916" lon="2.22432">
        <ele>442.17</ele>
        <time>2026-06-03T14:03:22.681650043Z</time>
      </trkpt>
      <trkpt lat="42.8916" lon="2.22435">
        <ele>442.2</ele>
        <time>2026-06-03T14:03:23.401929975Z</time>
      </trkpt>
      <trkpt lat="42.8916" lon="2.22439">
        <ele>442.24</ele>
        <time>2026-06-03T14:03:24.601338983Z</time>
      </trkpt>
      <trkpt lat="42.8916" lon="2.22442">
        <ele>442.29</ele>
        <time>2026-06-03T14:03:25.441853046Z</time>
      </trkpt>
      <trkpt lat="42.89161" lon="2.22445">
        <ele>442.34</ele>
        <time>2026-06-03T14:03:26.401715040Z</time>
      </trkpt>
      <trkpt lat="42.89161" lon="2.22448">
        <ele>442.4</ele>
        <time>2026-06-03T14:03:27.453999996Z</time>
      </trkpt>
      <trkpt lat="42.89161" lon="2.22451">
        <ele>442.47</ele>
        <time>2026-06-03T14:03:28.674168944Z</time>
      </trkpt>
      <trkpt lat="42.89161" lon="2.22454">
        <ele>442.54</ele>
        <time>2026-06-03T14:03:29.401919007Z</time>
      </trkpt>
      <trkpt lat="42.89161" lon="2.22459">
        <ele>442.61</ele>
        <time>2026-06-03T14:03:30.421880007Z</time>
      </trkpt>
      <trkpt lat="42.89162" lon="2.22463">
        <ele>442.67</ele>
        <time>2026-06-03T14:03:31.396178961Z</time>
      </trkpt>
      <trkpt lat="42.89162" lon="2.22468">
        <ele>442.73</ele>
        <time>2026-06-03T14:03:32.369382977Z</time>
      </trkpt>
      <trkpt lat="42.89162" lon="2.22473">
        <ele>442.78</ele>
        <time>2026-06-03T14:03:33.481739044Z</time>
      </trkpt>
      <trkpt lat="42.89161" lon="2.22479">
        <ele>442.81</ele>
        <time>2026-06-03T14:03:34.621677041Z</time>
      </trkpt>
      <trkpt lat="42.89161" lon="2.22484">
        <ele>442.84</ele>
        <time>2026-06-03T14:03:35.404031992Z</time>
      </trkpt>
      <trkpt lat="42.89161" lon="2.22489">
        <ele>442.86</ele>
        <time>2026-06-03T14:03:36.421967030Z</time>
      </trkpt>
      <trkpt lat="42.89161" lon="2.22494">
        <ele>442.87</ele>
        <time>2026-06-03T14:03:37.442615986Z</time>
      </trkpt>
      <trkpt lat="42.89161" lon="2.22498">
        <ele>442.86</ele>
        <time>2026-06-03T14:03:38.641620994Z</time>
      </trkpt>
      <trkpt lat="42.89161" lon="2.22502">
        <ele>442.84</ele>
        <time>2026-06-03T14:03:39.404495001Z</time>
      </trkpt>
      <trkpt lat="42.89162" lon="2.22506">
        <ele>442.81</ele>
        <time>2026-06-03T14:03:40.478446960Z</time>
      </trkpt>
      <trkpt lat="42.89163" lon="2.22511">
        <ele>442.77</ele>
        <time>2026-06-03T14:03:41.402053952Z</time>
      </trkpt>
      <trkpt lat="42.89164" lon="2.22515">
        <ele>442.72</ele>
        <time>2026-06-03T14:03:42.616459012Z</time>
      </trkpt>
      <trkpt lat="42.89164" lon="2.2252">
        <ele>442.66</ele>
        <time>2026-06-03T14:03:43.382421017Z</time>
      </trkpt>
      <trkpt lat="42.89165" lon="2.22526">
        <ele>442.6</ele>
        <time>2026-06-03T14:03:44.415315986Z</time>
      </trkpt>
      <trkpt lat="42.89165" lon="2.22531">
        <ele>442.53</ele>
        <time>2026-06-03T14:03:45.664793015Z</time>
      </trkpt>
      <trkpt lat="42.89165" lon="2.22535">
        <ele>442.45</ele>
        <time>2026-06-03T14:03:46.622246981Z</time>
      </trkpt>
      <trkpt lat="42.89164" lon="2.22539">
        <ele>442.36</ele>
        <time>2026-06-03T14:03:47.582784057Z</time>
      </trkpt>
      <trkpt lat="42.89162" lon="2.22543">
        <ele>442.26</ele>
        <time>2026-06-03T14:03:48.722329974Z</time>
      </trkpt>
      <trkpt lat="42.89161" lon="2.22547">
        <ele>442.17</ele>
        <time>2026-06-03T14:03:49.682466030Z</time>
      </trkpt>
      <trkpt lat="42.89159" lon="2.22551">
        <ele>442.07</ele>
        <time>2026-06-03T14:03:50.405400991Z</time>
      </trkpt>
      <trkpt lat="42.89156" lon="2.22555">
        <ele>441.96</ele>
        <time>2026-06-03T14:03:51.422055960Z</time>
      </trkpt>
      <trkpt lat="42.89154" lon="2.22558">
        <ele>441.85</ele>
        <time>2026-06-03T14:03:52.382235050Z</time>
      </trkpt>
      <trkpt lat="42.89153" lon="2.22561">
        <ele>441.62</ele>
        <time>2026-06-03T14:03:53.402258992Z</time>
      </trkpt>
      <trkpt lat="42.89151" lon="2.22564">
        <ele>441.62</ele>
        <time>2026-06-03T14:03:54.361536026Z</time>
      </trkpt>
      <trkpt lat="42.89166" lon="2.22558">
        <ele>441.18</ele>
        <time>2026-06-03T14:06:05.707744956Z</time>
      </trkpt>
      <trkpt lat="42.89155" lon="2.22566">
        <ele>439.32</ele>
        <time>2026-06-03T14:06:07.501948953Z</time>
      </trkpt>
      <trkpt lat="42.89148" lon="2.22572">
        <ele>439.33</ele>
        <time>2026-06-03T14:06:08.522006035Z</time>
      </trkpt>
      <trkpt lat="42.89147" lon="2.22574">
        <ele>439.32</ele>
        <time>2026-06-03T14:06:09.542852998Z</time>
      </trkpt>
      <trkpt lat="42.89145" lon="2.22577">
        <ele>439.32</ele>
        <time>2026-06-03T14:06:10.502717972Z</time>
      </trkpt>
      <trkpt lat="42.89143" lon="2.2258">
        <ele>439.31</ele>
        <time>2026-06-03T14:06:11.404245019Z</time>
      </trkpt>
      <trkpt lat="42.89141" lon="2.22583">
        <ele>439.31</ele>
        <time>2026-06-03T14:06:12.482661963Z</time>
      </trkpt>
      <trkpt lat="42.89139" lon="2.22586">
        <ele>439.3</ele>
        <time>2026-06-03T14:06:13.502923965Z</time>
      </trkpt>
      <trkpt lat="42.89137" lon="2.22589">
        <ele>439.29</ele>
        <time>2026-06-03T14:06:14.522459030Z</time>
      </trkpt>
      <trkpt lat="42.89135" lon="2.22592">
        <ele>439.27</ele>
        <time>2026-06-03T14:06:15.466292977Z</time>
      </trkpt>
      <trkpt lat="42.89133" lon="2.22595">
        <ele>439.24</ele>
        <time>2026-06-03T14:06:16.502552032Z</time>
      </trkpt>
      <trkpt lat="42.89131" lon="2.22598">
        <ele>439.21</ele>
        <time>2026-06-03T14:06:17.522099018Z</time>
      </trkpt>
      <trkpt lat="42.89129" lon="2.22601">
        <ele>439.18</ele>
        <time>2026-06-03T14:06:18.543319941Z</time>
      </trkpt>
      <trkpt lat="42.89127" lon="2.22604">
        <ele>439.15</ele>
        <time>2026-06-03T14:06:19.457780957Z</time>
      </trkpt>
      <trkpt lat="42.89125" lon="2.22608">
        <ele>439.11</ele>
        <time>2026-06-03T14:06:20.521796942Z</time>
      </trkpt>
      <trkpt lat="42.89122" lon="2.22611">
        <ele>439.07</ele>
        <time>2026-06-03T14:06:21.482535005Z</time>
      </trkpt>
      <trkpt lat="42.8912" lon="2.22614">
        <ele>439.04</ele>
        <time>2026-06-03T14:06:22.501896977Z</time>
      </trkpt>
      <trkpt lat="42.89117" lon="2.22617">
        <ele>438.99</ele>
        <time>2026-06-03T14:06:23.521893978Z</time>
      </trkpt>
      <trkpt lat="42.89115" lon="2.22621">
        <ele>438.95</ele>
        <time>2026-06-03T14:06:24.422463059Z</time>
      </trkpt>
      <trkpt lat="42.89113" lon="2.22624">
        <ele>438.9</ele>
        <time>2026-06-03T14:06:25.504222035Z</time>
      </trkpt>
      <trkpt lat="42.8911" lon="2.22627">
        <ele>438.85</ele>
        <time>2026-06-03T14:06:26.410377979Z</time>
      </trkpt>
      <trkpt lat="42.89108" lon="2.2263">
        <ele>438.79</ele>
        <time>2026-06-03T14:06:27.541895986Z</time>
      </trkpt>
      <trkpt lat="42.89106" lon="2.22631">
        <ele>438.73</ele>
        <time>2026-06-03T14:06:28.502872944Z</time>
      </trkpt>
      <trkpt lat="42.89103" lon="2.22634">
        <ele>438.67</ele>
        <time>2026-06-03T14:06:29.408933997Z</time>
      </trkpt>
      <trkpt lat="42.891" lon="2.22635">
        <ele>438.61</ele>
        <time>2026-06-03T14:06:30.482458949Z</time>
      </trkpt>
      <trkpt lat="42.89097" lon="2.22637">
        <ele>438.55</ele>
        <time>2026-06-03T14:06:31.442775011Z</time>
      </trkpt>
      <trkpt lat="42.89094" lon="2.22637">
        <ele>438.49</ele>
        <time>2026-06-03T14:06:32.462964058Z</time>
      </trkpt>
      <trkpt lat="42.89088" lon="2.22638">
        <ele>438.4</ele>
        <time>2026-06-03T14:06:33.482087016Z</time>
      </trkpt>
      <trkpt lat="42.89083" lon="2.22639">
        <ele>438.28</ele>
        <time>2026-06-03T14:06:34.443446040Z</time>
      </trkpt>
      <trkpt lat="42.89078" lon="2.22636">
        <ele>438.12</ele>
        <time>2026-06-03T14:06:35.465145946Z</time>
      </trkpt>
      <trkpt lat="42.89074" lon="2.22634">
        <ele>437.91</ele>
        <time>2026-06-03T14:06:36.423166037Z</time>
      </trkpt>
      <trkpt lat="42.89069" lon="2.22632">
        <ele>437.65</ele>
        <time>2026-06-03T14:06:37.442993045Z</time>
      </trkpt>
      <trkpt lat="42.89064" lon="2.2263">
        <ele>437.32</ele>
        <time>2026-06-03T14:06:38.464812994Z</time>
      </trkpt>
      <trkpt lat="42.89059" lon="2.22628">
        <ele>437.03</ele>
        <time>2026-06-03T14:06:39.434427977Z</time>
      </trkpt>
      <trkpt lat="42.89054" lon="2.22627">
        <ele>436.67</ele>
        <time>2026-06-03T14:06:40.444847941Z</time>
      </trkpt>
      <trkpt lat="42.89048" lon="2.22627">
        <ele>436.24</ele>
        <time>2026-06-03T14:06:41.464694023Z</time>
      </trkpt>
      <trkpt lat="42.89043" lon="2.22627">
        <ele>435.75</ele>
        <time>2026-06-03T14:06:42.428513050Z</time>
      </trkpt>
      <trkpt lat="42.89038" lon="2.22628">
        <ele>435.18</ele>
        <time>2026-06-03T14:06:43.444875002Z</time>
      </trkpt>
      <trkpt lat="42.89032" lon="2.22629">
        <ele>434.54</ele>
        <time>2026-06-03T14:06:44.415048003Z</time>
      </trkpt>
      <trkpt lat="42.89025" lon="2.22631">
        <ele>433.87</ele>
        <time>2026-06-03T14:06:45.423254013Z</time>
      </trkpt>
      <trkpt lat="42.8902" lon="2.22632">
        <ele>433.18</ele>
        <time>2026-06-03T14:06:46.443066955Z</time>
      </trkpt>
      <trkpt lat="42.89014" lon="2.22634">
        <ele>432.45</ele>
        <time>2026-06-03T14:06:47.464890957Z</time>
      </trkpt>
      <trkpt lat="42.89008" lon="2.22635">
        <ele>431.68</ele>
        <time>2026-06-03T14:06:48.422613025Z</time>
      </trkpt>
      <trkpt lat="42.89" lon="2.22635">
        <ele>430.9</ele>
        <time>2026-06-03T14:06:49.443331957Z</time>
      </trkpt>
      <trkpt lat="42.88993" lon="2.22635">
        <ele>430.25</ele>
        <time>2026-06-03T14:06:50.464915037Z</time>
      </trkpt>
      <trkpt lat="42.88985" lon="2.22635">
        <ele>429.57</ele>
        <time>2026-06-03T14:06:51.483872056Z</time>
      </trkpt>
      <trkpt lat="42.88978" lon="2.22636">
        <ele>428.84</ele>
        <time>2026-06-03T14:06:52.444646955Z</time>
      </trkpt>
      <trkpt lat="42.88971" lon="2.22636">
        <ele>428.06</ele>
        <time>2026-06-03T14:06:53.464967966Z</time>
      </trkpt>
      <trkpt lat="42.88963" lon="2.22637">
        <ele>427.41</ele>
        <time>2026-06-03T14:06:54.423161030Z</time>
      </trkpt>
      <trkpt lat="42.88956" lon="2.22639">
        <ele>426.75</ele>
        <time>2026-06-03T14:06:55.443935037Z</time>
      </trkpt>
      <trkpt lat="42.8895" lon="2.2264">
        <ele>426.09</ele>
        <time>2026-06-03T14:06:56.463526011Z</time>
      </trkpt>
      <trkpt lat="42.88945" lon="2.22642">
        <ele>425.42</ele>
        <time>2026-06-03T14:06:57.483319044Z</time>
      </trkpt>
      <trkpt lat="42.8894" lon="2.22642">
        <ele>424.88</ele>
        <time>2026-06-03T14:06:58.451696992Z</time>
      </trkpt>
      <trkpt lat="42.88936" lon="2.22639">
        <ele>424.32</ele>
        <time>2026-06-03T14:06:59.462906003Z</time>
      </trkpt>
      <trkpt lat="42.88933" lon="2.22635">
        <ele>423.61</ele>
        <time>2026-06-03T14:07:00.453060031Z</time>
      </trkpt>
      <trkpt lat="42.88929" lon="2.22629">
        <ele>422.94</ele>
        <time>2026-06-03T14:07:01.443441987Z</time>
      </trkpt>
      <trkpt lat="42.88926" lon="2.22624">
        <ele>422.38</ele>
        <time>2026-06-03T14:07:02.463315964Z</time>
      </trkpt>
      <trkpt lat="42.88922" lon="2.2262">
        <ele>421.85</ele>
        <time>2026-06-03T14:07:03.483268023Z</time>
      </trkpt>
      <trkpt lat="42.88917" lon="2.22617">
        <ele>421.34</ele>
        <time>2026-06-03T14:07:04.444331050Z</time>
      </trkpt>
      <trkpt lat="42.88913" lon="2.22615">
        <ele>420.87</ele>
        <time>2026-06-03T14:07:05.464427948Z</time>
      </trkpt>
      <trkpt lat="42.88908" lon="2.22613">
        <ele>420.48</ele>
        <time>2026-06-03T14:07:06.482946992Z</time>
      </trkpt>
      <trkpt lat="42.88903" lon="2.22611">
        <ele>420.14</ele>
        <time>2026-06-03T14:07:07.443361044Z</time>
      </trkpt>
      <trkpt lat="42.88899" lon="2.22611">
        <ele>419.82</ele>
        <time>2026-06-03T14:07:08.585376978Z</time>
      </trkpt>
      <trkpt lat="42.88894" lon="2.2261">
        <ele>419.52</ele>
        <time>2026-06-03T14:07:09.483374953Z</time>
      </trkpt>
      <trkpt lat="42.8889" lon="2.22609">
        <ele>419.27</ele>
        <time>2026-06-03T14:07:10.443922997Z</time>
      </trkpt>
      <trkpt lat="42.88887" lon="2.22608">
        <ele>419</ele>
        <time>2026-06-03T14:07:11.462442040Z</time>
      </trkpt>
      <trkpt lat="42.88883" lon="2.22608">
        <ele>418.73</ele>
        <time>2026-06-03T14:07:12.483093023Z</time>
      </trkpt>
      <trkpt lat="42.88879" lon="2.22608">
        <ele>418.41</ele>
        <time>2026-06-03T14:07:13.445158958Z</time>
      </trkpt>
      <trkpt lat="42.88876" lon="2.22608">
        <ele>418.14</ele>
        <time>2026-06-03T14:07:14.462838054Z</time>
      </trkpt>
      <trkpt lat="42.88872" lon="2.2261">
        <ele>417.83</ele>
        <time>2026-06-03T14:07:15.423094988Z</time>
      </trkpt>
      <trkpt lat="42.88868" lon="2.22612">
        <ele>417.49</ele>
        <time>2026-06-03T14:07:16.503976941Z</time>
      </trkpt>
      <trkpt lat="42.88865" lon="2.22614">
        <ele>417.2</ele>
        <time>2026-06-03T14:07:17.523857951Z</time>
      </trkpt>
      <trkpt lat="42.88861" lon="2.22616">
        <ele>416.89</ele>
        <time>2026-06-03T14:07:18.544414043Z</time>
      </trkpt>
      <trkpt lat="42.88857" lon="2.22618">
        <ele>416.54</ele>
        <time>2026-06-03T14:07:19.505697012Z</time>
      </trkpt>
      <trkpt lat="42.88853" lon="2.2262">
        <ele>416.17</ele>
        <time>2026-06-03T14:07:20.523838043Z</time>
      </trkpt>
      <trkpt lat="42.88849" lon="2.22622">
        <ele>415.86</ele>
        <time>2026-06-03T14:07:21.484388947Z</time>
      </trkpt>
      <trkpt lat="42.88845" lon="2.22624">
        <ele>415.53</ele>
        <time>2026-06-03T14:07:22.504112959Z</time>
      </trkpt>
      <trkpt lat="42.8884" lon="2.22627">
        <ele>415.19</ele>
        <time>2026-06-03T14:07:23.523978949Z</time>
      </trkpt>
      <trkpt lat="42.88836" lon="2.2263">
        <ele>414.84</ele>
        <time>2026-06-03T14:07:24.472139955Z</time>
      </trkpt>
      <trkpt lat="42.88833" lon="2.22632">
        <ele>414.47</ele>
        <time>2026-06-03T14:07:25.503308058Z</time>
      </trkpt>
      <trkpt lat="42.88829" lon="2.22634">
        <ele>414.1</ele>
        <time>2026-06-03T14:07:26.523566961Z</time>
      </trkpt>
      <trkpt lat="42.88824" lon="2.22637">
        <ele>413.77</ele>
        <time>2026-06-03T14:07:27.544581056Z</time>
      </trkpt>
      <trkpt lat="42.88821" lon="2.22641">
        <ele>413.43</ele>
        <time>2026-06-03T14:07:28.487030983Z</time>
      </trkpt>
      <trkpt lat="42.88817" lon="2.22645">
        <ele>413.08</ele>
        <time>2026-06-03T14:07:29.524209976Z</time>
      </trkpt>
      <trkpt lat="42.88813" lon="2.2265">
        <ele>412.68</ele>
        <time>2026-06-03T14:07:30.484351039Z</time>
      </trkpt>
      <trkpt lat="42.8881" lon="2.22655">
        <ele>412.34</ele>
        <time>2026-06-03T14:07:31.504137039Z</time>
      </trkpt>
      <trkpt lat="42.88807" lon="2.22661">
        <ele>411.97</ele>
        <time>2026-06-03T14:07:32.464460015Z</time>
      </trkpt>
      <trkpt lat="42.88804" lon="2.22666">
        <ele>411.57</ele>
        <time>2026-06-03T14:07:33.483340979Z</time>
      </trkpt>
      <trkpt lat="42.88801" lon="2.22672">
        <ele>411.15</ele>
        <time>2026-06-03T14:07:34.503496051Z</time>
      </trkpt>
      <trkpt lat="42.88799" lon="2.22678">
        <ele>410.78</ele>
        <time>2026-06-03T14:07:35.523669958Z</time>
      </trkpt>
      <trkpt lat="42.88797" lon="2.22684">
        <ele>410.36</ele>
        <time>2026-06-03T14:07:36.483317018Z</time>
      </trkpt>
      <trkpt lat="42.88794" lon="2.2269">
        <ele>409.91</ele>
        <time>2026-06-03T14:07:37.503587961Z</time>
      </trkpt>
      <trkpt lat="42.88793" lon="2.22697">
        <ele>409.44</ele>
        <time>2026-06-03T14:07:38.463386059Z</time>
      </trkpt>
      <trkpt lat="42.88791" lon="2.22704">
        <ele>409.05</ele>
        <time>2026-06-03T14:07:39.483327985Z</time>
      </trkpt>
      <trkpt lat="42.8879" lon="2.22709">
        <ele>408.63</ele>
        <time>2026-06-03T14:07:40.445382953Z</time>
      </trkpt>
      <trkpt lat="42.88789" lon="2.22714">
        <ele>408.15</ele>
        <time>2026-06-03T14:07:41.465584993Z</time>
      </trkpt>
      <trkpt lat="42.88786" lon="2.22717">
        <ele>407.64</ele>
        <time>2026-06-03T14:07:42.484192967Z</time>
      </trkpt>
      <trkpt lat="42.88784" lon="2.2272">
        <ele>407.21</ele>
        <time>2026-06-03T14:07:43.445359945Z</time>
      </trkpt>
      <trkpt lat="42.88781" lon="2.22721">
        <ele>406.71</ele>
        <time>2026-06-03T14:07:44.523476005Z</time>
      </trkpt>
      <trkpt lat="42.88776" lon="2.22721">
        <ele>406.16</ele>
        <time>2026-06-03T14:07:45.543318987Z</time>
      </trkpt>
      <trkpt lat="42.88772" lon="2.22721">
        <ele>405.57</ele>
        <time>2026-06-03T14:07:46.504140019Z</time>
      </trkpt>
      <trkpt lat="42.88768" lon="2.2272">
        <ele>405.08</ele>
        <time>2026-06-03T14:07:47.524008989Z</time>
      </trkpt>
      <trkpt lat="42.88763" lon="2.2272">
        <ele>404.56</ele>
        <time>2026-06-03T14:07:48.484349966Z</time>
      </trkpt>
      <trkpt lat="42.88758" lon="2.22721">
        <ele>404.06</ele>
        <time>2026-06-03T14:07:49.504294991Z</time>
      </trkpt>
      <trkpt lat="42.88754" lon="2.22721">
        <ele>403.54</ele>
        <time>2026-06-03T14:07:50.524250984Z</time>
      </trkpt>
      <trkpt lat="42.88749" lon="2.2272">
        <ele>403.1</ele>
        <time>2026-06-03T14:07:51.484117985Z</time>
      </trkpt>
      <trkpt lat="42.88744" lon="2.22721">
        <ele>402.65</ele>
        <time>2026-06-03T14:07:52.504349947Z</time>
      </trkpt>
      <trkpt lat="42.88739" lon="2.22721">
        <ele>402.19</ele>
        <time>2026-06-03T14:07:53.524045944Z</time>
      </trkpt>
      <trkpt lat="42.88733" lon="2.22722">
        <ele>401.73</ele>
        <time>2026-06-03T14:07:54.544162989Z</time>
      </trkpt>
      <trkpt lat="42.88728" lon="2.22722">
        <ele>401.34</ele>
        <time>2026-06-03T14:07:55.504392028Z</time>
      </trkpt>
      <trkpt lat="42.88723" lon="2.22723">
        <ele>400.95</ele>
        <time>2026-06-03T14:07:56.524458051Z</time>
      </trkpt>
      <trkpt lat="42.8872" lon="2.22724">
        <ele>400.61</ele>
        <time>2026-06-03T14:07:57.483667016Z</time>
      </trkpt>
      <trkpt lat="42.88716" lon="2.22726">
        <ele>400.28</ele>
        <time>2026-06-03T14:07:58.504245996Z</time>
      </trkpt>
      <trkpt lat="42.88712" lon="2.22727">
        <ele>400.01</ele>
        <time>2026-06-03T14:07:59.524165988Z</time>
      </trkpt>
      <trkpt lat="42.88708" lon="2.2273">
        <ele>399.76</ele>
        <time>2026-06-03T14:08:00.544199944Z</time>
      </trkpt>
      <trkpt lat="42.88703" lon="2.22732">
        <ele>399.5</ele>
        <time>2026-06-03T14:08:01.504382014Z</time>
      </trkpt>
      <trkpt lat="42.88699" lon="2.22735">
        <ele>399.23</ele>
        <time>2026-06-03T14:08:02.524582982Z</time>
      </trkpt>
      <trkpt lat="42.88694" lon="2.22738">
        <ele>398.99</ele>
        <time>2026-06-03T14:08:03.484943986Z</time>
      </trkpt>
      <trkpt lat="42.88691" lon="2.2274">
        <ele>398.71</ele>
        <time>2026-06-03T14:08:04.504670024Z</time>
      </trkpt>
      <trkpt lat="42.88687" lon="2.22742">
        <ele>398.4</ele>
        <time>2026-06-03T14:08:05.524310946Z</time>
      </trkpt>
      <trkpt lat="42.88684" lon="2.22744">
        <ele>398.05</ele>
        <time>2026-06-03T14:08:06.484591007Z</time>
      </trkpt>
      <trkpt lat="42.8868" lon="2.22746">
        <ele>397.74</ele>
        <time>2026-06-03T14:08:07.504825950Z</time>
      </trkpt>
      <trkpt lat="42.88675" lon="2.22749">
        <ele>397.43</ele>
        <time>2026-06-03T14:08:08.525079012Z</time>
      </trkpt>
      <trkpt lat="42.88672" lon="2.22751">
        <ele>397.07</ele>
        <time>2026-06-03T14:08:09.598906994Z</time>
      </trkpt>
      <trkpt lat="42.88669" lon="2.22754">
        <ele>396.64</ele>
        <time>2026-06-03T14:08:10.408398032Z</time>
      </trkpt>
      <trkpt lat="42.88665" lon="2.22757">
        <ele>396.26</ele>
        <time>2026-06-03T14:08:11.523939013Z</time>
      </trkpt>
      <trkpt lat="42.88663" lon="2.2276">
        <ele>395.87</ele>
        <time>2026-06-03T14:08:12.434056997Z</time>
      </trkpt>
      <trkpt lat="42.8866" lon="2.22763">
        <ele>395.43</ele>
        <time>2026-06-03T14:08:13.404917955Z</time>
      </trkpt>
      <trkpt lat="42.88657" lon="2.22766">
        <ele>394.96</ele>
        <time>2026-06-03T14:08:14.524886966Z</time>
      </trkpt>
      <trkpt lat="42.88653" lon="2.22771">
        <ele>394.56</ele>
        <time>2026-06-03T14:08:15.424734950Z</time>
      </trkpt>
      <trkpt lat="42.88651" lon="2.22774">
        <ele>394.16</ele>
        <time>2026-06-03T14:08:16.383792043Z</time>
      </trkpt>
      <trkpt lat="42.88648" lon="2.22778">
        <ele>393.77</ele>
        <time>2026-06-03T14:08:17.524837971Z</time>
      </trkpt>
      <trkpt lat="42.88646" lon="2.22781">
        <ele>393.39</ele>
        <time>2026-06-03T14:08:18.367336988Z</time>
      </trkpt>
      <trkpt lat="42.88644" lon="2.22785">
        <ele>393.07</ele>
        <time>2026-06-03T14:08:19.449201941Z</time>
      </trkpt>
      <trkpt lat="42.88642" lon="2.22788">
        <ele>392.74</ele>
        <time>2026-06-03T14:08:20.416798949Z</time>
      </trkpt>
      <trkpt lat="42.88641" lon="2.22793">
        <ele>392.36</ele>
        <time>2026-06-03T14:08:21.545930982Z</time>
      </trkpt>
      <trkpt lat="42.8864" lon="2.22795">
        <ele>391.92</ele>
        <time>2026-06-03T14:08:22.455275059Z</time>
      </trkpt>
      <trkpt lat="42.88639" lon="2.22798">
        <ele>391.55</ele>
        <time>2026-06-03T14:08:23.404623985Z</time>
      </trkpt>
      <trkpt lat="42.88637" lon="2.22803">
        <ele>391.13</ele>
        <time>2026-06-03T14:08:24.485309958Z</time>
      </trkpt>
      <trkpt lat="42.88636" lon="2.22808">
        <ele>390.65</ele>
        <time>2026-06-03T14:08:25.505429983Z</time>
      </trkpt>
      <trkpt lat="42.88634" lon="2.22813">
        <ele>390.11</ele>
        <time>2026-06-03T14:08:26.524876952Z</time>
      </trkpt>
      <trkpt lat="42.88632" lon="2.22818">
        <ele>389.66</ele>
        <time>2026-06-03T14:08:27.485331059Z</time>
      </trkpt>
      <trkpt lat="42.8863" lon="2.22824">
        <ele>389.17</ele>
        <time>2026-06-03T14:08:28.504824042Z</time>
      </trkpt>
      <trkpt lat="42.88628" lon="2.22829">
        <ele>388.64</ele>
        <time>2026-06-03T14:08:29.524783969Z</time>
      </trkpt>
      <trkpt lat="42.88627" lon="2.22835">
        <ele>388.1</ele>
        <time>2026-06-03T14:08:30.484912992Z</time>
      </trkpt>
      <trkpt lat="42.88626" lon="2.2284">
        <ele>387.64</ele>
        <time>2026-06-03T14:08:31.505295992Z</time>
      </trkpt>
      <trkpt lat="42.88626" lon="2.22844">
        <ele>387.14</ele>
        <time>2026-06-03T14:08:32.524953961Z</time>
      </trkpt>
      <trkpt lat="42.88625" lon="2.22848">
        <ele>386.6</ele>
        <time>2026-06-03T14:08:33.546947002Z</time>
      </trkpt>
      <trkpt lat="42.88625" lon="2.22854">
        <ele>386.01</ele>
        <time>2026-06-03T14:08:34.504994035Z</time>
      </trkpt>
      <trkpt lat="42.88625" lon="2.22861">
        <ele>385.51</ele>
        <time>2026-06-03T14:08:35.386001945Z</time>
      </trkpt>
      <trkpt lat="42.88625" lon="2.22866">
        <ele>385</ele>
        <time>2026-06-03T14:08:36.484593034Z</time>
      </trkpt>
      <trkpt lat="42.88626" lon="2.22872">
        <ele>384.46</ele>
        <time>2026-06-03T14:08:37.505962014Z</time>
      </trkpt>
      <trkpt lat="42.88627" lon="2.22878">
        <ele>384.01</ele>
        <time>2026-06-03T14:08:38.525192976Z</time>
      </trkpt>
      <trkpt lat="42.88626" lon="2.22883">
        <ele>383.51</ele>
        <time>2026-06-03T14:08:39.484745979Z</time>
      </trkpt>
      <trkpt lat="42.88624" lon="2.22887">
        <ele>383.02</ele>
        <time>2026-06-03T14:08:40.505058050Z</time>
      </trkpt>
      <trkpt lat="42.88621" lon="2.22888">
        <ele>382.54</ele>
        <time>2026-06-03T14:08:41.525408030Z</time>
      </trkpt>
      <trkpt lat="42.88619" lon="2.22888">
        <ele>382.13</ele>
        <time>2026-06-03T14:08:42.485406995Z</time>
      </trkpt>
      <trkpt lat="42.88617" lon="2.22888">
        <ele>381.71</ele>
        <time>2026-06-03T14:08:43.505628943Z</time>
      </trkpt>
      <trkpt lat="42.88614" lon="2.22887">
        <ele>381.32</ele>
        <time>2026-06-03T14:08:44.466832042Z</time>
      </trkpt>
      <trkpt lat="42.8861" lon="2.22886">
        <ele>380.97</ele>
        <time>2026-06-03T14:08:45.485970020Z</time>
      </trkpt>
      <trkpt lat="42.88608" lon="2.22887">
        <ele>380.68</ele>
        <time>2026-06-03T14:08:46.447059035Z</time>
      </trkpt>
      <trkpt lat="42.88605" lon="2.22887">
        <ele>380.4</ele>
        <time>2026-06-03T14:08:47.420675993Z</time>
      </trkpt>
      <trkpt lat="42.88602" lon="2.22888">
        <ele>380.18</ele>
        <time>2026-06-03T14:08:48.443178058Z</time>
      </trkpt>
      <trkpt lat="42.88599" lon="2.2289">
        <ele>379.99</ele>
        <time>2026-06-03T14:08:49.385359049Z</time>
      </trkpt>
      <trkpt lat="42.88596" lon="2.22891">
        <ele>379.83</ele>
        <time>2026-06-03T14:08:50.467278004Z</time>
      </trkpt>
      <trkpt lat="42.88593" lon="2.22893">
        <ele>379.7</ele>
        <time>2026-06-03T14:08:51.435659051Z</time>
      </trkpt>
      <trkpt lat="42.88591" lon="2.22895">
        <ele>379.61</ele>
        <time>2026-06-03T14:08:52.505859017Z</time>
      </trkpt>
      <trkpt lat="42.88588" lon="2.22897">
        <ele>379.55</ele>
        <time>2026-06-03T14:08:53.467059016Z</time>
      </trkpt>
      <trkpt lat="42.88585" lon="2.229">
        <ele>379.49</ele>
        <time>2026-06-03T14:08:54.485456944Z</time>
      </trkpt>
      <trkpt lat="42.88583" lon="2.22903">
        <ele>379.46</ele>
        <time>2026-06-03T14:08:55.403568983Z</time>
      </trkpt>
      <trkpt lat="42.88581" lon="2.22906">
        <ele>379.43</ele>
        <time>2026-06-03T14:08:56.524945021Z</time>
      </trkpt>
      <trkpt lat="42.88578" lon="2.22909">
        <ele>379.4</ele>
        <time>2026-06-03T14:08:57.372557044Z</time>
      </trkpt>
      <trkpt lat="42.88576" lon="2.22911">
        <ele>379.38</ele>
        <time>2026-06-03T14:08:58.505527973Z</time>
      </trkpt>
      <trkpt lat="42.88573" lon="2.22914">
        <ele>379.35</ele>
        <time>2026-06-03T14:08:59.465322971Z</time>
      </trkpt>
      <trkpt lat="42.8857" lon="2.22917">
        <ele>379.21</ele>
        <time>2026-06-03T14:09:00.485687971Z</time>
      </trkpt>
      <trkpt lat="42.88566" lon="2.2292">
        <ele>379.06</ele>
        <time>2026-06-03T14:09:01.506034017Z</time>
      </trkpt>
      <trkpt lat="42.88563" lon="2.22923">
        <ele>378.93</ele>
        <time>2026-06-03T14:09:02.525594950Z</time>
      </trkpt>
      <trkpt lat="42.88559" lon="2.22926">
        <ele>378.79</ele>
        <time>2026-06-03T14:09:03.382235050Z</time>
      </trkpt>
      <trkpt lat="42.88556" lon="2.22928">
        <ele>378.65</ele>
        <time>2026-06-03T14:09:04.388236046Z</time>
      </trkpt>
      <trkpt lat="42.88552" lon="2.2293">
        <ele>378.51</ele>
        <time>2026-06-03T14:09:05.467525005Z</time>
      </trkpt>
      <trkpt lat="42.88548" lon="2.22931">
        <ele>378.39</ele>
        <time>2026-06-03T14:09:06.545843959Z</time>
      </trkpt>
      <trkpt lat="42.88545" lon="2.22932">
        <ele>378.25</ele>
        <time>2026-06-03T14:09:07.495211005Z</time>
      </trkpt>
      <trkpt lat="42.88543" lon="2.22933">
        <ele>378.1</ele>
        <time>2026-06-03T14:09:08.525756001Z</time>
      </trkpt>
      <trkpt lat="42.88539" lon="2.22933">
        <ele>377.94</ele>
        <time>2026-06-03T14:09:09.486268044Z</time>
      </trkpt>
      <trkpt lat="42.88535" lon="2.22934">
        <ele>377.79</ele>
        <time>2026-06-03T14:09:10.505110025Z</time>
      </trkpt>
      <trkpt lat="42.88531" lon="2.22934">
        <ele>377.61</ele>
        <time>2026-06-03T14:09:11.510117054Z</time>
      </trkpt>
      <trkpt lat="42.88527" lon="2.22934">
        <ele>377.4</ele>
        <time>2026-06-03T14:09:12.547713995Z</time>
      </trkpt>
      <trkpt lat="42.88522" lon="2.22933">
        <ele>377.11</ele>
        <time>2026-06-03T14:09:13.505887032Z</time>
      </trkpt>
      <trkpt lat="42.88517" lon="2.22932">
        <ele>376.86</ele>
        <time>2026-06-03T14:09:14.525979996Z</time>
      </trkpt>
      <trkpt lat="42.88513" lon="2.22931">
        <ele>376.56</ele>
        <time>2026-06-03T14:09:15.486384034Z</time>
      </trkpt>
      <trkpt lat="42.88509" lon="2.22931">
        <ele>376.21</ele>
        <time>2026-06-03T14:09:16.505537033Z</time>
      </trkpt>
      <trkpt lat="42.88504" lon="2.22931">
        <ele>375.81</ele>
        <time>2026-06-03T14:09:17.465901017Z</time>
      </trkpt>
      <trkpt lat="42.885" lon="2.2293">
        <ele>375.47</ele>
        <time>2026-06-03T14:09:18.486220956Z</time>
      </trkpt>
      <trkpt lat="42.88496" lon="2.22931">
        <ele>375.09</ele>
        <time>2026-06-03T14:09:19.505946040Z</time>
      </trkpt>
      <trkpt lat="42.88493" lon="2.22931">
        <ele>374.7</ele>
        <time>2026-06-03T14:09:20.526046038Z</time>
      </trkpt>
      <trkpt lat="42.88489" lon="2.2293">
        <ele>374.28</ele>
        <time>2026-06-03T14:09:21.437746048Z</time>
      </trkpt>
      <trkpt lat="42.88485" lon="2.22929">
        <ele>373.92</ele>
        <time>2026-06-03T14:09:22.505972028Z</time>
      </trkpt>
      <trkpt lat="42.88481" lon="2.2293">
        <ele>373.49</ele>
        <time>2026-06-03T14:09:23.465736032Z</time>
      </trkpt>
      <trkpt lat="42.88476" lon="2.2293">
        <ele>373.03</ele>
        <time>2026-06-03T14:09:24.485735059Z</time>
      </trkpt>
      <trkpt lat="42.88472" lon="2.2293">
        <ele>372.51</ele>
        <time>2026-06-03T14:09:25.506222963Z</time>
      </trkpt>
      <trkpt lat="42.88467" lon="2.22929">
        <ele>372.06</ele>
        <time>2026-06-03T14:09:26.526268959Z</time>
      </trkpt>
      <trkpt lat="42.88463" lon="2.2293">
        <ele>371.54</ele>
        <time>2026-06-03T14:09:27.486456037Z</time>
      </trkpt>
      <trkpt lat="42.8846" lon="2.22931">
        <ele>370.97</ele>
        <time>2026-06-03T14:09:28.506345987Z</time>
      </trkpt>
      <trkpt lat="42.88457" lon="2.22933">
        <ele>370.38</ele>
        <time>2026-06-03T14:09:29.526427031Z</time>
      </trkpt>
      <trkpt lat="42.88454" lon="2.22936">
        <ele>369.89</ele>
        <time>2026-06-03T14:09:30.426262975Z</time>
      </trkpt>
      <trkpt lat="42.88453" lon="2.2294">
        <ele>369.38</ele>
        <time>2026-06-03T14:09:31.505800009Z</time>
      </trkpt>
      <trkpt lat="42.88453" lon="2.22944">
        <ele>368.84</ele>
        <time>2026-06-03T14:09:32.466668010Z</time>
      </trkpt>
      <trkpt lat="42.88453" lon="2.22949">
        <ele>368.36</ele>
        <time>2026-06-03T14:09:33.486299992Z</time>
      </trkpt>
      <trkpt lat="42.88454" lon="2.22953">
        <ele>367.96</ele>
        <time>2026-06-03T14:09:34.506153941Z</time>
      </trkpt>
      <trkpt lat="42.88455" lon="2.22957">
        <ele>367.59</ele>
        <time>2026-06-03T14:09:35.406365991Z</time>
      </trkpt>
      <trkpt lat="42.88456" lon="2.22963">
        <ele>367.27</ele>
        <time>2026-06-03T14:09:36.442414045Z</time>
      </trkpt>
      <trkpt lat="42.88456" lon="2.22966">
        <ele>367</ele>
        <time>2026-06-03T14:09:37.506602049Z</time>
      </trkpt>
      <trkpt lat="42.88458" lon="2.22971">
        <ele>366.78</ele>
        <time>2026-06-03T14:09:38.406463027Z</time>
      </trkpt>
      <trkpt lat="42.88459" lon="2.22976">
        <ele>366.59</ele>
        <time>2026-06-03T14:09:39.486125946Z</time>
      </trkpt>
      <trkpt lat="42.88459" lon="2.2298">
        <ele>366.42</ele>
        <time>2026-06-03T14:09:40.447185993Z</time>
      </trkpt>
      <trkpt lat="42.88459" lon="2.22984">
        <ele>366.26</ele>
        <time>2026-06-03T14:09:41.405688047Z</time>
      </trkpt>
      <trkpt lat="42.88459" lon="2.22989">
        <ele>366.12</ele>
        <time>2026-06-03T14:09:42.485865951Z</time>
      </trkpt>
      <trkpt lat="42.88459" lon="2.22994">
        <ele>365.97</ele>
        <time>2026-06-03T14:09:43.385918975Z</time>
      </trkpt>
      <trkpt lat="42.88459" lon="2.22999">
        <ele>365.8</ele>
        <time>2026-06-03T14:09:44.466493964Z</time>
      </trkpt>
      <trkpt lat="42.88458" lon="2.23004">
        <ele>365.59</ele>
        <time>2026-06-03T14:09:45.425711989Z</time>
      </trkpt>
      <trkpt lat="42.88457" lon="2.23009">
        <ele>365.41</ele>
        <time>2026-06-03T14:09:46.506240964Z</time>
      </trkpt>
      <trkpt lat="42.88457" lon="2.23014">
        <ele>365.17</ele>
        <time>2026-06-03T14:09:47.466171026Z</time>
      </trkpt>
      <trkpt lat="42.88456" lon="2.2302">
        <ele>364.87</ele>
        <time>2026-06-03T14:09:48.425935984Z</time>
      </trkpt>
      <trkpt lat="42.88455" lon="2.23025">
        <ele>364.52</ele>
        <time>2026-06-03T14:09:49.455736995Z</time>
      </trkpt>
      <trkpt lat="42.88455" lon="2.23031">
        <ele>364.2</ele>
        <time>2026-06-03T14:09:50.406695962Z</time>
      </trkpt>
      <trkpt lat="42.88455" lon="2.23037">
        <ele>363.82</ele>
        <time>2026-06-03T14:09:51.435592055Z</time>
      </trkpt>
      <trkpt lat="42.88455" lon="2.23044">
        <ele>363.43</ele>
        <time>2026-06-03T14:09:52.447486043Z</time>
      </trkpt>
      <trkpt lat="42.88455" lon="2.23051">
        <ele>362.99</ele>
        <time>2026-06-03T14:09:53.466959953Z</time>
      </trkpt>
      <trkpt lat="42.88454" lon="2.23057">
        <ele>362.62</ele>
        <time>2026-06-03T14:09:54.426787019Z</time>
      </trkpt>
      <trkpt lat="42.88452" lon="2.23063">
        <ele>362.21</ele>
        <time>2026-06-03T14:09:55.404381037Z</time>
      </trkpt>
      <trkpt lat="42.88449" lon="2.23066">
        <ele>361.79</ele>
        <time>2026-06-03T14:09:56.468670964Z</time>
      </trkpt>
      <trkpt lat="42.88445" lon="2.23071">
        <ele>361.36</ele>
        <time>2026-06-03T14:09:57.426210046Z</time>
      </trkpt>
      <trkpt lat="42.88441" lon="2.23075">
        <ele>360.99</ele>
        <time>2026-06-03T14:09:58.451897979Z</time>
      </trkpt>
      <trkpt lat="42.88438" lon="2.23078">
        <ele>360.58</ele>
        <time>2026-06-03T14:09:59.412152052Z</time>
      </trkpt>
      <trkpt lat="42.88435" lon="2.23083">
        <ele>360.03</ele>
        <time>2026-06-03T14:10:00.427386045Z</time>
      </trkpt>
      <trkpt lat="42.88433" lon="2.23087">
        <ele>359.54</ele>
        <time>2026-06-03T14:10:01.448565006Z</time>
      </trkpt>
      <trkpt lat="42.8843" lon="2.23092">
        <ele>359.12</ele>
        <time>2026-06-03T14:10:02.527367949Z</time>
      </trkpt>
      <trkpt lat="42.88427" lon="2.23096">
        <ele>358.73</ele>
        <time>2026-06-03T14:10:03.487637997Z</time>
      </trkpt>
      <trkpt lat="42.88425" lon="2.23101">
        <ele>358.39</ele>
        <time>2026-06-03T14:10:04.507449985Z</time>
      </trkpt>
      <trkpt lat="42.88423" lon="2.23106">
        <ele>358.08</ele>
        <time>2026-06-03T14:10:05.527331948Z</time>
      </trkpt>
      <trkpt lat="42.8842" lon="2.23111">
        <ele>357.82</ele>
        <time>2026-06-03T14:10:06.374815941Z</time>
      </trkpt>
      <trkpt lat="42.88418" lon="2.23116">
        <ele>357.58</ele>
        <time>2026-06-03T14:10:07.507387996Z</time>
      </trkpt>
      <trkpt lat="42.88416" lon="2.23121">
        <ele>357.34</ele>
        <time>2026-06-03T14:10:08.469215989Z</time>
      </trkpt>
      <trkpt lat="42.88412" lon="2.23127">
        <ele>357.1</ele>
        <time>2026-06-03T14:10:09.487820029Z</time>
      </trkpt>
      <trkpt lat="42.88409" lon="2.23133">
        <ele>356.89</ele>
        <time>2026-06-03T14:10:10.405621052Z</time>
      </trkpt>
      <trkpt lat="42.88407" lon="2.23138">
        <ele>356.65</ele>
        <time>2026-06-03T14:10:11.526638031Z</time>
      </trkpt>
      <trkpt lat="42.88405" lon="2.23144">
        <ele>356.36</ele>
        <time>2026-06-03T14:10:12.487071037Z</time>
      </trkpt>
      <trkpt lat="42.88403" lon="2.23149">
        <ele>356.1</ele>
        <time>2026-06-03T14:10:13.522140026Z</time>
      </trkpt>
      <trkpt lat="42.884" lon="2.23154">
        <ele>355.82</ele>
        <time>2026-06-03T14:10:14.393468976Z</time>
      </trkpt>
      <trkpt lat="42.88398" lon="2.23158">
        <ele>355.54</ele>
        <time>2026-06-03T14:10:15.487792015Z</time>
      </trkpt>
      <trkpt lat="42.88396" lon="2.23163">
        <ele>355.27</ele>
        <time>2026-06-03T14:10:16.507683992Z</time>
      </trkpt>
      <trkpt lat="42.88394" lon="2.23166">
        <ele>355.04</ele>
        <time>2026-06-03T14:10:17.527145982Z</time>
      </trkpt>
      <trkpt lat="42.88393" lon="2.2317">
        <ele>354.83</ele>
        <time>2026-06-03T14:10:18.442090988Z</time>
      </trkpt>
      <trkpt lat="42.88391" lon="2.23173">
        <ele>354.66</ele>
        <time>2026-06-03T14:10:19.447669029Z</time>
      </trkpt>
      <trkpt lat="42.8839" lon="2.23176">
        <ele>354.52</ele>
        <time>2026-06-03T14:10:20.467900038Z</time>
      </trkpt>
      <trkpt lat="42.88388" lon="2.2318">
        <ele>354.39</ele>
        <time>2026-06-03T14:10:21.487511992Z</time>
      </trkpt>
      <trkpt lat="42.88387" lon="2.23184">
        <ele>354.3</ele>
        <time>2026-06-03T14:10:22.472645998Z</time>
      </trkpt>
      <trkpt lat="42.88385" lon="2.23188">
        <ele>354.24</ele>
        <time>2026-06-03T14:10:23.367931008Z</time>
      </trkpt>
      <trkpt lat="42.88383" lon="2.23193">
        <ele>354.21</ele>
        <time>2026-06-03T14:10:24.487092972Z</time>
      </trkpt>
      <trkpt lat="42.88382" lon="2.23198">
        <ele>354.17</ele>
        <time>2026-06-03T14:10:25.448506951Z</time>
      </trkpt>
      <trkpt lat="42.88378" lon="2.23207">
        <ele>354.16</ele>
        <time>2026-06-03T14:10:27.499137044Z</time>
      </trkpt>
      <trkpt lat="42.88375" lon="2.23213">
        <ele>354.16</ele>
        <time>2026-06-03T14:10:28.449416041Z</time>
      </trkpt>
      <trkpt lat="42.88373" lon="2.23218">
        <ele>354.17</ele>
        <time>2026-06-03T14:10:29.469478965Z</time>
      </trkpt>
      <trkpt lat="42.88371" lon="2.23222">
        <ele>354.18</ele>
        <time>2026-06-03T14:10:30.443088055Z</time>
      </trkpt>
      <trkpt lat="42.88369" lon="2.23226">
        <ele>354.19</ele>
        <time>2026-06-03T14:10:31.507946968Z</time>
      </trkpt>
      <trkpt lat="42.88367" lon="2.23232">
        <ele>354.19</ele>
        <time>2026-06-03T14:10:32.468237996Z</time>
      </trkpt>
      <trkpt lat="42.88365" lon="2.23237">
        <ele>354.2</ele>
        <time>2026-06-03T14:10:33.488481045Z</time>
      </trkpt>
      <trkpt lat="42.88362" lon="2.23242">
        <ele>354.2</ele>
        <time>2026-06-03T14:10:34.448147058Z</time>
      </trkpt>
      <trkpt lat="42.8836" lon="2.23247">
        <ele>354.2</ele>
        <time>2026-06-03T14:10:35.469459057Z</time>
      </trkpt>
      <trkpt lat="42.88358" lon="2.23253">
        <ele>354.2</ele>
        <time>2026-06-03T14:10:36.488587976Z</time>
      </trkpt>
      <trkpt lat="42.88357" lon="2.23258">
        <ele>354.2</ele>
        <time>2026-06-03T14:10:37.449666023Z</time>
      </trkpt>
      <trkpt lat="42.88355" lon="2.23262">
        <ele>354.21</ele>
        <time>2026-06-03T14:10:38.407891989Z</time>
      </trkpt>
      <trkpt lat="42.88353" lon="2.23267">
        <ele>354.23</ele>
        <time>2026-06-03T14:10:39.431285024Z</time>
      </trkpt>
      <trkpt lat="42.88351" lon="2.23272">
        <ele>354.28</ele>
        <time>2026-06-03T14:10:40.449597955Z</time>
      </trkpt>
      <trkpt lat="42.88349" lon="2.23277">
        <ele>354.33</ele>
        <time>2026-06-03T14:10:41.467951059Z</time>
      </trkpt>
      <trkpt lat="42.88347" lon="2.23281">
        <ele>354.4</ele>
        <time>2026-06-03T14:10:42.487615943Z</time>
      </trkpt>
      <trkpt lat="42.88345" lon="2.23287">
        <ele>354.51</ele>
        <time>2026-06-03T14:10:43.387163043Z</time>
      </trkpt>
      <trkpt lat="42.88342" lon="2.23291">
        <ele>354.63</ele>
        <time>2026-06-03T14:10:44.467695951Z</time>
      </trkpt>
      <trkpt lat="42.8834" lon="2.23297">
        <ele>354.74</ele>
        <time>2026-06-03T14:10:45.487771988Z</time>
      </trkpt>
      <trkpt lat="42.88338" lon="2.23302">
        <ele>354.85</ele>
        <time>2026-06-03T14:10:46.449437022Z</time>
      </trkpt>
      <trkpt lat="42.88335" lon="2.23307">
        <ele>354.95</ele>
        <time>2026-06-03T14:10:47.378484011Z</time>
      </trkpt>
      <trkpt lat="42.88334" lon="2.23312">
        <ele>355.02</ele>
        <time>2026-06-03T14:10:48.430372953Z</time>
      </trkpt>
      <trkpt lat="42.88331" lon="2.23318">
        <ele>355.08</ele>
        <time>2026-06-03T14:10:49.449658990Z</time>
      </trkpt>
      <trkpt lat="42.88328" lon="2.23324">
        <ele>355.13</ele>
        <time>2026-06-03T14:10:50.410578012Z</time>
      </trkpt>
      <trkpt lat="42.88326" lon="2.23329">
        <ele>355.16</ele>
        <time>2026-06-03T14:10:51.488301039Z</time>
      </trkpt>
      <trkpt lat="42.88324" lon="2.23336">
        <ele>355.19</ele>
        <time>2026-06-03T14:10:52.508617997Z</time>
      </trkpt>
      <trkpt lat="42.88322" lon="2.23342">
        <ele>355.21</ele>
        <time>2026-06-03T14:10:53.468505025Z</time>
      </trkpt>
      <trkpt lat="42.8832" lon="2.23349">
        <ele>355.23</ele>
        <time>2026-06-03T14:10:54.488176942Z</time>
      </trkpt>
      <trkpt lat="42.88317" lon="2.23355">
        <ele>355.25</ele>
        <time>2026-06-03T14:10:55.508131981Z</time>
      </trkpt>
      <trkpt lat="42.88314" lon="2.23361">
        <ele>355.24</ele>
        <time>2026-06-03T14:10:56.468471050Z</time>
      </trkpt>
      <trkpt lat="42.88312" lon="2.23366">
        <ele>355.24</ele>
        <time>2026-06-03T14:10:57.488481045Z</time>
      </trkpt>
      <trkpt lat="42.88311" lon="2.2337">
        <ele>355.21</ele>
        <time>2026-06-03T14:10:58.449576020Z</time>
      </trkpt>
      <trkpt lat="42.88308" lon="2.23376">
        <ele>355.16</ele>
        <time>2026-06-03T14:10:59.470476031Z</time>
      </trkpt>
      <trkpt lat="42.88306" lon="2.23382">
        <ele>355.06</ele>
        <time>2026-06-03T14:11:00.488628983Z</time>
      </trkpt>
      <trkpt lat="42.88303" lon="2.23386">
        <ele>354.98</ele>
        <time>2026-06-03T14:11:01.508280039Z</time>
      </trkpt>
      <trkpt lat="42.88301" lon="2.23391">
        <ele>354.88</ele>
        <time>2026-06-03T14:11:02.470095038Z</time>
      </trkpt>
      <trkpt lat="42.88299" lon="2.23396">
        <ele>354.79</ele>
        <time>2026-06-03T14:11:03.488746047Z</time>
      </trkpt>
      <trkpt lat="42.88297" lon="2.234">
        <ele>354.72</ele>
        <time>2026-06-03T14:11:04.449743032Z</time>
      </trkpt>
      <trkpt lat="42.88295" lon="2.23404">
        <ele>354.67</ele>
        <time>2026-06-03T14:11:05.470342994Z</time>
      </trkpt>
      <trkpt lat="42.88292" lon="2.23408">
        <ele>354.61</ele>
        <time>2026-06-03T14:11:06.488525033Z</time>
      </trkpt>
      <trkpt lat="42.8829" lon="2.23412">
        <ele>354.57</ele>
        <time>2026-06-03T14:11:07.508708Z</time>
      </trkpt>
      <trkpt lat="42.88288" lon="2.23417">
        <ele>354.53</ele>
        <time>2026-06-03T14:11:08.528342009Z</time>
      </trkpt>
      <trkpt lat="42.88286" lon="2.2342">
        <ele>354.49</ele>
        <time>2026-06-03T14:11:09.488605022Z</time>
      </trkpt>
      <trkpt lat="42.88284" lon="2.23424">
        <ele>354.46</ele>
        <time>2026-06-03T14:11:10.448389053Z</time>
      </trkpt>
      <trkpt lat="42.88282" lon="2.23429">
        <ele>354.42</ele>
        <time>2026-06-03T14:11:11.470260024Z</time>
      </trkpt>
      <trkpt lat="42.8828" lon="2.23433">
        <ele>354.39</ele>
        <time>2026-06-03T14:11:12.488558054Z</time>
      </trkpt>
      <trkpt lat="42.88278" lon="2.23437">
        <ele>354.36</ele>
        <time>2026-06-03T14:11:13.507822990Z</time>
      </trkpt>
      <trkpt lat="42.88276" lon="2.23441">
        <ele>354.33</ele>
        <time>2026-06-03T14:11:14.540580988Z</time>
      </trkpt>
      <trkpt lat="42.88275" lon="2.23444">
        <ele>354.29</ele>
        <time>2026-06-03T14:11:15.488819957Z</time>
      </trkpt>
      <trkpt lat="42.88273" lon="2.23448">
        <ele>354.25</ele>
        <time>2026-06-03T14:11:16.508404016Z</time>
      </trkpt>
      <trkpt lat="42.88272" lon="2.23453">
        <ele>354.21</ele>
        <time>2026-06-03T14:11:17.468770027Z</time>
      </trkpt>
      <trkpt lat="42.8827" lon="2.23458">
        <ele>354.15</ele>
        <time>2026-06-03T14:11:18.488731027Z</time>
      </trkpt>
      <trkpt lat="42.88269" lon="2.23462">
        <ele>354.07</ele>
        <time>2026-06-03T14:11:19.394417048Z</time>
      </trkpt>
      <trkpt lat="42.88268" lon="2.23467">
        <ele>353.98</ele>
        <time>2026-06-03T14:11:20.407729030Z</time>
      </trkpt>
      <trkpt lat="42.88266" lon="2.23472">
        <ele>353.89</ele>
        <time>2026-06-03T14:11:21.487905979Z</time>
      </trkpt>
      <trkpt lat="42.88264" lon="2.23475">
        <ele>353.79</ele>
        <time>2026-06-03T14:11:22.448598027Z</time>
      </trkpt>
      <trkpt lat="42.88261" lon="2.23477">
        <ele>353.67</ele>
        <time>2026-06-03T14:11:23.417014956Z</time>
      </trkpt>
      <trkpt lat="42.88259" lon="2.23477">
        <ele>353.56</ele>
        <time>2026-06-03T14:11:24.427724004Z</time>
      </trkpt>
      <trkpt lat="42.88256" lon="2.23477">
        <ele>353.46</ele>
        <time>2026-06-03T14:11:25.405606985Z</time>
      </trkpt>
      <trkpt lat="42.88253" lon="2.23476">
        <ele>353.35</ele>
        <time>2026-06-03T14:11:26.528262019Z</time>
      </trkpt>
      <trkpt lat="42.88251" lon="2.23476">
        <ele>353.26</ele>
        <time>2026-06-03T14:11:27.489158988Z</time>
      </trkpt>
      <trkpt lat="42.88249" lon="2.23475">
        <ele>353.18</ele>
        <time>2026-06-03T14:11:28.508913040Z</time>
      </trkpt>
      <trkpt lat="42.88247" lon="2.23475">
        <ele>353.11</ele>
        <time>2026-06-03T14:11:29.470252991Z</time>
      </trkpt>
      <trkpt lat="42.88243" lon="2.23476">
        <ele>353.05</ele>
        <time>2026-06-03T14:11:30.428954005Z</time>
      </trkpt>
      <trkpt lat="42.8824" lon="2.23478">
        <ele>353.02</ele>
        <time>2026-06-03T14:11:31.568829060Z</time>
      </trkpt>
      <trkpt lat="42.88237" lon="2.2348">
        <ele>353.01</ele>
        <time>2026-06-03T14:11:32.359423995Z</time>
      </trkpt>
      <trkpt lat="42.88234" lon="2.23483">
        <ele>353</ele>
        <time>2026-06-03T14:11:33.428820968Z</time>
      </trkpt>
      <trkpt lat="42.88232" lon="2.23486">
        <ele>353.01</ele>
        <time>2026-06-03T14:11:34.508715987Z</time>
      </trkpt>
      <trkpt lat="42.88229" lon="2.2349">
        <ele>353.02</ele>
        <time>2026-06-03T14:11:35.528815031Z</time>
      </trkpt>
      <trkpt lat="42.88227" lon="2.23495">
        <ele>353.03</ele>
        <time>2026-06-03T14:11:36.489230037Z</time>
      </trkpt>
      <trkpt lat="42.88226" lon="2.23498">
        <ele>353.03</ele>
        <time>2026-06-03T14:11:37.509546041Z</time>
      </trkpt>
      <trkpt lat="42.88224" lon="2.23502">
        <ele>353.03</ele>
        <time>2026-06-03T14:11:38.468958974Z</time>
      </trkpt>
      <trkpt lat="42.88221" lon="2.23507">
        <ele>353.01</ele>
        <time>2026-06-03T14:11:39.489187956Z</time>
      </trkpt>
      <trkpt lat="42.88219" lon="2.23511">
        <ele>352.99</ele>
        <time>2026-06-03T14:11:40.508818984Z</time>
      </trkpt>
      <trkpt lat="42.88217" lon="2.23515">
        <ele>352.98</ele>
        <time>2026-06-03T14:11:41.468799949Z</time>
      </trkpt>
      <trkpt lat="42.88214" lon="2.23519">
        <ele>352.96</ele>
        <time>2026-06-03T14:11:42.489524007Z</time>
      </trkpt>
      <trkpt lat="42.88212" lon="2.23524">
        <ele>352.96</ele>
        <time>2026-06-03T14:11:43.508218050Z</time>
      </trkpt>
      <trkpt lat="42.8821" lon="2.23529">
        <ele>352.96</ele>
        <time>2026-06-03T14:11:44.357316017Z</time>
      </trkpt>
      <trkpt lat="42.88208" lon="2.23533">
        <ele>352.97</ele>
        <time>2026-06-03T14:11:45.489253044Z</time>
      </trkpt>
      <trkpt lat="42.88206" lon="2.23538">
        <ele>352.97</ele>
        <time>2026-06-03T14:11:46.508905053Z</time>
      </trkpt>
      <trkpt lat="42.88204" lon="2.23543">
        <ele>352.98</ele>
        <time>2026-06-03T14:11:47.529168010Z</time>
      </trkpt>
      <trkpt lat="42.88202" lon="2.23547">
        <ele>353</ele>
        <time>2026-06-03T14:11:48.489364028Z</time>
      </trkpt>
      <trkpt lat="42.882" lon="2.23552">
        <ele>353.02</ele>
        <time>2026-06-03T14:11:49.386322021Z</time>
      </trkpt>
      <trkpt lat="42.88197" lon="2.23557">
        <ele>353.05</ele>
        <time>2026-06-03T14:11:50.528985023Z</time>
      </trkpt>
      <trkpt lat="42.88196" lon="2.23562">
        <ele>353.08</ele>
        <time>2026-06-03T14:11:51.373630047Z</time>
      </trkpt>
      <trkpt lat="42.88194" lon="2.23567">
        <ele>353.11</ele>
        <time>2026-06-03T14:11:52.509075046Z</time>
      </trkpt>
      <trkpt lat="42.88193" lon="2.23572">
        <ele>353.15</ele>
        <time>2026-06-03T14:11:53.401198983Z</time>
      </trkpt>
      <trkpt lat="42.88192" lon="2.23577">
        <ele>353.2</ele>
        <time>2026-06-03T14:11:54.390509963Z</time>
      </trkpt>
      <trkpt lat="42.8819" lon="2.23582">
        <ele>353.26</ele>
        <time>2026-06-03T14:11:55.509078979Z</time>
      </trkpt>
      <trkpt lat="42.88189" lon="2.23587">
        <ele>353.3</ele>
        <time>2026-06-03T14:11:56.468014002Z</time>
      </trkpt>
      <trkpt lat="42.88187" lon="2.23591">
        <ele>353.37</ele>
        <time>2026-06-03T14:11:57.377351999Z</time>
      </trkpt>
      <trkpt lat="42.88187" lon="2.23596">
        <ele>353.44</ele>
        <time>2026-06-03T14:11:58.449355960Z</time>
      </trkpt>
      <trkpt lat="42.88186" lon="2.23601">
        <ele>353.52</ele>
        <time>2026-06-03T14:11:59.468628049Z</time>
      </trkpt>
      <trkpt lat="42.88185" lon="2.23607">
        <ele>353.71</ele>
        <time>2026-06-03T14:12:00.489892006Z</time>
      </trkpt>
      <trkpt lat="42.88184" lon="2.23612">
        <ele>353.89</ele>
        <time>2026-06-03T14:12:01.430974007Z</time>
      </trkpt>
      <trkpt lat="42.88183" lon="2.23617">
        <ele>354.07</ele>
        <time>2026-06-03T14:12:02.529265046Z</time>
      </trkpt>
      <trkpt lat="42.88183" lon="2.23621">
        <ele>354.26</ele>
        <time>2026-06-03T14:12:03.430690050Z</time>
      </trkpt>
      <trkpt lat="42.88182" lon="2.23625">
        <ele>354.44</ele>
        <time>2026-06-03T14:12:04.509053946Z</time>
      </trkpt>
      <trkpt lat="42.88181" lon="2.23631">
        <ele>354.62</ele>
        <time>2026-06-03T14:12:05.445935965Z</time>
      </trkpt>
      <trkpt lat="42.88181" lon="2.23635">
        <ele>354.8</ele>
        <time>2026-06-03T14:12:06.489758968Z</time>
      </trkpt>
      <trkpt lat="42.88181" lon="2.23639">
        <ele>355.01</ele>
        <time>2026-06-03T14:12:07.509348989Z</time>
      </trkpt>
      <trkpt lat="42.8818" lon="2.23644">
        <ele>355.19</ele>
        <time>2026-06-03T14:12:08.413262010Z</time>
      </trkpt>
      <trkpt lat="42.8818" lon="2.2365">
        <ele>355.4</ele>
        <time>2026-06-03T14:12:09.429394007Z</time>
      </trkpt>
      <trkpt lat="42.8818" lon="2.23655">
        <ele>355.61</ele>
        <time>2026-06-03T14:12:10.403484941Z</time>
      </trkpt>
      <trkpt lat="42.8818" lon="2.2366">
        <ele>355.84</ele>
        <time>2026-06-03T14:12:11.468363047Z</time>
      </trkpt>
      <trkpt lat="42.8818" lon="2.23665">
        <ele>356.04</ele>
        <time>2026-06-03T14:12:12.489259005Z</time>
      </trkpt>
      <trkpt lat="42.8818" lon="2.2367">
        <ele>356.25</ele>
        <time>2026-06-03T14:12:13.465756059Z</time>
      </trkpt>
      <trkpt lat="42.88179" lon="2.23675">
        <ele>356.47</ele>
        <time>2026-06-03T14:12:14.471351027Z</time>
      </trkpt>
      <trkpt lat="42.88178" lon="2.23679">
        <ele>356.71</ele>
        <time>2026-06-03T14:12:15.565348983Z</time>
      </trkpt>
      <trkpt lat="42.88178" lon="2.23684">
        <ele>356.91</ele>
        <time>2026-06-03T14:12:16.509755015Z</time>
      </trkpt>
      <trkpt lat="42.88177" lon="2.23689">
        <ele>357.13</ele>
        <time>2026-06-03T14:12:17.469717979Z</time>
      </trkpt>
      <trkpt lat="42.88176" lon="2.23694">
        <ele>357.35</ele>
        <time>2026-06-03T14:12:18.439759970Z</time>
      </trkpt>
      <trkpt lat="42.88176" lon="2.23699">
        <ele>357.57</ele>
        <time>2026-06-03T14:12:19.509053946Z</time>
      </trkpt>
      <trkpt lat="42.88174" lon="2.23704">
        <ele>357.75</ele>
        <time>2026-06-03T14:12:20.529819012Z</time>
      </trkpt>
      <trkpt lat="42.88173" lon="2.23709">
        <ele>357.94</ele>
        <time>2026-06-03T14:12:21.435632944Z</time>
      </trkpt>
      <trkpt lat="42.88173" lon="2.23714">
        <ele>358.09</ele>
        <time>2026-06-03T14:12:22.453847051Z</time>
      </trkpt>
      <trkpt lat="42.88172" lon="2.23719">
        <ele>358.23</ele>
        <time>2026-06-03T14:12:23.426825047Z</time>
      </trkpt>
      <trkpt lat="42.88171" lon="2.23724">
        <ele>358.35</ele>
        <time>2026-06-03T14:12:24.369729996Z</time>
      </trkpt>
      <trkpt lat="42.88169" lon="2.23729">
        <ele>358.46</ele>
        <time>2026-06-03T14:12:25.449694037Z</time>
      </trkpt>
      <trkpt lat="42.88169" lon="2.23734">
        <ele>358.55</ele>
        <time>2026-06-03T14:12:26.469501019Z</time>
      </trkpt>
      <trkpt lat="42.88168" lon="2.23738">
        <ele>358.63</ele>
        <time>2026-06-03T14:12:27.439821959Z</time>
      </trkpt>
      <trkpt lat="42.88165" lon="2.23743">
        <ele>358.69</ele>
        <time>2026-06-03T14:12:28.509310007Z</time>
      </trkpt>
      <trkpt lat="42.88165" lon="2.23749">
        <ele>358.75</ele>
        <time>2026-06-03T14:12:29.470113993Z</time>
      </trkpt>
      <trkpt lat="42.88163" lon="2.23753">
        <ele>358.8</ele>
        <time>2026-06-03T14:12:30.490700006Z</time>
      </trkpt>
      <trkpt lat="42.88163" lon="2.23757">
        <ele>358.84</ele>
        <time>2026-06-03T14:12:31.510086060Z</time>
      </trkpt>
      <trkpt lat="42.88161" lon="2.23763">
        <ele>358.88</ele>
        <time>2026-06-03T14:12:32.470440030Z</time>
      </trkpt>
      <trkpt lat="42.8816" lon="2.23767">
        <ele>358.91</ele>
        <time>2026-06-03T14:12:33.370959044Z</time>
      </trkpt>
      <trkpt lat="42.88159" lon="2.23771">
        <ele>358.95</ele>
        <time>2026-06-03T14:12:34.451805949Z</time>
      </trkpt>
      <trkpt lat="42.88159" lon="2.23777">
        <ele>359.01</ele>
        <time>2026-06-03T14:12:35.530369997Z</time>
      </trkpt>
      <trkpt lat="42.88158" lon="2.23781">
        <ele>359.05</ele>
        <time>2026-06-03T14:12:36.383864999Z</time>
      </trkpt>
      <trkpt lat="42.88158" lon="2.23786">
        <ele>359.11</ele>
        <time>2026-06-03T14:12:37.509304047Z</time>
      </trkpt>
      <trkpt lat="42.88157" lon="2.23791">
        <ele>359.18</ele>
        <time>2026-06-03T14:12:38.372135997Z</time>
      </trkpt>
      <trkpt lat="42.88155" lon="2.23796">
        <ele>359.24</ele>
        <time>2026-06-03T14:12:39.374377966Z</time>
      </trkpt>
      <trkpt lat="42.88155" lon="2.23801">
        <ele>359.31</ele>
        <time>2026-06-03T14:12:40.404189944Z</time>
      </trkpt>
      <trkpt lat="42.88155" lon="2.23806">
        <ele>359.36</ele>
        <time>2026-06-03T14:12:41.470262051Z</time>
      </trkpt>
      <trkpt lat="42.88156" lon="2.23809">
        <ele>359.44</ele>
        <time>2026-06-03T14:12:42.387030005Z</time>
      </trkpt>
      <trkpt lat="42.88157" lon="2.23814">
        <ele>359.52</ele>
        <time>2026-06-03T14:12:43.449290991Z</time>
      </trkpt>
      <trkpt lat="42.88156" lon="2.23818">
        <ele>359.6</ele>
        <time>2026-06-03T14:12:44.470468998Z</time>
      </trkpt>
      <trkpt lat="42.88155" lon="2.23826">
        <ele>359.69</ele>
        <time>2026-06-03T14:12:45.489810944Z</time>
      </trkpt>
      <trkpt lat="42.88154" lon="2.23831">
        <ele>359.8</ele>
        <time>2026-06-03T14:12:46.458503962Z</time>
      </trkpt>
      <trkpt lat="42.88154" lon="2.23836">
        <ele>359.92</ele>
        <time>2026-06-03T14:12:47.530259967Z</time>
      </trkpt>
      <trkpt lat="42.88153" lon="2.23841">
        <ele>360.04</ele>
        <time>2026-06-03T14:12:48.490682006Z</time>
      </trkpt>
      <trkpt lat="42.88154" lon="2.23846">
        <ele>360.16</ele>
        <time>2026-06-03T14:12:49.389526963Z</time>
      </trkpt>
      <trkpt lat="42.88155" lon="2.23852">
        <ele>360.27</ele>
        <time>2026-06-03T14:12:50.409445047Z</time>
      </trkpt>
      <trkpt lat="42.88155" lon="2.23857">
        <ele>360.37</ele>
        <time>2026-06-03T14:12:51.489218950Z</time>
      </trkpt>
      <trkpt lat="42.88155" lon="2.2386">
        <ele>360.47</ele>
        <time>2026-06-03T14:12:52.453732967Z</time>
      </trkpt>
      <trkpt lat="42.88156" lon="2.23865">
        <ele>360.55</ele>
        <time>2026-06-03T14:12:53.368242979Z</time>
      </trkpt>
      <trkpt lat="42.88156" lon="2.23866">
        <ele>360.62</ele>
        <time>2026-06-03T14:12:54.406733036Z</time>
      </trkpt>
      <trkpt lat="42.88156" lon="2.2387">
        <ele>360.67</ele>
        <time>2026-06-03T14:12:55.404572010Z</time>
      </trkpt>
      <trkpt lat="42.88156" lon="2.23873">
        <ele>360.71</ele>
        <time>2026-06-03T14:12:56.469712973Z</time>
      </trkpt>
      <trkpt lat="42.88156" lon="2.23877">
        <ele>360.72</ele>
        <time>2026-06-03T14:12:57.489402056Z</time>
      </trkpt>
      <trkpt lat="42.88155" lon="2.23881">
        <ele>360.71</ele>
        <time>2026-06-03T14:12:58.449118972Z</time>
      </trkpt>
      <trkpt lat="42.88151" lon="2.23888">
        <ele>360.67</ele>
        <time>2026-06-03T14:12:59.469769001Z</time>
      </trkpt>
      <trkpt lat="42.88149" lon="2.2389">
        <ele>360.73</ele>
        <time>2026-06-03T14:13:00.490697026Z</time>
      </trkpt>
      <trkpt lat="42.88146" lon="2.23892">
        <ele>360.76</ele>
        <time>2026-06-03T14:13:01.510943055Z</time>
      </trkpt>
      <trkpt lat="42.88144" lon="2.23895">
        <ele>360.78</ele>
        <time>2026-06-03T14:13:02.473566055Z</time>
      </trkpt>
      <trkpt lat="42.88142" lon="2.23898">
        <ele>360.81</ele>
        <time>2026-06-03T14:13:03.430119038Z</time>
      </trkpt>
      <trkpt lat="42.8814" lon="2.23902">
        <ele>360.83</ele>
        <time>2026-06-03T14:13:04.452569962Z</time>
      </trkpt>
      <trkpt lat="42.88139" lon="2.23905">
        <ele>360.85</ele>
        <time>2026-06-03T14:13:05.410192966Z</time>
      </trkpt>
      <trkpt lat="42.88138" lon="2.2391">
        <ele>360.9</ele>
        <time>2026-06-03T14:13:06.430075049Z</time>
      </trkpt>
      <trkpt lat="42.88137" lon="2.23913">
        <ele>360.98</ele>
        <time>2026-06-03T14:13:07.510537028Z</time>
      </trkpt>
      <trkpt lat="42.88137" lon="2.23918">
        <ele>361.05</ele>
        <time>2026-06-03T14:13:08.470644951Z</time>
      </trkpt>
      <trkpt lat="42.88136" lon="2.23922">
        <ele>361.17</ele>
        <time>2026-06-03T14:13:09.370455980Z</time>
      </trkpt>
      <trkpt lat="42.88135" lon="2.23926">
        <ele>361.33</ele>
        <time>2026-06-03T14:13:10.404526949Z</time>
      </trkpt>
      <trkpt lat="42.88134" lon="2.2393">
        <ele>361.54</ele>
        <time>2026-06-03T14:13:11.417008996Z</time>
      </trkpt>
      <trkpt lat="42.88133" lon="2.23934">
        <ele>361.74</ele>
        <time>2026-06-03T14:13:12.490504980Z</time>
      </trkpt>
      <trkpt lat="42.88132" lon="2.23939">
        <ele>361.98</ele>
        <time>2026-06-03T14:13:13.407225966Z</time>
      </trkpt>
      <trkpt lat="42.88132" lon="2.23943">
        <ele>362.26</ele>
        <time>2026-06-03T14:13:14.472635984Z</time>
      </trkpt>
      <trkpt lat="42.88131" lon="2.23948">
        <ele>362.54</ele>
        <time>2026-06-03T14:13:15.430305958Z</time>
      </trkpt>
      <trkpt lat="42.88131" lon="2.23952">
        <ele>362.8</ele>
        <time>2026-06-03T14:13:16.359439969Z</time>
      </trkpt>
      <trkpt lat="42.8813" lon="2.23957">
        <ele>363.07</ele>
        <time>2026-06-03T14:13:17.595507026Z</time>
      </trkpt>
      <trkpt lat="42.8813" lon="2.23961">
        <ele>363.34</ele>
        <time>2026-06-03T14:13:18.490563989Z</time>
      </trkpt>
      <trkpt lat="42.88129" lon="2.23966">
        <ele>363.6</ele>
        <time>2026-06-03T14:13:19.441164017Z</time>
      </trkpt>
      <trkpt lat="42.88129" lon="2.2397">
        <ele>363.82</ele>
        <time>2026-06-03T14:13:20.471150041Z</time>
      </trkpt>
      <trkpt lat="42.88129" lon="2.23974">
        <ele>364.04</ele>
        <time>2026-06-03T14:13:21.428236008Z</time>
      </trkpt>
      <trkpt lat="42.88129" lon="2.23979">
        <ele>364.24</ele>
        <time>2026-06-03T14:13:22.456542969Z</time>
      </trkpt>
      <trkpt lat="42.88128" lon="2.23984">
        <ele>364.41</ele>
        <time>2026-06-03T14:13:23.470944047Z</time>
      </trkpt>
      <trkpt lat="42.88129" lon="2.23988">
        <ele>364.56</ele>
        <time>2026-06-03T14:13:24.460921049Z</time>
      </trkpt>
      <trkpt lat="42.88129" lon="2.23993">
        <ele>364.72</ele>
        <time>2026-06-03T14:13:25.480628014Z</time>
      </trkpt>
      <trkpt lat="42.88129" lon="2.23997">
        <ele>364.88</ele>
        <time>2026-06-03T14:13:26.412626982Z</time>
      </trkpt>
      <trkpt lat="42.88129" lon="2.24002">
        <ele>365.02</ele>
        <time>2026-06-03T14:13:27.463207960Z</time>
      </trkpt>
      <trkpt lat="42.88129" lon="2.24006">
        <ele>365.18</ele>
        <time>2026-06-03T14:13:28.393973947Z</time>
      </trkpt>
      <trkpt lat="42.88129" lon="2.24009">
        <ele>365.34</ele>
        <time>2026-06-03T14:13:29.410169959Z</time>
      </trkpt>
      <trkpt lat="42.88129" lon="2.24014">
        <ele>365.52</ele>
        <time>2026-06-03T14:13:30.430958033Z</time>
      </trkpt>
      <trkpt lat="42.88129" lon="2.24019">
        <ele>365.68</ele>
        <time>2026-06-03T14:13:31.360705972Z</time>
      </trkpt>
      <trkpt lat="42.88129" lon="2.24023">
        <ele>365.84</ele>
        <time>2026-06-03T14:13:32.459185958Z</time>
      </trkpt>
      <trkpt lat="42.88129" lon="2.24027">
        <ele>366.01</ele>
        <time>2026-06-03T14:13:33.430655956Z</time>
      </trkpt>
      <trkpt lat="42.8813" lon="2.24031">
        <ele>366.16</ele>
        <time>2026-06-03T14:13:34.420757055Z</time>
      </trkpt>
      <trkpt lat="42.8813" lon="2.24036">
        <ele>366.3</ele>
        <time>2026-06-03T14:13:35.441319942Z</time>
      </trkpt>
      <trkpt lat="42.8813" lon="2.2404">
        <ele>366.43</ele>
        <time>2026-06-03T14:13:36.374485970Z</time>
      </trkpt>
      <trkpt lat="42.8813" lon="2.24044">
        <ele>366.56</ele>
        <time>2026-06-03T14:13:37.450309038Z</time>
      </trkpt>
      <trkpt lat="42.88131" lon="2.24048">
        <ele>366.68</ele>
        <time>2026-06-03T14:13:38.471552014Z</time>
      </trkpt>
      <trkpt lat="42.88131" lon="2.24052">
        <ele>366.79</ele>
        <time>2026-06-03T14:13:39.373402953Z</time>
      </trkpt>
      <trkpt lat="42.8813" lon="2.24057">
        <ele>366.9</ele>
        <time>2026-06-03T14:13:40.441753983Z</time>
      </trkpt>
      <trkpt lat="42.8813" lon="2.24061">
        <ele>367.03</ele>
        <time>2026-06-03T14:13:41.383023977Z</time>
      </trkpt>
      <trkpt lat="42.8813" lon="2.24066">
        <ele>367.16</ele>
        <time>2026-06-03T14:13:42.463338017Z</time>
      </trkpt>
      <trkpt lat="42.88131" lon="2.2407">
        <ele>367.28</ele>
        <time>2026-06-03T14:13:43.452921033Z</time>
      </trkpt>
      <trkpt lat="42.88131" lon="2.24073">
        <ele>367.41</ele>
        <time>2026-06-03T14:13:44.453490019Z</time>
      </trkpt>
      <trkpt lat="42.88131" lon="2.24077">
        <ele>367.56</ele>
        <time>2026-06-03T14:13:45.431542993Z</time>
      </trkpt>
      <trkpt lat="42.88133" lon="2.24081">
        <ele>367.73</ele>
        <time>2026-06-03T14:13:46.443073988Z</time>
      </trkpt>
      <trkpt lat="42.88134" lon="2.24085">
        <ele>367.88</ele>
        <time>2026-06-03T14:13:47.454483986Z</time>
      </trkpt>
      <trkpt lat="42.88135" lon="2.24089">
        <ele>368.04</ele>
        <time>2026-06-03T14:13:48.460258007Z</time>
      </trkpt>
      <trkpt lat="42.88136" lon="2.24094">
        <ele>368.2</ele>
        <time>2026-06-03T14:13:49.367954016Z</time>
      </trkpt>
      <trkpt lat="42.88137" lon="2.24098">
        <ele>368.38</ele>
        <time>2026-06-03T14:13:50.470980048Z</time>
      </trkpt>
      <trkpt lat="42.88137" lon="2.24102">
        <ele>368.53</ele>
        <time>2026-06-03T14:13:51.443439007Z</time>
      </trkpt>
      <trkpt lat="42.88138" lon="2.24108">
        <ele>368.68</ele>
        <time>2026-06-03T14:13:52.387081027Z</time>
      </trkpt>
      <trkpt lat="42.88138" lon="2.24113">
        <ele>368.83</ele>
        <time>2026-06-03T14:13:53.455490947Z</time>
      </trkpt>
      <trkpt lat="42.88138" lon="2.24118">
        <ele>368.95</ele>
        <time>2026-06-03T14:13:54.460530043Z</time>
      </trkpt>
      <trkpt lat="42.88138" lon="2.24123">
        <ele>369.06</ele>
        <time>2026-06-03T14:13:55.401350021Z</time>
      </trkpt>
      <trkpt lat="42.88138" lon="2.24128">
        <ele>369.16</ele>
        <time>2026-06-03T14:13:56.471027970Z</time>
      </trkpt>
      <trkpt lat="42.88137" lon="2.24133">
        <ele>369.24</ele>
        <time>2026-06-03T14:13:57.419119Z</time>
      </trkpt>
      <trkpt lat="42.88137" lon="2.24138">
        <ele>369.31</ele>
        <time>2026-06-03T14:13:58.363345027Z</time>
      </trkpt>
      <trkpt lat="42.88136" lon="2.24142">
        <ele>369.38</ele>
        <time>2026-06-03T14:13:59.448827028Z</time>
      </trkpt>
      <trkpt lat="42.88135" lon="2.24146">
        <ele>369.55</ele>
        <time>2026-06-03T14:14:00.431450963Z</time>
      </trkpt>
      <trkpt lat="42.88135" lon="2.24153">
        <ele>369.7</ele>
        <time>2026-06-03T14:14:01.481199026Z</time>
      </trkpt>
      <trkpt lat="42.88134" lon="2.24157">
        <ele>369.86</ele>
        <time>2026-06-03T14:14:02.468487978Z</time>
      </trkpt>
      <trkpt lat="42.88134" lon="2.24162">
        <ele>370.01</ele>
        <time>2026-06-03T14:14:03.461665034Z</time>
      </trkpt>
      <trkpt lat="42.88133" lon="2.24168">
        <ele>370.18</ele>
        <time>2026-06-03T14:14:04.451395035Z</time>
      </trkpt>
      <trkpt lat="42.88132" lon="2.24173">
        <ele>370.34</ele>
        <time>2026-06-03T14:14:05.444725990Z</time>
      </trkpt>
      <trkpt lat="42.88131" lon="2.24177">
        <ele>370.52</ele>
        <time>2026-06-03T14:14:06.462008953Z</time>
      </trkpt>
      <trkpt lat="42.8813" lon="2.24182">
        <ele>370.68</ele>
        <time>2026-06-03T14:14:07.391682982Z</time>
      </trkpt>
      <trkpt lat="42.88129" lon="2.24186">
        <ele>370.86</ele>
        <time>2026-06-03T14:14:08.472192049Z</time>
      </trkpt>
      <trkpt lat="42.88129" lon="2.2419">
        <ele>371.06</ele>
        <time>2026-06-03T14:14:09.431643963Z</time>
      </trkpt>
      <trkpt lat="42.88128" lon="2.24196">
        <ele>371.27</ele>
        <time>2026-06-03T14:14:10.452146053Z</time>
      </trkpt>
      <trkpt lat="42.88127" lon="2.24201">
        <ele>371.45</ele>
        <time>2026-06-03T14:14:11.471910954Z</time>
      </trkpt>
      <trkpt lat="42.88125" lon="2.24206">
        <ele>371.65</ele>
        <time>2026-06-03T14:14:12.492239952Z</time>
      </trkpt>
      <trkpt lat="42.88124" lon="2.24211">
        <ele>371.88</ele>
        <time>2026-06-03T14:14:13.482162952Z</time>
      </trkpt>
      <trkpt lat="42.88123" lon="2.24216">
        <ele>372.13</ele>
        <time>2026-06-03T14:14:14.382009029Z</time>
      </trkpt>
      <trkpt lat="42.88122" lon="2.24221">
        <ele>372.35</ele>
        <time>2026-06-03T14:14:15.403785944Z</time>
      </trkpt>
      <trkpt lat="42.88121" lon="2.24226">
        <ele>372.57</ele>
        <time>2026-06-03T14:14:16.452887058Z</time>
      </trkpt>
      <trkpt lat="42.88119" lon="2.24232">
        <ele>372.8</ele>
        <time>2026-06-03T14:14:17.381896973Z</time>
      </trkpt>
      <trkpt lat="42.88118" lon="2.24236">
        <ele>373.01</ele>
        <time>2026-06-03T14:14:18.379598975Z</time>
      </trkpt>
      <trkpt lat="42.88118" lon="2.24241">
        <ele>373.2</ele>
        <time>2026-06-03T14:14:19.525020957Z</time>
      </trkpt>
      <trkpt lat="42.88116" lon="2.24245">
        <ele>373.38</ele>
        <time>2026-06-03T14:14:20.421404004Z</time>
      </trkpt>
      <trkpt lat="42.88114" lon="2.2425">
        <ele>373.55</ele>
        <time>2026-06-03T14:14:21.461694002Z</time>
      </trkpt>
      <trkpt lat="42.88114" lon="2.24254">
        <ele>373.69</ele>
        <time>2026-06-03T14:14:22.396340966Z</time>
      </trkpt>
      <trkpt lat="42.88113" lon="2.24259">
        <ele>373.82</ele>
        <time>2026-06-03T14:14:23.472087026Z</time>
      </trkpt>
      <trkpt lat="42.88112" lon="2.24264">
        <ele>373.95</ele>
        <time>2026-06-03T14:14:24.372220993Z</time>
      </trkpt>
      <trkpt lat="42.8811" lon="2.24268">
        <ele>374.07</ele>
        <time>2026-06-03T14:14:25.421797037Z</time>
      </trkpt>
      <trkpt lat="42.8811" lon="2.24271">
        <ele>374.19</ele>
        <time>2026-06-03T14:14:26.376042962Z</time>
      </trkpt>
      <trkpt lat="42.88108" lon="2.24275">
        <ele>374.29</ele>
        <time>2026-06-03T14:14:27.461799979Z</time>
      </trkpt>
      <trkpt lat="42.88106" lon="2.24278">
        <ele>374.39</ele>
        <time>2026-06-03T14:14:28.442123055Z</time>
      </trkpt>
      <trkpt lat="42.88105" lon="2.24281">
        <ele>374.5</ele>
        <time>2026-06-03T14:14:29.472087026Z</time>
      </trkpt>
      <trkpt lat="42.88103" lon="2.24284">
        <ele>374.6</ele>
        <time>2026-06-03T14:14:30.431908011Z</time>
      </trkpt>
      <trkpt lat="42.88101" lon="2.24288">
        <ele>374.69</ele>
        <time>2026-06-03T14:14:31.451701045Z</time>
      </trkpt>
      <trkpt lat="42.881" lon="2.24294">
        <ele>374.79</ele>
        <time>2026-06-03T14:14:32.382248044Z</time>
      </trkpt>
      <trkpt lat="42.881" lon="2.24295">
        <ele>374.88</ele>
        <time>2026-06-03T14:14:33.462685943Z</time>
      </trkpt>
      <trkpt lat="42.88097" lon="2.24299">
        <ele>374.94</ele>
        <time>2026-06-03T14:14:34.481204033Z</time>
      </trkpt>
      <trkpt lat="42.88091" lon="2.24311">
        <ele>375</ele>
        <time>2026-06-03T14:14:35.472069025Z</time>
      </trkpt>
      <trkpt lat="42.88089" lon="2.24317">
        <ele>375.02</ele>
        <time>2026-06-03T14:14:36.464252949Z</time>
      </trkpt>
      <trkpt lat="42.88083" lon="2.24329">
        <ele>374.94</ele>
        <time>2026-06-03T14:14:38.472973943Z</time>
      </trkpt>
      <trkpt lat="42.88081" lon="2.24335">
        <ele>374.89</ele>
        <time>2026-06-03T14:14:39.462196946Z</time>
      </trkpt>
      <trkpt lat="42.88079" lon="2.24341">
        <ele>374.79</ele>
        <time>2026-06-03T14:14:40.454337001Z</time>
      </trkpt>
      <trkpt lat="42.88078" lon="2.24347">
        <ele>374.68</ele>
        <time>2026-06-03T14:14:41.451120019Z</time>
      </trkpt>
      <trkpt lat="42.88077" lon="2.24353">
        <ele>374.55</ele>
        <time>2026-06-03T14:14:42.461338043Z</time>
      </trkpt>
      <trkpt lat="42.88076" lon="2.24359">
        <ele>374.44</ele>
        <time>2026-06-03T14:14:43.482362032Z</time>
      </trkpt>
      <trkpt lat="42.88076" lon="2.24365">
        <ele>374.31</ele>
        <time>2026-06-03T14:14:44.383857965Z</time>
      </trkpt>
      <trkpt lat="42.88075" lon="2.2437">
        <ele>374.18</ele>
        <time>2026-06-03T14:14:45.404062986Z</time>
      </trkpt>
      <trkpt lat="42.88075" lon="2.24378">
        <ele>374.08</ele>
        <time>2026-06-03T14:14:46.451382995Z</time>
      </trkpt>
      <trkpt lat="42.88074" lon="2.24383">
        <ele>373.98</ele>
        <time>2026-06-03T14:14:47.381477952Z</time>
      </trkpt>
      <trkpt lat="42.88072" lon="2.24388">
        <ele>373.9</ele>
        <time>2026-06-03T14:14:48.418715954Z</time>
      </trkpt>
      <trkpt lat="42.8807" lon="2.24394">
        <ele>373.83</ele>
        <time>2026-06-03T14:14:49.372329950Z</time>
      </trkpt>
      <trkpt lat="42.88068" lon="2.24398">
        <ele>373.78</ele>
        <time>2026-06-03T14:14:50.419111967Z</time>
      </trkpt>
      <trkpt lat="42.88066" lon="2.24402">
        <ele>373.74</ele>
        <time>2026-06-03T14:14:51.375936985Z</time>
      </trkpt>
      <trkpt lat="42.88063" lon="2.24405">
        <ele>373.7</ele>
        <time>2026-06-03T14:14:52.391767979Z</time>
      </trkpt>
      <trkpt lat="42.8806" lon="2.24409">
        <ele>373.66</ele>
        <time>2026-06-03T14:14:53.382490993Z</time>
      </trkpt>
      <trkpt lat="42.88057" lon="2.24412">
        <ele>373.62</ele>
        <time>2026-06-03T14:14:54.462460995Z</time>
      </trkpt>
      <trkpt lat="42.88054" lon="2.24415">
        <ele>373.58</ele>
        <time>2026-06-03T14:14:55.402227998Z</time>
      </trkpt>
      <trkpt lat="42.88051" lon="2.24415">
        <ele>373.52</ele>
        <time>2026-06-03T14:14:56.396046042Z</time>
      </trkpt>
      <trkpt lat="42.88047" lon="2.24415">
        <ele>373.46</ele>
        <time>2026-06-03T14:14:57.374099016Z</time>
      </trkpt>
      <trkpt lat="42.88043" lon="2.24412">
        <ele>373.4</ele>
        <time>2026-06-03T14:14:58.454506993Z</time>
      </trkpt>
      <trkpt lat="42.88039" lon="2.24412">
        <ele>373.34</ele>
        <time>2026-06-03T14:14:59.412462950Z</time>
      </trkpt>
      <trkpt lat="42.88036" lon="2.24412">
        <ele>373.37</ele>
        <time>2026-06-03T14:15:00.402606964Z</time>
      </trkpt>
      <trkpt lat="42.88032" lon="2.24412">
        <ele>373.39</ele>
        <time>2026-06-03T14:15:01.454239011Z</time>
      </trkpt>
      <trkpt lat="42.88029" lon="2.24412">
        <ele>373.41</ele>
        <time>2026-06-03T14:15:02.394816995Z</time>
      </trkpt>
      <trkpt lat="42.88026" lon="2.24414">
        <ele>373.42</ele>
        <time>2026-06-03T14:15:03.388192058Z</time>
      </trkpt>
      <trkpt lat="42.88023" lon="2.24416">
        <ele>373.43</ele>
        <time>2026-06-03T14:15:04.446068048Z</time>
      </trkpt>
      <trkpt lat="42.88021" lon="2.24419">
        <ele>373.43</ele>
        <time>2026-06-03T14:15:05.404057026Z</time>
      </trkpt>
      <trkpt lat="42.88018" lon="2.24422">
        <ele>373.44</ele>
        <time>2026-06-03T14:15:06.375735044Z</time>
      </trkpt>
      <trkpt lat="42.88015" lon="2.24425">
        <ele>373.45</ele>
        <time>2026-06-03T14:15:07.392693043Z</time>
      </trkpt>
      <trkpt lat="42.88013" lon="2.24427">
        <ele>373.47</ele>
        <time>2026-06-03T14:15:08.373914957Z</time>
      </trkpt>
      <trkpt lat="42.8801" lon="2.2443">
        <ele>373.5</ele>
        <time>2026-06-03T14:15:09.371917009Z</time>
      </trkpt>
      <trkpt lat="42.88006" lon="2.24433">
        <ele>373.53</ele>
        <time>2026-06-03T14:15:10.404204965Z</time>
      </trkpt>
      <trkpt lat="42.88004" lon="2.24435">
        <ele>373.58</ele>
        <time>2026-06-03T14:15:11.406700015Z</time>
      </trkpt>
      <trkpt lat="42.88" lon="2.24437">
        <ele>373.64</ele>
        <time>2026-06-03T14:15:12.372784972Z</time>
      </trkpt>
      <trkpt lat="42.87998" lon="2.2444">
        <ele>373.71</ele>
        <time>2026-06-03T14:15:13.392845035Z</time>
      </trkpt>
      <trkpt lat="42.87996" lon="2.24442">
        <ele>373.77</ele>
        <time>2026-06-03T14:15:14.383070946Z</time>
      </trkpt>
      <trkpt lat="42.87992" lon="2.24445">
        <ele>373.85</ele>
        <time>2026-06-03T14:15:15.404108047Z</time>
      </trkpt>
      <trkpt lat="42.8799" lon="2.24448">
        <ele>373.94</ele>
        <time>2026-06-03T14:15:16.367755055Z</time>
      </trkpt>
      <trkpt lat="42.87987" lon="2.24451">
        <ele>374.05</ele>
        <time>2026-06-03T14:15:17.383066058Z</time>
      </trkpt>
      <trkpt lat="42.87984" lon="2.24454">
        <ele>374.14</ele>
        <time>2026-06-03T14:15:18.372817993Z</time>
      </trkpt>
      <trkpt lat="42.87983" lon="2.24457">
        <ele>374.24</ele>
        <time>2026-06-03T14:15:19.392061949Z</time>
      </trkpt>
      <trkpt lat="42.8798" lon="2.24461">
        <ele>374.35</ele>
        <time>2026-06-03T14:15:20.418545961Z</time>
      </trkpt>
      <trkpt lat="42.87978" lon="2.24464">
        <ele>374.46</ele>
        <time>2026-06-03T14:15:21.521283984Z</time>
      </trkpt>
      <trkpt lat="42.87975" lon="2.24466">
        <ele>374.57</ele>
        <time>2026-06-03T14:15:22.394994020Z</time>
      </trkpt>
      <trkpt lat="42.87973" lon="2.24469">
        <ele>374.67</ele>
        <time>2026-06-03T14:15:23.382874966Z</time>
      </trkpt>
      <trkpt lat="42.87971" lon="2.24472">
        <ele>374.79</ele>
        <time>2026-06-03T14:15:24.376644015Z</time>
      </trkpt>
      <trkpt lat="42.87968" lon="2.24476">
        <ele>374.92</ele>
        <time>2026-06-03T14:15:25.401661992Z</time>
      </trkpt>
      <trkpt lat="42.87966" lon="2.24479">
        <ele>375.03</ele>
        <time>2026-06-03T14:15:26.413349986Z</time>
      </trkpt>
      <trkpt lat="42.87963" lon="2.24481">
        <ele>375.16</ele>
        <time>2026-06-03T14:15:27.403311014Z</time>
      </trkpt>
      <trkpt lat="42.8796" lon="2.24485">
        <ele>375.28</ele>
        <time>2026-06-03T14:15:28.393103004Z</time>
      </trkpt>
      <trkpt lat="42.87958" lon="2.24488">
        <ele>375.42</ele>
        <time>2026-06-03T14:15:29.417235017Z</time>
      </trkpt>
      <trkpt lat="42.87955" lon="2.24491">
        <ele>375.54</ele>
        <time>2026-06-03T14:15:30.433009028Z</time>
      </trkpt>
      <trkpt lat="42.87953" lon="2.24494">
        <ele>375.67</ele>
        <time>2026-06-03T14:15:31.429541945Z</time>
      </trkpt>
      <trkpt lat="42.8795" lon="2.24497">
        <ele>375.81</ele>
        <time>2026-06-03T14:15:32.413473964Z</time>
      </trkpt>
      <trkpt lat="42.87947" lon="2.245">
        <ele>375.95</ele>
        <time>2026-06-03T14:15:33.403416038Z</time>
      </trkpt>
      <trkpt lat="42.87945" lon="2.24503">
        <ele>376.09</ele>
        <time>2026-06-03T14:15:34.393260956Z</time>
      </trkpt>
      <trkpt lat="42.87942" lon="2.24506">
        <ele>376.22</ele>
        <time>2026-06-03T14:15:35.403148055Z</time>
      </trkpt>
      <trkpt lat="42.8794" lon="2.24509">
        <ele>376.36</ele>
        <time>2026-06-03T14:15:36.389052033Z</time>
      </trkpt>
      <trkpt lat="42.87937" lon="2.24512">
        <ele>376.51</ele>
        <time>2026-06-03T14:15:37.393182993Z</time>
      </trkpt>
      <trkpt lat="42.87934" lon="2.24515">
        <ele>376.64</ele>
        <time>2026-06-03T14:15:38.405657053Z</time>
      </trkpt>
      <trkpt lat="42.87932" lon="2.24518">
        <ele>376.78</ele>
        <time>2026-06-03T14:15:39.403249979Z</time>
      </trkpt>
      <trkpt lat="42.87929" lon="2.2452">
        <ele>376.94</ele>
        <time>2026-06-03T14:15:40.404302001Z</time>
      </trkpt>
      <trkpt lat="42.87926" lon="2.24522">
        <ele>377.11</ele>
        <time>2026-06-03T14:15:41.413290024Z</time>
      </trkpt>
      <trkpt lat="42.87924" lon="2.24524">
        <ele>377.26</ele>
        <time>2026-06-03T14:15:42.403316021Z</time>
      </trkpt>
      <trkpt lat="42.8792" lon="2.24526">
        <ele>377.45</ele>
        <time>2026-06-03T14:15:43.394842982Z</time>
      </trkpt>
      <trkpt lat="42.87918" lon="2.24527">
        <ele>377.67</ele>
        <time>2026-06-03T14:15:44.411831021Z</time>
      </trkpt>
      <trkpt lat="42.87915" lon="2.24529">
        <ele>377.92</ele>
        <time>2026-06-03T14:15:45.465636969Z</time>
      </trkpt>
      <trkpt lat="42.87912" lon="2.24531">
        <ele>378.13</ele>
        <time>2026-06-03T14:15:46.423683047Z</time>
      </trkpt>
      <trkpt lat="42.87909" lon="2.24532">
        <ele>378.38</ele>
        <time>2026-06-03T14:15:47.413743019Z</time>
      </trkpt>
      <trkpt lat="42.87907" lon="2.24533">
        <ele>378.65</ele>
        <time>2026-06-03T14:15:48.406738997Z</time>
      </trkpt>
      <trkpt lat="42.87903" lon="2.24535">
        <ele>378.94</ele>
        <time>2026-06-03T14:15:49.402312040Z</time>
      </trkpt>
      <trkpt lat="42.87901" lon="2.24537">
        <ele>379.19</ele>
        <time>2026-06-03T14:15:50.421576023Z</time>
      </trkpt>
      <trkpt lat="42.87898" lon="2.24538">
        <ele>379.44</ele>
        <time>2026-06-03T14:15:51.404705048Z</time>
      </trkpt>
      <trkpt lat="42.87895" lon="2.24541">
        <ele>379.69</ele>
        <time>2026-06-03T14:15:52.453609943Z</time>
      </trkpt>
      <trkpt lat="42.87893" lon="2.24543">
        <ele>379.94</ele>
        <time>2026-06-03T14:15:53.421054006Z</time>
      </trkpt>
      <trkpt lat="42.8789" lon="2.24545">
        <ele>380.16</ele>
        <time>2026-06-03T14:15:54.403713942Z</time>
      </trkpt>
      <trkpt lat="42.87888" lon="2.24548">
        <ele>380.38</ele>
        <time>2026-06-03T14:15:55.453367949Z</time>
      </trkpt>
      <trkpt lat="42.87887" lon="2.24549">
        <ele>380.6</ele>
        <time>2026-06-03T14:15:56.445894003Z</time>
      </trkpt>
      <trkpt lat="42.87885" lon="2.24551">
        <ele>380.81</ele>
        <time>2026-06-03T14:15:57.421205997Z</time>
      </trkpt>
      <trkpt lat="42.87883" lon="2.24554">
        <ele>381</ele>
        <time>2026-06-03T14:15:58.426028013Z</time>
      </trkpt>
      <trkpt lat="42.87878" lon="2.24556">
        <ele>381.18</ele>
        <time>2026-06-03T14:15:59.419420958Z</time>
      </trkpt>
      <trkpt lat="42.87875" lon="2.24559">
        <ele>381.42</ele>
        <time>2026-06-03T14:16:00.465947032Z</time>
      </trkpt>
      <trkpt lat="42.87872" lon="2.24561">
        <ele>381.64</ele>
        <time>2026-06-03T14:16:01.453814030Z</time>
      </trkpt>
      <trkpt lat="42.87868" lon="2.24561">
        <ele>381.83</ele>
        <time>2026-06-03T14:16:02.474225044Z</time>
      </trkpt>
      <trkpt lat="42.87865" lon="2.24562">
        <ele>382.02</ele>
        <time>2026-06-03T14:16:03.425526977Z</time>
      </trkpt>
      <trkpt lat="42.87862" lon="2.24563">
        <ele>382.21</ele>
        <time>2026-06-03T14:16:04.455474019Z</time>
      </trkpt>
      <trkpt lat="42.87859" lon="2.24563">
        <ele>382.39</ele>
        <time>2026-06-03T14:16:05.445605040Z</time>
      </trkpt>
      <trkpt lat="42.87856" lon="2.24565">
        <ele>382.55</ele>
        <time>2026-06-03T14:16:06.420176983Z</time>
      </trkpt>
      <trkpt lat="42.87852" lon="2.24566">
        <ele>382.69</ele>
        <time>2026-06-03T14:16:07.483021975Z</time>
      </trkpt>
      <trkpt lat="42.87848" lon="2.24568">
        <ele>382.84</ele>
        <time>2026-06-03T14:16:08.437196016Z</time>
      </trkpt>
      <trkpt lat="42.87845" lon="2.24569">
        <ele>382.98</ele>
        <time>2026-06-03T14:16:09.423877954Z</time>
      </trkpt>
      <trkpt lat="42.87842" lon="2.24571">
        <ele>383.11</ele>
        <time>2026-06-03T14:16:10.425245047Z</time>
      </trkpt>
      <trkpt lat="42.87839" lon="2.24573">
        <ele>383.25</ele>
        <time>2026-06-03T14:16:11.425863981Z</time>
      </trkpt>
      <trkpt lat="42.87836" lon="2.24575">
        <ele>383.4</ele>
        <time>2026-06-03T14:16:12.464005947Z</time>
      </trkpt>
      <trkpt lat="42.87833" lon="2.24577">
        <ele>383.58</ele>
        <time>2026-06-03T14:16:13.425649047Z</time>
      </trkpt>
      <trkpt lat="42.87831" lon="2.24579">
        <ele>383.73</ele>
        <time>2026-06-03T14:16:14.442065954Z</time>
      </trkpt>
      <trkpt lat="42.87828" lon="2.24582">
        <ele>383.9</ele>
        <time>2026-06-03T14:16:15.465881944Z</time>
      </trkpt>
      <trkpt lat="42.87825" lon="2.24585">
        <ele>384.11</ele>
        <time>2026-06-03T14:16:16.430853009Z</time>
      </trkpt>
      <trkpt lat="42.87822" lon="2.24587">
        <ele>384.33</ele>
        <time>2026-06-03T14:16:17.430838943Z</time>
      </trkpt>
      <trkpt lat="42.8782" lon="2.24591">
        <ele>384.53</ele>
        <time>2026-06-03T14:16:18.432986975Z</time>
      </trkpt>
      <trkpt lat="42.87818" lon="2.24593">
        <ele>384.75</ele>
        <time>2026-06-03T14:16:19.483778954Z</time>
      </trkpt>
      <trkpt lat="42.87815" lon="2.24597">
        <ele>384.98</ele>
        <time>2026-06-03T14:16:20.449931979Z</time>
      </trkpt>
      <trkpt lat="42.87813" lon="2.246">
        <ele>385.23</ele>
        <time>2026-06-03T14:16:21.436275005Z</time>
      </trkpt>
      <trkpt lat="42.87811" lon="2.24604">
        <ele>385.45</ele>
        <time>2026-06-03T14:16:22.599861979Z</time>
      </trkpt>
      <trkpt lat="42.87808" lon="2.24607">
        <ele>385.67</ele>
        <time>2026-06-03T14:16:23.444533944Z</time>
      </trkpt>
      <trkpt lat="42.87806" lon="2.24611">
        <ele>385.9</ele>
        <time>2026-06-03T14:16:24.439417005Z</time>
      </trkpt>
      <trkpt lat="42.87804" lon="2.24614">
        <ele>386.11</ele>
        <time>2026-06-03T14:16:25.415809989Z</time>
      </trkpt>
      <trkpt lat="42.87801" lon="2.24618">
        <ele>386.29</ele>
        <time>2026-06-03T14:16:26.473526001Z</time>
      </trkpt>
      <trkpt lat="42.87799" lon="2.24621">
        <ele>386.48</ele>
        <time>2026-06-03T14:16:27.441946030Z</time>
      </trkpt>
      <trkpt lat="42.87798" lon="2.24625">
        <ele>386.68</ele>
        <time>2026-06-03T14:16:28.444807053Z</time>
      </trkpt>
      <trkpt lat="42.87796" lon="2.24628">
        <ele>386.89</ele>
        <time>2026-06-03T14:16:29.444067955Z</time>
      </trkpt>
      <trkpt lat="42.87793" lon="2.24631">
        <ele>387.08</ele>
        <time>2026-06-03T14:16:30.444561958Z</time>
      </trkpt>
      <trkpt lat="42.87791" lon="2.24635">
        <ele>387.28</ele>
        <time>2026-06-03T14:16:31.453536034Z</time>
      </trkpt>
      <trkpt lat="42.87789" lon="2.24638">
        <ele>387.49</ele>
        <time>2026-06-03T14:16:32.474527955Z</time>
      </trkpt>
      <trkpt lat="42.87786" lon="2.24641">
        <ele>387.71</ele>
        <time>2026-06-03T14:16:33.448748946Z</time>
      </trkpt>
      <trkpt lat="42.87785" lon="2.24643">
        <ele>387.89</ele>
        <time>2026-06-03T14:16:34.454102993Z</time>
      </trkpt>
      <trkpt lat="42.87782" lon="2.24647">
        <ele>388.08</ele>
        <time>2026-06-03T14:16:35.451334953Z</time>
      </trkpt>
      <trkpt lat="42.8778" lon="2.24649">
        <ele>388.25</ele>
        <time>2026-06-03T14:16:36.464069009Z</time>
      </trkpt>
      <trkpt lat="42.87776" lon="2.24652">
        <ele>388.4</ele>
        <time>2026-06-03T14:16:37.454143047Z</time>
      </trkpt>
      <trkpt lat="42.87774" lon="2.24655">
        <ele>388.54</ele>
        <time>2026-06-03T14:16:38.462414026Z</time>
      </trkpt>
      <trkpt lat="42.8777" lon="2.24659">
        <ele>388.66</ele>
        <time>2026-06-03T14:16:39.453129053Z</time>
      </trkpt>
      <trkpt lat="42.87767" lon="2.24663">
        <ele>388.74</ele>
        <time>2026-06-03T14:16:40.454354048Z</time>
      </trkpt>
      <trkpt lat="42.87763" lon="2.24665">
        <ele>388.82</ele>
        <time>2026-06-03T14:16:41.453137040Z</time>
      </trkpt>
      <trkpt lat="42.87759" lon="2.24666">
        <ele>388.88</ele>
        <time>2026-06-03T14:16:42.403676987Z</time>
      </trkpt>
      <trkpt lat="42.87754" lon="2.24665">
        <ele>388.92</ele>
        <time>2026-06-03T14:16:43.457630038Z</time>
      </trkpt>
      <trkpt lat="42.87751" lon="2.24664">
        <ele>388.93</ele>
        <time>2026-06-03T14:16:44.451328039Z</time>
      </trkpt>
      <trkpt lat="42.87748" lon="2.24663">
        <ele>388.94</ele>
        <time>2026-06-03T14:16:45.404242992Z</time>
      </trkpt>
      <trkpt lat="42.87746" lon="2.24663">
        <ele>388.94</ele>
        <time>2026-06-03T14:16:46.432369947Z</time>
      </trkpt>
      <trkpt lat="42.87743" lon="2.24662">
        <ele>388.93</ele>
        <time>2026-06-03T14:16:47.414299011Z</time>
      </trkpt>
      <trkpt lat="42.8774" lon="2.24662">
        <ele>388.93</ele>
        <time>2026-06-03T14:16:48.374274969Z</time>
      </trkpt>
      <trkpt lat="42.87737" lon="2.24661">
        <ele>388.93</ele>
        <time>2026-06-03T14:16:49.424381018Z</time>
      </trkpt>
      <trkpt lat="42.87735" lon="2.24661">
        <ele>388.94</ele>
        <time>2026-06-03T14:16:50.418576956Z</time>
      </trkpt>
      <trkpt lat="42.87731" lon="2.24662">
        <ele>388.97</ele>
        <time>2026-06-03T14:16:51.452255011Z</time>
      </trkpt>
      <trkpt lat="42.87728" lon="2.24664">
        <ele>389.02</ele>
        <time>2026-06-03T14:16:52.424497962Z</time>
      </trkpt>
      <trkpt lat="42.87724" lon="2.24666">
        <ele>389.06</ele>
        <time>2026-06-03T14:16:53.413712025Z</time>
      </trkpt>
      <trkpt lat="42.8772" lon="2.24669">
        <ele>389.12</ele>
        <time>2026-06-03T14:16:54.440485954Z</time>
      </trkpt>
      <trkpt lat="42.87717" lon="2.24673">
        <ele>389.16</ele>
        <time>2026-06-03T14:16:55.424339056Z</time>
      </trkpt>
      <trkpt lat="42.87714" lon="2.24679">
        <ele>389.19</ele>
        <time>2026-06-03T14:16:56.414724946Z</time>
      </trkpt>
      <trkpt lat="42.87714" lon="2.24681">
        <ele>389.22</ele>
        <time>2026-06-03T14:16:57.436167002Z</time>
      </trkpt>
      <trkpt lat="42.87711" lon="2.24695">
        <ele>389.22</ele>
        <time>2026-06-03T14:16:58.424445033Z</time>
      </trkpt>
      <trkpt lat="42.87709" lon="2.24703">
        <ele>389.2</ele>
        <time>2026-06-03T14:16:59.416947007Z</time>
      </trkpt>
      <trkpt lat="42.87706" lon="2.2471">
        <ele>389.16</ele>
        <time>2026-06-03T14:17:00.404777050Z</time>
      </trkpt>
      <trkpt lat="42.87703" lon="2.24716">
        <ele>389.12</ele>
        <time>2026-06-03T14:17:01.424532056Z</time>
      </trkpt>
      <trkpt lat="42.87698" lon="2.24721">
        <ele>389.04</ele>
        <time>2026-06-03T14:17:02.446764946Z</time>
      </trkpt>
      <trkpt lat="42.87694" lon="2.24724">
        <ele>388.97</ele>
        <time>2026-06-03T14:17:03.434108973Z</time>
      </trkpt>
      <trkpt lat="42.8769" lon="2.24728">
        <ele>388.88</ele>
        <time>2026-06-03T14:17:04.429134011Z</time>
      </trkpt>
      <trkpt lat="42.87686" lon="2.24731">
        <ele>388.81</ele>
        <time>2026-06-03T14:17:05.430538058Z</time>
      </trkpt>
      <trkpt lat="42.87683" lon="2.24735">
        <ele>388.71</ele>
        <time>2026-06-03T14:17:06.404618979Z</time>
      </trkpt>
      <trkpt lat="42.87681" lon="2.24738">
        <ele>388.63</ele>
        <time>2026-06-03T14:17:07.424932957Z</time>
      </trkpt>
      <trkpt lat="42.87678" lon="2.24741">
        <ele>388.56</ele>
        <time>2026-06-03T14:17:08.385059953Z</time>
      </trkpt>
      <trkpt lat="42.87675" lon="2.24744">
        <ele>388.5</ele>
        <time>2026-06-03T14:17:09.434705019Z</time>
      </trkpt>
      <trkpt lat="42.87673" lon="2.24746">
        <ele>388.45</ele>
        <time>2026-06-03T14:17:10.427253962Z</time>
      </trkpt>
      <trkpt lat="42.87669" lon="2.24749">
        <ele>388.43</ele>
        <time>2026-06-03T14:17:11.415078998Z</time>
      </trkpt>
      <trkpt lat="42.87667" lon="2.24751">
        <ele>388.42</ele>
        <time>2026-06-03T14:17:12.434654951Z</time>
      </trkpt>
      <trkpt lat="42.87664" lon="2.24752">
        <ele>388.42</ele>
        <time>2026-06-03T14:17:13.424803019Z</time>
      </trkpt>
      <trkpt lat="42.8766" lon="2.24754">
        <ele>388.46</ele>
        <time>2026-06-03T14:17:14.446820974Z</time>
      </trkpt>
      <trkpt lat="42.87657" lon="2.24756">
        <ele>388.51</ele>
        <time>2026-06-03T14:17:15.434947968Z</time>
      </trkpt>
      <trkpt lat="42.87654" lon="2.24758">
        <ele>388.6</ele>
        <time>2026-06-03T14:17:16.424954057Z</time>
      </trkpt>
      <trkpt lat="42.87651" lon="2.2476">
        <ele>388.69</ele>
        <time>2026-06-03T14:17:17.433364034Z</time>
      </trkpt>
      <trkpt lat="42.87649" lon="2.24762">
        <ele>388.8</ele>
        <time>2026-06-03T14:17:18.435101986Z</time>
      </trkpt>
      <trkpt lat="42.87646" lon="2.24765">
        <ele>388.94</ele>
        <time>2026-06-03T14:17:19.425219059Z</time>
      </trkpt>
      <trkpt lat="42.87644" lon="2.24768">
        <ele>389.1</ele>
        <time>2026-06-03T14:17:20.447168946Z</time>
      </trkpt>
      <trkpt lat="42.87642" lon="2.24771">
        <ele>389.24</ele>
        <time>2026-06-03T14:17:21.359451056Z</time>
      </trkpt>
      <trkpt lat="42.87639" lon="2.24773">
        <ele>389.4</ele>
        <time>2026-06-03T14:17:22.364159942Z</time>
      </trkpt>
      <trkpt lat="42.87637" lon="2.24776">
        <ele>389.56</ele>
        <time>2026-06-03T14:17:23.360250950Z</time>
      </trkpt>
      <trkpt lat="42.87634" lon="2.24778">
        <ele>389.73</ele>
        <time>2026-06-03T14:17:24.514485955Z</time>
      </trkpt>
      <trkpt lat="42.8763" lon="2.2478">
        <ele>389.89</ele>
        <time>2026-06-03T14:17:25.426854968Z</time>
      </trkpt>
      <trkpt lat="42.87626" lon="2.24781">
        <ele>390.05</ele>
        <time>2026-06-03T14:17:26.377002001Z</time>
      </trkpt>
      <trkpt lat="42.87622" lon="2.24781">
        <ele>390.2</ele>
        <time>2026-06-03T14:17:27.436429977Z</time>
      </trkpt>
      <trkpt lat="42.87618" lon="2.24781">
        <ele>390.33</ele>
        <time>2026-06-03T14:17:28.457414031Z</time>
      </trkpt>
      <trkpt lat="42.87613" lon="2.24781">
        <ele>390.45</ele>
        <time>2026-06-03T14:17:29.447322011Z</time>
      </trkpt>
      <trkpt lat="42.87609" lon="2.24782">
        <ele>390.54</ele>
        <time>2026-06-03T14:17:30.436195016Z</time>
      </trkpt>
      <trkpt lat="42.87604" lon="2.24782">
        <ele>390.62</ele>
        <time>2026-06-03T14:17:31.435546041Z</time>
      </trkpt>
      <trkpt lat="42.87598" lon="2.24783">
        <ele>390.66</ele>
        <time>2026-06-03T14:17:32.447533011Z</time>
      </trkpt>
      <trkpt lat="42.87592" lon="2.24783">
        <ele>390.69</ele>
        <time>2026-06-03T14:17:33.435076952Z</time>
      </trkpt>
      <trkpt lat="42.87587" lon="2.24783">
        <ele>390.7</ele>
        <time>2026-06-03T14:17:34.425572038Z</time>
      </trkpt>
      <trkpt lat="42.8758" lon="2.24783">
        <ele>390.69</ele>
        <time>2026-06-03T14:17:35.426602960Z</time>
      </trkpt>
      <trkpt lat="42.87576" lon="2.24783">
        <ele>390.65</ele>
        <time>2026-06-03T14:17:36.435179949Z</time>
      </trkpt>
      <trkpt lat="42.87571" lon="2.24782">
        <ele>390.63</ele>
        <time>2026-06-03T14:17:37.457672954Z</time>
      </trkpt>
      <trkpt lat="42.87566" lon="2.24781">
        <ele>390.57</ele>
        <time>2026-06-03T14:17:38.447458029Z</time>
      </trkpt>
      <trkpt lat="42.87562" lon="2.24781">
        <ele>390.51</ele>
        <time>2026-06-03T14:17:39.436002970Z</time>
      </trkpt>
      <trkpt lat="42.87558" lon="2.2478">
        <ele>390.46</ele>
        <time>2026-06-03T14:17:40.425547004Z</time>
      </trkpt>
      <trkpt lat="42.87555" lon="2.2478">
        <ele>390.41</ele>
        <time>2026-06-03T14:17:41.415457010Z</time>
      </trkpt>
      <trkpt lat="42.87553" lon="2.2478">
        <ele>390.37</ele>
        <time>2026-06-03T14:17:42.429309011Z</time>
      </trkpt>
      <trkpt lat="42.87549" lon="2.24781">
        <ele>390.34</ele>
        <time>2026-06-03T14:17:43.365499973Z</time>
      </trkpt>
      <trkpt lat="42.87545" lon="2.24782">
        <ele>390.35</ele>
        <time>2026-06-03T14:17:44.448263049Z</time>
      </trkpt>
      <trkpt lat="42.87542" lon="2.24784">
        <ele>390.35</ele>
        <time>2026-06-03T14:17:45.424787998Z</time>
      </trkpt>
      <trkpt lat="42.87539" lon="2.24786">
        <ele>390.38</ele>
        <time>2026-06-03T14:17:46.394655943Z</time>
      </trkpt>
      <trkpt lat="42.87536" lon="2.2479">
        <ele>390.43</ele>
        <time>2026-06-03T14:17:47.433137059Z</time>
      </trkpt>
      <trkpt lat="42.87534" lon="2.24793">
        <ele>390.49</ele>
        <time>2026-06-03T14:17:48.435513973Z</time>
      </trkpt>
      <trkpt lat="42.87532" lon="2.24797">
        <ele>390.54</ele>
        <time>2026-06-03T14:17:49.395807981Z</time>
      </trkpt>
      <trkpt lat="42.87531" lon="2.24801">
        <ele>390.63</ele>
        <time>2026-06-03T14:17:50.448179007Z</time>
      </trkpt>
      <trkpt lat="42.87529" lon="2.24805">
        <ele>390.74</ele>
        <time>2026-06-03T14:17:51.404975057Z</time>
      </trkpt>
      <trkpt lat="42.87527" lon="2.24809">
        <ele>390.9</ele>
        <time>2026-06-03T14:17:52.433470964Z</time>
      </trkpt>
      <trkpt lat="42.87526" lon="2.24813">
        <ele>391.04</ele>
        <time>2026-06-03T14:17:53.446195006Z</time>
      </trkpt>
      <trkpt lat="42.87524" lon="2.24817">
        <ele>391.21</ele>
        <time>2026-06-03T14:17:54.375035048Z</time>
      </trkpt>
      <trkpt lat="42.87522" lon="2.2482">
        <ele>391.42</ele>
        <time>2026-06-03T14:17:55.457959056Z</time>
      </trkpt>
      <trkpt lat="42.87519" lon="2.24824">
        <ele>391.65</ele>
        <time>2026-06-03T14:17:56.416164994Z</time>
      </trkpt>
      <trkpt lat="42.87516" lon="2.24826">
        <ele>391.85</ele>
        <time>2026-06-03T14:17:57.435127974Z</time>
      </trkpt>
      <trkpt lat="42.87513" lon="2.24828">
        <ele>392.08</ele>
        <time>2026-06-03T14:17:58.426120043Z</time>
      </trkpt>
      <trkpt lat="42.8751" lon="2.2483">
        <ele>392.31</ele>
        <time>2026-06-03T14:17:59.448243976Z</time>
      </trkpt>
      <trkpt lat="42.87507" lon="2.24831">
        <ele>392.54</ele>
        <time>2026-06-03T14:18:00.434968948Z</time>
      </trkpt>
      <trkpt lat="42.87504" lon="2.24832">
        <ele>392.73</ele>
        <time>2026-06-03T14:18:01.455428004Z</time>
      </trkpt>
      <trkpt lat="42.87501" lon="2.24833">
        <ele>392.95</ele>
        <time>2026-06-03T14:18:02.448526978Z</time>
      </trkpt>
      <trkpt lat="42.87498" lon="2.24833">
        <ele>393.19</ele>
        <time>2026-06-03T14:18:03.438480020Z</time>
      </trkpt>
      <trkpt lat="42.87495" lon="2.24833">
        <ele>393.44</ele>
        <time>2026-06-03T14:18:04.426177979Z</time>
      </trkpt>
      <trkpt lat="42.87492" lon="2.24833">
        <ele>393.67</ele>
        <time>2026-06-03T14:18:05.448022962Z</time>
      </trkpt>
      <trkpt lat="42.87488" lon="2.24833">
        <ele>393.9</ele>
        <time>2026-06-03T14:18:06.466459036Z</time>
      </trkpt>
      <trkpt lat="42.87485" lon="2.24833">
        <ele>394.14</ele>
        <time>2026-06-03T14:18:07.414314985Z</time>
      </trkpt>
      <trkpt lat="42.87482" lon="2.24833">
        <ele>394.38</ele>
        <time>2026-06-03T14:18:08.448717952Z</time>
      </trkpt>
      <trkpt lat="42.87479" lon="2.24833">
        <ele>394.58</ele>
        <time>2026-06-03T14:18:09.435570955Z</time>
      </trkpt>
      <trkpt lat="42.87475" lon="2.24833">
        <ele>394.79</ele>
        <time>2026-06-03T14:18:10.426298976Z</time>
      </trkpt>
      <trkpt lat="42.87472" lon="2.24834">
        <ele>394.99</ele>
        <time>2026-06-03T14:18:11.449012041Z</time>
      </trkpt>
      <trkpt lat="42.87469" lon="2.24834">
        <ele>395.18</ele>
        <time>2026-06-03T14:18:12.468492031Z</time>
      </trkpt>
      <trkpt lat="42.87465" lon="2.24835">
        <ele>395.35</ele>
        <time>2026-06-03T14:18:13.400931001Z</time>
      </trkpt>
      <trkpt lat="42.87463" lon="2.24837">
        <ele>395.52</ele>
        <time>2026-06-03T14:18:14.446678996Z</time>
      </trkpt>
      <trkpt lat="42.8746" lon="2.24839">
        <ele>395.67</ele>
        <time>2026-06-03T14:18:15.468585968Z</time>
      </trkpt>
      <trkpt lat="42.87458" lon="2.24841">
        <ele>395.8</ele>
        <time>2026-06-03T14:18:16.425590992Z</time>
      </trkpt>
      <trkpt lat="42.87455" lon="2.24844">
        <ele>395.93</ele>
        <time>2026-06-03T14:18:17.421139002Z</time>
      </trkpt>
      <trkpt lat="42.87453" lon="2.24847">
        <ele>396.05</ele>
        <time>2026-06-03T14:18:18.419265985Z</time>
      </trkpt>
      <trkpt lat="42.8745" lon="2.2485">
        <ele>396.16</ele>
        <time>2026-06-03T14:18:19.425912023Z</time>
      </trkpt>
      <trkpt lat="42.87448" lon="2.24854">
        <ele>396.26</ele>
        <time>2026-06-03T14:18:20.445623994Z</time>
      </trkpt>
      <trkpt lat="42.87445" lon="2.24856">
        <ele>396.36</ele>
        <time>2026-06-03T14:18:21.423153043Z</time>
      </trkpt>
      <trkpt lat="42.87442" lon="2.24859">
        <ele>396.47</ele>
        <time>2026-06-03T14:18:22.456678033Z</time>
      </trkpt>
      <trkpt lat="42.8744" lon="2.24863">
        <ele>396.57</ele>
        <time>2026-06-03T14:18:23.446691036Z</time>
      </trkpt>
      <trkpt lat="42.87438" lon="2.24866">
        <ele>396.67</ele>
        <time>2026-06-03T14:18:24.436198950Z</time>
      </trkpt>
      <trkpt lat="42.87436" lon="2.24869">
        <ele>396.76</ele>
        <time>2026-06-03T14:18:25.425330043Z</time>
      </trkpt>
      <trkpt lat="42.87433" lon="2.24872">
        <ele>396.85</ele>
        <time>2026-06-03T14:18:26.448282957Z</time>
      </trkpt>
      <trkpt lat="42.8743" lon="2.24876">
        <ele>396.93</ele>
        <time>2026-06-03T14:18:27.465973020Z</time>
      </trkpt>
      <trkpt lat="42.87428" lon="2.24878">
        <ele>396.99</ele>
        <time>2026-06-03T14:18:28.458809018Z</time>
      </trkpt>
      <trkpt lat="42.87425" lon="2.24882">
        <ele>397.05</ele>
        <time>2026-06-03T14:18:29.440106034Z</time>
      </trkpt>
      <trkpt lat="42.87422" lon="2.24885">
        <ele>397.09</ele>
        <time>2026-06-03T14:18:30.436120987Z</time>
      </trkpt>
      <trkpt lat="42.87419" lon="2.24887">
        <ele>397.11</ele>
        <time>2026-06-03T14:18:31.433519959Z</time>
      </trkpt>
      <trkpt lat="42.87415" lon="2.24889">
        <ele>397.14</ele>
        <time>2026-06-03T14:18:32.447687984Z</time>
      </trkpt>
      <trkpt lat="42.87412" lon="2.2489">
        <ele>397.16</ele>
        <time>2026-06-03T14:18:33.454803944Z</time>
      </trkpt>
      <trkpt lat="42.87408" lon="2.2489">
        <ele>397.18</ele>
        <time>2026-06-03T14:18:34.457030058Z</time>
      </trkpt>
      <trkpt lat="42.87403" lon="2.24889">
        <ele>397.2</ele>
        <time>2026-06-03T14:18:35.446823001Z</time>
      </trkpt>
      <trkpt lat="42.874" lon="2.24886">
        <ele>397.21</ele>
        <time>2026-06-03T14:18:36.443241954Z</time>
      </trkpt>
      <trkpt lat="42.87396" lon="2.24883">
        <ele>397.22</ele>
        <time>2026-06-03T14:18:37.456781983Z</time>
      </trkpt>
      <trkpt lat="42.87393" lon="2.24879">
        <ele>397.23</ele>
        <time>2026-06-03T14:18:38.448997021Z</time>
      </trkpt>
      <trkpt lat="42.8739" lon="2.24875">
        <ele>397.22</ele>
        <time>2026-06-03T14:18:39.448492050Z</time>
      </trkpt>
      <trkpt lat="42.87387" lon="2.24872">
        <ele>397.21</ele>
        <time>2026-06-03T14:18:40.457056046Z</time>
      </trkpt>
      <trkpt lat="42.87385" lon="2.24868">
        <ele>397.2</ele>
        <time>2026-06-03T14:18:41.448670983Z</time>
      </trkpt>
      <trkpt lat="42.87383" lon="2.24865">
        <ele>397.17</ele>
        <time>2026-06-03T14:18:42.451151967Z</time>
      </trkpt>
      <trkpt lat="42.87381" lon="2.24862">
        <ele>397.14</ele>
        <time>2026-06-03T14:18:43.455965042Z</time>
      </trkpt>
      <trkpt lat="42.87379" lon="2.24859">
        <ele>397.12</ele>
        <time>2026-06-03T14:18:44.463155031Z</time>
      </trkpt>
      <trkpt lat="42.87379" lon="2.24858">
        <ele>397.1</ele>
        <time>2026-06-03T14:18:45.436166048Z</time>
      </trkpt>
      <trkpt lat="42.87378" lon="2.24855">
        <ele>397.08</ele>
        <time>2026-06-03T14:18:46.458188057Z</time>
      </trkpt>
      <trkpt lat="42.87377" lon="2.24852">
        <ele>397.08</ele>
        <time>2026-06-03T14:18:47.447623968Z</time>
      </trkpt>
      <trkpt lat="42.87376" lon="2.24849">
        <ele>397.08</ele>
        <time>2026-06-03T14:18:48.436207056Z</time>
      </trkpt>
      <trkpt lat="42.87376" lon="2.24847">
        <ele>397.09</ele>
        <time>2026-06-03T14:18:49.458554983Z</time>
      </trkpt>
      <trkpt lat="42.87375" lon="2.24844">
        <ele>397.12</ele>
        <time>2026-06-03T14:18:50.449380040Z</time>
      </trkpt>
      <trkpt lat="42.87373" lon="2.24841">
        <ele>397.17</ele>
        <time>2026-06-03T14:18:51.469845057Z</time>
      </trkpt>
      <trkpt lat="42.87371" lon="2.24839">
        <ele>397.22</ele>
        <time>2026-06-03T14:18:52.427296042Z</time>
      </trkpt>
      <trkpt lat="42.87369" lon="2.24837">
        <ele>397.31</ele>
        <time>2026-06-03T14:18:53.447649002Z</time>
      </trkpt>
      <trkpt lat="42.87366" lon="2.24836">
        <ele>397.42</ele>
        <time>2026-06-03T14:18:54.466945052Z</time>
      </trkpt>
      <trkpt lat="42.87363" lon="2.24836">
        <ele>397.58</ele>
        <time>2026-06-03T14:18:55.457124949Z</time>
      </trkpt>
      <trkpt lat="42.87361" lon="2.24836">
        <ele>397.72</ele>
        <time>2026-06-03T14:18:56.446161985Z</time>
      </trkpt>
      <trkpt lat="42.87359" lon="2.24836">
        <ele>397.91</ele>
        <time>2026-06-03T14:18:57.437579036Z</time>
      </trkpt>
      <trkpt lat="42.87356" lon="2.24836">
        <ele>398.13</ele>
        <time>2026-06-03T14:18:58.457275987Z</time>
      </trkpt>
      <trkpt lat="42.87354" lon="2.24837">
        <ele>398.39</ele>
        <time>2026-06-03T14:18:59.448999047Z</time>
      </trkpt>
      <trkpt lat="42.87351" lon="2.24838">
        <ele>398.51</ele>
        <time>2026-06-03T14:19:00.407385945Z</time>
      </trkpt>
      <trkpt lat="42.8735" lon="2.24839">
        <ele>398.66</ele>
        <time>2026-06-03T14:19:01.429164052Z</time>
      </trkpt>
      <trkpt lat="42.87347" lon="2.24841">
        <ele>398.86</ele>
        <time>2026-06-03T14:19:02.436952949Z</time>
      </trkpt>
      <trkpt lat="42.87345" lon="2.24843">
        <ele>399.09</ele>
        <time>2026-06-03T14:19:03.440088987Z</time>
      </trkpt>
      <trkpt lat="42.87342" lon="2.24844">
        <ele>399.3</ele>
        <time>2026-06-03T14:19:04.458472967Z</time>
      </trkpt>
      <trkpt lat="42.87341" lon="2.24846">
        <ele>399.54</ele>
        <time>2026-06-03T14:19:05.448040009Z</time>
      </trkpt>
      <trkpt lat="42.87339" lon="2.24848">
        <ele>399.81</ele>
        <time>2026-06-03T14:19:06.437662005Z</time>
      </trkpt>
      <trkpt lat="42.87337" lon="2.24849">
        <ele>400.11</ele>
        <time>2026-06-03T14:19:07.457682967Z</time>
      </trkpt>
      <trkpt lat="42.87334" lon="2.2485">
        <ele>400.37</ele>
        <time>2026-06-03T14:19:08.446884036Z</time>
      </trkpt>
      <trkpt lat="42.87333" lon="2.24851">
        <ele>400.66</ele>
        <time>2026-06-03T14:19:09.439514995Z</time>
      </trkpt>
      <trkpt lat="42.8733" lon="2.24853">
        <ele>400.99</ele>
        <time>2026-06-03T14:19:10.427430034Z</time>
      </trkpt>
      <trkpt lat="42.87328" lon="2.24854">
        <ele>401.34</ele>
        <time>2026-06-03T14:19:11.449102044Z</time>
      </trkpt>
      <trkpt lat="42.87325" lon="2.24854">
        <ele>401.65</ele>
        <time>2026-06-03T14:19:12.459203959Z</time>
      </trkpt>
      <trkpt lat="42.87323" lon="2.24854">
        <ele>401.99</ele>
        <time>2026-06-03T14:19:13.367472053Z</time>
      </trkpt>
      <trkpt lat="42.8732" lon="2.24854">
        <ele>402.35</ele>
        <time>2026-06-03T14:19:14.452566028Z</time>
      </trkpt>
      <trkpt lat="42.87318" lon="2.24853">
        <ele>402.73</ele>
        <time>2026-06-03T14:19:15.468314052Z</time>
      </trkpt>
      <trkpt lat="42.87315" lon="2.24851">
        <ele>403.06</ele>
        <time>2026-06-03T14:19:16.457190990Z</time>
      </trkpt>
      <trkpt lat="42.87313" lon="2.2485">
        <ele>403.41</ele>
        <time>2026-06-03T14:19:17.447571039Z</time>
      </trkpt>
      <trkpt lat="42.87311" lon="2.24848">
        <ele>403.76</ele>
        <time>2026-06-03T14:19:18.444340944Z</time>
      </trkpt>
      <trkpt lat="42.87309" lon="2.24847">
        <ele>404.12</ele>
        <time>2026-06-03T14:19:19.427634954Z</time>
      </trkpt>
      <trkpt lat="42.87306" lon="2.24845">
        <ele>404.43</ele>
        <time>2026-06-03T14:19:20.448415041Z</time>
      </trkpt>
      <trkpt lat="42.87304" lon="2.24843">
        <ele>404.74</ele>
        <time>2026-06-03T14:19:21.437667966Z</time>
      </trkpt>
      <trkpt lat="42.87301" lon="2.24842">
        <ele>405.08</ele>
        <time>2026-06-03T14:19:22.428040028Z</time>
      </trkpt>
      <trkpt lat="42.87299" lon="2.2484">
        <ele>405.42</ele>
        <time>2026-06-03T14:19:23.449566960Z</time>
      </trkpt>
      <trkpt lat="42.87297" lon="2.24838">
        <ele>405.72</ele>
        <time>2026-06-03T14:19:24.439190984Z</time>
      </trkpt>
      <trkpt lat="42.87295" lon="2.24836">
        <ele>406.03</ele>
        <time>2026-06-03T14:19:25.456958055Z</time>
      </trkpt>
      <trkpt lat="42.87293" lon="2.24835">
        <ele>406.36</ele>
        <time>2026-06-03T14:19:26.448379993Z</time>
      </trkpt>
      <trkpt lat="42.87291" lon="2.24832">
        <ele>406.69</ele>
        <time>2026-06-03T14:19:27.628541946Z</time>
      </trkpt>
      <trkpt lat="42.87289" lon="2.2483">
        <ele>406.97</ele>
        <time>2026-06-03T14:19:28.436722994Z</time>
      </trkpt>
      <trkpt lat="42.87287" lon="2.24828">
        <ele>407.26</ele>
        <time>2026-06-03T14:19:29.421800017Z</time>
      </trkpt>
      <trkpt lat="42.87285" lon="2.24826">
        <ele>407.55</ele>
        <time>2026-06-03T14:19:30.468178988Z</time>
      </trkpt>
      <trkpt lat="42.87283" lon="2.24823">
        <ele>407.83</ele>
        <time>2026-06-03T14:19:31.458840966Z</time>
      </trkpt>
      <trkpt lat="42.87281" lon="2.24821">
        <ele>408.08</ele>
        <time>2026-06-03T14:19:32.447780967Z</time>
      </trkpt>
      <trkpt lat="42.87278" lon="2.24819">
        <ele>408.32</ele>
        <time>2026-06-03T14:19:33.438742995Z</time>
      </trkpt>
      <trkpt lat="42.87276" lon="2.24817">
        <ele>408.56</ele>
        <time>2026-06-03T14:19:34.428531051Z</time>
      </trkpt>
      <trkpt lat="42.87275" lon="2.24815">
        <ele>408.8</ele>
        <time>2026-06-03T14:19:35.417168021Z</time>
      </trkpt>
      <trkpt lat="42.87272" lon="2.24813">
        <ele>409</ele>
        <time>2026-06-03T14:19:36.438868046Z</time>
      </trkpt>
      <trkpt lat="42.8727" lon="2.2481">
        <ele>409.2</ele>
        <time>2026-06-03T14:19:37.458251953Z</time>
      </trkpt>
      <trkpt lat="42.87268" lon="2.24808">
        <ele>409.41</ele>
        <time>2026-06-03T14:19:38.452958941Z</time>
      </trkpt>
      <trkpt lat="42.87265" lon="2.24805">
        <ele>409.61</ele>
        <time>2026-06-03T14:19:39.438336968Z</time>
      </trkpt>
      <trkpt lat="42.87263" lon="2.24803">
        <ele>409.78</ele>
        <time>2026-06-03T14:19:40.430176973Z</time>
      </trkpt>
      <trkpt lat="42.8726" lon="2.24801">
        <ele>409.96</ele>
        <time>2026-06-03T14:19:41.448101997Z</time>
      </trkpt>
      <trkpt lat="42.87259" lon="2.248">
        <ele>410.14</ele>
        <time>2026-06-03T14:19:42.440503001Z</time>
      </trkpt>
      <trkpt lat="42.87257" lon="2.24798">
        <ele>410.33</ele>
        <time>2026-06-03T14:19:43.428769946Z</time>
      </trkpt>
      <trkpt lat="42.87255" lon="2.24796">
        <ele>410.49</ele>
        <time>2026-06-03T14:19:44.450283051Z</time>
      </trkpt>
      <trkpt lat="42.87252" lon="2.24794">
        <ele>410.67</ele>
        <time>2026-06-03T14:19:45.438348055Z</time>
      </trkpt>
      <trkpt lat="42.8725" lon="2.24791">
        <ele>410.85</ele>
        <time>2026-06-03T14:19:46.374374032Z</time>
      </trkpt>
      <trkpt lat="42.87247" lon="2.24789">
        <ele>411.04</ele>
        <time>2026-06-03T14:19:47.450301051Z</time>
      </trkpt>
      <trkpt lat="42.87246" lon="2.24787">
        <ele>411.21</ele>
        <time>2026-06-03T14:19:48.439218044Z</time>
      </trkpt>
      <trkpt lat="42.87243" lon="2.24785">
        <ele>411.39</ele>
        <time>2026-06-03T14:19:49.429330945Z</time>
      </trkpt>
      <trkpt lat="42.87241" lon="2.24782">
        <ele>411.58</ele>
        <time>2026-06-03T14:19:50.448609948Z</time>
      </trkpt>
      <trkpt lat="42.87239" lon="2.2478">
        <ele>411.74</ele>
        <time>2026-06-03T14:19:51.448032975Z</time>
      </trkpt>
      <trkpt lat="42.87236" lon="2.24778">
        <ele>411.91</ele>
        <time>2026-06-03T14:19:52.397274971Z</time>
      </trkpt>
      <trkpt lat="42.87234" lon="2.24776">
        <ele>412.1</ele>
        <time>2026-06-03T14:19:53.452062964Z</time>
      </trkpt>
      <trkpt lat="42.87232" lon="2.24774">
        <ele>412.28</ele>
        <time>2026-06-03T14:19:54.440060973Z</time>
      </trkpt>
      <trkpt lat="42.8723" lon="2.24772">
        <ele>412.45</ele>
        <time>2026-06-03T14:19:55.418043971Z</time>
      </trkpt>
      <trkpt lat="42.87227" lon="2.2477">
        <ele>412.62</ele>
        <time>2026-06-03T14:19:56.405014038Z</time>
      </trkpt>
      <trkpt lat="42.87225" lon="2.24767">
        <ele>412.81</ele>
        <time>2026-06-03T14:19:57.408730030Z</time>
      </trkpt>
      <trkpt lat="42.87222" lon="2.24765">
        <ele>413.01</ele>
        <time>2026-06-03T14:19:58.428817987Z</time>
      </trkpt>
      <trkpt lat="42.8722" lon="2.24764">
        <ele>413.19</ele>
        <time>2026-06-03T14:19:59.449056029Z</time>
      </trkpt>
      <trkpt lat="42.87218" lon="2.24761">
        <ele>413.43</ele>
        <time>2026-06-03T14:20:00.378031969Z</time>
      </trkpt>
      <trkpt lat="42.87215" lon="2.2476">
        <ele>413.68</ele>
        <time>2026-06-03T14:20:01.458839059Z</time>
      </trkpt>
      <trkpt lat="42.87214" lon="2.24758">
        <ele>413.94</ele>
        <time>2026-06-03T14:20:02.449486017Z</time>
      </trkpt>
      <trkpt lat="42.87212" lon="2.24756">
        <ele>414.17</ele>
        <time>2026-06-03T14:20:03.439556956Z</time>
      </trkpt>
      <trkpt lat="42.87209" lon="2.24754">
        <ele>414.42</ele>
        <time>2026-06-03T14:20:04.437311053Z</time>
      </trkpt>
      <trkpt lat="42.87207" lon="2.24751">
        <ele>414.67</ele>
        <time>2026-06-03T14:20:05.449180007Z</time>
      </trkpt>
      <trkpt lat="42.87205" lon="2.24749">
        <ele>414.94</ele>
        <time>2026-06-03T14:20:06.439347029Z</time>
      </trkpt>
      <trkpt lat="42.87202" lon="2.24747">
        <ele>415.17</ele>
        <time>2026-06-03T14:20:07.437602997Z</time>
      </trkpt>
      <trkpt lat="42.87201" lon="2.24745">
        <ele>415.41</ele>
        <time>2026-06-03T14:20:08.451889992Z</time>
      </trkpt>
      <trkpt lat="42.87198" lon="2.24743">
        <ele>415.64</ele>
        <time>2026-06-03T14:20:09.440148950Z</time>
      </trkpt>
      <trkpt lat="42.87196" lon="2.2474">
        <ele>415.87</ele>
        <time>2026-06-03T14:20:10.402356982Z</time>
      </trkpt>
      <trkpt lat="42.87194" lon="2.24738">
        <ele>416.07</ele>
        <time>2026-06-03T14:20:11.420848966Z</time>
      </trkpt>
      <trkpt lat="42.87191" lon="2.24735">
        <ele>416.26</ele>
        <time>2026-06-03T14:20:12.439538002Z</time>
      </trkpt>
      <trkpt lat="42.87189" lon="2.24733">
        <ele>416.44</ele>
        <time>2026-06-03T14:20:13.429733038Z</time>
      </trkpt>
      <trkpt lat="42.87187" lon="2.2473">
        <ele>416.62</ele>
        <time>2026-06-03T14:20:14.451125979Z</time>
      </trkpt>
      <trkpt lat="42.87185" lon="2.24728">
        <ele>416.78</ele>
        <time>2026-06-03T14:20:15.440552950Z</time>
      </trkpt>
      <trkpt lat="42.87183" lon="2.24726">
        <ele>416.95</ele>
        <time>2026-06-03T14:20:16.446104050Z</time>
      </trkpt>
      <trkpt lat="42.8718" lon="2.24724">
        <ele>417.11</ele>
        <time>2026-06-03T14:20:17.478713036Z</time>
      </trkpt>
      <trkpt lat="42.87178" lon="2.24722">
        <ele>417.28</ele>
        <time>2026-06-03T14:20:18.440081Z</time>
      </trkpt>
      <trkpt lat="42.87175" lon="2.2472">
        <ele>417.42</ele>
        <time>2026-06-03T14:20:19.461238980Z</time>
      </trkpt>
      <trkpt lat="42.87173" lon="2.24717">
        <ele>417.56</ele>
        <time>2026-06-03T14:20:20.419067979Z</time>
      </trkpt>
      <trkpt lat="42.87171" lon="2.24716">
        <ele>417.7</ele>
        <time>2026-06-03T14:20:21.439697981Z</time>
      </trkpt>
      <trkpt lat="42.87169" lon="2.24714">
        <ele>417.84</ele>
        <time>2026-06-03T14:20:22.429628968Z</time>
      </trkpt>
      <trkpt lat="42.87167" lon="2.24712">
        <ele>417.96</ele>
        <time>2026-06-03T14:20:23.478860974Z</time>
      </trkpt>
      <trkpt lat="42.87165" lon="2.2471">
        <ele>418.1</ele>
        <time>2026-06-03T14:20:24.415848970Z</time>
      </trkpt>
      <trkpt lat="42.87162" lon="2.24708">
        <ele>418.24</ele>
        <time>2026-06-03T14:20:25.429409981Z</time>
      </trkpt>
      <trkpt lat="42.8716" lon="2.24706">
        <ele>418.41</ele>
        <time>2026-06-03T14:20:26.449455976Z</time>
      </trkpt>
      <trkpt lat="42.87157" lon="2.24705">
        <ele>418.55</ele>
        <time>2026-06-03T14:20:27.438374996Z</time>
      </trkpt>
      <trkpt lat="42.87155" lon="2.24703">
        <ele>418.72</ele>
        <time>2026-06-03T14:20:28.604411006Z</time>
      </trkpt>
      <trkpt lat="42.87152" lon="2.24702">
        <ele>418.91</ele>
        <time>2026-06-03T14:20:29.449404955Z</time>
      </trkpt>
      <trkpt lat="42.87151" lon="2.247">
        <ele>419.11</ele>
        <time>2026-06-03T14:20:30.439219952Z</time>
      </trkpt>
      <trkpt lat="42.87149" lon="2.24698">
        <ele>419.29</ele>
        <time>2026-06-03T14:20:31.436341047Z</time>
      </trkpt>
      <trkpt lat="42.87146" lon="2.24696">
        <ele>419.49</ele>
        <time>2026-06-03T14:20:32.478492022Z</time>
      </trkpt>
      <trkpt lat="42.87144" lon="2.24694">
        <ele>419.7</ele>
        <time>2026-06-03T14:20:33.409353971Z</time>
      </trkpt>
      <trkpt lat="42.87142" lon="2.24693">
        <ele>419.92</ele>
        <time>2026-06-03T14:20:34.429303050Z</time>
      </trkpt>
      <trkpt lat="42.87139" lon="2.24691">
        <ele>420.12</ele>
        <time>2026-06-03T14:20:35.401311994Z</time>
      </trkpt>
      <trkpt lat="42.87136" lon="2.24688">
        <ele>420.33</ele>
        <time>2026-06-03T14:20:36.472748995Z</time>
      </trkpt>
      <trkpt lat="42.87135" lon="2.24687">
        <ele>420.57</ele>
        <time>2026-06-03T14:20:37.441135049Z</time>
      </trkpt>
      <trkpt lat="42.87132" lon="2.24685">
        <ele>420.83</ele>
        <time>2026-06-03T14:20:38.389392018Z</time>
      </trkpt>
      <trkpt lat="42.8713" lon="2.24683">
        <ele>421.06</ele>
        <time>2026-06-03T14:20:39.442427993Z</time>
      </trkpt>
      <trkpt lat="42.87127" lon="2.24681">
        <ele>421.32</ele>
        <time>2026-06-03T14:20:40.461506963Z</time>
      </trkpt>
      <trkpt lat="42.87124" lon="2.24678">
        <ele>421.62</ele>
        <time>2026-06-03T14:20:41.450131059Z</time>
      </trkpt>
      <trkpt lat="42.87122" lon="2.24676">
        <ele>421.95</ele>
        <time>2026-06-03T14:20:42.441784024Z</time>
      </trkpt>
      <trkpt lat="42.8712" lon="2.24674">
        <ele>422.23</ele>
        <time>2026-06-03T14:20:43.429741025Z</time>
      </trkpt>
      <trkpt lat="42.87117" lon="2.24672">
        <ele>422.55</ele>
        <time>2026-06-03T14:20:44.427881002Z</time>
      </trkpt>
      <trkpt lat="42.87115" lon="2.24671">
        <ele>422.88</ele>
        <time>2026-06-03T14:20:45.441902995Z</time>
      </trkpt>
      <trkpt lat="42.87112" lon="2.24668">
        <ele>423.23</ele>
        <time>2026-06-03T14:20:46.431185007Z</time>
      </trkpt>
      <trkpt lat="42.8711" lon="2.24666">
        <ele>423.53</ele>
        <time>2026-06-03T14:20:47.449687958Z</time>
      </trkpt>
      <trkpt lat="42.87107" lon="2.24664">
        <ele>423.84</ele>
        <time>2026-06-03T14:20:48.442324996Z</time>
      </trkpt>
      <trkpt lat="42.87104" lon="2.24662">
        <ele>424.17</ele>
        <time>2026-06-03T14:20:49.429605961Z</time>
      </trkpt>
      <trkpt lat="42.87102" lon="2.24661">
        <ele>424.51</ele>
        <time>2026-06-03T14:20:50.419723034Z</time>
      </trkpt>
      <trkpt lat="42.87099" lon="2.24659">
        <ele>424.8</ele>
        <time>2026-06-03T14:20:51.441751003Z</time>
      </trkpt>
      <trkpt lat="42.87098" lon="2.24657">
        <ele>425.11</ele>
        <time>2026-06-03T14:20:52.363638997Z</time>
      </trkpt>
      <trkpt lat="42.87095" lon="2.24655">
        <ele>425.44</ele>
        <time>2026-06-03T14:20:53.425598979Z</time>
      </trkpt>
      <trkpt lat="42.87093" lon="2.24653">
        <ele>425.79</ele>
        <time>2026-06-03T14:20:54.442021966Z</time>
      </trkpt>
      <trkpt lat="42.8709" lon="2.24651">
        <ele>426.1</ele>
        <time>2026-06-03T14:20:55.430098057Z</time>
      </trkpt>
      <trkpt lat="42.87088" lon="2.24649">
        <ele>426.43</ele>
        <time>2026-06-03T14:20:56.420057058Z</time>
      </trkpt>
      <trkpt lat="42.87086" lon="2.24647">
        <ele>426.79</ele>
        <time>2026-06-03T14:20:57.442258954Z</time>
      </trkpt>
      <trkpt lat="42.87083" lon="2.24645">
        <ele>427.16</ele>
        <time>2026-06-03T14:20:58.399924994Z</time>
      </trkpt>
      <trkpt lat="42.8708" lon="2.24643">
        <ele>427.48</ele>
        <time>2026-06-03T14:20:59.480054975Z</time>
      </trkpt>
      <trkpt lat="42.87078" lon="2.24642">
        <ele>427.85</ele>
        <time>2026-06-03T14:21:00.442180037Z</time>
      </trkpt>
      <trkpt lat="42.87075" lon="2.2464">
        <ele>428.23</ele>
        <time>2026-06-03T14:21:01.438539028Z</time>
      </trkpt>
      <trkpt lat="42.87073" lon="2.24638">
        <ele>428.61</ele>
        <time>2026-06-03T14:21:02.420461059Z</time>
      </trkpt>
      <trkpt lat="42.87071" lon="2.24636">
        <ele>428.94</ele>
        <time>2026-06-03T14:21:03.442214966Z</time>
      </trkpt>
      <trkpt lat="42.87068" lon="2.24635">
        <ele>429.27</ele>
        <time>2026-06-03T14:21:04.451102018Z</time>
      </trkpt>
      <trkpt lat="42.87066" lon="2.24633">
        <ele>429.61</ele>
        <time>2026-06-03T14:21:05.420166969Z</time>
      </trkpt>
      <trkpt lat="42.87064" lon="2.24631">
        <ele>429.96</ele>
        <time>2026-06-03T14:21:06.470316052Z</time>
      </trkpt>
      <trkpt lat="42.87062" lon="2.24629">
        <ele>430.26</ele>
        <time>2026-06-03T14:21:07.432291031Z</time>
      </trkpt>
      <trkpt lat="42.87059" lon="2.24627">
        <ele>430.56</ele>
        <time>2026-06-03T14:21:08.451954961Z</time>
      </trkpt>
      <trkpt lat="42.87057" lon="2.24625">
        <ele>430.88</ele>
        <time>2026-06-03T14:21:09.449892044Z</time>
      </trkpt>
      <trkpt lat="42.87054" lon="2.24623">
        <ele>431.22</ele>
        <time>2026-06-03T14:21:10.402474046Z</time>
      </trkpt>
      <trkpt lat="42.87052" lon="2.24622">
        <ele>431.51</ele>
        <time>2026-06-03T14:21:11.427548051Z</time>
      </trkpt>
      <trkpt lat="42.87049" lon="2.2462">
        <ele>431.82</ele>
        <time>2026-06-03T14:21:12.414067030Z</time>
      </trkpt>
      <trkpt lat="42.87047" lon="2.24619">
        <ele>432.14</ele>
        <time>2026-06-03T14:21:13.431089044Z</time>
      </trkpt>
      <trkpt lat="42.87046" lon="2.24617">
        <ele>432.47</ele>
        <time>2026-06-03T14:21:14.449920058Z</time>
      </trkpt>
      <trkpt lat="42.87042" lon="2.24615">
        <ele>432.76</ele>
        <time>2026-06-03T14:21:15.442456007Z</time>
      </trkpt>
      <trkpt lat="42.8704" lon="2.24613">
        <ele>433.05</ele>
        <time>2026-06-03T14:21:16.430510044Z</time>
      </trkpt>
      <trkpt lat="42.87038" lon="2.24612">
        <ele>433.35</ele>
        <time>2026-06-03T14:21:17.439615011Z</time>
      </trkpt>
      <trkpt lat="42.87036" lon="2.2461">
        <ele>433.65</ele>
        <time>2026-06-03T14:21:18.430029035Z</time>
      </trkpt>
      <trkpt lat="42.87034" lon="2.24608">
        <ele>433.91</ele>
        <time>2026-06-03T14:21:19.359866023Z</time>
      </trkpt>
      <trkpt lat="42.87032" lon="2.24607">
        <ele>434.18</ele>
        <time>2026-06-03T14:21:20.450968981Z</time>
      </trkpt>
      <trkpt lat="42.87029" lon="2.24605">
        <ele>434.46</ele>
        <time>2026-06-03T14:21:21.443403006Z</time>
      </trkpt>
      <trkpt lat="42.87025" lon="2.24605">
        <ele>434.7</ele>
        <time>2026-06-03T14:21:22.430644035Z</time>
      </trkpt>
      <trkpt lat="42.87023" lon="2.24604">
        <ele>434.95</ele>
        <time>2026-06-03T14:21:23.433822989Z</time>
      </trkpt>
      <trkpt lat="42.8702" lon="2.24604">
        <ele>435.2</ele>
        <time>2026-06-03T14:21:24.421185017Z</time>
      </trkpt>
      <trkpt lat="42.87017" lon="2.24604">
        <ele>435.45</ele>
        <time>2026-06-03T14:21:25.430724025Z</time>
      </trkpt>
      <trkpt lat="42.87015" lon="2.24604">
        <ele>435.66</ele>
        <time>2026-06-03T14:21:26.452502012Z</time>
      </trkpt>
      <trkpt lat="42.87013" lon="2.24604">
        <ele>435.88</ele>
        <time>2026-06-03T14:21:27.440786004Z</time>
      </trkpt>
      <trkpt lat="42.87009" lon="2.24605">
        <ele>436.1</ele>
        <time>2026-06-03T14:21:28.474305034Z</time>
      </trkpt>
      <trkpt lat="42.87007" lon="2.24604">
        <ele>436.31</ele>
        <time>2026-06-03T14:21:29.420109987Z</time>
      </trkpt>
      <trkpt lat="42.87004" lon="2.24605">
        <ele>436.49</ele>
        <time>2026-06-03T14:21:30.557906032Z</time>
      </trkpt>
      <trkpt lat="42.87001" lon="2.24605">
        <ele>436.68</ele>
        <time>2026-06-03T14:21:31.444568992Z</time>
      </trkpt>
      <trkpt lat="42.86998" lon="2.24606">
        <ele>436.88</ele>
        <time>2026-06-03T14:21:32.420001030Z</time>
      </trkpt>
      <trkpt lat="42.86996" lon="2.24606">
        <ele>437.07</ele>
        <time>2026-06-03T14:21:33.500555038Z</time>
      </trkpt>
      <trkpt lat="42.86993" lon="2.24607">
        <ele>437.25</ele>
        <time>2026-06-03T14:21:34.431251049Z</time>
      </trkpt>
      <trkpt lat="42.86991" lon="2.24608">
        <ele>437.42</ele>
        <time>2026-06-03T14:21:35.419353008Z</time>
      </trkpt>
      <trkpt lat="42.86988" lon="2.24608">
        <ele>437.6</ele>
        <time>2026-06-03T14:21:36.442821026Z</time>
      </trkpt>
      <trkpt lat="42.86985" lon="2.24608">
        <ele>437.79</ele>
        <time>2026-06-03T14:21:37.447550058Z</time>
      </trkpt>
      <trkpt lat="42.86982" lon="2.24608">
        <ele>437.95</ele>
        <time>2026-06-03T14:21:38.422327995Z</time>
      </trkpt>
      <trkpt lat="42.8698" lon="2.24608">
        <ele>438.13</ele>
        <time>2026-06-03T14:21:39.434239984Z</time>
      </trkpt>
      <trkpt lat="42.86977" lon="2.24608">
        <ele>438.31</ele>
        <time>2026-06-03T14:21:40.403888941Z</time>
      </trkpt>
      <trkpt lat="42.86974" lon="2.24607">
        <ele>438.51</ele>
        <time>2026-06-03T14:21:41.452564955Z</time>
      </trkpt>
      <trkpt lat="42.86972" lon="2.24607">
        <ele>438.68</ele>
        <time>2026-06-03T14:21:42.443843961Z</time>
      </trkpt>
      <trkpt lat="42.86969" lon="2.24606">
        <ele>438.86</ele>
        <time>2026-06-03T14:21:43.430714011Z</time>
      </trkpt>
      <trkpt lat="42.86966" lon="2.24605">
        <ele>439.06</ele>
        <time>2026-06-03T14:21:44.421169043Z</time>
      </trkpt>
      <trkpt lat="42.86963" lon="2.24605">
        <ele>439.28</ele>
        <time>2026-06-03T14:21:45.443372965Z</time>
      </trkpt>
      <trkpt lat="42.86961" lon="2.24605">
        <ele>439.46</ele>
        <time>2026-06-03T14:21:46.457838058Z</time>
      </trkpt>
      <trkpt lat="42.86958" lon="2.24604">
        <ele>439.67</ele>
        <time>2026-06-03T14:21:47.433830023Z</time>
      </trkpt>
      <trkpt lat="42.86955" lon="2.24604">
        <ele>439.89</ele>
        <time>2026-06-03T14:21:48.440549970Z</time>
      </trkpt>
      <trkpt lat="42.86952" lon="2.24603">
        <ele>440.13</ele>
        <time>2026-06-03T14:21:49.432036042Z</time>
      </trkpt>
      <trkpt lat="42.8695" lon="2.24603">
        <ele>440.34</ele>
        <time>2026-06-03T14:21:50.401424050Z</time>
      </trkpt>
      <trkpt lat="42.86947" lon="2.24603">
        <ele>440.57</ele>
        <time>2026-06-03T14:21:51.441375017Z</time>
      </trkpt>
      <trkpt lat="42.86945" lon="2.24603">
        <ele>440.81</ele>
        <time>2026-06-03T14:21:52.431658983Z</time>
      </trkpt>
      <trkpt lat="42.86942" lon="2.24603">
        <ele>441.07</ele>
        <time>2026-06-03T14:21:53.421710968Z</time>
      </trkpt>
      <trkpt lat="42.86939" lon="2.24603">
        <ele>441.29</ele>
        <time>2026-06-03T14:21:54.441108942Z</time>
      </trkpt>
      <trkpt lat="42.86936" lon="2.24603">
        <ele>441.53</ele>
        <time>2026-06-03T14:21:55.431792021Z</time>
      </trkpt>
      <trkpt lat="42.86934" lon="2.24603">
        <ele>441.79</ele>
        <time>2026-06-03T14:21:56.420616984Z</time>
      </trkpt>
      <trkpt lat="42.8693" lon="2.24604">
        <ele>442.07</ele>
        <time>2026-06-03T14:21:57.376615047Z</time>
      </trkpt>
      <trkpt lat="42.86928" lon="2.24604">
        <ele>442.31</ele>
        <time>2026-06-03T14:21:58.449612975Z</time>
      </trkpt>
      <trkpt lat="42.86925" lon="2.24604">
        <ele>442.58</ele>
        <time>2026-06-03T14:21:59.425937057Z</time>
      </trkpt>
      <trkpt lat="42.86922" lon="2.24605">
        <ele>442.73</ele>
        <time>2026-06-03T14:22:00.410753012Z</time>
      </trkpt>
      <trkpt lat="42.86919" lon="2.24606">
        <ele>442.92</ele>
        <time>2026-06-03T14:22:01.432191014Z</time>
      </trkpt>
      <trkpt lat="42.86917" lon="2.24607">
        <ele>443.09</ele>
        <time>2026-06-03T14:22:02.452160954Z</time>
      </trkpt>
      <trkpt lat="42.86914" lon="2.24608">
        <ele>443.28</ele>
        <time>2026-06-03T14:22:03.380880952Z</time>
      </trkpt>
      <trkpt lat="42.86912" lon="2.2461">
        <ele>443.51</ele>
        <time>2026-06-03T14:22:04.432397008Z</time>
      </trkpt>
      <trkpt lat="42.86909" lon="2.2461">
        <ele>443.76</ele>
        <time>2026-06-03T14:22:05.421746969Z</time>
      </trkpt>
      <trkpt lat="42.86906" lon="2.24611">
        <ele>443.97</ele>
        <time>2026-06-03T14:22:06.410943985Z</time>
      </trkpt>
      <trkpt lat="42.86904" lon="2.24612">
        <ele>444.22</ele>
        <time>2026-06-03T14:22:07.442566037Z</time>
      </trkpt>
      <trkpt lat="42.86902" lon="2.24612">
        <ele>444.47</ele>
        <time>2026-06-03T14:22:08.361417055Z</time>
      </trkpt>
      <trkpt lat="42.869" lon="2.24611">
        <ele>444.73</ele>
        <time>2026-06-03T14:22:09.443747044Z</time>
      </trkpt>
      <trkpt lat="42.86897" lon="2.24611">
        <ele>444.96</ele>
        <time>2026-06-03T14:22:10.431712031Z</time>
      </trkpt>
      <trkpt lat="42.86894" lon="2.2461">
        <ele>445.2</ele>
        <time>2026-06-03T14:22:11.426334977Z</time>
      </trkpt>
      <trkpt lat="42.86892" lon="2.24609">
        <ele>445.45</ele>
        <time>2026-06-03T14:22:12.412008047Z</time>
      </trkpt>
      <trkpt lat="42.86889" lon="2.24608">
        <ele>445.71</ele>
        <time>2026-06-03T14:22:13.454373956Z</time>
      </trkpt>
      <trkpt lat="42.86887" lon="2.24606">
        <ele>445.93</ele>
        <time>2026-06-03T14:22:14.391775966Z</time>
      </trkpt>
      <trkpt lat="42.86884" lon="2.24605">
        <ele>446.15</ele>
        <time>2026-06-03T14:22:15.444167018Z</time>
      </trkpt>
      <trkpt lat="42.86882" lon="2.24603">
        <ele>446.37</ele>
        <time>2026-06-03T14:22:16.400956035Z</time>
      </trkpt>
      <trkpt lat="42.8688" lon="2.24601">
        <ele>446.61</ele>
        <time>2026-06-03T14:22:17.428320050Z</time>
      </trkpt>
      <trkpt lat="42.86878" lon="2.246">
        <ele>446.81</ele>
        <time>2026-06-03T14:22:18.415019989Z</time>
      </trkpt>
      <trkpt lat="42.86876" lon="2.24598">
        <ele>447.01</ele>
        <time>2026-06-03T14:22:19.431835055Z</time>
      </trkpt>
      <trkpt lat="42.86874" lon="2.24596">
        <ele>447.22</ele>
        <time>2026-06-03T14:22:20.422263980Z</time>
      </trkpt>
      <trkpt lat="42.86871" lon="2.24594">
        <ele>447.45</ele>
        <time>2026-06-03T14:22:21.448523045Z</time>
      </trkpt>
      <trkpt lat="42.86869" lon="2.24593">
        <ele>447.65</ele>
        <time>2026-06-03T14:22:22.447832942Z</time>
      </trkpt>
      <trkpt lat="42.86866" lon="2.24593">
        <ele>447.87</ele>
        <time>2026-06-03T14:22:23.421404004Z</time>
      </trkpt>
      <trkpt lat="42.86864" lon="2.24592">
        <ele>448.11</ele>
        <time>2026-06-03T14:22:24.442283034Z</time>
      </trkpt>
      <trkpt lat="42.86861" lon="2.24593">
        <ele>448.37</ele>
        <time>2026-06-03T14:22:25.401988983Z</time>
      </trkpt>
      <trkpt lat="42.86859" lon="2.24594">
        <ele>448.59</ele>
        <time>2026-06-03T14:22:26.422059059Z</time>
      </trkpt>
      <trkpt lat="42.86858" lon="2.24595">
        <ele>448.83</ele>
        <time>2026-06-03T14:22:27.411334038Z</time>
      </trkpt>
      <trkpt lat="42.86857" lon="2.24597">
        <ele>448.83</ele>
        <time>2026-06-03T14:22:28.355108976Z</time>
      </trkpt>
      <trkpt lat="42.86855" lon="2.24601">
        <ele>449.81</ele>
        <time>2026-06-03T14:22:31.492179036Z</time>
      </trkpt>
      <trkpt lat="42.86854" lon="2.24601">
        <ele>449.81</ele>
        <time>2026-06-03T14:22:32.577505946Z</time>
      </trkpt>
      <trkpt lat="42.86852" lon="2.246">
        <ele>450.27</ele>
        <time>2026-06-03T14:22:34.345821977Z</time>
      </trkpt>
      <trkpt lat="42.86852" lon="2.24599">
        <ele>450.66</ele>
        <time>2026-06-03T14:22:35.421960950Z</time>
      </trkpt>
      <trkpt lat="42.86853" lon="2.24595">
        <ele>451</ele>
        <time>2026-06-03T14:22:37.431905031Z</time>
      </trkpt>
      <trkpt lat="42.86853" lon="2.24594">
        <ele>451</ele>
        <time>2026-06-03T14:22:38.391752958Z</time>
      </trkpt>
      <trkpt lat="42.86855" lon="2.2459">
        <ele>451.4</ele>
        <time>2026-06-03T14:22:40.431920052Z</time>
      </trkpt>
      <trkpt lat="42.86855" lon="2.24589">
        <ele>451.4</ele>
        <time>2026-06-03T14:22:46.521074057Z</time>
      </trkpt>
      <trkpt lat="42.86855" lon="2.24588">
        <ele>451.4</ele>
        <time>2026-06-03T14:22:47.541942954Z</time>
      </trkpt>
      <trkpt lat="42.86854" lon="2.24588">
        <ele>452.11</ele>
        <time>2026-06-03T14:22:50.391754031Z</time>
      </trkpt>
      <trkpt lat="42.86849" lon="2.246">
        <ele>452.29</ele>
        <time>2026-06-03T14:23:57.955080986Z</time>
      </trkpt>
      <trkpt lat="42.86851" lon="2.24592">
        <ele>452.71</ele>
        <time>2026-06-03T14:23:59.571516991Z</time>
      </trkpt>
      <trkpt lat="42.8685" lon="2.24592">
        <ele>452.71</ele>
        <time>2026-06-03T14:24:00.412816048Z</time>
      </trkpt>
      <trkpt lat="42.86849" lon="2.24592">
        <ele>452.76</ele>
        <time>2026-06-03T14:24:01.554430008Z</time>
      </trkpt>
      <trkpt lat="42.86845" lon="2.2459">
        <ele>452.81</ele>
        <time>2026-06-03T14:24:03.442162991Z</time>
      </trkpt>
      <trkpt lat="42.86844" lon="2.2459">
        <ele>452.84</ele>
        <time>2026-06-03T14:24:04.438125014Z</time>
      </trkpt>
      <trkpt lat="42.86843" lon="2.24589">
        <ele>452.8</ele>
        <time>2026-06-03T14:24:05.513018012Z</time>
      </trkpt>
      <trkpt lat="42.86842" lon="2.24587">
        <ele>452.8</ele>
        <time>2026-06-03T14:24:06.532547951Z</time>
      </trkpt>
      <trkpt lat="42.8684" lon="2.24586">
        <ele>452.75</ele>
        <time>2026-06-03T14:24:07.522730947Z</time>
      </trkpt>
      <trkpt lat="42.86839" lon="2.24584">
        <ele>452.73</ele>
        <time>2026-06-03T14:24:08.572692037Z</time>
      </trkpt>
      <trkpt lat="42.86835" lon="2.2458">
        <ele>452.7</ele>
        <time>2026-06-03T14:24:10.552510023Z</time>
      </trkpt>
      <trkpt lat="42.86835" lon="2.24578">
        <ele>452.7</ele>
        <time>2026-06-03T14:24:11.422397971Z</time>
      </trkpt>
      <trkpt lat="42.86833" lon="2.24577">
        <ele>452.68</ele>
        <time>2026-06-03T14:24:21.442656040Z</time>
      </trkpt>
      <trkpt lat="42.86832" lon="2.24577">
        <ele>452.5</ele>
        <time>2026-06-03T14:24:22.434386015Z</time>
      </trkpt>
      <trkpt lat="42.8683" lon="2.24576">
        <ele>452.48</ele>
        <time>2026-06-03T14:24:23.425071001Z</time>
      </trkpt>
      <trkpt lat="42.86827" lon="2.24574">
        <ele>452.47</ele>
        <time>2026-06-03T14:24:24.567401052Z</time>
      </trkpt>
      <trkpt lat="42.86825" lon="2.24571">
        <ele>452.46</ele>
        <time>2026-06-03T14:24:25.403141975Z</time>
      </trkpt>
      <trkpt lat="42.86823" lon="2.24569">
        <ele>452.44</ele>
        <time>2026-06-03T14:24:26.453076005Z</time>
      </trkpt>
      <trkpt lat="42.86821" lon="2.24566">
        <ele>452.42</ele>
        <time>2026-06-03T14:24:27.448173046Z</time>
      </trkpt>
      <trkpt lat="42.86819" lon="2.24563">
        <ele>452.4</ele>
        <time>2026-06-03T14:24:28.452322960Z</time>
      </trkpt>
      <trkpt lat="42.86817" lon="2.2456">
        <ele>452.38</ele>
        <time>2026-06-03T14:24:29.424044013Z</time>
      </trkpt>
      <trkpt lat="42.86815" lon="2.24557">
        <ele>452.35</ele>
        <time>2026-06-03T14:24:30.413151026Z</time>
      </trkpt>
      <trkpt lat="42.86813" lon="2.24553">
        <ele>452.31</ele>
        <time>2026-06-03T14:24:31.403306961Z</time>
      </trkpt>
      <trkpt lat="42.86811" lon="2.24549">
        <ele>452.26</ele>
        <time>2026-06-03T14:24:32.453317046Z</time>
      </trkpt>
      <trkpt lat="42.8681" lon="2.24545">
        <ele>452.2</ele>
        <time>2026-06-03T14:24:33.443642020Z</time>
      </trkpt>
      <trkpt lat="42.86808" lon="2.24541">
        <ele>452.14</ele>
        <time>2026-06-03T14:24:34.432575941Z</time>
      </trkpt>
      <trkpt lat="42.86806" lon="2.24537">
        <ele>452.06</ele>
        <time>2026-06-03T14:24:35.423629999Z</time>
      </trkpt>
      <trkpt lat="42.86805" lon="2.24531">
        <ele>451.98</ele>
        <time>2026-06-03T14:24:36.442505956Z</time>
      </trkpt>
      <trkpt lat="42.86805" lon="2.24526">
        <ele>451.89</ele>
        <time>2026-06-03T14:24:37.445178986Z</time>
      </trkpt>
      <trkpt lat="42.86804" lon="2.24521">
        <ele>451.78</ele>
        <time>2026-06-03T14:24:38.436599970Z</time>
      </trkpt>
      <trkpt lat="42.86803" lon="2.24516">
        <ele>451.67</ele>
        <time>2026-06-03T14:24:39.359771967Z</time>
      </trkpt>
      <trkpt lat="42.86801" lon="2.24511">
        <ele>451.55</ele>
        <time>2026-06-03T14:24:40.433434010Z</time>
      </trkpt>
      <trkpt lat="42.86797" lon="2.24509">
        <ele>451.42</ele>
        <time>2026-06-03T14:24:41.367370009Z</time>
      </trkpt>
      <trkpt lat="42.86793" lon="2.24505">
        <ele>451.29</ele>
        <time>2026-06-03T14:24:42.565250993Z</time>
      </trkpt>
      <trkpt lat="42.86789" lon="2.24501">
        <ele>451.15</ele>
        <time>2026-06-03T14:24:43.433562994Z</time>
      </trkpt>
      <trkpt lat="42.86783" lon="2.24498">
        <ele>451.03</ele>
        <time>2026-06-03T14:24:44.423900962Z</time>
      </trkpt>
      <trkpt lat="42.86778" lon="2.24494">
        <ele>450.9</ele>
        <time>2026-06-03T14:24:45.593261957Z</time>
      </trkpt>
      <trkpt lat="42.86773" lon="2.24491">
        <ele>450.74</ele>
        <time>2026-06-03T14:24:46.433630943Z</time>
      </trkpt>
      <trkpt lat="42.86767" lon="2.24489">
        <ele>450.56</ele>
        <time>2026-06-03T14:24:47.369011045Z</time>
      </trkpt>
      <trkpt lat="42.86761" lon="2.24488">
        <ele>450.35</ele>
        <time>2026-06-03T14:24:48.444077969Z</time>
      </trkpt>
      <trkpt lat="42.86754" lon="2.24487">
        <ele>450.11</ele>
        <time>2026-06-03T14:24:49.438616037Z</time>
      </trkpt>
      <trkpt lat="42.86747" lon="2.24487">
        <ele>449.83</ele>
        <time>2026-06-03T14:24:50.423639059Z</time>
      </trkpt>
      <trkpt lat="42.86741" lon="2.24489">
        <ele>449.53</ele>
        <time>2026-06-03T14:24:51.406141043Z</time>
      </trkpt>
      <trkpt lat="42.86734" lon="2.24489">
        <ele>449.19</ele>
        <time>2026-06-03T14:24:52.403573036Z</time>
      </trkpt>
      <trkpt lat="42.86727" lon="2.24488">
        <ele>448.83</ele>
        <time>2026-06-03T14:24:53.393931031Z</time>
      </trkpt>
      <trkpt lat="42.86721" lon="2.24484">
        <ele>448.39</ele>
        <time>2026-06-03T14:24:54.447947979Z</time>
      </trkpt>
      <trkpt lat="42.86716" lon="2.2448">
        <ele>447.97</ele>
        <time>2026-06-03T14:24:55.403167009Z</time>
      </trkpt>
      <trkpt lat="42.86711" lon="2.24475">
        <ele>447.56</ele>
        <time>2026-06-03T14:24:56.425353050Z</time>
      </trkpt>
      <trkpt lat="42.86707" lon="2.24472">
        <ele>447.18</ele>
        <time>2026-06-03T14:24:57.420433998Z</time>
      </trkpt>
      <trkpt lat="42.86702" lon="2.24468">
        <ele>446.86</ele>
        <time>2026-06-03T14:24:58.406857967Z</time>
      </trkpt>
      <trkpt lat="42.86698" lon="2.24466">
        <ele>446.61</ele>
        <time>2026-06-03T14:24:59.540313959Z</time>
      </trkpt>
      <trkpt lat="42.86695" lon="2.24464">
        <ele>446.41</ele>
        <time>2026-06-03T14:25:00.403337002Z</time>
      </trkpt>
      <trkpt lat="42.86691" lon="2.24462">
        <ele>446.27</ele>
        <time>2026-06-03T14:25:01.446496964Z</time>
      </trkpt>
      <trkpt lat="42.86687" lon="2.2446">
        <ele>446.17</ele>
        <time>2026-06-03T14:25:02.438166976Z</time>
      </trkpt>
      <trkpt lat="42.86685" lon="2.24459">
        <ele>446.1</ele>
        <time>2026-06-03T14:25:03.413895965Z</time>
      </trkpt>
      <trkpt lat="42.86683" lon="2.24458">
        <ele>446.06</ele>
        <time>2026-06-03T14:25:04.404235005Z</time>
      </trkpt>
      <trkpt lat="42.86681" lon="2.24457">
        <ele>446.04</ele>
        <time>2026-06-03T14:25:05.424108982Z</time>
      </trkpt>
      <trkpt lat="42.86678" lon="2.24456">
        <ele>446.03</ele>
        <time>2026-06-03T14:25:06.414212942Z</time>
      </trkpt>
      <trkpt lat="42.86676" lon="2.24455">
        <ele>446.01</ele>
        <time>2026-06-03T14:25:07.427521944Z</time>
      </trkpt>
      <trkpt lat="42.86674" lon="2.24454">
        <ele>446.02</ele>
        <time>2026-06-03T14:25:08.456130981Z</time>
      </trkpt>
      <trkpt lat="42.86672" lon="2.24453">
        <ele>446.03</ele>
        <time>2026-06-03T14:25:09.443328023Z</time>
      </trkpt>
      <trkpt lat="42.86669" lon="2.24451">
        <ele>446.15</ele>
        <time>2026-06-03T14:25:10.433480978Z</time>
      </trkpt>
      <trkpt lat="42.86667" lon="2.2445">
        <ele>446.27</ele>
        <time>2026-06-03T14:25:11.424244046Z</time>
      </trkpt>
      <trkpt lat="42.86665" lon="2.24449">
        <ele>446.42</ele>
        <time>2026-06-03T14:25:12.429921031Z</time>
      </trkpt>
      <trkpt lat="42.86662" lon="2.24448">
        <ele>446.57</ele>
        <time>2026-06-03T14:25:13.404047012Z</time>
      </trkpt>
      <trkpt lat="42.8666" lon="2.24446">
        <ele>446.73</ele>
        <time>2026-06-03T14:25:14.432906985Z</time>
      </trkpt>
      <trkpt lat="42.86657" lon="2.24445">
        <ele>446.89</ele>
        <time>2026-06-03T14:25:15.383607030Z</time>
      </trkpt>
      <trkpt lat="42.86655" lon="2.24444">
        <ele>447.05</ele>
        <time>2026-06-03T14:25:16.433956981Z</time>
      </trkpt>
      <trkpt lat="42.86653" lon="2.24443">
        <ele>447.21</ele>
        <time>2026-06-03T14:25:17.430928946Z</time>
      </trkpt>
      <trkpt lat="42.8665" lon="2.24442">
        <ele>447.36</ele>
        <time>2026-06-03T14:25:18.435716033Z</time>
      </trkpt>
      <trkpt lat="42.86648" lon="2.24441">
        <ele>447.51</ele>
        <time>2026-06-03T14:25:19.404536009Z</time>
      </trkpt>
      <trkpt lat="42.86645" lon="2.24439">
        <ele>447.66</ele>
        <time>2026-06-03T14:25:20.424561977Z</time>
      </trkpt>
      <trkpt lat="42.86643" lon="2.24438">
        <ele>447.8</ele>
        <time>2026-06-03T14:25:21.443598986Z</time>
      </trkpt>
      <trkpt lat="42.86641" lon="2.24437">
        <ele>447.94</ele>
        <time>2026-06-03T14:25:22.434496999Z</time>
      </trkpt>
      <trkpt lat="42.86638" lon="2.24436">
        <ele>448.09</ele>
        <time>2026-06-03T14:25:23.424641967Z</time>
      </trkpt>
      <trkpt lat="42.86636" lon="2.24434">
        <ele>448.23</ele>
        <time>2026-06-03T14:25:24.413650990Z</time>
      </trkpt>
      <trkpt lat="42.86634" lon="2.24434">
        <ele>448.37</ele>
        <time>2026-06-03T14:25:25.434649944Z</time>
      </trkpt>
      <trkpt lat="42.86631" lon="2.24432">
        <ele>448.5</ele>
        <time>2026-06-03T14:25:26.424579024Z</time>
      </trkpt>
      <trkpt lat="42.86628" lon="2.24431">
        <ele>448.63</ele>
        <time>2026-06-03T14:25:27.435264945Z</time>
      </trkpt>
      <trkpt lat="42.86625" lon="2.24429">
        <ele>448.75</ele>
        <time>2026-06-03T14:25:28.434625030Z</time>
      </trkpt>
      <trkpt lat="42.86622" lon="2.24428">
        <ele>448.86</ele>
        <time>2026-06-03T14:25:29.433138967Z</time>
      </trkpt>
      <trkpt lat="42.86618" lon="2.24426">
        <ele>448.95</ele>
        <time>2026-06-03T14:25:30.414896965Z</time>
      </trkpt>
      <trkpt lat="42.86615" lon="2.24424">
        <ele>449.04</ele>
        <time>2026-06-03T14:25:31.441696048Z</time>
      </trkpt>
      <trkpt lat="42.86612" lon="2.24423">
        <ele>449.11</ele>
        <time>2026-06-03T14:25:32.439599991Z</time>
      </trkpt>
      <trkpt lat="42.86609" lon="2.24422">
        <ele>449.17</ele>
        <time>2026-06-03T14:25:33.443696976Z</time>
      </trkpt>
      <trkpt lat="42.86606" lon="2.24421">
        <ele>449.21</ele>
        <time>2026-06-03T14:25:34.429445028Z</time>
      </trkpt>
      <trkpt lat="42.86603" lon="2.2442">
        <ele>449.24</ele>
        <time>2026-06-03T14:25:35.423920035Z</time>
      </trkpt>
      <trkpt lat="42.866" lon="2.24419">
        <ele>449.26</ele>
        <time>2026-06-03T14:25:36.431218982Z</time>
      </trkpt>
      <trkpt lat="42.86597" lon="2.24419">
        <ele>449.28</ele>
        <time>2026-06-03T14:25:37.461704016Z</time>
      </trkpt>
      <trkpt lat="42.86594" lon="2.24419">
        <ele>449.3</ele>
        <time>2026-06-03T14:25:38.436231017Z</time>
      </trkpt>
      <trkpt lat="42.86591" lon="2.24418">
        <ele>449.32</ele>
        <time>2026-06-03T14:25:39.414718986Z</time>
      </trkpt>
      <trkpt lat="42.86589" lon="2.24418">
        <ele>449.34</ele>
        <time>2026-06-03T14:25:40.441949964Z</time>
      </trkpt>
      <trkpt lat="42.86586" lon="2.24418">
        <ele>449.37</ele>
        <time>2026-06-03T14:25:41.444985032Z</time>
      </trkpt>
      <trkpt lat="42.86582" lon="2.24419">
        <ele>449.4</ele>
        <time>2026-06-03T14:25:42.415307045Z</time>
      </trkpt>
      <trkpt lat="42.86579" lon="2.24419">
        <ele>449.43</ele>
        <time>2026-06-03T14:25:43.404922009Z</time>
      </trkpt>
      <trkpt lat="42.86576" lon="2.24421">
        <ele>449.45</ele>
        <time>2026-06-03T14:25:44.424823999Z</time>
      </trkpt>
      <trkpt lat="42.86572" lon="2.24422">
        <ele>449.46</ele>
        <time>2026-06-03T14:25:45.445384979Z</time>
      </trkpt>
      <trkpt lat="42.86568" lon="2.24424">
        <ele>449.47</ele>
        <time>2026-06-03T14:25:46.434949994Z</time>
      </trkpt>
      <trkpt lat="42.86564" lon="2.24426">
        <ele>449.45</ele>
        <time>2026-06-03T14:25:47.450266004Z</time>
      </trkpt>
      <trkpt lat="42.86559" lon="2.24429">
        <ele>449.43</ele>
        <time>2026-06-03T14:25:48.415052056Z</time>
      </trkpt>
      <trkpt lat="42.86554" lon="2.24432">
        <ele>449.39</ele>
        <time>2026-06-03T14:25:49.453255057Z</time>
      </trkpt>
      <trkpt lat="42.86548" lon="2.24434">
        <ele>449.33</ele>
        <time>2026-06-03T14:25:50.425137997Z</time>
      </trkpt>
      <trkpt lat="42.86543" lon="2.24435">
        <ele>449.25</ele>
        <time>2026-06-03T14:25:51.435750961Z</time>
      </trkpt>
      <trkpt lat="42.86538" lon="2.24437">
        <ele>449.14</ele>
        <time>2026-06-03T14:25:52.417376041Z</time>
      </trkpt>
      <trkpt lat="42.86533" lon="2.24437">
        <ele>449.05</ele>
        <time>2026-06-03T14:25:53.425189018Z</time>
      </trkpt>
      <trkpt lat="42.86528" lon="2.24437">
        <ele>448.93</ele>
        <time>2026-06-03T14:25:54.445319057Z</time>
      </trkpt>
      <trkpt lat="42.86524" lon="2.24436">
        <ele>448.81</ele>
        <time>2026-06-03T14:25:55.435183048Z</time>
      </trkpt>
      <trkpt lat="42.8652" lon="2.24434">
        <ele>448.69</ele>
        <time>2026-06-03T14:25:56.428876996Z</time>
      </trkpt>
      <trkpt lat="42.86517" lon="2.24433">
        <ele>448.59</ele>
        <time>2026-06-03T14:25:57.415480018Z</time>
      </trkpt>
      <trkpt lat="42.86514" lon="2.24432">
        <ele>448.5</ele>
        <time>2026-06-03T14:25:58.435032010Z</time>
      </trkpt>
      <trkpt lat="42.86511" lon="2.24431">
        <ele>448.42</ele>
        <time>2026-06-03T14:25:59.381417990Z</time>
      </trkpt>
      <trkpt lat="42.86508" lon="2.24429">
        <ele>448.36</ele>
        <time>2026-06-03T14:26:00.391711950Z</time>
      </trkpt>
      <trkpt lat="42.86505" lon="2.24427">
        <ele>448.33</ele>
        <time>2026-06-03T14:26:01.445916057Z</time>
      </trkpt>
      <trkpt lat="42.86502" lon="2.24425">
        <ele>448.3</ele>
        <time>2026-06-03T14:26:02.392349005Z</time>
      </trkpt>
      <trkpt lat="42.865" lon="2.24422">
        <ele>448.29</ele>
        <time>2026-06-03T14:26:03.433033943Z</time>
      </trkpt>
      <trkpt lat="42.86497" lon="2.24419">
        <ele>448.3</ele>
        <time>2026-06-03T14:26:04.435088038Z</time>
      </trkpt>
      <trkpt lat="42.86495" lon="2.24417">
        <ele>448.32</ele>
        <time>2026-06-03T14:26:05.402178049Z</time>
      </trkpt>
      <trkpt lat="42.86493" lon="2.24415">
        <ele>448.35</ele>
        <time>2026-06-03T14:26:06.427494049Z</time>
      </trkpt>
      <trkpt lat="42.86491" lon="2.24413">
        <ele>448.4</ele>
        <time>2026-06-03T14:26:07.449012041Z</time>
      </trkpt>
      <trkpt lat="42.86488" lon="2.2441">
        <ele>448.46</ele>
        <time>2026-06-03T14:26:08.411499023Z</time>
      </trkpt>
      <trkpt lat="42.86486" lon="2.24408">
        <ele>448.56</ele>
        <time>2026-06-03T14:26:09.444293022Z</time>
      </trkpt>
      <trkpt lat="42.86483" lon="2.24406">
        <ele>448.69</ele>
        <time>2026-06-03T14:26:10.405485034Z</time>
      </trkpt>
      <trkpt lat="42.8648" lon="2.24405">
        <ele>448.84</ele>
        <time>2026-06-03T14:26:11.435863972Z</time>
      </trkpt>
      <trkpt lat="42.86478" lon="2.24403">
        <ele>449.01</ele>
        <time>2026-06-03T14:26:12.423027039Z</time>
      </trkpt>
      <trkpt lat="42.86475" lon="2.24402">
        <ele>449.2</ele>
        <time>2026-06-03T14:26:13.419971943Z</time>
      </trkpt>
      <trkpt lat="42.86473" lon="2.244">
        <ele>449.4</ele>
        <time>2026-06-03T14:26:14.394518971Z</time>
      </trkpt>
      <trkpt lat="42.8647" lon="2.24399">
        <ele>449.61</ele>
        <time>2026-06-03T14:26:15.445119977Z</time>
      </trkpt>
      <trkpt lat="42.86467" lon="2.24398">
        <ele>449.8</ele>
        <time>2026-06-03T14:26:16.435503006Z</time>
      </trkpt>
      <trkpt lat="42.86464" lon="2.24397">
        <ele>449.99</ele>
        <time>2026-06-03T14:26:17.575186968Z</time>
      </trkpt>
      <trkpt lat="42.86461" lon="2.24397">
        <ele>450.17</ele>
        <time>2026-06-03T14:26:18.414713979Z</time>
      </trkpt>
      <trkpt lat="42.86459" lon="2.24396">
        <ele>450.34</ele>
        <time>2026-06-03T14:26:19.404656053Z</time>
      </trkpt>
      <trkpt lat="42.86455" lon="2.24394">
        <ele>450.5</ele>
        <time>2026-06-03T14:26:20.398951054Z</time>
      </trkpt>
      <trkpt lat="42.86452" lon="2.24393">
        <ele>450.66</ele>
        <time>2026-06-03T14:26:21.445214033Z</time>
      </trkpt>
      <trkpt lat="42.86449" lon="2.2439">
        <ele>450.81</ele>
        <time>2026-06-03T14:26:22.438673973Z</time>
      </trkpt>
      <trkpt lat="42.86446" lon="2.24388">
        <ele>450.96</ele>
        <time>2026-06-03T14:26:23.605227947Z</time>
      </trkpt>
      <trkpt lat="42.86443" lon="2.24385">
        <ele>451.08</ele>
        <time>2026-06-03T14:26:24.415712953Z</time>
      </trkpt>
      <trkpt lat="42.8644" lon="2.24382">
        <ele>451.19</ele>
        <time>2026-06-03T14:26:25.435593963Z</time>
      </trkpt>
      <trkpt lat="42.86436" lon="2.24379">
        <ele>451.27</ele>
        <time>2026-06-03T14:26:26.425636053Z</time>
      </trkpt>
      <trkpt lat="42.86433" lon="2.24375">
        <ele>451.34</ele>
        <time>2026-06-03T14:26:27.415495992Z</time>
      </trkpt>
      <trkpt lat="42.8643" lon="2.24371">
        <ele>451.38</ele>
        <time>2026-06-03T14:26:28.585286975Z</time>
      </trkpt>
      <trkpt lat="42.86428" lon="2.24366">
        <ele>451.41</ele>
        <time>2026-06-03T14:26:29.421242952Z</time>
      </trkpt>
      <trkpt lat="42.86426" lon="2.24361">
        <ele>451.43</ele>
        <time>2026-06-03T14:26:30.445546985Z</time>
      </trkpt>
      <trkpt lat="42.86425" lon="2.24356">
        <ele>451.44</ele>
        <time>2026-06-03T14:26:31.435696959Z</time>
      </trkpt>
      <trkpt lat="42.86424" lon="2.24351">
        <ele>451.44</ele>
        <time>2026-06-03T14:26:32.453490973Z</time>
      </trkpt>
      <trkpt lat="42.86424" lon="2.24345">
        <ele>451.42</ele>
        <time>2026-06-03T14:26:33.415735960Z</time>
      </trkpt>
      <trkpt lat="42.86426" lon="2.2434">
        <ele>451.41</ele>
        <time>2026-06-03T14:26:34.424389958Z</time>
      </trkpt>
      <trkpt lat="42.86426" lon="2.24335">
        <ele>451.37</ele>
        <time>2026-06-03T14:26:35.425794959Z</time>
      </trkpt>
      <trkpt lat="42.86427" lon="2.24329">
        <ele>451.33</ele>
        <time>2026-06-03T14:26:36.425312996Z</time>
      </trkpt>
      <trkpt lat="42.86429" lon="2.24324">
        <ele>451.29</ele>
        <time>2026-06-03T14:26:37.383118033Z</time>
      </trkpt>
      <trkpt lat="42.86431" lon="2.24319">
        <ele>451.24</ele>
        <time>2026-06-03T14:26:38.425853014Z</time>
      </trkpt>
      <trkpt lat="42.86432" lon="2.24314">
        <ele>451.19</ele>
        <time>2026-06-03T14:26:39.415117025Z</time>
      </trkpt>
      <trkpt lat="42.86433" lon="2.24309">
        <ele>451.13</ele>
        <time>2026-06-03T14:26:40.406175971Z</time>
      </trkpt>
      <trkpt lat="42.86433" lon="2.24303">
        <ele>451.07</ele>
        <time>2026-06-03T14:26:41.425907016Z</time>
      </trkpt>
      <trkpt lat="42.86434" lon="2.24297">
        <ele>450.99</ele>
        <time>2026-06-03T14:26:42.416288972Z</time>
      </trkpt>
      <trkpt lat="42.86434" lon="2.24292">
        <ele>450.9</ele>
        <time>2026-06-03T14:26:43.405979991Z</time>
      </trkpt>
      <trkpt lat="42.86433" lon="2.24286">
        <ele>450.77</ele>
        <time>2026-06-03T14:26:44.515697956Z</time>
      </trkpt>
      <trkpt lat="42.86433" lon="2.24279">
        <ele>450.63</ele>
        <time>2026-06-03T14:26:45.416149974Z</time>
      </trkpt>
      <trkpt lat="42.86431" lon="2.24272">
        <ele>450.45</ele>
        <time>2026-06-03T14:26:46.436110973Z</time>
      </trkpt>
      <trkpt lat="42.86428" lon="2.24266">
        <ele>450.24</ele>
        <time>2026-06-03T14:26:47.430925012Z</time>
      </trkpt>
      <trkpt lat="42.86425" lon="2.24261">
        <ele>450</ele>
        <time>2026-06-03T14:26:48.423146963Z</time>
      </trkpt>
      <trkpt lat="42.86422" lon="2.24255">
        <ele>449.74</ele>
        <time>2026-06-03T14:26:49.425582051Z</time>
      </trkpt>
      <trkpt lat="42.8642" lon="2.24251">
        <ele>449.48</ele>
        <time>2026-06-03T14:26:50.485852957Z</time>
      </trkpt>
      <trkpt lat="42.86417" lon="2.24247">
        <ele>449.21</ele>
        <time>2026-06-03T14:26:51.446050048Z</time>
      </trkpt>
      <trkpt lat="42.86415" lon="2.24244">
        <ele>448.93</ele>
        <time>2026-06-03T14:26:52.447880983Z</time>
      </trkpt>
      <trkpt lat="42.86413" lon="2.24242">
        <ele>448.64</ele>
        <time>2026-06-03T14:26:53.438861012Z</time>
      </trkpt>
      <trkpt lat="42.86412" lon="2.24242">
        <ele>448.34</ele>
        <time>2026-06-03T14:26:54.566545010Z</time>
      </trkpt>
      <trkpt lat="42.86407" lon="2.24241">
        <ele>448.34</ele>
        <time>2026-06-03T14:26:55.558449984Z</time>
      </trkpt>
      <trkpt lat="42.86404" lon="2.24241">
        <ele>447.69</ele>
        <time>2026-06-03T14:26:56.636307955Z</time>
      </trkpt>
      <trkpt lat="42.86402" lon="2.2424">
        <ele>447.37</ele>
        <time>2026-06-03T14:26:57.446148992Z</time>
      </trkpt>
      <trkpt lat="42.864" lon="2.24239">
        <ele>447.06</ele>
        <time>2026-06-03T14:26:58.436331987Z</time>
      </trkpt>
      <trkpt lat="42.86398" lon="2.24239">
        <ele>446.76</ele>
        <time>2026-06-03T14:26:59.458474040Z</time>
      </trkpt>
      <trkpt lat="42.86394" lon="2.24238">
        <ele>446.47</ele>
        <time>2026-06-03T14:27:00.416403055Z</time>
      </trkpt>
      <trkpt lat="42.8639" lon="2.24235">
        <ele>446.19</ele>
        <time>2026-06-03T14:27:01.436257005Z</time>
      </trkpt>
      <trkpt lat="42.86385" lon="2.24232">
        <ele>445.94</ele>
        <time>2026-06-03T14:27:02.488327980Z</time>
      </trkpt>
      <trkpt lat="42.86382" lon="2.2423">
        <ele>445.69</ele>
        <time>2026-06-03T14:27:03.437971950Z</time>
      </trkpt>
      <trkpt lat="42.8638" lon="2.24229">
        <ele>445.42</ele>
        <time>2026-06-03T14:27:04.444442034Z</time>
      </trkpt>
      <trkpt lat="42.86377" lon="2.24227">
        <ele>445.14</ele>
        <time>2026-06-03T14:27:05.396476984Z</time>
      </trkpt>
      <trkpt lat="42.86374" lon="2.24225">
        <ele>444.81</ele>
        <time>2026-06-03T14:27:06.437530994Z</time>
      </trkpt>
      <trkpt lat="42.8637" lon="2.24222">
        <ele>444.44</ele>
        <time>2026-06-03T14:27:07.427973986Z</time>
      </trkpt>
      <trkpt lat="42.86368" lon="2.2422">
        <ele>444.03</ele>
        <time>2026-06-03T14:27:08.425763011Z</time>
      </trkpt>
      <trkpt lat="42.86365" lon="2.24218">
        <ele>443.6</ele>
        <time>2026-06-03T14:27:09.430258989Z</time>
      </trkpt>
      <trkpt lat="42.86361" lon="2.24215">
        <ele>442.99</ele>
        <time>2026-06-03T14:27:10.411787987Z</time>
      </trkpt>
      <trkpt lat="42.86358" lon="2.24214">
        <ele>442.4</ele>
        <time>2026-06-03T14:27:11.426579952Z</time>
      </trkpt>
      <trkpt lat="42.86355" lon="2.24212">
        <ele>441.85</ele>
        <time>2026-06-03T14:27:12.417021036Z</time>
      </trkpt>
      <trkpt lat="42.86352" lon="2.24211">
        <ele>441.32</ele>
        <time>2026-06-03T14:27:13.406672955Z</time>
      </trkpt>
      <trkpt lat="42.86348" lon="2.24209">
        <ele>440.8</ele>
        <time>2026-06-03T14:27:14.606624007Z</time>
      </trkpt>
      <trkpt lat="42.86345" lon="2.24208">
        <ele>440.27</ele>
        <time>2026-06-03T14:27:15.380661964Z</time>
      </trkpt>
      <trkpt lat="42.86341" lon="2.24206">
        <ele>439.74</ele>
        <time>2026-06-03T14:27:16.404001951Z</time>
      </trkpt>
      <trkpt lat="42.86337" lon="2.24204">
        <ele>439.2</ele>
        <time>2026-06-03T14:27:17.426897049Z</time>
      </trkpt>
      <trkpt lat="42.86332" lon="2.24201">
        <ele>438.68</ele>
        <time>2026-06-03T14:27:18.416555047Z</time>
      </trkpt>
      <trkpt lat="42.86329" lon="2.24198">
        <ele>438.15</ele>
        <time>2026-06-03T14:27:19.425560951Z</time>
      </trkpt>
      <trkpt lat="42.86326" lon="2.24196">
        <ele>437.64</ele>
        <time>2026-06-03T14:27:20.409849048Z</time>
      </trkpt>
      <trkpt lat="42.86322" lon="2.24194">
        <ele>437.12</ele>
        <time>2026-06-03T14:27:21.420977950Z</time>
      </trkpt>
      <trkpt lat="42.86318" lon="2.2419">
        <ele>436.6</ele>
        <time>2026-06-03T14:27:22.408961058Z</time>
      </trkpt>
      <trkpt lat="42.86314" lon="2.24186">
        <ele>436.08</ele>
        <time>2026-06-03T14:27:23.432525039Z</time>
      </trkpt>
      <trkpt lat="42.86311" lon="2.24182">
        <ele>435.6</ele>
        <time>2026-06-03T14:27:24.419777989Z</time>
      </trkpt>
      <trkpt lat="42.86309" lon="2.24178">
        <ele>435.2</ele>
        <time>2026-06-03T14:27:25.414505959Z</time>
      </trkpt>
      <trkpt lat="42.86307" lon="2.24173">
        <ele>434.85</ele>
        <time>2026-06-03T14:27:26.429932952Z</time>
      </trkpt>
      <trkpt lat="42.86306" lon="2.24168">
        <ele>434.52</ele>
        <time>2026-06-03T14:27:27.417001963Z</time>
      </trkpt>
      <trkpt lat="42.86304" lon="2.24164">
        <ele>434.22</ele>
        <time>2026-06-03T14:27:28.646731973Z</time>
      </trkpt>
      <trkpt lat="42.86302" lon="2.24158">
        <ele>433.89</ele>
        <time>2026-06-03T14:27:29.397133946Z</time>
      </trkpt>
      <trkpt lat="42.86301" lon="2.24154">
        <ele>433.59</ele>
        <time>2026-06-03T14:27:30.417364955Z</time>
      </trkpt>
      <trkpt lat="42.86301" lon="2.24148">
        <ele>433.29</ele>
        <time>2026-06-03T14:27:31.406995058Z</time>
      </trkpt>
      <trkpt lat="42.863" lon="2.24143">
        <ele>433.01</ele>
        <time>2026-06-03T14:27:32.383010030Z</time>
      </trkpt>
      <trkpt lat="42.86299" lon="2.24136">
        <ele>432.76</ele>
        <time>2026-06-03T14:27:33.360842943Z</time>
      </trkpt>
      <trkpt lat="42.86298" lon="2.2413">
        <ele>432.54</ele>
        <time>2026-06-03T14:27:34.407227993Z</time>
      </trkpt>
      <trkpt lat="42.86297" lon="2.24124">
        <ele>432.31</ele>
        <time>2026-06-03T14:27:35.412647009Z</time>
      </trkpt>
      <trkpt lat="42.86296" lon="2.24119">
        <ele>432.08</ele>
        <time>2026-06-03T14:27:36.557839990Z</time>
      </trkpt>
      <trkpt lat="42.86295" lon="2.24115">
        <ele>431.85</ele>
        <time>2026-06-03T14:27:37.437206030Z</time>
      </trkpt>
      <trkpt lat="42.86295" lon="2.24111">
        <ele>431.62</ele>
        <time>2026-06-03T14:27:38.427288055Z</time>
      </trkpt>
      <trkpt lat="42.86294" lon="2.24106">
        <ele>431.36</ele>
        <time>2026-06-03T14:27:39.386391997Z</time>
      </trkpt>
      <trkpt lat="42.86293" lon="2.24101">
        <ele>431.11</ele>
        <time>2026-06-03T14:27:40.406556010Z</time>
      </trkpt>
      <trkpt lat="42.86293" lon="2.24094">
        <ele>430.86</ele>
        <time>2026-06-03T14:27:41.426880002Z</time>
      </trkpt>
      <trkpt lat="42.86292" lon="2.2409">
        <ele>430.59</ele>
        <time>2026-06-03T14:27:42.451598048Z</time>
      </trkpt>
      <trkpt lat="42.86291" lon="2.24084">
        <ele>430.34</ele>
        <time>2026-06-03T14:27:43.431331038Z</time>
      </trkpt>
      <trkpt lat="42.8629" lon="2.24077">
        <ele>430.1</ele>
        <time>2026-06-03T14:27:44.397361994Z</time>
      </trkpt>
      <trkpt lat="42.86289" lon="2.24071">
        <ele>429.86</ele>
        <time>2026-06-03T14:27:45.417243004Z</time>
      </trkpt>
      <trkpt lat="42.86288" lon="2.24065">
        <ele>429.59</ele>
        <time>2026-06-03T14:27:46.527488947Z</time>
      </trkpt>
      <trkpt lat="42.86287" lon="2.24058">
        <ele>429.33</ele>
        <time>2026-06-03T14:27:47.606394053Z</time>
      </trkpt>
      <trkpt lat="42.86286" lon="2.24051">
        <ele>429.11</ele>
        <time>2026-06-03T14:27:48.436663032Z</time>
      </trkpt>
      <trkpt lat="42.86285" lon="2.24044">
        <ele>428.86</ele>
        <time>2026-06-03T14:27:49.437975049Z</time>
      </trkpt>
      <trkpt lat="42.86283" lon="2.24039">
        <ele>428.59</ele>
        <time>2026-06-03T14:27:50.397969961Z</time>
      </trkpt>
      <trkpt lat="42.86283" lon="2.24036">
        <ele>428.29</ele>
        <time>2026-06-03T14:27:51.453019023Z</time>
      </trkpt>
      <trkpt lat="42.86282" lon="2.24034">
        <ele>428</ele>
        <time>2026-06-03T14:27:52.466879964Z</time>
      </trkpt>
      <trkpt lat="42.86283" lon="2.2403">
        <ele>427.7</ele>
        <time>2026-06-03T14:27:53.452401996Z</time>
      </trkpt>
      <trkpt lat="42.86279" lon="2.2402">
        <ele>427.4</ele>
        <time>2026-06-03T14:27:54.437448025Z</time>
      </trkpt>
      <trkpt lat="42.86277" lon="2.24014">
        <ele>427.06</ele>
        <time>2026-06-03T14:27:55.377817988Z</time>
      </trkpt>
      <trkpt lat="42.86275" lon="2.2401">
        <ele>426.72</ele>
        <time>2026-06-03T14:27:56.440482974Z</time>
      </trkpt>
      <trkpt lat="42.86274" lon="2.24005">
        <ele>426.34</ele>
        <time>2026-06-03T14:27:57.465405941Z</time>
      </trkpt>
      <trkpt lat="42.86272" lon="2.24">
        <ele>425.92</ele>
        <time>2026-06-03T14:27:58.407688975Z</time>
      </trkpt>
      <trkpt lat="42.86271" lon="2.23995">
        <ele>425.48</ele>
        <time>2026-06-03T14:27:59.427677989Z</time>
      </trkpt>
      <trkpt lat="42.86269" lon="2.23989">
        <ele>425.03</ele>
        <time>2026-06-03T14:28:00.418712974Z</time>
      </trkpt>
      <trkpt lat="42.86268" lon="2.23985">
        <ele>424.59</ele>
        <time>2026-06-03T14:28:01.407577991Z</time>
      </trkpt>
      <trkpt lat="42.86267" lon="2.23981">
        <ele>424.13</ele>
        <time>2026-06-03T14:28:02.397747993Z</time>
      </trkpt>
      <trkpt lat="42.86265" lon="2.23977">
        <ele>423.66</ele>
        <time>2026-06-03T14:28:03.399335027Z</time>
      </trkpt>
      <trkpt lat="42.86263" lon="2.23972">
        <ele>423.17</ele>
        <time>2026-06-03T14:28:04.606160045Z</time>
      </trkpt>
      <trkpt lat="42.86262" lon="2.23969">
        <ele>422.63</ele>
        <time>2026-06-03T14:28:05.427978992Z</time>
      </trkpt>
      <trkpt lat="42.8626" lon="2.23965">
        <ele>422.09</ele>
        <time>2026-06-03T14:28:06.418213964Z</time>
      </trkpt>
      <trkpt lat="42.86257" lon="2.23961">
        <ele>421.53</ele>
        <time>2026-06-03T14:28:07.408054948Z</time>
      </trkpt>
      <trkpt lat="42.86255" lon="2.23957">
        <ele>420.99</ele>
        <time>2026-06-03T14:28:08.637586951Z</time>
      </trkpt>
      <trkpt lat="42.86252" lon="2.23953">
        <ele>420.47</ele>
        <time>2026-06-03T14:28:09.387802958Z</time>
      </trkpt>
      <trkpt lat="42.86249" lon="2.2395">
        <ele>419.76</ele>
        <time>2026-06-03T14:28:10.399021983Z</time>
      </trkpt>
      <trkpt lat="42.86246" lon="2.23947">
        <ele>419.16</ele>
        <time>2026-06-03T14:28:11.441974998Z</time>
      </trkpt>
      <trkpt lat="42.86243" lon="2.23944">
        <ele>418.6</ele>
        <time>2026-06-03T14:28:12.417382956Z</time>
      </trkpt>
      <trkpt lat="42.86239" lon="2.23941">
        <ele>417.99</ele>
        <time>2026-06-03T14:28:13.527035952Z</time>
      </trkpt>
      <trkpt lat="42.86235" lon="2.23937">
        <ele>417.39</ele>
        <time>2026-06-03T14:28:14.397317052Z</time>
      </trkpt>
      <trkpt lat="42.86232" lon="2.23934">
        <ele>416.79</ele>
        <time>2026-06-03T14:28:15.397905946Z</time>
      </trkpt>
      <trkpt lat="42.86229" lon="2.23931">
        <ele>416.23</ele>
        <time>2026-06-03T14:28:16.468762994Z</time>
      </trkpt>
      <trkpt lat="42.86226" lon="2.23928">
        <ele>415.66</ele>
        <time>2026-06-03T14:28:17.637879968Z</time>
      </trkpt>
      <trkpt lat="42.86223" lon="2.23924">
        <ele>415.14</ele>
        <time>2026-06-03T14:28:18.539764047Z</time>
      </trkpt>
      <trkpt lat="42.8622" lon="2.2392">
        <ele>414.62</ele>
        <time>2026-06-03T14:28:19.408115029Z</time>
      </trkpt>
      <trkpt lat="42.86217" lon="2.23916">
        <ele>414.13</ele>
        <time>2026-06-03T14:28:20.397878051Z</time>
      </trkpt>
      <trkpt lat="42.86215" lon="2.23911">
        <ele>413.64</ele>
        <time>2026-06-03T14:28:21.504438996Z</time>
      </trkpt>
      <trkpt lat="42.86214" lon="2.23907">
        <ele>413.14</ele>
        <time>2026-06-03T14:28:22.408278942Z</time>
      </trkpt>
      <trkpt lat="42.86211" lon="2.23903">
        <ele>412.63</ele>
        <time>2026-06-03T14:28:23.406250Z</time>
      </trkpt>
      <trkpt lat="42.86209" lon="2.23898">
        <ele>412.14</ele>
        <time>2026-06-03T14:28:24.628312945Z</time>
      </trkpt>
      <trkpt lat="42.86207" lon="2.23893">
        <ele>411.63</ele>
        <time>2026-06-03T14:28:25.408167958Z</time>
      </trkpt>
      <trkpt lat="42.86205" lon="2.23886">
        <ele>411.15</ele>
        <time>2026-06-03T14:28:26.428171039Z</time>
      </trkpt>
      <trkpt lat="42.86203" lon="2.23881">
        <ele>410.67</ele>
        <time>2026-06-03T14:28:27.598359942Z</time>
      </trkpt>
      <trkpt lat="42.86201" lon="2.23874">
        <ele>410.22</ele>
        <time>2026-06-03T14:28:28.588369012Z</time>
      </trkpt>
      <trkpt lat="42.862" lon="2.23869">
        <ele>409.78</ele>
        <time>2026-06-03T14:28:29.411723971Z</time>
      </trkpt>
      <trkpt lat="42.86198" lon="2.23863">
        <ele>409.37</ele>
        <time>2026-06-03T14:28:30.397676945Z</time>
      </trkpt>
      <trkpt lat="42.86197" lon="2.23858">
        <ele>408.96</ele>
        <time>2026-06-03T14:28:31.618736029Z</time>
      </trkpt>
      <trkpt lat="42.86195" lon="2.23853">
        <ele>408.59</ele>
        <time>2026-06-03T14:28:32.608551025Z</time>
      </trkpt>
      <trkpt lat="42.86193" lon="2.23847">
        <ele>408.23</ele>
        <time>2026-06-03T14:28:33.437090993Z</time>
      </trkpt>
      <trkpt lat="42.8619" lon="2.23842">
        <ele>407.93</ele>
        <time>2026-06-03T14:28:34.416573048Z</time>
      </trkpt>
      <trkpt lat="42.86187" lon="2.23837">
        <ele>407.63</ele>
        <time>2026-06-03T14:28:35.428429961Z</time>
      </trkpt>
      <trkpt lat="42.86184" lon="2.23831">
        <ele>407.35</ele>
        <time>2026-06-03T14:28:36.628371Z</time>
      </trkpt>
      <trkpt lat="42.8618" lon="2.23826">
        <ele>407.08</ele>
        <time>2026-06-03T14:28:37.408524990Z</time>
      </trkpt>
      <trkpt lat="42.86175" lon="2.2382">
        <ele>406.79</ele>
        <time>2026-06-03T14:28:38.422278047Z</time>
      </trkpt>
      <trkpt lat="42.86171" lon="2.23815">
        <ele>406.49</ele>
        <time>2026-06-03T14:28:39.422175050Z</time>
      </trkpt>
      <trkpt lat="42.86166" lon="2.2381">
        <ele>406.16</ele>
        <time>2026-06-03T14:28:40.407794952Z</time>
      </trkpt>
      <trkpt lat="42.86162" lon="2.23806">
        <ele>405.79</ele>
        <time>2026-06-03T14:28:41.368111014Z</time>
      </trkpt>
      <trkpt lat="42.86157" lon="2.23801">
        <ele>405.44</ele>
        <time>2026-06-03T14:28:42.538931966Z</time>
      </trkpt>
      <trkpt lat="42.86152" lon="2.23797">
        <ele>405.09</ele>
        <time>2026-06-03T14:28:43.459411025Z</time>
      </trkpt>
      <trkpt lat="42.86148" lon="2.23792">
        <ele>404.77</ele>
        <time>2026-06-03T14:28:44.509606004Z</time>
      </trkpt>
      <trkpt lat="42.86144" lon="2.23788">
        <ele>404.48</ele>
        <time>2026-06-03T14:28:45.418686032Z</time>
      </trkpt>
      <trkpt lat="42.8614" lon="2.23784">
        <ele>404.22</ele>
        <time>2026-06-03T14:28:46.440840960Z</time>
      </trkpt>
      <trkpt lat="42.86136" lon="2.2378">
        <ele>403.98</ele>
        <time>2026-06-03T14:28:47.518435955Z</time>
      </trkpt>
      <trkpt lat="42.86132" lon="2.23776">
        <ele>403.74</ele>
        <time>2026-06-03T14:28:48.538506031Z</time>
      </trkpt>
      <trkpt lat="42.86127" lon="2.23772">
        <ele>403.51</ele>
        <time>2026-06-03T14:28:49.408720970Z</time>
      </trkpt>
      <trkpt lat="42.86123" lon="2.23769">
        <ele>403.29</ele>
        <time>2026-06-03T14:28:50.398550034Z</time>
      </trkpt>
      <trkpt lat="42.86119" lon="2.23765">
        <ele>403.04</ele>
        <time>2026-06-03T14:28:51.419173002Z</time>
      </trkpt>
      <trkpt lat="42.86116" lon="2.23761">
        <ele>402.79</ele>
        <time>2026-06-03T14:28:52.527799964Z</time>
      </trkpt>
      <trkpt lat="42.86112" lon="2.23757">
        <ele>402.53</ele>
        <time>2026-06-03T14:28:53.398805022Z</time>
      </trkpt>
      <trkpt lat="42.8611" lon="2.23752">
        <ele>402.27</ele>
        <time>2026-06-03T14:28:54.508597970Z</time>
      </trkpt>
      <trkpt lat="42.86108" lon="2.23747">
        <ele>402.01</ele>
        <time>2026-06-03T14:28:55.408128977Z</time>
      </trkpt>
      <trkpt lat="42.86105" lon="2.23741">
        <ele>401.77</ele>
        <time>2026-06-03T14:28:56.398319006Z</time>
      </trkpt>
      <trkpt lat="42.86103" lon="2.23735">
        <ele>401.58</ele>
        <time>2026-06-03T14:28:57.418984056Z</time>
      </trkpt>
      <trkpt lat="42.861" lon="2.23728">
        <ele>401.37</ele>
        <time>2026-06-03T14:28:58.409029961Z</time>
      </trkpt>
      <trkpt lat="42.86097" lon="2.23723">
        <ele>401.14</ele>
        <time>2026-06-03T14:28:59.428961992Z</time>
      </trkpt>
      <trkpt lat="42.86095" lon="2.23717">
        <ele>400.87</ele>
        <time>2026-06-03T14:29:00.418943048Z</time>
      </trkpt>
      <trkpt lat="42.86094" lon="2.23712">
        <ele>400.6</ele>
        <time>2026-06-03T14:29:01.529428005Z</time>
      </trkpt>
      <trkpt lat="42.86092" lon="2.23706">
        <ele>400.28</ele>
        <time>2026-06-03T14:29:02.431841969Z</time>
      </trkpt>
      <trkpt lat="42.8609" lon="2.23699">
        <ele>399.95</ele>
        <time>2026-06-03T14:29:03.389112949Z</time>
      </trkpt>
      <trkpt lat="42.86089" lon="2.23693">
        <ele>399.62</ele>
        <time>2026-06-03T14:29:04.438961983Z</time>
      </trkpt>
      <trkpt lat="42.86087" lon="2.23688">
        <ele>399.27</ele>
        <time>2026-06-03T14:29:05.399243951Z</time>
      </trkpt>
      <trkpt lat="42.86084" lon="2.23686">
        <ele>398.9</ele>
        <time>2026-06-03T14:29:06.460947990Z</time>
      </trkpt>
      <trkpt lat="42.86081" lon="2.23685">
        <ele>398.49</ele>
        <time>2026-06-03T14:29:07.430927038Z</time>
      </trkpt>
      <trkpt lat="42.86079" lon="2.23686">
        <ele>398.06</ele>
        <time>2026-06-03T14:29:08.398408055Z</time>
      </trkpt>
      <trkpt lat="42.86076" lon="2.23689">
        <ele>397.63</ele>
        <time>2026-06-03T14:29:09.592668056Z</time>
      </trkpt>
      <trkpt lat="42.86074" lon="2.23693">
        <ele>397</ele>
        <time>2026-06-03T14:29:10.409147978Z</time>
      </trkpt>
      <trkpt lat="42.86074" lon="2.23697">
        <ele>396.41</ele>
        <time>2026-06-03T14:29:11.399507046Z</time>
      </trkpt>
      <trkpt lat="42.86074" lon="2.23701">
        <ele>395.86</ele>
        <time>2026-06-03T14:29:12.444151044Z</time>
      </trkpt>
      <trkpt lat="42.86074" lon="2.23706">
        <ele>395.36</ele>
        <time>2026-06-03T14:29:13.408679008Z</time>
      </trkpt>
      <trkpt lat="42.86075" lon="2.23711">
        <ele>394.86</ele>
        <time>2026-06-03T14:29:14.399340034Z</time>
      </trkpt>
      <trkpt lat="42.86075" lon="2.23716">
        <ele>394.4</ele>
        <time>2026-06-03T14:29:15.419432998Z</time>
      </trkpt>
      <trkpt lat="42.86075" lon="2.23721">
        <ele>393.97</ele>
        <time>2026-06-03T14:29:16.409389973Z</time>
      </trkpt>
      <trkpt lat="42.86073" lon="2.23726">
        <ele>393.55</ele>
        <time>2026-06-03T14:29:17.639287949Z</time>
      </trkpt>
      <trkpt lat="42.86073" lon="2.23731">
        <ele>393.15</ele>
        <time>2026-06-03T14:29:18.388725042Z</time>
      </trkpt>
      <trkpt lat="42.86072" lon="2.23736">
        <ele>392.79</ele>
        <time>2026-06-03T14:29:19.378924966Z</time>
      </trkpt>
      <trkpt lat="42.86072" lon="2.23742">
        <ele>392.5</ele>
        <time>2026-06-03T14:29:20.431102991Z</time>
      </trkpt>
      <trkpt lat="42.86071" lon="2.23747">
        <ele>392.22</ele>
        <time>2026-06-03T14:29:21.434792995Z</time>
      </trkpt>
      <trkpt lat="42.86071" lon="2.23751">
        <ele>391.95</ele>
        <time>2026-06-03T14:29:22.429877043Z</time>
      </trkpt>
      <trkpt lat="42.86071" lon="2.23756">
        <ele>391.69</ele>
        <time>2026-06-03T14:29:23.436350942Z</time>
      </trkpt>
      <trkpt lat="42.86071" lon="2.2376">
        <ele>391.44</ele>
        <time>2026-06-03T14:29:24.413362026Z</time>
      </trkpt>
      <trkpt lat="42.86072" lon="2.23765">
        <ele>391.19</ele>
        <time>2026-06-03T14:29:25.432312012Z</time>
      </trkpt>
      <trkpt lat="42.86072" lon="2.2377">
        <ele>390.95</ele>
        <time>2026-06-03T14:29:26.398934007Z</time>
      </trkpt>
      <trkpt lat="42.86072" lon="2.23775">
        <ele>390.72</ele>
        <time>2026-06-03T14:29:27.629488945Z</time>
      </trkpt>
      <trkpt lat="42.86071" lon="2.23781">
        <ele>390.51</ele>
        <time>2026-06-03T14:29:28.412449956Z</time>
      </trkpt>
      <trkpt lat="42.86071" lon="2.23785">
        <ele>390.29</ele>
        <time>2026-06-03T14:29:29.429823041Z</time>
      </trkpt>
      <trkpt lat="42.86071" lon="2.23788">
        <ele>390.05</ele>
        <time>2026-06-03T14:29:30.399126053Z</time>
      </trkpt>
      <trkpt lat="42.8607" lon="2.23791">
        <ele>389.81</ele>
        <time>2026-06-03T14:29:31.543961048Z</time>
      </trkpt>
      <trkpt lat="42.86069" lon="2.23794">
        <ele>389.55</ele>
        <time>2026-06-03T14:29:32.520045042Z</time>
      </trkpt>
      <trkpt lat="42.86068" lon="2.23798">
        <ele>389.28</ele>
        <time>2026-06-03T14:29:33.389811039Z</time>
      </trkpt>
      <trkpt lat="42.86065" lon="2.23802">
        <ele>389.01</ele>
        <time>2026-06-03T14:29:34.379909992Z</time>
      </trkpt>
      <trkpt lat="42.86063" lon="2.23807">
        <ele>388.74</ele>
        <time>2026-06-03T14:29:35.399961948Z</time>
      </trkpt>
      <trkpt lat="42.86061" lon="2.23812">
        <ele>388.48</ele>
        <time>2026-06-03T14:29:36.434849024Z</time>
      </trkpt>
      <trkpt lat="42.8606" lon="2.23815">
        <ele>388.2</ele>
        <time>2026-06-03T14:29:38.460327983Z</time>
      </trkpt>
      <trkpt lat="42.86058" lon="2.23819">
        <ele>387.64</ele>
        <time>2026-06-03T14:29:39.389945030Z</time>
      </trkpt>
      <trkpt lat="42.86054" lon="2.23823">
        <ele>387.36</ele>
        <time>2026-06-03T14:29:40.399399042Z</time>
      </trkpt>
      <trkpt lat="42.86052" lon="2.23827">
        <ele>387.06</ele>
        <time>2026-06-03T14:29:41.399932027Z</time>
      </trkpt>
      <trkpt lat="42.86048" lon="2.2383">
        <ele>386.77</ele>
        <time>2026-06-03T14:29:42.465703964Z</time>
      </trkpt>
      <trkpt lat="42.86044" lon="2.23834">
        <ele>386.52</ele>
        <time>2026-06-03T14:29:43.440071940Z</time>
      </trkpt>
      <trkpt lat="42.86038" lon="2.2384">
        <ele>386.22</ele>
        <time>2026-06-03T14:29:44.413000941Z</time>
      </trkpt>
      <trkpt lat="42.86034" lon="2.23842">
        <ele>385.91</ele>
        <time>2026-06-03T14:29:45.399718046Z</time>
      </trkpt>
      <trkpt lat="42.86029" lon="2.23841">
        <ele>385.59</ele>
        <time>2026-06-03T14:29:46.441948056Z</time>
      </trkpt>
      <trkpt lat="42.86026" lon="2.23838">
        <ele>385.23</ele>
        <time>2026-06-03T14:29:47.400421023Z</time>
      </trkpt>
      <trkpt lat="42.86023" lon="2.23834">
        <ele>384.9</ele>
        <time>2026-06-03T14:29:48.453657031Z</time>
      </trkpt>
      <trkpt lat="42.86021" lon="2.23829">
        <ele>384.61</ele>
        <time>2026-06-03T14:29:49.418619037Z</time>
      </trkpt>
      <trkpt lat="42.86018" lon="2.23825">
        <ele>384.34</ele>
        <time>2026-06-03T14:29:50.400112033Z</time>
      </trkpt>
      <trkpt lat="42.86016" lon="2.23821">
        <ele>384.1</ele>
        <time>2026-06-03T14:29:51.390280008Z</time>
      </trkpt>
      <trkpt lat="42.86013" lon="2.23817">
        <ele>383.89</ele>
        <time>2026-06-03T14:29:52.414744973Z</time>
      </trkpt>
      <trkpt lat="42.86011" lon="2.23816">
        <ele>383.69</ele>
        <time>2026-06-03T14:29:53.422147989Z</time>
      </trkpt>
      <trkpt lat="42.86007" lon="2.23815">
        <ele>383.5</ele>
        <time>2026-06-03T14:29:54.390257001Z</time>
      </trkpt>
      <trkpt lat="42.86003" lon="2.23814">
        <ele>383.35</ele>
        <time>2026-06-03T14:29:55.399130940Z</time>
      </trkpt>
      <trkpt lat="42.86" lon="2.23816">
        <ele>383.21</ele>
        <time>2026-06-03T14:29:56.442734003Z</time>
      </trkpt>
      <trkpt lat="42.85997" lon="2.23817">
        <ele>383.1</ele>
        <time>2026-06-03T14:29:57.435381055Z</time>
      </trkpt>
      <trkpt lat="42.85994" lon="2.2382">
        <ele>382.99</ele>
        <time>2026-06-03T14:29:58.410321951Z</time>
      </trkpt>
      <trkpt lat="42.8599" lon="2.23822">
        <ele>382.9</ele>
        <time>2026-06-03T14:29:59.436115980Z</time>
      </trkpt>
      <trkpt lat="42.85986" lon="2.23825">
        <ele>382.8</ele>
        <time>2026-06-03T14:30:00.400876045Z</time>
      </trkpt>
      <trkpt lat="42.85982" lon="2.23827">
        <ele>382.67</ele>
        <time>2026-06-03T14:30:01.380907059Z</time>
      </trkpt>
      <trkpt lat="42.85979" lon="2.23829">
        <ele>382.54</ele>
        <time>2026-06-03T14:30:02.400851011Z</time>
      </trkpt>
      <trkpt lat="42.85976" lon="2.23832">
        <ele>382.38</ele>
        <time>2026-06-03T14:30:03.432744980Z</time>
      </trkpt>
      <trkpt lat="42.85973" lon="2.23835">
        <ele>382.2</ele>
        <time>2026-06-03T14:30:04.410575032Z</time>
      </trkpt>
      <trkpt lat="42.8597" lon="2.23838">
        <ele>382</ele>
        <time>2026-06-03T14:30:05.400025010Z</time>
      </trkpt>
      <trkpt lat="42.85967" lon="2.23841">
        <ele>381.82</ele>
        <time>2026-06-03T14:30:06.365856051Z</time>
      </trkpt>
      <trkpt lat="42.85965" lon="2.23844">
        <ele>381.64</ele>
        <time>2026-06-03T14:30:07.681020021Z</time>
      </trkpt>
      <trkpt lat="42.85963" lon="2.23846">
        <ele>381.43</ele>
        <time>2026-06-03T14:30:08.399927020Z</time>
      </trkpt>
      <trkpt lat="42.8596" lon="2.23848">
        <ele>381.2</ele>
        <time>2026-06-03T14:30:09.439697981Z</time>
      </trkpt>
      <trkpt lat="42.85955" lon="2.23851">
        <ele>380.8</ele>
        <time>2026-06-03T14:30:10.410876036Z</time>
      </trkpt>
      <trkpt lat="42.8595" lon="2.23854">
        <ele>380.38</ele>
        <time>2026-06-03T14:30:11.399984956Z</time>
      </trkpt>
      <trkpt lat="42.85946" lon="2.23857">
        <ele>379.96</ele>
        <time>2026-06-03T14:30:12.390526056Z</time>
      </trkpt>
      <trkpt lat="42.85941" lon="2.2386">
        <ele>379.54</ele>
        <time>2026-06-03T14:30:13.410032034Z</time>
      </trkpt>
      <trkpt lat="42.85937" lon="2.23863">
        <ele>379.15</ele>
        <time>2026-06-03T14:30:14.519484043Z</time>
      </trkpt>
      <trkpt lat="42.85932" lon="2.23868">
        <ele>378.75</ele>
        <time>2026-06-03T14:30:15.389997005Z</time>
      </trkpt>
      <trkpt lat="42.85927" lon="2.23871">
        <ele>378.37</ele>
        <time>2026-06-03T14:30:16.470664024Z</time>
      </trkpt>
      <trkpt lat="42.85923" lon="2.23874">
        <ele>378.01</ele>
        <time>2026-06-03T14:30:17.403558969Z</time>
      </trkpt>
      <trkpt lat="42.85919" lon="2.23875">
        <ele>377.69</ele>
        <time>2026-06-03T14:30:18.435448050Z</time>
      </trkpt>
      <trkpt lat="42.85915" lon="2.23875">
        <ele>377.41</ele>
        <time>2026-06-03T14:30:19.530009985Z</time>
      </trkpt>
      <trkpt lat="42.85911" lon="2.23875">
        <ele>377.17</ele>
        <time>2026-06-03T14:30:20.424618959Z</time>
      </trkpt>
      <trkpt lat="42.85908" lon="2.23873">
        <ele>376.96</ele>
        <time>2026-06-03T14:30:21.390385032Z</time>
      </trkpt>
      <trkpt lat="42.85905" lon="2.23872">
        <ele>376.79</ele>
        <time>2026-06-03T14:30:22.530616999Z</time>
      </trkpt>
      <trkpt lat="42.85903" lon="2.23871">
        <ele>376.64</ele>
        <time>2026-06-03T14:30:23.436874032Z</time>
      </trkpt>
      <trkpt lat="42.85901" lon="2.23869">
        <ele>376.53</ele>
        <time>2026-06-03T14:30:24.420907021Z</time>
      </trkpt>
      <trkpt lat="42.85899" lon="2.23868">
        <ele>376.44</ele>
        <time>2026-06-03T14:30:25.410354972Z</time>
      </trkpt>
      <trkpt lat="42.85897" lon="2.23866">
        <ele>376.39</ele>
        <time>2026-06-03T14:30:26.551421046Z</time>
      </trkpt>
      <trkpt lat="42.85895" lon="2.23863">
        <ele>376.35</ele>
        <time>2026-06-03T14:30:27.391062021Z</time>
      </trkpt>
      <trkpt lat="42.85892" lon="2.23859">
        <ele>376.33</ele>
        <time>2026-06-03T14:30:28.373955011Z</time>
      </trkpt>
      <trkpt lat="42.85891" lon="2.23857">
        <ele>376.31</ele>
        <time>2026-06-03T14:30:29.490905046Z</time>
      </trkpt>
      <trkpt lat="42.85889" lon="2.23855">
        <ele>376.31</ele>
        <time>2026-06-03T14:30:30.399057984Z</time>
      </trkpt>
      <trkpt lat="42.85887" lon="2.23852">
        <ele>376.31</ele>
        <time>2026-06-03T14:30:31.380767941Z</time>
      </trkpt>
      <trkpt lat="42.85885" lon="2.23849">
        <ele>376.32</ele>
        <time>2026-06-03T14:30:32.400706053Z</time>
      </trkpt>
      <trkpt lat="42.85884" lon="2.23847">
        <ele>376.33</ele>
        <time>2026-06-03T14:30:33.420531988Z</time>
      </trkpt>
      <trkpt lat="42.85883" lon="2.23843">
        <ele>376.34</ele>
        <time>2026-06-03T14:30:34.563338041Z</time>
      </trkpt>
      <trkpt lat="42.85881" lon="2.23841">
        <ele>376.35</ele>
        <time>2026-06-03T14:30:35.401208043Z</time>
      </trkpt>
      <trkpt lat="42.8588" lon="2.23838">
        <ele>376.35</ele>
        <time>2026-06-03T14:30:36.401216984Z</time>
      </trkpt>
      <trkpt lat="42.85878" lon="2.23835">
        <ele>376.36</ele>
        <time>2026-06-03T14:30:37.388391972Z</time>
      </trkpt>
      <trkpt lat="42.85876" lon="2.23832">
        <ele>376.37</ele>
        <time>2026-06-03T14:30:38.458065987Z</time>
      </trkpt>
      <trkpt lat="42.85874" lon="2.2383">
        <ele>376.38</ele>
        <time>2026-06-03T14:30:39.390699029Z</time>
      </trkpt>
      <trkpt lat="42.85872" lon="2.23827">
        <ele>376.4</ele>
        <time>2026-06-03T14:30:40.413076043Z</time>
      </trkpt>
      <trkpt lat="42.85871" lon="2.23825">
        <ele>376.43</ele>
        <time>2026-06-03T14:30:41.401615977Z</time>
      </trkpt>
      <trkpt lat="42.8587" lon="2.23822">
        <ele>376.45</ele>
        <time>2026-06-03T14:30:42.391448975Z</time>
      </trkpt>
      <trkpt lat="42.85869" lon="2.2382">
        <ele>376.49</ele>
        <time>2026-06-03T14:30:43.408954978Z</time>
      </trkpt>
      <trkpt lat="42.85867" lon="2.23816">
        <ele>376.53</ele>
        <time>2026-06-03T14:30:44.370623946Z</time>
      </trkpt>
      <trkpt lat="42.85866" lon="2.23813">
        <ele>376.59</ele>
        <time>2026-06-03T14:30:45.397357941Z</time>
      </trkpt>
      <trkpt lat="42.85864" lon="2.2381">
        <ele>376.67</ele>
        <time>2026-06-03T14:30:46.424123049Z</time>
      </trkpt>
      <trkpt lat="42.85863" lon="2.23808">
        <ele>376.78</ele>
        <time>2026-06-03T14:30:47.491328001Z</time>
      </trkpt>
      <trkpt lat="42.85862" lon="2.23806">
        <ele>376.93</ele>
        <time>2026-06-03T14:30:48.480672002Z</time>
      </trkpt>
      <trkpt lat="42.8586" lon="2.23805">
        <ele>377.09</ele>
        <time>2026-06-03T14:30:49.380679965Z</time>
      </trkpt>
      <trkpt lat="42.85857" lon="2.23801">
        <ele>377.27</ele>
        <time>2026-06-03T14:30:50.401021004Z</time>
      </trkpt>
      <trkpt lat="42.85854" lon="2.238">
        <ele>377.46</ele>
        <time>2026-06-03T14:30:51.391037941Z</time>
      </trkpt>
      <trkpt lat="42.85852" lon="2.23798">
        <ele>377.63</ele>
        <time>2026-06-03T14:30:52.391934037Z</time>
      </trkpt>
      <trkpt lat="42.85849" lon="2.23796">
        <ele>377.78</ele>
        <time>2026-06-03T14:30:53.401860952Z</time>
      </trkpt>
      <trkpt lat="42.85847" lon="2.23794">
        <ele>377.9</ele>
        <time>2026-06-03T14:30:54.400725961Z</time>
      </trkpt>
      <trkpt lat="42.85846" lon="2.23792">
        <ele>377.99</ele>
        <time>2026-06-03T14:30:55.411870003Z</time>
      </trkpt>
      <trkpt lat="42.85842" lon="2.23792">
        <ele>378.07</ele>
        <time>2026-06-03T14:30:56.409955025Z</time>
      </trkpt>
      <trkpt lat="42.8584" lon="2.23792">
        <ele>378.13</ele>
        <time>2026-06-03T14:30:57.377704024Z</time>
      </trkpt>
      <trkpt lat="42.85838" lon="2.23793">
        <ele>378.18</ele>
        <time>2026-06-03T14:30:58.364868999Z</time>
      </trkpt>
      <trkpt lat="42.85835" lon="2.23793">
        <ele>378.21</ele>
        <time>2026-06-03T14:30:59.450948Z</time>
      </trkpt>
      <trkpt lat="42.85832" lon="2.23795">
        <ele>378.24</ele>
        <time>2026-06-03T14:31:00.400060058Z</time>
      </trkpt>
      <trkpt lat="42.85829" lon="2.23795">
        <ele>378.26</ele>
        <time>2026-06-03T14:31:01.382009983Z</time>
      </trkpt>
      <trkpt lat="42.85826" lon="2.23796">
        <ele>378.28</ele>
        <time>2026-06-03T14:31:02.381809950Z</time>
      </trkpt>
      <trkpt lat="42.85825" lon="2.23798">
        <ele>378.3</ele>
        <time>2026-06-03T14:31:03.432508945Z</time>
      </trkpt>
      <trkpt lat="42.85822" lon="2.23801">
        <ele>378.32</ele>
        <time>2026-06-03T14:31:04.492123008Z</time>
      </trkpt>
      <trkpt lat="42.85821" lon="2.23803">
        <ele>378.34</ele>
        <time>2026-06-03T14:31:05.398162961Z</time>
      </trkpt>
      <trkpt lat="42.8582" lon="2.23807">
        <ele>378.36</ele>
        <time>2026-06-03T14:31:06.452401996Z</time>
      </trkpt>
      <trkpt lat="42.85817" lon="2.23809">
        <ele>378.39</ele>
        <time>2026-06-03T14:31:07.591899991Z</time>
      </trkpt>
      <trkpt lat="42.85814" lon="2.23812">
        <ele>378.42</ele>
        <time>2026-06-03T14:31:08.678078055Z</time>
      </trkpt>
      <trkpt lat="42.85812" lon="2.23814">
        <ele>378.46</ele>
        <time>2026-06-03T14:31:09.521909952Z</time>
      </trkpt>
      <trkpt lat="42.8581" lon="2.23816">
        <ele>378.6</ele>
        <time>2026-06-03T14:31:10.392604947Z</time>
      </trkpt>
      <trkpt lat="42.85809" lon="2.23819">
        <ele>378.74</ele>
        <time>2026-06-03T14:31:11.438508034Z</time>
      </trkpt>
      <trkpt lat="42.85808" lon="2.23821">
        <ele>378.91</ele>
        <time>2026-06-03T14:31:12.430107951Z</time>
      </trkpt>
      <trkpt lat="42.85807" lon="2.23824">
        <ele>379.06</ele>
        <time>2026-06-03T14:31:13.411599040Z</time>
      </trkpt>
      <trkpt lat="42.85805" lon="2.23828">
        <ele>379.24</ele>
        <time>2026-06-03T14:31:14.549682021Z</time>
      </trkpt>
      <trkpt lat="42.85804" lon="2.2383">
        <ele>379.42</ele>
        <time>2026-06-03T14:31:15.399999022Z</time>
      </trkpt>
      <trkpt lat="42.85802" lon="2.23832">
        <ele>379.6</ele>
        <time>2026-06-03T14:31:16.381404042Z</time>
      </trkpt>
      <trkpt lat="42.858" lon="2.23833">
        <ele>379.79</ele>
        <time>2026-06-03T14:31:17.359604001Z</time>
      </trkpt>
      <trkpt lat="42.85798" lon="2.23836">
        <ele>380.01</ele>
        <time>2026-06-03T14:31:18.391816020Z</time>
      </trkpt>
      <trkpt lat="42.85795" lon="2.23837">
        <ele>380.24</ele>
        <time>2026-06-03T14:31:19.382022023Z</time>
      </trkpt>
      <trkpt lat="42.85792" lon="2.23838">
        <ele>380.47</ele>
        <time>2026-06-03T14:31:20.402531981Z</time>
      </trkpt>
      <trkpt lat="42.8579" lon="2.2384">
        <ele>380.71</ele>
        <time>2026-06-03T14:31:21.363952041Z</time>
      </trkpt>
      <trkpt lat="42.85787" lon="2.23842">
        <ele>380.97</ele>
        <time>2026-06-03T14:31:22.337074041Z</time>
      </trkpt>
      <trkpt lat="42.85785" lon="2.23843">
        <ele>381.28</ele>
        <time>2026-06-03T14:31:23.402624011Z</time>
      </trkpt>
      <trkpt lat="42.85783" lon="2.23845">
        <ele>381.59</ele>
        <time>2026-06-03T14:31:24.392639041Z</time>
      </trkpt>
      <trkpt lat="42.85781" lon="2.23847">
        <ele>381.89</ele>
        <time>2026-06-03T14:31:25.415616035Z</time>
      </trkpt>
      <trkpt lat="42.85778" lon="2.23849">
        <ele>382.18</ele>
        <time>2026-06-03T14:31:26.424661994Z</time>
      </trkpt>
      <trkpt lat="42.85776" lon="2.23851">
        <ele>382.45</ele>
        <time>2026-06-03T14:31:27.391914964Z</time>
      </trkpt>
      <trkpt lat="42.85774" lon="2.23852">
        <ele>382.74</ele>
        <time>2026-06-03T14:31:28.381893992Z</time>
      </trkpt>
      <trkpt lat="42.85771" lon="2.23853">
        <ele>383</ele>
        <time>2026-06-03T14:31:29.402778983Z</time>
      </trkpt>
      <trkpt lat="42.85767" lon="2.23854">
        <ele>383.25</ele>
        <time>2026-06-03T14:31:30.413817048Z</time>
      </trkpt>
      <trkpt lat="42.85766" lon="2.23855">
        <ele>383.47</ele>
        <time>2026-06-03T14:31:31.413583040Z</time>
      </trkpt>
      <trkpt lat="42.85765" lon="2.23855">
        <ele>383.68</ele>
        <time>2026-06-03T14:31:32.402937055Z</time>
      </trkpt>
      <trkpt lat="42.85762" lon="2.23858">
        <ele>383.9</ele>
        <time>2026-06-03T14:31:33.392912030Z</time>
      </trkpt>
      <trkpt lat="42.8576" lon="2.2386">
        <ele>384.09</ele>
        <time>2026-06-03T14:31:34.382799983Z</time>
      </trkpt>
      <trkpt lat="42.85758" lon="2.23862">
        <ele>384.3</ele>
        <time>2026-06-03T14:31:35.413378Z</time>
      </trkpt>
      <trkpt lat="42.85756" lon="2.23865">
        <ele>384.49</ele>
        <time>2026-06-03T14:31:36.392920971Z</time>
      </trkpt>
      <trkpt lat="42.85754" lon="2.23868">
        <ele>384.67</ele>
        <time>2026-06-03T14:31:37.412757993Z</time>
      </trkpt>
      <trkpt lat="42.85752" lon="2.23872">
        <ele>384.88</ele>
        <time>2026-06-03T14:31:38.416847944Z</time>
      </trkpt>
      <trkpt lat="42.8575" lon="2.23875">
        <ele>385.06</ele>
        <time>2026-06-03T14:31:39.392979026Z</time>
      </trkpt>
      <trkpt lat="42.85748" lon="2.23877">
        <ele>385.25</ele>
        <time>2026-06-03T14:31:40.516109943Z</time>
      </trkpt>
      <trkpt lat="42.85746" lon="2.2388">
        <ele>385.42</ele>
        <time>2026-06-03T14:31:41.380920053Z</time>
      </trkpt>
      <trkpt lat="42.85745" lon="2.23884">
        <ele>385.58</ele>
        <time>2026-06-03T14:31:42.393156052Z</time>
      </trkpt>
      <trkpt lat="42.85743" lon="2.23885">
        <ele>385.75</ele>
        <time>2026-06-03T14:31:43.412930012Z</time>
      </trkpt>
      <trkpt lat="42.85743" lon="2.23887">
        <ele>385.92</ele>
        <time>2026-06-03T14:31:44.403048038Z</time>
      </trkpt>
      <trkpt lat="42.85741" lon="2.23889">
        <ele>386.09</ele>
        <time>2026-06-03T14:31:45.415050983Z</time>
      </trkpt>
      <trkpt lat="42.8574" lon="2.23889">
        <ele>386.24</ele>
        <time>2026-06-03T14:31:46.377899051Z</time>
      </trkpt>
      <trkpt lat="42.85737" lon="2.23894">
        <ele>386.24</ele>
        <time>2026-06-03T14:31:47.389140010Z</time>
      </trkpt>
      <trkpt lat="42.85735" lon="2.23896">
        <ele>386.56</ele>
        <time>2026-06-03T14:31:48.362231970Z</time>
      </trkpt>
      <trkpt lat="42.85733" lon="2.23898">
        <ele>386.75</ele>
        <time>2026-06-03T14:31:49.387912035Z</time>
      </trkpt>
      <trkpt lat="42.8573" lon="2.239">
        <ele>386.95</ele>
        <time>2026-06-03T14:31:50.413004041Z</time>
      </trkpt>
      <trkpt lat="42.85728" lon="2.23902">
        <ele>387.15</ele>
        <time>2026-06-03T14:31:51.393394947Z</time>
      </trkpt>
      <trkpt lat="42.85726" lon="2.23904">
        <ele>387.34</ele>
        <time>2026-06-03T14:31:52.382946014Z</time>
      </trkpt>
      <trkpt lat="42.85723" lon="2.23906">
        <ele>387.53</ele>
        <time>2026-06-03T14:31:53.396574020Z</time>
      </trkpt>
      <trkpt lat="42.85721" lon="2.23909">
        <ele>387.75</ele>
        <time>2026-06-03T14:31:54.394937038Z</time>
      </trkpt>
      <trkpt lat="42.85719" lon="2.23911">
        <ele>387.97</ele>
        <time>2026-06-03T14:31:55.592046976Z</time>
      </trkpt>
      <trkpt lat="42.85716" lon="2.23913">
        <ele>388.2</ele>
        <time>2026-06-03T14:31:56.411113977Z</time>
      </trkpt>
      <trkpt lat="42.85714" lon="2.23916">
        <ele>388.44</ele>
        <time>2026-06-03T14:31:57.393344998Z</time>
      </trkpt>
      <trkpt lat="42.85712" lon="2.23919">
        <ele>388.68</ele>
        <time>2026-06-03T14:31:58.398702025Z</time>
      </trkpt>
      <trkpt lat="42.85711" lon="2.23922">
        <ele>388.97</ele>
        <time>2026-06-03T14:31:59.403357029Z</time>
      </trkpt>
      <trkpt lat="42.85709" lon="2.23924">
        <ele>389.25</ele>
        <time>2026-06-03T14:32:00.399391055Z</time>
      </trkpt>
      <trkpt lat="42.85707" lon="2.23927">
        <ele>389.54</ele>
        <time>2026-06-03T14:32:01.413988948Z</time>
      </trkpt>
      <trkpt lat="42.85705" lon="2.2393">
        <ele>389.83</ele>
        <time>2026-06-03T14:32:02.403695941Z</time>
      </trkpt>
      <trkpt lat="42.85704" lon="2.23932">
        <ele>390.13</ele>
        <time>2026-06-03T14:32:03.393571019Z</time>
      </trkpt>
      <trkpt lat="42.85702" lon="2.23935">
        <ele>390.45</ele>
        <time>2026-06-03T14:32:04.405925989Z</time>
      </trkpt>
      <trkpt lat="42.85701" lon="2.23937">
        <ele>390.77</ele>
        <time>2026-06-03T14:32:05.406445026Z</time>
      </trkpt>
      <trkpt lat="42.85699" lon="2.23939">
        <ele>391.08</ele>
        <time>2026-06-03T14:32:06.406618953Z</time>
      </trkpt>
      <trkpt lat="42.85698" lon="2.23942">
        <ele>391.37</ele>
        <time>2026-06-03T14:32:07.421476007Z</time>
      </trkpt>
      <trkpt lat="42.85696" lon="2.23944">
        <ele>391.66</ele>
        <time>2026-06-03T14:32:08.432510018Z</time>
      </trkpt>
      <trkpt lat="42.85695" lon="2.23946">
        <ele>391.98</ele>
        <time>2026-06-03T14:32:09.411962986Z</time>
      </trkpt>
      <trkpt lat="42.85693" lon="2.23949">
        <ele>392.44</ele>
        <time>2026-06-03T14:32:10.620695949Z</time>
      </trkpt>
      <trkpt lat="42.85692" lon="2.23952">
        <ele>392.89</ele>
        <time>2026-06-03T14:32:11.415315032Z</time>
      </trkpt>
      <trkpt lat="42.8569" lon="2.23956">
        <ele>393.33</ele>
        <time>2026-06-03T14:32:12.413555026Z</time>
      </trkpt>
      <trkpt lat="42.8569" lon="2.23958">
        <ele>393.73</ele>
        <time>2026-06-03T14:32:13.713597059Z</time>
      </trkpt>
      <trkpt lat="42.85688" lon="2.2396">
        <ele>394.16</ele>
        <time>2026-06-03T14:32:14.403547049Z</time>
      </trkpt>
      <trkpt lat="42.85687" lon="2.23962">
        <ele>394.56</ele>
        <time>2026-06-03T14:32:15.417976975Z</time>
      </trkpt>
      <trkpt lat="42.85685" lon="2.23965">
        <ele>394.95</ele>
        <time>2026-06-03T14:32:16.443552017Z</time>
      </trkpt>
      <trkpt lat="42.85683" lon="2.23968">
        <ele>395.33</ele>
        <time>2026-06-03T14:32:17.419651031Z</time>
      </trkpt>
      <trkpt lat="42.85682" lon="2.23969">
        <ele>395.69</ele>
        <time>2026-06-03T14:32:18.723322034Z</time>
      </trkpt>
      <trkpt lat="42.8568" lon="2.23971">
        <ele>396.06</ele>
        <time>2026-06-03T14:32:19.623868942Z</time>
      </trkpt>
      <trkpt lat="42.85678" lon="2.23972">
        <ele>396.44</ele>
        <time>2026-06-03T14:32:20.404162049Z</time>
      </trkpt>
      <trkpt lat="42.85676" lon="2.23973">
        <ele>396.8</ele>
        <time>2026-06-03T14:32:21.367470980Z</time>
      </trkpt>
      <trkpt lat="42.85674" lon="2.23974">
        <ele>397.15</ele>
        <time>2026-06-03T14:32:22.443775058Z</time>
      </trkpt>
      <trkpt lat="42.85672" lon="2.23975">
        <ele>397.48</ele>
        <time>2026-06-03T14:32:23.426676989Z</time>
      </trkpt>
      <trkpt lat="42.8567" lon="2.23976">
        <ele>397.79</ele>
        <time>2026-06-03T14:32:24.484076977Z</time>
      </trkpt>
      <trkpt lat="42.85668" lon="2.23977">
        <ele>398.14</ele>
        <time>2026-06-03T14:32:25.713830948Z</time>
      </trkpt>
      <trkpt lat="42.85666" lon="2.23978">
        <ele>398.46</ele>
        <time>2026-06-03T14:32:26.410228014Z</time>
      </trkpt>
      <trkpt lat="42.85664" lon="2.23978">
        <ele>398.76</ele>
        <time>2026-06-03T14:32:27.420737982Z</time>
      </trkpt>
      <trkpt lat="42.85661" lon="2.23979">
        <ele>399.06</ele>
        <time>2026-06-03T14:32:28.743643045Z</time>
      </trkpt>
      <trkpt lat="42.85659" lon="2.2398">
        <ele>399.33</ele>
        <time>2026-06-03T14:32:29.523264050Z</time>
      </trkpt>
      <trkpt lat="42.85657" lon="2.2398">
        <ele>399.62</ele>
        <time>2026-06-03T14:32:30.432278991Z</time>
      </trkpt>
      <trkpt lat="42.85655" lon="2.23981">
        <ele>399.88</ele>
        <time>2026-06-03T14:32:31.447641969Z</time>
      </trkpt>
      <trkpt lat="42.85653" lon="2.23981">
        <ele>400.12</ele>
        <time>2026-06-03T14:32:32.449512959Z</time>
      </trkpt>
      <trkpt lat="42.85651" lon="2.23981">
        <ele>400.36</ele>
        <time>2026-06-03T14:32:33.513985038Z</time>
      </trkpt>
      <trkpt lat="42.85649" lon="2.2398">
        <ele>400.59</ele>
        <time>2026-06-03T14:32:34.683830976Z</time>
      </trkpt>
      <trkpt lat="42.85648" lon="2.23978">
        <ele>400.83</ele>
        <time>2026-06-03T14:32:35.703706980Z</time>
      </trkpt>
      <trkpt lat="42.85646" lon="2.23976">
        <ele>401.09</ele>
        <time>2026-06-03T14:32:36.634019971Z</time>
      </trkpt>
      <trkpt lat="42.85645" lon="2.23973">
        <ele>401.35</ele>
        <time>2026-06-03T14:32:37.477975965Z</time>
      </trkpt>
      <trkpt lat="42.85644" lon="2.23971">
        <ele>401.61</ele>
        <time>2026-06-03T14:32:38.524181962Z</time>
      </trkpt>
      <trkpt lat="42.85644" lon="2.23968">
        <ele>401.86</ele>
        <time>2026-06-03T14:32:39.546059966Z</time>
      </trkpt>
      <trkpt lat="42.85644" lon="2.23966">
        <ele>402.15</ele>
        <time>2026-06-03T14:32:40.444293976Z</time>
      </trkpt>
      <trkpt lat="42.85643" lon="2.23964">
        <ele>402.41</ele>
        <time>2026-06-03T14:32:41.442322016Z</time>
      </trkpt>
      <trkpt lat="42.85645" lon="2.23961">
        <ele>402.67</ele>
        <time>2026-06-03T14:32:42.444337010Z</time>
      </trkpt>
      <trkpt lat="42.85646" lon="2.23959">
        <ele>402.92</ele>
        <time>2026-06-03T14:32:43.713948965Z</time>
      </trkpt>
      <trkpt lat="42.85647" lon="2.23958">
        <ele>403.14</ele>
        <time>2026-06-03T14:32:44.524204016Z</time>
      </trkpt>
      <trkpt lat="42.85649" lon="2.23957">
        <ele>403.38</ele>
        <time>2026-06-03T14:32:45.394320965Z</time>
      </trkpt>
      <trkpt lat="42.8565" lon="2.23956">
        <ele>403.59</ele>
        <time>2026-06-03T14:32:46.449496031Z</time>
      </trkpt>
      <trkpt lat="42.85652" lon="2.23954">
        <ele>403.79</ele>
        <time>2026-06-03T14:32:47.525099993Z</time>
      </trkpt>
      <trkpt lat="42.85654" lon="2.23952">
        <ele>403.98</ele>
        <time>2026-06-03T14:32:48.424623013Z</time>
      </trkpt>
      <trkpt lat="42.85655" lon="2.23951">
        <ele>404.15</ele>
        <time>2026-06-03T14:32:49.564211011Z</time>
      </trkpt>
      <trkpt lat="42.85657" lon="2.23949">
        <ele>404.32</ele>
        <time>2026-06-03T14:32:50.404194951Z</time>
      </trkpt>
      <trkpt lat="42.85659" lon="2.23947">
        <ele>404.47</ele>
        <time>2026-06-03T14:32:51.514206052Z</time>
      </trkpt>
      <trkpt lat="42.85661" lon="2.23945">
        <ele>404.62</ele>
        <time>2026-06-03T14:32:52.504554033Z</time>
      </trkpt>
      <trkpt lat="42.85663" lon="2.23942">
        <ele>404.74</ele>
        <time>2026-06-03T14:32:53.386304021Z</time>
      </trkpt>
      <trkpt lat="42.85664" lon="2.2394">
        <ele>404.86</ele>
        <time>2026-06-03T14:32:54.394484997Z</time>
      </trkpt>
      <trkpt lat="42.85666" lon="2.23936">
        <ele>404.98</ele>
        <time>2026-06-03T14:32:55.396692038Z</time>
      </trkpt>
      <trkpt lat="42.85667" lon="2.23934">
        <ele>405.1</ele>
        <time>2026-06-03T14:32:56.404428005Z</time>
      </trkpt>
      <trkpt lat="42.85669" lon="2.23932">
        <ele>405.22</ele>
        <time>2026-06-03T14:32:57.572322965Z</time>
      </trkpt>
      <trkpt lat="42.8567" lon="2.23929">
        <ele>405.33</ele>
        <time>2026-06-03T14:32:58.415004015Z</time>
      </trkpt>
      <trkpt lat="42.85672" lon="2.23926">
        <ele>405.44</ele>
        <time>2026-06-03T14:32:59.424182057Z</time>
      </trkpt>
      <trkpt lat="42.85674" lon="2.23923">
        <ele>405.53</ele>
        <time>2026-06-03T14:33:00.394987941Z</time>
      </trkpt>
      <trkpt lat="42.85675" lon="2.23921">
        <ele>405.64</ele>
        <time>2026-06-03T14:33:01.406221032Z</time>
      </trkpt>
      <trkpt lat="42.85676" lon="2.23919">
        <ele>405.74</ele>
        <time>2026-06-03T14:33:02.556728959Z</time>
      </trkpt>
      <trkpt lat="42.85678" lon="2.23916">
        <ele>405.83</ele>
        <time>2026-06-03T14:33:03.416932940Z</time>
      </trkpt>
      <trkpt lat="42.85679" lon="2.23913">
        <ele>405.91</ele>
        <time>2026-06-03T14:33:04.476150036Z</time>
      </trkpt>
      <trkpt lat="42.85681" lon="2.23909">
        <ele>405.99</ele>
        <time>2026-06-03T14:33:05.418472052Z</time>
      </trkpt>
      <trkpt lat="42.85682" lon="2.23907">
        <ele>406.06</ele>
        <time>2026-06-03T14:33:06.604568005Z</time>
      </trkpt>
      <trkpt lat="42.85683" lon="2.23905">
        <ele>406.13</ele>
        <time>2026-06-03T14:33:07.629497051Z</time>
      </trkpt>
      <trkpt lat="42.85685" lon="2.23902">
        <ele>406.2</ele>
        <time>2026-06-03T14:33:08.352877021Z</time>
      </trkpt>
      <trkpt lat="42.85687" lon="2.23899">
        <ele>406.26</ele>
        <time>2026-06-03T14:33:09.394701958Z</time>
      </trkpt>
      <trkpt lat="42.85688" lon="2.23896">
        <ele>406.45</ele>
        <time>2026-06-03T14:33:10.413058043Z</time>
      </trkpt>
      <trkpt lat="42.8569" lon="2.23894">
        <ele>406.63</ele>
        <time>2026-06-03T14:33:11.629704952Z</time>
      </trkpt>
      <trkpt lat="42.85692" lon="2.23891">
        <ele>406.8</ele>
        <time>2026-06-03T14:33:12.484675050Z</time>
      </trkpt>
      <trkpt lat="42.85694" lon="2.23888">
        <ele>406.96</ele>
        <time>2026-06-03T14:33:13.385789037Z</time>
      </trkpt>
      <trkpt lat="42.85695" lon="2.23885">
        <ele>407.12</ele>
        <time>2026-06-03T14:33:14.554908037Z</time>
      </trkpt>
      <trkpt lat="42.85696" lon="2.23882">
        <ele>407.27</ele>
        <time>2026-06-03T14:33:15.604516029Z</time>
      </trkpt>
      <trkpt lat="42.85698" lon="2.23879">
        <ele>407.42</ele>
        <time>2026-06-03T14:33:16.404117942Z</time>
      </trkpt>
      <trkpt lat="42.85699" lon="2.23876">
        <ele>407.55</ele>
        <time>2026-06-03T14:33:17.456112981Z</time>
      </trkpt>
      <trkpt lat="42.857" lon="2.23872">
        <ele>407.67</ele>
        <time>2026-06-03T14:33:18.432083011Z</time>
      </trkpt>
      <trkpt lat="42.85701" lon="2.2387">
        <ele>407.78</ele>
        <time>2026-06-03T14:33:19.352396965Z</time>
      </trkpt>
      <trkpt lat="42.85702" lon="2.23866">
        <ele>407.9</ele>
        <time>2026-06-03T14:33:20.405061960Z</time>
      </trkpt>
      <trkpt lat="42.85703" lon="2.23863">
        <ele>408.04</ele>
        <time>2026-06-03T14:33:21.483983040Z</time>
      </trkpt>
      <trkpt lat="42.85704" lon="2.23861">
        <ele>408.18</ele>
        <time>2026-06-03T14:33:22.594020963Z</time>
      </trkpt>
      <trkpt lat="42.85704" lon="2.23858">
        <ele>408.32</ele>
        <time>2026-06-03T14:33:23.434872985Z</time>
      </trkpt>
      <trkpt lat="42.85705" lon="2.23854">
        <ele>408.46</ele>
        <time>2026-06-03T14:33:24.367104053Z</time>
      </trkpt>
      <trkpt lat="42.85706" lon="2.23851">
        <ele>408.6</ele>
        <time>2026-06-03T14:33:25.398601055Z</time>
      </trkpt>
      <trkpt lat="42.85706" lon="2.23848">
        <ele>408.74</ele>
        <time>2026-06-03T14:33:26.410047054Z</time>
      </trkpt>
      <trkpt lat="42.85706" lon="2.23844">
        <ele>408.93</ele>
        <time>2026-06-03T14:33:27.381798029Z</time>
      </trkpt>
      <trkpt lat="42.85706" lon="2.23841">
        <ele>409.14</ele>
        <time>2026-06-03T14:33:28.404734969Z</time>
      </trkpt>
      <trkpt lat="42.85705" lon="2.23837">
        <ele>409.37</ele>
        <time>2026-06-03T14:33:29.349012017Z</time>
      </trkpt>
      <trkpt lat="42.85705" lon="2.23833">
        <ele>409.6</ele>
        <time>2026-06-03T14:33:30.399443984Z</time>
      </trkpt>
      <trkpt lat="42.85705" lon="2.23829">
        <ele>409.85</ele>
        <time>2026-06-03T14:33:31.355535030Z</time>
      </trkpt>
      <trkpt lat="42.85705" lon="2.23825">
        <ele>410.13</ele>
        <time>2026-06-03T14:33:32.405359983Z</time>
      </trkpt>
      <trkpt lat="42.85704" lon="2.23823">
        <ele>410.42</ele>
        <time>2026-06-03T14:33:33.412104011Z</time>
      </trkpt>
      <trkpt lat="42.85704" lon="2.23819">
        <ele>410.7</ele>
        <time>2026-06-03T14:33:34.428115010Z</time>
      </trkpt>
      <trkpt lat="42.85703" lon="2.23816">
        <ele>410.97</ele>
        <time>2026-06-03T14:33:35.405617952Z</time>
      </trkpt>
      <trkpt lat="42.85703" lon="2.23813">
        <ele>411.24</ele>
        <time>2026-06-03T14:33:36.395388961Z</time>
      </trkpt>
      <trkpt lat="42.85703" lon="2.2381">
        <ele>411.53</ele>
        <time>2026-06-03T14:33:37.474771023Z</time>
      </trkpt>
      <trkpt lat="42.85702" lon="2.23807">
        <ele>411.82</ele>
        <time>2026-06-03T14:33:38.435402036Z</time>
      </trkpt>
      <trkpt lat="42.857" lon="2.23804">
        <ele>412.1</ele>
        <time>2026-06-03T14:33:39.456820011Z</time>
      </trkpt>
      <trkpt lat="42.85698" lon="2.23802">
        <ele>412.36</ele>
        <time>2026-06-03T14:33:40.396559954Z</time>
      </trkpt>
      <trkpt lat="42.85696" lon="2.23799">
        <ele>412.63</ele>
        <time>2026-06-03T14:33:41.405660987Z</time>
      </trkpt>
      <trkpt lat="42.85695" lon="2.23797">
        <ele>412.93</ele>
        <time>2026-06-03T14:33:42.635277033Z</time>
      </trkpt>
      <trkpt lat="42.85692" lon="2.23795">
        <ele>413.21</ele>
        <time>2026-06-03T14:33:43.385897994Z</time>
      </trkpt>
      <trkpt lat="42.8569" lon="2.23794">
        <ele>413.49</ele>
        <time>2026-06-03T14:33:44.430354953Z</time>
      </trkpt>
      <trkpt lat="42.85688" lon="2.23793">
        <ele>413.76</ele>
        <time>2026-06-03T14:33:45.410735011Z</time>
      </trkpt>
      <trkpt lat="42.85686" lon="2.23793">
        <ele>414.03</ele>
        <time>2026-06-03T14:33:46.475322962Z</time>
      </trkpt>
      <trkpt lat="42.85684" lon="2.23793">
        <ele>414.33</ele>
        <time>2026-06-03T14:33:47.405475020Z</time>
      </trkpt>
      <trkpt lat="42.85682" lon="2.23794">
        <ele>414.63</ele>
        <time>2026-06-03T14:33:48.365592003Z</time>
      </trkpt>
      <trkpt lat="42.8568" lon="2.23794">
        <ele>414.93</ele>
        <time>2026-06-03T14:33:49.513959050Z</time>
      </trkpt>
      <trkpt lat="42.85678" lon="2.23795">
        <ele>415.24</ele>
        <time>2026-06-03T14:33:50.404827952Z</time>
      </trkpt>
      <trkpt lat="42.85677" lon="2.23796">
        <ele>415.54</ele>
        <time>2026-06-03T14:33:51.547492027Z</time>
      </trkpt>
      <trkpt lat="42.85675" lon="2.23798">
        <ele>415.88</ele>
        <time>2026-06-03T14:33:52.385728002Z</time>
      </trkpt>
      <trkpt lat="42.85673" lon="2.238">
        <ele>416.21</ele>
        <time>2026-06-03T14:33:53.405745029Z</time>
      </trkpt>
      <trkpt lat="42.85672" lon="2.238">
        <ele>416.53</ele>
        <time>2026-06-03T14:33:54.532367945Z</time>
      </trkpt>
      <trkpt lat="42.8567" lon="2.23802">
        <ele>416.82</ele>
        <time>2026-06-03T14:33:55.375560999Z</time>
      </trkpt>
      <trkpt lat="42.85669" lon="2.23803">
        <ele>417.11</ele>
        <time>2026-06-03T14:33:56.765692949Z</time>
      </trkpt>
      <trkpt lat="42.85667" lon="2.23804">
        <ele>417.39</ele>
        <time>2026-06-03T14:33:57.605456948Z</time>
      </trkpt>
      <trkpt lat="42.85665" lon="2.23806">
        <ele>417.71</ele>
        <time>2026-06-03T14:33:58.717841983Z</time>
      </trkpt>
      <trkpt lat="42.85663" lon="2.23807">
        <ele>418.01</ele>
        <time>2026-06-03T14:33:59.405805945Z</time>
      </trkpt>
      <trkpt lat="42.85662" lon="2.23809">
        <ele>418.31</ele>
        <time>2026-06-03T14:34:00.394171Z</time>
      </trkpt>
      <trkpt lat="42.8566" lon="2.2381">
        <ele>418.6</ele>
        <time>2026-06-03T14:34:01.386255980Z</time>
      </trkpt>
      <trkpt lat="42.85659" lon="2.23811">
        <ele>418.89</ele>
        <time>2026-06-03T14:34:02.407526016Z</time>
      </trkpt>
      <trkpt lat="42.85657" lon="2.23812">
        <ele>419.19</ele>
        <time>2026-06-03T14:34:03.485571027Z</time>
      </trkpt>
      <trkpt lat="42.85656" lon="2.23814">
        <ele>419.49</ele>
        <time>2026-06-03T14:34:04.366675973Z</time>
      </trkpt>
      <trkpt lat="42.85654" lon="2.23815">
        <ele>419.78</ele>
        <time>2026-06-03T14:34:05.405845046Z</time>
      </trkpt>
      <trkpt lat="42.85653" lon="2.23817">
        <ele>420.07</ele>
        <time>2026-06-03T14:34:06.380383015Z</time>
      </trkpt>
      <trkpt lat="42.85651" lon="2.23819">
        <ele>420.34</ele>
        <time>2026-06-03T14:34:07.385218024Z</time>
      </trkpt>
      <trkpt lat="42.85649" lon="2.23821">
        <ele>420.64</ele>
        <time>2026-06-03T14:34:08.410693049Z</time>
      </trkpt>
      <trkpt lat="42.85647" lon="2.23822">
        <ele>420.93</ele>
        <time>2026-06-03T14:34:09.412402034Z</time>
      </trkpt>
      <trkpt lat="42.85646" lon="2.23824">
        <ele>421.29</ele>
        <time>2026-06-03T14:34:10.396775007Z</time>
      </trkpt>
      <trkpt lat="42.85644" lon="2.23825">
        <ele>421.63</ele>
        <time>2026-06-03T14:34:11.406414986Z</time>
      </trkpt>
      <trkpt lat="42.85642" lon="2.23827">
        <ele>421.94</ele>
        <time>2026-06-03T14:34:12.545789003Z</time>
      </trkpt>
      <trkpt lat="42.8564" lon="2.23827">
        <ele>422.26</ele>
        <time>2026-06-03T14:34:13.580350995Z</time>
      </trkpt>
      <trkpt lat="42.85639" lon="2.23828">
        <ele>422.58</ele>
        <time>2026-06-03T14:34:14.406311035Z</time>
      </trkpt>
      <trkpt lat="42.85637" lon="2.23829">
        <ele>422.88</ele>
        <time>2026-06-03T14:34:15.469753981Z</time>
      </trkpt>
      <trkpt lat="42.85635" lon="2.23831">
        <ele>423.17</ele>
        <time>2026-06-03T14:34:16.448997974Z</time>
      </trkpt>
      <trkpt lat="42.85631" lon="2.23833">
        <ele>423.74</ele>
        <time>2026-06-03T14:34:18.396204948Z</time>
      </trkpt>
      <trkpt lat="42.8563" lon="2.23833">
        <ele>424.02</ele>
        <time>2026-06-03T14:34:19.388098955Z</time>
      </trkpt>
      <trkpt lat="42.85628" lon="2.23835">
        <ele>424.3</ele>
        <time>2026-06-03T14:34:20.406350970Z</time>
      </trkpt>
      <trkpt lat="42.85627" lon="2.23835">
        <ele>424.3</ele>
        <time>2026-06-03T14:34:21.425425053Z</time>
      </trkpt>
      <trkpt lat="42.85625" lon="2.23836">
        <ele>424.84</ele>
        <time>2026-06-03T14:34:22.806252956Z</time>
      </trkpt>
      <trkpt lat="42.85623" lon="2.23836">
        <ele>424.84</ele>
        <time>2026-06-03T14:34:23.436499Z</time>
      </trkpt>
      <trkpt lat="42.85621" lon="2.23836">
        <ele>425.42</ele>
        <time>2026-06-03T14:34:24.443496943Z</time>
      </trkpt>
      <trkpt lat="42.85619" lon="2.23837">
        <ele>425.7</ele>
        <time>2026-06-03T14:34:25.398782015Z</time>
      </trkpt>
      <trkpt lat="42.85617" lon="2.23836">
        <ele>425.96</ele>
        <time>2026-06-03T14:34:26.366520047Z</time>
      </trkpt>
      <trkpt lat="42.85616" lon="2.23836">
        <ele>426.22</ele>
        <time>2026-06-03T14:34:27.366366982Z</time>
      </trkpt>
      <trkpt lat="42.85614" lon="2.23835">
        <ele>426.53</ele>
        <time>2026-06-03T14:34:28.463848948Z</time>
      </trkpt>
      <trkpt lat="42.85612" lon="2.23834">
        <ele>426.83</ele>
        <time>2026-06-03T14:34:29.435646057Z</time>
      </trkpt>
      <trkpt lat="42.85609" lon="2.23833">
        <ele>426.83</ele>
        <time>2026-06-03T14:34:30.395539999Z</time>
      </trkpt>
      <trkpt lat="42.85607" lon="2.23832">
        <ele>427.43</ele>
        <time>2026-06-03T14:34:31.387827039Z</time>
      </trkpt>
      <trkpt lat="42.85605" lon="2.23831">
        <ele>427.72</ele>
        <time>2026-06-03T14:34:32.406669021Z</time>
      </trkpt>
      <trkpt lat="42.85603" lon="2.2383">
        <ele>427.99</ele>
        <time>2026-06-03T14:34:33.368991017Z</time>
      </trkpt>
      <trkpt lat="42.85602" lon="2.2383">
        <ele>428.3</ele>
        <time>2026-06-03T14:34:34.716433048Z</time>
      </trkpt>
      <trkpt lat="42.856" lon="2.23829">
        <ele>428.61</ele>
        <time>2026-06-03T14:34:35.406543970Z</time>
      </trkpt>
      <trkpt lat="42.85598" lon="2.23828">
        <ele>428.61</ele>
        <time>2026-06-03T14:34:36.372107983Z</time>
      </trkpt>
      <trkpt lat="42.85596" lon="2.23828">
        <ele>429.19</ele>
        <time>2026-06-03T14:34:37.448150992Z</time>
      </trkpt>
      <trkpt lat="42.85595" lon="2.23827">
        <ele>429.47</ele>
        <time>2026-06-03T14:34:38.406553984Z</time>
      </trkpt>
      <trkpt lat="42.85593" lon="2.23826">
        <ele>429.78</ele>
        <time>2026-06-03T14:34:39.486875057Z</time>
      </trkpt>
      <trkpt lat="42.85592" lon="2.23825">
        <ele>430.07</ele>
        <time>2026-06-03T14:34:40.412755013Z</time>
      </trkpt>
      <trkpt lat="42.85589" lon="2.23824">
        <ele>430.34</ele>
        <time>2026-06-03T14:34:41.436069965Z</time>
      </trkpt>
      <trkpt lat="42.85587" lon="2.23823">
        <ele>430.6</ele>
        <time>2026-06-03T14:34:42.486740947Z</time>
      </trkpt>
      <trkpt lat="42.85585" lon="2.23822">
        <ele>430.85</ele>
        <time>2026-06-03T14:34:43.449612021Z</time>
      </trkpt>
      <trkpt lat="42.85583" lon="2.2382">
        <ele>431.13</ele>
        <time>2026-06-03T14:34:44.407040Z</time>
      </trkpt>
      <trkpt lat="42.85581" lon="2.2382">
        <ele>431.41</ele>
        <time>2026-06-03T14:34:45.380843997Z</time>
      </trkpt>
      <trkpt lat="42.85579" lon="2.23818">
        <ele>431.66</ele>
        <time>2026-06-03T14:34:46.392757058Z</time>
      </trkpt>
      <trkpt lat="42.85577" lon="2.23818">
        <ele>431.92</ele>
        <time>2026-06-03T14:34:47.406013966Z</time>
      </trkpt>
      <trkpt lat="42.85575" lon="2.23817">
        <ele>432.16</ele>
        <time>2026-06-03T14:34:48.396196008Z</time>
      </trkpt>
      <trkpt lat="42.85573" lon="2.23816">
        <ele>432.42</ele>
        <time>2026-06-03T14:34:49.380262971Z</time>
      </trkpt>
      <trkpt lat="42.85571" lon="2.23815">
        <ele>432.66</ele>
        <time>2026-06-03T14:34:50.432639003Z</time>
      </trkpt>
      <trkpt lat="42.85569" lon="2.23813">
        <ele>432.9</ele>
        <time>2026-06-03T14:34:51.492946982Z</time>
      </trkpt>
      <trkpt lat="42.85567" lon="2.23812">
        <ele>432.9</ele>
        <time>2026-06-03T14:34:52.447149992Z</time>
      </trkpt>
      <trkpt lat="42.85565" lon="2.23808">
        <ele>433.66</ele>
        <time>2026-06-03T14:34:54.636608005Z</time>
      </trkpt>
      <trkpt lat="42.85564" lon="2.23807">
        <ele>433.66</ele>
        <time>2026-06-03T14:34:55.507055998Z</time>
      </trkpt>
      <trkpt lat="42.85561" lon="2.23809">
        <ele>434.46</ele>
        <time>2026-06-03T14:34:57.425963998Z</time>
      </trkpt>
      <trkpt lat="42.85561" lon="2.2381">
        <ele>434.46</ele>
        <time>2026-06-03T14:34:58.460630059Z</time>
      </trkpt>
      <trkpt lat="42.85561" lon="2.23811">
        <ele>434.87</ele>
        <time>2026-06-03T14:34:59.437082052Z</time>
      </trkpt>
      <trkpt lat="42.85564" lon="2.23815">
        <ele>435.04</ele>
        <time>2026-06-03T14:35:13.596207976Z</time>
      </trkpt>
      <trkpt lat="42.85565" lon="2.23815">
        <ele>435.04</ele>
        <time>2026-06-03T14:35:14.647323966Z</time>
      </trkpt>
      <trkpt lat="42.85568" lon="2.23813">
        <ele>436.25</ele>
        <time>2026-06-03T14:35:16.447291970Z</time>
      </trkpt>
      <trkpt lat="42.85569" lon="2.23813">
        <ele>436.25</ele>
        <time>2026-06-03T14:35:17.407109022Z</time>
      </trkpt>
      <trkpt lat="42.85571" lon="2.23813">
        <ele>436.27</ele>
        <time>2026-06-03T14:35:18.607419014Z</time>
      </trkpt>
      <trkpt lat="42.85573" lon="2.23813">
        <ele>436.34</ele>
        <time>2026-06-03T14:35:19.627537966Z</time>
      </trkpt>
      <trkpt lat="42.85575" lon="2.23813">
        <ele>436.4</ele>
        <time>2026-06-03T14:35:20.557258010Z</time>
      </trkpt>
      <trkpt lat="42.85577" lon="2.23812">
        <ele>436.44</ele>
        <time>2026-06-03T14:35:21.373155951Z</time>
      </trkpt>
      <trkpt lat="42.8558" lon="2.23812">
        <ele>436.48</ele>
        <time>2026-06-03T14:35:22.447088957Z</time>
      </trkpt>
      <trkpt lat="42.85582" lon="2.23811">
        <ele>436.52</ele>
        <time>2026-06-03T14:35:23.467934012Z</time>
      </trkpt>
      <trkpt lat="42.85584" lon="2.23809">
        <ele>436.54</ele>
        <time>2026-06-03T14:35:24.367805004Z</time>
      </trkpt>
      <trkpt lat="42.85586" lon="2.23808">
        <ele>436.56</ele>
        <time>2026-06-03T14:35:25.627468944Z</time>
      </trkpt>
      <trkpt lat="42.85588" lon="2.23807">
        <ele>436.57</ele>
        <time>2026-06-03T14:35:26.467769980Z</time>
      </trkpt>
      <trkpt lat="42.8559" lon="2.23806">
        <ele>436.57</ele>
        <time>2026-06-03T14:35:27.606951952Z</time>
      </trkpt>
      <trkpt lat="42.85593" lon="2.23804">
        <ele>436.56</ele>
        <time>2026-06-03T14:35:28.386827946Z</time>
      </trkpt>
      <trkpt lat="42.85595" lon="2.23802">
        <ele>436.55</ele>
        <time>2026-06-03T14:35:29.647629976Z</time>
      </trkpt>
      <trkpt lat="42.85598" lon="2.238">
        <ele>436.53</ele>
        <time>2026-06-03T14:35:30.547345042Z</time>
      </trkpt>
      <trkpt lat="42.85601" lon="2.23797">
        <ele>436.52</ele>
        <time>2026-06-03T14:35:31.368239999Z</time>
      </trkpt>
      <trkpt lat="42.85603" lon="2.23794">
        <ele>436.5</ele>
        <time>2026-06-03T14:35:32.439124942Z</time>
      </trkpt>
      <trkpt lat="42.85605" lon="2.2379">
        <ele>436.49</ele>
        <time>2026-06-03T14:35:33.607696056Z</time>
      </trkpt>
      <trkpt lat="42.85608" lon="2.23787">
        <ele>436.47</ele>
        <time>2026-06-03T14:35:34.353934050Z</time>
      </trkpt>
      <trkpt lat="42.8561" lon="2.23783">
        <ele>436.43</ele>
        <time>2026-06-03T14:35:35.647634983Z</time>
      </trkpt>
      <trkpt lat="42.85613" lon="2.23778">
        <ele>436.39</ele>
        <time>2026-06-03T14:35:36.637760997Z</time>
      </trkpt>
      <trkpt lat="42.85616" lon="2.23773">
        <ele>436.34</ele>
        <time>2026-06-03T14:35:37.387513041Z</time>
      </trkpt>
      <trkpt lat="42.85618" lon="2.23768">
        <ele>436.27</ele>
        <time>2026-06-03T14:35:38.526402950Z</time>
      </trkpt>
      <trkpt lat="42.8562" lon="2.23762">
        <ele>436.2</ele>
        <time>2026-06-03T14:35:39.600424051Z</time>
      </trkpt>
      <trkpt lat="42.85624" lon="2.23757">
        <ele>436.11</ele>
        <time>2026-06-03T14:35:40.597473979Z</time>
      </trkpt>
      <trkpt lat="42.85627" lon="2.23752">
        <ele>436.01</ele>
        <time>2026-06-03T14:35:41.647796035Z</time>
      </trkpt>
      <trkpt lat="42.8563" lon="2.23747">
        <ele>435.9</ele>
        <time>2026-06-03T14:35:42.637716055Z</time>
      </trkpt>
      <trkpt lat="42.85633" lon="2.23741">
        <ele>435.78</ele>
        <time>2026-06-03T14:35:43.627665997Z</time>
      </trkpt>
      <trkpt lat="42.85636" lon="2.23735">
        <ele>435.65</ele>
        <time>2026-06-03T14:35:44.407582045Z</time>
      </trkpt>
      <trkpt lat="42.85639" lon="2.23729">
        <ele>435.51</ele>
        <time>2026-06-03T14:35:45.607741952Z</time>
      </trkpt>
      <trkpt lat="42.85642" lon="2.23723">
        <ele>435.37</ele>
        <time>2026-06-03T14:35:46.627923012Z</time>
      </trkpt>
      <trkpt lat="42.85645" lon="2.23718">
        <ele>435.24</ele>
        <time>2026-06-03T14:35:47.648056984Z</time>
      </trkpt>
      <trkpt lat="42.85648" lon="2.23712">
        <ele>435.12</ele>
        <time>2026-06-03T14:35:48.608132958Z</time>
      </trkpt>
      <trkpt lat="42.85652" lon="2.23707">
        <ele>435</ele>
        <time>2026-06-03T14:35:49.449460983Z</time>
      </trkpt>
      <trkpt lat="42.85655" lon="2.23701">
        <ele>434.89</ele>
        <time>2026-06-03T14:35:50.426823020Z</time>
      </trkpt>
      <trkpt lat="42.85658" lon="2.23695">
        <ele>434.78</ele>
        <time>2026-06-03T14:35:51.607846975Z</time>
      </trkpt>
      <trkpt lat="42.85662" lon="2.23689">
        <ele>434.67</ele>
        <time>2026-06-03T14:35:52.569489002Z</time>
      </trkpt>
      <trkpt lat="42.85666" lon="2.23682">
        <ele>434.58</ele>
        <time>2026-06-03T14:35:53.557278037Z</time>
      </trkpt>
      <trkpt lat="42.85669" lon="2.23676">
        <ele>434.47</ele>
        <time>2026-06-03T14:35:54.441684008Z</time>
      </trkpt>
      <trkpt lat="42.85672" lon="2.2367">
        <ele>434.35</ele>
        <time>2026-06-03T14:35:55.597890973Z</time>
      </trkpt>
      <trkpt lat="42.85676" lon="2.23664">
        <ele>434.23</ele>
        <time>2026-06-03T14:35:56.648182988Z</time>
      </trkpt>
      <trkpt lat="42.85679" lon="2.23657">
        <ele>434.11</ele>
        <time>2026-06-03T14:35:57.607928038Z</time>
      </trkpt>
      <trkpt lat="42.85682" lon="2.23651">
        <ele>433.99</ele>
        <time>2026-06-03T14:35:58.456405997Z</time>
      </trkpt>
      <trkpt lat="42.85686" lon="2.23644">
        <ele>433.86</ele>
        <time>2026-06-03T14:35:59.648226976Z</time>
      </trkpt>
      <trkpt lat="42.8569" lon="2.23637">
        <ele>433.71</ele>
        <time>2026-06-03T14:36:00.608062983Z</time>
      </trkpt>
      <trkpt lat="42.85693" lon="2.2363">
        <ele>433.58</ele>
        <time>2026-06-03T14:36:01.628298044Z</time>
      </trkpt>
      <trkpt lat="42.85697" lon="2.23623">
        <ele>433.43</ele>
        <time>2026-06-03T14:36:02.471382976Z</time>
      </trkpt>
      <trkpt lat="42.857" lon="2.23616">
        <ele>433.26</ele>
        <time>2026-06-03T14:36:03.608257055Z</time>
      </trkpt>
      <trkpt lat="42.85704" lon="2.23608">
        <ele>433.07</ele>
        <time>2026-06-03T14:36:04.628559947Z</time>
      </trkpt>
      <trkpt lat="42.85707" lon="2.23601">
        <ele>432.9</ele>
        <time>2026-06-03T14:36:05.648221016Z</time>
      </trkpt>
      <trkpt lat="42.85711" lon="2.23593">
        <ele>432.7</ele>
        <time>2026-06-03T14:36:06.486139059Z</time>
      </trkpt>
      <trkpt lat="42.85714" lon="2.23585">
        <ele>432.49</ele>
        <time>2026-06-03T14:36:07.598173976Z</time>
      </trkpt>
      <trkpt lat="42.85718" lon="2.23577">
        <ele>432.24</ele>
        <time>2026-06-03T14:36:08.648208976Z</time>
      </trkpt>
      <trkpt lat="42.85722" lon="2.23569">
        <ele>432.02</ele>
        <time>2026-06-03T14:36:09.638290048Z</time>
      </trkpt>
      <trkpt lat="42.85725" lon="2.23561">
        <ele>431.78</ele>
        <time>2026-06-03T14:36:10.501086950Z</time>
      </trkpt>
      <trkpt lat="42.85728" lon="2.23552">
        <ele>431.51</ele>
        <time>2026-06-03T14:36:11.647665024Z</time>
      </trkpt>
      <trkpt lat="42.85732" lon="2.23544">
        <ele>431.22</ele>
        <time>2026-06-03T14:36:12.607584953Z</time>
      </trkpt>
      <trkpt lat="42.85735" lon="2.23536">
        <ele>430.96</ele>
        <time>2026-06-03T14:36:13.598302007Z</time>
      </trkpt>
      <trkpt lat="42.85739" lon="2.23528">
        <ele>430.69</ele>
        <time>2026-06-03T14:36:14.515791059Z</time>
      </trkpt>
      <trkpt lat="42.85743" lon="2.2352">
        <ele>430.39</ele>
        <time>2026-06-03T14:36:15.638478041Z</time>
      </trkpt>
      <trkpt lat="42.85748" lon="2.23511">
        <ele>430.08</ele>
        <time>2026-06-03T14:36:16.628869057Z</time>
      </trkpt>
      <trkpt lat="42.85753" lon="2.23503">
        <ele>429.8</ele>
        <time>2026-06-03T14:36:17.648445964Z</time>
      </trkpt>
      <trkpt lat="42.85759" lon="2.23496">
        <ele>429.52</ele>
        <time>2026-06-03T14:36:18.428277969Z</time>
      </trkpt>
      <trkpt lat="42.85765" lon="2.23488">
        <ele>429.16</ele>
        <time>2026-06-03T14:36:19.449759007Z</time>
      </trkpt>
      <trkpt lat="42.85772" lon="2.23482">
        <ele>428.79</ele>
        <time>2026-06-03T14:36:20.431429982Z</time>
      </trkpt>
      <trkpt lat="42.85778" lon="2.23475">
        <ele>428.47</ele>
        <time>2026-06-03T14:36:21.488811016Z</time>
      </trkpt>
      <trkpt lat="42.85784" lon="2.23469">
        <ele>428.13</ele>
        <time>2026-06-03T14:36:22.450095057Z</time>
      </trkpt>
      <trkpt lat="42.85791" lon="2.23462">
        <ele>427.76</ele>
        <time>2026-06-03T14:36:23.408403039Z</time>
      </trkpt>
      <trkpt lat="42.85798" lon="2.23455">
        <ele>427.36</ele>
        <time>2026-06-03T14:36:24.427590013Z</time>
      </trkpt>
      <trkpt lat="42.85805" lon="2.23449">
        <ele>427.01</ele>
        <time>2026-06-03T14:36:25.478281975Z</time>
      </trkpt>
      <trkpt lat="42.85812" lon="2.23441">
        <ele>426.63</ele>
        <time>2026-06-03T14:36:26.438511014Z</time>
      </trkpt>
      <trkpt lat="42.85818" lon="2.23435">
        <ele>426.19</ele>
        <time>2026-06-03T14:36:27.488767028Z</time>
      </trkpt>
      <trkpt lat="42.85825" lon="2.23428">
        <ele>425.7</ele>
        <time>2026-06-03T14:36:28.508330941Z</time>
      </trkpt>
      <trkpt lat="42.85832" lon="2.2342">
        <ele>425.29</ele>
        <time>2026-06-03T14:36:29.528462052Z</time>
      </trkpt>
      <trkpt lat="42.85838" lon="2.23413">
        <ele>424.82</ele>
        <time>2026-06-03T14:36:30.518421054Z</time>
      </trkpt>
      <trkpt lat="42.85844" lon="2.23406">
        <ele>424.31</ele>
        <time>2026-06-03T14:36:31.628929019Z</time>
      </trkpt>
      <trkpt lat="42.85851" lon="2.23398">
        <ele>423.77</ele>
        <time>2026-06-03T14:36:32.648717999Z</time>
      </trkpt>
      <trkpt lat="42.85857" lon="2.2339">
        <ele>423.3</ele>
        <time>2026-06-03T14:36:33.608850002Z</time>
      </trkpt>
      <trkpt lat="42.85864" lon="2.23382">
        <ele>422.81</ele>
        <time>2026-06-03T14:36:34.580101013Z</time>
      </trkpt>
      <trkpt lat="42.8587" lon="2.23374">
        <ele>422.3</ele>
        <time>2026-06-03T14:36:35.588695049Z</time>
      </trkpt>
      <trkpt lat="42.85878" lon="2.23365">
        <ele>421.77</ele>
        <time>2026-06-03T14:36:36.639096975Z</time>
      </trkpt>
      <trkpt lat="42.85884" lon="2.23357">
        <ele>421.32</ele>
        <time>2026-06-03T14:36:37.628785968Z</time>
      </trkpt>
      <trkpt lat="42.85892" lon="2.23348">
        <ele>420.84</ele>
        <time>2026-06-03T14:36:38.594809055Z</time>
      </trkpt>
      <trkpt lat="42.85899" lon="2.23339">
        <ele>420.36</ele>
        <time>2026-06-03T14:36:39.398736954Z</time>
      </trkpt>
      <trkpt lat="42.85905" lon="2.2333">
        <ele>419.85</ele>
        <time>2026-06-03T14:36:40.395954013Z</time>
      </trkpt>
      <trkpt lat="42.85912" lon="2.23321">
        <ele>419.43</ele>
        <time>2026-06-03T14:36:41.411991Z</time>
      </trkpt>
      <trkpt lat="42.85919" lon="2.23312">
        <ele>418.98</ele>
        <time>2026-06-03T14:36:42.368854046Z</time>
      </trkpt>
      <trkpt lat="42.85925" lon="2.23303">
        <ele>418.51</ele>
        <time>2026-06-03T14:36:43.399387002Z</time>
      </trkpt>
      <trkpt lat="42.85932" lon="2.23294">
        <ele>417.98</ele>
        <time>2026-06-03T14:36:44.428645015Z</time>
      </trkpt>
      <trkpt lat="42.85939" lon="2.23284">
        <ele>417.54</ele>
        <time>2026-06-03T14:36:45.399899960Z</time>
      </trkpt>
      <trkpt lat="42.85945" lon="2.23275">
        <ele>417.03</ele>
        <time>2026-06-03T14:36:46.418928981Z</time>
      </trkpt>
      <trkpt lat="42.85952" lon="2.23265">
        <ele>416.45</ele>
        <time>2026-06-03T14:36:47.408879995Z</time>
      </trkpt>
      <trkpt lat="42.85958" lon="2.23256">
        <ele>415.79</ele>
        <time>2026-06-03T14:36:48.609017015Z</time>
      </trkpt>
      <trkpt lat="42.85964" lon="2.23246">
        <ele>415.22</ele>
        <time>2026-06-03T14:36:49.405428052Z</time>
      </trkpt>
      <trkpt lat="42.85971" lon="2.23237">
        <ele>414.57</ele>
        <time>2026-06-03T14:36:50.408105969Z</time>
      </trkpt>
      <trkpt lat="42.85977" lon="2.23228">
        <ele>413.85</ele>
        <time>2026-06-03T14:36:51.428290963Z</time>
      </trkpt>
      <trkpt lat="42.85983" lon="2.2322">
        <ele>413.07</ele>
        <time>2026-06-03T14:36:52.450335026Z</time>
      </trkpt>
      <trkpt lat="42.85989" lon="2.23211">
        <ele>412.42</ele>
        <time>2026-06-03T14:36:53.438253045Z</time>
      </trkpt>
      <trkpt lat="42.85995" lon="2.23203">
        <ele>411.73</ele>
        <time>2026-06-03T14:36:54.488651037Z</time>
      </trkpt>
      <trkpt lat="42.86002" lon="2.23194">
        <ele>411.03</ele>
        <time>2026-06-03T14:36:55.448075056Z</time>
      </trkpt>
      <trkpt lat="42.86008" lon="2.23186">
        <ele>410.31</ele>
        <time>2026-06-03T14:36:56.649255991Z</time>
      </trkpt>
      <trkpt lat="42.86014" lon="2.23177">
        <ele>409.71</ele>
        <time>2026-06-03T14:36:57.609091043Z</time>
      </trkpt>
      <trkpt lat="42.8602" lon="2.23168">
        <ele>409.07</ele>
        <time>2026-06-03T14:36:58.569098949Z</time>
      </trkpt>
      <trkpt lat="42.86025" lon="2.23158">
        <ele>408.41</ele>
        <time>2026-06-03T14:36:59.649662018Z</time>
      </trkpt>
      <trkpt lat="42.86029" lon="2.23148">
        <ele>407.71</ele>
        <time>2026-06-03T14:37:00.609132051Z</time>
      </trkpt>
      <trkpt lat="42.86031" lon="2.23138">
        <ele>407.13</ele>
        <time>2026-06-03T14:37:01.599578977Z</time>
      </trkpt>
      <trkpt lat="42.86032" lon="2.23124">
        <ele>406.54</ele>
        <time>2026-06-03T14:37:02.649688005Z</time>
      </trkpt>
      <trkpt lat="42.8603" lon="2.23113">
        <ele>405.96</ele>
        <time>2026-06-03T14:37:03.608386040Z</time>
      </trkpt>
      <trkpt lat="42.86028" lon="2.23102">
        <ele>405.41</ele>
        <time>2026-06-03T14:37:04.448297977Z</time>
      </trkpt>
      <trkpt lat="42.86024" lon="2.23092">
        <ele>404.95</ele>
        <time>2026-06-03T14:37:05.439069033Z</time>
      </trkpt>
      <trkpt lat="42.86021" lon="2.23083">
        <ele>404.5</ele>
        <time>2026-06-03T14:37:06.491778016Z</time>
      </trkpt>
      <trkpt lat="42.86016" lon="2.23073">
        <ele>404.03</ele>
        <time>2026-06-03T14:37:07.450984001Z</time>
      </trkpt>
      <trkpt lat="42.86012" lon="2.23063">
        <ele>403.54</ele>
        <time>2026-06-03T14:37:08.439795971Z</time>
      </trkpt>
      <trkpt lat="42.86008" lon="2.23053">
        <ele>403.12</ele>
        <time>2026-06-03T14:37:09.609627962Z</time>
      </trkpt>
      <trkpt lat="42.86006" lon="2.23042">
        <ele>402.68</ele>
        <time>2026-06-03T14:37:10.599331975Z</time>
      </trkpt>
      <trkpt lat="42.86004" lon="2.23031">
        <ele>402.19</ele>
        <time>2026-06-03T14:37:11.443837047Z</time>
      </trkpt>
      <trkpt lat="42.86003" lon="2.23019">
        <ele>401.67</ele>
        <time>2026-06-03T14:37:12.429342031Z</time>
      </trkpt>
      <trkpt lat="42.86002" lon="2.23008">
        <ele>401.24</ele>
        <time>2026-06-03T14:37:13.450824976Z</time>
      </trkpt>
      <trkpt lat="42.86003" lon="2.22996">
        <ele>400.77</ele>
        <time>2026-06-03T14:37:14.589365959Z</time>
      </trkpt>
      <trkpt lat="42.86005" lon="2.22985">
        <ele>400.29</ele>
        <time>2026-06-03T14:37:15.608526945Z</time>
      </trkpt>
      <trkpt lat="42.86007" lon="2.22974">
        <ele>399.88</ele>
        <time>2026-06-03T14:37:16.628815055Z</time>
      </trkpt>
      <trkpt lat="42.86009" lon="2.22963">
        <ele>399.44</ele>
        <time>2026-06-03T14:37:17.649909973Z</time>
      </trkpt>
      <trkpt lat="42.86012" lon="2.22953">
        <ele>398.96</ele>
        <time>2026-06-03T14:37:18.610715032Z</time>
      </trkpt>
      <trkpt lat="42.86014" lon="2.22945">
        <ele>398.31</ele>
        <time>2026-06-03T14:37:19.629526973Z</time>
      </trkpt>
      <trkpt lat="42.86017" lon="2.22937">
        <ele>397.75</ele>
        <time>2026-06-03T14:37:20.589714050Z</time>
      </trkpt>
      <trkpt lat="42.8602" lon="2.22929">
        <ele>397.18</ele>
        <time>2026-06-03T14:37:21.403699994Z</time>
      </trkpt>
      <trkpt lat="42.86022" lon="2.22921">
        <ele>396.62</ele>
        <time>2026-06-03T14:37:22.629603982Z</time>
      </trkpt>
      <trkpt lat="42.86024" lon="2.22914">
        <ele>396.06</ele>
        <time>2026-06-03T14:37:23.649638057Z</time>
      </trkpt>
      <trkpt lat="42.86026" lon="2.22907">
        <ele>395.59</ele>
        <time>2026-06-03T14:37:24.451380014Z</time>
      </trkpt>
      <trkpt lat="42.86028" lon="2.229">
        <ele>395.11</ele>
        <time>2026-06-03T14:37:25.418606997Z</time>
      </trkpt>
      <trkpt lat="42.8603" lon="2.22893">
        <ele>394.63</ele>
        <time>2026-06-03T14:37:26.371533036Z</time>
      </trkpt>
      <trkpt lat="42.86032" lon="2.22887">
        <ele>394.14</ele>
        <time>2026-06-03T14:37:27.430091977Z</time>
      </trkpt>
      <trkpt lat="42.86032" lon="2.22882">
        <ele>393.72</ele>
        <time>2026-06-03T14:37:28.450117946Z</time>
      </trkpt>
      <trkpt lat="42.86032" lon="2.22878">
        <ele>393.28</ele>
        <time>2026-06-03T14:37:29.358441949Z</time>
      </trkpt>
      <trkpt lat="42.86032" lon="2.22875">
        <ele>392.82</ele>
        <time>2026-06-03T14:37:30.428835034Z</time>
      </trkpt>
      <trkpt lat="42.86032" lon="2.22872">
        <ele>392.34</ele>
        <time>2026-06-03T14:37:31.450974941Z</time>
      </trkpt>
      <trkpt lat="42.86031" lon="2.22868">
        <ele>391.93</ele>
        <time>2026-06-03T14:37:32.529078007Z</time>
      </trkpt>
      <trkpt lat="42.86031" lon="2.22867">
        <ele>391.52</ele>
        <time>2026-06-03T14:37:33.449170947Z</time>
      </trkpt>
      <trkpt lat="42.8603" lon="2.22865">
        <ele>391.52</ele>
        <time>2026-06-03T14:37:34.509356976Z</time>
      </trkpt>
      <trkpt lat="42.8603" lon="2.22864">
        <ele>390.73</ele>
        <time>2026-06-03T14:37:35.589197993Z</time>
      </trkpt>
      <trkpt lat="42.86029" lon="2.22863">
        <ele>390.42</ele>
        <time>2026-06-03T14:37:36.550254941Z</time>
      </trkpt>
      <trkpt lat="42.86029" lon="2.2286">
        <ele>390.42</ele>
        <time>2026-06-03T14:37:37.453264952Z</time>
      </trkpt>
      <trkpt lat="42.86029" lon="2.22858">
        <ele>389.89</ele>
        <time>2026-06-03T14:37:38.529121995Z</time>
      </trkpt>
      <trkpt lat="42.86029" lon="2.22855">
        <ele>389.7</ele>
        <time>2026-06-03T14:37:39.550434947Z</time>
      </trkpt>
      <trkpt lat="42.86029" lon="2.22854">
        <ele>389.54</ele>
        <time>2026-06-03T14:37:40.450315952Z</time>
      </trkpt>
      <trkpt lat="42.86029" lon="2.22851">
        <ele>389.43</ele>
        <time>2026-06-03T14:37:41.429404020Z</time>
      </trkpt>
      <trkpt lat="42.86029" lon="2.22848">
        <ele>389.37</ele>
        <time>2026-06-03T14:37:42.381057024Z</time>
      </trkpt>
      <trkpt lat="42.86029" lon="2.22846">
        <ele>389.37</ele>
        <time>2026-06-03T14:37:43.389479995Z</time>
      </trkpt>
      <trkpt lat="42.86028" lon="2.22844">
        <ele>389.4</ele>
        <time>2026-06-03T14:37:44.589522004Z</time>
      </trkpt>
      <trkpt lat="42.86028" lon="2.22842">
        <ele>389.43</ele>
        <time>2026-06-03T14:37:45.429370999Z</time>
      </trkpt>
      <trkpt lat="42.86024" lon="2.22828">
        <ele>389.5</ele>
        <time>2026-06-03T14:37:46.466452003Z</time>
      </trkpt>
      <trkpt lat="42.86023" lon="2.22825">
        <ele>389.58</ele>
        <time>2026-06-03T14:37:47.469635010Z</time>
      </trkpt>
      <trkpt lat="42.86022" lon="2.22824">
        <ele>389.7</ele>
        <time>2026-06-03T14:37:48.609480023Z</time>
      </trkpt>
      <trkpt lat="42.86019" lon="2.2282">
        <ele>389.99</ele>
        <time>2026-06-03T14:37:50.442957997Z</time>
      </trkpt>
      <trkpt lat="42.86017" lon="2.22819">
        <ele>390.16</ele>
        <time>2026-06-03T14:37:51.490342021Z</time>
      </trkpt>
      <trkpt lat="42.86015" lon="2.22818">
        <ele>390.36</ele>
        <time>2026-06-03T14:37:52.580904961Z</time>
      </trkpt>
      <trkpt lat="42.86014" lon="2.22819">
        <ele>390.57</ele>
        <time>2026-06-03T14:37:53.353834033Z</time>
      </trkpt>
      <trkpt lat="42.86012" lon="2.22819">
        <ele>390.8</ele>
        <time>2026-06-03T14:37:54.610461950Z</time>
      </trkpt>
      <trkpt lat="42.8601" lon="2.22819">
        <ele>390.8</ele>
        <time>2026-06-03T14:37:55.397920966Z</time>
      </trkpt>
      <trkpt lat="42.86008" lon="2.2282">
        <ele>391.27</ele>
        <time>2026-06-03T14:37:56.353163004Z</time>
      </trkpt>
      <trkpt lat="42.86006" lon="2.22821">
        <ele>391.51</ele>
        <time>2026-06-03T14:37:57.388913989Z</time>
      </trkpt>
      <trkpt lat="42.86003" lon="2.22821">
        <ele>391.74</ele>
        <time>2026-06-03T14:37:58.511131048Z</time>
      </trkpt>
      <trkpt lat="42.86002" lon="2.22821">
        <ele>391.95</ele>
        <time>2026-06-03T14:37:59.378535032Z</time>
      </trkpt>
      <trkpt lat="42.85999" lon="2.22821">
        <ele>392.14</ele>
        <time>2026-06-03T14:38:00.550703049Z</time>
      </trkpt>
      <trkpt lat="42.85998" lon="2.2282">
        <ele>392.3</ele>
        <time>2026-06-03T14:38:01.451815009Z</time>
      </trkpt>
      <trkpt lat="42.85996" lon="2.22819">
        <ele>392.44</ele>
        <time>2026-06-03T14:38:02.650617957Z</time>
      </trkpt>
      <trkpt lat="42.85995" lon="2.22817">
        <ele>392.57</ele>
        <time>2026-06-03T14:38:03.370424986Z</time>
      </trkpt>
      <trkpt lat="42.85991" lon="2.22813">
        <ele>392.82</ele>
        <time>2026-06-03T14:38:05.448297977Z</time>
      </trkpt>
      <trkpt lat="42.8599" lon="2.22812">
        <ele>392.95</ele>
        <time>2026-06-03T14:38:06.370561957Z</time>
      </trkpt>
      <trkpt lat="42.85989" lon="2.2281">
        <ele>393.08</ele>
        <time>2026-06-03T14:38:07.454777002Z</time>
      </trkpt>
      <trkpt lat="42.85987" lon="2.22808">
        <ele>393.22</ele>
        <time>2026-06-03T14:38:08.650904059Z</time>
      </trkpt>
      <trkpt lat="42.85987" lon="2.22807">
        <ele>393.37</ele>
        <time>2026-06-03T14:38:09.412762046Z</time>
      </trkpt>
      <trkpt lat="42.85985" lon="2.22805">
        <ele>393.54</ele>
        <time>2026-06-03T14:38:10.397917986Z</time>
      </trkpt>
      <trkpt lat="42.85982" lon="2.22799">
        <ele>393.96</ele>
        <time>2026-06-03T14:38:12.429797053Z</time>
      </trkpt>
      <trkpt lat="42.85981" lon="2.22798">
        <ele>394.2</ele>
        <time>2026-06-03T14:38:13.629977942Z</time>
      </trkpt>
      <trkpt lat="42.8598" lon="2.22796">
        <ele>394.47</ele>
        <time>2026-06-03T14:38:14.470095992Z</time>
      </trkpt>
      <trkpt lat="42.85979" lon="2.22795">
        <ele>394.7</ele>
        <time>2026-06-03T14:38:15.370118022Z</time>
      </trkpt>
      <trkpt lat="42.85977" lon="2.22793">
        <ele>394.95</ele>
        <time>2026-06-03T14:38:16.390439034Z</time>
      </trkpt>
      <trkpt lat="42.85976" lon="2.22791">
        <ele>395.2</ele>
        <time>2026-06-03T14:38:17.590566993Z</time>
      </trkpt>
      <trkpt lat="42.85974" lon="2.22789">
        <ele>395.46</ele>
        <time>2026-06-03T14:38:18.371371984Z</time>
      </trkpt>
      <trkpt lat="42.85973" lon="2.22788">
        <ele>395.62</ele>
        <time>2026-06-03T14:38:19.629663944Z</time>
      </trkpt>
      <trkpt lat="42.85971" lon="2.22785">
        <ele>395.77</ele>
        <time>2026-06-03T14:38:20.454414964Z</time>
      </trkpt>
      <trkpt lat="42.85969" lon="2.22783">
        <ele>395.94</ele>
        <time>2026-06-03T14:38:21.372655988Z</time>
      </trkpt>
      <trkpt lat="42.85968" lon="2.22782">
        <ele>396.11</ele>
        <time>2026-06-03T14:38:22.601999998Z</time>
      </trkpt>
      <trkpt lat="42.85966" lon="2.22779">
        <ele>396.28</ele>
        <time>2026-06-03T14:38:23.650015950Z</time>
      </trkpt>
      <trkpt lat="42.85965" lon="2.22777">
        <ele>396.46</ele>
        <time>2026-06-03T14:38:24.370103002Z</time>
      </trkpt>
      <trkpt lat="42.85963" lon="2.22775">
        <ele>396.64</ele>
        <time>2026-06-03T14:38:25.393718958Z</time>
      </trkpt>
      <trkpt lat="42.85962" lon="2.22772">
        <ele>396.84</ele>
        <time>2026-06-03T14:38:26.470319033Z</time>
      </trkpt>
      <trkpt lat="42.8596" lon="2.2277">
        <ele>397.04</ele>
        <time>2026-06-03T14:38:27.369954944Z</time>
      </trkpt>
      <trkpt lat="42.85959" lon="2.22768">
        <ele>397.25</ele>
        <time>2026-06-03T14:38:28.429003954Z</time>
      </trkpt>
      <trkpt lat="42.85958" lon="2.22766">
        <ele>397.46</ele>
        <time>2026-06-03T14:38:29.651051044Z</time>
      </trkpt>
      <trkpt lat="42.85957" lon="2.22763">
        <ele>397.65</ele>
        <time>2026-06-03T14:38:30.394801974Z</time>
      </trkpt>
      <trkpt lat="42.85956" lon="2.22761">
        <ele>397.83</ele>
        <time>2026-06-03T14:38:31.453338027Z</time>
      </trkpt>
      <trkpt lat="42.85955" lon="2.22758">
        <ele>398.03</ele>
        <time>2026-06-03T14:38:32.590764999Z</time>
      </trkpt>
      <trkpt lat="42.85954" lon="2.22756">
        <ele>398.23</ele>
        <time>2026-06-03T14:38:33.610869050Z</time>
      </trkpt>
      <trkpt lat="42.85953" lon="2.22753">
        <ele>398.43</ele>
        <time>2026-06-03T14:38:34.428778052Z</time>
      </trkpt>
      <trkpt lat="42.85951" lon="2.22751">
        <ele>398.64</ele>
        <time>2026-06-03T14:38:35.469349980Z</time>
      </trkpt>
      <trkpt lat="42.85949" lon="2.22749">
        <ele>398.85</ele>
        <time>2026-06-03T14:38:36.379258037Z</time>
      </trkpt>
      <trkpt lat="42.85947" lon="2.22747">
        <ele>399.07</ele>
        <time>2026-06-03T14:38:37.607262015Z</time>
      </trkpt>
      <trkpt lat="42.85946" lon="2.22746">
        <ele>399.07</ele>
        <time>2026-06-03T14:38:38.351099968Z</time>
      </trkpt>
      <trkpt lat="42.85944" lon="2.22744">
        <ele>399.53</ele>
        <time>2026-06-03T14:38:39.611021042Z</time>
      </trkpt>
      <trkpt lat="42.85942" lon="2.22742">
        <ele>399.75</ele>
        <time>2026-06-03T14:38:40.452075005Z</time>
      </trkpt>
      <trkpt lat="42.85941" lon="2.2274">
        <ele>399.98</ele>
        <time>2026-06-03T14:38:41.356220961Z</time>
      </trkpt>
      <trkpt lat="42.85939" lon="2.22738">
        <ele>400.2</ele>
        <time>2026-06-03T14:38:42.462128043Z</time>
      </trkpt>
      <trkpt lat="42.85938" lon="2.22736">
        <ele>400.41</ele>
        <time>2026-06-03T14:38:43.367643952Z</time>
      </trkpt>
      <trkpt lat="42.85937" lon="2.22734">
        <ele>400.59</ele>
        <time>2026-06-03T14:38:44.354074001Z</time>
      </trkpt>
      <trkpt lat="42.85936" lon="2.22732">
        <ele>400.77</ele>
        <time>2026-06-03T14:38:45.370870948Z</time>
      </trkpt>
      <trkpt lat="42.85935" lon="2.22731">
        <ele>400.94</ele>
        <time>2026-06-03T14:38:46.390846014Z</time>
      </trkpt>
      <trkpt lat="42.85933" lon="2.22729">
        <ele>400.94</ele>
        <time>2026-06-03T14:38:47.417765021Z</time>
      </trkpt>
      <trkpt lat="42.85932" lon="2.22727">
        <ele>401.26</ele>
        <time>2026-06-03T14:38:48.491047025Z</time>
      </trkpt>
      <trkpt lat="42.85931" lon="2.22725">
        <ele>401.4</ele>
        <time>2026-06-03T14:38:49.390738964Z</time>
      </trkpt>
      <trkpt lat="42.85929" lon="2.22722">
        <ele>401.53</ele>
        <time>2026-06-03T14:38:50.411061049Z</time>
      </trkpt>
      <trkpt lat="42.85928" lon="2.2272">
        <ele>401.66</ele>
        <time>2026-06-03T14:38:51.548787951Z</time>
      </trkpt>
      <trkpt lat="42.85927" lon="2.22717">
        <ele>401.77</ele>
        <time>2026-06-03T14:38:52.391610980Z</time>
      </trkpt>
      <trkpt lat="42.85926" lon="2.22714">
        <ele>401.89</ele>
        <time>2026-06-03T14:38:53.378093004Z</time>
      </trkpt>
      <trkpt lat="42.85924" lon="2.22712">
        <ele>402.01</ele>
        <time>2026-06-03T14:38:54.398810983Z</time>
      </trkpt>
      <trkpt lat="42.85923" lon="2.22709">
        <ele>402.14</ele>
        <time>2026-06-03T14:38:55.631237984Z</time>
      </trkpt>
      <trkpt lat="42.85922" lon="2.22707">
        <ele>402.26</ele>
        <time>2026-06-03T14:38:56.591089964Z</time>
      </trkpt>
      <trkpt lat="42.85921" lon="2.22704">
        <ele>402.38</ele>
        <time>2026-06-03T14:38:57.370955944Z</time>
      </trkpt>
      <trkpt lat="42.8592" lon="2.22701">
        <ele>402.5</ele>
        <time>2026-06-03T14:38:58.412055969Z</time>
      </trkpt>
      <trkpt lat="42.85919" lon="2.22698">
        <ele>402.61</ele>
        <time>2026-06-03T14:38:59.472762942Z</time>
      </trkpt>
      <trkpt lat="42.85918" lon="2.22694">
        <ele>402.72</ele>
        <time>2026-06-03T14:39:00.398962975Z</time>
      </trkpt>
      <trkpt lat="42.85918" lon="2.22691">
        <ele>402.83</ele>
        <time>2026-06-03T14:39:01.351858974Z</time>
      </trkpt>
      <trkpt lat="42.85918" lon="2.22689">
        <ele>402.96</ele>
        <time>2026-06-03T14:39:02.378193974Z</time>
      </trkpt>
      <trkpt lat="42.85917" lon="2.22686">
        <ele>403.09</ele>
        <time>2026-06-03T14:39:03.332172036Z</time>
      </trkpt>
      <trkpt lat="42.85917" lon="2.22683">
        <ele>403.22</ele>
        <time>2026-06-03T14:39:04.331066012Z</time>
      </trkpt>
      <trkpt lat="42.85916" lon="2.22681">
        <ele>403.36</ele>
        <time>2026-06-03T14:39:05.479969978Z</time>
      </trkpt>
      <trkpt lat="42.85916" lon="2.22678">
        <ele>403.51</ele>
        <time>2026-06-03T14:39:06.431066036Z</time>
      </trkpt>
      <trkpt lat="42.85915" lon="2.22675">
        <ele>403.66</ele>
        <time>2026-06-03T14:39:07.570912004Z</time>
      </trkpt>
      <trkpt lat="42.85915" lon="2.22672">
        <ele>403.81</ele>
        <time>2026-06-03T14:39:08.354604959Z</time>
      </trkpt>
      <trkpt lat="42.85914" lon="2.22669">
        <ele>403.97</ele>
        <time>2026-06-03T14:39:09.491233945Z</time>
      </trkpt>
      <trkpt lat="42.85913" lon="2.22666">
        <ele>404.13</ele>
        <time>2026-06-03T14:39:10.397112012Z</time>
      </trkpt>
      <trkpt lat="42.85913" lon="2.22664">
        <ele>404.3</ele>
        <time>2026-06-03T14:39:11.591444969Z</time>
      </trkpt>
      <trkpt lat="42.85913" lon="2.22661">
        <ele>404.48</ele>
        <time>2026-06-03T14:39:12.371104956Z</time>
      </trkpt>
      <trkpt lat="42.85913" lon="2.22658">
        <ele>404.67</ele>
        <time>2026-06-03T14:39:13.357316971Z</time>
      </trkpt>
      <trkpt lat="42.85912" lon="2.22655">
        <ele>404.85</ele>
        <time>2026-06-03T14:39:14.331038952Z</time>
      </trkpt>
      <trkpt lat="42.85912" lon="2.22653">
        <ele>405.04</ele>
        <time>2026-06-03T14:39:15.414023995Z</time>
      </trkpt>
      <trkpt lat="42.85911" lon="2.22649">
        <ele>405.24</ele>
        <time>2026-06-03T14:39:16.391069055Z</time>
      </trkpt>
      <trkpt lat="42.85911" lon="2.22645">
        <ele>405.46</ele>
        <time>2026-06-03T14:39:17.651345015Z</time>
      </trkpt>
      <trkpt lat="42.8591" lon="2.22642">
        <ele>405.7</ele>
        <time>2026-06-03T14:39:18.491019964Z</time>
      </trkpt>
      <trkpt lat="42.8591" lon="2.2264">
        <ele>406.08</ele>
        <time>2026-06-03T14:39:19.391113997Z</time>
      </trkpt>
      <trkpt lat="42.8591" lon="2.22638">
        <ele>406.48</ele>
        <time>2026-06-03T14:39:20.485908985Z</time>
      </trkpt>
      <trkpt lat="42.8591" lon="2.22635">
        <ele>406.86</ele>
        <time>2026-06-03T14:39:21.383177996Z</time>
      </trkpt>
      <trkpt lat="42.85909" lon="2.22633">
        <ele>407.23</ele>
        <time>2026-06-03T14:39:22.631585956Z</time>
      </trkpt>
      <trkpt lat="42.85908" lon="2.2263">
        <ele>407.58</ele>
        <time>2026-06-03T14:39:23.591182947Z</time>
      </trkpt>
      <trkpt lat="42.85907" lon="2.22628">
        <ele>407.92</ele>
        <time>2026-06-03T14:39:24.371299028Z</time>
      </trkpt>
      <trkpt lat="42.85907" lon="2.22625">
        <ele>408.22</ele>
        <time>2026-06-03T14:39:25.411944032Z</time>
      </trkpt>
      <trkpt lat="42.85907" lon="2.22622">
        <ele>408.51</ele>
        <time>2026-06-03T14:39:26.471377969Z</time>
      </trkpt>
      <trkpt lat="42.85905" lon="2.22619">
        <ele>408.79</ele>
        <time>2026-06-03T14:39:27.611637950Z</time>
      </trkpt>
      <trkpt lat="42.85904" lon="2.22616">
        <ele>409.08</ele>
        <time>2026-06-03T14:39:28.451107025Z</time>
      </trkpt>
      <trkpt lat="42.85904" lon="2.22613">
        <ele>409.32</ele>
        <time>2026-06-03T14:39:29.470527053Z</time>
      </trkpt>
      <trkpt lat="42.85903" lon="2.22611">
        <ele>409.56</ele>
        <time>2026-06-03T14:39:30.411790013Z</time>
      </trkpt>
      <trkpt lat="42.85902" lon="2.22609">
        <ele>409.83</ele>
        <time>2026-06-03T14:39:31.631778002Z</time>
      </trkpt>
      <trkpt lat="42.859" lon="2.22606">
        <ele>410.11</ele>
        <time>2026-06-03T14:39:32.531625986Z</time>
      </trkpt>
      <trkpt lat="42.85899" lon="2.22602">
        <ele>410.4</ele>
        <time>2026-06-03T14:39:33.337983012Z</time>
      </trkpt>
      <trkpt lat="42.85898" lon="2.22599">
        <ele>410.71</ele>
        <time>2026-06-03T14:39:34.372706056Z</time>
      </trkpt>
      <trkpt lat="42.85897" lon="2.22597">
        <ele>411.05</ele>
        <time>2026-06-03T14:39:35.373226047Z</time>
      </trkpt>
      <trkpt lat="42.85896" lon="2.22595">
        <ele>411.41</ele>
        <time>2026-06-03T14:39:36.408632040Z</time>
      </trkpt>
      <trkpt lat="42.85895" lon="2.22593">
        <ele>411.78</ele>
        <time>2026-06-03T14:39:37.391669035Z</time>
      </trkpt>
      <trkpt lat="42.85893" lon="2.2259">
        <ele>412.18</ele>
        <time>2026-06-03T14:39:38.431790948Z</time>
      </trkpt>
      <trkpt lat="42.85892" lon="2.22587">
        <ele>412.6</ele>
        <time>2026-06-03T14:39:39.380715966Z</time>
      </trkpt>
      <trkpt lat="42.8589" lon="2.22585">
        <ele>413.04</ele>
        <time>2026-06-03T14:39:40.394328952Z</time>
      </trkpt>
      <trkpt lat="42.85888" lon="2.22582">
        <ele>413.48</ele>
        <time>2026-06-03T14:39:41.372457981Z</time>
      </trkpt>
      <trkpt lat="42.85888" lon="2.22581">
        <ele>413.93</ele>
        <time>2026-06-03T14:39:42.373536944Z</time>
      </trkpt>
      <trkpt lat="42.85886" lon="2.22579">
        <ele>414.37</ele>
        <time>2026-06-03T14:39:43.354362011Z</time>
      </trkpt>
      <trkpt lat="42.85885" lon="2.22577">
        <ele>414.74</ele>
        <time>2026-06-03T14:39:44.355309963Z</time>
      </trkpt>
      <trkpt lat="42.85883" lon="2.22574">
        <ele>415.11</ele>
        <time>2026-06-03T14:39:45.368831992Z</time>
      </trkpt>
      <trkpt lat="42.85881" lon="2.22573">
        <ele>415.49</ele>
        <time>2026-06-03T14:39:46.420431972Z</time>
      </trkpt>
      <trkpt lat="42.85879" lon="2.22571">
        <ele>415.88</ele>
        <time>2026-06-03T14:39:47.424407005Z</time>
      </trkpt>
      <trkpt lat="42.85877" lon="2.2257">
        <ele>416.28</ele>
        <time>2026-06-03T14:39:48.369341969Z</time>
      </trkpt>
      <trkpt lat="42.85876" lon="2.22568">
        <ele>416.69</ele>
        <time>2026-06-03T14:39:49.392132998Z</time>
      </trkpt>
      <trkpt lat="42.85874" lon="2.22567">
        <ele>417.1</ele>
        <time>2026-06-03T14:39:50.411787987Z</time>
      </trkpt>
      <trkpt lat="42.85872" lon="2.22565">
        <ele>417.51</ele>
        <time>2026-06-03T14:39:51.378023028Z</time>
      </trkpt>
      <trkpt lat="42.85871" lon="2.22564">
        <ele>417.92</ele>
        <time>2026-06-03T14:39:52.391962051Z</time>
      </trkpt>
      <trkpt lat="42.85869" lon="2.22562">
        <ele>418.32</ele>
        <time>2026-06-03T14:39:53.447885990Z</time>
      </trkpt>
      <trkpt lat="42.85867" lon="2.2256">
        <ele>418.7</ele>
        <time>2026-06-03T14:39:54.378208041Z</time>
      </trkpt>
      <trkpt lat="42.85865" lon="2.22559">
        <ele>419.06</ele>
        <time>2026-06-03T14:39:55.397387028Z</time>
      </trkpt>
      <trkpt lat="42.85863" lon="2.22557">
        <ele>419.42</ele>
        <time>2026-06-03T14:39:56.434425950Z</time>
      </trkpt>
      <trkpt lat="42.85862" lon="2.22555">
        <ele>419.76</ele>
        <time>2026-06-03T14:39:57.387490988Z</time>
      </trkpt>
      <trkpt lat="42.8586" lon="2.22554">
        <ele>420.09</ele>
        <time>2026-06-03T14:39:58.632482052Z</time>
      </trkpt>
      <trkpt lat="42.85858" lon="2.22552">
        <ele>420.37</ele>
        <time>2026-06-03T14:39:59.531980038Z</time>
      </trkpt>
      <trkpt lat="42.85856" lon="2.2255">
        <ele>420.64</ele>
        <time>2026-06-03T14:40:00.397451997Z</time>
      </trkpt>
      <trkpt lat="42.85855" lon="2.2255">
        <ele>420.91</ele>
        <time>2026-06-03T14:40:01.632289052Z</time>
      </trkpt>
      <trkpt lat="42.85853" lon="2.22548">
        <ele>421.15</ele>
        <time>2026-06-03T14:40:02.351690054Z</time>
      </trkpt>
      <trkpt lat="42.8585" lon="2.22546">
        <ele>421.38</ele>
        <time>2026-06-03T14:40:03.371943951Z</time>
      </trkpt>
      <trkpt lat="42.85848" lon="2.22545">
        <ele>421.59</ele>
        <time>2026-06-03T14:40:04.393754005Z</time>
      </trkpt>
      <trkpt lat="42.85847" lon="2.22544">
        <ele>421.78</ele>
        <time>2026-06-03T14:40:05.411337972Z</time>
      </trkpt>
      <trkpt lat="42.85844" lon="2.22543">
        <ele>421.97</ele>
        <time>2026-06-03T14:40:06.434767008Z</time>
      </trkpt>
      <trkpt lat="42.85843" lon="2.22541">
        <ele>422.15</ele>
        <time>2026-06-03T14:40:07.400490046Z</time>
      </trkpt>
      <trkpt lat="42.8584" lon="2.22539">
        <ele>422.33</ele>
        <time>2026-06-03T14:40:08.364382982Z</time>
      </trkpt>
      <trkpt lat="42.85839" lon="2.22537">
        <ele>422.51</ele>
        <time>2026-06-03T14:40:09.612450957Z</time>
      </trkpt>
      <trkpt lat="42.85837" lon="2.22536">
        <ele>422.69</ele>
        <time>2026-06-03T14:40:10.411046982Z</time>
      </trkpt>
      <trkpt lat="42.85835" lon="2.22533">
        <ele>422.86</ele>
        <time>2026-06-03T14:40:11.433987975Z</time>
      </trkpt>
      <trkpt lat="42.85833" lon="2.22532">
        <ele>423.04</ele>
        <time>2026-06-03T14:40:12.372656941Z</time>
      </trkpt>
      <trkpt lat="42.85831" lon="2.2253">
        <ele>423.2</ele>
        <time>2026-06-03T14:40:13.407567978Z</time>
      </trkpt>
      <trkpt lat="42.8583" lon="2.22528">
        <ele>423.34</ele>
        <time>2026-06-03T14:40:14.471732020Z</time>
      </trkpt>
      <trkpt lat="42.85828" lon="2.22526">
        <ele>423.49</ele>
        <time>2026-06-03T14:40:15.410905004Z</time>
      </trkpt>
      <trkpt lat="42.85826" lon="2.22524">
        <ele>423.64</ele>
        <time>2026-06-03T14:40:16.452517033Z</time>
      </trkpt>
      <trkpt lat="42.85824" lon="2.22523">
        <ele>423.79</ele>
        <time>2026-06-03T14:40:17.411821008Z</time>
      </trkpt>
      <trkpt lat="42.85822" lon="2.22521">
        <ele>423.95</ele>
        <time>2026-06-03T14:40:18.434723973Z</time>
      </trkpt>
      <trkpt lat="42.8582" lon="2.2252">
        <ele>424.25</ele>
        <time>2026-06-03T14:40:19.398571968Z</time>
      </trkpt>
      <trkpt lat="42.85818" lon="2.22518">
        <ele>424.53</ele>
        <time>2026-06-03T14:40:20.516798973Z</time>
      </trkpt>
      <trkpt lat="42.85815" lon="2.22517">
        <ele>424.82</ele>
        <time>2026-06-03T14:40:21.431789041Z</time>
      </trkpt>
      <trkpt lat="42.85814" lon="2.22515">
        <ele>425.09</ele>
        <time>2026-06-03T14:40:22.549576998Z</time>
      </trkpt>
      <trkpt lat="42.85811" lon="2.22514">
        <ele>425.34</ele>
        <time>2026-06-03T14:40:23.411792994Z</time>
      </trkpt>
      <trkpt lat="42.85809" lon="2.22513">
        <ele>425.58</ele>
        <time>2026-06-03T14:40:24.612166047Z</time>
      </trkpt>
      <trkpt lat="42.85807" lon="2.22511">
        <ele>425.82</ele>
        <time>2026-06-03T14:40:25.394428015Z</time>
      </trkpt>
      <trkpt lat="42.85804" lon="2.22509">
        <ele>426.04</ele>
        <time>2026-06-03T14:40:26.592496037Z</time>
      </trkpt>
      <trkpt lat="42.85802" lon="2.22508">
        <ele>426.25</ele>
        <time>2026-06-03T14:40:27.432541013Z</time>
      </trkpt>
      <trkpt lat="42.85801" lon="2.22507">
        <ele>426.46</ele>
        <time>2026-06-03T14:40:28.392971039Z</time>
      </trkpt>
      <trkpt lat="42.85799" lon="2.22506">
        <ele>426.64</ele>
        <time>2026-06-03T14:40:29.418442965Z</time>
      </trkpt>
      <trkpt lat="42.85796" lon="2.22504">
        <ele>426.81</ele>
        <time>2026-06-03T14:40:30.395035028Z</time>
      </trkpt>
      <trkpt lat="42.85794" lon="2.22503">
        <ele>426.97</ele>
        <time>2026-06-03T14:40:31.398818016Z</time>
      </trkpt>
      <trkpt lat="42.85792" lon="2.22502">
        <ele>427.13</ele>
        <time>2026-06-03T14:40:32.380650997Z</time>
      </trkpt>
      <trkpt lat="42.8579" lon="2.22502">
        <ele>427.29</ele>
        <time>2026-06-03T14:40:33.432497978Z</time>
      </trkpt>
      <trkpt lat="42.85788" lon="2.22501">
        <ele>427.45</ele>
        <time>2026-06-03T14:40:34.457985997Z</time>
      </trkpt>
      <trkpt lat="42.85786" lon="2.225">
        <ele>427.62</ele>
        <time>2026-06-03T14:40:35.532084942Z</time>
      </trkpt>
      <trkpt lat="42.85784" lon="2.22499">
        <ele>427.79</ele>
        <time>2026-06-03T14:40:36.372630954Z</time>
      </trkpt>
      <trkpt lat="42.85783" lon="2.22498">
        <ele>427.79</ele>
        <time>2026-06-03T14:40:37.435585976Z</time>
      </trkpt>
      <trkpt lat="42.85782" lon="2.22497">
        <ele>427.79</ele>
        <time>2026-06-03T14:40:38.412984967Z</time>
      </trkpt>
      <trkpt lat="42.85776" lon="2.2249">
        <ele>428.34</ele>
        <time>2026-06-03T14:40:46.452548027Z</time>
      </trkpt>
      <trkpt lat="42.85775" lon="2.22489">
        <ele>429.71</ele>
        <time>2026-06-03T14:40:50.412778020Z</time>
      </trkpt>
      <trkpt lat="42.85773" lon="2.22488">
        <ele>430.44</ele>
        <time>2026-06-03T14:40:53.719004035Z</time>
      </trkpt>
      <trkpt lat="42.85772" lon="2.22487">
        <ele>430.63</ele>
        <time>2026-06-03T14:40:55.392763019Z</time>
      </trkpt>
      <trkpt lat="42.8577" lon="2.22485">
        <ele>431.18</ele>
        <time>2026-06-03T14:41:00.432046056Z</time>
      </trkpt>
      <trkpt lat="42.85769" lon="2.22485">
        <ele>431.39</ele>
        <time>2026-06-03T14:41:02.412649035Z</time>
      </trkpt>
      <trkpt lat="42.85767" lon="2.22484">
        <ele>431.39</ele>
        <time>2026-06-03T14:41:04.392325044Z</time>
      </trkpt>
      <trkpt lat="42.85763" lon="2.22481">
        <ele>431.71</ele>
        <time>2026-06-03T14:41:15.433599949Z</time>
      </trkpt>
      <trkpt lat="42.8576" lon="2.22482">
        <ele>432.95</ele>
        <time>2026-06-03T14:41:22.453536034Z</time>
      </trkpt>
      <trkpt lat="42.8576" lon="2.22481">
        <ele>433.62</ele>
        <time>2026-06-03T14:41:23.642263055Z</time>
      </trkpt>
      <trkpt lat="42.85759" lon="2.22481">
        <ele>433.62</ele>
        <time>2026-06-03T14:41:25.393360972Z</time>
      </trkpt>
      <trkpt lat="42.85752" lon="2.22467">
        <ele>433.92</ele>
        <time>2026-06-03T14:41:56.354482055Z</time>
      </trkpt>
      <trkpt lat="42.85756" lon="2.22468">
        <ele>433.92</ele>
        <time>2026-06-03T14:42:03.373265982Z</time>
      </trkpt>
      <trkpt lat="42.85753" lon="2.22467">
        <ele>436.25</ele>
        <time>2026-06-03T14:42:05.416376948Z</time>
      </trkpt>
      <trkpt lat="42.85751" lon="2.22466">
        <ele>436.43</ele>
        <time>2026-06-03T14:42:07.355991006Z</time>
      </trkpt>
      <trkpt lat="42.85749" lon="2.22465">
        <ele>436.53</ele>
        <time>2026-06-03T14:42:08.414309978Z</time>
      </trkpt>
      <trkpt lat="42.85748" lon="2.22465">
        <ele>436.67</ele>
        <time>2026-06-03T14:42:09.438874006Z</time>
      </trkpt>
      <trkpt lat="42.85746" lon="2.22463">
        <ele>436.79</ele>
        <time>2026-06-03T14:42:10.394479990Z</time>
      </trkpt>
      <trkpt lat="42.85744" lon="2.22462">
        <ele>436.95</ele>
        <time>2026-06-03T14:42:11.534268975Z</time>
      </trkpt>
      <trkpt lat="42.85743" lon="2.22461">
        <ele>437.1</ele>
        <time>2026-06-03T14:42:12.434628963Z</time>
      </trkpt>
      <trkpt lat="42.85741" lon="2.22459">
        <ele>437.27</ele>
        <time>2026-06-03T14:42:13.364730954Z</time>
      </trkpt>
      <trkpt lat="42.85738" lon="2.22457">
        <ele>437.47</ele>
        <time>2026-06-03T14:42:14.418254018Z</time>
      </trkpt>
      <trkpt lat="42.85737" lon="2.22456">
        <ele>437.69</ele>
        <time>2026-06-03T14:42:15.434769988Z</time>
      </trkpt>
      <trkpt lat="42.85735" lon="2.22454">
        <ele>437.94</ele>
        <time>2026-06-03T14:42:16.414613008Z</time>
      </trkpt>
      <trkpt lat="42.85734" lon="2.22453">
        <ele>438.19</ele>
        <time>2026-06-03T14:42:17.474519968Z</time>
      </trkpt>
      <trkpt lat="42.85733" lon="2.22452">
        <ele>438.46</ele>
        <time>2026-06-03T14:42:18.434957981Z</time>
      </trkpt>
      <trkpt lat="42.85731" lon="2.22449">
        <ele>438.76</ele>
        <time>2026-06-03T14:42:19.454810023Z</time>
      </trkpt>
      <trkpt lat="42.85728" lon="2.22445">
        <ele>439.41</ele>
        <time>2026-06-03T14:42:21.374431968Z</time>
      </trkpt>
      <trkpt lat="42.85727" lon="2.22444">
        <ele>439.76</ele>
        <time>2026-06-03T14:42:22.394628048Z</time>
      </trkpt>
      <trkpt lat="42.85726" lon="2.22442">
        <ele>439.76</ele>
        <time>2026-06-03T14:42:23.414176941Z</time>
      </trkpt>
      <trkpt lat="42.85725" lon="2.2244">
        <ele>440.47</ele>
        <time>2026-06-03T14:42:24.434185982Z</time>
      </trkpt>
      <trkpt lat="42.85724" lon="2.22438">
        <ele>440.81</ele>
        <time>2026-06-03T14:42:25.640141010Z</time>
      </trkpt>
      <trkpt lat="42.85723" lon="2.22437">
        <ele>441.13</ele>
        <time>2026-06-03T14:42:26.443657994Z</time>
      </trkpt>
      <trkpt lat="42.85722" lon="2.22435">
        <ele>441.42</ele>
        <time>2026-06-03T14:42:27.433995962Z</time>
      </trkpt>
      <trkpt lat="42.8572" lon="2.22432">
        <ele>441.67</ele>
        <time>2026-06-03T14:42:28.456557035Z</time>
      </trkpt>
      <trkpt lat="42.85719" lon="2.2243">
        <ele>441.89</ele>
        <time>2026-06-03T14:42:29.474833012Z</time>
      </trkpt>
      <trkpt lat="42.85717" lon="2.22427">
        <ele>442.1</ele>
        <time>2026-06-03T14:42:30.434775949Z</time>
      </trkpt>
      <trkpt lat="42.85716" lon="2.22425">
        <ele>442.3</ele>
        <time>2026-06-03T14:42:31.456452966Z</time>
      </trkpt>
      <trkpt lat="42.85714" lon="2.22424">
        <ele>442.49</ele>
        <time>2026-06-03T14:42:32.834990978Z</time>
      </trkpt>
      <trkpt lat="42.85712" lon="2.22423">
        <ele>442.68</ele>
        <time>2026-06-03T14:42:33.381584048Z</time>
      </trkpt>
      <trkpt lat="42.85711" lon="2.22423">
        <ele>442.89</ele>
        <time>2026-06-03T14:42:34.455050945Z</time>
      </trkpt>
      <trkpt lat="42.85706" lon="2.22426">
        <ele>443.37</ele>
        <time>2026-06-03T14:42:36.374811053Z</time>
      </trkpt>
      <trkpt lat="42.85705" lon="2.22426">
        <ele>443.37</ele>
        <time>2026-06-03T14:42:37.455492973Z</time>
      </trkpt>
      <trkpt lat="42.85704" lon="2.22427">
        <ele>443.89</ele>
        <time>2026-06-03T14:42:38.478073001Z</time>
      </trkpt>
      <trkpt lat="42.85701" lon="2.22428">
        <ele>444.45</ele>
        <time>2026-06-03T14:42:40.456653953Z</time>
      </trkpt>
      <trkpt lat="42.85699" lon="2.22428">
        <ele>444.75</ele>
        <time>2026-06-03T14:42:41.390974045Z</time>
      </trkpt>
      <trkpt lat="42.85699" lon="2.22429">
        <ele>444.75</ele>
        <time>2026-06-03T14:42:42.450889945Z</time>
      </trkpt>
      <trkpt lat="42.85698" lon="2.2243">
        <ele>445.3</ele>
        <time>2026-06-03T14:42:43.455507040Z</time>
      </trkpt>
      <trkpt lat="42.85694" lon="2.22435">
        <ele>445.6</ele>
        <time>2026-06-03T14:42:49.454447031Z</time>
      </trkpt>
      <trkpt lat="42.85693" lon="2.22436">
        <ele>445.6</ele>
        <time>2026-06-03T14:42:50.415289998Z</time>
      </trkpt>
      <trkpt lat="42.85692" lon="2.22437">
        <ele>447.76</ele>
        <time>2026-06-03T14:42:51.440109968Z</time>
      </trkpt>
      <trkpt lat="42.85691" lon="2.22439">
        <ele>448.02</ele>
        <time>2026-06-03T14:42:52.356415033Z</time>
      </trkpt>
      <trkpt lat="42.8569" lon="2.22441">
        <ele>448.29</ele>
        <time>2026-06-03T14:42:53.415300965Z</time>
      </trkpt>
      <trkpt lat="42.85688" lon="2.22443">
        <ele>448.53</ele>
        <time>2026-06-03T14:42:54.435456991Z</time>
      </trkpt>
      <trkpt lat="42.85687" lon="2.22445">
        <ele>448.77</ele>
        <time>2026-06-03T14:42:55.455549955Z</time>
      </trkpt>
      <trkpt lat="42.85686" lon="2.22446">
        <ele>448.77</ele>
        <time>2026-06-03T14:42:56.386260033Z</time>
      </trkpt>
      <trkpt lat="42.85684" lon="2.22448">
        <ele>449.24</ele>
        <time>2026-06-03T14:42:57.425642014Z</time>
      </trkpt>
      <trkpt lat="42.85683" lon="2.2245">
        <ele>449.52</ele>
        <time>2026-06-03T14:42:58.395419955Z</time>
      </trkpt>
      <trkpt lat="42.85681" lon="2.22451">
        <ele>449.82</ele>
        <time>2026-06-03T14:42:59.415299058Z</time>
      </trkpt>
      <trkpt lat="42.8568" lon="2.22453">
        <ele>450.12</ele>
        <time>2026-06-03T14:43:00.435366035Z</time>
      </trkpt>
      <trkpt lat="42.85678" lon="2.22454">
        <ele>450.43</ele>
        <time>2026-06-03T14:43:01.457891941Z</time>
      </trkpt>
      <trkpt lat="42.85677" lon="2.22456">
        <ele>450.74</ele>
        <time>2026-06-03T14:43:02.475543976Z</time>
      </trkpt>
      <trkpt lat="42.85675" lon="2.22457">
        <ele>451.17</ele>
        <time>2026-06-03T14:43:03.434870958Z</time>
      </trkpt>
      <trkpt lat="42.85674" lon="2.22459">
        <ele>451.17</ele>
        <time>2026-06-03T14:43:04.355731010Z</time>
      </trkpt>
      <trkpt lat="42.85672" lon="2.2246">
        <ele>451.89</ele>
        <time>2026-06-03T14:43:05.415163040Z</time>
      </trkpt>
      <trkpt lat="42.8567" lon="2.22461">
        <ele>452.21</ele>
        <time>2026-06-03T14:43:06.345818043Z</time>
      </trkpt>
      <trkpt lat="42.85669" lon="2.22463">
        <ele>452.5</ele>
        <time>2026-06-03T14:43:07.395959020Z</time>
      </trkpt>
      <trkpt lat="42.85667" lon="2.22465">
        <ele>452.77</ele>
        <time>2026-06-03T14:43:08.421995997Z</time>
      </trkpt>
      <trkpt lat="42.85666" lon="2.22467">
        <ele>452.77</ele>
        <time>2026-06-03T14:43:09.376044989Z</time>
      </trkpt>
      <trkpt lat="42.85664" lon="2.22468">
        <ele>453.27</ele>
        <time>2026-06-03T14:43:10.455386996Z</time>
      </trkpt>
      <trkpt lat="42.85664" lon="2.2247">
        <ele>453.52</ele>
        <time>2026-06-03T14:43:11.384037018Z</time>
      </trkpt>
      <trkpt lat="42.85663" lon="2.22471">
        <ele>453.76</ele>
        <time>2026-06-03T14:43:12.436061025Z</time>
      </trkpt>
      <trkpt lat="42.85661" lon="2.22476">
        <ele>454.24</ele>
        <time>2026-06-03T14:43:14.477403045Z</time>
      </trkpt>
      <trkpt lat="42.85659" lon="2.22477">
        <ele>454.49</ele>
        <time>2026-06-03T14:43:15.344112039Z</time>
      </trkpt>
      <trkpt lat="42.85658" lon="2.22478">
        <ele>454.49</ele>
        <time>2026-06-03T14:43:16.363162994Z</time>
      </trkpt>
      <trkpt lat="42.85657" lon="2.22479">
        <ele>454.96</ele>
        <time>2026-06-03T14:43:17.417875051Z</time>
      </trkpt>
      <trkpt lat="42.85656" lon="2.2248">
        <ele>455.19</ele>
        <time>2026-06-03T14:43:18.435953021Z</time>
      </trkpt>
      <trkpt lat="42.85654" lon="2.22482">
        <ele>455.4</ele>
        <time>2026-06-03T14:43:19.377534986Z</time>
      </trkpt>
      <trkpt lat="42.85653" lon="2.22484">
        <ele>455.63</ele>
        <time>2026-06-03T14:43:20.388031960Z</time>
      </trkpt>
      <trkpt lat="42.85652" lon="2.22485">
        <ele>455.86</ele>
        <time>2026-06-03T14:43:21.386541009Z</time>
      </trkpt>
      <trkpt lat="42.8565" lon="2.22486">
        <ele>456.11</ele>
        <time>2026-06-03T14:43:22.457607031Z</time>
      </trkpt>
      <trkpt lat="42.85649" lon="2.22488">
        <ele>456.38</ele>
        <time>2026-06-03T14:43:23.475571036Z</time>
      </trkpt>
      <trkpt lat="42.85647" lon="2.2249">
        <ele>456.66</ele>
        <time>2026-06-03T14:43:24.436012983Z</time>
      </trkpt>
      <trkpt lat="42.85645" lon="2.22492">
        <ele>456.95</ele>
        <time>2026-06-03T14:43:25.375517011Z</time>
      </trkpt>
      <trkpt lat="42.85643" lon="2.22493">
        <ele>457.26</ele>
        <time>2026-06-03T14:43:26.398758054Z</time>
      </trkpt>
      <trkpt lat="42.85642" lon="2.22495">
        <ele>457.59</ele>
        <time>2026-06-03T14:43:27.408038020Z</time>
      </trkpt>
      <trkpt lat="42.85641" lon="2.22497">
        <ele>457.94</ele>
        <time>2026-06-03T14:43:28.395143032Z</time>
      </trkpt>
      <trkpt lat="42.8564" lon="2.22499">
        <ele>458.3</ele>
        <time>2026-06-03T14:43:29.394338965Z</time>
      </trkpt>
      <trkpt lat="42.85639" lon="2.22501">
        <ele>458.69</ele>
        <time>2026-06-03T14:43:30.435981989Z</time>
      </trkpt>
      <trkpt lat="42.85638" lon="2.22503">
        <ele>459.09</ele>
        <time>2026-06-03T14:43:31.457779050Z</time>
      </trkpt>
      <trkpt lat="42.85636" lon="2.22505">
        <ele>459.5</ele>
        <time>2026-06-03T14:43:32.395478964Z</time>
      </trkpt>
      <trkpt lat="42.85635" lon="2.22508">
        <ele>459.85</ele>
        <time>2026-06-03T14:43:33.411131978Z</time>
      </trkpt>
      <trkpt lat="42.85633" lon="2.2251">
        <ele>460.19</ele>
        <time>2026-06-03T14:43:34.396093965Z</time>
      </trkpt>
      <trkpt lat="42.85631" lon="2.22511">
        <ele>460.54</ele>
        <time>2026-06-03T14:43:35.478178024Z</time>
      </trkpt>
      <trkpt lat="42.8563" lon="2.22513">
        <ele>460.87</ele>
        <time>2026-06-03T14:43:36.436341047Z</time>
      </trkpt>
      <trkpt lat="42.85629" lon="2.22515">
        <ele>461.21</ele>
        <time>2026-06-03T14:43:37.458302975Z</time>
      </trkpt>
      <trkpt lat="42.85627" lon="2.22516">
        <ele>461.53</ele>
        <time>2026-06-03T14:43:38.444280028Z</time>
      </trkpt>
      <trkpt lat="42.85626" lon="2.22517">
        <ele>461.83</ele>
        <time>2026-06-03T14:43:39.498860002Z</time>
      </trkpt>
      <trkpt lat="42.85624" lon="2.22519">
        <ele>462.13</ele>
        <time>2026-06-03T14:43:40.396862984Z</time>
      </trkpt>
      <trkpt lat="42.85623" lon="2.22522">
        <ele>462.43</ele>
        <time>2026-06-03T14:43:41.383255005Z</time>
      </trkpt>
      <trkpt lat="42.85621" lon="2.22524">
        <ele>462.73</ele>
        <time>2026-06-03T14:43:42.402606964Z</time>
      </trkpt>
      <trkpt lat="42.8562" lon="2.22527">
        <ele>463.04</ele>
        <time>2026-06-03T14:43:43.416196942Z</time>
      </trkpt>
      <trkpt lat="42.85619" lon="2.22529">
        <ele>463.35</ele>
        <time>2026-06-03T14:43:44.475620031Z</time>
      </trkpt>
      <trkpt lat="42.85617" lon="2.22532">
        <ele>463.66</ele>
        <time>2026-06-03T14:43:45.366878986Z</time>
      </trkpt>
      <trkpt lat="42.85617" lon="2.22534">
        <ele>463.96</ele>
        <time>2026-06-03T14:43:46.458387971Z</time>
      </trkpt>
      <trkpt lat="42.85616" lon="2.22535">
        <ele>464.26</ele>
        <time>2026-06-03T14:43:47.384515047Z</time>
      </trkpt>
      <trkpt lat="42.85616" lon="2.22538">
        <ele>464.56</ele>
        <time>2026-06-03T14:43:48.436820984Z</time>
      </trkpt>
      <trkpt lat="42.85613" lon="2.22544">
        <ele>465.07</ele>
        <time>2026-06-03T14:43:50.442458034Z</time>
      </trkpt>
      <trkpt lat="42.85612" lon="2.22545">
        <ele>465.33</ele>
        <time>2026-06-03T14:43:51.436625957Z</time>
      </trkpt>
      <trkpt lat="42.85611" lon="2.22547">
        <ele>465.6</ele>
        <time>2026-06-03T14:43:52.456673026Z</time>
      </trkpt>
      <trkpt lat="42.85611" lon="2.22548">
        <ele>465.6</ele>
        <time>2026-06-03T14:43:53.366444945Z</time>
      </trkpt>
      <trkpt lat="42.8561" lon="2.2255">
        <ele>466.16</ele>
        <time>2026-06-03T14:43:54.436676979Z</time>
      </trkpt>
      <trkpt lat="42.85609" lon="2.22553">
        <ele>466.45</ele>
        <time>2026-06-03T14:43:55.456871033Z</time>
      </trkpt>
      <trkpt lat="42.85608" lon="2.22555">
        <ele>466.75</ele>
        <time>2026-06-03T14:43:56.378139019Z</time>
      </trkpt>
      <trkpt lat="42.85607" lon="2.22557">
        <ele>467.05</ele>
        <time>2026-06-03T14:43:57.436558008Z</time>
      </trkpt>
      <trkpt lat="42.85605" lon="2.22558">
        <ele>467.35</ele>
        <time>2026-06-03T14:43:58.458358049Z</time>
      </trkpt>
      <trkpt lat="42.85604" lon="2.2256">
        <ele>467.65</ele>
        <time>2026-06-03T14:43:59.386191010Z</time>
      </trkpt>
      <trkpt lat="42.85603" lon="2.22562">
        <ele>467.95</ele>
        <time>2026-06-03T14:44:00.436630011Z</time>
      </trkpt>
      <trkpt lat="42.85601" lon="2.22563">
        <ele>468.26</ele>
        <time>2026-06-03T14:44:01.456902981Z</time>
      </trkpt>
      <trkpt lat="42.85599" lon="2.22565">
        <ele>468.55</ele>
        <time>2026-06-03T14:44:02.442667961Z</time>
      </trkpt>
      <trkpt lat="42.85598" lon="2.22566">
        <ele>469.02</ele>
        <time>2026-06-03T14:44:03.443725944Z</time>
      </trkpt>
      <trkpt lat="42.85596" lon="2.22568">
        <ele>469.42</ele>
        <time>2026-06-03T14:44:04.456946969Z</time>
      </trkpt>
      <trkpt lat="42.85595" lon="2.2257">
        <ele>469.82</ele>
        <time>2026-06-03T14:44:05.417353034Z</time>
      </trkpt>
      <trkpt lat="42.85593" lon="2.22572">
        <ele>470.21</ele>
        <time>2026-06-03T14:44:06.407075047Z</time>
      </trkpt>
      <trkpt lat="42.85591" lon="2.22573">
        <ele>470.61</ele>
        <time>2026-06-03T14:44:07.397444963Z</time>
      </trkpt>
      <trkpt lat="42.8559" lon="2.22575">
        <ele>471.02</ele>
        <time>2026-06-03T14:44:08.376430988Z</time>
      </trkpt>
      <trkpt lat="42.85588" lon="2.22576">
        <ele>471.44</ele>
        <time>2026-06-03T14:44:09.454471946Z</time>
      </trkpt>
      <trkpt lat="42.85586" lon="2.22577">
        <ele>471.87</ele>
        <time>2026-06-03T14:44:10.457044005Z</time>
      </trkpt>
      <trkpt lat="42.85584" lon="2.22579">
        <ele>471.87</ele>
        <time>2026-06-03T14:44:11.362092972Z</time>
      </trkpt>
      <trkpt lat="42.85583" lon="2.22581">
        <ele>472.76</ele>
        <time>2026-06-03T14:44:12.497274041Z</time>
      </trkpt>
      <trkpt lat="42.85581" lon="2.22582">
        <ele>473.21</ele>
        <time>2026-06-03T14:44:13.458559990Z</time>
      </trkpt>
      <trkpt lat="42.85579" lon="2.22584">
        <ele>473.65</ele>
        <time>2026-06-03T14:44:14.364657998Z</time>
      </trkpt>
      <trkpt lat="42.85577" lon="2.22585">
        <ele>474.1</ele>
        <time>2026-06-03T14:44:15.437183022Z</time>
      </trkpt>
      <trkpt lat="42.85576" lon="2.22587">
        <ele>474.1</ele>
        <time>2026-06-03T14:44:16.364984035Z</time>
      </trkpt>
      <trkpt lat="42.85575" lon="2.22587">
        <ele>474.99</ele>
        <time>2026-06-03T14:44:17.417173028Z</time>
      </trkpt>
      <trkpt lat="42.85573" lon="2.22591">
        <ele>475.37</ele>
        <time>2026-06-03T14:44:25.456640005Z</time>
      </trkpt>
      <trkpt lat="42.85571" lon="2.22594">
        <ele>475.37</ele>
        <time>2026-06-03T14:44:37.456465006Z</time>
      </trkpt>
      <trkpt lat="42.8557" lon="2.22593">
        <ele>475.37</ele>
        <time>2026-06-03T14:44:38.358098030Z</time>
      </trkpt>
      <trkpt lat="42.85568" lon="2.22595">
        <ele>476.57</ele>
        <time>2026-06-03T14:44:41.478983045Z</time>
      </trkpt>
      <trkpt lat="42.85566" lon="2.22597">
        <ele>476.57</ele>
        <time>2026-06-03T14:44:44.359972954Z</time>
      </trkpt>
      <trkpt lat="42.85563" lon="2.22601">
        <ele>476.57</ele>
        <time>2026-06-03T14:44:52.457486033Z</time>
      </trkpt>
      <trkpt lat="42.8556" lon="2.22603">
        <ele>476.57</ele>
        <time>2026-06-03T14:44:53.417968035Z</time>
      </trkpt>
      <trkpt lat="42.8556" lon="2.22604">
        <ele>481.66</ele>
        <time>2026-06-03T14:44:54.407958031Z</time>
      </trkpt>
      <trkpt lat="42.85557" lon="2.22607">
        <ele>481.91</ele>
        <time>2026-06-03T14:44:56.425768018Z</time>
      </trkpt>
      <trkpt lat="42.85556" lon="2.22608">
        <ele>482.06</ele>
        <time>2026-06-03T14:44:57.376919031Z</time>
      </trkpt>
      <trkpt lat="42.85555" lon="2.22609">
        <ele>482.2</ele>
        <time>2026-06-03T14:44:58.427350998Z</time>
      </trkpt>
      <trkpt lat="42.85554" lon="2.2261">
        <ele>482.32</ele>
        <time>2026-06-03T14:44:59.417796016Z</time>
      </trkpt>
      <trkpt lat="42.85553" lon="2.22611">
        <ele>482.45</ele>
        <time>2026-06-03T14:45:00.407871962Z</time>
      </trkpt>
      <trkpt lat="42.85551" lon="2.22613">
        <ele>482.58</ele>
        <time>2026-06-03T14:45:01.398143053Z</time>
      </trkpt>
      <trkpt lat="42.8555" lon="2.22614">
        <ele>482.73</ele>
        <time>2026-06-03T14:45:02.419772029Z</time>
      </trkpt>
      <trkpt lat="42.85549" lon="2.22616">
        <ele>482.89</ele>
        <time>2026-06-03T14:45:03.381585956Z</time>
      </trkpt>
      <trkpt lat="42.85547" lon="2.22617">
        <ele>482.89</ele>
        <time>2026-06-03T14:45:04.376870036Z</time>
      </trkpt>
      <trkpt lat="42.85546" lon="2.22618">
        <ele>483.28</ele>
        <time>2026-06-03T14:45:05.417935967Z</time>
      </trkpt>
      <trkpt lat="42.85544" lon="2.22619">
        <ele>483.5</ele>
        <time>2026-06-03T14:45:06.408092022Z</time>
      </trkpt>
      <trkpt lat="42.85543" lon="2.22621">
        <ele>483.76</ele>
        <time>2026-06-03T14:45:07.446809053Z</time>
      </trkpt>
      <trkpt lat="42.85542" lon="2.22622">
        <ele>484.02</ele>
        <time>2026-06-03T14:45:08.405066967Z</time>
      </trkpt>
      <trkpt lat="42.8554" lon="2.22624">
        <ele>484.31</ele>
        <time>2026-06-03T14:45:09.408059001Z</time>
      </trkpt>
      <trkpt lat="42.85538" lon="2.22626">
        <ele>484.61</ele>
        <time>2026-06-03T14:45:10.428241014Z</time>
      </trkpt>
      <trkpt lat="42.85536" lon="2.22629">
        <ele>485.21</ele>
        <time>2026-06-03T14:45:12.445978999Z</time>
      </trkpt>
      <trkpt lat="42.85535" lon="2.2263">
        <ele>485.47</ele>
        <time>2026-06-03T14:45:13.397560Z</time>
      </trkpt>
      <trkpt lat="42.85534" lon="2.22631">
        <ele>485.73</ele>
        <time>2026-06-03T14:45:14.446504951Z</time>
      </trkpt>
      <trkpt lat="42.85533" lon="2.22633">
        <ele>485.98</ele>
        <time>2026-06-03T14:45:15.438519001Z</time>
      </trkpt>
      <trkpt lat="42.85532" lon="2.22634">
        <ele>485.98</ele>
        <time>2026-06-03T14:45:16.394961953Z</time>
      </trkpt>
      <trkpt lat="42.85531" lon="2.22636">
        <ele>486.61</ele>
        <time>2026-06-03T14:45:17.445727944Z</time>
      </trkpt>
      <trkpt lat="42.8553" lon="2.22637">
        <ele>486.61</ele>
        <time>2026-06-03T14:45:18.352604985Z</time>
      </trkpt>
      <trkpt lat="42.85528" lon="2.22638">
        <ele>487.32</ele>
        <time>2026-06-03T14:45:19.439911008Z</time>
      </trkpt>
      <trkpt lat="42.85527" lon="2.2264">
        <ele>487.32</ele>
        <time>2026-06-03T14:45:20.392369032Z</time>
      </trkpt>
      <trkpt lat="42.85525" lon="2.22642">
        <ele>487.93</ele>
        <time>2026-06-03T14:45:21.357159972Z</time>
      </trkpt>
      <trkpt lat="42.85523" lon="2.22644">
        <ele>488.19</ele>
        <time>2026-06-03T14:45:22.400009036Z</time>
      </trkpt>
      <trkpt lat="42.85521" lon="2.22646">
        <ele>488.42</ele>
        <time>2026-06-03T14:45:23.418377995Z</time>
      </trkpt>
      <trkpt lat="42.85519" lon="2.22647">
        <ele>488.64</ele>
        <time>2026-06-03T14:45:24.408180952Z</time>
      </trkpt>
      <trkpt lat="42.85517" lon="2.22648">
        <ele>488.84</ele>
        <time>2026-06-03T14:45:25.428549051Z</time>
      </trkpt>
      <trkpt lat="42.85515" lon="2.2265">
        <ele>489.03</ele>
        <time>2026-06-03T14:45:26.418411970Z</time>
      </trkpt>
      <trkpt lat="42.85513" lon="2.22652">
        <ele>489.22</ele>
        <time>2026-06-03T14:45:27.470150948Z</time>
      </trkpt>
      <trkpt lat="42.85511" lon="2.22653">
        <ele>489.41</ele>
        <time>2026-06-03T14:45:28.428771973Z</time>
      </trkpt>
      <trkpt lat="42.85509" lon="2.22655">
        <ele>489.58</ele>
        <time>2026-06-03T14:45:29.430850029Z</time>
      </trkpt>
      <trkpt lat="42.85508" lon="2.22656">
        <ele>489.76</ele>
        <time>2026-06-03T14:45:30.379539967Z</time>
      </trkpt>
      <trkpt lat="42.85503" lon="2.22659">
        <ele>490.15</ele>
        <time>2026-06-03T14:45:32.383270979Z</time>
      </trkpt>
      <trkpt lat="42.85501" lon="2.22661">
        <ele>490.37</ele>
        <time>2026-06-03T14:45:33.670075059Z</time>
      </trkpt>
      <trkpt lat="42.855" lon="2.22662">
        <ele>490.61</ele>
        <time>2026-06-03T14:45:34.369665980Z</time>
      </trkpt>
      <trkpt lat="42.85498" lon="2.22664">
        <ele>490.84</ele>
        <time>2026-06-03T14:45:35.389436960Z</time>
      </trkpt>
      <trkpt lat="42.85496" lon="2.22665">
        <ele>491.07</ele>
        <time>2026-06-03T14:45:36.357061028Z</time>
      </trkpt>
      <trkpt lat="42.85494" lon="2.22666">
        <ele>491.29</ele>
        <time>2026-06-03T14:45:37.461470008Z</time>
      </trkpt>
      <trkpt lat="42.85492" lon="2.22667">
        <ele>491.5</ele>
        <time>2026-06-03T14:45:38.418977976Z</time>
      </trkpt>
      <trkpt lat="42.8549" lon="2.22668">
        <ele>491.71</ele>
        <time>2026-06-03T14:45:39.388313055Z</time>
      </trkpt>
      <trkpt lat="42.85489" lon="2.2267">
        <ele>491.91</ele>
        <time>2026-06-03T14:45:40.398808002Z</time>
      </trkpt>
      <trkpt lat="42.85487" lon="2.22672">
        <ele>492.12</ele>
        <time>2026-06-03T14:45:41.419034004Z</time>
      </trkpt>
      <trkpt lat="42.85486" lon="2.22673">
        <ele>492.32</ele>
        <time>2026-06-03T14:45:42.409347057Z</time>
      </trkpt>
      <trkpt lat="42.85484" lon="2.22675">
        <ele>492.52</ele>
        <time>2026-06-03T14:45:43.455634952Z</time>
      </trkpt>
      <trkpt lat="42.85482" lon="2.22678">
        <ele>492.69</ele>
        <time>2026-06-03T14:45:44.433290958Z</time>
      </trkpt>
      <trkpt lat="42.8548" lon="2.22679">
        <ele>492.86</ele>
        <time>2026-06-03T14:45:45.411877036Z</time>
      </trkpt>
      <trkpt lat="42.85479" lon="2.22681">
        <ele>493.03</ele>
        <time>2026-06-03T14:45:46.431220055Z</time>
      </trkpt>
      <trkpt lat="42.85478" lon="2.22682">
        <ele>493.19</ele>
        <time>2026-06-03T14:45:47.419710040Z</time>
      </trkpt>
      <trkpt lat="42.85476" lon="2.22684">
        <ele>493.35</ele>
        <time>2026-06-03T14:45:48.378934026Z</time>
      </trkpt>
      <trkpt lat="42.85474" lon="2.22686">
        <ele>493.51</ele>
        <time>2026-06-03T14:45:49.456464052Z</time>
      </trkpt>
      <trkpt lat="42.85474" lon="2.22687">
        <ele>493.67</ele>
        <time>2026-06-03T14:45:50.418885946Z</time>
      </trkpt>
      <trkpt lat="42.85472" lon="2.22689">
        <ele>493.83</ele>
        <time>2026-06-03T14:45:51.409047961Z</time>
      </trkpt>
      <trkpt lat="42.85471" lon="2.22691">
        <ele>493.99</ele>
        <time>2026-06-03T14:45:52.382668018Z</time>
      </trkpt>
      <trkpt lat="42.85469" lon="2.22694">
        <ele>494.14</ele>
        <time>2026-06-03T14:45:53.426481962Z</time>
      </trkpt>
      <trkpt lat="42.85468" lon="2.22696">
        <ele>494.3</ele>
        <time>2026-06-03T14:45:54.453966022Z</time>
      </trkpt>
      <trkpt lat="42.85466" lon="2.22697">
        <ele>494.45</ele>
        <time>2026-06-03T14:45:55.374223948Z</time>
      </trkpt>
      <trkpt lat="42.85465" lon="2.227">
        <ele>494.59</ele>
        <time>2026-06-03T14:45:56.429111004Z</time>
      </trkpt>
      <trkpt lat="42.85463" lon="2.22702">
        <ele>494.74</ele>
        <time>2026-06-03T14:45:57.405218005Z</time>
      </trkpt>
      <trkpt lat="42.85461" lon="2.22703">
        <ele>494.87</ele>
        <time>2026-06-03T14:45:58.489066958Z</time>
      </trkpt>
      <trkpt lat="42.8546" lon="2.22705">
        <ele>494.99</ele>
        <time>2026-06-03T14:45:59.418974042Z</time>
      </trkpt>
      <trkpt lat="42.85458" lon="2.22707">
        <ele>495.1</ele>
        <time>2026-06-03T14:46:00.409044027Z</time>
      </trkpt>
      <trkpt lat="42.85456" lon="2.22709">
        <ele>495.21</ele>
        <time>2026-06-03T14:46:01.429198980Z</time>
      </trkpt>
      <trkpt lat="42.85456" lon="2.2271">
        <ele>495.31</ele>
        <time>2026-06-03T14:46:02.419515967Z</time>
      </trkpt>
      <trkpt lat="42.85454" lon="2.22711">
        <ele>495.39</ele>
        <time>2026-06-03T14:46:03.386121988Z</time>
      </trkpt>
      <trkpt lat="42.85452" lon="2.22713">
        <ele>495.46</ele>
        <time>2026-06-03T14:46:04.457494020Z</time>
      </trkpt>
      <trkpt lat="42.85451" lon="2.22714">
        <ele>495.51</ele>
        <time>2026-06-03T14:46:05.393468022Z</time>
      </trkpt>
      <trkpt lat="42.85449" lon="2.22717">
        <ele>495.56</ele>
        <time>2026-06-03T14:46:06.354864001Z</time>
      </trkpt>
      <trkpt lat="42.85447" lon="2.22718">
        <ele>495.61</ele>
        <time>2026-06-03T14:46:07.424939990Z</time>
      </trkpt>
      <trkpt lat="42.85444" lon="2.22721">
        <ele>495.67</ele>
        <time>2026-06-03T14:46:08.461045027Z</time>
      </trkpt>
      <trkpt lat="42.85442" lon="2.22722">
        <ele>495.74</ele>
        <time>2026-06-03T14:46:09.401983023Z</time>
      </trkpt>
      <trkpt lat="42.8544" lon="2.22724">
        <ele>495.81</ele>
        <time>2026-06-03T14:46:10.399288058Z</time>
      </trkpt>
      <trkpt lat="42.85438" lon="2.22725">
        <ele>495.9</ele>
        <time>2026-06-03T14:46:11.439937949Z</time>
      </trkpt>
      <trkpt lat="42.85435" lon="2.22727">
        <ele>496.01</ele>
        <time>2026-06-03T14:46:12.430194974Z</time>
      </trkpt>
      <trkpt lat="42.85433" lon="2.22728">
        <ele>496.12</ele>
        <time>2026-06-03T14:46:13.422075033Z</time>
      </trkpt>
      <trkpt lat="42.85431" lon="2.2273">
        <ele>496.22</ele>
        <time>2026-06-03T14:46:14.419275045Z</time>
      </trkpt>
      <trkpt lat="42.8543" lon="2.22732">
        <ele>496.34</ele>
        <time>2026-06-03T14:46:15.409345031Z</time>
      </trkpt>
      <trkpt lat="42.85428" lon="2.22733">
        <ele>496.48</ele>
        <time>2026-06-03T14:46:16.365695953Z</time>
      </trkpt>
      <trkpt lat="42.85427" lon="2.22735">
        <ele>496.74</ele>
        <time>2026-06-03T14:46:17.479398966Z</time>
      </trkpt>
      <trkpt lat="42.85425" lon="2.22737">
        <ele>497.02</ele>
        <time>2026-06-03T14:46:18.440704942Z</time>
      </trkpt>
      <trkpt lat="42.85424" lon="2.22739">
        <ele>497.31</ele>
        <time>2026-06-03T14:46:19.381852031Z</time>
      </trkpt>
      <trkpt lat="42.85422" lon="2.22742">
        <ele>497.59</ele>
        <time>2026-06-03T14:46:20.414888978Z</time>
      </trkpt>
      <trkpt lat="42.85421" lon="2.22744">
        <ele>497.87</ele>
        <time>2026-06-03T14:46:21.418936968Z</time>
      </trkpt>
      <trkpt lat="42.85419" lon="2.22746">
        <ele>498.15</ele>
        <time>2026-06-03T14:46:22.369871020Z</time>
      </trkpt>
      <trkpt lat="42.85418" lon="2.22748">
        <ele>498.42</ele>
        <time>2026-06-03T14:46:23.478718996Z</time>
      </trkpt>
      <trkpt lat="42.85417" lon="2.22749">
        <ele>498.69</ele>
        <time>2026-06-03T14:46:24.446313977Z</time>
      </trkpt>
      <trkpt lat="42.85416" lon="2.2275">
        <ele>498.96</ele>
        <time>2026-06-03T14:46:25.429021001Z</time>
      </trkpt>
      <trkpt lat="42.85414" lon="2.22752">
        <ele>499.23</ele>
        <time>2026-06-03T14:46:26.389297009Z</time>
      </trkpt>
      <trkpt lat="42.85412" lon="2.22753">
        <ele>499.5</ele>
        <time>2026-06-03T14:46:27.409451962Z</time>
      </trkpt>
      <trkpt lat="42.85408" lon="2.22755">
        <ele>499.98</ele>
        <time>2026-06-03T14:46:29.419592977Z</time>
      </trkpt>
      <trkpt lat="42.85406" lon="2.22755">
        <ele>500.2</ele>
        <time>2026-06-03T14:46:30.409937978Z</time>
      </trkpt>
      <trkpt lat="42.85405" lon="2.22755">
        <ele>500.4</ele>
        <time>2026-06-03T14:46:31.461806059Z</time>
      </trkpt>
      <trkpt lat="42.85403" lon="2.22756">
        <ele>500.6</ele>
        <time>2026-06-03T14:46:32.390341043Z</time>
      </trkpt>
      <trkpt lat="42.85402" lon="2.22757">
        <ele>500.78</ele>
        <time>2026-06-03T14:46:33.393157959Z</time>
      </trkpt>
      <trkpt lat="42.85399" lon="2.22758">
        <ele>500.97</ele>
        <time>2026-06-03T14:46:34.467340946Z</time>
      </trkpt>
      <trkpt lat="42.85397" lon="2.22759">
        <ele>501.17</ele>
        <time>2026-06-03T14:46:35.407336950Z</time>
      </trkpt>
      <trkpt lat="42.85396" lon="2.2276">
        <ele>501.38</ele>
        <time>2026-06-03T14:46:36.409132957Z</time>
      </trkpt>
      <trkpt lat="42.85394" lon="2.22761">
        <ele>501.6</ele>
        <time>2026-06-03T14:46:37.379340053Z</time>
      </trkpt>
      <trkpt lat="42.85392" lon="2.22762">
        <ele>501.84</ele>
        <time>2026-06-03T14:46:38.480080962Z</time>
      </trkpt>
      <trkpt lat="42.85389" lon="2.22764">
        <ele>502.08</ele>
        <time>2026-06-03T14:46:39.404943943Z</time>
      </trkpt>
      <trkpt lat="42.85387" lon="2.22765">
        <ele>502.31</ele>
        <time>2026-06-03T14:46:40.409672976Z</time>
      </trkpt>
      <trkpt lat="42.85386" lon="2.22765">
        <ele>502.55</ele>
        <time>2026-06-03T14:46:41.433009028Z</time>
      </trkpt>
      <trkpt lat="42.85384" lon="2.22766">
        <ele>502.79</ele>
        <time>2026-06-03T14:46:42.409834981Z</time>
      </trkpt>
      <trkpt lat="42.85383" lon="2.22767">
        <ele>503.03</ele>
        <time>2026-06-03T14:46:43.490236044Z</time>
      </trkpt>
      <trkpt lat="42.85381" lon="2.22767">
        <ele>503.23</ele>
        <time>2026-06-03T14:46:44.389278054Z</time>
      </trkpt>
      <trkpt lat="42.85379" lon="2.22767">
        <ele>503.42</ele>
        <time>2026-06-03T14:46:45.380578995Z</time>
      </trkpt>
      <trkpt lat="42.85378" lon="2.22768">
        <ele>503.6</ele>
        <time>2026-06-03T14:46:46.429991961Z</time>
      </trkpt>
      <trkpt lat="42.85376" lon="2.22768">
        <ele>503.79</ele>
        <time>2026-06-03T14:46:47.387866974Z</time>
      </trkpt>
      <trkpt lat="42.85374" lon="2.22768">
        <ele>503.98</ele>
        <time>2026-06-03T14:46:48.410204053Z</time>
      </trkpt>
      <trkpt lat="42.85371" lon="2.22768">
        <ele>504.18</ele>
        <time>2026-06-03T14:46:49.471883059Z</time>
      </trkpt>
      <trkpt lat="42.85369" lon="2.22768">
        <ele>504.38</ele>
        <time>2026-06-03T14:46:50.393100023Z</time>
      </trkpt>
      <trkpt lat="42.85366" lon="2.22769">
        <ele>504.59</ele>
        <time>2026-06-03T14:46:51.377508998Z</time>
      </trkpt>
      <trkpt lat="42.85364" lon="2.22769">
        <ele>504.79</ele>
        <time>2026-06-03T14:46:52.430122972Z</time>
      </trkpt>
      <trkpt lat="42.85363" lon="2.2277">
        <ele>504.99</ele>
        <time>2026-06-03T14:46:53.415907979Z</time>
      </trkpt>
      <trkpt lat="42.8536" lon="2.22771">
        <ele>505.2</ele>
        <time>2026-06-03T14:46:54.472282052Z</time>
      </trkpt>
      <trkpt lat="42.85358" lon="2.22772">
        <ele>505.39</ele>
        <time>2026-06-03T14:46:55.408362031Z</time>
      </trkpt>
      <trkpt lat="42.85356" lon="2.22773">
        <ele>505.59</ele>
        <time>2026-06-03T14:46:56.390889049Z</time>
      </trkpt>
      <trkpt lat="42.85353" lon="2.22773">
        <ele>505.8</ele>
        <time>2026-06-03T14:46:57.440253019Z</time>
      </trkpt>
      <trkpt lat="42.85351" lon="2.22774">
        <ele>505.97</ele>
        <time>2026-06-03T14:46:58.370965958Z</time>
      </trkpt>
      <trkpt lat="42.8535" lon="2.22775">
        <ele>506.15</ele>
        <time>2026-06-03T14:46:59.442798018Z</time>
      </trkpt>
      <trkpt lat="42.85347" lon="2.22776">
        <ele>506.31</ele>
        <time>2026-06-03T14:47:00.377020001Z</time>
      </trkpt>
      <trkpt lat="42.85345" lon="2.22776">
        <ele>506.47</ele>
        <time>2026-06-03T14:47:01.386878014Z</time>
      </trkpt>
      <trkpt lat="42.85344" lon="2.22777">
        <ele>506.63</ele>
        <time>2026-06-03T14:47:02.328907967Z</time>
      </trkpt>
      <trkpt lat="42.85342" lon="2.22778">
        <ele>506.8</ele>
        <time>2026-06-03T14:47:03.379449010Z</time>
      </trkpt>
      <trkpt lat="42.8534" lon="2.22778">
        <ele>506.97</ele>
        <time>2026-06-03T14:47:04.429582953Z</time>
      </trkpt>
      <trkpt lat="42.85337" lon="2.22779">
        <ele>507.16</ele>
        <time>2026-06-03T14:47:05.421440959Z</time>
      </trkpt>
      <trkpt lat="42.85336" lon="2.22779">
        <ele>507.35</ele>
        <time>2026-06-03T14:47:06.445960999Z</time>
      </trkpt>
      <trkpt lat="42.85333" lon="2.22779">
        <ele>507.54</ele>
        <time>2026-06-03T14:47:07.400503993Z</time>
      </trkpt>
      <trkpt lat="42.85331" lon="2.2278">
        <ele>507.74</ele>
        <time>2026-06-03T14:47:08.391018033Z</time>
      </trkpt>
      <trkpt lat="42.85329" lon="2.2278">
        <ele>507.95</ele>
        <time>2026-06-03T14:47:09.380413055Z</time>
      </trkpt>
      <trkpt lat="42.85326" lon="2.2278">
        <ele>508.17</ele>
        <time>2026-06-03T14:47:10.401450992Z</time>
      </trkpt>
      <trkpt lat="42.85325" lon="2.2278">
        <ele>508.39</ele>
        <time>2026-06-03T14:47:11.420897961Z</time>
      </trkpt>
      <trkpt lat="42.85323" lon="2.2278">
        <ele>508.62</ele>
        <time>2026-06-03T14:47:12.410642982Z</time>
      </trkpt>
      <trkpt lat="42.85321" lon="2.2278">
        <ele>508.81</ele>
        <time>2026-06-03T14:47:13.490627050Z</time>
      </trkpt>
      <trkpt lat="42.8532" lon="2.2278">
        <ele>509.01</ele>
        <time>2026-06-03T14:47:14.428917050Z</time>
      </trkpt>
      <trkpt lat="42.85318" lon="2.2278">
        <ele>509.2</ele>
        <time>2026-06-03T14:47:15.370000005Z</time>
      </trkpt>
      <trkpt lat="42.85315" lon="2.2278">
        <ele>509.39</ele>
        <time>2026-06-03T14:47:16.364964962Z</time>
      </trkpt>
      <trkpt lat="42.85314" lon="2.2278">
        <ele>509.71</ele>
        <time>2026-06-03T14:47:17.438163042Z</time>
      </trkpt>
      <trkpt lat="42.85312" lon="2.2278">
        <ele>510.01</ele>
        <time>2026-06-03T14:47:18.407541990Z</time>
      </trkpt>
      <trkpt lat="42.85309" lon="2.2278">
        <ele>510.29</ele>
        <time>2026-06-03T14:47:19.400738955Z</time>
      </trkpt>
      <trkpt lat="42.85307" lon="2.22781">
        <ele>510.57</ele>
        <time>2026-06-03T14:47:20.391360044Z</time>
      </trkpt>
      <trkpt lat="42.85305" lon="2.22781">
        <ele>510.83</ele>
        <time>2026-06-03T14:47:21.379544973Z</time>
      </trkpt>
      <trkpt lat="42.85303" lon="2.22782">
        <ele>510.83</ele>
        <time>2026-06-03T14:47:22.368131995Z</time>
      </trkpt>
      <trkpt lat="42.853" lon="2.22783">
        <ele>511.33</ele>
        <time>2026-06-03T14:47:23.393808007Z</time>
      </trkpt>
      <trkpt lat="42.85299" lon="2.22785">
        <ele>511.56</ele>
        <time>2026-06-03T14:47:24.412827969Z</time>
      </trkpt>
      <trkpt lat="42.85296" lon="2.22785">
        <ele>511.78</ele>
        <time>2026-06-03T14:47:25.521041036Z</time>
      </trkpt>
      <trkpt lat="42.85294" lon="2.22784">
        <ele>511.78</ele>
        <time>2026-06-03T14:47:26.338372946Z</time>
      </trkpt>
      <trkpt lat="42.85292" lon="2.22784">
        <ele>512.17004</ele>
        <time>2026-06-03T14:47:27.379644036Z</time>
      </trkpt>
      <trkpt lat="42.85291" lon="2.22784">
        <ele>512.32996</ele>
        <time>2026-06-03T14:47:28.399984002Z</time>
      </trkpt>
      <trkpt lat="42.85288" lon="2.22788">
        <ele>512.48</ele>
        <time>2026-06-03T14:47:48.632603049Z</time>
      </trkpt>
      <trkpt lat="42.85287" lon="2.22788">
        <ele>513.23</ele>
        <time>2026-06-03T14:47:51.530599952Z</time>
      </trkpt>
      <trkpt lat="42.85284" lon="2.22788">
        <ele>513.3</ele>
        <time>2026-06-03T14:47:52.520977020Z</time>
      </trkpt>
      <trkpt lat="42.85281" lon="2.22788">
        <ele>513.3</ele>
        <time>2026-06-03T14:47:53.512657046Z</time>
      </trkpt>
      <trkpt lat="42.85277" lon="2.22789">
        <ele>513.28</ele>
        <time>2026-06-03T14:47:54.530848026Z</time>
      </trkpt>
      <trkpt lat="42.85273" lon="2.22789">
        <ele>513.25</ele>
        <time>2026-06-03T14:47:55.521052957Z</time>
      </trkpt>
      <trkpt lat="42.8527" lon="2.22789">
        <ele>513.22</ele>
        <time>2026-06-03T14:47:56.510663986Z</time>
      </trkpt>
      <trkpt lat="42.85267" lon="2.2279">
        <ele>513.15</ele>
        <time>2026-06-03T14:47:57.502841949Z</time>
      </trkpt>
      <trkpt lat="42.85264" lon="2.22792">
        <ele>513.04004</ele>
        <time>2026-06-03T14:47:58.550999999Z</time>
      </trkpt>
      <trkpt lat="42.85261" lon="2.22794">
        <ele>512.89</ele>
        <time>2026-06-03T14:47:59.420065045Z</time>
      </trkpt>
      <trkpt lat="42.85258" lon="2.22796">
        <ele>512.7</ele>
        <time>2026-06-03T14:48:00.410107017Z</time>
      </trkpt>
      <trkpt lat="42.85257" lon="2.22798">
        <ele>512.53</ele>
        <time>2026-06-03T14:48:01.463155985Z</time>
      </trkpt>
      <trkpt lat="42.85254" lon="2.22801">
        <ele>512.32996</ele>
        <time>2026-06-03T14:48:02.452219963Z</time>
      </trkpt>
      <trkpt lat="42.85252" lon="2.22803">
        <ele>512.11</ele>
        <time>2026-06-03T14:48:03.530812979Z</time>
      </trkpt>
      <trkpt lat="42.85249" lon="2.22806">
        <ele>511.88</ele>
        <time>2026-06-03T14:48:04.520364046Z</time>
      </trkpt>
      <trkpt lat="42.85247" lon="2.22809">
        <ele>511.64</ele>
        <time>2026-06-03T14:48:05.480435967Z</time>
      </trkpt>
      <trkpt lat="42.85244" lon="2.22812">
        <ele>511.39</ele>
        <time>2026-06-03T14:48:06.431421995Z</time>
      </trkpt>
      <trkpt lat="42.85241" lon="2.22816">
        <ele>511.1</ele>
        <time>2026-06-03T14:48:07.496345043Z</time>
      </trkpt>
      <trkpt lat="42.85239" lon="2.2282">
        <ele>510.81</ele>
        <time>2026-06-03T14:48:08.541125059Z</time>
      </trkpt>
      <trkpt lat="42.85236" lon="2.22824">
        <ele>510.52</ele>
        <time>2026-06-03T14:48:09.530992985Z</time>
      </trkpt>
      <trkpt lat="42.85234" lon="2.22828">
        <ele>510.21</ele>
        <time>2026-06-03T14:48:10.405794978Z</time>
      </trkpt>
      <trkpt lat="42.85231" lon="2.2283">
        <ele>509.91</ele>
        <time>2026-06-03T14:48:11.510961056Z</time>
      </trkpt>
      <trkpt lat="42.85229" lon="2.22834">
        <ele>509.64</ele>
        <time>2026-06-03T14:48:12.531908989Z</time>
      </trkpt>
      <trkpt lat="42.85227" lon="2.22838">
        <ele>509.39</ele>
        <time>2026-06-03T14:48:13.463361025Z</time>
      </trkpt>
      <trkpt lat="42.85225" lon="2.22843">
        <ele>509.16</ele>
        <time>2026-06-03T14:48:14.511975050Z</time>
      </trkpt>
      <trkpt lat="42.85223" lon="2.22848">
        <ele>508.95</ele>
        <time>2026-06-03T14:48:15.501093030Z</time>
      </trkpt>
      <trkpt lat="42.85221" lon="2.22854">
        <ele>508.78</ele>
        <time>2026-06-03T14:48:16.491814971Z</time>
      </trkpt>
      <trkpt lat="42.85218" lon="2.22859">
        <ele>508.61</ele>
        <time>2026-06-03T14:48:17.481042027Z</time>
      </trkpt>
      <trkpt lat="42.85216" lon="2.22864">
        <ele>508.42</ele>
        <time>2026-06-03T14:48:18.473142028Z</time>
      </trkpt>
      <trkpt lat="42.85213" lon="2.22868">
        <ele>508.22</ele>
        <time>2026-06-03T14:48:19.490668058Z</time>
      </trkpt>
      <trkpt lat="42.85212" lon="2.22873">
        <ele>507.99</ele>
        <time>2026-06-03T14:48:20.481441975Z</time>
      </trkpt>
      <trkpt lat="42.8521" lon="2.22875">
        <ele>507.74</ele>
        <time>2026-06-03T14:48:21.441522956Z</time>
      </trkpt>
      <trkpt lat="42.8521" lon="2.22878">
        <ele>507.47</ele>
        <time>2026-06-03T14:48:22.491549969Z</time>
      </trkpt>
      <trkpt lat="42.85208" lon="2.22882">
        <ele>507.2</ele>
        <time>2026-06-03T14:48:23.480730057Z</time>
      </trkpt>
      <trkpt lat="42.85205" lon="2.22888">
        <ele>506.92</ele>
        <time>2026-06-03T14:48:24.419484019Z</time>
      </trkpt>
      <trkpt lat="42.85204" lon="2.22892">
        <ele>506.62</ele>
        <time>2026-06-03T14:48:25.491189957Z</time>
      </trkpt>
      <trkpt lat="42.85203" lon="2.22896">
        <ele>506.33</ele>
        <time>2026-06-03T14:48:26.541224003Z</time>
      </trkpt>
      <trkpt lat="42.85201" lon="2.22901">
        <ele>506.01</ele>
        <time>2026-06-03T14:48:27.531268954Z</time>
      </trkpt>
      <trkpt lat="42.852" lon="2.22905">
        <ele>505.68</ele>
        <time>2026-06-03T14:48:28.427250028Z</time>
      </trkpt>
      <trkpt lat="42.85198" lon="2.2291">
        <ele>505.34</ele>
        <time>2026-06-03T14:48:29.511368036Z</time>
      </trkpt>
      <trkpt lat="42.85197" lon="2.22915">
        <ele>504.97</ele>
        <time>2026-06-03T14:48:30.533758044Z</time>
      </trkpt>
      <trkpt lat="42.85197" lon="2.22921">
        <ele>504.66</ele>
        <time>2026-06-03T14:48:31.553364038Z</time>
      </trkpt>
      <trkpt lat="42.85198" lon="2.22922">
        <ele>504.32</ele>
        <time>2026-06-03T14:48:32.541466951Z</time>
      </trkpt>
      <trkpt lat="42.85196" lon="2.22928">
        <ele>504.12</ele>
        <time>2026-06-03T14:48:33.531401992Z</time>
      </trkpt>
      <trkpt lat="42.85194" lon="2.22933">
        <ele>503.92</ele>
        <time>2026-06-03T14:48:34.520948052Z</time>
      </trkpt>
      <trkpt lat="42.85195" lon="2.22936">
        <ele>503.7</ele>
        <time>2026-06-03T14:48:35.412235975Z</time>
      </trkpt>
      <trkpt lat="42.85191" lon="2.22945">
        <ele>503.45</ele>
        <time>2026-06-03T14:48:36.431946993Z</time>
      </trkpt>
      <trkpt lat="42.85189" lon="2.22951">
        <ele>503.21</ele>
        <time>2026-06-03T14:48:37.505584002Z</time>
      </trkpt>
      <trkpt lat="42.85188" lon="2.22956">
        <ele>502.99</ele>
        <time>2026-06-03T14:48:38.541514993Z</time>
      </trkpt>
      <trkpt lat="42.85185" lon="2.2296">
        <ele>502.74</ele>
        <time>2026-06-03T14:48:39.435418010Z</time>
      </trkpt>
      <trkpt lat="42.85184" lon="2.22963">
        <ele>502.51</ele>
        <time>2026-06-03T14:48:40.568132043Z</time>
      </trkpt>
      <trkpt lat="42.85182" lon="2.22966">
        <ele>502.27</ele>
        <time>2026-06-03T14:48:41.453976989Z</time>
      </trkpt>
      <trkpt lat="42.85181" lon="2.2297">
        <ele>502.02</ele>
        <time>2026-06-03T14:48:42.438531041Z</time>
      </trkpt>
      <trkpt lat="42.85179" lon="2.22972">
        <ele>501.77</ele>
        <time>2026-06-03T14:48:43.439149976Z</time>
      </trkpt>
      <trkpt lat="42.85178" lon="2.22976">
        <ele>501.53</ele>
        <time>2026-06-03T14:48:44.453909039Z</time>
      </trkpt>
      <trkpt lat="42.85176" lon="2.22981">
        <ele>501.3</ele>
        <time>2026-06-03T14:48:45.456614017Z</time>
      </trkpt>
      <trkpt lat="42.85173" lon="2.22984">
        <ele>501.1</ele>
        <time>2026-06-03T14:48:46.492262006Z</time>
      </trkpt>
      <trkpt lat="42.8517" lon="2.22989">
        <ele>500.92</ele>
        <time>2026-06-03T14:48:47.541890979Z</time>
      </trkpt>
      <trkpt lat="42.85168" lon="2.22995">
        <ele>500.73</ele>
        <time>2026-06-03T14:48:48.534147024Z</time>
      </trkpt>
      <trkpt lat="42.85165" lon="2.22999">
        <ele>500.55</ele>
        <time>2026-06-03T14:48:49.669926047Z</time>
      </trkpt>
      <trkpt lat="42.85163" lon="2.23004">
        <ele>500.38</ele>
        <time>2026-06-03T14:48:50.372874975Z</time>
      </trkpt>
      <trkpt lat="42.85161" lon="2.23009">
        <ele>500.21</ele>
        <time>2026-06-03T14:48:51.436635017Z</time>
      </trkpt>
      <trkpt lat="42.8516" lon="2.23013">
        <ele>500.05</ele>
        <time>2026-06-03T14:48:52.510712981Z</time>
      </trkpt>
      <trkpt lat="42.85157" lon="2.23018">
        <ele>499.89</ele>
        <time>2026-06-03T14:48:53.369187951Z</time>
      </trkpt>
      <trkpt lat="42.85156" lon="2.23023">
        <ele>499.74</ele>
        <time>2026-06-03T14:48:54.561879992Z</time>
      </trkpt>
      <trkpt lat="42.85154" lon="2.23027">
        <ele>499.6</ele>
        <time>2026-06-03T14:48:55.431421041Z</time>
      </trkpt>
      <trkpt lat="42.85153" lon="2.2303">
        <ele>499.47</ele>
        <time>2026-06-03T14:48:56.420940042Z</time>
      </trkpt>
      <trkpt lat="42.85152" lon="2.23032">
        <ele>499.34</ele>
        <time>2026-06-03T14:48:57.441578031Z</time>
      </trkpt>
      <trkpt lat="42.8515" lon="2.23036">
        <ele>499.23</ele>
        <time>2026-06-03T14:48:58.464162946Z</time>
      </trkpt>
      <trkpt lat="42.85149" lon="2.23039">
        <ele>499.13</ele>
        <time>2026-06-03T14:48:59.454177976Z</time>
      </trkpt>
      <trkpt lat="42.85148" lon="2.23042">
        <ele>499.02</ele>
        <time>2026-06-03T14:49:00.532127023Z</time>
      </trkpt>
      <trkpt lat="42.85147" lon="2.23045">
        <ele>498.94</ele>
        <time>2026-06-03T14:49:01.551931024Z</time>
      </trkpt>
      <trkpt lat="42.85146" lon="2.23048">
        <ele>498.84</ele>
        <time>2026-06-03T14:49:02.392866015Z</time>
      </trkpt>
      <trkpt lat="42.85144" lon="2.23052">
        <ele>498.75</ele>
        <time>2026-06-03T14:49:03.561064005Z</time>
      </trkpt>
      <trkpt lat="42.85146" lon="2.23054">
        <ele>498.66</ele>
        <time>2026-06-03T14:49:04.521453023Z</time>
      </trkpt>
      <trkpt lat="42.85144" lon="2.23058">
        <ele>498.58</ele>
        <time>2026-06-03T14:49:05.512392044Z</time>
      </trkpt>
      <trkpt lat="42.85142" lon="2.23062">
        <ele>498.49</ele>
        <time>2026-06-03T14:49:06.441773057Z</time>
      </trkpt>
      <trkpt lat="42.8514" lon="2.23066">
        <ele>498.41</ele>
        <time>2026-06-03T14:49:07.515627027Z</time>
      </trkpt>
      <trkpt lat="42.85138" lon="2.23069">
        <ele>498.33</ele>
        <time>2026-06-03T14:49:08.454409003Z</time>
      </trkpt>
      <trkpt lat="42.85135" lon="2.23073">
        <ele>498.25</ele>
        <time>2026-06-03T14:49:09.370851040Z</time>
      </trkpt>
      <trkpt lat="42.85134" lon="2.23076">
        <ele>498.17</ele>
        <time>2026-06-03T14:49:10.552340031Z</time>
      </trkpt>
      <trkpt lat="42.85132" lon="2.2308">
        <ele>498.08</ele>
        <time>2026-06-03T14:49:11.542579055Z</time>
      </trkpt>
      <trkpt lat="42.85131" lon="2.23083">
        <ele>498</ele>
        <time>2026-06-03T14:49:12.562438011Z</time>
      </trkpt>
      <trkpt lat="42.8513" lon="2.23086">
        <ele>497.91</ele>
        <time>2026-06-03T14:49:13.402843952Z</time>
      </trkpt>
      <trkpt lat="42.8513" lon="2.23089">
        <ele>497.82</ele>
        <time>2026-06-03T14:49:14.512163997Z</time>
      </trkpt>
      <trkpt lat="42.85129" lon="2.23092">
        <ele>497.74</ele>
        <time>2026-06-03T14:49:15.442623973Z</time>
      </trkpt>
      <trkpt lat="42.85128" lon="2.23095">
        <ele>497.67</ele>
        <time>2026-06-03T14:49:16.401620030Z</time>
      </trkpt>
      <trkpt lat="42.85127" lon="2.23098">
        <ele>497.59</ele>
        <time>2026-06-03T14:49:24.471814036Z</time>
      </trkpt>
      <trkpt lat="42.85127" lon="2.23097">
        <ele>497.17</ele>
        <time>2026-06-03T14:49:25.462759972Z</time>
      </trkpt>
      <trkpt lat="42.85126" lon="2.23099">
        <ele>497.03</ele>
        <time>2026-06-03T14:49:27.502388Z</time>
      </trkpt>
      <trkpt lat="42.85124" lon="2.23106">
        <ele>496.96</ele>
        <time>2026-06-03T14:49:28.493070960Z</time>
      </trkpt>
      <trkpt lat="42.85123" lon="2.2311">
        <ele>496.89</ele>
        <time>2026-06-03T14:49:29.484578967Z</time>
      </trkpt>
      <trkpt lat="42.85123" lon="2.23113">
        <ele>496.83</ele>
        <time>2026-06-03T14:49:30.474797964Z</time>
      </trkpt>
      <trkpt lat="42.85122" lon="2.23117">
        <ele>496.76</ele>
        <time>2026-06-03T14:49:31.429180980Z</time>
      </trkpt>
      <trkpt lat="42.85122" lon="2.23121">
        <ele>496.68</ele>
        <time>2026-06-03T14:49:32.394431949Z</time>
      </trkpt>
      <trkpt lat="42.85119" lon="2.23129">
        <ele>496.53</ele>
        <time>2026-06-03T14:49:34.441437006Z</time>
      </trkpt>
      <trkpt lat="42.85118" lon="2.23132">
        <ele>496.45</ele>
        <time>2026-06-03T14:49:35.421447039Z</time>
      </trkpt>
      <trkpt lat="42.85118" lon="2.23134">
        <ele>496.37</ele>
        <time>2026-06-03T14:49:36.359410048Z</time>
      </trkpt>
      <trkpt lat="42.85116" lon="2.23138">
        <ele>496.18</ele>
        <time>2026-06-03T14:49:37.373239040Z</time>
      </trkpt>
      <trkpt lat="42.85114" lon="2.23143">
        <ele>495.98</ele>
        <time>2026-06-03T14:49:38.439386964Z</time>
      </trkpt>
      <trkpt lat="42.85112" lon="2.23147">
        <ele>495.79</ele>
        <time>2026-06-03T14:49:39.474627018Z</time>
      </trkpt>
      <trkpt lat="42.85111" lon="2.2315">
        <ele>495.61</ele>
        <time>2026-06-03T14:49:40.492867947Z</time>
      </trkpt>
      <trkpt lat="42.8511" lon="2.23153">
        <ele>495.44</ele>
        <time>2026-06-03T14:49:41.454272032Z</time>
      </trkpt>
      <trkpt lat="42.85109" lon="2.23156">
        <ele>495.27</ele>
        <time>2026-06-03T14:49:42.502455950Z</time>
      </trkpt>
      <trkpt lat="42.85107" lon="2.23158">
        <ele>495.12</ele>
        <time>2026-06-03T14:49:43.492141008Z</time>
      </trkpt>
      <trkpt lat="42.85106" lon="2.2316">
        <ele>494.99</ele>
        <time>2026-06-03T14:49:44.481806993Z</time>
      </trkpt>
      <trkpt lat="42.85106" lon="2.23162">
        <ele>494.87</ele>
        <time>2026-06-03T14:49:45.474735022Z</time>
      </trkpt>
      <trkpt lat="42.85104" lon="2.23164">
        <ele>494.74</ele>
        <time>2026-06-03T14:49:46.493006945Z</time>
      </trkpt>
      <trkpt lat="42.85103" lon="2.23167">
        <ele>494.6</ele>
        <time>2026-06-03T14:49:47.483172059Z</time>
      </trkpt>
      <trkpt lat="42.85102" lon="2.2317">
        <ele>494.46</ele>
        <time>2026-06-03T14:49:48.474841952Z</time>
      </trkpt>
      <trkpt lat="42.851" lon="2.23174">
        <ele>494.33</ele>
        <time>2026-06-03T14:49:49.439231038Z</time>
      </trkpt>
      <trkpt lat="42.85098" lon="2.23177">
        <ele>494.17</ele>
        <time>2026-06-03T14:49:50.512920022Z</time>
      </trkpt>
      <trkpt lat="42.85096" lon="2.2318">
        <ele>494.02</ele>
        <time>2026-06-03T14:49:51.598343968Z</time>
      </trkpt>
      <trkpt lat="42.85093" lon="2.23185">
        <ele>493.68</ele>
        <time>2026-06-03T14:49:53.482902050Z</time>
      </trkpt>
      <trkpt lat="42.85093" lon="2.23186">
        <ele>493.48</ele>
        <time>2026-06-03T14:49:54.474997997Z</time>
      </trkpt>
      <trkpt lat="42.85092" lon="2.23187">
        <ele>493.28</ele>
        <time>2026-06-03T14:49:55.463515043Z</time>
      </trkpt>
      <trkpt lat="42.85089" lon="2.2319">
        <ele>493.06</ele>
        <time>2026-06-03T14:49:56.512859941Z</time>
      </trkpt>
      <trkpt lat="42.85087" lon="2.23193">
        <ele>492.85</ele>
        <time>2026-06-03T14:49:57.383219004Z</time>
      </trkpt>
      <trkpt lat="42.85085" lon="2.23195">
        <ele>492.63</ele>
        <time>2026-06-03T14:49:58.493284941Z</time>
      </trkpt>
      <trkpt lat="42.85083" lon="2.23198">
        <ele>492.44</ele>
        <time>2026-06-03T14:49:59.455278993Z</time>
      </trkpt>
      <trkpt lat="42.8508" lon="2.232">
        <ele>492.25</ele>
        <time>2026-06-03T14:50:00.475412965Z</time>
      </trkpt>
      <trkpt lat="42.85078" lon="2.23202">
        <ele>492.06</ele>
        <time>2026-06-03T14:50:01.372887969Z</time>
      </trkpt>
      <trkpt lat="42.85076" lon="2.23204">
        <ele>491.85</ele>
        <time>2026-06-03T14:50:02.405675054Z</time>
      </trkpt>
      <trkpt lat="42.85074" lon="2.23207">
        <ele>491.63</ele>
        <time>2026-06-03T14:50:03.444591045Z</time>
      </trkpt>
      <trkpt lat="42.85072" lon="2.2321">
        <ele>491.39</ele>
        <time>2026-06-03T14:50:04.431978941Z</time>
      </trkpt>
      <trkpt lat="42.85069" lon="2.23212">
        <ele>491.12</ele>
        <time>2026-06-03T14:50:05.422446012Z</time>
      </trkpt>
      <trkpt lat="42.85067" lon="2.23217">
        <ele>490.83</ele>
        <time>2026-06-03T14:50:06.413848996Z</time>
      </trkpt>
      <trkpt lat="42.85065" lon="2.23219">
        <ele>490.52</ele>
        <time>2026-06-03T14:50:07.493811965Z</time>
      </trkpt>
      <trkpt lat="42.85064" lon="2.23221">
        <ele>490.22</ele>
        <time>2026-06-03T14:50:08.485177040Z</time>
      </trkpt>
      <trkpt lat="42.85062" lon="2.23223">
        <ele>489.92</ele>
        <time>2026-06-03T14:50:09.503234982Z</time>
      </trkpt>
      <trkpt lat="42.8506" lon="2.23227">
        <ele>489.63</ele>
        <time>2026-06-03T14:50:10.432113051Z</time>
      </trkpt>
      <trkpt lat="42.85058" lon="2.23228">
        <ele>489.36</ele>
        <time>2026-06-03T14:50:11.483343959Z</time>
      </trkpt>
      <trkpt lat="42.85056" lon="2.23231">
        <ele>489.09</ele>
        <time>2026-06-03T14:50:12.475437999Z</time>
      </trkpt>
      <trkpt lat="42.85055" lon="2.23233">
        <ele>488.83</ele>
        <time>2026-06-03T14:50:13.463479996Z</time>
      </trkpt>
      <trkpt lat="42.85053" lon="2.23235">
        <ele>488.61</ele>
        <time>2026-06-03T14:50:14.483224988Z</time>
      </trkpt>
      <trkpt lat="42.85051" lon="2.23236">
        <ele>488.38</ele>
        <time>2026-06-03T14:50:15.503430009Z</time>
      </trkpt>
      <trkpt lat="42.85049" lon="2.2324">
        <ele>488.12</ele>
        <time>2026-06-03T14:50:16.493867040Z</time>
      </trkpt>
      <trkpt lat="42.85046" lon="2.23243">
        <ele>487.85</ele>
        <time>2026-06-03T14:50:17.453881025Z</time>
      </trkpt>
      <trkpt lat="42.85044" lon="2.23247">
        <ele>487.56</ele>
        <time>2026-06-03T14:50:18.374817014Z</time>
      </trkpt>
      <trkpt lat="42.85042" lon="2.23251">
        <ele>487.23</ele>
        <time>2026-06-03T14:50:19.404206991Z</time>
      </trkpt>
      <trkpt lat="42.8504" lon="2.23255">
        <ele>486.89</ele>
        <time>2026-06-03T14:50:20.422989011Z</time>
      </trkpt>
      <trkpt lat="42.85038" lon="2.23257">
        <ele>486.54</ele>
        <time>2026-06-03T14:50:21.375733018Z</time>
      </trkpt>
      <trkpt lat="42.85036" lon="2.23259">
        <ele>486.18</ele>
        <time>2026-06-03T14:50:22.496152043Z</time>
      </trkpt>
      <trkpt lat="42.85035" lon="2.23262">
        <ele>485.82</ele>
        <time>2026-06-03T14:50:23.483561039Z</time>
      </trkpt>
      <trkpt lat="42.85033" lon="2.23264">
        <ele>485.47</ele>
        <time>2026-06-03T14:50:24.442708969Z</time>
      </trkpt>
      <trkpt lat="42.8503" lon="2.23266">
        <ele>485.13</ele>
        <time>2026-06-03T14:50:25.493942976Z</time>
      </trkpt>
      <trkpt lat="42.85027" lon="2.23268">
        <ele>484.79</ele>
        <time>2026-06-03T14:50:26.482821941Z</time>
      </trkpt>
      <trkpt lat="42.85024" lon="2.23271">
        <ele>484.46</ele>
        <time>2026-06-03T14:50:27.476127982Z</time>
      </trkpt>
      <trkpt lat="42.85022" lon="2.23274">
        <ele>484.13</ele>
        <time>2026-06-03T14:50:28.375054002Z</time>
      </trkpt>
      <trkpt lat="42.8502" lon="2.23277">
        <ele>483.85</ele>
        <time>2026-06-03T14:50:29.455423951Z</time>
      </trkpt>
      <trkpt lat="42.85018" lon="2.23278">
        <ele>483.57</ele>
        <time>2026-06-03T14:50:30.393224955Z</time>
      </trkpt>
      <trkpt lat="42.85015" lon="2.23281">
        <ele>483.27</ele>
        <time>2026-06-03T14:50:31.494060040Z</time>
      </trkpt>
      <trkpt lat="42.85012" lon="2.23284">
        <ele>482.95</ele>
        <time>2026-06-03T14:50:32.483597040Z</time>
      </trkpt>
      <trkpt lat="42.85009" lon="2.23288">
        <ele>482.62</ele>
        <time>2026-06-03T14:50:33.392712951Z</time>
      </trkpt>
      <trkpt lat="42.85007" lon="2.23292">
        <ele>482.28</ele>
        <time>2026-06-03T14:50:34.375602961Z</time>
      </trkpt>
      <trkpt lat="42.85004" lon="2.23297">
        <ele>481.92</ele>
        <time>2026-06-03T14:50:35.483888030Z</time>
      </trkpt>
      <trkpt lat="42.85001" lon="2.23301">
        <ele>481.53</ele>
        <time>2026-06-03T14:50:36.477082968Z</time>
      </trkpt>
      <trkpt lat="42.84998" lon="2.23304">
        <ele>480.97</ele>
        <time>2026-06-03T14:50:37.494578004Z</time>
      </trkpt>
      <trkpt lat="42.84996" lon="2.23307">
        <ele>480.41</ele>
        <time>2026-06-03T14:50:38.425271034Z</time>
      </trkpt>
      <trkpt lat="42.84993" lon="2.23311">
        <ele>479.86</ele>
        <time>2026-06-03T14:50:39.476076961Z</time>
      </trkpt>
      <trkpt lat="42.84991" lon="2.23314">
        <ele>479.34</ele>
        <time>2026-06-03T14:50:40.496474981Z</time>
      </trkpt>
      <trkpt lat="42.8499" lon="2.23316">
        <ele>478.87</ele>
        <time>2026-06-03T14:50:41.483952045Z</time>
      </trkpt>
      <trkpt lat="42.84988" lon="2.2332">
        <ele>478.45</ele>
        <time>2026-06-03T14:50:42.477612019Z</time>
      </trkpt>
      <trkpt lat="42.84987" lon="2.23322">
        <ele>478.1</ele>
        <time>2026-06-03T14:50:43.464352012Z</time>
      </trkpt>
      <trkpt lat="42.84985" lon="2.23325">
        <ele>477.8</ele>
        <time>2026-06-03T14:50:44.454476953Z</time>
      </trkpt>
      <trkpt lat="42.84983" lon="2.23327">
        <ele>477.56</ele>
        <time>2026-06-03T14:50:45.383959055Z</time>
      </trkpt>
      <trkpt lat="42.84982" lon="2.2333">
        <ele>477.36</ele>
        <time>2026-06-03T14:50:46.406260967Z</time>
      </trkpt>
      <trkpt lat="42.8498" lon="2.23333">
        <ele>477.2</ele>
        <time>2026-06-03T14:50:47.483942986Z</time>
      </trkpt>
      <trkpt lat="42.84978" lon="2.23335">
        <ele>477.06</ele>
        <time>2026-06-03T14:50:48.473871946Z</time>
      </trkpt>
      <trkpt lat="42.84977" lon="2.23337">
        <ele>476.95</ele>
        <time>2026-06-03T14:50:49.446604013Z</time>
      </trkpt>
      <trkpt lat="42.84974" lon="2.2334">
        <ele>476.85</ele>
        <time>2026-06-03T14:50:50.422837019Z</time>
      </trkpt>
      <trkpt lat="42.84973" lon="2.23342">
        <ele>476.76</ele>
        <time>2026-06-03T14:50:51.475883961Z</time>
      </trkpt>
      <trkpt lat="42.84972" lon="2.23345">
        <ele>476.68</ele>
        <time>2026-06-03T14:50:52.602188945Z</time>
      </trkpt>
      <trkpt lat="42.8497" lon="2.23347">
        <ele>476.59</ele>
        <time>2026-06-03T14:50:53.455714941Z</time>
      </trkpt>
      <trkpt lat="42.84969" lon="2.2335">
        <ele>476.51</ele>
        <time>2026-06-03T14:50:54.476045966Z</time>
      </trkpt>
      <trkpt lat="42.84967" lon="2.23354">
        <ele>476.37</ele>
        <time>2026-06-03T14:50:56.452960014Z</time>
      </trkpt>
      <trkpt lat="42.84966" lon="2.23354">
        <ele>476.37</ele>
        <time>2026-06-03T14:50:57.473124981Z</time>
      </trkpt>
      <trkpt lat="42.84964" lon="2.23353">
        <ele>476.29</ele>
        <time>2026-06-03T14:50:58.465855956Z</time>
      </trkpt>
      <trkpt lat="42.84964" lon="2.23351">
        <ele>476.25</ele>
        <time>2026-06-03T14:50:59.483777046Z</time>
      </trkpt>
      <trkpt lat="42.84963" lon="2.23348">
        <ele>476.23</ele>
        <time>2026-06-03T14:51:00.407320976Z</time>
      </trkpt>
      <trkpt lat="42.84964" lon="2.23344">
        <ele>476.19</ele>
        <time>2026-06-03T14:51:01.494233012Z</time>
      </trkpt>
      <trkpt lat="42.84966" lon="2.23342">
        <ele>476.15</ele>
        <time>2026-06-03T14:51:02.484176993Z</time>
      </trkpt>
      <trkpt lat="42.84967" lon="2.23339">
        <ele>476.08</ele>
        <time>2026-06-03T14:51:03.379063964Z</time>
      </trkpt>
      <trkpt lat="42.8497" lon="2.23335">
        <ele>475.99</ele>
        <time>2026-06-03T14:51:04.453173041Z</time>
      </trkpt>
      <trkpt lat="42.84972" lon="2.23332">
        <ele>475.89</ele>
        <time>2026-06-03T14:51:05.424069047Z</time>
      </trkpt>
      <trkpt lat="42.84974" lon="2.23329">
        <ele>475.76</ele>
        <time>2026-06-03T14:51:06.473919988Z</time>
      </trkpt>
      <trkpt lat="42.84976" lon="2.23326">
        <ele>475.63</ele>
        <time>2026-06-03T14:51:07.466874957Z</time>
      </trkpt>
      <trkpt lat="42.84977" lon="2.23323">
        <ele>475.49</ele>
        <time>2026-06-03T14:51:08.456205964Z</time>
      </trkpt>
      <trkpt lat="42.84978" lon="2.23319">
        <ele>475.33</ele>
        <time>2026-06-03T14:51:09.503905058Z</time>
      </trkpt>
      <trkpt lat="42.84979" lon="2.23315">
        <ele>475.17</ele>
        <time>2026-06-03T14:51:10.496829987Z</time>
      </trkpt>
      <trkpt lat="42.8498" lon="2.2331">
        <ele>475.01</ele>
        <time>2026-06-03T14:51:11.484164953Z</time>
      </trkpt>
      <trkpt lat="42.84981" lon="2.23306">
        <ele>474.83</ele>
        <time>2026-06-03T14:51:12.474035025Z</time>
      </trkpt>
      <trkpt lat="42.84982" lon="2.23302">
        <ele>474.63</ele>
        <time>2026-06-03T14:51:13.431507945Z</time>
      </trkpt>
      <trkpt lat="42.84983" lon="2.23296">
        <ele>474.45</ele>
        <time>2026-06-03T14:51:14.484254003Z</time>
      </trkpt>
      <trkpt lat="42.84983" lon="2.2329">
        <ele>474.25</ele>
        <time>2026-06-03T14:51:15.408009052Z</time>
      </trkpt>
      <trkpt lat="42.84983" lon="2.23285">
        <ele>474.01</ele>
        <time>2026-06-03T14:51:16.493587017Z</time>
      </trkpt>
      <trkpt lat="42.84983" lon="2.2328">
        <ele>473.75</ele>
        <time>2026-06-03T14:51:17.443392992Z</time>
      </trkpt>
      <trkpt lat="42.84983" lon="2.23276">
        <ele>473.46</ele>
        <time>2026-06-03T14:51:18.384184003Z</time>
      </trkpt>
      <trkpt lat="42.84983" lon="2.23271">
        <ele>473.15</ele>
        <time>2026-06-03T14:51:19.404798031Z</time>
      </trkpt>
      <trkpt lat="42.84985" lon="2.23267">
        <ele>472.84</ele>
        <time>2026-06-03T14:51:20.456416965Z</time>
      </trkpt>
      <trkpt lat="42.84986" lon="2.23262">
        <ele>472.52</ele>
        <time>2026-06-03T14:51:21.474431992Z</time>
      </trkpt>
      <trkpt lat="42.84988" lon="2.23257">
        <ele>472.2</ele>
        <time>2026-06-03T14:51:22.494794011Z</time>
      </trkpt>
      <trkpt lat="42.84989" lon="2.23252">
        <ele>471.86</ele>
        <time>2026-06-03T14:51:23.486516953Z</time>
      </trkpt>
      <trkpt lat="42.84991" lon="2.23248">
        <ele>471.52</ele>
        <time>2026-06-03T14:51:24.477990031Z</time>
      </trkpt>
      <trkpt lat="42.84993" lon="2.23244">
        <ele>471.2</ele>
        <time>2026-06-03T14:51:25.464844942Z</time>
      </trkpt>
      <trkpt lat="42.84995" lon="2.23241">
        <ele>470.89</ele>
        <time>2026-06-03T14:51:26.486554980Z</time>
      </trkpt>
      <trkpt lat="42.84997" lon="2.23238">
        <ele>470.58</ele>
        <time>2026-06-03T14:51:27.428411961Z</time>
      </trkpt>
      <trkpt lat="42.84998" lon="2.23234">
        <ele>470.28</ele>
        <time>2026-06-03T14:51:28.404482961Z</time>
      </trkpt>
      <trkpt lat="42.85" lon="2.23231">
        <ele>470.03</ele>
        <time>2026-06-03T14:51:29.454568982Z</time>
      </trkpt>
      <trkpt lat="42.85002" lon="2.23228">
        <ele>469.76</ele>
        <time>2026-06-03T14:51:30.504503965Z</time>
      </trkpt>
      <trkpt lat="42.85003" lon="2.23224">
        <ele>469.48</ele>
        <time>2026-06-03T14:51:31.494943023Z</time>
      </trkpt>
      <trkpt lat="42.85005" lon="2.2322">
        <ele>469.18</ele>
        <time>2026-06-03T14:51:32.484586Z</time>
      </trkpt>
      <trkpt lat="42.85006" lon="2.23217">
        <ele>468.89</ele>
        <time>2026-06-03T14:51:33.391276956Z</time>
      </trkpt>
      <trkpt lat="42.85007" lon="2.23213">
        <ele>468.62</ele>
        <time>2026-06-03T14:51:34.463013053Z</time>
      </trkpt>
      <trkpt lat="42.85009" lon="2.2321">
        <ele>468.36</ele>
        <time>2026-06-03T14:51:35.457823038Z</time>
      </trkpt>
      <trkpt lat="42.8501" lon="2.23206">
        <ele>468.09</ele>
        <time>2026-06-03T14:51:36.474841952Z</time>
      </trkpt>
      <trkpt lat="42.85012" lon="2.23203">
        <ele>467.72</ele>
        <time>2026-06-03T14:51:37.467826962Z</time>
      </trkpt>
      <trkpt lat="42.85013" lon="2.23198">
        <ele>467.36</ele>
        <time>2026-06-03T14:51:38.395153046Z</time>
      </trkpt>
      <trkpt lat="42.85014" lon="2.23194">
        <ele>467.01</ele>
        <time>2026-06-03T14:51:39.425923944Z</time>
      </trkpt>
      <trkpt lat="42.85015" lon="2.2319">
        <ele>466.7</ele>
        <time>2026-06-03T14:51:40.467748046Z</time>
      </trkpt>
      <trkpt lat="42.85016" lon="2.23186">
        <ele>466.41</ele>
        <time>2026-06-03T14:51:41.457326055Z</time>
      </trkpt>
      <trkpt lat="42.85017" lon="2.23182">
        <ele>466.14</ele>
        <time>2026-06-03T14:51:42.444939017Z</time>
      </trkpt>
      <trkpt lat="42.85019" lon="2.23178">
        <ele>465.87</ele>
        <time>2026-06-03T14:51:43.495388031Z</time>
      </trkpt>
      <trkpt lat="42.85019" lon="2.23176">
        <ele>465.65</ele>
        <time>2026-06-03T14:51:44.485100985Z</time>
      </trkpt>
      <trkpt lat="42.8502" lon="2.23174">
        <ele>465.44</ele>
        <time>2026-06-03T14:51:45.403928041Z</time>
      </trkpt>
      <trkpt lat="42.85021" lon="2.2317">
        <ele>465.24</ele>
        <time>2026-06-03T14:51:46.467025995Z</time>
      </trkpt>
      <trkpt lat="42.85022" lon="2.23166">
        <ele>465.06</ele>
        <time>2026-06-03T14:51:47.484946966Z</time>
      </trkpt>
      <trkpt lat="42.85023" lon="2.23163">
        <ele>464.89</ele>
        <time>2026-06-03T14:51:48.393983006Z</time>
      </trkpt>
      <trkpt lat="42.85025" lon="2.23161">
        <ele>464.75</ele>
        <time>2026-06-03T14:51:49.434646964Z</time>
      </trkpt>
      <trkpt lat="42.85027" lon="2.23158">
        <ele>464.61</ele>
        <time>2026-06-03T14:51:50.424608946Z</time>
      </trkpt>
      <trkpt lat="42.85028" lon="2.23155">
        <ele>464.46</ele>
        <time>2026-06-03T14:51:51.477058053Z</time>
      </trkpt>
      <trkpt lat="42.8503" lon="2.23151">
        <ele>464.3</ele>
        <time>2026-06-03T14:51:52.495339036Z</time>
      </trkpt>
      <trkpt lat="42.85031" lon="2.23147">
        <ele>464.12</ele>
        <time>2026-06-03T14:51:53.648681045Z</time>
      </trkpt>
      <trkpt lat="42.85032" lon="2.23143">
        <ele>463.94</ele>
        <time>2026-06-03T14:51:54.477190018Z</time>
      </trkpt>
      <trkpt lat="42.85033" lon="2.23141">
        <ele>463.94</ele>
        <time>2026-06-03T14:51:55.467103958Z</time>
      </trkpt>
      <trkpt lat="42.8503" lon="2.23135">
        <ele>463.55</ele>
        <time>2026-06-03T14:52:06.624485970Z</time>
      </trkpt>
      <trkpt lat="42.8503" lon="2.23131">
        <ele>462.22</ele>
        <time>2026-06-03T14:52:08.454354048Z</time>
      </trkpt>
      <trkpt lat="42.85031" lon="2.2313">
        <ele>462.22</ele>
        <time>2026-06-03T14:52:09.430832028Z</time>
      </trkpt>
      <trkpt lat="42.85034" lon="2.23126">
        <ele>461.97</ele>
        <time>2026-06-03T14:52:11.575387955Z</time>
      </trkpt>
      <trkpt lat="42.85035" lon="2.23124">
        <ele>461.9</ele>
        <time>2026-06-03T14:52:12.446166992Z</time>
      </trkpt>
      <trkpt lat="42.85037" lon="2.23122">
        <ele>461.82</ele>
        <time>2026-06-03T14:52:13.524904966Z</time>
      </trkpt>
      <trkpt lat="42.8504" lon="2.23118">
        <ele>461.75</ele>
        <time>2026-06-03T14:52:14.486165047Z</time>
      </trkpt>
      <trkpt lat="42.85042" lon="2.23115">
        <ele>461.67</ele>
        <time>2026-06-03T14:52:15.595705986Z</time>
      </trkpt>
      <trkpt lat="42.85044" lon="2.23112">
        <ele>461.59</ele>
        <time>2026-06-03T14:52:16.467316031Z</time>
      </trkpt>
      <trkpt lat="42.85047" lon="2.23109">
        <ele>461.5</ele>
        <time>2026-06-03T14:52:17.635418057Z</time>
      </trkpt>
      <trkpt lat="42.85049" lon="2.23106">
        <ele>461.42</ele>
        <time>2026-06-03T14:52:18.445775032Z</time>
      </trkpt>
      <trkpt lat="42.85051" lon="2.23104">
        <ele>461.33</ele>
        <time>2026-06-03T14:52:19.615425944Z</time>
      </trkpt>
      <trkpt lat="42.85052" lon="2.231">
        <ele>461.26</ele>
        <time>2026-06-03T14:52:20.405637026Z</time>
      </trkpt>
      <trkpt lat="42.85055" lon="2.23096">
        <ele>461.18</ele>
        <time>2026-06-03T14:52:21.354807973Z</time>
      </trkpt>
      <trkpt lat="42.85057" lon="2.23092">
        <ele>461.09</ele>
        <time>2026-06-03T14:52:22.355098963Z</time>
      </trkpt>
      <trkpt lat="42.85059" lon="2.23088">
        <ele>461.01</ele>
        <time>2026-06-03T14:52:23.395334959Z</time>
      </trkpt>
      <trkpt lat="42.85061" lon="2.23084">
        <ele>460.91</ele>
        <time>2026-06-03T14:52:24.385190010Z</time>
      </trkpt>
      <trkpt lat="42.85063" lon="2.2308">
        <ele>460.8</ele>
        <time>2026-06-03T14:52:25.459656954Z</time>
      </trkpt>
      <trkpt lat="42.85065" lon="2.23076">
        <ele>460.68</ele>
        <time>2026-06-03T14:52:26.366145015Z</time>
      </trkpt>
      <trkpt lat="42.85066" lon="2.23072">
        <ele>460.53</ele>
        <time>2026-06-03T14:52:27.505404949Z</time>
      </trkpt>
      <trkpt lat="42.85069" lon="2.23067">
        <ele>460.36</ele>
        <time>2026-06-03T14:52:28.524788976Z</time>
      </trkpt>
      <trkpt lat="42.8507" lon="2.23063">
        <ele>460.16</ele>
        <time>2026-06-03T14:52:29.545675993Z</time>
      </trkpt>
      <trkpt lat="42.85071" lon="2.23059">
        <ele>459.94</ele>
        <time>2026-06-03T14:52:30.595994949Z</time>
      </trkpt>
      <trkpt lat="42.85072" lon="2.23055">
        <ele>459.7</ele>
        <time>2026-06-03T14:52:31.525925040Z</time>
      </trkpt>
      <trkpt lat="42.85072" lon="2.2305">
        <ele>459.44</ele>
        <time>2026-06-03T14:52:32.459064960Z</time>
      </trkpt>
      <trkpt lat="42.85072" lon="2.23045">
        <ele>459.18</ele>
        <time>2026-06-03T14:52:33.448485017Z</time>
      </trkpt>
      <trkpt lat="42.85073" lon="2.2304">
        <ele>458.93</ele>
        <time>2026-06-03T14:52:34.436277986Z</time>
      </trkpt>
      <trkpt lat="42.85073" lon="2.23036">
        <ele>458.71</ele>
        <time>2026-06-03T14:52:35.426267028Z</time>
      </trkpt>
      <trkpt lat="42.85074" lon="2.23032">
        <ele>458.48</ele>
        <time>2026-06-03T14:52:36.365785003Z</time>
      </trkpt>
      <trkpt lat="42.85074" lon="2.2303">
        <ele>458.27</ele>
        <time>2026-06-03T14:52:37.586694956Z</time>
      </trkpt>
      <trkpt lat="42.85075" lon="2.23026">
        <ele>458.08</ele>
        <time>2026-06-03T14:52:38.546373963Z</time>
      </trkpt>
      <trkpt lat="42.85076" lon="2.23022">
        <ele>457.91</ele>
        <time>2026-06-03T14:52:39.390802026Z</time>
      </trkpt>
      <trkpt lat="42.85077" lon="2.23017">
        <ele>457.76</ele>
        <time>2026-06-03T14:52:40.464889050Z</time>
      </trkpt>
      <trkpt lat="42.85078" lon="2.23012">
        <ele>457.63</ele>
        <time>2026-06-03T14:52:41.426074982Z</time>
      </trkpt>
      <trkpt lat="42.8508" lon="2.23008">
        <ele>457.49</ele>
        <time>2026-06-03T14:52:42.536200047Z</time>
      </trkpt>
      <trkpt lat="42.85081" lon="2.23003">
        <ele>457.36</ele>
        <time>2026-06-03T14:52:43.378021002Z</time>
      </trkpt>
      <trkpt lat="42.85082" lon="2.22999">
        <ele>457.22</ele>
        <time>2026-06-03T14:52:44.516204953Z</time>
      </trkpt>
      <trkpt lat="42.85084" lon="2.22995">
        <ele>457.04</ele>
        <time>2026-06-03T14:52:45.506265044Z</time>
      </trkpt>
      <trkpt lat="42.85085" lon="2.22993">
        <ele>456.85</ele>
        <time>2026-06-03T14:52:46.645974040Z</time>
      </trkpt>
      <trkpt lat="42.85086" lon="2.22989">
        <ele>456.64</ele>
        <time>2026-06-03T14:52:47.636119008Z</time>
      </trkpt>
      <trkpt lat="42.85088" lon="2.22985">
        <ele>456.43</ele>
        <time>2026-06-03T14:52:48.626006961Z</time>
      </trkpt>
      <trkpt lat="42.85089" lon="2.22981">
        <ele>456.21</ele>
        <time>2026-06-03T14:52:49.615381002Z</time>
      </trkpt>
      <trkpt lat="42.85089" lon="2.22975">
        <ele>456.03</ele>
        <time>2026-06-03T14:52:50.606240988Z</time>
      </trkpt>
      <trkpt lat="42.85091" lon="2.22971">
        <ele>455.79</ele>
        <time>2026-06-03T14:52:51.626773Z</time>
      </trkpt>
      <trkpt lat="42.85092" lon="2.22966">
        <ele>455.58</ele>
        <time>2026-06-03T14:52:52.616050005Z</time>
      </trkpt>
      <trkpt lat="42.85093" lon="2.22963">
        <ele>455.37</ele>
        <time>2026-06-03T14:52:53.636798978Z</time>
      </trkpt>
      <trkpt lat="42.85095" lon="2.22957">
        <ele>455.13</ele>
        <time>2026-06-03T14:52:54.395939946Z</time>
      </trkpt>
      <trkpt lat="42.85096" lon="2.22953">
        <ele>454.87</ele>
        <time>2026-06-03T14:52:55.409734964Z</time>
      </trkpt>
      <trkpt lat="42.85097" lon="2.22949">
        <ele>454.59</ele>
        <time>2026-06-03T14:52:56.392317057Z</time>
      </trkpt>
      <trkpt lat="42.85098" lon="2.22945">
        <ele>454.31</ele>
        <time>2026-06-03T14:52:57.391994953Z</time>
      </trkpt>
      <trkpt lat="42.85099" lon="2.2294">
        <ele>454.03</ele>
        <time>2026-06-03T14:52:58.436372042Z</time>
      </trkpt>
      <trkpt lat="42.85099" lon="2.22935">
        <ele>453.76</ele>
        <time>2026-06-03T14:52:59.404937029Z</time>
      </trkpt>
      <trkpt lat="42.85101" lon="2.22932">
        <ele>453.48</ele>
        <time>2026-06-03T14:53:00.535706997Z</time>
      </trkpt>
      <trkpt lat="42.85102" lon="2.22927">
        <ele>453.21</ele>
        <time>2026-06-03T14:53:01.526592970Z</time>
      </trkpt>
      <trkpt lat="42.85102" lon="2.22924">
        <ele>452.93</ele>
        <time>2026-06-03T14:53:02.427034020Z</time>
      </trkpt>
      <trkpt lat="42.85102" lon="2.22921">
        <ele>452.63</ele>
        <time>2026-06-03T14:53:03.625275016Z</time>
      </trkpt>
      <trkpt lat="42.85103" lon="2.22917">
        <ele>452.38</ele>
        <time>2026-06-03T14:53:04.395841002Z</time>
      </trkpt>
      <trkpt lat="42.85104" lon="2.22913">
        <ele>452.09</ele>
        <time>2026-06-03T14:53:05.636273026Z</time>
      </trkpt>
      <trkpt lat="42.85106" lon="2.22909">
        <ele>451.79</ele>
        <time>2026-06-03T14:53:06.477686048Z</time>
      </trkpt>
      <trkpt lat="42.85106" lon="2.22905">
        <ele>451.47</ele>
        <time>2026-06-03T14:53:07.616072059Z</time>
      </trkpt>
      <trkpt lat="42.85107" lon="2.22901">
        <ele>451.14</ele>
        <time>2026-06-03T14:53:08.427252054Z</time>
      </trkpt>
      <trkpt lat="42.85108" lon="2.22897">
        <ele>450.8</ele>
        <time>2026-06-03T14:53:09.400925040Z</time>
      </trkpt>
      <trkpt lat="42.85107" lon="2.22892">
        <ele>450.48</ele>
        <time>2026-06-03T14:53:10.474730968Z</time>
      </trkpt>
      <trkpt lat="42.85108" lon="2.22886">
        <ele>450.15</ele>
        <time>2026-06-03T14:53:11.538651943Z</time>
      </trkpt>
      <trkpt lat="42.85108" lon="2.22881">
        <ele>449.83</ele>
        <time>2026-06-03T14:53:12.612558007Z</time>
      </trkpt>
      <trkpt lat="42.85108" lon="2.22876">
        <ele>449.54</ele>
        <time>2026-06-03T14:53:13.646172047Z</time>
      </trkpt>
      <trkpt lat="42.85108" lon="2.22872">
        <ele>449.25</ele>
        <time>2026-06-03T14:53:14.488224983Z</time>
      </trkpt>
      <trkpt lat="42.85108" lon="2.22869">
        <ele>448.95</ele>
        <time>2026-06-03T14:53:15.626255035Z</time>
      </trkpt>
      <trkpt lat="42.85108" lon="2.22862">
        <ele>448.33</ele>
        <time>2026-06-03T14:53:17.606040001Z</time>
      </trkpt>
      <trkpt lat="42.85108" lon="2.2286">
        <ele>448</ele>
        <time>2026-06-03T14:53:18.566051960Z</time>
      </trkpt>
      <trkpt lat="42.85109" lon="2.22852">
        <ele>447.41</ele>
        <time>2026-06-03T14:53:20.458438039Z</time>
      </trkpt>
      <trkpt lat="42.85109" lon="2.22851">
        <ele>447.41</ele>
        <time>2026-06-03T14:53:21.596493006Z</time>
      </trkpt>
      <trkpt lat="42.85109" lon="2.22846">
        <ele>446.61</ele>
        <time>2026-06-03T14:53:23.426336050Z</time>
      </trkpt>
      <trkpt lat="42.85109" lon="2.22845">
        <ele>446.61</ele>
        <time>2026-06-03T14:53:24.411159039Z</time>
      </trkpt>
      <trkpt lat="42.85109" lon="2.22844">
        <ele>446.14</ele>
        <time>2026-06-03T14:53:25.469807029Z</time>
      </trkpt>
      <trkpt lat="42.85109" lon="2.22842">
        <ele>445.91</ele>
        <time>2026-06-03T14:53:26.486196995Z</time>
      </trkpt>
      <trkpt lat="42.85108" lon="2.22839">
        <ele>445.68</ele>
        <time>2026-06-03T14:53:27.423524976Z</time>
      </trkpt>
      <trkpt lat="42.85109" lon="2.22836">
        <ele>445.45</ele>
        <time>2026-06-03T14:53:28.498674035Z</time>
      </trkpt>
      <trkpt lat="42.85109" lon="2.22834">
        <ele>445.21</ele>
        <time>2026-06-03T14:53:29.487915039Z</time>
      </trkpt>
      <trkpt lat="42.85109" lon="2.22831">
        <ele>444.96</ele>
        <time>2026-06-03T14:53:30.475370049Z</time>
      </trkpt>
      <trkpt lat="42.8511" lon="2.22828">
        <ele>444.69</ele>
        <time>2026-06-03T14:53:31.468209028Z</time>
      </trkpt>
      <trkpt lat="42.8511" lon="2.22825">
        <ele>444.4</ele>
        <time>2026-06-03T14:53:32.486178994Z</time>
      </trkpt>
      <trkpt lat="42.85111" lon="2.22819">
        <ele>444.07</ele>
        <time>2026-06-03T14:53:33.506526947Z</time>
      </trkpt>
      <trkpt lat="42.85111" lon="2.22813">
        <ele>443.79</ele>
        <time>2026-06-03T14:53:34.496690989Z</time>
      </trkpt>
      <trkpt lat="42.85113" lon="2.22808">
        <ele>443.49</ele>
        <time>2026-06-03T14:53:35.486328006Z</time>
      </trkpt>
      <trkpt lat="42.85114" lon="2.228">
        <ele>443.16</ele>
        <time>2026-06-03T14:53:36.506193042Z</time>
      </trkpt>
      <trkpt lat="42.85114" lon="2.22793">
        <ele>442.8</ele>
        <time>2026-06-03T14:53:37.588238955Z</time>
      </trkpt>
      <trkpt lat="42.85115" lon="2.22785">
        <ele>442.43</ele>
        <time>2026-06-03T14:53:38.608250022Z</time>
      </trkpt>
      <trkpt lat="42.85116" lon="2.22781">
        <ele>442.04</ele>
        <time>2026-06-03T14:53:39.597332954Z</time>
      </trkpt>
      <trkpt lat="42.85116" lon="2.22776">
        <ele>441.64</ele>
        <time>2026-06-03T14:53:40.474521041Z</time>
      </trkpt>
      <trkpt lat="42.85117" lon="2.22765">
        <ele>441.24</ele>
        <time>2026-06-03T14:53:41.548771977Z</time>
      </trkpt>
      <trkpt lat="42.85118" lon="2.22759">
        <ele>440.83</ele>
        <time>2026-06-03T14:53:42.622691989Z</time>
      </trkpt>
      <trkpt lat="42.85118" lon="2.22752">
        <ele>440.42</ele>
        <time>2026-06-03T14:53:43.616858006Z</time>
      </trkpt>
      <trkpt lat="42.85118" lon="2.22744">
        <ele>440.03</ele>
        <time>2026-06-03T14:53:44.606299996Z</time>
      </trkpt>
      <trkpt lat="42.85119" lon="2.22736">
        <ele>439.82</ele>
        <time>2026-06-03T14:53:45.596047044Z</time>
      </trkpt>
      <trkpt lat="42.85119" lon="2.22729">
        <ele>439.62</ele>
        <time>2026-06-03T14:53:46.496649981Z</time>
      </trkpt>
      <trkpt lat="42.85119" lon="2.22722">
        <ele>439.41</ele>
        <time>2026-06-03T14:53:47.607221961Z</time>
      </trkpt>
      <trkpt lat="42.85119" lon="2.22714">
        <ele>439.19</ele>
        <time>2026-06-03T14:53:48.597409964Z</time>
      </trkpt>
      <trkpt lat="42.85118" lon="2.22707">
        <ele>439.01</ele>
        <time>2026-06-03T14:53:49.617089033Z</time>
      </trkpt>
      <trkpt lat="42.8512" lon="2.22702">
        <ele>438.82</ele>
        <time>2026-06-03T14:53:50.607707024Z</time>
      </trkpt>
      <trkpt lat="42.85121" lon="2.22696">
        <ele>438.61</ele>
        <time>2026-06-03T14:53:51.568588972Z</time>
      </trkpt>
      <trkpt lat="42.85124" lon="2.22689">
        <ele>438.37</ele>
        <time>2026-06-03T14:53:52.617095947Z</time>
      </trkpt>
      <trkpt lat="42.85123" lon="2.22684">
        <ele>438.12</ele>
        <time>2026-06-03T14:53:53.607028008Z</time>
      </trkpt>
      <trkpt lat="42.85124" lon="2.22678">
        <ele>437.89</ele>
        <time>2026-06-03T14:53:54.405812025Z</time>
      </trkpt>
      <trkpt lat="42.85124" lon="2.22672">
        <ele>437.62</ele>
        <time>2026-06-03T14:53:55.369660974Z</time>
      </trkpt>
      <trkpt lat="42.85124" lon="2.22666">
        <ele>437.36</ele>
        <time>2026-06-03T14:53:56.553907037Z</time>
      </trkpt>
      <trkpt lat="42.85123" lon="2.22659">
        <ele>437.09</ele>
        <time>2026-06-03T14:53:57.446846008Z</time>
      </trkpt>
      <trkpt lat="42.85124" lon="2.22652">
        <ele>436.8</ele>
        <time>2026-06-03T14:53:58.468137026Z</time>
      </trkpt>
      <trkpt lat="42.85124" lon="2.22647">
        <ele>436.49</ele>
        <time>2026-06-03T14:53:59.487563968Z</time>
      </trkpt>
      <trkpt lat="42.85124" lon="2.22641">
        <ele>436.22</ele>
        <time>2026-06-03T14:54:00.476673961Z</time>
      </trkpt>
      <trkpt lat="42.85125" lon="2.22635">
        <ele>435.96</ele>
        <time>2026-06-03T14:54:01.467319012Z</time>
      </trkpt>
      <trkpt lat="42.85126" lon="2.22629">
        <ele>435.71</ele>
        <time>2026-06-03T14:54:02.456115961Z</time>
      </trkpt>
      <trkpt lat="42.85126" lon="2.22624">
        <ele>435.48</ele>
        <time>2026-06-03T14:54:03.482877016Z</time>
      </trkpt>
      <trkpt lat="42.85127" lon="2.22618">
        <ele>435.28</ele>
        <time>2026-06-03T14:54:04.466235042Z</time>
      </trkpt>
      <trkpt lat="42.85128" lon="2.22612">
        <ele>435.08</ele>
        <time>2026-06-03T14:54:05.485816956Z</time>
      </trkpt>
      <trkpt lat="42.85129" lon="2.22605">
        <ele>434.86</ele>
        <time>2026-06-03T14:54:06.477131963Z</time>
      </trkpt>
      <trkpt lat="42.8513" lon="2.22599">
        <ele>434.62</ele>
        <time>2026-06-03T14:54:07.469215989Z</time>
      </trkpt>
      <trkpt lat="42.85131" lon="2.22592">
        <ele>434.38</ele>
        <time>2026-06-03T14:54:08.337018967Z</time>
      </trkpt>
      <trkpt lat="42.85132" lon="2.22586">
        <ele>434.12</ele>
        <time>2026-06-03T14:54:09.411082029Z</time>
      </trkpt>
      <trkpt lat="42.85133" lon="2.2258">
        <ele>433.89</ele>
        <time>2026-06-03T14:54:10.466171980Z</time>
      </trkpt>
      <trkpt lat="42.85134" lon="2.22573">
        <ele>433.65</ele>
        <time>2026-06-03T14:54:11.458479047Z</time>
      </trkpt>
      <trkpt lat="42.85135" lon="2.22566">
        <ele>433.43</ele>
        <time>2026-06-03T14:54:12.476076961Z</time>
      </trkpt>
      <trkpt lat="42.85136" lon="2.2256">
        <ele>433.19</ele>
        <time>2026-06-03T14:54:13.469578981Z</time>
      </trkpt>
      <trkpt lat="42.85138" lon="2.22554">
        <ele>432.95</ele>
        <time>2026-06-03T14:54:14.486348987Z</time>
      </trkpt>
      <trkpt lat="42.8514" lon="2.22546">
        <ele>432.71</ele>
        <time>2026-06-03T14:54:15.476614952Z</time>
      </trkpt>
      <trkpt lat="42.85141" lon="2.2254">
        <ele>432.45</ele>
        <time>2026-06-03T14:54:16.468570948Z</time>
      </trkpt>
      <trkpt lat="42.85143" lon="2.22533">
        <ele>432.17</ele>
        <time>2026-06-03T14:54:17.458554983Z</time>
      </trkpt>
      <trkpt lat="42.85145" lon="2.22527">
        <ele>431.88</ele>
        <time>2026-06-03T14:54:18.477602005Z</time>
      </trkpt>
      <trkpt lat="42.85146" lon="2.22523">
        <ele>431.62</ele>
        <time>2026-06-03T14:54:19.468382001Z</time>
      </trkpt>
      <trkpt lat="42.85147" lon="2.22516">
        <ele>431.37</ele>
        <time>2026-06-03T14:54:20.486868978Z</time>
      </trkpt>
      <trkpt lat="42.85149" lon="2.2251">
        <ele>431.11</ele>
        <time>2026-06-03T14:54:21.478535056Z</time>
      </trkpt>
      <trkpt lat="42.8515" lon="2.22504">
        <ele>430.84</ele>
        <time>2026-06-03T14:54:22.466644049Z</time>
      </trkpt>
      <trkpt lat="42.85151" lon="2.22498">
        <ele>430.57</ele>
        <time>2026-06-03T14:54:23.487766981Z</time>
      </trkpt>
      <trkpt lat="42.85152" lon="2.22492">
        <ele>430.29</ele>
        <time>2026-06-03T14:54:24.429643035Z</time>
      </trkpt>
      <trkpt lat="42.85154" lon="2.22486">
        <ele>430.01</ele>
        <time>2026-06-03T14:54:25.466483951Z</time>
      </trkpt>
      <trkpt lat="42.85155" lon="2.22481">
        <ele>429.74</ele>
        <time>2026-06-03T14:54:26.456830025Z</time>
      </trkpt>
      <trkpt lat="42.85156" lon="2.22475">
        <ele>429.48</ele>
        <time>2026-06-03T14:54:27.479053020Z</time>
      </trkpt>
      <trkpt lat="42.85156" lon="2.22469">
        <ele>429.25</ele>
        <time>2026-06-03T14:54:28.468068957Z</time>
      </trkpt>
      <trkpt lat="42.85155" lon="2.22463">
        <ele>429.02</ele>
        <time>2026-06-03T14:54:29.488355041Z</time>
      </trkpt>
      <trkpt lat="42.85155" lon="2.22456">
        <ele>428.81</ele>
        <time>2026-06-03T14:54:30.479122043Z</time>
      </trkpt>
      <trkpt lat="42.85154" lon="2.22449">
        <ele>428.62</ele>
        <time>2026-06-03T14:54:31.467126966Z</time>
      </trkpt>
      <trkpt lat="42.85151" lon="2.22443">
        <ele>428.42</ele>
        <time>2026-06-03T14:54:32.458101988Z</time>
      </trkpt>
      <trkpt lat="42.8515" lon="2.22436">
        <ele>428.23</ele>
        <time>2026-06-03T14:54:33.476963997Z</time>
      </trkpt>
      <trkpt lat="42.85148" lon="2.22431">
        <ele>428.06</ele>
        <time>2026-06-03T14:54:34.498139977Z</time>
      </trkpt>
      <trkpt lat="42.85145" lon="2.22425">
        <ele>427.88</ele>
        <time>2026-06-03T14:54:35.460126996Z</time>
      </trkpt>
      <trkpt lat="42.85144" lon="2.2242">
        <ele>427.67</ele>
        <time>2026-06-03T14:54:36.477210045Z</time>
      </trkpt>
      <trkpt lat="42.85141" lon="2.22413">
        <ele>427.48</ele>
        <time>2026-06-03T14:54:37.497249961Z</time>
      </trkpt>
      <trkpt lat="42.85138" lon="2.22407">
        <ele>427.29</ele>
        <time>2026-06-03T14:54:38.347522020Z</time>
      </trkpt>
      <trkpt lat="42.85136" lon="2.22401">
        <ele>427.1</ele>
        <time>2026-06-03T14:54:39.421462059Z</time>
      </trkpt>
      <trkpt lat="42.85133" lon="2.22396">
        <ele>426.9</ele>
        <time>2026-06-03T14:54:40.468265057Z</time>
      </trkpt>
      <trkpt lat="42.8513" lon="2.2239">
        <ele>426.69</ele>
        <time>2026-06-03T14:54:41.459815025Z</time>
      </trkpt>
      <trkpt lat="42.85128" lon="2.22384">
        <ele>426.48</ele>
        <time>2026-06-03T14:54:42.633157969Z</time>
      </trkpt>
      <trkpt lat="42.85125" lon="2.22377">
        <ele>426.26</ele>
        <time>2026-06-03T14:54:43.368039966Z</time>
      </trkpt>
      <trkpt lat="42.85123" lon="2.22372">
        <ele>426.04</ele>
        <time>2026-06-03T14:54:44.345875025Z</time>
      </trkpt>
      <trkpt lat="42.85121" lon="2.22364">
        <ele>425.82</ele>
        <time>2026-06-03T14:54:45.628224969Z</time>
      </trkpt>
      <trkpt lat="42.85118" lon="2.22358">
        <ele>425.59</ele>
        <time>2026-06-03T14:54:46.397328019Z</time>
      </trkpt>
      <trkpt lat="42.85117" lon="2.22352">
        <ele>425.36</ele>
        <time>2026-06-03T14:54:47.369308949Z</time>
      </trkpt>
      <trkpt lat="42.85114" lon="2.22347">
        <ele>425.13</ele>
        <time>2026-06-03T14:54:48.659582973Z</time>
      </trkpt>
      <trkpt lat="42.85111" lon="2.2234">
        <ele>424.92</ele>
        <time>2026-06-03T14:54:49.648357034Z</time>
      </trkpt>
      <trkpt lat="42.85109" lon="2.22335">
        <ele>424.7</ele>
        <time>2026-06-03T14:54:50.389279008Z</time>
      </trkpt>
      <trkpt lat="42.85107" lon="2.2233">
        <ele>424.45</ele>
        <time>2026-06-03T14:54:51.628438950Z</time>
      </trkpt>
      <trkpt lat="42.85106" lon="2.22324">
        <ele>424.18</ele>
        <time>2026-06-03T14:54:52.408416033Z</time>
      </trkpt>
      <trkpt lat="42.85104" lon="2.22317">
        <ele>423.91</ele>
        <time>2026-06-03T14:54:53.637539029Z</time>
      </trkpt>
      <trkpt lat="42.85104" lon="2.2231">
        <ele>423.62</ele>
        <time>2026-06-03T14:54:54.420963049Z</time>
      </trkpt>
      <trkpt lat="42.85104" lon="2.22303">
        <ele>423.34</ele>
        <time>2026-06-03T14:54:55.389783978Z</time>
      </trkpt>
      <trkpt lat="42.85104" lon="2.22296">
        <ele>423.06</ele>
        <time>2026-06-03T14:54:56.564483047Z</time>
      </trkpt>
      <trkpt lat="42.85104" lon="2.22289">
        <ele>422.79</ele>
        <time>2026-06-03T14:54:57.638548017Z</time>
      </trkpt>
      <trkpt lat="42.85103" lon="2.22283">
        <ele>422.52</ele>
        <time>2026-06-03T14:54:58.648452997Z</time>
      </trkpt>
      <trkpt lat="42.85103" lon="2.22276">
        <ele>422.26</ele>
        <time>2026-06-03T14:54:59.405809999Z</time>
      </trkpt>
      <trkpt lat="42.85103" lon="2.2227">
        <ele>422.01</ele>
        <time>2026-06-03T14:55:00.450253010Z</time>
      </trkpt>
      <trkpt lat="42.85102" lon="2.22263">
        <ele>421.77</ele>
        <time>2026-06-03T14:55:01.438866973Z</time>
      </trkpt>
      <trkpt lat="42.85102" lon="2.22257">
        <ele>421.53</ele>
        <time>2026-06-03T14:55:02.427345991Z</time>
      </trkpt>
      <trkpt lat="42.85102" lon="2.22251">
        <ele>421.29</ele>
        <time>2026-06-03T14:55:03.448657036Z</time>
      </trkpt>
      <trkpt lat="42.85102" lon="2.22245">
        <ele>421.08</ele>
        <time>2026-06-03T14:55:04.468729019Z</time>
      </trkpt>
      <trkpt lat="42.85102" lon="2.22239">
        <ele>420.87</ele>
        <time>2026-06-03T14:55:05.638630986Z</time>
      </trkpt>
      <trkpt lat="42.85102" lon="2.22232">
        <ele>420.66</ele>
        <time>2026-06-03T14:55:06.568024993Z</time>
      </trkpt>
      <trkpt lat="42.85102" lon="2.22226">
        <ele>420.43</ele>
        <time>2026-06-03T14:55:07.527789950Z</time>
      </trkpt>
      <trkpt lat="42.85101" lon="2.22219">
        <ele>420.2</ele>
        <time>2026-06-03T14:55:08.550758958Z</time>
      </trkpt>
      <trkpt lat="42.85101" lon="2.22213">
        <ele>419.98</ele>
        <time>2026-06-03T14:55:09.421574950Z</time>
      </trkpt>
      <trkpt lat="42.851" lon="2.22207">
        <ele>419.75</ele>
        <time>2026-06-03T14:55:10.495476007Z</time>
      </trkpt>
      <trkpt lat="42.85099" lon="2.22202">
        <ele>419.51</ele>
        <time>2026-06-03T14:55:11.398916960Z</time>
      </trkpt>
      <trkpt lat="42.85099" lon="2.22196">
        <ele>419.26</ele>
        <time>2026-06-03T14:55:12.570050955Z</time>
      </trkpt>
      <trkpt lat="42.85099" lon="2.22191">
        <ele>419</ele>
        <time>2026-06-03T14:55:13.648754001Z</time>
      </trkpt>
      <trkpt lat="42.85099" lon="2.22185">
        <ele>418.75</ele>
        <time>2026-06-03T14:55:14.422402978Z</time>
      </trkpt>
      <trkpt lat="42.85099" lon="2.22179">
        <ele>418.5</ele>
        <time>2026-06-03T14:55:15.389654040Z</time>
      </trkpt>
      <trkpt lat="42.851" lon="2.22172">
        <ele>418.24</ele>
        <time>2026-06-03T14:55:16.648635983Z</time>
      </trkpt>
      <trkpt lat="42.851" lon="2.22166">
        <ele>417.98</ele>
        <time>2026-06-03T14:55:17.369474053Z</time>
      </trkpt>
      <trkpt lat="42.851" lon="2.22158">
        <ele>417.74</ele>
        <time>2026-06-03T14:55:18.420477033Z</time>
      </trkpt>
      <trkpt lat="42.85099" lon="2.22151">
        <ele>417.54</ele>
        <time>2026-06-03T14:55:19.648921967Z</time>
      </trkpt>
      <trkpt lat="42.85098" lon="2.22144">
        <ele>417.33</ele>
        <time>2026-06-03T14:55:20.489107013Z</time>
      </trkpt>
      <trkpt lat="42.85097" lon="2.22136">
        <ele>417.11</ele>
        <time>2026-06-03T14:55:21.628782988Z</time>
      </trkpt>
      <trkpt lat="42.85095" lon="2.22131">
        <ele>416.88</ele>
        <time>2026-06-03T14:55:22.618739963Z</time>
      </trkpt>
      <trkpt lat="42.85094" lon="2.22123">
        <ele>416.66</ele>
        <time>2026-06-03T14:55:23.669000030Z</time>
      </trkpt>
      <trkpt lat="42.85093" lon="2.22118">
        <ele>416.43</ele>
        <time>2026-06-03T14:55:24.426519036Z</time>
      </trkpt>
      <trkpt lat="42.85094" lon="2.22112">
        <ele>416.17</ele>
        <time>2026-06-03T14:55:25.500388026Z</time>
      </trkpt>
      <trkpt lat="42.85093" lon="2.22105">
        <ele>415.95</ele>
        <time>2026-06-03T14:55:26.574385047Z</time>
      </trkpt>
      <trkpt lat="42.85092" lon="2.22099">
        <ele>415.72</ele>
        <time>2026-06-03T14:55:27.638244033Z</time>
      </trkpt>
      <trkpt lat="42.8509" lon="2.22093">
        <ele>415.48</ele>
        <time>2026-06-03T14:55:28.648957968Z</time>
      </trkpt>
      <trkpt lat="42.85088" lon="2.22088">
        <ele>415.24</ele>
        <time>2026-06-03T14:55:29.638967991Z</time>
      </trkpt>
      <trkpt lat="42.85085" lon="2.22084">
        <ele>414.98</ele>
        <time>2026-06-03T14:55:30.660151958Z</time>
      </trkpt>
      <trkpt lat="42.85082" lon="2.22081">
        <ele>414.72</ele>
        <time>2026-06-03T14:55:31.649052024Z</time>
      </trkpt>
      <trkpt lat="42.85078" lon="2.22077">
        <ele>414.46</ele>
        <time>2026-06-03T14:55:32.668938041Z</time>
      </trkpt>
      <trkpt lat="42.85075" lon="2.22072">
        <ele>414.2</ele>
        <time>2026-06-03T14:55:33.659144998Z</time>
      </trkpt>
      <trkpt lat="42.85072" lon="2.22067">
        <ele>413.97</ele>
        <time>2026-06-03T14:55:34.649219990Z</time>
      </trkpt>
      <trkpt lat="42.85069" lon="2.22062">
        <ele>413.73</ele>
        <time>2026-06-03T14:55:35.639080048Z</time>
      </trkpt>
      <trkpt lat="42.85067" lon="2.22055">
        <ele>413.48</ele>
        <time>2026-06-03T14:55:36.629220009Z</time>
      </trkpt>
      <trkpt lat="42.85065" lon="2.22049">
        <ele>413.24</ele>
        <time>2026-06-03T14:55:37.648975015Z</time>
      </trkpt>
      <trkpt lat="42.85065" lon="2.22042">
        <ele>412.98</ele>
        <time>2026-06-03T14:55:38.461665034Z</time>
      </trkpt>
      <trkpt lat="42.85065" lon="2.22035">
        <ele>412.73</ele>
        <time>2026-06-03T14:55:39.431437969Z</time>
      </trkpt>
      <trkpt lat="42.85065" lon="2.22027">
        <ele>412.46</ele>
        <time>2026-06-03T14:55:40.505318046Z</time>
      </trkpt>
      <trkpt lat="42.85067" lon="2.22021">
        <ele>412.2</ele>
        <time>2026-06-03T14:55:41.569272041Z</time>
      </trkpt>
      <trkpt lat="42.85069" lon="2.22014">
        <ele>411.94</ele>
        <time>2026-06-03T14:55:42.643136978Z</time>
      </trkpt>
      <trkpt lat="42.85069" lon="2.22007">
        <ele>411.68</ele>
        <time>2026-06-03T14:55:43.648444057Z</time>
      </trkpt>
      <trkpt lat="42.85072" lon="2.22001">
        <ele>411.43</ele>
        <time>2026-06-03T14:55:44.638550997Z</time>
      </trkpt>
      <trkpt lat="42.85072" lon="2.21995">
        <ele>411.04</ele>
        <time>2026-06-03T14:55:45.659572005Z</time>
      </trkpt>
      <trkpt lat="42.85075" lon="2.21988">
        <ele>410.68</ele>
        <time>2026-06-03T14:55:46.649592042Z</time>
      </trkpt>
      <trkpt lat="42.85077" lon="2.21982">
        <ele>410.34</ele>
        <time>2026-06-03T14:55:47.639780045Z</time>
      </trkpt>
      <trkpt lat="42.85078" lon="2.21975">
        <ele>410.04</ele>
        <time>2026-06-03T14:55:48.659456968Z</time>
      </trkpt>
      <trkpt lat="42.85079" lon="2.21969">
        <ele>409.77</ele>
        <time>2026-06-03T14:55:49.649466991Z</time>
      </trkpt>
      <trkpt lat="42.8508" lon="2.21962">
        <ele>409.53</ele>
        <time>2026-06-03T14:55:50.639549017Z</time>
      </trkpt>
      <trkpt lat="42.8508" lon="2.21955">
        <ele>409.3</ele>
        <time>2026-06-03T14:55:51.629572988Z</time>
      </trkpt>
      <trkpt lat="42.85081" lon="2.21947">
        <ele>409.09</ele>
        <time>2026-06-03T14:55:52.681265950Z</time>
      </trkpt>
      <trkpt lat="42.85081" lon="2.2194">
        <ele>408.87</ele>
        <time>2026-06-03T14:55:53.362297058Z</time>
      </trkpt>
      <trkpt lat="42.85083" lon="2.21934">
        <ele>408.67</ele>
        <time>2026-06-03T14:55:54.436334014Z</time>
      </trkpt>
      <trkpt lat="42.85084" lon="2.21927">
        <ele>408.47</ele>
        <time>2026-06-03T14:55:55.510221958Z</time>
      </trkpt>
      <trkpt lat="42.85085" lon="2.2192">
        <ele>408.28</ele>
        <time>2026-06-03T14:55:56.445619941Z</time>
      </trkpt>
      <trkpt lat="42.85085" lon="2.21912">
        <ele>408.08</ele>
        <time>2026-06-03T14:55:57.417256951Z</time>
      </trkpt>
      <trkpt lat="42.85086" lon="2.21906">
        <ele>407.89</ele>
        <time>2026-06-03T14:55:58.379281998Z</time>
      </trkpt>
      <trkpt lat="42.85087" lon="2.219">
        <ele>407.69</ele>
        <time>2026-06-03T14:55:59.657047987Z</time>
      </trkpt>
      <trkpt lat="42.85088" lon="2.21893">
        <ele>407.48</ele>
        <time>2026-06-03T14:56:00.391098022Z</time>
      </trkpt>
      <trkpt lat="42.85089" lon="2.21887">
        <ele>407.26</ele>
        <time>2026-06-03T14:56:01.679816008Z</time>
      </trkpt>
      <trkpt lat="42.85091" lon="2.21882">
        <ele>407.04</ele>
        <time>2026-06-03T14:56:02.670137048Z</time>
      </trkpt>
      <trkpt lat="42.85093" lon="2.21877">
        <ele>406.8</ele>
        <time>2026-06-03T14:56:03.391626Z</time>
      </trkpt>
      <trkpt lat="42.85095" lon="2.21872">
        <ele>406.6</ele>
        <time>2026-06-03T14:56:04.424798965Z</time>
      </trkpt>
      <trkpt lat="42.85097" lon="2.21867">
        <ele>406.4</ele>
        <time>2026-06-03T14:56:05.399981976Z</time>
      </trkpt>
      <trkpt lat="42.85099" lon="2.21863">
        <ele>406.19</ele>
        <time>2026-06-03T14:56:06.659984946Z</time>
      </trkpt>
      <trkpt lat="42.851" lon="2.21858">
        <ele>405.99</ele>
        <time>2026-06-03T14:56:07.679903984Z</time>
      </trkpt>
      <trkpt lat="42.85101" lon="2.21853">
        <ele>405.78</ele>
        <time>2026-06-03T14:56:08.367228031Z</time>
      </trkpt>
      <trkpt lat="42.85101" lon="2.21846">
        <ele>405.56</ele>
        <time>2026-06-03T14:56:09.441154003Z</time>
      </trkpt>
      <trkpt lat="42.851" lon="2.21841">
        <ele>405.35</ele>
        <time>2026-06-03T14:56:10.504866004Z</time>
      </trkpt>
      <trkpt lat="42.85099" lon="2.21835">
        <ele>405.13</ele>
        <time>2026-06-03T14:56:11.383991957Z</time>
      </trkpt>
      <trkpt lat="42.85098" lon="2.2183">
        <ele>404.9</ele>
        <time>2026-06-03T14:56:12.652752995Z</time>
      </trkpt>
      <trkpt lat="42.85096" lon="2.21824">
        <ele>404.67</ele>
        <time>2026-06-03T14:56:13.471057057Z</time>
      </trkpt>
      <trkpt lat="42.85094" lon="2.21819">
        <ele>404.45</ele>
        <time>2026-06-03T14:56:14.640087962Z</time>
      </trkpt>
      <trkpt lat="42.85093" lon="2.21814">
        <ele>404.22</ele>
        <time>2026-06-03T14:56:15.359927058Z</time>
      </trkpt>
      <trkpt lat="42.85091" lon="2.21807">
        <ele>403.99</ele>
        <time>2026-06-03T14:56:16.407824993Z</time>
      </trkpt>
      <trkpt lat="42.8509" lon="2.218">
        <ele>403.78</ele>
        <time>2026-06-03T14:56:17.670007944Z</time>
      </trkpt>
      <trkpt lat="42.85089" lon="2.21794">
        <ele>403.57</ele>
        <time>2026-06-03T14:56:18.660089016Z</time>
      </trkpt>
      <trkpt lat="42.85089" lon="2.21786">
        <ele>403.39</ele>
        <time>2026-06-03T14:56:19.650563955Z</time>
      </trkpt>
      <trkpt lat="42.8509" lon="2.21779">
        <ele>403.2</ele>
        <time>2026-06-03T14:56:20.389626980Z</time>
      </trkpt>
      <trkpt lat="42.8509" lon="2.21773">
        <ele>403.02</ele>
        <time>2026-06-03T14:56:21.690436959Z</time>
      </trkpt>
      <trkpt lat="42.85091" lon="2.21766">
        <ele>402.81</ele>
        <time>2026-06-03T14:56:22.679811954Z</time>
      </trkpt>
      <trkpt lat="42.85091" lon="2.2176">
        <ele>402.62</ele>
        <time>2026-06-03T14:56:23.670428038Z</time>
      </trkpt>
      <trkpt lat="42.85091" lon="2.21753">
        <ele>402.41</ele>
        <time>2026-06-03T14:56:24.446004033Z</time>
      </trkpt>
      <trkpt lat="42.85089" lon="2.21747">
        <ele>402.21</ele>
        <time>2026-06-03T14:56:25.389722943Z</time>
      </trkpt>
      <trkpt lat="42.85087" lon="2.21742">
        <ele>402.01</ele>
        <time>2026-06-03T14:56:26.370553970Z</time>
      </trkpt>
      <trkpt lat="42.85085" lon="2.21735">
        <ele>401.82</ele>
        <time>2026-06-03T14:56:27.657677054Z</time>
      </trkpt>
      <trkpt lat="42.85083" lon="2.21729">
        <ele>401.62</ele>
        <time>2026-06-03T14:56:28.650421023Z</time>
      </trkpt>
      <trkpt lat="42.85083" lon="2.21723">
        <ele>401.41</ele>
        <time>2026-06-03T14:56:29.670470953Z</time>
      </trkpt>
      <trkpt lat="42.85083" lon="2.21717">
        <ele>401.2</ele>
        <time>2026-06-03T14:56:30.569826007Z</time>
      </trkpt>
      <trkpt lat="42.85084" lon="2.2171">
        <ele>400.97</ele>
        <time>2026-06-03T14:56:31.680533051Z</time>
      </trkpt>
      <trkpt lat="42.85085" lon="2.21704">
        <ele>400.7</ele>
        <time>2026-06-03T14:56:32.670328021Z</time>
      </trkpt>
      <trkpt lat="42.85085" lon="2.21697">
        <ele>400.42</ele>
        <time>2026-06-03T14:56:33.661003947Z</time>
      </trkpt>
      <trkpt lat="42.85085" lon="2.21691">
        <ele>400.18</ele>
        <time>2026-06-03T14:56:34.650567055Z</time>
      </trkpt>
      <trkpt lat="42.85085" lon="2.21686">
        <ele>399.92</ele>
        <time>2026-06-03T14:56:35.670881033Z</time>
      </trkpt>
      <trkpt lat="42.85084" lon="2.2168">
        <ele>399.64</ele>
        <time>2026-06-03T14:56:36.660480022Z</time>
      </trkpt>
      <trkpt lat="42.85084" lon="2.21674">
        <ele>399.32</ele>
        <time>2026-06-03T14:56:37.680503964Z</time>
      </trkpt>
      <trkpt lat="42.85084" lon="2.21669">
        <ele>398.97</ele>
        <time>2026-06-03T14:56:38.669996977Z</time>
      </trkpt>
      <trkpt lat="42.85084" lon="2.21663">
        <ele>398.61</ele>
        <time>2026-06-03T14:56:39.440850019Z</time>
      </trkpt>
      <trkpt lat="42.85084" lon="2.21657">
        <ele>398.22</ele>
        <time>2026-06-03T14:56:40.514631987Z</time>
      </trkpt>
      <trkpt lat="42.85083" lon="2.2165">
        <ele>397.81</ele>
        <time>2026-06-03T14:56:41.588606Z</time>
      </trkpt>
      <trkpt lat="42.85083" lon="2.21643">
        <ele>397.41</ele>
        <time>2026-06-03T14:56:42.660019994Z</time>
      </trkpt>
      <trkpt lat="42.85083" lon="2.21637">
        <ele>397.04</ele>
        <time>2026-06-03T14:56:43.650697947Z</time>
      </trkpt>
      <trkpt lat="42.85083" lon="2.2163">
        <ele>396.65</ele>
        <time>2026-06-03T14:56:44.670719981Z</time>
      </trkpt>
      <trkpt lat="42.85083" lon="2.21623">
        <ele>396.1</ele>
        <time>2026-06-03T14:56:45.690919995Z</time>
      </trkpt>
      <trkpt lat="42.85083" lon="2.21617">
        <ele>395.56</ele>
        <time>2026-06-03T14:56:46.680804014Z</time>
      </trkpt>
      <trkpt lat="42.85083" lon="2.2161">
        <ele>395.05</ele>
        <time>2026-06-03T14:56:47.671054006Z</time>
      </trkpt>
      <trkpt lat="42.85083" lon="2.21605">
        <ele>394.53</ele>
        <time>2026-06-03T14:56:48.540336967Z</time>
      </trkpt>
      <trkpt lat="42.85085" lon="2.216">
        <ele>394.08</ele>
        <time>2026-06-03T14:56:49.502514958Z</time>
      </trkpt>
      <trkpt lat="42.85084" lon="2.21595">
        <ele>393.66</ele>
        <time>2026-06-03T14:56:50.550377011Z</time>
      </trkpt>
      <trkpt lat="42.85083" lon="2.2159">
        <ele>393.23</ele>
        <time>2026-06-03T14:56:51.569887996Z</time>
      </trkpt>
      <trkpt lat="42.85082" lon="2.21585">
        <ele>392.8</ele>
        <time>2026-06-03T14:56:52.650699973Z</time>
      </trkpt>
      <trkpt lat="42.8508" lon="2.2158">
        <ele>392.39</ele>
        <time>2026-06-03T14:56:53.670490026Z</time>
      </trkpt>
      <trkpt lat="42.85079" lon="2.21575">
        <ele>392</ele>
        <time>2026-06-03T14:56:54.445451021Z</time>
      </trkpt>
      <trkpt lat="42.85078" lon="2.2157">
        <ele>391.62</ele>
        <time>2026-06-03T14:56:55.411038041Z</time>
      </trkpt>
      <trkpt lat="42.85078" lon="2.21565">
        <ele>391.25</ele>
        <time>2026-06-03T14:56:56.593340039Z</time>
      </trkpt>
      <trkpt lat="42.85077" lon="2.2156">
        <ele>390.89</ele>
        <time>2026-06-03T14:56:57.657142997Z</time>
      </trkpt>
      <trkpt lat="42.85077" lon="2.21556">
        <ele>390.53</ele>
        <time>2026-06-03T14:56:58.680104017Z</time>
      </trkpt>
      <trkpt lat="42.85078" lon="2.21552">
        <ele>390.18</ele>
        <time>2026-06-03T14:56:59.431177974Z</time>
      </trkpt>
      <trkpt lat="42.85078" lon="2.21548">
        <ele>389.83</ele>
        <time>2026-06-03T14:57:00.721037984Z</time>
      </trkpt>
      <trkpt lat="42.85079" lon="2.21544">
        <ele>389.5</ele>
        <time>2026-06-03T14:57:01.471304059Z</time>
      </trkpt>
      <trkpt lat="42.85079" lon="2.2154">
        <ele>389.16</ele>
        <time>2026-06-03T14:57:02.462982059Z</time>
      </trkpt>
      <trkpt lat="42.85079" lon="2.21537">
        <ele>388.82</ele>
        <time>2026-06-03T14:57:03.661275029Z</time>
      </trkpt>
      <trkpt lat="42.85078" lon="2.21533">
        <ele>388.53</ele>
        <time>2026-06-03T14:57:04.380144Z</time>
      </trkpt>
      <trkpt lat="42.85079" lon="2.21529">
        <ele>388.25</ele>
        <time>2026-06-03T14:57:05.400575042Z</time>
      </trkpt>
      <trkpt lat="42.85078" lon="2.21526">
        <ele>387.96</ele>
        <time>2026-06-03T14:57:06.391625047Z</time>
      </trkpt>
      <trkpt lat="42.85078" lon="2.21522">
        <ele>387.66</ele>
        <time>2026-06-03T14:57:07.440250993Z</time>
      </trkpt>
      <trkpt lat="42.85078" lon="2.21518">
        <ele>387.36</ele>
        <time>2026-06-03T14:57:08.376472950Z</time>
      </trkpt>
      <trkpt lat="42.85078" lon="2.21515">
        <ele>387.06</ele>
        <time>2026-06-03T14:57:09.450418949Z</time>
      </trkpt>
      <trkpt lat="42.85077" lon="2.21511">
        <ele>386.77</ele>
        <time>2026-06-03T14:57:10.524186015Z</time>
      </trkpt>
      <trkpt lat="42.85077" lon="2.21506">
        <ele>386.5</ele>
        <time>2026-06-03T14:57:11.402078986Z</time>
      </trkpt>
      <trkpt lat="42.85077" lon="2.215">
        <ele>386.24</ele>
        <time>2026-06-03T14:57:12.417430997Z</time>
      </trkpt>
      <trkpt lat="42.85077" lon="2.21494">
        <ele>385.99</ele>
        <time>2026-06-03T14:57:13.561014056Z</time>
      </trkpt>
      <trkpt lat="42.85078" lon="2.21489">
        <ele>385.75</ele>
        <time>2026-06-03T14:57:14.551056027Z</time>
      </trkpt>
      <trkpt lat="42.85078" lon="2.21484">
        <ele>385.49</ele>
        <time>2026-06-03T14:57:15.389531970Z</time>
      </trkpt>
      <trkpt lat="42.85078" lon="2.21477">
        <ele>385.22</ele>
        <time>2026-06-03T14:57:16.563271046Z</time>
      </trkpt>
      <trkpt lat="42.85078" lon="2.21471">
        <ele>384.92</ele>
        <time>2026-06-03T14:57:17.552849054Z</time>
      </trkpt>
      <trkpt lat="42.85078" lon="2.21464">
        <ele>384.61</ele>
        <time>2026-06-03T14:57:18.571040988Z</time>
      </trkpt>
      <trkpt lat="42.85078" lon="2.21459">
        <ele>384.34</ele>
        <time>2026-06-03T14:57:19.561126947Z</time>
      </trkpt>
      <trkpt lat="42.85079" lon="2.21452">
        <ele>384.04</ele>
        <time>2026-06-03T14:57:20.551107049Z</time>
      </trkpt>
      <trkpt lat="42.85079" lon="2.21445">
        <ele>383.73</ele>
        <time>2026-06-03T14:57:21.541164994Z</time>
      </trkpt>
      <trkpt lat="42.85078" lon="2.21439">
        <ele>383.41</ele>
        <time>2026-06-03T14:57:22.561143041Z</time>
      </trkpt>
      <trkpt lat="42.85078" lon="2.21433">
        <ele>383.08</ele>
        <time>2026-06-03T14:57:23.551056981Z</time>
      </trkpt>
      <trkpt lat="42.85077" lon="2.21427">
        <ele>382.72</ele>
        <time>2026-06-03T14:57:24.455029964Z</time>
      </trkpt>
      <trkpt lat="42.85076" lon="2.2142">
        <ele>382.33</ele>
        <time>2026-06-03T14:57:25.502634048Z</time>
      </trkpt>
      <trkpt lat="42.85075" lon="2.21414">
        <ele>381.93</ele>
        <time>2026-06-03T14:57:26.491984963Z</time>
      </trkpt>
      <trkpt lat="42.85075" lon="2.21408">
        <ele>381.49</ele>
        <time>2026-06-03T14:57:27.662400007Z</time>
      </trkpt>
      <trkpt lat="42.85076" lon="2.21402">
        <ele>381.04</ele>
        <time>2026-06-03T14:57:28.650642991Z</time>
      </trkpt>
      <trkpt lat="42.85076" lon="2.21395">
        <ele>380.57</ele>
        <time>2026-06-03T14:57:29.671455026Z</time>
      </trkpt>
      <trkpt lat="42.85076" lon="2.21389">
        <ele>380.08</ele>
        <time>2026-06-03T14:57:30.662539959Z</time>
      </trkpt>
      <trkpt lat="42.85076" lon="2.21382">
        <ele>379.59</ele>
        <time>2026-06-03T14:57:31.651414037Z</time>
      </trkpt>
      <trkpt lat="42.85076" lon="2.21374">
        <ele>379.09</ele>
        <time>2026-06-03T14:57:32.671489954Z</time>
      </trkpt>
      <trkpt lat="42.85076" lon="2.21365">
        <ele>378.57</ele>
        <time>2026-06-03T14:57:33.541363955Z</time>
      </trkpt>
      <trkpt lat="42.85077" lon="2.21358">
        <ele>378.13</ele>
        <time>2026-06-03T14:57:34.533370972Z</time>
      </trkpt>
      <trkpt lat="42.85076" lon="2.21352">
        <ele>377.69</ele>
        <time>2026-06-03T14:57:35.520797968Z</time>
      </trkpt>
      <trkpt lat="42.85076" lon="2.21343">
        <ele>377.23</ele>
        <time>2026-06-03T14:57:36.660891056Z</time>
      </trkpt>
      <trkpt lat="42.85077" lon="2.21336">
        <ele>376.78</ele>
        <time>2026-06-03T14:57:37.651535034Z</time>
      </trkpt>
      <trkpt lat="42.85077" lon="2.21329">
        <ele>376.32</ele>
        <time>2026-06-03T14:57:38.641487002Z</time>
      </trkpt>
      <trkpt lat="42.85077" lon="2.21321">
        <ele>375.87</ele>
        <time>2026-06-03T14:57:39.487493992Z</time>
      </trkpt>
      <trkpt lat="42.85078" lon="2.21314">
        <ele>375.43</ele>
        <time>2026-06-03T14:57:40.533725023Z</time>
      </trkpt>
      <trkpt lat="42.85079" lon="2.21306">
        <ele>375.01</ele>
        <time>2026-06-03T14:57:41.551648974Z</time>
      </trkpt>
      <trkpt lat="42.8508" lon="2.21299">
        <ele>374.59</ele>
        <time>2026-06-03T14:57:42.671579003Z</time>
      </trkpt>
      <trkpt lat="42.85081" lon="2.21292">
        <ele>374.22</ele>
        <time>2026-06-03T14:57:43.711274981Z</time>
      </trkpt>
      <trkpt lat="42.85082" lon="2.21285">
        <ele>373.85</ele>
        <time>2026-06-03T14:57:44.701462030Z</time>
      </trkpt>
      <trkpt lat="42.85083" lon="2.21279">
        <ele>373.34</ele>
        <time>2026-06-03T14:57:45.692095995Z</time>
      </trkpt>
      <trkpt lat="42.85084" lon="2.21271">
        <ele>372.82</ele>
        <time>2026-06-03T14:57:46.652091980Z</time>
      </trkpt>
      <trkpt lat="42.85083" lon="2.21263">
        <ele>372.3</ele>
        <time>2026-06-03T14:57:47.672533989Z</time>
      </trkpt>
      <trkpt lat="42.8508" lon="2.21257">
        <ele>371.77</ele>
        <time>2026-06-03T14:57:48.722169042Z</time>
      </trkpt>
      <trkpt lat="42.85079" lon="2.21249">
        <ele>371.33</ele>
        <time>2026-06-03T14:57:49.712227941Z</time>
      </trkpt>
      <trkpt lat="42.85077" lon="2.21241">
        <ele>370.88</ele>
        <time>2026-06-03T14:57:50.702700973Z</time>
      </trkpt>
      <trkpt lat="42.85076" lon="2.21232">
        <ele>370.42</ele>
        <time>2026-06-03T14:57:51.692595959Z</time>
      </trkpt>
      <trkpt lat="42.85074" lon="2.21224">
        <ele>369.95</ele>
        <time>2026-06-03T14:57:52.682603955Z</time>
      </trkpt>
      <trkpt lat="42.85073" lon="2.21215">
        <ele>369.48</ele>
        <time>2026-06-03T14:57:53.671318054Z</time>
      </trkpt>
      <trkpt lat="42.85071" lon="2.21206">
        <ele>369.03</ele>
        <time>2026-06-03T14:57:54.464467049Z</time>
      </trkpt>
      <trkpt lat="42.8507" lon="2.21198">
        <ele>368.62</ele>
        <time>2026-06-03T14:57:55.528347969Z</time>
      </trkpt>
      <trkpt lat="42.85069" lon="2.2119">
        <ele>368.22</ele>
        <time>2026-06-03T14:57:56.602416992Z</time>
      </trkpt>
      <trkpt lat="42.85067" lon="2.21181">
        <ele>367.86</ele>
        <time>2026-06-03T14:57:57.482025027Z</time>
      </trkpt>
      <trkpt lat="42.85065" lon="2.21173">
        <ele>367.52</ele>
        <time>2026-06-03T14:57:58.502570987Z</time>
      </trkpt>
      <trkpt lat="42.85064" lon="2.21165">
        <ele>367.2</ele>
        <time>2026-06-03T14:57:59.492573977Z</time>
      </trkpt>
      <trkpt lat="42.85062" lon="2.21158">
        <ele>366.89</ele>
        <time>2026-06-03T14:58:00.692466021Z</time>
      </trkpt>
      <trkpt lat="42.85059" lon="2.21152">
        <ele>366.59</ele>
        <time>2026-06-03T14:58:01.712656021Z</time>
      </trkpt>
      <trkpt lat="42.85057" lon="2.21146">
        <ele>366.31</ele>
        <time>2026-06-03T14:58:02.595844984Z</time>
      </trkpt>
      <trkpt lat="42.85054" lon="2.21139">
        <ele>366.04</ele>
        <time>2026-06-03T14:58:03.425070047Z</time>
      </trkpt>
      <trkpt lat="42.85051" lon="2.21131">
        <ele>365.82</ele>
        <time>2026-06-03T14:58:04.443199039Z</time>
      </trkpt>
      <trkpt lat="42.85048" lon="2.21125">
        <ele>365.61</ele>
        <time>2026-06-03T14:58:05.432207942Z</time>
      </trkpt>
      <trkpt lat="42.85046" lon="2.21118">
        <ele>365.41</ele>
        <time>2026-06-03T14:58:06.454156995Z</time>
      </trkpt>
      <trkpt lat="42.85043" lon="2.2111">
        <ele>365.2</ele>
        <time>2026-06-03T14:58:07.442729950Z</time>
      </trkpt>
      <trkpt lat="42.8504" lon="2.21103">
        <ele>364.98</ele>
        <time>2026-06-03T14:58:08.396024942Z</time>
      </trkpt>
      <trkpt lat="42.85037" lon="2.21096">
        <ele>364.74</ele>
        <time>2026-06-03T14:58:09.427867055Z</time>
      </trkpt>
      <trkpt lat="42.85036" lon="2.2109">
        <ele>364.48</ele>
        <time>2026-06-03T14:58:10.533344030Z</time>
      </trkpt>
      <trkpt lat="42.85033" lon="2.21083">
        <ele>364.23</ele>
        <time>2026-06-03T14:58:11.702324033Z</time>
      </trkpt>
      <trkpt lat="42.8503" lon="2.21076">
        <ele>363.96</ele>
        <time>2026-06-03T14:58:12.721984029Z</time>
      </trkpt>
      <trkpt lat="42.85027" lon="2.2107">
        <ele>363.73</ele>
        <time>2026-06-03T14:58:13.712201953Z</time>
      </trkpt>
      <trkpt lat="42.85023" lon="2.21064">
        <ele>363.51</ele>
        <time>2026-06-03T14:58:14.408588052Z</time>
      </trkpt>
      <trkpt lat="42.8502" lon="2.21057">
        <ele>363.29</ele>
        <time>2026-06-03T14:58:15.722586989Z</time>
      </trkpt>
      <trkpt lat="42.85018" lon="2.21053">
        <ele>363.05</ele>
        <time>2026-06-03T14:58:16.723520994Z</time>
      </trkpt>
      <trkpt lat="42.85014" lon="2.21047">
        <ele>362.85</ele>
        <time>2026-06-03T14:58:17.379392028Z</time>
      </trkpt>
      <trkpt lat="42.85009" lon="2.21039">
        <ele>362.65</ele>
        <time>2026-06-03T14:58:18.423972964Z</time>
      </trkpt>
      <trkpt lat="42.85005" lon="2.21033">
        <ele>362.44</ele>
        <time>2026-06-03T14:58:19.714537024Z</time>
      </trkpt>
      <trkpt lat="42.85002" lon="2.21026">
        <ele>362.21</ele>
        <time>2026-06-03T14:58:20.703940034Z</time>
      </trkpt>
      <trkpt lat="42.84997" lon="2.2102">
        <ele>362.01</ele>
        <time>2026-06-03T14:58:21.723153949Z</time>
      </trkpt>
      <trkpt lat="42.84993" lon="2.21013">
        <ele>361.79</ele>
        <time>2026-06-03T14:58:22.448081017Z</time>
      </trkpt>
      <trkpt lat="42.84988" lon="2.21006">
        <ele>361.55</ele>
        <time>2026-06-03T14:58:23.732975960Z</time>
      </trkpt>
      <trkpt lat="42.84983" lon="2.20999">
        <ele>361.3</ele>
        <time>2026-06-03T14:58:24.662606955Z</time>
      </trkpt>
      <trkpt lat="42.84979" lon="2.20993">
        <ele>361.08</ele>
        <time>2026-06-03T14:58:25.712214947Z</time>
      </trkpt>
      <trkpt lat="42.84975" lon="2.20987">
        <ele>360.84</ele>
        <time>2026-06-03T14:58:26.442746997Z</time>
      </trkpt>
      <trkpt lat="42.84971" lon="2.20981">
        <ele>360.57</ele>
        <time>2026-06-03T14:58:27.692991018Z</time>
      </trkpt>
      <trkpt lat="42.84967" lon="2.20974">
        <ele>360.26</ele>
        <time>2026-06-03T14:58:28.713158011Z</time>
      </trkpt>
      <trkpt lat="42.84963" lon="2.20966">
        <ele>359.99</ele>
        <time>2026-06-03T14:58:29.733261943Z</time>
      </trkpt>
      <trkpt lat="42.84959" lon="2.20958">
        <ele>359.68</ele>
        <time>2026-06-03T14:58:30.456990004Z</time>
      </trkpt>
      <trkpt lat="42.84956" lon="2.20951">
        <ele>359.34</ele>
        <time>2026-06-03T14:58:31.713191032Z</time>
      </trkpt>
      <trkpt lat="42.84953" lon="2.20944">
        <ele>358.98</ele>
        <time>2026-06-03T14:58:32.522932053Z</time>
      </trkpt>
      <trkpt lat="42.84951" lon="2.20936">
        <ele>358.68</ele>
        <time>2026-06-03T14:58:33.544731975Z</time>
      </trkpt>
      <trkpt lat="42.84948" lon="2.20929">
        <ele>358.35</ele>
        <time>2026-06-03T14:58:34.471789002Z</time>
      </trkpt>
      <trkpt lat="42.84946" lon="2.20922">
        <ele>358.01</ele>
        <time>2026-06-03T14:58:35.702661037Z</time>
      </trkpt>
      <trkpt lat="42.84943" lon="2.20914">
        <ele>357.65</ele>
        <time>2026-06-03T14:58:36.542667985Z</time>
      </trkpt>
      <trkpt lat="42.84942" lon="2.20906">
        <ele>357.34</ele>
        <time>2026-06-03T14:58:37.472915053Z</time>
      </trkpt>
      <trkpt lat="42.8494" lon="2.20897">
        <ele>356.98</ele>
        <time>2026-06-03T14:58:38.486565948Z</time>
      </trkpt>
      <trkpt lat="42.84937" lon="2.20889">
        <ele>356.57</ele>
        <time>2026-06-03T14:58:39.722705960Z</time>
      </trkpt>
      <trkpt lat="42.84933" lon="2.20881">
        <ele>356.13</ele>
        <time>2026-06-03T14:58:40.712491035Z</time>
      </trkpt>
      <trkpt lat="42.84929" lon="2.20872">
        <ele>355.75</ele>
        <time>2026-06-03T14:58:41.732988Z</time>
      </trkpt>
      <trkpt lat="42.84926" lon="2.20865">
        <ele>355.35</ele>
        <time>2026-06-03T14:58:42.491286039Z</time>
      </trkpt>
      <trkpt lat="42.84922" lon="2.20856">
        <ele>354.89</ele>
        <time>2026-06-03T14:58:43.712545991Z</time>
      </trkpt>
      <trkpt lat="42.84918" lon="2.20848">
        <ele>354.4</ele>
        <time>2026-06-03T14:58:44.734127998Z</time>
      </trkpt>
      <trkpt lat="42.84914" lon="2.2084">
        <ele>353.83</ele>
        <time>2026-06-03T14:58:45.722553968Z</time>
      </trkpt>
      <trkpt lat="42.8491" lon="2.20832">
        <ele>353.25</ele>
        <time>2026-06-03T14:58:46.506021023Z</time>
      </trkpt>
      <trkpt lat="42.84907" lon="2.20823">
        <ele>352.68</ele>
        <time>2026-06-03T14:58:47.703645945Z</time>
      </trkpt>
      <trkpt lat="42.84904" lon="2.20815">
        <ele>352.08</ele>
        <time>2026-06-03T14:58:48.722812057Z</time>
      </trkpt>
      <trkpt lat="42.84902" lon="2.20807">
        <ele>351.58</ele>
        <time>2026-06-03T14:58:49.742859960Z</time>
      </trkpt>
      <trkpt lat="42.849" lon="2.208">
        <ele>351.09</ele>
        <time>2026-06-03T14:58:50.520506978Z</time>
      </trkpt>
      <trkpt lat="42.84899" lon="2.20791">
        <ele>350.59</ele>
        <time>2026-06-03T14:58:51.663133979Z</time>
      </trkpt>
      <trkpt lat="42.84899" lon="2.20783">
        <ele>350.12</ele>
        <time>2026-06-03T14:58:52.444123030Z</time>
      </trkpt>
      <trkpt lat="42.84898" lon="2.20774">
        <ele>349.73</ele>
        <time>2026-06-03T14:58:53.673439026Z</time>
      </trkpt>
      <trkpt lat="42.84897" lon="2.20765">
        <ele>349.33</ele>
        <time>2026-06-03T14:58:54.525050998Z</time>
      </trkpt>
      <trkpt lat="42.84896" lon="2.20755">
        <ele>348.94</ele>
        <time>2026-06-03T14:58:55.682997942Z</time>
      </trkpt>
      <trkpt lat="42.84894" lon="2.20746">
        <ele>348.54</ele>
        <time>2026-06-03T14:58:56.702680945Z</time>
      </trkpt>
      <trkpt lat="42.84892" lon="2.20736">
        <ele>348.2</ele>
        <time>2026-06-03T14:58:57.692963004Z</time>
      </trkpt>
      <trkpt lat="42.84889" lon="2.20727">
        <ele>347.84</ele>
        <time>2026-06-03T14:58:58.539801002Z</time>
      </trkpt>
      <trkpt lat="42.84886" lon="2.20719">
        <ele>347.45</ele>
        <time>2026-06-03T14:58:59.673151970Z</time>
      </trkpt>
      <trkpt lat="42.84884" lon="2.2071">
        <ele>347.02</ele>
        <time>2026-06-03T14:59:00.693053961Z</time>
      </trkpt>
      <trkpt lat="42.84881" lon="2.20701">
        <ele>346.65</ele>
        <time>2026-06-03T14:59:01.683617949Z</time>
      </trkpt>
      <trkpt lat="42.84878" lon="2.20692">
        <ele>346.25</ele>
        <time>2026-06-03T14:59:02.554425955Z</time>
      </trkpt>
      <trkpt lat="42.84876" lon="2.20683">
        <ele>345.86</ele>
        <time>2026-06-03T14:59:03.692394018Z</time>
      </trkpt>
      <trkpt lat="42.84875" lon="2.20674">
        <ele>345.47</ele>
        <time>2026-06-03T14:59:04.653079987Z</time>
      </trkpt>
      <trkpt lat="42.84876" lon="2.20663">
        <ele>345.14</ele>
        <time>2026-06-03T14:59:05.703580022Z</time>
      </trkpt>
      <trkpt lat="42.84879" lon="2.20653">
        <ele>344.76</ele>
        <time>2026-06-03T14:59:06.569090009Z</time>
      </trkpt>
      <trkpt lat="42.84883" lon="2.20644">
        <ele>344.36</ele>
        <time>2026-06-03T14:59:07.683349967Z</time>
      </trkpt>
      <trkpt lat="42.84887" lon="2.20634">
        <ele>343.94</ele>
        <time>2026-06-03T14:59:08.582417011Z</time>
      </trkpt>
      <trkpt lat="42.84891" lon="2.20624">
        <ele>343.58</ele>
        <time>2026-06-03T14:59:09.663193941Z</time>
      </trkpt>
      <trkpt lat="42.84894" lon="2.20615">
        <ele>343.16</ele>
        <time>2026-06-03T14:59:10.573776007Z</time>
      </trkpt>
      <trkpt lat="42.84897" lon="2.20605">
        <ele>342.7</ele>
        <time>2026-06-03T14:59:11.673454046Z</time>
      </trkpt>
      <trkpt lat="42.849" lon="2.20596">
        <ele>342.22</ele>
        <time>2026-06-03T14:59:12.693739057Z</time>
      </trkpt>
      <trkpt lat="42.84902" lon="2.20587">
        <ele>341.81</ele>
        <time>2026-06-03T14:59:13.743927002Z</time>
      </trkpt>
      <trkpt lat="42.84905" lon="2.20578">
        <ele>341.38</ele>
        <time>2026-06-03T14:59:14.463382006Z</time>
      </trkpt>
      <trkpt lat="42.84908" lon="2.2057">
        <ele>340.96</ele>
        <time>2026-06-03T14:59:15.452821016Z</time>
      </trkpt>
      <trkpt lat="42.84911" lon="2.20562">
        <ele>340.59</ele>
        <time>2026-06-03T14:59:16.456398964Z</time>
      </trkpt>
      <trkpt lat="42.84915" lon="2.20553">
        <ele>340.27</ele>
        <time>2026-06-03T14:59:17.465746045Z</time>
      </trkpt>
      <trkpt lat="42.84919" lon="2.20544">
        <ele>339.96</ele>
        <time>2026-06-03T14:59:18.453340054Z</time>
      </trkpt>
      <trkpt lat="42.84922" lon="2.20535">
        <ele>339.62</ele>
        <time>2026-06-03T14:59:19.473659992Z</time>
      </trkpt>
      <trkpt lat="42.84925" lon="2.20527">
        <ele>339.27</ele>
        <time>2026-06-03T14:59:20.465965033Z</time>
      </trkpt>
      <trkpt lat="42.84928" lon="2.20519">
        <ele>338.97</ele>
        <time>2026-06-03T14:59:21.455731034Z</time>
      </trkpt>
      <trkpt lat="42.84932" lon="2.2051">
        <ele>338.61</ele>
        <time>2026-06-03T14:59:22.445464015Z</time>
      </trkpt>
      <trkpt lat="42.84936" lon="2.20502">
        <ele>338.18</ele>
        <time>2026-06-03T14:59:23.465785027Z</time>
      </trkpt>
      <trkpt lat="42.8494" lon="2.20496">
        <ele>337.71</ele>
        <time>2026-06-03T14:59:24.455579042Z</time>
      </trkpt>
      <trkpt lat="42.84946" lon="2.20491">
        <ele>337.31</ele>
        <time>2026-06-03T14:59:25.713973999Z</time>
      </trkpt>
      <trkpt lat="42.84951" lon="2.20487">
        <ele>336.87</ele>
        <time>2026-06-03T14:59:26.622349024Z</time>
      </trkpt>
      <trkpt lat="42.84956" lon="2.20483">
        <ele>336.4</ele>
        <time>2026-06-03T14:59:27.544175982Z</time>
      </trkpt>
      <trkpt lat="42.84961" lon="2.20479">
        <ele>335.91</ele>
        <time>2026-06-03T14:59:28.713037014Z</time>
      </trkpt>
      <trkpt lat="42.84967" lon="2.20477">
        <ele>335.49</ele>
        <time>2026-06-03T14:59:29.704161048Z</time>
      </trkpt>
      <trkpt lat="42.84973" lon="2.20475">
        <ele>335.07</ele>
        <time>2026-06-03T14:59:30.637078047Z</time>
      </trkpt>
      <trkpt lat="42.8498" lon="2.20473">
        <ele>334.61</ele>
        <time>2026-06-03T14:59:31.743911028Z</time>
      </trkpt>
      <trkpt lat="42.84986" lon="2.20471">
        <ele>334.13</ele>
        <time>2026-06-03T14:59:32.763736010Z</time>
      </trkpt>
      <trkpt lat="42.84993" lon="2.20469">
        <ele>333.72998</ele>
        <time>2026-06-03T14:59:33.753581047Z</time>
      </trkpt>
      <trkpt lat="42.85" lon="2.20468">
        <ele>333.31</ele>
        <time>2026-06-03T14:59:34.651679039Z</time>
      </trkpt>
      <trkpt lat="42.85007" lon="2.20467">
        <ele>332.9</ele>
        <time>2026-06-03T14:59:35.733654976Z</time>
      </trkpt>
      <trkpt lat="42.85015" lon="2.20467">
        <ele>332.49</ele>
        <time>2026-06-03T14:59:36.356045008Z</time>
      </trkpt>
      <trkpt lat="42.85023" lon="2.20469">
        <ele>332.15</ele>
        <time>2026-06-03T14:59:37.744325995Z</time>
      </trkpt>
      <trkpt lat="42.8503" lon="2.20471">
        <ele>331.77002</ele>
        <time>2026-06-03T14:59:38.466235042Z</time>
      </trkpt>
      <trkpt lat="42.85038" lon="2.20474">
        <ele>331.36</ele>
        <time>2026-06-03T14:59:39.454231977Z</time>
      </trkpt>
      <trkpt lat="42.85044" lon="2.20477">
        <ele>330.91</ele>
        <time>2026-06-03T14:59:40.744320035Z</time>
      </trkpt>
      <trkpt lat="42.85051" lon="2.2048">
        <ele>330.53</ele>
        <time>2026-06-03T14:59:41.355823040Z</time>
      </trkpt>
      <trkpt lat="42.85058" lon="2.20485">
        <ele>330.12</ele>
        <time>2026-06-03T14:59:42.575976968Z</time>
      </trkpt>
      <trkpt lat="42.85064" lon="2.20489">
        <ele>329.68</ele>
        <time>2026-06-03T14:59:43.743741989Z</time>
      </trkpt>
      <trkpt lat="42.85069" lon="2.20492">
        <ele>329.27002</ele>
        <time>2026-06-03T14:59:44.734163046Z</time>
      </trkpt>
      <trkpt lat="42.85074" lon="2.20496">
        <ele>328.76</ele>
        <time>2026-06-03T14:59:45.367457032Z</time>
      </trkpt>
      <trkpt lat="42.8508" lon="2.205">
        <ele>328.3</ele>
        <time>2026-06-03T14:59:46.685752034Z</time>
      </trkpt>
      <trkpt lat="42.85085" lon="2.20503">
        <ele>327.91</ele>
        <time>2026-06-03T14:59:47.764139056Z</time>
      </trkpt>
      <trkpt lat="42.85089" lon="2.20507">
        <ele>327.58002</ele>
        <time>2026-06-03T14:59:48.755249977Z</time>
      </trkpt>
      <trkpt lat="42.85094" lon="2.20509">
        <ele>327.3</ele>
        <time>2026-06-03T14:59:49.744663954Z</time>
      </trkpt>
      <trkpt lat="42.85099" lon="2.20512">
        <ele>327.07</ele>
        <time>2026-06-03T14:59:50.700415969Z</time>
      </trkpt>
      <trkpt lat="42.85104" lon="2.20514">
        <ele>326.88</ele>
        <time>2026-06-03T14:59:51.352197051Z</time>
      </trkpt>
      <trkpt lat="42.85109" lon="2.20516">
        <ele>326.72</ele>
        <time>2026-06-03T14:59:52.744797945Z</time>
      </trkpt>
      <trkpt lat="42.85113" lon="2.20517">
        <ele>326.59</ele>
        <time>2026-06-03T14:59:53.735571980Z</time>
      </trkpt>
      <trkpt lat="42.85117" lon="2.20518">
        <ele>326.5</ele>
        <time>2026-06-03T14:59:54.705059052Z</time>
      </trkpt>
      <trkpt lat="42.8512" lon="2.2052">
        <ele>326.43</ele>
        <time>2026-06-03T14:59:55.774541020Z</time>
      </trkpt>
      <trkpt lat="42.85124" lon="2.20521">
        <ele>326.38</ele>
        <time>2026-06-03T14:59:56.764055967Z</time>
      </trkpt>
      <trkpt lat="42.85128" lon="2.20521">
        <ele>326.34</ele>
        <time>2026-06-03T14:59:57.353039026Z</time>
      </trkpt>
      <trkpt lat="42.85131" lon="2.20522">
        <ele>326.32</ele>
        <time>2026-06-03T14:59:58.368201971Z</time>
      </trkpt>
      <trkpt lat="42.85135" lon="2.20522">
        <ele>326.31</ele>
        <time>2026-06-03T14:59:59.674976945Z</time>
      </trkpt>
      <trkpt lat="42.85137" lon="2.20522">
        <ele>326.3</ele>
        <time>2026-06-03T15:00:00.754451036Z</time>
      </trkpt>
      <trkpt lat="42.8514" lon="2.20522">
        <ele>326.28998</ele>
        <time>2026-06-03T15:00:01.421105027Z</time>
      </trkpt>
      <trkpt lat="42.85144" lon="2.20522">
        <ele>326.28</ele>
        <time>2026-06-03T15:00:02.734405994Z</time>
      </trkpt>
      <trkpt lat="42.85147" lon="2.20521">
        <ele>326.26</ele>
        <time>2026-06-03T15:00:03.359791994Z</time>
      </trkpt>
      <trkpt lat="42.85151" lon="2.20519">
        <ele>326.25</ele>
        <time>2026-06-03T15:00:04.474769950Z</time>
      </trkpt>
      <trkpt lat="42.85154" lon="2.20517">
        <ele>326.24</ele>
        <time>2026-06-03T15:00:05.404196978Z</time>
      </trkpt>
      <trkpt lat="42.85158" lon="2.20515">
        <ele>326.22</ele>
        <time>2026-06-03T15:00:06.531383038Z</time>
      </trkpt>
      <trkpt lat="42.8516" lon="2.20515">
        <ele>326.21002</ele>
        <time>2026-06-03T15:00:07.504639030Z</time>
      </trkpt>
      <trkpt lat="42.85163" lon="2.20511">
        <ele>326.19</ele>
        <time>2026-06-03T15:00:08.374415994Z</time>
      </trkpt>
      <trkpt lat="42.85169" lon="2.20508">
        <ele>326.18</ele>
        <time>2026-06-03T15:00:09.398149014Z</time>
      </trkpt>
      <trkpt lat="42.85173" lon="2.20504">
        <ele>326.16</ele>
        <time>2026-06-03T15:00:10.505579948Z</time>
      </trkpt>
      <trkpt lat="42.85177" lon="2.205">
        <ele>326.16</ele>
        <time>2026-06-03T15:00:11.525287986Z</time>
      </trkpt>
      <trkpt lat="42.85181" lon="2.20495">
        <ele>326.15</ele>
        <time>2026-06-03T15:00:12.424942017Z</time>
      </trkpt>
      <trkpt lat="42.85184" lon="2.20491">
        <ele>326.15</ele>
        <time>2026-06-03T15:00:13.433673024Z</time>
      </trkpt>
      <trkpt lat="42.85188" lon="2.20486">
        <ele>326.15</ele>
        <time>2026-06-03T15:00:14.348036051Z</time>
      </trkpt>
      <trkpt lat="42.85191" lon="2.20481">
        <ele>326.16</ele>
        <time>2026-06-03T15:00:15.362902999Z</time>
      </trkpt>
      <trkpt lat="42.85195" lon="2.20477">
        <ele>326.16998</ele>
        <time>2026-06-03T15:00:16.506013036Z</time>
      </trkpt>
      <trkpt lat="42.85199" lon="2.20472">
        <ele>326.18</ele>
        <time>2026-06-03T15:00:17.405208945Z</time>
      </trkpt>
      <trkpt lat="42.85202" lon="2.20467">
        <ele>326.18</ele>
        <time>2026-06-03T15:00:18.515437007Z</time>
      </trkpt>
      <trkpt lat="42.85206" lon="2.20463">
        <ele>326.16998</ele>
        <time>2026-06-03T15:00:19.350625038Z</time>
      </trkpt>
      <trkpt lat="42.85209" lon="2.20457">
        <ele>326.16</ele>
        <time>2026-06-03T15:00:20.495399952Z</time>
      </trkpt>
      <trkpt lat="42.85213" lon="2.20452">
        <ele>326.13</ele>
        <time>2026-06-03T15:00:21.453083038Z</time>
      </trkpt>
      <trkpt lat="42.85216" lon="2.20447">
        <ele>326.11</ele>
        <time>2026-06-03T15:00:22.535529971Z</time>
      </trkpt>
      <trkpt lat="42.85219" lon="2.20442">
        <ele>326.07</ele>
        <time>2026-06-03T15:00:23.526041031Z</time>
      </trkpt>
      <trkpt lat="42.85222" lon="2.20436">
        <ele>326.05</ele>
        <time>2026-06-03T15:00:24.515542030Z</time>
      </trkpt>
      <trkpt lat="42.85225" lon="2.20431">
        <ele>326.01</ele>
        <time>2026-06-03T15:00:25.415593028Z</time>
      </trkpt>
      <trkpt lat="42.85228" lon="2.20426">
        <ele>325.97998</ele>
        <time>2026-06-03T15:00:26.436205029Z</time>
      </trkpt>
      <trkpt lat="42.85231" lon="2.2042">
        <ele>325.95</ele>
        <time>2026-06-03T15:00:27.428151011Z</time>
      </trkpt>
      <trkpt lat="42.85234" lon="2.20414">
        <ele>325.93</ele>
        <time>2026-06-03T15:00:28.423928022Z</time>
      </trkpt>
      <trkpt lat="42.85237" lon="2.20407">
        <ele>325.9</ele>
        <time>2026-06-03T15:00:29.405048013Z</time>
      </trkpt>
      <trkpt lat="42.85239" lon="2.204">
        <ele>325.87</ele>
        <time>2026-06-03T15:00:30.395135999Z</time>
      </trkpt>
      <trkpt lat="42.85242" lon="2.20393">
        <ele>325.83002</ele>
        <time>2026-06-03T15:00:31.536093950Z</time>
      </trkpt>
      <trkpt lat="42.85244" lon="2.20386">
        <ele>325.8</ele>
        <time>2026-06-03T15:00:32.525766969Z</time>
      </trkpt>
      <trkpt lat="42.85247" lon="2.20379">
        <ele>325.74</ele>
        <time>2026-06-03T15:00:33.487249017Z</time>
      </trkpt>
      <trkpt lat="42.8525" lon="2.20372">
        <ele>325.66998</ele>
        <time>2026-06-03T15:00:34.368036032Z</time>
      </trkpt>
      <trkpt lat="42.85252" lon="2.20365">
        <ele>325.57</ele>
        <time>2026-06-03T15:00:35.495728970Z</time>
      </trkpt>
      <trkpt lat="42.85255" lon="2.2036">
        <ele>325.49</ele>
        <time>2026-06-03T15:00:36.516312957Z</time>
      </trkpt>
      <trkpt lat="42.85257" lon="2.20352">
        <ele>325.37</ele>
        <time>2026-06-03T15:00:37.502060056Z</time>
      </trkpt>
      <trkpt lat="42.85261" lon="2.20346">
        <ele>325.25</ele>
        <time>2026-06-03T15:00:38.525900960Z</time>
      </trkpt>
      <trkpt lat="42.85264" lon="2.2034">
        <ele>325.12</ele>
        <time>2026-06-03T15:00:39.516527057Z</time>
      </trkpt>
      <trkpt lat="42.85267" lon="2.20334">
        <ele>325</ele>
        <time>2026-06-03T15:00:40.537314057Z</time>
      </trkpt>
      <trkpt lat="42.8527" lon="2.20328">
        <ele>324.86</ele>
        <time>2026-06-03T15:00:41.516957998Z</time>
      </trkpt>
      <trkpt lat="42.85274" lon="2.20323">
        <ele>324.72998</ele>
        <time>2026-06-03T15:00:42.516016006Z</time>
      </trkpt>
      <trkpt lat="42.85277" lon="2.20317">
        <ele>324.58002</ele>
        <time>2026-06-03T15:00:43.535648942Z</time>
      </trkpt>
      <trkpt lat="42.8528" lon="2.20311">
        <ele>324.45</ele>
        <time>2026-06-03T15:00:44.405629992Z</time>
      </trkpt>
      <trkpt lat="42.85283" lon="2.20306">
        <ele>324.19</ele>
        <time>2026-06-03T15:00:45.395640016Z</time>
      </trkpt>
      <trkpt lat="42.85286" lon="2.203">
        <ele>323.93</ele>
        <time>2026-06-03T15:00:46.537443042Z</time>
      </trkpt>
      <trkpt lat="42.85289" lon="2.20295">
        <ele>323.66998</ele>
        <time>2026-06-03T15:00:47.526536942Z</time>
      </trkpt>
      <trkpt lat="42.85292" lon="2.20289">
        <ele>323.44</ele>
        <time>2026-06-03T15:00:48.516365051Z</time>
      </trkpt>
      <trkpt lat="42.85294" lon="2.20286">
        <ele>323.21002</ele>
        <time>2026-06-03T15:00:49.442896008Z</time>
      </trkpt>
      <trkpt lat="42.85299" lon="2.20278">
        <ele>323</ele>
        <time>2026-06-03T15:00:50.525895953Z</time>
      </trkpt>
      <trkpt lat="42.85302" lon="2.20273">
        <ele>322.78998</ele>
        <time>2026-06-03T15:00:51.457716942Z</time>
      </trkpt>
      <trkpt lat="42.85306" lon="2.20267">
        <ele>322.62</ele>
        <time>2026-06-03T15:00:52.447667003Z</time>
      </trkpt>
      <trkpt lat="42.8531" lon="2.20262">
        <ele>322.45</ele>
        <time>2026-06-03T15:00:53.409962058Z</time>
      </trkpt>
      <trkpt lat="42.85313" lon="2.20256">
        <ele>322.28998</ele>
        <time>2026-06-03T15:00:54.425788045Z</time>
      </trkpt>
      <trkpt lat="42.85317" lon="2.2025">
        <ele>322.14</ele>
        <time>2026-06-03T15:00:55.415907025Z</time>
      </trkpt>
      <trkpt lat="42.85321" lon="2.20244">
        <ele>322.02002</ele>
        <time>2026-06-03T15:00:56.406255960Z</time>
      </trkpt>
      <trkpt lat="42.85324" lon="2.20239">
        <ele>321.89</ele>
        <time>2026-06-03T15:00:57.406749964Z</time>
      </trkpt>
      <trkpt lat="42.85328" lon="2.20233">
        <ele>321.78</ele>
        <time>2026-06-03T15:00:58.377038956Z</time>
      </trkpt>
      <trkpt lat="42.85332" lon="2.20227">
        <ele>321.68</ele>
        <time>2026-06-03T15:00:59.435806990Z</time>
      </trkpt>
      <trkpt lat="42.85335" lon="2.20222">
        <ele>321.6</ele>
        <time>2026-06-03T15:01:00.458188057Z</time>
      </trkpt>
      <trkpt lat="42.85339" lon="2.20215">
        <ele>321.52002</ele>
        <time>2026-06-03T15:01:01.447986007Z</time>
      </trkpt>
      <trkpt lat="42.85344" lon="2.20209">
        <ele>321.43</ele>
        <time>2026-06-03T15:01:02.526355982Z</time>
      </trkpt>
      <trkpt lat="42.85347" lon="2.20205">
        <ele>321.35</ele>
        <time>2026-06-03T15:01:03.515895963Z</time>
      </trkpt>
      <trkpt lat="42.85351" lon="2.20199">
        <ele>321.27002</ele>
        <time>2026-06-03T15:01:04.538095951Z</time>
      </trkpt>
      <trkpt lat="42.85355" lon="2.20194">
        <ele>321.19</ele>
        <time>2026-06-03T15:01:05.526751995Z</time>
      </trkpt>
      <trkpt lat="42.8536" lon="2.20189">
        <ele>321.11</ele>
        <time>2026-06-03T15:01:06.548290014Z</time>
      </trkpt>
      <trkpt lat="42.85365" lon="2.20186">
        <ele>321.03</ele>
        <time>2026-06-03T15:01:07.677983999Z</time>
      </trkpt>
      <trkpt lat="42.85369" lon="2.20184">
        <ele>320.97</ele>
        <time>2026-06-03T15:01:08.526618958Z</time>
      </trkpt>
      <trkpt lat="42.85374" lon="2.20184">
        <ele>320.91</ele>
        <time>2026-06-03T15:01:09.546352983Z</time>
      </trkpt>
      <trkpt lat="42.85379" lon="2.20184">
        <ele>320.85</ele>
        <time>2026-06-03T15:01:10.565708041Z</time>
      </trkpt>
      <trkpt lat="42.85384" lon="2.20185">
        <ele>320.8</ele>
        <time>2026-06-03T15:01:11.557016015Z</time>
      </trkpt>
      <trkpt lat="42.85387" lon="2.20184">
        <ele>320.76</ele>
        <time>2026-06-03T15:01:12.427677035Z</time>
      </trkpt>
      <trkpt lat="42.8539" lon="2.20183">
        <ele>320.71002</ele>
        <time>2026-06-03T15:01:13.536677957Z</time>
      </trkpt>
      <trkpt lat="42.85394" lon="2.2018">
        <ele>320.66</ele>
        <time>2026-06-03T15:01:14.555726051Z</time>
      </trkpt>
      <trkpt lat="42.85397" lon="2.20176">
        <ele>320.62</ele>
        <time>2026-06-03T15:01:15.696454048Z</time>
      </trkpt>
      <trkpt lat="42.85398" lon="2.20174">
        <ele>320.59</ele>
        <time>2026-06-03T15:01:16.806213975Z</time>
      </trkpt>
      <trkpt lat="42.85401" lon="2.20174">
        <ele>320.56</ele>
        <time>2026-06-03T15:01:17.427055955Z</time>
      </trkpt>
      <trkpt lat="42.85404" lon="2.20175">
        <ele>320.56</ele>
        <time>2026-06-03T15:01:18.486286044Z</time>
      </trkpt>
      <trkpt lat="42.85408" lon="2.20177">
        <ele>320.56</ele>
        <time>2026-06-03T15:01:19.476343036Z</time>
      </trkpt>
      <trkpt lat="42.85411" lon="2.20178">
        <ele>320.57</ele>
        <time>2026-06-03T15:01:20.466546059Z</time>
      </trkpt>
      <trkpt lat="42.85414" lon="2.20179">
        <ele>320.58002</ele>
        <time>2026-06-03T15:01:21.385347009Z</time>
      </trkpt>
      <trkpt lat="42.85415" lon="2.20178">
        <ele>320.59</ele>
        <time>2026-06-03T15:01:22.417801023Z</time>
      </trkpt>
      <trkpt lat="42.85416" lon="2.20176">
        <ele>320.62</ele>
        <time>2026-06-03T15:01:23.436699986Z</time>
      </trkpt>
      <trkpt lat="42.85416" lon="2.20172">
        <ele>320.63</ele>
        <time>2026-06-03T15:01:24.340582967Z</time>
      </trkpt>
      <trkpt lat="42.85417" lon="2.20169">
        <ele>320.63</ele>
        <time>2026-06-03T15:01:25.648908019Z</time>
      </trkpt>
      <trkpt lat="42.85417" lon="2.20167">
        <ele>320.63</ele>
        <time>2026-06-03T15:01:26.437008023Z</time>
      </trkpt>
      <trkpt lat="42.85418" lon="2.20166">
        <ele>320.68</ele>
        <time>2026-06-03T15:01:27.408918977Z</time>
      </trkpt>
      <trkpt lat="42.8542" lon="2.20166">
        <ele>320.69</ele>
        <time>2026-06-03T15:01:28.476554036Z</time>
      </trkpt>
      <trkpt lat="42.85423" lon="2.20165">
        <ele>320.7</ele>
        <time>2026-06-03T15:01:29.496701956Z</time>
      </trkpt>
      <trkpt lat="42.85426" lon="2.20166">
        <ele>320.7</ele>
        <time>2026-06-03T15:01:30.786419034Z</time>
      </trkpt>
      <trkpt lat="42.85428" lon="2.20165">
        <ele>320.71002</ele>
        <time>2026-06-03T15:01:31.448526978Z</time>
      </trkpt>
      <trkpt lat="42.8543" lon="2.20164">
        <ele>320.72</ele>
        <time>2026-06-03T15:01:32.496659994Z</time>
      </trkpt>
      <trkpt lat="42.8543" lon="2.20161">
        <ele>320.72998</ele>
        <time>2026-06-03T15:01:33.668019056Z</time>
      </trkpt>
      <trkpt lat="42.85431" lon="2.20157">
        <ele>320.74</ele>
        <time>2026-06-03T15:01:34.659209013Z</time>
      </trkpt>
      <trkpt lat="42.85432" lon="2.20152">
        <ele>320.74</ele>
        <time>2026-06-03T15:01:35.646625042Z</time>
      </trkpt>
      <trkpt lat="42.85433" lon="2.20149">
        <ele>320.75</ele>
        <time>2026-06-03T15:01:36.348122001Z</time>
      </trkpt>
      <trkpt lat="42.85434" lon="2.20146">
        <ele>320.76</ele>
        <time>2026-06-03T15:01:37.682795048Z</time>
      </trkpt>
      <trkpt lat="42.85434" lon="2.20143">
        <ele>320.75</ele>
        <time>2026-06-03T15:01:38.707237959Z</time>
      </trkpt>
      <trkpt lat="42.85434" lon="2.2014">
        <ele>320.74</ele>
        <time>2026-06-03T15:01:39.576480985Z</time>
      </trkpt>
      <trkpt lat="42.85434" lon="2.20136">
        <ele>320.72</ele>
        <time>2026-06-03T15:01:40.567688942Z</time>
      </trkpt>
      <trkpt lat="42.85435" lon="2.20134">
        <ele>320.7</ele>
        <time>2026-06-03T15:01:41.586480975Z</time>
      </trkpt>
      <trkpt lat="42.85436" lon="2.20131">
        <ele>320.65</ele>
        <time>2026-06-03T15:01:42.668658018Z</time>
      </trkpt>
      <trkpt lat="42.85437" lon="2.20128">
        <ele>320.59</ele>
        <time>2026-06-03T15:01:43.448737025Z</time>
      </trkpt>
      <trkpt lat="42.85438" lon="2.20127">
        <ele>320.53</ele>
        <time>2026-06-03T15:01:44.367666960Z</time>
      </trkpt>
      <trkpt lat="42.85439" lon="2.20126">
        <ele>320.35</ele>
        <time>2026-06-03T15:01:45.458400011Z</time>
      </trkpt>
      <trkpt lat="42.8544" lon="2.20125">
        <ele>320.14</ele>
        <time>2026-06-03T15:01:48.382256985Z</time>
      </trkpt>
      <trkpt lat="42.85442" lon="2.20125">
        <ele>320.14</ele>
        <time>2026-06-03T15:01:49.417279005Z</time>
      </trkpt>
      <trkpt lat="42.85443" lon="2.20124">
        <ele>319.4</ele>
        <time>2026-06-03T15:01:50.646697044Z</time>
      </trkpt>
      <trkpt lat="42.85457" lon="2.2012">
        <ele>319.24</ele>
        <time>2026-06-03T15:01:51.426893950Z</time>
      </trkpt>
      <trkpt lat="42.8546" lon="2.20119">
        <ele>319.11</ele>
        <time>2026-06-03T15:01:52.397210002Z</time>
      </trkpt>
      <trkpt lat="42.85464" lon="2.20118">
        <ele>319</ele>
        <time>2026-06-03T15:01:53.496585011Z</time>
      </trkpt>
      <trkpt lat="42.85468" lon="2.20117">
        <ele>318.91</ele>
        <time>2026-06-03T15:01:54.384798050Z</time>
      </trkpt>
      <trkpt lat="42.85471" lon="2.20116">
        <ele>318.83002</ele>
        <time>2026-06-03T15:01:55.507568955Z</time>
      </trkpt>
      <trkpt lat="42.85474" lon="2.20115">
        <ele>318.77002</ele>
        <time>2026-06-03T15:01:56.401896954Z</time>
      </trkpt>
      <trkpt lat="42.85478" lon="2.20114">
        <ele>318.72</ele>
        <time>2026-06-03T15:01:57.606202006Z</time>
      </trkpt>
      <trkpt lat="42.85482" lon="2.20113">
        <ele>318.66998</ele>
        <time>2026-06-03T15:01:58.449167967Z</time>
      </trkpt>
      <trkpt lat="42.85486" lon="2.20112">
        <ele>318.64</ele>
        <time>2026-06-03T15:01:59.469323993Z</time>
      </trkpt>
      <trkpt lat="42.8549" lon="2.20112">
        <ele>318.6</ele>
        <time>2026-06-03T15:02:00.390643001Z</time>
      </trkpt>
      <trkpt lat="42.85493" lon="2.20111">
        <ele>318.57</ele>
        <time>2026-06-03T15:02:01.626988053Z</time>
      </trkpt>
      <trkpt lat="42.85495" lon="2.20111">
        <ele>318.53998</ele>
        <time>2026-06-03T15:02:02.497220039Z</time>
      </trkpt>
      <trkpt lat="42.85498" lon="2.20111">
        <ele>318.51</ele>
        <time>2026-06-03T15:02:03.546432972Z</time>
      </trkpt>
      <trkpt lat="42.85499" lon="2.20111">
        <ele>318.51</ele>
        <time>2026-06-03T15:02:04.431305051Z</time>
      </trkpt>
      <trkpt lat="42.85501" lon="2.20111">
        <ele>318.45</ele>
        <time>2026-06-03T15:02:05.586439967Z</time>
      </trkpt>
      <trkpt lat="42.85502" lon="2.20111">
        <ele>318.41</ele>
        <time>2026-06-03T15:02:06.726709962Z</time>
      </trkpt>
      <trkpt lat="42.85505" lon="2.2011">
        <ele>318.38</ele>
        <time>2026-06-03T15:02:07.596436024Z</time>
      </trkpt>
      <trkpt lat="42.85508" lon="2.20109">
        <ele>318.35</ele>
        <time>2026-06-03T15:02:08.475602984Z</time>
      </trkpt>
      <trkpt lat="42.8551" lon="2.20108">
        <ele>318.32</ele>
        <time>2026-06-03T15:02:09.607251048Z</time>
      </trkpt>
      <trkpt lat="42.85514" lon="2.20108">
        <ele>318.28998</ele>
        <time>2026-06-03T15:02:10.478237033Z</time>
      </trkpt>
      <trkpt lat="42.85518" lon="2.20108">
        <ele>318.27002</ele>
        <time>2026-06-03T15:02:11.558482051Z</time>
      </trkpt>
      <trkpt lat="42.85521" lon="2.20107">
        <ele>318.24</ele>
        <time>2026-06-03T15:02:12.450644970Z</time>
      </trkpt>
      <trkpt lat="42.85526" lon="2.20107">
        <ele>318.21002</ele>
        <time>2026-06-03T15:02:13.538578033Z</time>
      </trkpt>
      <trkpt lat="42.85529" lon="2.20107">
        <ele>318.19</ele>
        <time>2026-06-03T15:02:14.617005944Z</time>
      </trkpt>
      <trkpt lat="42.85534" lon="2.20106">
        <ele>318.16</ele>
        <time>2026-06-03T15:02:15.517981052Z</time>
      </trkpt>
      <trkpt lat="42.85537" lon="2.20106">
        <ele>318.16</ele>
        <time>2026-06-03T15:02:16.367161036Z</time>
      </trkpt>
      <trkpt lat="42.85541" lon="2.20106">
        <ele>318.19</ele>
        <time>2026-06-03T15:02:17.438495994Z</time>
      </trkpt>
      <trkpt lat="42.85545" lon="2.20105">
        <ele>318.22</ele>
        <time>2026-06-03T15:02:18.487867951Z</time>
      </trkpt>
      <trkpt lat="42.8555" lon="2.20104">
        <ele>318.26</ele>
        <time>2026-06-03T15:02:19.416841984Z</time>
      </trkpt>
      <trkpt lat="42.85553" lon="2.20103">
        <ele>318.32</ele>
        <time>2026-06-03T15:02:20.467875957Z</time>
      </trkpt>
      <trkpt lat="42.85558" lon="2.20102">
        <ele>318.38</ele>
        <time>2026-06-03T15:02:21.460247993Z</time>
      </trkpt>
      <trkpt lat="42.85562" lon="2.20102">
        <ele>318.44</ele>
        <time>2026-06-03T15:02:22.417974949Z</time>
      </trkpt>
      <trkpt lat="42.85566" lon="2.20101">
        <ele>318.49</ele>
        <time>2026-06-03T15:02:23.558104992Z</time>
      </trkpt>
      <trkpt lat="42.8557" lon="2.201">
        <ele>318.52002</ele>
        <time>2026-06-03T15:02:24.485110044Z</time>
      </trkpt>
      <trkpt lat="42.85575" lon="2.201">
        <ele>318.53998</ele>
        <time>2026-06-03T15:02:25.436401010Z</time>
      </trkpt>
      <trkpt lat="42.85578" lon="2.20099">
        <ele>318.55</ele>
        <time>2026-06-03T15:02:26.377012968Z</time>
      </trkpt>
      <trkpt lat="42.85582" lon="2.20098">
        <ele>318.56</ele>
        <time>2026-06-03T15:02:27.427795053Z</time>
      </trkpt>
      <trkpt lat="42.85585" lon="2.20097">
        <ele>318.56</ele>
        <time>2026-06-03T15:02:28.407222986Z</time>
      </trkpt>
      <trkpt lat="42.8559" lon="2.20094">
        <ele>318.57</ele>
        <time>2026-06-03T15:02:29.558758974Z</time>
      </trkpt>
      <trkpt lat="42.85593" lon="2.20091">
        <ele>318.57</ele>
        <time>2026-06-03T15:02:30.428015947Z</time>
      </trkpt>
      <trkpt lat="42.85596" lon="2.20087">
        <ele>318.57</ele>
        <time>2026-06-03T15:02:31.343948007Z</time>
      </trkpt>
      <trkpt lat="42.856" lon="2.20083">
        <ele>318.59</ele>
        <time>2026-06-03T15:02:32.514588952Z</time>
      </trkpt>
      <trkpt lat="42.85603" lon="2.20078">
        <ele>318.62</ele>
        <time>2026-06-03T15:02:33.367246985Z</time>
      </trkpt>
      <trkpt lat="42.85605" lon="2.20074">
        <ele>318.66</ele>
        <time>2026-06-03T15:02:34.567836046Z</time>
      </trkpt>
      <trkpt lat="42.85608" lon="2.2007">
        <ele>318.7</ele>
        <time>2026-06-03T15:02:35.438601017Z</time>
      </trkpt>
      <trkpt lat="42.8561" lon="2.20065">
        <ele>318.77002</ele>
        <time>2026-06-03T15:02:36.529222012Z</time>
      </trkpt>
      <trkpt lat="42.85613" lon="2.2006">
        <ele>318.86</ele>
        <time>2026-06-03T15:02:37.423130035Z</time>
      </trkpt>
      <trkpt lat="42.85615" lon="2.20055">
        <ele>318.97</ele>
        <time>2026-06-03T15:02:38.346281052Z</time>
      </trkpt>
      <trkpt lat="42.85617" lon="2.20049">
        <ele>319.08002</ele>
        <time>2026-06-03T15:02:39.517964959Z</time>
      </trkpt>
      <trkpt lat="42.8562" lon="2.20044">
        <ele>319.21002</ele>
        <time>2026-06-03T15:02:40.540364027Z</time>
      </trkpt>
      <trkpt lat="42.85622" lon="2.2004">
        <ele>319.36</ele>
        <time>2026-06-03T15:02:41.587092042Z</time>
      </trkpt>
      <trkpt lat="42.85625" lon="2.20034">
        <ele>319.53</ele>
        <time>2026-06-03T15:02:42.577916980Z</time>
      </trkpt>
      <trkpt lat="42.85628" lon="2.20029">
        <ele>319.69</ele>
        <time>2026-06-03T15:02:43.538494945Z</time>
      </trkpt>
      <trkpt lat="42.8563" lon="2.20024">
        <ele>319.85</ele>
        <time>2026-06-03T15:02:44.548670053Z</time>
      </trkpt>
      <trkpt lat="42.85633" lon="2.20019">
        <ele>319.9</ele>
        <time>2026-06-03T15:02:45.524324059Z</time>
      </trkpt>
      <trkpt lat="42.85636" lon="2.20014">
        <ele>319.95</ele>
        <time>2026-06-03T15:02:46.388113976Z</time>
      </trkpt>
      <trkpt lat="42.85638" lon="2.2001">
        <ele>320</ele>
        <time>2026-06-03T15:02:47.558501005Z</time>
      </trkpt>
      <trkpt lat="42.8564" lon="2.20004">
        <ele>320.08002</ele>
        <time>2026-06-03T15:02:48.368271947Z</time>
      </trkpt>
      <trkpt lat="42.85642" lon="2.19999">
        <ele>320.18</ele>
        <time>2026-06-03T15:02:49.568649054Z</time>
      </trkpt>
      <trkpt lat="42.85643" lon="2.19993">
        <ele>320.3</ele>
        <time>2026-06-03T15:02:50.528699994Z</time>
      </trkpt>
      <trkpt lat="42.85645" lon="2.19987">
        <ele>320.41</ele>
        <time>2026-06-03T15:02:51.608147979Z</time>
      </trkpt>
      <trkpt lat="42.85647" lon="2.19981">
        <ele>320.55</ele>
        <time>2026-06-03T15:02:52.568019032Z</time>
      </trkpt>
      <trkpt lat="42.85648" lon="2.19975">
        <ele>320.72</ele>
        <time>2026-06-03T15:02:53.361433029Z</time>
      </trkpt>
      <trkpt lat="42.85649" lon="2.19971">
        <ele>320.9</ele>
        <time>2026-06-03T15:02:54.368831038Z</time>
      </trkpt>
      <trkpt lat="42.85651" lon="2.19966">
        <ele>321.11</ele>
        <time>2026-06-03T15:02:55.597949028Z</time>
      </trkpt>
      <trkpt lat="42.85653" lon="2.1996">
        <ele>321.34</ele>
        <time>2026-06-03T15:02:56.529270053Z</time>
      </trkpt>
      <trkpt lat="42.85654" lon="2.19955">
        <ele>321.61</ele>
        <time>2026-06-03T15:02:57.442397952Z</time>
      </trkpt>
      <trkpt lat="42.85655" lon="2.19949">
        <ele>321.9</ele>
        <time>2026-06-03T15:02:58.367702007Z</time>
      </trkpt>
      <trkpt lat="42.85655" lon="2.19943">
        <ele>322.22</ele>
        <time>2026-06-03T15:02:59.648643017Z</time>
      </trkpt>
      <trkpt lat="42.85655" lon="2.19937">
        <ele>322.53998</ele>
        <time>2026-06-03T15:03:00.408735991Z</time>
      </trkpt>
      <trkpt lat="42.85656" lon="2.19932">
        <ele>322.85</ele>
        <time>2026-06-03T15:03:01.570598006Z</time>
      </trkpt>
      <trkpt lat="42.85657" lon="2.19926">
        <ele>323.16</ele>
        <time>2026-06-03T15:03:02.587278008Z</time>
      </trkpt>
      <trkpt lat="42.85658" lon="2.1992">
        <ele>323.43</ele>
        <time>2026-06-03T15:03:03.368036985Z</time>
      </trkpt>
      <trkpt lat="42.85659" lon="2.19915">
        <ele>323.7</ele>
        <time>2026-06-03T15:03:04.569910049Z</time>
      </trkpt>
      <trkpt lat="42.85659" lon="2.19911">
        <ele>323.95</ele>
        <time>2026-06-03T15:03:05.649410963Z</time>
      </trkpt>
      <trkpt lat="42.85661" lon="2.19906">
        <ele>324.2</ele>
        <time>2026-06-03T15:03:06.549649954Z</time>
      </trkpt>
      <trkpt lat="42.85661" lon="2.199">
        <ele>324.44</ele>
        <time>2026-06-03T15:03:07.570366979Z</time>
      </trkpt>
      <trkpt lat="42.85662" lon="2.19894">
        <ele>324.7</ele>
        <time>2026-06-03T15:03:08.457260966Z</time>
      </trkpt>
      <trkpt lat="42.85663" lon="2.19888">
        <ele>324.99</ele>
        <time>2026-06-03T15:03:09.519112945Z</time>
      </trkpt>
      <trkpt lat="42.85663" lon="2.19883">
        <ele>325.28</ele>
        <time>2026-06-03T15:03:10.607368946Z</time>
      </trkpt>
      <trkpt lat="42.85664" lon="2.19878">
        <ele>325.59</ele>
        <time>2026-06-03T15:03:11.349131942Z</time>
      </trkpt>
      <trkpt lat="42.85665" lon="2.19873">
        <ele>325.91</ele>
        <time>2026-06-03T15:03:12.369156957Z</time>
      </trkpt>
      <trkpt lat="42.85666" lon="2.19868">
        <ele>326.22998</ele>
        <time>2026-06-03T15:03:13.371145010Z</time>
      </trkpt>
      <trkpt lat="42.85666" lon="2.19862">
        <ele>326.53998</ele>
        <time>2026-06-03T15:03:14.798828959Z</time>
      </trkpt>
      <trkpt lat="42.85666" lon="2.19857">
        <ele>326.81</ele>
        <time>2026-06-03T15:03:15.379786015Z</time>
      </trkpt>
      <trkpt lat="42.85666" lon="2.19852">
        <ele>327.03998</ele>
        <time>2026-06-03T15:03:16.479292035Z</time>
      </trkpt>
      <trkpt lat="42.85667" lon="2.19847">
        <ele>327.25</ele>
        <time>2026-06-03T15:03:17.408844948Z</time>
      </trkpt>
      <trkpt lat="42.85667" lon="2.19843">
        <ele>327.41998</ele>
        <time>2026-06-03T15:03:18.369266987Z</time>
      </trkpt>
      <trkpt lat="42.85668" lon="2.19837">
        <ele>327.55</ele>
        <time>2026-06-03T15:03:19.450737Z</time>
      </trkpt>
      <trkpt lat="42.85668" lon="2.19832">
        <ele>327.63</ele>
        <time>2026-06-03T15:03:20.409433961Z</time>
      </trkpt>
      <trkpt lat="42.85667" lon="2.19827">
        <ele>327.66</ele>
        <time>2026-06-03T15:03:21.428990960Z</time>
      </trkpt>
      <trkpt lat="42.85667" lon="2.19823">
        <ele>327.65</ele>
        <time>2026-06-03T15:03:22.388229012Z</time>
      </trkpt>
      <trkpt lat="42.85667" lon="2.19817">
        <ele>327.59</ele>
        <time>2026-06-03T15:03:23.462198973Z</time>
      </trkpt>
      <trkpt lat="42.85666" lon="2.1981">
        <ele>327.51</ele>
        <time>2026-06-03T15:03:24.368330956Z</time>
      </trkpt>
      <trkpt lat="42.85665" lon="2.19807">
        <ele>327.4</ele>
        <time>2026-06-03T15:03:25.510095Z</time>
      </trkpt>
      <trkpt lat="42.85663" lon="2.19798">
        <ele>327.28</ele>
        <time>2026-06-03T15:03:26.373752952Z</time>
      </trkpt>
      <trkpt lat="42.85662" lon="2.19792">
        <ele>327.15</ele>
        <time>2026-06-03T15:03:27.549492002Z</time>
      </trkpt>
      <trkpt lat="42.85662" lon="2.19786">
        <ele>327.01</ele>
        <time>2026-06-03T15:03:28.569921017Z</time>
      </trkpt>
      <trkpt lat="42.85662" lon="2.19779">
        <ele>326.86</ele>
        <time>2026-06-03T15:03:29.409183025Z</time>
      </trkpt>
      <trkpt lat="42.85662" lon="2.19774">
        <ele>326.71002</ele>
        <time>2026-06-03T15:03:30.409674048Z</time>
      </trkpt>
      <trkpt lat="42.85664" lon="2.19769">
        <ele>326.55</ele>
        <time>2026-06-03T15:03:31.569074035Z</time>
      </trkpt>
      <trkpt lat="42.85666" lon="2.19763">
        <ele>326.38</ele>
        <time>2026-06-03T15:03:32.528843999Z</time>
      </trkpt>
      <trkpt lat="42.85669" lon="2.19759">
        <ele>326.22998</ele>
        <time>2026-06-03T15:03:33.369478941Z</time>
      </trkpt>
      <trkpt lat="42.8567" lon="2.19756">
        <ele>326.05</ele>
        <time>2026-06-03T15:03:34.479367018Z</time>
      </trkpt>
      <trkpt lat="42.85674" lon="2.19749">
        <ele>325.85</ele>
        <time>2026-06-03T15:03:35.409374952Z</time>
      </trkpt>
      <trkpt lat="42.85677" lon="2.19744">
        <ele>325.63</ele>
        <time>2026-06-03T15:03:36.549743056Z</time>
      </trkpt>
      <trkpt lat="42.85679" lon="2.1974">
        <ele>325.39</ele>
        <time>2026-06-03T15:03:37.570166945Z</time>
      </trkpt>
      <trkpt lat="42.85682" lon="2.19735">
        <ele>325.13</ele>
        <time>2026-06-03T15:03:38.411321998Z</time>
      </trkpt>
      <trkpt lat="42.85684" lon="2.19732">
        <ele>324.9</ele>
        <time>2026-06-03T15:03:39.519178033Z</time>
      </trkpt>
      <trkpt lat="42.85686" lon="2.19727">
        <ele>324.65</ele>
        <time>2026-06-03T15:03:40.378502965Z</time>
      </trkpt>
      <trkpt lat="42.8569" lon="2.19721">
        <ele>324.39</ele>
        <time>2026-06-03T15:03:41.414944053Z</time>
      </trkpt>
      <trkpt lat="42.85693" lon="2.19717">
        <ele>324.16</ele>
        <time>2026-06-03T15:03:42.489717960Z</time>
      </trkpt>
      <trkpt lat="42.85695" lon="2.19711">
        <ele>323.91</ele>
        <time>2026-06-03T15:03:43.381736040Z</time>
      </trkpt>
      <trkpt lat="42.85698" lon="2.19704">
        <ele>323.66998</ele>
        <time>2026-06-03T15:03:44.353785992Z</time>
      </trkpt>
      <trkpt lat="42.85699" lon="2.19701">
        <ele>323.25</ele>
        <time>2026-06-03T15:03:45.407528043Z</time>
      </trkpt>
      <trkpt lat="42.85701" lon="2.19692">
        <ele>322.89</ele>
        <time>2026-06-03T15:03:46.569601059Z</time>
      </trkpt>
      <trkpt lat="42.85703" lon="2.19685">
        <ele>322.53998</ele>
        <time>2026-06-03T15:03:47.396536946Z</time>
      </trkpt>
      <trkpt lat="42.85704" lon="2.1968">
        <ele>322.21002</ele>
        <time>2026-06-03T15:03:48.369251966Z</time>
      </trkpt>
      <trkpt lat="42.85705" lon="2.19673">
        <ele>321.9</ele>
        <time>2026-06-03T15:03:49.358979940Z</time>
      </trkpt>
      <trkpt lat="42.85707" lon="2.19667">
        <ele>321.63</ele>
        <time>2026-06-03T15:03:50.365198016Z</time>
      </trkpt>
      <trkpt lat="42.85708" lon="2.19661">
        <ele>321.36</ele>
        <time>2026-06-03T15:03:51.369814992Z</time>
      </trkpt>
      <trkpt lat="42.8571" lon="2.19657">
        <ele>321.1</ele>
        <time>2026-06-03T15:03:52.570853949Z</time>
      </trkpt>
      <trkpt lat="42.85712" lon="2.19648">
        <ele>320.86</ele>
        <time>2026-06-03T15:03:53.530630946Z</time>
      </trkpt>
      <trkpt lat="42.85713" lon="2.19641">
        <ele>320.65</ele>
        <time>2026-06-03T15:03:54.550235033Z</time>
      </trkpt>
      <trkpt lat="42.85714" lon="2.19636">
        <ele>320.44</ele>
        <time>2026-06-03T15:03:55.426476955Z</time>
      </trkpt>
      <trkpt lat="42.85715" lon="2.19629">
        <ele>320.24</ele>
        <time>2026-06-03T15:03:56.360072970Z</time>
      </trkpt>
      <trkpt lat="42.85715" lon="2.19623">
        <ele>320.06</ele>
        <time>2026-06-03T15:03:57.520087957Z</time>
      </trkpt>
      <trkpt lat="42.85715" lon="2.19615">
        <ele>319.91</ele>
        <time>2026-06-03T15:03:58.570214033Z</time>
      </trkpt>
      <trkpt lat="42.85715" lon="2.19609">
        <ele>319.78</ele>
        <time>2026-06-03T15:03:59.320422053Z</time>
      </trkpt>
      <trkpt lat="42.85715" lon="2.19602">
        <ele>319.64</ele>
        <time>2026-06-03T15:04:00.408524990Z</time>
      </trkpt>
      <trkpt lat="42.85715" lon="2.19596">
        <ele>319.49</ele>
        <time>2026-06-03T15:04:01.370028973Z</time>
      </trkpt>
      <trkpt lat="42.85716" lon="2.19589">
        <ele>319.36</ele>
        <time>2026-06-03T15:04:02.442034006Z</time>
      </trkpt>
      <trkpt lat="42.85717" lon="2.19586">
        <ele>319.24</ele>
        <time>2026-06-03T15:04:03.434458971Z</time>
      </trkpt>
      <trkpt lat="42.85719" lon="2.19577">
        <ele>319.13</ele>
        <time>2026-06-03T15:04:04.389708042Z</time>
      </trkpt>
      <trkpt lat="42.85721" lon="2.19572">
        <ele>319</ele>
        <time>2026-06-03T15:04:05.409191966Z</time>
      </trkpt>
      <trkpt lat="42.85722" lon="2.19567">
        <ele>318.9</ele>
        <time>2026-06-03T15:04:06.370509028Z</time>
      </trkpt>
      <trkpt lat="42.85724" lon="2.19563">
        <ele>318.8</ele>
        <time>2026-06-03T15:04:07.450131059Z</time>
      </trkpt>
      <trkpt lat="42.85725" lon="2.19557">
        <ele>318.7</ele>
        <time>2026-06-03T15:04:08.319857955Z</time>
      </trkpt>
      <trkpt lat="42.85727" lon="2.19553">
        <ele>318.6</ele>
        <time>2026-06-03T15:04:09.428267956Z</time>
      </trkpt>
      <trkpt lat="42.85729" lon="2.19548">
        <ele>318.52002</ele>
        <time>2026-06-03T15:04:10.407565951Z</time>
      </trkpt>
      <trkpt lat="42.85731" lon="2.19544">
        <ele>318.41998</ele>
        <time>2026-06-03T15:04:11.364987969Z</time>
      </trkpt>
      <trkpt lat="42.8573" lon="2.19542">
        <ele>318.33002</ele>
        <time>2026-06-03T15:04:12.611453056Z</time>
      </trkpt>
      <trkpt lat="42.85735" lon="2.19534">
        <ele>318.24</ele>
        <time>2026-06-03T15:04:13.451506972Z</time>
      </trkpt>
      <trkpt lat="42.85735" lon="2.19531">
        <ele>318.15</ele>
        <time>2026-06-03T15:04:14.350569963Z</time>
      </trkpt>
      <trkpt lat="42.85738" lon="2.19525">
        <ele>318.08002</ele>
        <time>2026-06-03T15:04:15.408807993Z</time>
      </trkpt>
      <trkpt lat="42.8574" lon="2.19521">
        <ele>318.02002</ele>
        <time>2026-06-03T15:04:16.373314977Z</time>
      </trkpt>
      <trkpt lat="42.85744" lon="2.19517">
        <ele>317.97</ele>
        <time>2026-06-03T15:04:17.444283009Z</time>
      </trkpt>
      <trkpt lat="42.85746" lon="2.19512">
        <ele>317.91998</ele>
        <time>2026-06-03T15:04:18.370357990Z</time>
      </trkpt>
      <trkpt lat="42.85747" lon="2.19507">
        <ele>317.88</ele>
        <time>2026-06-03T15:04:19.449653983Z</time>
      </trkpt>
      <trkpt lat="42.85748" lon="2.19503">
        <ele>317.85</ele>
        <time>2026-06-03T15:04:20.440793037Z</time>
      </trkpt>
      <trkpt lat="42.85748" lon="2.19498">
        <ele>317.81</ele>
        <time>2026-06-03T15:04:21.489581943Z</time>
      </trkpt>
      <trkpt lat="42.85749" lon="2.19495">
        <ele>317.78</ele>
        <time>2026-06-03T15:04:22.451581001Z</time>
      </trkpt>
      <trkpt lat="42.85749" lon="2.19492">
        <ele>317.75</ele>
        <time>2026-06-03T15:04:23.499042988Z</time>
      </trkpt>
      <trkpt lat="42.85751" lon="2.19489">
        <ele>317.72</ele>
        <time>2026-06-03T15:04:24.490154028Z</time>
      </trkpt>
      <trkpt lat="42.85752" lon="2.19485">
        <ele>317.66998</ele>
        <time>2026-06-03T15:04:25.451588988Z</time>
      </trkpt>
      <trkpt lat="42.85753" lon="2.19482">
        <ele>317.64</ele>
        <time>2026-06-03T15:04:26.389873981Z</time>
      </trkpt>
      <trkpt lat="42.85755" lon="2.19478">
        <ele>317.6</ele>
        <time>2026-06-03T15:04:27.513834953Z</time>
      </trkpt>
      <trkpt lat="42.85757" lon="2.19474">
        <ele>317.56</ele>
        <time>2026-06-03T15:04:28.451972008Z</time>
      </trkpt>
      <trkpt lat="42.85759" lon="2.1947">
        <ele>317.53</ele>
        <time>2026-06-03T15:04:29.560245991Z</time>
      </trkpt>
      <trkpt lat="42.8576" lon="2.19466">
        <ele>317.5</ele>
        <time>2026-06-03T15:04:30.370754004Z</time>
      </trkpt>
      <trkpt lat="42.85762" lon="2.19461">
        <ele>317.47998</ele>
        <time>2026-06-03T15:04:31.388546944Z</time>
      </trkpt>
      <trkpt lat="42.85764" lon="2.19456">
        <ele>317.46002</ele>
        <time>2026-06-03T15:04:32.350649953Z</time>
      </trkpt>
      <trkpt lat="42.85766" lon="2.19451">
        <ele>317.44</ele>
        <time>2026-06-03T15:04:33.414345980Z</time>
      </trkpt>
      <trkpt lat="42.85767" lon="2.19446">
        <ele>317.43</ele>
        <time>2026-06-03T15:04:34.450770020Z</time>
      </trkpt>
      <trkpt lat="42.85769" lon="2.1944">
        <ele>317.41998</ele>
        <time>2026-06-03T15:04:35.410405040Z</time>
      </trkpt>
      <trkpt lat="42.85771" lon="2.19434">
        <ele>317.41998</ele>
        <time>2026-06-03T15:04:36.445222020Z</time>
      </trkpt>
      <trkpt lat="42.85773" lon="2.19429">
        <ele>317.41</ele>
        <time>2026-06-03T15:04:37.450453043Z</time>
      </trkpt>
      <trkpt lat="42.85774" lon="2.19422">
        <ele>317.41</ele>
        <time>2026-06-03T15:04:38.369192004Z</time>
      </trkpt>
      <trkpt lat="42.85776" lon="2.19416">
        <ele>317.41</ele>
        <time>2026-06-03T15:04:39.405048013Z</time>
      </trkpt>
      <trkpt lat="42.85778" lon="2.19409">
        <ele>317.41</ele>
        <time>2026-06-03T15:04:40.387352943Z</time>
      </trkpt>
      <trkpt lat="42.8578" lon="2.19402">
        <ele>317.4</ele>
        <time>2026-06-03T15:04:41.463917971Z</time>
      </trkpt>
      <trkpt lat="42.85781" lon="2.19396">
        <ele>317.39</ele>
        <time>2026-06-03T15:04:42.730504990Z</time>
      </trkpt>
      <trkpt lat="42.85783" lon="2.19391">
        <ele>317.38</ele>
        <time>2026-06-03T15:04:43.562674999Z</time>
      </trkpt>
      <trkpt lat="42.85785" lon="2.19385">
        <ele>317.36</ele>
        <time>2026-06-03T15:04:44.428074956Z</time>
      </trkpt>
      <trkpt lat="42.85788" lon="2.19379">
        <ele>317.22</ele>
        <time>2026-06-03T15:04:45.388456941Z</time>
      </trkpt>
      <trkpt lat="42.85791" lon="2.19375">
        <ele>317.09</ele>
        <time>2026-06-03T15:04:46.367717028Z</time>
      </trkpt>
      <trkpt lat="42.85793" lon="2.19371">
        <ele>316.95</ele>
        <time>2026-06-03T15:04:47.451257944Z</time>
      </trkpt>
      <trkpt lat="42.85795" lon="2.19367">
        <ele>316.83002</ele>
        <time>2026-06-03T15:04:48.349884987Z</time>
      </trkpt>
      <trkpt lat="42.85798" lon="2.19363">
        <ele>316.72</ele>
        <time>2026-06-03T15:04:49.346518993Z</time>
      </trkpt>
      <trkpt lat="42.858" lon="2.19359">
        <ele>316.62</ele>
        <time>2026-06-03T15:04:50.350697994Z</time>
      </trkpt>
      <trkpt lat="42.85802" lon="2.19356">
        <ele>316.55</ele>
        <time>2026-06-03T15:04:51.386590958Z</time>
      </trkpt>
      <trkpt lat="42.85805" lon="2.19354">
        <ele>316.47998</ele>
        <time>2026-06-03T15:04:52.348322988Z</time>
      </trkpt>
      <trkpt lat="42.85806" lon="2.19352">
        <ele>316.44</ele>
        <time>2026-06-03T15:04:53.368633032Z</time>
      </trkpt>
      <trkpt lat="42.85809" lon="2.1935">
        <ele>316.41</ele>
        <time>2026-06-03T15:04:54.491062045Z</time>
      </trkpt>
      <trkpt lat="42.8581" lon="2.19348">
        <ele>316.39</ele>
        <time>2026-06-03T15:04:55.388471007Z</time>
      </trkpt>
      <trkpt lat="42.85813" lon="2.19346">
        <ele>316.38</ele>
        <time>2026-06-03T15:04:56.442312002Z</time>
      </trkpt>
      <trkpt lat="42.85814" lon="2.19344">
        <ele>316.38</ele>
        <time>2026-06-03T15:04:57.410544038Z</time>
      </trkpt>
      <trkpt lat="42.85816" lon="2.19342">
        <ele>316.39</ele>
        <time>2026-06-03T15:04:58.601856947Z</time>
      </trkpt>
      <trkpt lat="42.85818" lon="2.19341">
        <ele>316.4</ele>
        <time>2026-06-03T15:04:59.428117990Z</time>
      </trkpt>
      <trkpt lat="42.8582" lon="2.1934">
        <ele>316.44</ele>
        <time>2026-06-03T15:05:00.391203046Z</time>
      </trkpt>
      <trkpt lat="42.85823" lon="2.19338">
        <ele>316.47998</ele>
        <time>2026-06-03T15:05:01.361333966Z</time>
      </trkpt>
      <trkpt lat="42.85824" lon="2.19338">
        <ele>316.53</ele>
        <time>2026-06-03T15:05:02.396535039Z</time>
      </trkpt>
      <trkpt lat="42.85825" lon="2.19338">
        <ele>316.59</ele>
        <time>2026-06-03T15:05:03.382418036Z</time>
      </trkpt>
      <trkpt lat="42.85828" lon="2.19336">
        <ele>316.66998</ele>
        <time>2026-06-03T15:05:04.570999026Z</time>
      </trkpt>
      <trkpt lat="42.85831" lon="2.19335">
        <ele>316.8</ele>
        <time>2026-06-03T15:05:05.410899997Z</time>
      </trkpt>
      <trkpt lat="42.85833" lon="2.19333">
        <ele>316.91</ele>
        <time>2026-06-03T15:05:06.491160989Z</time>
      </trkpt>
      <trkpt lat="42.85836" lon="2.1933">
        <ele>317.07</ele>
        <time>2026-06-03T15:05:07.348060966Z</time>
      </trkpt>
      <trkpt lat="42.85837" lon="2.1933">
        <ele>317.25</ele>
        <time>2026-06-03T15:05:08.381893039Z</time>
      </trkpt>
      <trkpt lat="42.85839" lon="2.19328">
        <ele>317.47</ele>
        <time>2026-06-03T15:05:09.370123029Z</time>
      </trkpt>
      <trkpt lat="42.85843" lon="2.19327">
        <ele>317.75</ele>
        <time>2026-06-03T15:05:10.390424967Z</time>
      </trkpt>
      <trkpt lat="42.85845" lon="2.19325">
        <ele>318.08002</ele>
        <time>2026-06-03T15:05:11.412832975Z</time>
      </trkpt>
      <trkpt lat="42.85847" lon="2.19325">
        <ele>318.45</ele>
        <time>2026-06-03T15:05:12.441905975Z</time>
      </trkpt>
      <trkpt lat="42.85851" lon="2.19323">
        <ele>318.83002</ele>
        <time>2026-06-03T15:05:13.751441002Z</time>
      </trkpt>
      <trkpt lat="42.85852" lon="2.19322">
        <ele>319.22</ele>
        <time>2026-06-03T15:05:14.324494004Z</time>
      </trkpt>
      <trkpt lat="42.85854" lon="2.19321">
        <ele>319.56</ele>
        <time>2026-06-03T15:05:15.408396959Z</time>
      </trkpt>
      <trkpt lat="42.85857" lon="2.19319">
        <ele>319.87</ele>
        <time>2026-06-03T15:05:16.572110057Z</time>
      </trkpt>
      <trkpt lat="42.85859" lon="2.19318">
        <ele>320.15</ele>
        <time>2026-06-03T15:05:17.410809994Z</time>
      </trkpt>
      <trkpt lat="42.85862" lon="2.19315">
        <ele>320.4</ele>
        <time>2026-06-03T15:05:18.371260047Z</time>
      </trkpt>
      <trkpt lat="42.85866" lon="2.19312">
        <ele>320.66</ele>
        <time>2026-06-03T15:05:19.511150956Z</time>
      </trkpt>
      <trkpt lat="42.85868" lon="2.1931">
        <ele>320.91998</ele>
        <time>2026-06-03T15:05:20.460049987Z</time>
      </trkpt>
      <trkpt lat="42.85871" lon="2.19307">
        <ele>321.19</ele>
        <time>2026-06-03T15:05:21.428334951Z</time>
      </trkpt>
      <trkpt lat="42.85873" lon="2.19305">
        <ele>321.47</ele>
        <time>2026-06-03T15:05:22.361906052Z</time>
      </trkpt>
      <trkpt lat="42.85876" lon="2.19303">
        <ele>321.75</ele>
        <time>2026-06-03T15:05:23.427170992Z</time>
      </trkpt>
      <trkpt lat="42.85878" lon="2.19301">
        <ele>322.05</ele>
        <time>2026-06-03T15:05:24.371590972Z</time>
      </trkpt>
      <trkpt lat="42.85881" lon="2.19298">
        <ele>322.35</ele>
        <time>2026-06-03T15:05:25.409230947Z</time>
      </trkpt>
      <trkpt lat="42.85883" lon="2.19295">
        <ele>322.65</ele>
        <time>2026-06-03T15:05:26.411416054Z</time>
      </trkpt>
      <trkpt lat="42.85885" lon="2.19292">
        <ele>322.93</ele>
        <time>2026-06-03T15:05:27.521342993Z</time>
      </trkpt>
      <trkpt lat="42.85887" lon="2.1929">
        <ele>323.21002</ele>
        <time>2026-06-03T15:05:28.841341972Z</time>
      </trkpt>
      <trkpt lat="42.85889" lon="2.19287">
        <ele>323.47998</ele>
        <time>2026-06-03T15:05:29.592288017Z</time>
      </trkpt>
      <trkpt lat="42.85891" lon="2.19285">
        <ele>323.71002</ele>
        <time>2026-06-03T15:05:30.386944056Z</time>
      </trkpt>
      <trkpt lat="42.85893" lon="2.19282">
        <ele>323.93</ele>
        <time>2026-06-03T15:05:31.455860972Z</time>
      </trkpt>
      <trkpt lat="42.85895" lon="2.19279">
        <ele>324.16</ele>
        <time>2026-06-03T15:05:32.410773039Z</time>
      </trkpt>
      <trkpt lat="42.85897" lon="2.19277">
        <ele>324.39</ele>
        <time>2026-06-03T15:05:33.370825052Z</time>
      </trkpt>
      <trkpt lat="42.85899" lon="2.19275">
        <ele>324.6</ele>
        <time>2026-06-03T15:05:34.452481985Z</time>
      </trkpt>
      <trkpt lat="42.85901" lon="2.19272">
        <ele>324.82</ele>
        <time>2026-06-03T15:05:35.411630988Z</time>
      </trkpt>
      <trkpt lat="42.85903" lon="2.1927">
        <ele>325.06</ele>
        <time>2026-06-03T15:05:36.405576944Z</time>
      </trkpt>
      <trkpt lat="42.85905" lon="2.19266">
        <ele>325.34</ele>
        <time>2026-06-03T15:05:37.366706967Z</time>
      </trkpt>
      <trkpt lat="42.85907" lon="2.19264">
        <ele>325.64</ele>
        <time>2026-06-03T15:05:38.358113050Z</time>
      </trkpt>
      <trkpt lat="42.85909" lon="2.19261">
        <ele>325.96002</ele>
        <time>2026-06-03T15:05:39.491044998Z</time>
      </trkpt>
      <trkpt lat="42.8591" lon="2.19258">
        <ele>326.28</ele>
        <time>2026-06-03T15:05:40.386999011Z</time>
      </trkpt>
      <trkpt lat="42.85912" lon="2.19255">
        <ele>326.59</ele>
        <time>2026-06-03T15:05:41.411476970Z</time>
      </trkpt>
      <trkpt lat="42.85914" lon="2.19252">
        <ele>326.88</ele>
        <time>2026-06-03T15:05:42.400580049Z</time>
      </trkpt>
      <trkpt lat="42.85916" lon="2.19249">
        <ele>327.15</ele>
        <time>2026-06-03T15:05:43.347126961Z</time>
      </trkpt>
      <trkpt lat="42.85918" lon="2.19247">
        <ele>327.4</ele>
        <time>2026-06-03T15:05:44.366399050Z</time>
      </trkpt>
      <trkpt lat="42.8592" lon="2.19244">
        <ele>327.51</ele>
        <time>2026-06-03T15:05:45.385028958Z</time>
      </trkpt>
      <trkpt lat="42.85922" lon="2.19242">
        <ele>327.62</ele>
        <time>2026-06-03T15:05:46.571977973Z</time>
      </trkpt>
      <trkpt lat="42.85924" lon="2.1924">
        <ele>327.74</ele>
        <time>2026-06-03T15:05:47.411960959Z</time>
      </trkpt>
      <trkpt lat="42.85925" lon="2.19237">
        <ele>327.87</ele>
        <time>2026-06-03T15:05:48.492205977Z</time>
      </trkpt>
      <trkpt lat="42.85928" lon="2.19235">
        <ele>328</ele>
        <time>2026-06-03T15:05:49.405930996Z</time>
      </trkpt>
      <trkpt lat="42.85929" lon="2.19232">
        <ele>328.15</ele>
        <time>2026-06-03T15:05:50.411911011Z</time>
      </trkpt>
      <trkpt lat="42.8593" lon="2.1923">
        <ele>328.31</ele>
        <time>2026-06-03T15:05:51.386088014Z</time>
      </trkpt>
      <trkpt lat="42.85932" lon="2.19227">
        <ele>328.49</ele>
        <time>2026-06-03T15:05:52.481843948Z</time>
      </trkpt>
      <trkpt lat="42.85933" lon="2.19224">
        <ele>328.69</ele>
        <time>2026-06-03T15:05:53.421187043Z</time>
      </trkpt>
      <trkpt lat="42.85934" lon="2.19221">
        <ele>328.91998</ele>
        <time>2026-06-03T15:05:54.371427059Z</time>
      </trkpt>
      <trkpt lat="42.85935" lon="2.19218">
        <ele>329.19</ele>
        <time>2026-06-03T15:05:55.387905955Z</time>
      </trkpt>
      <trkpt lat="42.85936" lon="2.19215">
        <ele>329.49</ele>
        <time>2026-06-03T15:05:56.329753995Z</time>
      </trkpt>
      <trkpt lat="42.85937" lon="2.19213">
        <ele>329.82</ele>
        <time>2026-06-03T15:05:57.373474002Z</time>
      </trkpt>
      <trkpt lat="42.85938" lon="2.19209">
        <ele>330.14</ele>
        <time>2026-06-03T15:05:58.391728997Z</time>
      </trkpt>
      <trkpt lat="42.85938" lon="2.19206">
        <ele>330.41</ele>
        <time>2026-06-03T15:05:59.369492054Z</time>
      </trkpt>
      <trkpt lat="42.85939" lon="2.19202">
        <ele>330.65</ele>
        <time>2026-06-03T15:06:00.401419997Z</time>
      </trkpt>
      <trkpt lat="42.85939" lon="2.19199">
        <ele>330.85</ele>
        <time>2026-06-03T15:06:01.392171025Z</time>
      </trkpt>
      <trkpt lat="42.85939" lon="2.19195">
        <ele>331.02002</ele>
        <time>2026-06-03T15:06:02.412804008Z</time>
      </trkpt>
      <trkpt lat="42.8594" lon="2.19191">
        <ele>331.16998</ele>
        <time>2026-06-03T15:06:03.391065001Z</time>
      </trkpt>
      <trkpt lat="42.8594" lon="2.19188">
        <ele>331.3</ele>
        <time>2026-06-03T15:06:04.363615036Z</time>
      </trkpt>
      <trkpt lat="42.85941" lon="2.19185">
        <ele>331.41998</ele>
        <time>2026-06-03T15:06:05.411718011Z</time>
      </trkpt>
      <trkpt lat="42.85942" lon="2.19182">
        <ele>331.53</ele>
        <time>2026-06-03T15:06:06.395223022Z</time>
      </trkpt>
      <trkpt lat="42.85944" lon="2.19179">
        <ele>331.61</ele>
        <time>2026-06-03T15:06:07.397850990Z</time>
      </trkpt>
      <trkpt lat="42.85945" lon="2.19175">
        <ele>331.66</ele>
        <time>2026-06-03T15:06:08.426012039Z</time>
      </trkpt>
      <trkpt lat="42.85946" lon="2.19173">
        <ele>331.69</ele>
        <time>2026-06-03T15:06:09.372349024Z</time>
      </trkpt>
      <trkpt lat="42.85948" lon="2.19171">
        <ele>331.7</ele>
        <time>2026-06-03T15:06:10.602946043Z</time>
      </trkpt>
      <trkpt lat="42.8595" lon="2.19169">
        <ele>331.7</ele>
        <time>2026-06-03T15:06:11.421689987Z</time>
      </trkpt>
      <trkpt lat="42.85952" lon="2.19168">
        <ele>331.71002</ele>
        <time>2026-06-03T15:06:12.432237983Z</time>
      </trkpt>
      <trkpt lat="42.85954" lon="2.19166">
        <ele>331.72</ele>
        <time>2026-06-03T15:06:13.482967973Z</time>
      </trkpt>
      <trkpt lat="42.85955" lon="2.19165">
        <ele>331.75</ele>
        <time>2026-06-03T15:06:14.667580962Z</time>
      </trkpt>
      <trkpt lat="42.85957" lon="2.19164">
        <ele>331.75</ele>
        <time>2026-06-03T15:06:15.493327022Z</time>
      </trkpt>
      <trkpt lat="42.85958" lon="2.19163">
        <ele>331.83002</ele>
        <time>2026-06-03T15:06:16.632190943Z</time>
      </trkpt>
      <trkpt lat="42.8596" lon="2.19162">
        <ele>331.89</ele>
        <time>2026-06-03T15:06:17.366803050Z</time>
      </trkpt>
      <trkpt lat="42.85963" lon="2.19159">
        <ele>332.03998</ele>
        <time>2026-06-03T15:06:19.396692038Z</time>
      </trkpt>
      <trkpt lat="42.85963" lon="2.19157">
        <ele>332.03998</ele>
        <time>2026-06-03T15:06:20.415215015Z</time>
      </trkpt>
      <trkpt lat="42.85962" lon="2.19155">
        <ele>332.13</ele>
        <time>2026-06-03T15:06:21.523105979Z</time>
      </trkpt>
      <trkpt lat="42.85962" lon="2.19153">
        <ele>332.15</ele>
        <time>2026-06-03T15:06:22.391757965Z</time>
      </trkpt>
      <trkpt lat="42.8596" lon="2.19152">
        <ele>332.18</ele>
        <time>2026-06-03T15:06:23.412472963Z</time>
      </trkpt>
      <trkpt lat="42.85958" lon="2.19147">
        <ele>332.2</ele>
        <time>2026-06-03T15:06:25.364889979Z</time>
      </trkpt>
      <trkpt lat="42.85958" lon="2.19146">
        <ele>332.27002</ele>
        <time>2026-06-03T15:06:26.412799001Z</time>
      </trkpt>
      <trkpt lat="42.8596" lon="2.19149">
        <ele>332.32</ele>
        <time>2026-06-03T15:07:36.458219051Z</time>
      </trkpt>
      <trkpt lat="42.8596" lon="2.19156">
        <ele>332.32</ele>
        <time>2026-06-03T15:07:47.496034026Z</time>
      </trkpt>
      <trkpt lat="42.85959" lon="2.19152">
        <ele>333.16</ele>
        <time>2026-06-03T15:07:49.332873940Z</time>
      </trkpt>
      <trkpt lat="42.8596" lon="2.19154">
        <ele>333.09</ele>
        <time>2026-06-03T15:07:50.442644954Z</time>
      </trkpt>
      <trkpt lat="42.8596" lon="2.19155">
        <ele>333.07</ele>
        <time>2026-06-03T15:07:51.432536960Z</time>
      </trkpt>
      <trkpt lat="42.85961" lon="2.19157">
        <ele>333.05</ele>
        <time>2026-06-03T15:07:52.452702999Z</time>
      </trkpt>
      <trkpt lat="42.85962" lon="2.19159">
        <ele>333.02002</ele>
        <time>2026-06-03T15:07:53.441293001Z</time>
      </trkpt>
      <trkpt lat="42.85965" lon="2.19162">
        <ele>332.97998</ele>
        <time>2026-06-03T15:07:55.453511953Z</time>
      </trkpt>
      <trkpt lat="42.85967" lon="2.19162">
        <ele>332.95</ele>
        <time>2026-06-03T15:07:56.353713036Z</time>
      </trkpt>
      <trkpt lat="42.85968" lon="2.19162">
        <ele>332.83002</ele>
        <time>2026-06-03T15:07:57.373792052Z</time>
      </trkpt>
      <trkpt lat="42.8597" lon="2.19161">
        <ele>332.7</ele>
        <time>2026-06-03T15:07:58.366613030Z</time>
      </trkpt>
      <trkpt lat="42.85973" lon="2.19161">
        <ele>332.56</ele>
        <time>2026-06-03T15:07:59.349619985Z</time>
      </trkpt>
      <trkpt lat="42.85974" lon="2.19161">
        <ele>332.4</ele>
        <time>2026-06-03T15:08:00.385645032Z</time>
      </trkpt>
      <trkpt lat="42.85977" lon="2.19163">
        <ele>332.22</ele>
        <time>2026-06-03T15:08:01.393308997Z</time>
      </trkpt>
      <trkpt lat="42.85981" lon="2.19165">
        <ele>332.02002</ele>
        <time>2026-06-03T15:08:02.349887967Z</time>
      </trkpt>
      <trkpt lat="42.85983" lon="2.19168">
        <ele>331.78</ele>
        <time>2026-06-03T15:08:03.375704050Z</time>
      </trkpt>
      <trkpt lat="42.85986" lon="2.1917">
        <ele>331.51</ele>
        <time>2026-06-03T15:08:04.387143016Z</time>
      </trkpt>
      <trkpt lat="42.85988" lon="2.19174">
        <ele>331.18</ele>
        <time>2026-06-03T15:08:05.423161983Z</time>
      </trkpt>
      <trkpt lat="42.85994" lon="2.1918">
        <ele>330.83002</ele>
        <time>2026-06-03T15:08:06.415279031Z</time>
      </trkpt>
      <trkpt lat="42.85999" lon="2.19183">
        <ele>330.43</ele>
        <time>2026-06-03T15:08:07.454169035Z</time>
      </trkpt>
      <trkpt lat="42.86003" lon="2.19186">
        <ele>329.97998</ele>
        <time>2026-06-03T15:08:08.414091945Z</time>
      </trkpt>
      <trkpt lat="42.86007" lon="2.1919">
        <ele>329.52002</ele>
        <time>2026-06-03T15:08:09.376170039Z</time>
      </trkpt>
      <trkpt lat="42.8601" lon="2.19193">
        <ele>329.13</ele>
        <time>2026-06-03T15:08:10.390056968Z</time>
      </trkpt>
      <trkpt lat="42.86014" lon="2.19197">
        <ele>328.72998</ele>
        <time>2026-06-03T15:08:11.414739013Z</time>
      </trkpt>
      <trkpt lat="42.86018" lon="2.192">
        <ele>328.34</ele>
        <time>2026-06-03T15:08:12.374644041Z</time>
      </trkpt>
      <trkpt lat="42.86022" lon="2.19204">
        <ele>327.94</ele>
        <time>2026-06-03T15:08:13.454251051Z</time>
      </trkpt>
      <trkpt lat="42.86026" lon="2.19207">
        <ele>327.57</ele>
        <time>2026-06-03T15:08:14.354182005Z</time>
      </trkpt>
      <trkpt lat="42.86029" lon="2.1921">
        <ele>327.21002</ele>
        <time>2026-06-03T15:08:15.386487007Z</time>
      </trkpt>
      <trkpt lat="42.86034" lon="2.19213">
        <ele>326.85</ele>
        <time>2026-06-03T15:08:16.454445958Z</time>
      </trkpt>
      <trkpt lat="42.86038" lon="2.19217">
        <ele>326.47998</ele>
        <time>2026-06-03T15:08:17.441416979Z</time>
      </trkpt>
      <trkpt lat="42.86042" lon="2.1922">
        <ele>326.09</ele>
        <time>2026-06-03T15:08:18.404896975Z</time>
      </trkpt>
      <trkpt lat="42.86045" lon="2.19224">
        <ele>325.7</ele>
        <time>2026-06-03T15:08:19.453569055Z</time>
      </trkpt>
      <trkpt lat="42.8605" lon="2.19226">
        <ele>325.3</ele>
        <time>2026-06-03T15:08:20.413678050Z</time>
      </trkpt>
      <trkpt lat="42.86053" lon="2.19229">
        <ele>324.9</ele>
        <time>2026-06-03T15:08:21.375293970Z</time>
      </trkpt>
      <trkpt lat="42.86058" lon="2.19233">
        <ele>324.5</ele>
        <time>2026-06-03T15:08:22.454630971Z</time>
      </trkpt>
      <trkpt lat="42.86061" lon="2.19235">
        <ele>324.09</ele>
        <time>2026-06-03T15:08:23.475976944Z</time>
      </trkpt>
      <trkpt lat="42.86065" lon="2.19239">
        <ele>323.66998</ele>
        <time>2026-06-03T15:08:24.374418020Z</time>
      </trkpt>
      <trkpt lat="42.86069" lon="2.19241">
        <ele>323.32</ele>
        <time>2026-06-03T15:08:25.453757048Z</time>
      </trkpt>
      <trkpt lat="42.86073" lon="2.19246">
        <ele>322.95</ele>
        <time>2026-06-03T15:08:26.413856983Z</time>
      </trkpt>
      <trkpt lat="42.86077" lon="2.19249">
        <ele>322.56</ele>
        <time>2026-06-03T15:08:27.409041047Z</time>
      </trkpt>
      <trkpt lat="42.8608" lon="2.19253">
        <ele>322.15</ele>
        <time>2026-06-03T15:08:28.454543948Z</time>
      </trkpt>
      <trkpt lat="42.86084" lon="2.19257">
        <ele>321.78998</ele>
        <time>2026-06-03T15:08:29.414747Z</time>
      </trkpt>
      <trkpt lat="42.86087" lon="2.19261">
        <ele>321.38</ele>
        <time>2026-06-03T15:08:30.390061021Z</time>
      </trkpt>
      <trkpt lat="42.8609" lon="2.19266">
        <ele>320.94</ele>
        <time>2026-06-03T15:08:31.454332948Z</time>
      </trkpt>
      <trkpt lat="42.86093" lon="2.19271">
        <ele>320.46002</ele>
        <time>2026-06-03T15:08:32.475447059Z</time>
      </trkpt>
      <trkpt lat="42.86096" lon="2.19275">
        <ele>320.05</ele>
        <time>2026-06-03T15:08:33.380733967Z</time>
      </trkpt>
      <trkpt lat="42.861" lon="2.1928">
        <ele>319.57</ele>
        <time>2026-06-03T15:08:34.436750054Z</time>
      </trkpt>
      <trkpt lat="42.86103" lon="2.19285">
        <ele>319.05</ele>
        <time>2026-06-03T15:08:35.389667988Z</time>
      </trkpt>
      <trkpt lat="42.86107" lon="2.19289">
        <ele>318.53</ele>
        <time>2026-06-03T15:08:36.398939013Z</time>
      </trkpt>
      <trkpt lat="42.86111" lon="2.19293">
        <ele>318.08002</ele>
        <time>2026-06-03T15:08:37.393672943Z</time>
      </trkpt>
      <trkpt lat="42.86115" lon="2.19297">
        <ele>317.59</ele>
        <time>2026-06-03T15:08:38.449594975Z</time>
      </trkpt>
      <trkpt lat="42.86119" lon="2.19301">
        <ele>317.09</ele>
        <time>2026-06-03T15:08:39.442551970Z</time>
      </trkpt>
      <trkpt lat="42.86122" lon="2.19304">
        <ele>316.58002</ele>
        <time>2026-06-03T15:08:40.394634962Z</time>
      </trkpt>
      <trkpt lat="42.86126" lon="2.19308">
        <ele>316.16</ele>
        <time>2026-06-03T15:08:41.476132035Z</time>
      </trkpt>
      <trkpt lat="42.86129" lon="2.19311">
        <ele>315.72</ele>
        <time>2026-06-03T15:08:42.383553028Z</time>
      </trkpt>
      <trkpt lat="42.86133" lon="2.19314">
        <ele>315.26</ele>
        <time>2026-06-03T15:08:43.454715014Z</time>
      </trkpt>
      <trkpt lat="42.86137" lon="2.19317">
        <ele>314.82</ele>
        <time>2026-06-03T15:08:44.354966044Z</time>
      </trkpt>
      <trkpt lat="42.86141" lon="2.19319">
        <ele>314.45</ele>
        <time>2026-06-03T15:08:45.386471033Z</time>
      </trkpt>
      <trkpt lat="42.86144" lon="2.19321">
        <ele>314.08002</ele>
        <time>2026-06-03T15:08:46.394847989Z</time>
      </trkpt>
      <trkpt lat="42.86147" lon="2.19323">
        <ele>313.66998</ele>
        <time>2026-06-03T15:08:47.476448059Z</time>
      </trkpt>
      <trkpt lat="42.8615" lon="2.19323">
        <ele>313.27002</ele>
        <time>2026-06-03T15:08:48.434720039Z</time>
      </trkpt>
      <trkpt lat="42.86155" lon="2.19324">
        <ele>312.91998</ele>
        <time>2026-06-03T15:08:49.358086944Z</time>
      </trkpt>
      <trkpt lat="42.86158" lon="2.19324">
        <ele>312.53</ele>
        <time>2026-06-03T15:08:50.388476014Z</time>
      </trkpt>
      <trkpt lat="42.86163" lon="2.19324">
        <ele>312.12</ele>
        <time>2026-06-03T15:08:51.417608976Z</time>
      </trkpt>
      <trkpt lat="42.86166" lon="2.19324">
        <ele>311.66</ele>
        <time>2026-06-03T15:08:52.397057056Z</time>
      </trkpt>
      <trkpt lat="42.86169" lon="2.19323">
        <ele>311.27002</ele>
        <time>2026-06-03T15:08:53.426795006Z</time>
      </trkpt>
      <trkpt lat="42.86172" lon="2.19321">
        <ele>310.84</ele>
        <time>2026-06-03T15:08:54.438552976Z</time>
      </trkpt>
      <trkpt lat="42.86176" lon="2.19321">
        <ele>310.36</ele>
        <time>2026-06-03T15:08:55.454656959Z</time>
      </trkpt>
      <trkpt lat="42.86181" lon="2.19318">
        <ele>309.9</ele>
        <time>2026-06-03T15:08:56.414999008Z</time>
      </trkpt>
      <trkpt lat="42.86186" lon="2.19317">
        <ele>309.35</ele>
        <time>2026-06-03T15:08:57.435462952Z</time>
      </trkpt>
      <trkpt lat="42.8619" lon="2.19316">
        <ele>308.77002</ele>
        <time>2026-06-03T15:08:58.455068946Z</time>
      </trkpt>
      <trkpt lat="42.86193" lon="2.19316">
        <ele>308.21002</ele>
        <time>2026-06-03T15:08:59.415565014Z</time>
      </trkpt>
      <trkpt lat="42.86197" lon="2.19315">
        <ele>307.69</ele>
        <time>2026-06-03T15:09:00.389533043Z</time>
      </trkpt>
      <trkpt lat="42.862" lon="2.19314">
        <ele>307.27002</ele>
        <time>2026-06-03T15:09:01.369920015Z</time>
      </trkpt>
      <trkpt lat="42.86203" lon="2.19312">
        <ele>306.85</ele>
        <time>2026-06-03T15:09:02.476536989Z</time>
      </trkpt>
      <trkpt lat="42.86206" lon="2.1931">
        <ele>306.45</ele>
        <time>2026-06-03T15:09:03.438995957Z</time>
      </trkpt>
      <trkpt lat="42.8621" lon="2.19308">
        <ele>306.03998</ele>
        <time>2026-06-03T15:09:04.357388973Z</time>
      </trkpt>
      <trkpt lat="42.86214" lon="2.19306">
        <ele>305.7</ele>
        <time>2026-06-03T15:09:05.384801030Z</time>
      </trkpt>
      <trkpt lat="42.86218" lon="2.19306">
        <ele>305.37</ele>
        <time>2026-06-03T15:09:06.395300031Z</time>
      </trkpt>
      <trkpt lat="42.86222" lon="2.19305">
        <ele>305.03998</ele>
        <time>2026-06-03T15:09:07.470708966Z</time>
      </trkpt>
      <trkpt lat="42.86227" lon="2.19306">
        <ele>304.76</ele>
        <time>2026-06-03T15:09:08.354511976Z</time>
      </trkpt>
      <trkpt lat="42.86232" lon="2.19305">
        <ele>304.51</ele>
        <time>2026-06-03T15:09:09.397040009Z</time>
      </trkpt>
      <trkpt lat="42.86235" lon="2.19305">
        <ele>304.28</ele>
        <time>2026-06-03T15:09:10.395123005Z</time>
      </trkpt>
      <trkpt lat="42.86238" lon="2.19302">
        <ele>304.08002</ele>
        <time>2026-06-03T15:09:11.445894003Z</time>
      </trkpt>
      <trkpt lat="42.86243" lon="2.19303">
        <ele>303.9</ele>
        <time>2026-06-03T15:09:12.496677041Z</time>
      </trkpt>
      <trkpt lat="42.86246" lon="2.19302">
        <ele>303.74</ele>
        <time>2026-06-03T15:09:13.352728963Z</time>
      </trkpt>
      <trkpt lat="42.8625" lon="2.19302">
        <ele>303.59</ele>
        <time>2026-06-03T15:09:14.476297975Z</time>
      </trkpt>
      <trkpt lat="42.86253" lon="2.19302">
        <ele>303.45</ele>
        <time>2026-06-03T15:09:15.400374055Z</time>
      </trkpt>
      <trkpt lat="42.86256" lon="2.19303">
        <ele>303.32</ele>
        <time>2026-06-03T15:09:16.352262974Z</time>
      </trkpt>
      <trkpt lat="42.86258" lon="2.19303">
        <ele>303.2</ele>
        <time>2026-06-03T15:09:17.476187944Z</time>
      </trkpt>
      <trkpt lat="42.8626" lon="2.19303">
        <ele>303.1</ele>
        <time>2026-06-03T15:09:18.435088992Z</time>
      </trkpt>
      <trkpt lat="42.86263" lon="2.19302">
        <ele>303.02002</ele>
        <time>2026-06-03T15:09:19.394886971Z</time>
      </trkpt>
      <trkpt lat="42.86266" lon="2.19303">
        <ele>302.96002</ele>
        <time>2026-06-03T15:09:20.389464974Z</time>
      </trkpt>
      <trkpt lat="42.8627" lon="2.19301">
        <ele>302.9</ele>
        <time>2026-06-03T15:09:21.435026050Z</time>
      </trkpt>
      <trkpt lat="42.86275" lon="2.193">
        <ele>302.86</ele>
        <time>2026-06-03T15:09:22.455510974Z</time>
      </trkpt>
      <trkpt lat="42.86278" lon="2.19299">
        <ele>302.82</ele>
        <time>2026-06-03T15:09:23.382876039Z</time>
      </trkpt>
      <trkpt lat="42.86282" lon="2.19298">
        <ele>302.78998</ele>
        <time>2026-06-03T15:09:24.375061035Z</time>
      </trkpt>
      <trkpt lat="42.86285" lon="2.19298">
        <ele>302.77002</ele>
        <time>2026-06-03T15:09:25.455260038Z</time>
      </trkpt>
      <trkpt lat="42.8629" lon="2.19297">
        <ele>302.74</ele>
        <time>2026-06-03T15:09:26.475314021Z</time>
      </trkpt>
      <trkpt lat="42.86295" lon="2.19295">
        <ele>302.72</ele>
        <time>2026-06-03T15:09:27.377367973Z</time>
      </trkpt>
      <trkpt lat="42.86301" lon="2.19293">
        <ele>302.7</ele>
        <time>2026-06-03T15:09:28.515287995Z</time>
      </trkpt>
      <trkpt lat="42.86306" lon="2.1929">
        <ele>302.68</ele>
        <time>2026-06-03T15:09:29.428117037Z</time>
      </trkpt>
      <trkpt lat="42.86312" lon="2.19288">
        <ele>302.66</ele>
        <time>2026-06-03T15:09:30.386273026Z</time>
      </trkpt>
      <trkpt lat="42.86318" lon="2.19285">
        <ele>302.64</ele>
        <time>2026-06-03T15:09:31.438387990Z</time>
      </trkpt>
      <trkpt lat="42.86322" lon="2.19282">
        <ele>302.59</ele>
        <time>2026-06-03T15:09:32.476999998Z</time>
      </trkpt>
      <trkpt lat="42.86327" lon="2.1928">
        <ele>302.55</ele>
        <time>2026-06-03T15:09:33.435402989Z</time>
      </trkpt>
      <trkpt lat="42.8633" lon="2.19276">
        <ele>302.5</ele>
        <time>2026-06-03T15:09:34.455384016Z</time>
      </trkpt>
      <trkpt lat="42.86336" lon="2.19273">
        <ele>302.43</ele>
        <time>2026-06-03T15:09:35.386782050Z</time>
      </trkpt>
      <trkpt lat="42.86341" lon="2.19268">
        <ele>302.36</ele>
        <time>2026-06-03T15:09:36.431972980Z</time>
      </trkpt>
      <trkpt lat="42.86346" lon="2.19266">
        <ele>302.28998</ele>
        <time>2026-06-03T15:09:37.368237019Z</time>
      </trkpt>
      <trkpt lat="42.86351" lon="2.19262">
        <ele>302.2</ele>
        <time>2026-06-03T15:09:38.425212979Z</time>
      </trkpt>
      <trkpt lat="42.86356" lon="2.1926">
        <ele>302.09</ele>
        <time>2026-06-03T15:09:39.375051022Z</time>
      </trkpt>
      <trkpt lat="42.86361" lon="2.19257">
        <ele>302</ele>
        <time>2026-06-03T15:09:40.664404035Z</time>
      </trkpt>
      <trkpt lat="42.86364" lon="2.19254">
        <ele>301.91</ele>
        <time>2026-06-03T15:09:41.476758003Z</time>
      </trkpt>
      <trkpt lat="42.86368" lon="2.1925">
        <ele>301.83002</ele>
        <time>2026-06-03T15:09:42.397389054Z</time>
      </trkpt>
      <trkpt lat="42.86372" lon="2.19248">
        <ele>301.74</ele>
        <time>2026-06-03T15:09:43.455505967Z</time>
      </trkpt>
      <trkpt lat="42.86377" lon="2.19244">
        <ele>301.65</ele>
        <time>2026-06-03T15:09:44.477573991Z</time>
      </trkpt>
      <trkpt lat="42.86381" lon="2.19241">
        <ele>301.57</ele>
        <time>2026-06-03T15:09:45.387115002Z</time>
      </trkpt>
      <trkpt lat="42.86385" lon="2.19238">
        <ele>301.49</ele>
        <time>2026-06-03T15:09:46.455857038Z</time>
      </trkpt>
      <trkpt lat="42.86388" lon="2.19236">
        <ele>301.4</ele>
        <time>2026-06-03T15:09:47.476941943Z</time>
      </trkpt>
      <trkpt lat="42.86391" lon="2.19234">
        <ele>301.31</ele>
        <time>2026-06-03T15:09:48.452492952Z</time>
      </trkpt>
      <trkpt lat="42.86395" lon="2.19231">
        <ele>301.22998</ele>
        <time>2026-06-03T15:09:49.455734968Z</time>
      </trkpt>
      <trkpt lat="42.86399" lon="2.19228">
        <ele>301.15</ele>
        <time>2026-06-03T15:09:50.388293982Z</time>
      </trkpt>
      <trkpt lat="42.86402" lon="2.19226">
        <ele>301.08002</ele>
        <time>2026-06-03T15:09:51.494603992Z</time>
      </trkpt>
      <trkpt lat="42.86405" lon="2.19223">
        <ele>301.02002</ele>
        <time>2026-06-03T15:09:52.377653003Z</time>
      </trkpt>
      <trkpt lat="42.86407" lon="2.1922">
        <ele>300.96002</ele>
        <time>2026-06-03T15:09:53.475890994Z</time>
      </trkpt>
      <trkpt lat="42.8641" lon="2.19216">
        <ele>300.91998</ele>
        <time>2026-06-03T15:09:54.386029005Z</time>
      </trkpt>
      <trkpt lat="42.86413" lon="2.19212">
        <ele>300.88</ele>
        <time>2026-06-03T15:09:55.458374977Z</time>
      </trkpt>
      <trkpt lat="42.86416" lon="2.19207">
        <ele>300.85</ele>
        <time>2026-06-03T15:09:56.476161957Z</time>
      </trkpt>
      <trkpt lat="42.86418" lon="2.19204">
        <ele>300.91998</ele>
        <time>2026-06-03T15:09:57.495211959Z</time>
      </trkpt>
      <trkpt lat="42.86421" lon="2.192">
        <ele>301</ele>
        <time>2026-06-03T15:09:58.455152988Z</time>
      </trkpt>
      <trkpt lat="42.86423" lon="2.19195">
        <ele>301.07</ele>
        <time>2026-06-03T15:09:59.365856051Z</time>
      </trkpt>
      <trkpt lat="42.86426" lon="2.19191">
        <ele>301.14</ele>
        <time>2026-06-03T15:10:00.400349021Z</time>
      </trkpt>
      <trkpt lat="42.86428" lon="2.19187">
        <ele>301.21002</ele>
        <time>2026-06-03T15:10:01.375880003Z</time>
      </trkpt>
      <trkpt lat="42.86431" lon="2.19181">
        <ele>301.27002</ele>
        <time>2026-06-03T15:10:02.477251053Z</time>
      </trkpt>
      <trkpt lat="42.86433" lon="2.19176">
        <ele>301.33002</ele>
        <time>2026-06-03T15:10:03.496086001Z</time>
      </trkpt>
      <trkpt lat="42.86436" lon="2.19171">
        <ele>301.39</ele>
        <time>2026-06-03T15:10:04.456313968Z</time>
      </trkpt>
      <trkpt lat="42.86439" lon="2.19166">
        <ele>301.45</ele>
        <time>2026-06-03T15:10:05.390190005Z</time>
      </trkpt>
      <trkpt lat="42.86441" lon="2.19162">
        <ele>301.5</ele>
        <time>2026-06-03T15:10:06.496274948Z</time>
      </trkpt>
      <trkpt lat="42.86444" lon="2.19157">
        <ele>301.55</ele>
        <time>2026-06-03T15:10:07.348031998Z</time>
      </trkpt>
      <trkpt lat="42.86446" lon="2.19152">
        <ele>301.59</ele>
        <time>2026-06-03T15:10:08.365818024Z</time>
      </trkpt>
      <trkpt lat="42.86449" lon="2.19148">
        <ele>301.64</ele>
        <time>2026-06-03T15:10:09.405501962Z</time>
      </trkpt>
      <trkpt lat="42.86452" lon="2.19144">
        <ele>301.68</ele>
        <time>2026-06-03T15:10:10.455541015Z</time>
      </trkpt>
      <trkpt lat="42.86454" lon="2.19139">
        <ele>301.72</ele>
        <time>2026-06-03T15:10:11.476071954Z</time>
      </trkpt>
      <trkpt lat="42.86456" lon="2.19135">
        <ele>301.75</ele>
        <time>2026-06-03T15:10:12.496343970Z</time>
      </trkpt>
      <trkpt lat="42.86458" lon="2.19128">
        <ele>301.77002</ele>
        <time>2026-06-03T15:10:13.410395026Z</time>
      </trkpt>
      <trkpt lat="42.86459" lon="2.19123">
        <ele>301.78998</ele>
        <time>2026-06-03T15:10:14.477615952Z</time>
      </trkpt>
      <trkpt lat="42.8646" lon="2.19117">
        <ele>301.78998</ele>
        <time>2026-06-03T15:10:15.496448040Z</time>
      </trkpt>
      <trkpt lat="42.86461" lon="2.19112">
        <ele>301.78998</ele>
        <time>2026-06-03T15:10:16.459203005Z</time>
      </trkpt>
      <trkpt lat="42.86462" lon="2.19106">
        <ele>301.78</ele>
        <time>2026-06-03T15:10:17.425160050Z</time>
      </trkpt>
      <trkpt lat="42.86462" lon="2.19101">
        <ele>301.77002</ele>
        <time>2026-06-03T15:10:18.389662981Z</time>
      </trkpt>
      <trkpt lat="42.86463" lon="2.19094">
        <ele>301.75</ele>
        <time>2026-06-03T15:10:19.456485033Z</time>
      </trkpt>
      <trkpt lat="42.86463" lon="2.19088">
        <ele>301.72998</ele>
        <time>2026-06-03T15:10:20.476902962Z</time>
      </trkpt>
      <trkpt lat="42.86464" lon="2.19082">
        <ele>301.71002</ele>
        <time>2026-06-03T15:10:21.439952970Z</time>
      </trkpt>
      <trkpt lat="42.86464" lon="2.19075">
        <ele>301.68</ele>
        <time>2026-06-03T15:10:22.416419983Z</time>
      </trkpt>
      <trkpt lat="42.86464" lon="2.19069">
        <ele>301.65</ele>
        <time>2026-06-03T15:10:23.477687001Z</time>
      </trkpt>
      <trkpt lat="42.86463" lon="2.19062">
        <ele>301.62</ele>
        <time>2026-06-03T15:10:24.387701988Z</time>
      </trkpt>
      <trkpt lat="42.86464" lon="2.19056">
        <ele>301.59</ele>
        <time>2026-06-03T15:10:25.396420956Z</time>
      </trkpt>
      <trkpt lat="42.86464" lon="2.1905">
        <ele>301.56</ele>
        <time>2026-06-03T15:10:26.384013057Z</time>
      </trkpt>
      <trkpt lat="42.86463" lon="2.19043">
        <ele>301.53998</ele>
        <time>2026-06-03T15:10:27.436512947Z</time>
      </trkpt>
      <trkpt lat="42.86464" lon="2.19036">
        <ele>301.52002</ele>
        <time>2026-06-03T15:10:28.522393942Z</time>
      </trkpt>
      <trkpt lat="42.86463" lon="2.19029">
        <ele>301.5</ele>
        <time>2026-06-03T15:10:29.357218027Z</time>
      </trkpt>
      <trkpt lat="42.86463" lon="2.19021">
        <ele>301.47998</ele>
        <time>2026-06-03T15:10:30.389060020Z</time>
      </trkpt>
      <trkpt lat="42.86463" lon="2.19015">
        <ele>301.44</ele>
        <time>2026-06-03T15:10:31.456522942Z</time>
      </trkpt>
      <trkpt lat="42.86462" lon="2.19007">
        <ele>301.41</ele>
        <time>2026-06-03T15:10:32.478047967Z</time>
      </trkpt>
      <trkpt lat="42.8646" lon="2.19001">
        <ele>301.38</ele>
        <time>2026-06-03T15:10:33.474089980Z</time>
      </trkpt>
      <trkpt lat="42.86458" lon="2.18994">
        <ele>301.34</ele>
        <time>2026-06-03T15:10:34.372246981Z</time>
      </trkpt>
      <trkpt lat="42.86456" lon="2.18988">
        <ele>301.3</ele>
        <time>2026-06-03T15:10:35.386181951Z</time>
      </trkpt>
      <trkpt lat="42.86453" lon="2.18981">
        <ele>301.26</ele>
        <time>2026-06-03T15:10:36.417791963Z</time>
      </trkpt>
      <trkpt lat="42.86451" lon="2.18976">
        <ele>301.22998</ele>
        <time>2026-06-03T15:10:37.396939993Z</time>
      </trkpt>
      <trkpt lat="42.86449" lon="2.1897">
        <ele>301.2</ele>
        <time>2026-06-03T15:10:38.357038975Z</time>
      </trkpt>
      <trkpt lat="42.86447" lon="2.18964">
        <ele>301.16</ele>
        <time>2026-06-03T15:10:39.394189954Z</time>
      </trkpt>
      <trkpt lat="42.86445" lon="2.18957">
        <ele>301.13</ele>
        <time>2026-06-03T15:10:40.456475019Z</time>
      </trkpt>
      <trkpt lat="42.86443" lon="2.18951">
        <ele>301.09</ele>
        <time>2026-06-03T15:10:41.386746049Z</time>
      </trkpt>
      <trkpt lat="42.86442" lon="2.18944">
        <ele>301.06</ele>
        <time>2026-06-03T15:10:42.710844994Z</time>
      </trkpt>
      <trkpt lat="42.86441" lon="2.18938">
        <ele>301.03</ele>
        <time>2026-06-03T15:10:43.347491980Z</time>
      </trkpt>
      <trkpt lat="42.86441" lon="2.18931">
        <ele>301</ele>
        <time>2026-06-03T15:10:44.385002017Z</time>
      </trkpt>
      <trkpt lat="42.8644" lon="2.18925">
        <ele>300.97</ele>
        <time>2026-06-03T15:10:45.389528036Z</time>
      </trkpt>
      <trkpt lat="42.8644" lon="2.18918">
        <ele>300.95</ele>
        <time>2026-06-03T15:10:46.349799991Z</time>
      </trkpt>
      <trkpt lat="42.86439" lon="2.18911">
        <ele>300.91998</ele>
        <time>2026-06-03T15:10:47.366909981Z</time>
      </trkpt>
      <trkpt lat="42.86439" lon="2.18904">
        <ele>300.9</ele>
        <time>2026-06-03T15:10:48.497779965Z</time>
      </trkpt>
      <trkpt lat="42.86439" lon="2.18896">
        <ele>300.87</ele>
        <time>2026-06-03T15:10:49.371168017Z</time>
      </trkpt>
      <trkpt lat="42.86439" lon="2.18889">
        <ele>300.84</ele>
        <time>2026-06-03T15:10:50.389057994Z</time>
      </trkpt>
      <trkpt lat="42.86438" lon="2.18882">
        <ele>300.8</ele>
        <time>2026-06-03T15:10:51.389050961Z</time>
      </trkpt>
      <trkpt lat="42.86438" lon="2.18875">
        <ele>300.77002</ele>
        <time>2026-06-03T15:10:52.381901979Z</time>
      </trkpt>
      <trkpt lat="42.86438" lon="2.18869">
        <ele>300.72998</ele>
        <time>2026-06-03T15:10:53.370545030Z</time>
      </trkpt>
      <trkpt lat="42.86439" lon="2.18861">
        <ele>300.68</ele>
        <time>2026-06-03T15:10:54.391338944Z</time>
      </trkpt>
      <trkpt lat="42.86439" lon="2.18855">
        <ele>300.63</ele>
        <time>2026-06-03T15:10:55.517794013Z</time>
      </trkpt>
      <trkpt lat="42.86438" lon="2.18849">
        <ele>300.58002</ele>
        <time>2026-06-03T15:10:56.358209014Z</time>
      </trkpt>
      <trkpt lat="42.86438" lon="2.18841">
        <ele>300.63</ele>
        <time>2026-06-03T15:10:57.391281962Z</time>
      </trkpt>
      <trkpt lat="42.86437" lon="2.18834">
        <ele>300.66</ele>
        <time>2026-06-03T15:10:58.457263947Z</time>
      </trkpt>
      <trkpt lat="42.86436" lon="2.18827">
        <ele>300.66998</ele>
        <time>2026-06-03T15:10:59.386433959Z</time>
      </trkpt>
      <trkpt lat="42.86436" lon="2.1882">
        <ele>300.68</ele>
        <time>2026-06-03T15:11:00.497460961Z</time>
      </trkpt>
      <trkpt lat="42.86434" lon="2.18812">
        <ele>300.69</ele>
        <time>2026-06-03T15:11:01.457362056Z</time>
      </trkpt>
      <trkpt lat="42.86433" lon="2.18805">
        <ele>300.66998</ele>
        <time>2026-06-03T15:11:02.375205994Z</time>
      </trkpt>
      <trkpt lat="42.86432" lon="2.18797">
        <ele>300.65</ele>
        <time>2026-06-03T15:11:03.377660036Z</time>
      </trkpt>
      <trkpt lat="42.86431" lon="2.18789">
        <ele>300.63</ele>
        <time>2026-06-03T15:11:04.458210945Z</time>
      </trkpt>
      <trkpt lat="42.8643" lon="2.1878">
        <ele>300.6</ele>
        <time>2026-06-03T15:11:05.389240026Z</time>
      </trkpt>
      <trkpt lat="42.86429" lon="2.18772">
        <ele>300.56</ele>
        <time>2026-06-03T15:11:06.437438011Z</time>
      </trkpt>
      <trkpt lat="42.86427" lon="2.18764">
        <ele>300.5</ele>
        <time>2026-06-03T15:11:07.457582951Z</time>
      </trkpt>
      <trkpt lat="42.86426" lon="2.18756">
        <ele>300.45</ele>
        <time>2026-06-03T15:11:08.382038951Z</time>
      </trkpt>
      <trkpt lat="42.86424" lon="2.18749">
        <ele>300.39</ele>
        <time>2026-06-03T15:11:09.436705947Z</time>
      </trkpt>
      <trkpt lat="42.86423" lon="2.18742">
        <ele>300.32</ele>
        <time>2026-06-03T15:11:10.457494974Z</time>
      </trkpt>
      <trkpt lat="42.86421" lon="2.18734">
        <ele>300.27002</ele>
        <time>2026-06-03T15:11:11.357076049Z</time>
      </trkpt>
      <trkpt lat="42.86419" lon="2.18728">
        <ele>300.21002</ele>
        <time>2026-06-03T15:11:12.497812033Z</time>
      </trkpt>
      <trkpt lat="42.86417" lon="2.18722">
        <ele>300.16998</ele>
        <time>2026-06-03T15:11:13.457942963Z</time>
      </trkpt>
      <trkpt lat="42.86416" lon="2.18716">
        <ele>300.11</ele>
        <time>2026-06-03T15:11:14.478971004Z</time>
      </trkpt>
      <trkpt lat="42.86415" lon="2.18709">
        <ele>300.06</ele>
        <time>2026-06-03T15:11:15.497807026Z</time>
      </trkpt>
      <trkpt lat="42.86414" lon="2.18703">
        <ele>300.01</ele>
        <time>2026-06-03T15:11:16.518489957Z</time>
      </trkpt>
      <trkpt lat="42.86414" lon="2.18697">
        <ele>299.96002</ele>
        <time>2026-06-03T15:11:17.479367018Z</time>
      </trkpt>
      <trkpt lat="42.86414" lon="2.18691">
        <ele>299.9</ele>
        <time>2026-06-03T15:11:18.392804980Z</time>
      </trkpt>
      <trkpt lat="42.86416" lon="2.18684">
        <ele>299.85</ele>
        <time>2026-06-03T15:11:19.457618952Z</time>
      </trkpt>
      <trkpt lat="42.86419" lon="2.18677">
        <ele>299.8</ele>
        <time>2026-06-03T15:11:20.402801991Z</time>
      </trkpt>
      <trkpt lat="42.86421" lon="2.18671">
        <ele>299.75</ele>
        <time>2026-06-03T15:11:21.352252960Z</time>
      </trkpt>
      <trkpt lat="42.86423" lon="2.18664">
        <ele>299.71002</ele>
        <time>2026-06-03T15:11:22.517637014Z</time>
      </trkpt>
      <trkpt lat="42.86427" lon="2.18658">
        <ele>299.68</ele>
        <time>2026-06-03T15:11:23.358237982Z</time>
      </trkpt>
      <trkpt lat="42.8643" lon="2.18651">
        <ele>299.65</ele>
        <time>2026-06-03T15:11:24.378157020Z</time>
      </trkpt>
      <trkpt lat="42.86433" lon="2.18646">
        <ele>299.62</ele>
        <time>2026-06-03T15:11:25.518946052Z</time>
      </trkpt>
      <trkpt lat="42.86436" lon="2.18639">
        <ele>299.6</ele>
        <time>2026-06-03T15:11:26.477815986Z</time>
      </trkpt>
      <trkpt lat="42.8644" lon="2.18634">
        <ele>299.58002</ele>
        <time>2026-06-03T15:11:27.499497056Z</time>
      </trkpt>
      <trkpt lat="42.86444" lon="2.18628">
        <ele>299.56</ele>
        <time>2026-06-03T15:11:28.458747029Z</time>
      </trkpt>
      <trkpt lat="42.86448" lon="2.18622">
        <ele>299.53998</ele>
        <time>2026-06-03T15:11:29.437911034Z</time>
      </trkpt>
      <trkpt lat="42.86452" lon="2.18616">
        <ele>299.53</ele>
        <time>2026-06-03T15:11:30.408859015Z</time>
      </trkpt>
      <trkpt lat="42.86456" lon="2.18611">
        <ele>299.5</ele>
        <time>2026-06-03T15:11:31.409507990Z</time>
      </trkpt>
      <trkpt lat="42.8646" lon="2.18606">
        <ele>299.47998</ele>
        <time>2026-06-03T15:11:32.439545989Z</time>
      </trkpt>
      <trkpt lat="42.86465" lon="2.18603">
        <ele>299.46002</ele>
        <time>2026-06-03T15:11:33.407861948Z</time>
      </trkpt>
      <trkpt lat="42.86471" lon="2.18601">
        <ele>299.43</ele>
        <time>2026-06-03T15:11:34.348369956Z</time>
      </trkpt>
      <trkpt lat="42.86475" lon="2.186">
        <ele>299.4</ele>
        <time>2026-06-03T15:11:35.409047961Z</time>
      </trkpt>
      <trkpt lat="42.86481" lon="2.18601">
        <ele>299.37</ele>
        <time>2026-06-03T15:11:36.335458040Z</time>
      </trkpt>
      <trkpt lat="42.86488" lon="2.18602">
        <ele>299.35</ele>
        <time>2026-06-03T15:11:37.403131008Z</time>
      </trkpt>
      <trkpt lat="42.86494" lon="2.18603">
        <ele>299.31</ele>
        <time>2026-06-03T15:11:38.358477950Z</time>
      </trkpt>
      <trkpt lat="42.86498" lon="2.18605">
        <ele>299.28</ele>
        <time>2026-06-03T15:11:39.558550Z</time>
      </trkpt>
      <trkpt lat="42.86503" lon="2.18607">
        <ele>299.25</ele>
        <time>2026-06-03T15:11:40.519052982Z</time>
      </trkpt>
      <trkpt lat="42.86509" lon="2.18609">
        <ele>299.22998</ele>
        <time>2026-06-03T15:11:41.479627013Z</time>
      </trkpt>
      <trkpt lat="42.86514" lon="2.18611">
        <ele>299.22</ele>
        <time>2026-06-03T15:11:42.437482953Z</time>
      </trkpt>
      <trkpt lat="42.8652" lon="2.18612">
        <ele>299.22</ele>
        <time>2026-06-03T15:11:43.681763053Z</time>
      </trkpt>
      <trkpt lat="42.86524" lon="2.18613">
        <ele>299.22</ele>
        <time>2026-06-03T15:11:44.358759046Z</time>
      </trkpt>
      <trkpt lat="42.8653" lon="2.18614">
        <ele>299.25</ele>
        <time>2026-06-03T15:11:45.498605013Z</time>
      </trkpt>
      <trkpt lat="42.86536" lon="2.18615">
        <ele>299.31</ele>
        <time>2026-06-03T15:11:46.355720997Z</time>
      </trkpt>
      <trkpt lat="42.86541" lon="2.18615">
        <ele>299.38</ele>
        <time>2026-06-03T15:11:47.358867049Z</time>
      </trkpt>
      <trkpt lat="42.86547" lon="2.18616">
        <ele>299.44</ele>
        <time>2026-06-03T15:11:48.379920006Z</time>
      </trkpt>
      <trkpt lat="42.86552" lon="2.18615">
        <ele>299.52002</ele>
        <time>2026-06-03T15:11:49.360380054Z</time>
      </trkpt>
      <trkpt lat="42.86557" lon="2.18613">
        <ele>299.62</ele>
        <time>2026-06-03T15:11:50.407428026Z</time>
      </trkpt>
      <trkpt lat="42.86563" lon="2.18611">
        <ele>299.7</ele>
        <time>2026-06-03T15:11:51.349392056Z</time>
      </trkpt>
      <trkpt lat="42.86568" lon="2.18608">
        <ele>299.78</ele>
        <time>2026-06-03T15:11:52.339980006Z</time>
      </trkpt>
      <trkpt lat="42.86573" lon="2.18605">
        <ele>299.88</ele>
        <time>2026-06-03T15:11:53.538372040Z</time>
      </trkpt>
      <trkpt lat="42.86579" lon="2.18602">
        <ele>299.97998</ele>
        <time>2026-06-03T15:11:54.379109979Z</time>
      </trkpt>
      <trkpt lat="42.86584" lon="2.18599">
        <ele>300.06</ele>
        <time>2026-06-03T15:11:55.519379020Z</time>
      </trkpt>
      <trkpt lat="42.86589" lon="2.18595">
        <ele>300.13</ele>
        <time>2026-06-03T15:11:56.359102011Z</time>
      </trkpt>
      <trkpt lat="42.86593" lon="2.18592">
        <ele>300.03998</ele>
        <time>2026-06-03T15:11:57.346905947Z</time>
      </trkpt>
      <trkpt lat="42.86597" lon="2.18588">
        <ele>299.96002</ele>
        <time>2026-06-03T15:11:58.352422953Z</time>
      </trkpt>
      <trkpt lat="42.86602" lon="2.18585">
        <ele>299.89</ele>
        <time>2026-06-03T15:11:59.359091043Z</time>
      </trkpt>
      <trkpt lat="42.86606" lon="2.18581">
        <ele>299.81</ele>
        <time>2026-06-03T15:12:00.407606006Z</time>
      </trkpt>
      <trkpt lat="42.8661" lon="2.18578">
        <ele>299.72998</ele>
        <time>2026-06-03T15:12:01.356721044Z</time>
      </trkpt>
      <trkpt lat="42.86616" lon="2.18575">
        <ele>299.64</ele>
        <time>2026-06-03T15:12:02.358950019Z</time>
      </trkpt>
      <trkpt lat="42.86621" lon="2.18571">
        <ele>299.57</ele>
        <time>2026-06-03T15:12:03.344694018Z</time>
      </trkpt>
      <trkpt lat="42.86627" lon="2.1857">
        <ele>299.51</ele>
        <time>2026-06-03T15:12:04.348394990Z</time>
      </trkpt>
      <trkpt lat="42.86632" lon="2.1857">
        <ele>299.44</ele>
        <time>2026-06-03T15:12:05.406469941Z</time>
      </trkpt>
      <trkpt lat="42.86637" lon="2.18571">
        <ele>299.38</ele>
        <time>2026-06-03T15:12:06.345291972Z</time>
      </trkpt>
      <trkpt lat="42.86644" lon="2.18573">
        <ele>299.32</ele>
        <time>2026-06-03T15:12:07.345543027Z</time>
      </trkpt>
      <trkpt lat="42.86649" lon="2.18574">
        <ele>299.27002</ele>
        <time>2026-06-03T15:12:08.359282017Z</time>
      </trkpt>
      <trkpt lat="42.86654" lon="2.18576">
        <ele>299.22998</ele>
        <time>2026-06-03T15:12:09.341331005Z</time>
      </trkpt>
      <trkpt lat="42.8666" lon="2.18578">
        <ele>299.2</ele>
        <time>2026-06-03T15:12:10.405346990Z</time>
      </trkpt>
      <trkpt lat="42.86665" lon="2.18579">
        <ele>299.16998</ele>
        <time>2026-06-03T15:12:11.359171033Z</time>
      </trkpt>
      <trkpt lat="42.8667" lon="2.18581">
        <ele>299.14</ele>
        <time>2026-06-03T15:12:12.344071984Z</time>
      </trkpt>
      <trkpt lat="42.86677" lon="2.18582">
        <ele>299.13</ele>
        <time>2026-06-03T15:12:13.351402044Z</time>
      </trkpt>
      <trkpt lat="42.86681" lon="2.18584">
        <ele>299.12</ele>
        <time>2026-06-03T15:12:14.359040976Z</time>
      </trkpt>
      <trkpt lat="42.86687" lon="2.18585">
        <ele>299.11</ele>
        <time>2026-06-03T15:12:15.409698963Z</time>
      </trkpt>
      <trkpt lat="42.86693" lon="2.18587">
        <ele>299.1</ele>
        <time>2026-06-03T15:12:16.354771018Z</time>
      </trkpt>
      <trkpt lat="42.86699" lon="2.18588">
        <ele>299.08002</ele>
        <time>2026-06-03T15:12:17.359266043Z</time>
      </trkpt>
      <trkpt lat="42.86705" lon="2.1859">
        <ele>299.07</ele>
        <time>2026-06-03T15:12:18.343284965Z</time>
      </trkpt>
      <trkpt lat="42.8671" lon="2.18592">
        <ele>299.05</ele>
        <time>2026-06-03T15:12:19.338920951Z</time>
      </trkpt>
      <trkpt lat="42.86716" lon="2.18595">
        <ele>299.02002</ele>
        <time>2026-06-03T15:12:20.419257045Z</time>
      </trkpt>
      <trkpt lat="42.8672" lon="2.18596">
        <ele>298.97998</ele>
        <time>2026-06-03T15:12:21.343194962Z</time>
      </trkpt>
      <trkpt lat="42.86726" lon="2.18599">
        <ele>298.94</ele>
        <time>2026-06-03T15:12:22.518911004Z</time>
      </trkpt>
      <trkpt lat="42.86732" lon="2.18602">
        <ele>298.9</ele>
        <time>2026-06-03T15:12:23.359199047Z</time>
      </trkpt>
      <trkpt lat="42.86737" lon="2.18605">
        <ele>298.87</ele>
        <time>2026-06-03T15:12:24.342514992Z</time>
      </trkpt>
      <trkpt lat="42.86743" lon="2.18609">
        <ele>298.83002</ele>
        <time>2026-06-03T15:12:25.459740996Z</time>
      </trkpt>
      <trkpt lat="42.86749" lon="2.18612">
        <ele>298.8</ele>
        <time>2026-06-03T15:12:26.359634995Z</time>
      </trkpt>
      <trkpt lat="42.86754" lon="2.18616">
        <ele>298.77002</ele>
        <time>2026-06-03T15:12:27.345232010Z</time>
      </trkpt>
      <trkpt lat="42.8676" lon="2.18619">
        <ele>298.74</ele>
        <time>2026-06-03T15:12:28.338544965Z</time>
      </trkpt>
      <trkpt lat="42.86765" lon="2.18622">
        <ele>298.7</ele>
        <time>2026-06-03T15:12:29.360046983Z</time>
      </trkpt>
      <trkpt lat="42.8677" lon="2.18625">
        <ele>298.65</ele>
        <time>2026-06-03T15:12:30.559422970Z</time>
      </trkpt>
      <trkpt lat="42.86776" lon="2.18628">
        <ele>298.61</ele>
        <time>2026-06-03T15:12:31.353690028Z</time>
      </trkpt>
      <trkpt lat="42.86781" lon="2.18632">
        <ele>298.57</ele>
        <time>2026-06-03T15:12:32.359650016Z</time>
      </trkpt>
      <trkpt lat="42.86786" lon="2.18636">
        <ele>298.52002</ele>
        <time>2026-06-03T15:12:33.348932028Z</time>
      </trkpt>
      <trkpt lat="42.86791" lon="2.18639">
        <ele>298.47</ele>
        <time>2026-06-03T15:12:34.348865986Z</time>
      </trkpt>
      <trkpt lat="42.86796" lon="2.18643">
        <ele>298.44</ele>
        <time>2026-06-03T15:12:35.407816052Z</time>
      </trkpt>
      <trkpt lat="42.86802" lon="2.18647">
        <ele>298.4</ele>
        <time>2026-06-03T15:12:36.352015018Z</time>
      </trkpt>
      <trkpt lat="42.86808" lon="2.18651">
        <ele>298.37</ele>
        <time>2026-06-03T15:12:37.356672049Z</time>
      </trkpt>
      <trkpt lat="42.86813" lon="2.18655">
        <ele>298.31</ele>
        <time>2026-06-03T15:12:38.358836055Z</time>
      </trkpt>
      <trkpt lat="42.86818" lon="2.18659">
        <ele>298.27002</ele>
        <time>2026-06-03T15:12:39.351549983Z</time>
      </trkpt>
      <trkpt lat="42.86824" lon="2.18662">
        <ele>298.21002</ele>
        <time>2026-06-03T15:12:40.458564043Z</time>
      </trkpt>
      <trkpt lat="42.8683" lon="2.18667">
        <ele>298.15</ele>
        <time>2026-06-03T15:12:41.359948039Z</time>
      </trkpt>
      <trkpt lat="42.86836" lon="2.18672">
        <ele>298.05</ele>
        <time>2026-06-03T15:12:42.359153032Z</time>
      </trkpt>
      <trkpt lat="42.86842" lon="2.18678">
        <ele>297.96002</ele>
        <time>2026-06-03T15:12:43.458650947Z</time>
      </trkpt>
      <trkpt lat="42.86847" lon="2.18683">
        <ele>297.84</ele>
        <time>2026-06-03T15:12:44.546296954Z</time>
      </trkpt>
      <trkpt lat="42.86852" lon="2.1869">
        <ele>297.68</ele>
        <time>2026-06-03T15:12:45.500131965Z</time>
      </trkpt>
      <trkpt lat="42.86856" lon="2.18695">
        <ele>297.5</ele>
        <time>2026-06-03T15:12:46.357100010Z</time>
      </trkpt>
      <trkpt lat="42.86861" lon="2.18701">
        <ele>297.35</ele>
        <time>2026-06-03T15:12:47.359622955Z</time>
      </trkpt>
      <trkpt lat="42.86866" lon="2.18706">
        <ele>297.16998</ele>
        <time>2026-06-03T15:12:48.499523044Z</time>
      </trkpt>
      <trkpt lat="42.86871" lon="2.18711">
        <ele>296.99</ele>
        <time>2026-06-03T15:12:49.357424974Z</time>
      </trkpt>
      <trkpt lat="42.86876" lon="2.18715">
        <ele>296.82</ele>
        <time>2026-06-03T15:12:50.407328010Z</time>
      </trkpt>
      <trkpt lat="42.86882" lon="2.18716">
        <ele>296.68</ele>
        <time>2026-06-03T15:12:51.559502959Z</time>
      </trkpt>
      <trkpt lat="42.86888" lon="2.18717">
        <ele>296.55</ele>
        <time>2026-06-03T15:12:52.362086058Z</time>
      </trkpt>
      <trkpt lat="42.86894" lon="2.18716">
        <ele>296.43</ele>
        <time>2026-06-03T15:12:53.359891057Z</time>
      </trkpt>
      <trkpt lat="42.869" lon="2.18715">
        <ele>296.32</ele>
        <time>2026-06-03T15:12:54.499853015Z</time>
      </trkpt>
      <trkpt lat="42.86906" lon="2.18712">
        <ele>296.22998</ele>
        <time>2026-06-03T15:12:55.459818006Z</time>
      </trkpt>
      <trkpt lat="42.86911" lon="2.18709">
        <ele>296.15</ele>
        <time>2026-06-03T15:12:56.359763980Z</time>
      </trkpt>
      <trkpt lat="42.86917" lon="2.18708">
        <ele>295.89</ele>
        <time>2026-06-03T15:12:57.391072035Z</time>
      </trkpt>
      <trkpt lat="42.86921" lon="2.18705">
        <ele>295.66998</ele>
        <time>2026-06-03T15:12:58.361716032Z</time>
      </trkpt>
      <trkpt lat="42.86927" lon="2.18702">
        <ele>295.5</ele>
        <time>2026-06-03T15:12:59.359998941Z</time>
      </trkpt>
      <trkpt lat="42.86932" lon="2.18698">
        <ele>295.37</ele>
        <time>2026-06-03T15:13:00.407670975Z</time>
      </trkpt>
      <trkpt lat="42.86937" lon="2.18695">
        <ele>295.27002</ele>
        <time>2026-06-03T15:13:01.365151048Z</time>
      </trkpt>
      <trkpt lat="42.86943" lon="2.18691">
        <ele>295.19</ele>
        <time>2026-06-03T15:13:02.420506001Z</time>
      </trkpt>
      <trkpt lat="42.86948" lon="2.18687">
        <ele>295.12</ele>
        <time>2026-06-03T15:13:03.380180955Z</time>
      </trkpt>
      <trkpt lat="42.86954" lon="2.18683">
        <ele>295.06</ele>
        <time>2026-06-03T15:13:04.364874959Z</time>
      </trkpt>
      <trkpt lat="42.86959" lon="2.1868">
        <ele>294.99</ele>
        <time>2026-06-03T15:13:05.410192966Z</time>
      </trkpt>
      <trkpt lat="42.86964" lon="2.18675">
        <ele>294.89</ele>
        <time>2026-06-03T15:13:06.500195026Z</time>
      </trkpt>
      <trkpt lat="42.86969" lon="2.1867">
        <ele>294.81</ele>
        <time>2026-06-03T15:13:07.372328997Z</time>
      </trkpt>
      <trkpt lat="42.86975" lon="2.18665">
        <ele>294.72998</ele>
        <time>2026-06-03T15:13:08.540004969Z</time>
      </trkpt>
      <trkpt lat="42.8698" lon="2.1866">
        <ele>294.65</ele>
        <time>2026-06-03T15:13:09.560026050Z</time>
      </trkpt>
      <trkpt lat="42.86984" lon="2.18654">
        <ele>294.56</ele>
        <time>2026-06-03T15:13:10.519888997Z</time>
      </trkpt>
      <trkpt lat="42.86988" lon="2.18648">
        <ele>294.49</ele>
        <time>2026-06-03T15:13:11.377259016Z</time>
      </trkpt>
      <trkpt lat="42.86992" lon="2.18642">
        <ele>294.41998</ele>
        <time>2026-06-03T15:13:12.380859017Z</time>
      </trkpt>
      <trkpt lat="42.86996" lon="2.18635">
        <ele>294.36</ele>
        <time>2026-06-03T15:13:13.378141046Z</time>
      </trkpt>
      <trkpt lat="42.87" lon="2.18628">
        <ele>294.3</ele>
        <time>2026-06-03T15:13:14.378419995Z</time>
      </trkpt>
      <trkpt lat="42.87003" lon="2.18622">
        <ele>294.25</ele>
        <time>2026-06-03T15:13:15.405267954Z</time>
      </trkpt>
      <trkpt lat="42.87006" lon="2.18615">
        <ele>294.21002</ele>
        <time>2026-06-03T15:13:16.340381980Z</time>
      </trkpt>
      <trkpt lat="42.8701" lon="2.18608">
        <ele>294.18</ele>
        <time>2026-06-03T15:13:17.480656028Z</time>
      </trkpt>
      <trkpt lat="42.87013" lon="2.18601">
        <ele>294.15</ele>
        <time>2026-06-03T15:13:18.380633950Z</time>
      </trkpt>
      <trkpt lat="42.87016" lon="2.18595">
        <ele>294.12</ele>
        <time>2026-06-03T15:13:19.461078048Z</time>
      </trkpt>
      <trkpt lat="42.8702" lon="2.1859">
        <ele>294.1</ele>
        <time>2026-06-03T15:13:20.408645988Z</time>
      </trkpt>
      <trkpt lat="42.87025" lon="2.18587">
        <ele>294.06</ele>
        <time>2026-06-03T15:13:21.380381942Z</time>
      </trkpt>
      <trkpt lat="42.87031" lon="2.18585">
        <ele>294.03</ele>
        <time>2026-06-03T15:13:22.460695028Z</time>
      </trkpt>
      <trkpt lat="42.87037" lon="2.18585">
        <ele>294</ele>
        <time>2026-06-03T15:13:23.480903983Z</time>
      </trkpt>
      <trkpt lat="42.87041" lon="2.18585">
        <ele>293.99</ele>
        <time>2026-06-03T15:13:24.380640984Z</time>
      </trkpt>
      <trkpt lat="42.87046" lon="2.18585">
        <ele>293.97998</ele>
        <time>2026-06-03T15:13:25.407305002Z</time>
      </trkpt>
      <trkpt lat="42.87051" lon="2.18588">
        <ele>293.97</ele>
        <time>2026-06-03T15:13:26.380826950Z</time>
      </trkpt>
      <trkpt lat="42.87056" lon="2.1859">
        <ele>293.97</ele>
        <time>2026-06-03T15:13:27.357815027Z</time>
      </trkpt>
      <trkpt lat="42.87059" lon="2.18593">
        <ele>293.97998</ele>
        <time>2026-06-03T15:13:28.400609016Z</time>
      </trkpt>
      <trkpt lat="42.87064" lon="2.18595">
        <ele>294.01</ele>
        <time>2026-06-03T15:13:29.481896996Z</time>
      </trkpt>
      <trkpt lat="42.87069" lon="2.18597">
        <ele>294.03</ele>
        <time>2026-06-03T15:13:30.440938950Z</time>
      </trkpt>
      <trkpt lat="42.87074" lon="2.18598">
        <ele>294.05</ele>
        <time>2026-06-03T15:13:31.379436016Z</time>
      </trkpt>
      <trkpt lat="42.8708" lon="2.18598">
        <ele>294.08002</ele>
        <time>2026-06-03T15:13:32.385460019Z</time>
      </trkpt>
      <trkpt lat="42.87087" lon="2.18597">
        <ele>294.1</ele>
        <time>2026-06-03T15:13:33.440680981Z</time>
      </trkpt>
      <trkpt lat="42.87093" lon="2.18597">
        <ele>294.09</ele>
        <time>2026-06-03T15:13:34.461531997Z</time>
      </trkpt>
      <trkpt lat="42.871" lon="2.18595">
        <ele>294.09</ele>
        <time>2026-06-03T15:13:35.372849941Z</time>
      </trkpt>
      <trkpt lat="42.87107" lon="2.18595">
        <ele>294.05</ele>
        <time>2026-06-03T15:13:36.440673947Z</time>
      </trkpt>
      <trkpt lat="42.87114" lon="2.18594">
        <ele>293.93</ele>
        <time>2026-06-03T15:13:37.521551967Z</time>
      </trkpt>
      <trkpt lat="42.87122" lon="2.18593">
        <ele>293.84</ele>
        <time>2026-06-03T15:13:38.390838027Z</time>
      </trkpt>
      <trkpt lat="42.87129" lon="2.18591">
        <ele>293.7</ele>
        <time>2026-06-03T15:13:39.387745023Z</time>
      </trkpt>
      <trkpt lat="42.87136" lon="2.1859">
        <ele>293.47998</ele>
        <time>2026-06-03T15:13:40.521399021Z</time>
      </trkpt>
      <trkpt lat="42.87143" lon="2.18589">
        <ele>293.22</ele>
        <time>2026-06-03T15:13:41.395995975Z</time>
      </trkpt>
      <trkpt lat="42.8715" lon="2.18588">
        <ele>293.02002</ele>
        <time>2026-06-03T15:13:42.561099052Z</time>
      </trkpt>
      <trkpt lat="42.87157" lon="2.18587">
        <ele>292.78</ele>
        <time>2026-06-03T15:13:43.409433007Z</time>
      </trkpt>
      <trkpt lat="42.87165" lon="2.18586">
        <ele>292.51</ele>
        <time>2026-06-03T15:13:44.540873051Z</time>
      </trkpt>
      <trkpt lat="42.87172" lon="2.18585">
        <ele>292.24</ele>
        <time>2026-06-03T15:13:45.708922029Z</time>
      </trkpt>
      <trkpt lat="42.87179" lon="2.18583">
        <ele>292.03</ele>
        <time>2026-06-03T15:13:46.461676002Z</time>
      </trkpt>
      <trkpt lat="42.87186" lon="2.18582">
        <ele>291.82</ele>
        <time>2026-06-03T15:13:47.416780949Z</time>
      </trkpt>
      <trkpt lat="42.87193" lon="2.18581">
        <ele>291.6</ele>
        <time>2026-06-03T15:13:48.440914989Z</time>
      </trkpt>
      <trkpt lat="42.87201" lon="2.1858">
        <ele>291.41</ele>
        <time>2026-06-03T15:13:49.461629987Z</time>
      </trkpt>
      <trkpt lat="42.87207" lon="2.18579">
        <ele>291.27002</ele>
        <time>2026-06-03T15:13:50.483088970Z</time>
      </trkpt>
      <trkpt lat="42.87214" lon="2.18577">
        <ele>291.14</ele>
        <time>2026-06-03T15:13:51.421754003Z</time>
      </trkpt>
      <trkpt lat="42.87221" lon="2.18576">
        <ele>291.03998</ele>
        <time>2026-06-03T15:13:52.461442947Z</time>
      </trkpt>
      <trkpt lat="42.87228" lon="2.18576">
        <ele>290.96002</ele>
        <time>2026-06-03T15:13:53.541031003Z</time>
      </trkpt>
      <trkpt lat="42.87234" lon="2.18575">
        <ele>290.9</ele>
        <time>2026-06-03T15:13:54.501320004Z</time>
      </trkpt>
      <trkpt lat="42.8724" lon="2.18573">
        <ele>290.85</ele>
        <time>2026-06-03T15:13:55.438665986Z</time>
      </trkpt>
      <trkpt lat="42.87245" lon="2.18572">
        <ele>290.78998</ele>
        <time>2026-06-03T15:13:56.540982962Z</time>
      </trkpt>
      <trkpt lat="42.87251" lon="2.18571">
        <ele>290.53998</ele>
        <time>2026-06-03T15:13:57.561295033Z</time>
      </trkpt>
      <trkpt lat="42.87256" lon="2.1857">
        <ele>290.33002</ele>
        <time>2026-06-03T15:13:58.580309987Z</time>
      </trkpt>
      <trkpt lat="42.87261" lon="2.18567">
        <ele>290.1</ele>
        <time>2026-06-03T15:13:59.451225996Z</time>
      </trkpt>
      <trkpt lat="42.87262" lon="2.18565">
        <ele>289.74</ele>
        <time>2026-06-03T15:14:01.521100044Z</time>
      </trkpt>
      <trkpt lat="42.8727" lon="2.18551">
        <ele>289.6</ele>
        <time>2026-06-03T15:14:02.540321946Z</time>
      </trkpt>
      <trkpt lat="42.87271" lon="2.18545">
        <ele>289.47998</ele>
        <time>2026-06-03T15:14:03.465909004Z</time>
      </trkpt>
      <trkpt lat="42.87271" lon="2.1854">
        <ele>289.39</ele>
        <time>2026-06-03T15:14:04.521453977Z</time>
      </trkpt>
      <trkpt lat="42.87271" lon="2.18534">
        <ele>289.35</ele>
        <time>2026-06-03T15:14:05.541780949Z</time>
      </trkpt>
      <trkpt lat="42.87271" lon="2.18529">
        <ele>289.33002</ele>
        <time>2026-06-03T15:14:06.560807943Z</time>
      </trkpt>
      <trkpt lat="42.8727" lon="2.18524">
        <ele>289.33002</ele>
        <time>2026-06-03T15:14:07.418413997Z</time>
      </trkpt>
      <trkpt lat="42.8727" lon="2.18519">
        <ele>289.35</ele>
        <time>2026-06-03T15:14:08.481637001Z</time>
      </trkpt>
      <trkpt lat="42.8727" lon="2.18514">
        <ele>289.4</ele>
        <time>2026-06-03T15:14:09.441705942Z</time>
      </trkpt>
      <trkpt lat="42.87271" lon="2.18508">
        <ele>289.44</ele>
        <time>2026-06-03T15:14:10.521213055Z</time>
      </trkpt>
      <trkpt lat="42.87271" lon="2.18503">
        <ele>289.49</ele>
        <time>2026-06-03T15:14:11.485569954Z</time>
      </trkpt>
      <trkpt lat="42.87271" lon="2.18498">
        <ele>289.53998</ele>
        <time>2026-06-03T15:14:12.561439037Z</time>
      </trkpt>
      <trkpt lat="42.87272" lon="2.18493">
        <ele>289.6</ele>
        <time>2026-06-03T15:14:13.521649957Z</time>
      </trkpt>
      <trkpt lat="42.87274" lon="2.18488">
        <ele>289.66</ele>
        <time>2026-06-03T15:14:14.362131Z</time>
      </trkpt>
      <trkpt lat="42.87277" lon="2.18484">
        <ele>289.72</ele>
        <time>2026-06-03T15:14:15.503551960Z</time>
      </trkpt>
      <trkpt lat="42.8728" lon="2.18482">
        <ele>289.78998</ele>
        <time>2026-06-03T15:14:16.428114057Z</time>
      </trkpt>
      <trkpt lat="42.87283" lon="2.18479">
        <ele>289.88</ele>
        <time>2026-06-03T15:14:17.540637016Z</time>
      </trkpt>
      <trkpt lat="42.87287" lon="2.18476">
        <ele>289.96002</ele>
        <time>2026-06-03T15:14:18.441856027Z</time>
      </trkpt>
      <trkpt lat="42.87291" lon="2.18473">
        <ele>290.07</ele>
        <time>2026-06-03T15:14:19.431332946Z</time>
      </trkpt>
      <trkpt lat="42.87294" lon="2.1847">
        <ele>290.2</ele>
        <time>2026-06-03T15:14:20.448155046Z</time>
      </trkpt>
      <trkpt lat="42.87299" lon="2.18466">
        <ele>290.34</ele>
        <time>2026-06-03T15:14:21.561542988Z</time>
      </trkpt>
      <trkpt lat="42.87303" lon="2.18463">
        <ele>290.46002</ele>
        <time>2026-06-03T15:14:22.434530020Z</time>
      </trkpt>
      <trkpt lat="42.87306" lon="2.1846">
        <ele>290.58002</ele>
        <time>2026-06-03T15:14:23.420634031Z</time>
      </trkpt>
      <trkpt lat="42.87311" lon="2.18457">
        <ele>290.69</ele>
        <time>2026-06-03T15:14:24.501672983Z</time>
      </trkpt>
      <trkpt lat="42.87315" lon="2.18454">
        <ele>290.78998</ele>
        <time>2026-06-03T15:14:25.455369949Z</time>
      </trkpt>
      <trkpt lat="42.87319" lon="2.18451">
        <ele>290.87</ele>
        <time>2026-06-03T15:14:26.541704059Z</time>
      </trkpt>
      <trkpt lat="42.87324" lon="2.18447">
        <ele>290.94</ele>
        <time>2026-06-03T15:14:27.403841972Z</time>
      </trkpt>
      <trkpt lat="42.87328" lon="2.18443">
        <ele>291</ele>
        <time>2026-06-03T15:14:28.400887966Z</time>
      </trkpt>
      <trkpt lat="42.87333" lon="2.18439">
        <ele>291.03998</ele>
        <time>2026-06-03T15:14:29.421139956Z</time>
      </trkpt>
      <trkpt lat="42.87337" lon="2.18435">
        <ele>291.08002</ele>
        <time>2026-06-03T15:14:30.431576014Z</time>
      </trkpt>
      <trkpt lat="42.87341" lon="2.1843">
        <ele>291.11</ele>
        <time>2026-06-03T15:14:31.403185964Z</time>
      </trkpt>
      <trkpt lat="42.87345" lon="2.18426">
        <ele>291.15</ele>
        <time>2026-06-03T15:14:32.601868987Z</time>
      </trkpt>
      <trkpt lat="42.87349" lon="2.18422">
        <ele>291.19</ele>
        <time>2026-06-03T15:14:33.441709995Z</time>
      </trkpt>
      <trkpt lat="42.87353" lon="2.18417">
        <ele>291.22</ele>
        <time>2026-06-03T15:14:34.401702046Z</time>
      </trkpt>
      <trkpt lat="42.87357" lon="2.18413">
        <ele>291.26</ele>
        <time>2026-06-03T15:14:35.427173018Z</time>
      </trkpt>
      <trkpt lat="42.87361" lon="2.1841">
        <ele>291.32</ele>
        <time>2026-06-03T15:14:36.408110976Z</time>
      </trkpt>
      <trkpt lat="42.87363" lon="2.18404">
        <ele>291.39</ele>
        <time>2026-06-03T15:14:37.409297943Z</time>
      </trkpt>
      <trkpt lat="42.87365" lon="2.18399">
        <ele>291.44</ele>
        <time>2026-06-03T15:14:38.422320008Z</time>
      </trkpt>
      <trkpt lat="42.87366" lon="2.1839">
        <ele>291.49</ele>
        <time>2026-06-03T15:14:39.408272028Z</time>
      </trkpt>
      <trkpt lat="42.87366" lon="2.18384">
        <ele>291.53998</ele>
        <time>2026-06-03T15:14:40.440698981Z</time>
      </trkpt>
      <trkpt lat="42.87365" lon="2.18376">
        <ele>291.59</ele>
        <time>2026-06-03T15:14:41.421396971Z</time>
      </trkpt>
      <trkpt lat="42.87363" lon="2.18369">
        <ele>291.64</ele>
        <time>2026-06-03T15:14:42.441807985Z</time>
      </trkpt>
      <trkpt lat="42.87362" lon="2.18362">
        <ele>291.68</ele>
        <time>2026-06-03T15:14:43.413619995Z</time>
      </trkpt>
      <trkpt lat="42.8736" lon="2.18354">
        <ele>291.74</ele>
        <time>2026-06-03T15:14:44.422181964Z</time>
      </trkpt>
      <trkpt lat="42.87359" lon="2.18347">
        <ele>291.82</ele>
        <time>2026-06-03T15:14:45.435035944Z</time>
      </trkpt>
      <trkpt lat="42.87358" lon="2.18341">
        <ele>291.9</ele>
        <time>2026-06-03T15:14:46.677721024Z</time>
      </trkpt>
      <trkpt lat="42.87357" lon="2.18334">
        <ele>292.02002</ele>
        <time>2026-06-03T15:14:47.422788978Z</time>
      </trkpt>
      <trkpt lat="42.87356" lon="2.18328">
        <ele>292.15</ele>
        <time>2026-06-03T15:14:48.441480994Z</time>
      </trkpt>
      <trkpt lat="42.87355" lon="2.1832">
        <ele>292.34</ele>
        <time>2026-06-03T15:14:49.420707941Z</time>
      </trkpt>
      <trkpt lat="42.87354" lon="2.18314">
        <ele>292.5</ele>
        <time>2026-06-03T15:14:50.442914009Z</time>
      </trkpt>
      <trkpt lat="42.87351" lon="2.18309">
        <ele>292.68</ele>
        <time>2026-06-03T15:14:51.440935016Z</time>
      </trkpt>
      <trkpt lat="42.8735" lon="2.18303">
        <ele>292.9</ele>
        <time>2026-06-03T15:14:52.426046968Z</time>
      </trkpt>
      <trkpt lat="42.87348" lon="2.18298">
        <ele>293.12</ele>
        <time>2026-06-03T15:14:53.423550010Z</time>
      </trkpt>
      <trkpt lat="42.87347" lon="2.18292">
        <ele>293.28998</ele>
        <time>2026-06-03T15:14:54.440837979Z</time>
      </trkpt>
      <trkpt lat="42.87349" lon="2.18288">
        <ele>293.47998</ele>
        <time>2026-06-03T15:14:55.462610006Z</time>
      </trkpt>
      <trkpt lat="42.8735" lon="2.18284">
        <ele>293.65</ele>
        <time>2026-06-03T15:14:56.483443022Z</time>
      </trkpt>
      <trkpt lat="42.87351" lon="2.1828">
        <ele>293.63</ele>
        <time>2026-06-03T15:14:57.562320948Z</time>
      </trkpt>
      <trkpt lat="42.8735" lon="2.18275">
        <ele>293.6</ele>
        <time>2026-06-03T15:14:58.521551013Z</time>
      </trkpt>
      <trkpt lat="42.87349" lon="2.18271">
        <ele>293.6</ele>
        <time>2026-06-03T15:14:59.421679974Z</time>
      </trkpt>
      <trkpt lat="42.87346" lon="2.18269">
        <ele>293.64</ele>
        <time>2026-06-03T15:15:00.562144995Z</time>
      </trkpt>
      <trkpt lat="42.87343" lon="2.18267">
        <ele>293.7</ele>
        <time>2026-06-03T15:15:01.581835985Z</time>
      </trkpt>
      <trkpt lat="42.8734" lon="2.18267">
        <ele>293.74</ele>
        <time>2026-06-03T15:15:02.601876020Z</time>
      </trkpt>
      <trkpt lat="42.87336" lon="2.18268">
        <ele>293.81</ele>
        <time>2026-06-03T15:15:03.441303015Z</time>
      </trkpt>
      <trkpt lat="42.87333" lon="2.18268">
        <ele>293.88</ele>
        <time>2026-06-03T15:15:04.461737037Z</time>
      </trkpt>
      <trkpt lat="42.87328" lon="2.18269">
        <ele>293.96002</ele>
        <time>2026-06-03T15:15:05.458912969Z</time>
      </trkpt>
      <trkpt lat="42.87325" lon="2.1827">
        <ele>294.02002</ele>
        <time>2026-06-03T15:15:06.440907955Z</time>
      </trkpt>
      <trkpt lat="42.87321" lon="2.1827">
        <ele>294.08002</ele>
        <time>2026-06-03T15:15:07.461061954Z</time>
      </trkpt>
      <trkpt lat="42.87317" lon="2.18271">
        <ele>294.13</ele>
        <time>2026-06-03T15:15:08.483786941Z</time>
      </trkpt>
      <trkpt lat="42.87313" lon="2.18272">
        <ele>294.18</ele>
        <time>2026-06-03T15:15:09.441166043Z</time>
      </trkpt>
      <trkpt lat="42.87309" lon="2.18272">
        <ele>294.22</ele>
        <time>2026-06-03T15:15:10.461516023Z</time>
      </trkpt>
      <trkpt lat="42.87305" lon="2.18272">
        <ele>294.26</ele>
        <time>2026-06-03T15:15:11.438207984Z</time>
      </trkpt>
      <trkpt lat="42.873" lon="2.18273">
        <ele>294.3</ele>
        <time>2026-06-03T15:15:12.441277027Z</time>
      </trkpt>
      <trkpt lat="42.87296" lon="2.18274">
        <ele>294.33002</ele>
        <time>2026-06-03T15:15:13.414644957Z</time>
      </trkpt>
      <trkpt lat="42.87292" lon="2.18275">
        <ele>294.35</ele>
        <time>2026-06-03T15:15:14.483477950Z</time>
      </trkpt>
      <trkpt lat="42.87288" lon="2.18276">
        <ele>294.38</ele>
        <time>2026-06-03T15:15:15.407938004Z</time>
      </trkpt>
      <trkpt lat="42.87283" lon="2.18277">
        <ele>294.4</ele>
        <time>2026-06-03T15:15:16.582098961Z</time>
      </trkpt>
      <trkpt lat="42.87279" lon="2.18277">
        <ele>294.41998</ele>
        <time>2026-06-03T15:15:17.435294986Z</time>
      </trkpt>
      <trkpt lat="42.87274" lon="2.18278">
        <ele>294.44</ele>
        <time>2026-06-03T15:15:18.562142015Z</time>
      </trkpt>
      <trkpt lat="42.87269" lon="2.18279">
        <ele>294.45</ele>
        <time>2026-06-03T15:15:19.402956009Z</time>
      </trkpt>
      <trkpt lat="42.87264" lon="2.1828">
        <ele>294.47</ele>
        <time>2026-06-03T15:15:20.422543049Z</time>
      </trkpt>
      <trkpt lat="42.87259" lon="2.18281">
        <ele>294.47998</ele>
        <time>2026-06-03T15:15:21.395789027Z</time>
      </trkpt>
      <trkpt lat="42.87254" lon="2.18282">
        <ele>294.47998</ele>
        <time>2026-06-03T15:15:22.356089950Z</time>
      </trkpt>
      <trkpt lat="42.8725" lon="2.18282">
        <ele>294.49</ele>
        <time>2026-06-03T15:15:23.481312990Z</time>
      </trkpt>
      <trkpt lat="42.87245" lon="2.18283">
        <ele>294.5</ele>
        <time>2026-06-03T15:15:24.562353969Z</time>
      </trkpt>
      <trkpt lat="42.8724" lon="2.18284">
        <ele>294.51</ele>
        <time>2026-06-03T15:15:25.462388039Z</time>
      </trkpt>
      <trkpt lat="42.87236" lon="2.18285">
        <ele>294.51</ele>
        <time>2026-06-03T15:15:26.542652965Z</time>
      </trkpt>
      <trkpt lat="42.8723" lon="2.18286">
        <ele>294.53</ele>
        <time>2026-06-03T15:15:27.502568007Z</time>
      </trkpt>
      <trkpt lat="42.87225" lon="2.18287">
        <ele>294.55</ele>
        <time>2026-06-03T15:15:28.356999993Z</time>
      </trkpt>
      <trkpt lat="42.87221" lon="2.18287">
        <ele>294.56</ele>
        <time>2026-06-03T15:15:29.542268991Z</time>
      </trkpt>
      <trkpt lat="42.87215" lon="2.18288">
        <ele>294.58002</ele>
        <time>2026-06-03T15:15:30.394896030Z</time>
      </trkpt>
      <trkpt lat="42.8721" lon="2.18289">
        <ele>294.6</ele>
        <time>2026-06-03T15:15:31.582597971Z</time>
      </trkpt>
      <trkpt lat="42.87205" lon="2.1829">
        <ele>294.62</ele>
        <time>2026-06-03T15:15:32.361922026Z</time>
      </trkpt>
      <trkpt lat="42.872" lon="2.18291">
        <ele>294.63</ele>
        <time>2026-06-03T15:15:33.562451005Z</time>
      </trkpt>
      <trkpt lat="42.87195" lon="2.18292">
        <ele>294.65</ele>
        <time>2026-06-03T15:15:34.354694963Z</time>
      </trkpt>
      <trkpt lat="42.8719" lon="2.18293">
        <ele>294.66998</ele>
        <time>2026-06-03T15:15:35.542022943Z</time>
      </trkpt>
      <trkpt lat="42.87186" lon="2.18294">
        <ele>294.68</ele>
        <time>2026-06-03T15:15:36.622473001Z</time>
      </trkpt>
      <trkpt lat="42.87181" lon="2.18295">
        <ele>294.7</ele>
        <time>2026-06-03T15:15:37.582409024Z</time>
      </trkpt>
      <trkpt lat="42.87176" lon="2.18296">
        <ele>294.71002</ele>
        <time>2026-06-03T15:15:38.414211035Z</time>
      </trkpt>
      <trkpt lat="42.87171" lon="2.18297">
        <ele>294.72</ele>
        <time>2026-06-03T15:15:39.562767029Z</time>
      </trkpt>
      <trkpt lat="42.87165" lon="2.18298">
        <ele>294.72</ele>
        <time>2026-06-03T15:15:40.582684040Z</time>
      </trkpt>
      <trkpt lat="42.87162" lon="2.18299">
        <ele>294.72</ele>
        <time>2026-06-03T15:15:41.602633953Z</time>
      </trkpt>
      <trkpt lat="42.87157" lon="2.183">
        <ele>294.72</ele>
        <time>2026-06-03T15:15:42.429110050Z</time>
      </trkpt>
      <trkpt lat="42.87153" lon="2.18301">
        <ele>294.71002</ele>
        <time>2026-06-03T15:15:43.360020041Z</time>
      </trkpt>
      <trkpt lat="42.87148" lon="2.18302">
        <ele>294.71002</ele>
        <time>2026-06-03T15:15:44.542950034Z</time>
      </trkpt>
      <trkpt lat="42.87143" lon="2.18303">
        <ele>294.7</ele>
        <time>2026-06-03T15:15:45.562919974Z</time>
      </trkpt>
      <trkpt lat="42.87138" lon="2.18304">
        <ele>294.7</ele>
        <time>2026-06-03T15:15:46.361467957Z</time>
      </trkpt>
      <trkpt lat="42.87134" lon="2.18305">
        <ele>294.7</ele>
        <time>2026-06-03T15:15:47.542729974Z</time>
      </trkpt>
      <trkpt lat="42.87129" lon="2.18306">
        <ele>294.69</ele>
        <time>2026-06-03T15:15:48.648915052Z</time>
      </trkpt>
      <trkpt lat="42.87124" lon="2.18307">
        <ele>294.69</ele>
        <time>2026-06-03T15:15:49.356693983Z</time>
      </trkpt>
      <trkpt lat="42.8712" lon="2.18308">
        <ele>294.69</ele>
        <time>2026-06-03T15:15:50.448562980Z</time>
      </trkpt>
      <trkpt lat="42.87115" lon="2.18309">
        <ele>294.68</ele>
        <time>2026-06-03T15:15:51.562891960Z</time>
      </trkpt>
      <trkpt lat="42.8711" lon="2.18309">
        <ele>294.66998</ele>
        <time>2026-06-03T15:15:52.360353947Z</time>
      </trkpt>
      <trkpt lat="42.87106" lon="2.1831">
        <ele>294.66</ele>
        <time>2026-06-03T15:15:53.542863965Z</time>
      </trkpt>
      <trkpt lat="42.87101" lon="2.18311">
        <ele>294.65</ele>
        <time>2026-06-03T15:15:54.463140011Z</time>
      </trkpt>
      <trkpt lat="42.87096" lon="2.18312">
        <ele>294.64</ele>
        <time>2026-06-03T15:15:55.583274007Z</time>
      </trkpt>
      <trkpt lat="42.87091" lon="2.18313">
        <ele>294.62</ele>
        <time>2026-06-03T15:15:56.542973995Z</time>
      </trkpt>
      <trkpt lat="42.87086" lon="2.18313">
        <ele>294.41998</ele>
        <time>2026-06-03T15:15:57.391986966Z</time>
      </trkpt>
      <trkpt lat="42.8708" lon="2.18314">
        <ele>294.25</ele>
        <time>2026-06-03T15:15:58.477838993Z</time>
      </trkpt>
      <trkpt lat="42.87076" lon="2.18315">
        <ele>294.11</ele>
        <time>2026-06-03T15:15:59.573493004Z</time>
      </trkpt>
      <trkpt lat="42.87072" lon="2.18316">
        <ele>293.97998</ele>
        <time>2026-06-03T15:16:00.562847972Z</time>
      </trkpt>
      <trkpt lat="42.87068" lon="2.18317">
        <ele>293.88</ele>
        <time>2026-06-03T15:16:01.338364005Z</time>
      </trkpt>
      <trkpt lat="42.87065" lon="2.18318">
        <ele>293.78998</ele>
        <time>2026-06-03T15:16:02.492542982Z</time>
      </trkpt>
      <trkpt lat="42.87061" lon="2.18319">
        <ele>293.7</ele>
        <time>2026-06-03T15:16:03.563367963Z</time>
      </trkpt>
      <trkpt lat="42.87057" lon="2.18319">
        <ele>293.62</ele>
        <time>2026-06-03T15:16:04.583287954Z</time>
      </trkpt>
      <trkpt lat="42.87053" lon="2.1832">
        <ele>293.56</ele>
        <time>2026-06-03T15:16:05.603754997Z</time>
      </trkpt>
      <trkpt lat="42.8705" lon="2.18321">
        <ele>293.5</ele>
        <time>2026-06-03T15:16:06.497267008Z</time>
      </trkpt>
      <trkpt lat="42.87046" lon="2.18321">
        <ele>293.45</ele>
        <time>2026-06-03T15:16:07.523617983Z</time>
      </trkpt>
      <trkpt lat="42.87043" lon="2.18321">
        <ele>293.4</ele>
        <time>2026-06-03T15:16:08.602939963Z</time>
      </trkpt>
      <trkpt lat="42.8704" lon="2.18321">
        <ele>293.36</ele>
        <time>2026-06-03T15:16:09.337283015Z</time>
      </trkpt>
      <trkpt lat="42.87037" lon="2.18321">
        <ele>293.32</ele>
        <time>2026-06-03T15:16:10.512089014Z</time>
      </trkpt>
      <trkpt lat="42.87034" lon="2.18322">
        <ele>293.28</ele>
        <time>2026-06-03T15:16:11.423261046Z</time>
      </trkpt>
      <trkpt lat="42.8703" lon="2.18323">
        <ele>293.24</ele>
        <time>2026-06-03T15:16:12.405761957Z</time>
      </trkpt>
      <trkpt lat="42.87029" lon="2.18324">
        <ele>293.2</ele>
        <time>2026-06-03T15:16:13.463842988Z</time>
      </trkpt>
      <trkpt lat="42.87025" lon="2.18329">
        <ele>293.01</ele>
        <time>2026-06-03T15:16:24.503041983Z</time>
      </trkpt>
      <trkpt lat="42.87024" lon="2.1833">
        <ele>293</ele>
        <time>2026-06-03T15:16:25.583451986Z</time>
      </trkpt>
      <trkpt lat="42.87022" lon="2.1833">
        <ele>292.99</ele>
        <time>2026-06-03T15:16:26.603435993Z</time>
      </trkpt>
      <trkpt lat="42.8702" lon="2.18331">
        <ele>293.01</ele>
        <time>2026-06-03T15:16:27.442438006Z</time>
      </trkpt>
      <trkpt lat="42.87017" lon="2.18331">
        <ele>293.02002</ele>
        <time>2026-06-03T15:16:28.409430981Z</time>
      </trkpt>
      <trkpt lat="42.87015" lon="2.18332">
        <ele>293.03998</ele>
        <time>2026-06-03T15:16:29.603338957Z</time>
      </trkpt>
      <trkpt lat="42.87012" lon="2.18334">
        <ele>293.06</ele>
        <time>2026-06-03T15:16:30.564110041Z</time>
      </trkpt>
      <trkpt lat="42.87009" lon="2.18336">
        <ele>293.08002</ele>
        <time>2026-06-03T15:16:31.523576975Z</time>
      </trkpt>
      <trkpt lat="42.87006" lon="2.18338">
        <ele>293.1</ele>
        <time>2026-06-03T15:16:32.543419003Z</time>
      </trkpt>
      <trkpt lat="42.87004" lon="2.18341">
        <ele>293.12</ele>
        <time>2026-06-03T15:16:33.503537059Z</time>
      </trkpt>
      <trkpt lat="42.87004" lon="2.18342">
        <ele>293.13</ele>
        <time>2026-06-03T15:16:34.440657973Z</time>
      </trkpt>
      <trkpt lat="42.87002" lon="2.18349">
        <ele>293.13</ele>
        <time>2026-06-03T15:16:35.484776020Z</time>
      </trkpt>
      <trkpt lat="42.87003" lon="2.18354">
        <ele>293.12</ele>
        <time>2026-06-03T15:16:36.502717018Z</time>
      </trkpt>
      <trkpt lat="42.87004" lon="2.1836">
        <ele>293.12</ele>
        <time>2026-06-03T15:16:37.522619009Z</time>
      </trkpt>
      <trkpt lat="42.87006" lon="2.18366">
        <ele>293.1</ele>
        <time>2026-06-03T15:16:38.433074951Z</time>
      </trkpt>
      <trkpt lat="42.87008" lon="2.18371">
        <ele>293.03</ele>
        <time>2026-06-03T15:16:39.502709031Z</time>
      </trkpt>
      <trkpt lat="42.87008" lon="2.18373">
        <ele>292.91</ele>
        <time>2026-06-03T15:16:40.523767948Z</time>
      </trkpt>
      <trkpt lat="42.8701" lon="2.18377">
        <ele>292.77002</ele>
        <time>2026-06-03T15:16:41.543434024Z</time>
      </trkpt>
      <trkpt lat="42.87011" lon="2.18382">
        <ele>292.61</ele>
        <time>2026-06-03T15:16:42.502617955Z</time>
      </trkpt>
      <trkpt lat="42.87013" lon="2.18388">
        <ele>292.43</ele>
        <time>2026-06-03T15:16:43.523619056Z</time>
      </trkpt>
      <trkpt lat="42.87014" lon="2.18398">
        <ele>292.25</ele>
        <time>2026-06-03T15:16:44.543336034Z</time>
      </trkpt>
      <trkpt lat="42.87015" lon="2.18403">
        <ele>292.1</ele>
        <time>2026-06-03T15:16:45.410390973Z</time>
      </trkpt>
      <trkpt lat="42.87016" lon="2.18405">
        <ele>291.93</ele>
        <time>2026-06-03T15:16:46.454141021Z</time>
      </trkpt>
      <trkpt lat="42.87016" lon="2.18409">
        <ele>291.75</ele>
        <time>2026-06-03T15:16:47.482434988Z</time>
      </trkpt>
      <trkpt lat="42.8702" lon="2.1841">
        <ele>291.55</ele>
        <time>2026-06-03T15:16:56.371523023Z</time>
      </trkpt>
      <trkpt lat="42.8702" lon="2.18408">
        <ele>291.55</ele>
        <time>2026-06-03T15:16:58.582754016Z</time>
      </trkpt>
      <trkpt lat="42.87019" lon="2.18405">
        <ele>290.83002</ele>
        <time>2026-06-03T15:17:03.504567027Z</time>
      </trkpt>
    </trkseg>
  </trk>
</gpx>